<?xml version='1.0' encoding='UTF-8'?><gpx version="1.1" creator="JPX - https://github.com/jenetics/jpx" xmlns="http://www.topografix.com/GPX/1/1"><trk><trkseg><trkpt lat="44.8084106" lon="9.4279374"><ele>263.0</ele><time>2026-04-04T10:17:22.981Z</time></trkpt><trkpt lat="44.8085114" lon="9.4279984"><ele>263.0</ele><time>2026-04-04T10:17:24.979Z</time></trkpt><trkpt lat="44.8086078" lon="9.4280889"><ele>263.0</ele><time>2026-04-04T10:17:26.993Z</time></trkpt><trkpt lat="44.8086841" lon="9.428204"><ele>263.0</ele><time>2026-04-04T10:17:28.989Z</time></trkpt><trkpt lat="44.8087291" lon="9.4283763"><ele>263.0</ele><time>2026-04-04T10:17:30.989Z</time></trkpt><trkpt lat="44.808747" lon="9.4284803"><ele>263.0</ele><time>2026-04-04T10:17:31.996Z</time></trkpt><trkpt lat="44.80876" lon="9.4285964"><ele>263.0</ele><time>2026-04-04T10:17:33.008Z</time></trkpt><trkpt lat="44.8087574" lon="9.4287263"><ele>263.0</ele><time>2026-04-04T10:17:33.995Z</time></trkpt><trkpt lat="44.8087546" lon="9.4288506"><ele>263.0</ele><time>2026-04-04T10:17:34.986Z</time></trkpt><trkpt lat="44.8087528" lon="9.4289762"><ele>263.0</ele><time>2026-04-04T10:17:36.004Z</time></trkpt><trkpt lat="44.8087514" lon="9.4291014"><ele>262.5</ele><time>2026-04-04T10:17:36.999Z</time></trkpt><trkpt lat="44.8087456" lon="9.4292299"><ele>262.0</ele><time>2026-04-04T10:17:38.004Z</time></trkpt><trkpt lat="44.8087359" lon="9.4293484"><ele>261.5</ele><time>2026-04-04T10:17:38.986Z</time></trkpt><trkpt lat="44.8087315" lon="9.4294541"><ele>261.0</ele><time>2026-04-04T10:17:39.99Z</time></trkpt><trkpt lat="44.8087251" lon="9.4295436"><ele>260.5</ele><time>2026-04-04T10:17:40.99Z</time></trkpt><trkpt lat="44.8087192" lon="9.4296956"><ele>260.0</ele><time>2026-04-04T10:17:42.992Z</time></trkpt><trkpt lat="44.8087481" lon="9.4298682"><ele>259.7142857142857</ele><time>2026-04-04T10:17:44.99Z</time></trkpt><trkpt lat="44.8087595" lon="9.429964"><ele>259.42857142857144</ele><time>2026-04-04T10:17:45.992Z</time></trkpt><trkpt lat="44.8087651" lon="9.430069"><ele>259.1428571428571</ele><time>2026-04-04T10:17:46.985Z</time></trkpt><trkpt lat="44.8087735" lon="9.4301873"><ele>258.8571428571429</ele><time>2026-04-04T10:17:47.99Z</time></trkpt><trkpt lat="44.8087841" lon="9.4302952"><ele>258.57142857142856</ele><time>2026-04-04T10:17:48.989Z</time></trkpt><trkpt lat="44.8088048" lon="9.4303978"><ele>258.2857142857143</ele><time>2026-04-04T10:17:49.986Z</time></trkpt><trkpt lat="44.8088301" lon="9.4304835"><ele>258.0</ele><time>2026-04-04T10:17:50.998Z</time></trkpt><trkpt lat="44.8088677" lon="9.4305572"><ele>256.6</ele><time>2026-04-04T10:17:51.985Z</time></trkpt><trkpt lat="44.8089393" lon="9.4306882"><ele>255.20000000000002</ele><time>2026-04-04T10:17:53.991Z</time></trkpt><trkpt lat="44.8089644" lon="9.4308002"><ele>253.8</ele><time>2026-04-04T10:17:55.996Z</time></trkpt><trkpt lat="44.8088693" lon="9.4308798"><ele>252.4</ele><time>2026-04-04T10:17:57.996Z</time></trkpt><trkpt lat="44.8087486" lon="9.4309041"><ele>251.0</ele><time>2026-04-04T10:17:59.998Z</time></trkpt><trkpt lat="44.8086493" lon="9.4308984"><ele>251.00000000000003</ele><time>2026-04-04T10:18:01.985Z</time></trkpt><trkpt lat="44.8085313" lon="9.4308678"><ele>251.0</ele><time>2026-04-04T10:18:04.005Z</time></trkpt><trkpt lat="44.808466" lon="9.4308258"><ele>251.0</ele><time>2026-04-04T10:18:04.99Z</time></trkpt><trkpt lat="44.8084062" lon="9.4307907"><ele>251.0</ele><time>2026-04-04T10:18:05.989Z</time></trkpt><trkpt lat="44.8083462" lon="9.4307595"><ele>251.00000000000003</ele><time>2026-04-04T10:18:06.988Z</time></trkpt><trkpt lat="44.8082859" lon="9.4307216"><ele>251.0</ele><time>2026-04-04T10:18:07.983Z</time></trkpt><trkpt lat="44.8081663" lon="9.4306625"><ele>250.33333333333334</ele><time>2026-04-04T10:18:09.996Z</time></trkpt><trkpt lat="44.8081058" lon="9.4306278"><ele>249.66666666666669</ele><time>2026-04-04T10:18:10.989Z</time></trkpt><trkpt lat="44.8080433" lon="9.430606"><ele>249.0</ele><time>2026-04-04T10:18:11.988Z</time></trkpt><trkpt lat="44.8079799" lon="9.4305888"><ele>248.33333333333331</ele><time>2026-04-04T10:18:13Z</time></trkpt><trkpt lat="44.8078628" lon="9.4305816"><ele>247.66666666666666</ele><time>2026-04-04T10:18:14.988Z</time></trkpt><trkpt lat="44.8077823" lon="9.4306269"><ele>247.0</ele><time>2026-04-04T10:18:16.996Z</time></trkpt><trkpt lat="44.8076896" lon="9.4306826"><ele>245.99999999999997</ele><time>2026-04-04T10:18:19Z</time></trkpt><trkpt lat="44.8075937" lon="9.4307892"><ele>245.0</ele><time>2026-04-04T10:18:20.985Z</time></trkpt><trkpt lat="44.8075631" lon="9.430867"><ele>244.0</ele><time>2026-04-04T10:18:21.991Z</time></trkpt><trkpt lat="44.8075377" lon="9.4309606"><ele>243.0</ele><time>2026-04-04T10:18:22.986Z</time></trkpt><trkpt lat="44.8075275" lon="9.4310727"><ele>241.99999999999997</ele><time>2026-04-04T10:18:23.995Z</time></trkpt><trkpt lat="44.8075354" lon="9.4311927"><ele>241.0</ele><time>2026-04-04T10:18:24.984Z</time></trkpt><trkpt lat="44.8075551" lon="9.4313092"><ele>240.66666666666666</ele><time>2026-04-04T10:18:25.983Z</time></trkpt><trkpt lat="44.8075878" lon="9.4314173"><ele>240.33333333333331</ele><time>2026-04-04T10:18:27Z</time></trkpt><trkpt lat="44.8076336" lon="9.4315249"><ele>240.0</ele><time>2026-04-04T10:18:27.988Z</time></trkpt><trkpt lat="44.807686" lon="9.4316161"><ele>239.66666666666669</ele><time>2026-04-04T10:18:28.985Z</time></trkpt><trkpt lat="44.8077531" lon="9.4317041"><ele>239.33333333333334</ele><time>2026-04-04T10:18:29.998Z</time></trkpt><trkpt lat="44.8078316" lon="9.4317761"><ele>239.0</ele><time>2026-04-04T10:18:30.983Z</time></trkpt><trkpt lat="44.8079134" lon="9.4318422"><ele>239.0</ele><time>2026-04-04T10:18:31.981Z</time></trkpt><trkpt lat="44.8080046" lon="9.4319023"><ele>238.99999999999997</ele><time>2026-04-04T10:18:33.001Z</time></trkpt><trkpt lat="44.8080875" lon="9.4319632"><ele>238.99999999999997</ele><time>2026-04-04T10:18:33.998Z</time></trkpt><trkpt lat="44.8081703" lon="9.4320349"><ele>239.0</ele><time>2026-04-04T10:18:34.995Z</time></trkpt><trkpt lat="44.8082564" lon="9.4321075"><ele>239.0</ele><time>2026-04-04T10:18:36.036Z</time></trkpt><trkpt lat="44.8083354" lon="9.4321768"><ele>237.00000000000003</ele><time>2026-04-04T10:18:37.049Z</time></trkpt><trkpt lat="44.8084071" lon="9.4322397"><ele>235.0</ele><time>2026-04-04T10:18:38.061Z</time></trkpt><trkpt lat="44.8084591" lon="9.432304"><ele>233.0</ele><time>2026-04-04T10:18:39.049Z</time></trkpt><trkpt lat="44.8084905" lon="9.4323813"><ele>231.0</ele><time>2026-04-04T10:18:40.037Z</time></trkpt><trkpt lat="44.8084327" lon="9.4325183"><ele>229.00000000000003</ele><time>2026-04-04T10:18:42.034Z</time></trkpt><trkpt lat="44.8083655" lon="9.4325342"><ele>227.0</ele><time>2026-04-04T10:18:43.051Z</time></trkpt><trkpt lat="44.8082956" lon="9.4325211"><ele>227.0</ele><time>2026-04-04T10:18:44.029Z</time></trkpt><trkpt lat="44.8082264" lon="9.4324833"><ele>227.0</ele><time>2026-04-04T10:18:44.998Z</time></trkpt><trkpt lat="44.8081541" lon="9.4324212"><ele>227.0</ele><time>2026-04-04T10:18:46.022Z</time></trkpt><trkpt lat="44.8080753" lon="9.4323602"><ele>227.0</ele><time>2026-04-04T10:18:47.028Z</time></trkpt><trkpt lat="44.8079726" lon="9.4322894"><ele>227.0</ele><time>2026-04-04T10:18:48.019Z</time></trkpt><trkpt lat="44.8078651" lon="9.4322132"><ele>228.39999999999998</ele><time>2026-04-04T10:18:49.021Z</time></trkpt><trkpt lat="44.8077474" lon="9.4321318"><ele>229.79999999999998</ele><time>2026-04-04T10:18:50.02Z</time></trkpt><trkpt lat="44.8076456" lon="9.4320623"><ele>231.2</ele><time>2026-04-04T10:18:51.044Z</time></trkpt><trkpt lat="44.8075562" lon="9.431997"><ele>232.6</ele><time>2026-04-04T10:18:52.009Z</time></trkpt><trkpt lat="44.8074784" lon="9.4319271"><ele>234.0</ele><time>2026-04-04T10:18:53.038Z</time></trkpt><trkpt lat="44.8073986" lon="9.4318668"><ele>234.0</ele><time>2026-04-04T10:18:54.036Z</time></trkpt><trkpt lat="44.8073249" lon="9.4318099"><ele>233.99999999999997</ele><time>2026-04-04T10:18:54.99Z</time></trkpt><trkpt lat="44.807222" lon="9.4317113"><ele>233.99999999999997</ele><time>2026-04-04T10:18:56.994Z</time></trkpt><trkpt lat="44.8071719" lon="9.4316391"><ele>234.0</ele><time>2026-04-04T10:18:59.023Z</time></trkpt><trkpt lat="44.8071188" lon="9.4315306"><ele>234.0</ele><time>2026-04-04T10:19:02.036Z</time></trkpt><trkpt lat="44.80707" lon="9.4314148"><ele>234.0</ele><time>2026-04-04T10:19:05.027Z</time></trkpt><trkpt lat="44.8070319" lon="9.4313387"><ele>233.99999999999997</ele><time>2026-04-04T10:19:06.014Z</time></trkpt><trkpt lat="44.8069796" lon="9.4312283"><ele>233.99999999999997</ele><time>2026-04-04T10:19:07.043Z</time></trkpt><trkpt lat="44.8069181" lon="9.4311102"><ele>234.0</ele><time>2026-04-04T10:19:08.038Z</time></trkpt><trkpt lat="44.8068432" lon="9.4309749"><ele>234.0</ele><time>2026-04-04T10:19:09.002Z</time></trkpt><trkpt lat="44.8067535" lon="9.430808"><ele>232.33333333333331</ele><time>2026-04-04T10:19:09.987Z</time></trkpt><trkpt lat="44.8066566" lon="9.4306302"><ele>230.66666666666666</ele><time>2026-04-04T10:19:11.041Z</time></trkpt><trkpt lat="44.8065578" lon="9.4304405"><ele>229.0</ele><time>2026-04-04T10:19:12.037Z</time></trkpt><trkpt lat="44.8064452" lon="9.4302519"><ele>229.0</ele><time>2026-04-04T10:19:13.036Z</time></trkpt><trkpt lat="44.8063248" lon="9.430064"><ele>229.0</ele><time>2026-04-04T10:19:14.049Z</time></trkpt><trkpt lat="44.8062092" lon="9.4298733"><ele>229.0</ele><time>2026-04-04T10:19:15.01Z</time></trkpt><trkpt lat="44.8060801" lon="9.4296818"><ele>228.0</ele><time>2026-04-04T10:19:16.036Z</time></trkpt><trkpt lat="44.8059459" lon="9.4294895"><ele>227.0</ele><time>2026-04-04T10:19:17.054Z</time></trkpt><trkpt lat="44.8058067" lon="9.429295"><ele>226.0</ele><time>2026-04-04T10:19:18.015Z</time></trkpt><trkpt lat="44.8056737" lon="9.4291123"><ele>226.0</ele><time>2026-04-04T10:19:19.027Z</time></trkpt><trkpt lat="44.8055271" lon="9.4289194"><ele>226.0</ele><time>2026-04-04T10:19:20.029Z</time></trkpt><trkpt lat="44.8053813" lon="9.4287293"><ele>226.0</ele><time>2026-04-04T10:19:21.03Z</time></trkpt><trkpt lat="44.805235" lon="9.4285419"><ele>226.0</ele><time>2026-04-04T10:19:22.02Z</time></trkpt><trkpt lat="44.8050884" lon="9.4283536"><ele>226.0</ele><time>2026-04-04T10:19:23.039Z</time></trkpt><trkpt lat="44.8049389" lon="9.4281649"><ele>226.0</ele><time>2026-04-04T10:19:24.045Z</time></trkpt><trkpt lat="44.8047907" lon="9.4279731"><ele>226.0</ele><time>2026-04-04T10:19:25.026Z</time></trkpt><trkpt lat="44.8046363" lon="9.4277766"><ele>226.0</ele><time>2026-04-04T10:19:26.03Z</time></trkpt><trkpt lat="44.8044829" lon="9.4275929"><ele>226.0</ele><time>2026-04-04T10:19:27.042Z</time></trkpt><trkpt lat="44.8043264" lon="9.4274084"><ele>226.0</ele><time>2026-04-04T10:19:28.054Z</time></trkpt><trkpt lat="44.8041652" lon="9.4272301"><ele>226.0</ele><time>2026-04-04T10:19:29.006Z</time></trkpt><trkpt lat="44.8040156" lon="9.4270469"><ele>226.0</ele><time>2026-04-04T10:19:30.047Z</time></trkpt><trkpt lat="44.8038695" lon="9.4268583"><ele>226.33333333333331</ele><time>2026-04-04T10:19:31.042Z</time></trkpt><trkpt lat="44.803729" lon="9.4266621"><ele>226.66666666666669</ele><time>2026-04-04T10:19:32.026Z</time></trkpt><trkpt lat="44.8035911" lon="9.4264711"><ele>227.0</ele><time>2026-04-04T10:19:33.019Z</time></trkpt><trkpt lat="44.8034486" lon="9.4262792"><ele>227.0</ele><time>2026-04-04T10:19:34.038Z</time></trkpt><trkpt lat="44.8032949" lon="9.4260949"><ele>227.0</ele><time>2026-04-04T10:19:35.042Z</time></trkpt><trkpt lat="44.8031407" lon="9.4259268"><ele>227.0</ele><time>2026-04-04T10:19:36.006Z</time></trkpt><trkpt lat="44.8029752" lon="9.425764"><ele>227.0</ele><time>2026-04-04T10:19:36.987Z</time></trkpt><trkpt lat="44.8028044" lon="9.4256094"><ele>227.0</ele><time>2026-04-04T10:19:38.041Z</time></trkpt><trkpt lat="44.8026295" lon="9.4254652"><ele>227.0</ele><time>2026-04-04T10:19:39.041Z</time></trkpt><trkpt lat="44.802452" lon="9.425323"><ele>228.33333333333334</ele><time>2026-04-04T10:19:40.033Z</time></trkpt><trkpt lat="44.8022747" lon="9.4251926"><ele>229.66666666666669</ele><time>2026-04-04T10:19:41.042Z</time></trkpt><trkpt lat="44.8020934" lon="9.4250652"><ele>231.0</ele><time>2026-04-04T10:19:42.044Z</time></trkpt><trkpt lat="44.8019047" lon="9.4249378"><ele>229.66666666666669</ele><time>2026-04-04T10:19:43.059Z</time></trkpt><trkpt lat="44.8017223" lon="9.424806"><ele>228.33333333333334</ele><time>2026-04-04T10:19:44.058Z</time></trkpt><trkpt lat="44.8015384" lon="9.4246743"><ele>227.0</ele><time>2026-04-04T10:19:45.046Z</time></trkpt><trkpt lat="44.8013445" lon="9.4245422"><ele>227.0</ele><time>2026-04-04T10:19:46.055Z</time></trkpt><trkpt lat="44.8011623" lon="9.4244115"><ele>227.0</ele><time>2026-04-04T10:19:47.048Z</time></trkpt><trkpt lat="44.8009755" lon="9.4242804"><ele>227.0</ele><time>2026-04-04T10:19:48.06Z</time></trkpt><trkpt lat="44.8007935" lon="9.4241525"><ele>227.33333333333334</ele><time>2026-04-04T10:19:49.039Z</time></trkpt><trkpt lat="44.8006012" lon="9.424023"><ele>227.66666666666669</ele><time>2026-04-04T10:19:50.047Z</time></trkpt><trkpt lat="44.8004149" lon="9.4238923"><ele>228.0</ele><time>2026-04-04T10:19:51.03Z</time></trkpt><trkpt lat="44.8002248" lon="9.423769"><ele>230.0</ele><time>2026-04-04T10:19:52.064Z</time></trkpt><trkpt lat="44.8000345" lon="9.4236442"><ele>232.0</ele><time>2026-04-04T10:19:53.052Z</time></trkpt><trkpt lat="44.7998472" lon="9.4235278"><ele>234.0</ele><time>2026-04-04T10:19:54.043Z</time></trkpt><trkpt lat="44.799655" lon="9.4234294"><ele>234.0</ele><time>2026-04-04T10:19:55.037Z</time></trkpt><trkpt lat="44.7994625" lon="9.423355"><ele>234.0</ele><time>2026-04-04T10:19:56.035Z</time></trkpt><trkpt lat="44.7992587" lon="9.4232906"><ele>234.0</ele><time>2026-04-04T10:19:57.022Z</time></trkpt><trkpt lat="44.7990497" lon="9.4232512"><ele>234.66666666666669</ele><time>2026-04-04T10:19:58.05Z</time></trkpt><trkpt lat="44.7988414" lon="9.4232279"><ele>235.33333333333334</ele><time>2026-04-04T10:19:59.042Z</time></trkpt><trkpt lat="44.7986299" lon="9.4232095"><ele>236.0</ele><time>2026-04-04T10:20:00.048Z</time></trkpt><trkpt lat="44.7984199" lon="9.4231936"><ele>237.66666666666669</ele><time>2026-04-04T10:20:01.057Z</time></trkpt><trkpt lat="44.7982075" lon="9.4231605"><ele>239.33333333333331</ele><time>2026-04-04T10:20:02.036Z</time></trkpt><trkpt lat="44.7979966" lon="9.4231173"><ele>241.0</ele><time>2026-04-04T10:20:03.047Z</time></trkpt><trkpt lat="44.7977873" lon="9.4230707"><ele>241.33333333333331</ele><time>2026-04-04T10:20:04.048Z</time></trkpt><trkpt lat="44.7975733" lon="9.4230314"><ele>241.66666666666669</ele><time>2026-04-04T10:20:05.066Z</time></trkpt><trkpt lat="44.79736" lon="9.4229754"><ele>242.0</ele><time>2026-04-04T10:20:06.011Z</time></trkpt><trkpt lat="44.7971471" lon="9.4228977"><ele>241.33333333333334</ele><time>2026-04-04T10:20:07.013Z</time></trkpt><trkpt lat="44.7969453" lon="9.4227994"><ele>240.66666666666669</ele><time>2026-04-04T10:20:08.043Z</time></trkpt><trkpt lat="44.7967521" lon="9.4226791"><ele>240.0</ele><time>2026-04-04T10:20:08.99Z</time></trkpt><trkpt lat="44.7965648" lon="9.4225427"><ele>240.0</ele><time>2026-04-04T10:20:10.047Z</time></trkpt><trkpt lat="44.796384" lon="9.4223796"><ele>240.0</ele><time>2026-04-04T10:20:11.031Z</time></trkpt><trkpt lat="44.7962071" lon="9.4221985"><ele>240.0</ele><time>2026-04-04T10:20:12.008Z</time></trkpt><trkpt lat="44.7960351" lon="9.4220042"><ele>243.5</ele><time>2026-04-04T10:20:13.03Z</time></trkpt><trkpt lat="44.7958623" lon="9.4217917"><ele>247.0</ele><time>2026-04-04T10:20:14.012Z</time></trkpt><trkpt lat="44.7957004" lon="9.4215712"><ele>247.0</ele><time>2026-04-04T10:20:15.04Z</time></trkpt><trkpt lat="44.7955394" lon="9.4213451"><ele>247.0</ele><time>2026-04-04T10:20:16.04Z</time></trkpt><trkpt lat="44.7953751" lon="9.4211278"><ele>244.5</ele><time>2026-04-04T10:20:17.052Z</time></trkpt><trkpt lat="44.795211" lon="9.4209085"><ele>242.0</ele><time>2026-04-04T10:20:17.991Z</time></trkpt><trkpt lat="44.7950461" lon="9.4206817"><ele>240.0</ele><time>2026-04-04T10:20:18.97Z</time></trkpt><trkpt lat="44.7899155" lon="9.4139828"><ele>238.0</ele><time>2026-04-04T10:20:47.994Z</time></trkpt><trkpt lat="44.7897454" lon="9.4137527"><ele>236.0</ele><time>2026-04-04T10:20:48.989Z</time></trkpt><trkpt lat="44.7895714" lon="9.4135113"><ele>236.0</ele><time>2026-04-04T10:20:50.024Z</time></trkpt><trkpt lat="44.7893784" lon="9.4132499"><ele>236.0</ele><time>2026-04-04T10:20:51.026Z</time></trkpt><trkpt lat="44.7891991" lon="9.4129993"><ele>236.5</ele><time>2026-04-04T10:20:52.033Z</time></trkpt><trkpt lat="44.7890179" lon="9.4127562"><ele>237.0</ele><time>2026-04-04T10:20:53.031Z</time></trkpt><trkpt lat="44.7888311" lon="9.4125148"><ele>237.0</ele><time>2026-04-04T10:20:54.023Z</time></trkpt><trkpt lat="44.7886444" lon="9.4122759"><ele>237.0</ele><time>2026-04-04T10:20:55.028Z</time></trkpt><trkpt lat="44.7884542" lon="9.4120307"><ele>237.5</ele><time>2026-04-04T10:20:56.039Z</time></trkpt><trkpt lat="44.7882633" lon="9.4117843"><ele>238.0</ele><time>2026-04-04T10:20:57.048Z</time></trkpt><trkpt lat="44.7880792" lon="9.4115382"><ele>237.5</ele><time>2026-04-04T10:20:58.036Z</time></trkpt><trkpt lat="44.7878909" lon="9.4112963"><ele>237.0</ele><time>2026-04-04T10:20:59.036Z</time></trkpt><trkpt lat="44.787705" lon="9.411055"><ele>238.5</ele><time>2026-04-04T10:21:00.024Z</time></trkpt><trkpt lat="44.7875196" lon="9.4108117"><ele>240.0</ele><time>2026-04-04T10:21:01.034Z</time></trkpt><trkpt lat="44.787332" lon="9.4105697"><ele>238.5</ele><time>2026-04-04T10:21:02.036Z</time></trkpt><trkpt lat="44.7871479" lon="9.4103285"><ele>237.0</ele><time>2026-04-04T10:21:03.042Z</time></trkpt><trkpt lat="44.7869604" lon="9.410092"><ele>241.5</ele><time>2026-04-04T10:21:04.031Z</time></trkpt><trkpt lat="44.7867751" lon="9.4098468"><ele>246.0</ele><time>2026-04-04T10:21:05.029Z</time></trkpt><trkpt lat="44.7865886" lon="9.4096073"><ele>246.0</ele><time>2026-04-04T10:21:06.034Z</time></trkpt><trkpt lat="44.7864061" lon="9.4093681"><ele>246.0</ele><time>2026-04-04T10:21:07.041Z</time></trkpt><trkpt lat="44.7862244" lon="9.4091326"><ele>246.0</ele><time>2026-04-04T10:21:08.038Z</time></trkpt><trkpt lat="44.78605" lon="9.4089"><ele>246.0</ele><time>2026-04-04T10:21:09.053Z</time></trkpt><trkpt lat="44.7858795" lon="9.40867"><ele>246.0</ele><time>2026-04-04T10:21:10.022Z</time></trkpt><trkpt lat="44.7857082" lon="9.4084452"><ele>246.0</ele><time>2026-04-04T10:21:11.042Z</time></trkpt><trkpt lat="44.7855377" lon="9.4082204"><ele>246.0</ele><time>2026-04-04T10:21:12.021Z</time></trkpt><trkpt lat="44.785371" lon="9.4079977"><ele>246.0</ele><time>2026-04-04T10:21:13.039Z</time></trkpt><trkpt lat="44.785203" lon="9.4077807"><ele>247.0</ele><time>2026-04-04T10:21:14.046Z</time></trkpt><trkpt lat="44.7850366" lon="9.4075596"><ele>248.0</ele><time>2026-04-04T10:21:15.035Z</time></trkpt><trkpt lat="44.7848745" lon="9.4073421"><ele>247.33333333333334</ele><time>2026-04-04T10:21:16.017Z</time></trkpt><trkpt lat="44.7847161" lon="9.4071196"><ele>246.66666666666669</ele><time>2026-04-04T10:21:17.039Z</time></trkpt><trkpt lat="44.7845684" lon="9.4068938"><ele>246.0</ele><time>2026-04-04T10:21:18.037Z</time></trkpt><trkpt lat="44.7844153" lon="9.4066706"><ele>245.0</ele><time>2026-04-04T10:21:19.028Z</time></trkpt><trkpt lat="44.784262" lon="9.4064349"><ele>244.0</ele><time>2026-04-04T10:21:20.049Z</time></trkpt><trkpt lat="44.7841089" lon="9.4062009"><ele>244.0</ele><time>2026-04-04T10:21:21.042Z</time></trkpt><trkpt lat="44.7839525" lon="9.4059774"><ele>244.0</ele><time>2026-04-04T10:21:22.047Z</time></trkpt><trkpt lat="44.7837972" lon="9.4057499"><ele>244.0</ele><time>2026-04-04T10:21:23.033Z</time></trkpt><trkpt lat="44.7836385" lon="9.4055261"><ele>243.0</ele><time>2026-04-04T10:21:24.05Z</time></trkpt><trkpt lat="44.783482" lon="9.4053036"><ele>242.0</ele><time>2026-04-04T10:21:25.03Z</time></trkpt><trkpt lat="44.7833258" lon="9.4050786"><ele>241.0</ele><time>2026-04-04T10:21:26.047Z</time></trkpt><trkpt lat="44.7831697" lon="9.4048542"><ele>241.0</ele><time>2026-04-04T10:21:27.034Z</time></trkpt><trkpt lat="44.7830139" lon="9.4046219"><ele>241.0</ele><time>2026-04-04T10:21:28.032Z</time></trkpt><trkpt lat="44.7828579" lon="9.4043913"><ele>241.0</ele><time>2026-04-04T10:21:29.04Z</time></trkpt><trkpt lat="44.7826984" lon="9.4041641"><ele>241.0</ele><time>2026-04-04T10:21:29.996Z</time></trkpt><trkpt lat="44.7825371" lon="9.403941"><ele>242.5</ele><time>2026-04-04T10:21:31.05Z</time></trkpt><trkpt lat="44.7823783" lon="9.4037162"><ele>244.0</ele><time>2026-04-04T10:21:32.028Z</time></trkpt><trkpt lat="44.7822133" lon="9.4034859"><ele>244.0</ele><time>2026-04-04T10:21:33.053Z</time></trkpt><trkpt lat="44.7820516" lon="9.403247"><ele>244.0</ele><time>2026-04-04T10:21:34.048Z</time></trkpt><trkpt lat="44.7818899" lon="9.4030112"><ele>245.5</ele><time>2026-04-04T10:21:35.042Z</time></trkpt><trkpt lat="44.7817273" lon="9.4027762"><ele>247.0</ele><time>2026-04-04T10:21:36.03Z</time></trkpt><trkpt lat="44.7815611" lon="9.4025403"><ele>247.0</ele><time>2026-04-04T10:21:37.031Z</time></trkpt><trkpt lat="44.7813979" lon="9.402308"><ele>247.0</ele><time>2026-04-04T10:21:38.058Z</time></trkpt><trkpt lat="44.7812389" lon="9.4020769"><ele>247.33333333333331</ele><time>2026-04-04T10:21:39.018Z</time></trkpt><trkpt lat="44.7810805" lon="9.401851"><ele>247.66666666666669</ele><time>2026-04-04T10:21:40.023Z</time></trkpt><trkpt lat="44.7809291" lon="9.4016255"><ele>248.0</ele><time>2026-04-04T10:21:41.018Z</time></trkpt><trkpt lat="44.7807784" lon="9.401392"><ele>250.33333333333334</ele><time>2026-04-04T10:21:42.041Z</time></trkpt><trkpt lat="44.7806334" lon="9.4011602"><ele>252.66666666666669</ele><time>2026-04-04T10:21:43.032Z</time></trkpt><trkpt lat="44.7805002" lon="9.4009173"><ele>255.0</ele><time>2026-04-04T10:21:44.052Z</time></trkpt><trkpt lat="44.7803725" lon="9.4006587"><ele>253.5</ele><time>2026-04-04T10:21:45.036Z</time></trkpt><trkpt lat="44.7802558" lon="9.4003828"><ele>252.0</ele><time>2026-04-04T10:21:46.043Z</time></trkpt><trkpt lat="44.7801489" lon="9.4001078"><ele>252.0</ele><time>2026-04-04T10:21:47.067Z</time></trkpt><trkpt lat="44.7800599" lon="9.3998131"><ele>252.0</ele><time>2026-04-04T10:21:48.04Z</time></trkpt><trkpt lat="44.7799823" lon="9.3995128"><ele>254.5</ele><time>2026-04-04T10:21:49.032Z</time></trkpt><trkpt lat="44.7799213" lon="9.3992043"><ele>257.0</ele><time>2026-04-04T10:21:50.018Z</time></trkpt><trkpt lat="44.779871" lon="9.3988889"><ele>258.5</ele><time>2026-04-04T10:21:51.04Z</time></trkpt><trkpt lat="44.7798281" lon="9.3985713"><ele>260.0</ele><time>2026-04-04T10:21:52.015Z</time></trkpt><trkpt lat="44.7798072" lon="9.3982595"><ele>260.33333333333337</ele><time>2026-04-04T10:21:52.973Z</time></trkpt><trkpt lat="44.7797907" lon="9.3979453"><ele>260.6666666666667</ele><time>2026-04-04T10:21:53.993Z</time></trkpt><trkpt lat="44.7797738" lon="9.3976402"><ele>261.0</ele><time>2026-04-04T10:21:54.996Z</time></trkpt><trkpt lat="44.7797574" lon="9.3973396"><ele>263.0</ele><time>2026-04-04T10:21:55.969Z</time></trkpt><trkpt lat="44.7797357" lon="9.3970422"><ele>265.0</ele><time>2026-04-04T10:21:57.03Z</time></trkpt><trkpt lat="44.7797117" lon="9.3967444"><ele>267.0</ele><time>2026-04-04T10:21:57.98Z</time></trkpt><trkpt lat="44.7796838" lon="9.3964498"><ele>269.6666666666667</ele><time>2026-04-04T10:21:59.027Z</time></trkpt><trkpt lat="44.7796417" lon="9.3961645"><ele>272.33333333333337</ele><time>2026-04-04T10:22:00.046Z</time></trkpt><trkpt lat="44.7795862" lon="9.3958762"><ele>275.0</ele><time>2026-04-04T10:22:01.027Z</time></trkpt><trkpt lat="44.7795245" lon="9.3955861"><ele>276.6666666666667</ele><time>2026-04-04T10:22:02.053Z</time></trkpt><trkpt lat="44.7794555" lon="9.395296"><ele>278.3333333333333</ele><time>2026-04-04T10:22:03.038Z</time></trkpt><trkpt lat="44.7793772" lon="9.3950084"><ele>280.0</ele><time>2026-04-04T10:22:04.038Z</time></trkpt><trkpt lat="44.7792959" lon="9.394725"><ele>271.0</ele><time>2026-04-04T10:22:05.026Z</time></trkpt><trkpt lat="44.7792052" lon="9.394446"><ele>262.0</ele><time>2026-04-04T10:22:06.017Z</time></trkpt><trkpt lat="44.7791099" lon="9.3941679"><ele>253.0</ele><time>2026-04-04T10:22:07.01Z</time></trkpt><trkpt lat="44.7790072" lon="9.3939041"><ele>256.66666666666663</ele><time>2026-04-04T10:22:07.99Z</time></trkpt><trkpt lat="44.7788978" lon="9.3936417"><ele>260.3333333333333</ele><time>2026-04-04T10:22:09.008Z</time></trkpt><trkpt lat="44.778788" lon="9.3934001"><ele>264.0</ele><time>2026-04-04T10:22:09.99Z</time></trkpt><trkpt lat="44.7786742" lon="9.3931515"><ele>261.0</ele><time>2026-04-04T10:22:10.994Z</time></trkpt><trkpt lat="44.7785567" lon="9.3929116"><ele>258.0</ele><time>2026-04-04T10:22:11.975Z</time></trkpt><trkpt lat="44.7784315" lon="9.3926832"><ele>255.0</ele><time>2026-04-04T10:22:13.015Z</time></trkpt><trkpt lat="44.7782925" lon="9.3924653"><ele>255.0</ele><time>2026-04-04T10:22:14.021Z</time></trkpt><trkpt lat="44.7781552" lon="9.3922604"><ele>255.0</ele><time>2026-04-04T10:22:15.034Z</time></trkpt><trkpt lat="44.7780049" lon="9.3920647"><ele>255.0</ele><time>2026-04-04T10:22:15.969Z</time></trkpt><trkpt lat="44.7778579" lon="9.3918871"><ele>255.33333333333331</ele><time>2026-04-04T10:22:17.003Z</time></trkpt><trkpt lat="44.7777117" lon="9.3917145"><ele>255.66666666666666</ele><time>2026-04-04T10:22:18.033Z</time></trkpt><trkpt lat="44.7775638" lon="9.3915472"><ele>256.0</ele><time>2026-04-04T10:22:18.988Z</time></trkpt><trkpt lat="44.7774126" lon="9.3913822"><ele>262.66666666666663</ele><time>2026-04-04T10:22:20.049Z</time></trkpt><trkpt lat="44.777249" lon="9.3912294"><ele>269.3333333333333</ele><time>2026-04-04T10:22:21.047Z</time></trkpt><trkpt lat="44.7770894" lon="9.3910753"><ele>276.0</ele><time>2026-04-04T10:22:22.019Z</time></trkpt><trkpt lat="44.7769463" lon="9.3909337"><ele>270.3333333333333</ele><time>2026-04-04T10:22:23.048Z</time></trkpt><trkpt lat="44.776804" lon="9.3907986"><ele>264.66666666666663</ele><time>2026-04-04T10:22:24.036Z</time></trkpt><trkpt lat="44.7766593" lon="9.3906613"><ele>259.0</ele><time>2026-04-04T10:22:25.044Z</time></trkpt><trkpt lat="44.7765158" lon="9.3905309"><ele>262.66666666666663</ele><time>2026-04-04T10:22:26.051Z</time></trkpt><trkpt lat="44.776378" lon="9.3904011"><ele>266.3333333333333</ele><time>2026-04-04T10:22:27.031Z</time></trkpt><trkpt lat="44.7762419" lon="9.3902693"><ele>270.0</ele><time>2026-04-04T10:22:28.076Z</time></trkpt><trkpt lat="44.7760974" lon="9.390145"><ele>264.6666666666667</ele><time>2026-04-04T10:22:29.05Z</time></trkpt><trkpt lat="44.7759542" lon="9.3900128"><ele>259.33333333333337</ele><time>2026-04-04T10:22:30.041Z</time></trkpt><trkpt lat="44.7757988" lon="9.3898826"><ele>254.0</ele><time>2026-04-04T10:22:31.026Z</time></trkpt><trkpt lat="44.7756348" lon="9.3897611"><ele>254.33333333333334</ele><time>2026-04-04T10:22:32.066Z</time></trkpt><trkpt lat="44.775451" lon="9.3896534"><ele>254.66666666666669</ele><time>2026-04-04T10:22:33.022Z</time></trkpt><trkpt lat="44.775262" lon="9.3895719"><ele>255.0</ele><time>2026-04-04T10:22:34.035Z</time></trkpt><trkpt lat="44.7750681" lon="9.3894977"><ele>255.0</ele><time>2026-04-04T10:22:35.044Z</time></trkpt><trkpt lat="44.7748585" lon="9.3894549"><ele>255.0</ele><time>2026-04-04T10:22:36.037Z</time></trkpt><trkpt lat="44.7746413" lon="9.3894423"><ele>255.0</ele><time>2026-04-04T10:22:37.047Z</time></trkpt><trkpt lat="44.7744082" lon="9.389445"><ele>255.0</ele><time>2026-04-04T10:22:38.038Z</time></trkpt><trkpt lat="44.7741655" lon="9.3894604"><ele>255.0</ele><time>2026-04-04T10:22:39.008Z</time></trkpt><trkpt lat="44.7739301" lon="9.3894648"><ele>255.0</ele><time>2026-04-04T10:22:40.046Z</time></trkpt><trkpt lat="44.7736982" lon="9.3894726"><ele>255.0</ele><time>2026-04-04T10:22:41.047Z</time></trkpt><trkpt lat="44.7734853" lon="9.3894793"><ele>255.0</ele><time>2026-04-04T10:22:42.048Z</time></trkpt><trkpt lat="44.7732743" lon="9.3894877"><ele>256.3333333333333</ele><time>2026-04-04T10:22:43.041Z</time></trkpt><trkpt lat="44.7730668" lon="9.3894877"><ele>257.66666666666663</ele><time>2026-04-04T10:22:44.04Z</time></trkpt><trkpt lat="44.7728537" lon="9.3894493"><ele>259.0</ele><time>2026-04-04T10:22:45.05Z</time></trkpt><trkpt lat="44.772639" lon="9.3893773"><ele>259.0</ele><time>2026-04-04T10:22:46.03Z</time></trkpt><trkpt lat="44.7724182" lon="9.389292"><ele>259.0</ele><time>2026-04-04T10:22:47.043Z</time></trkpt><trkpt lat="44.7721973" lon="9.3891992"><ele>259.0</ele><time>2026-04-04T10:22:48.033Z</time></trkpt><trkpt lat="44.7719731" lon="9.3891044"><ele>259.0</ele><time>2026-04-04T10:22:49Z</time></trkpt><trkpt lat="44.7717487" lon="9.3890166"><ele>257.0</ele><time>2026-04-04T10:22:49.989Z</time></trkpt><trkpt lat="44.771531" lon="9.3889213"><ele>255.0</ele><time>2026-04-04T10:22:51.035Z</time></trkpt><trkpt lat="44.7713124" lon="9.3888241"><ele>258.5</ele><time>2026-04-04T10:22:52.035Z</time></trkpt><trkpt lat="44.7711005" lon="9.3887254"><ele>262.0</ele><time>2026-04-04T10:22:53.045Z</time></trkpt><trkpt lat="44.7708818" lon="9.38863"><ele>262.0</ele><time>2026-04-04T10:22:54.032Z</time></trkpt><trkpt lat="44.7706673" lon="9.3885463"><ele>262.0</ele><time>2026-04-04T10:22:55.06Z</time></trkpt><trkpt lat="44.7704586" lon="9.3884821"><ele>262.0</ele><time>2026-04-04T10:22:56.017Z</time></trkpt><trkpt lat="44.7702532" lon="9.3884386"><ele>261.0</ele><time>2026-04-04T10:22:57.056Z</time></trkpt><trkpt lat="44.7700465" lon="9.3884096"><ele>260.0</ele><time>2026-04-04T10:22:58.046Z</time></trkpt><trkpt lat="44.769843" lon="9.388392"><ele>259.0</ele><time>2026-04-04T10:22:59.017Z</time></trkpt><trkpt lat="44.7696417" lon="9.3883998"><ele>259.0</ele><time>2026-04-04T10:23:00.035Z</time></trkpt><trkpt lat="44.7694479" lon="9.3884145"><ele>259.0</ele><time>2026-04-04T10:23:00.994Z</time></trkpt><trkpt lat="44.7692693" lon="9.3884335"><ele>259.0</ele><time>2026-04-04T10:23:02.043Z</time></trkpt><trkpt lat="44.7691038" lon="9.3884584"><ele>260.66666666666663</ele><time>2026-04-04T10:23:03.021Z</time></trkpt><trkpt lat="44.768944" lon="9.3884873"><ele>262.3333333333333</ele><time>2026-04-04T10:23:04.035Z</time></trkpt><trkpt lat="44.7687849" lon="9.3885324"><ele>264.0</ele><time>2026-04-04T10:23:05.05Z</time></trkpt><trkpt lat="44.7686384" lon="9.3885759"><ele>263.5</ele><time>2026-04-04T10:23:06.05Z</time></trkpt><trkpt lat="44.7685009" lon="9.3886199"><ele>263.0</ele><time>2026-04-04T10:23:07.015Z</time></trkpt><trkpt lat="44.7683747" lon="9.388658"><ele>262.5</ele><time>2026-04-04T10:23:08.019Z</time></trkpt><trkpt lat="44.7682446" lon="9.3887001"><ele>262.0</ele><time>2026-04-04T10:23:09.058Z</time></trkpt><trkpt lat="44.7681074" lon="9.3887381"><ele>262.0</ele><time>2026-04-04T10:23:10.024Z</time></trkpt><trkpt lat="44.7679641" lon="9.3887745"><ele>262.0</ele><time>2026-04-04T10:23:10.976Z</time></trkpt><trkpt lat="44.7678252" lon="9.3888232"><ele>262.0</ele><time>2026-04-04T10:23:11.972Z</time></trkpt><trkpt lat="44.7676888" lon="9.3888639"><ele>262.0</ele><time>2026-04-04T10:23:13.018Z</time></trkpt><trkpt lat="44.7675503" lon="9.3889059"><ele>261.25</ele><time>2026-04-04T10:23:14.03Z</time></trkpt><trkpt lat="44.7674057" lon="9.3889437"><ele>260.5</ele><time>2026-04-04T10:23:15.039Z</time></trkpt><trkpt lat="44.7672629" lon="9.3889927"><ele>259.75</ele><time>2026-04-04T10:23:16.045Z</time></trkpt><trkpt lat="44.7671232" lon="9.3890377"><ele>259.0</ele><time>2026-04-04T10:23:17.041Z</time></trkpt><trkpt lat="44.7669796" lon="9.3890882"><ele>259.0</ele><time>2026-04-04T10:23:18.046Z</time></trkpt><trkpt lat="44.7668382" lon="9.3891521"><ele>259.0</ele><time>2026-04-04T10:23:18.983Z</time></trkpt><trkpt lat="44.7666966" lon="9.3892032"><ele>259.0</ele><time>2026-04-04T10:23:19.982Z</time></trkpt><trkpt lat="44.7665543" lon="9.3892518"><ele>259.0</ele><time>2026-04-04T10:23:21.046Z</time></trkpt><trkpt lat="44.7663988" lon="9.389261"><ele>259.0</ele><time>2026-04-04T10:23:22.057Z</time></trkpt><trkpt lat="44.7662474" lon="9.3892378"><ele>259.0</ele><time>2026-04-04T10:23:23.073Z</time></trkpt><trkpt lat="44.7661014" lon="9.3892011"><ele>259.0</ele><time>2026-04-04T10:23:24.044Z</time></trkpt><trkpt lat="44.7659524" lon="9.3891447"><ele>258.5</ele><time>2026-04-04T10:23:25.044Z</time></trkpt><trkpt lat="44.7658167" lon="9.3890659"><ele>258.0</ele><time>2026-04-04T10:23:26.039Z</time></trkpt><trkpt lat="44.7656892" lon="9.3889737"><ele>257.5</ele><time>2026-04-04T10:23:26.982Z</time></trkpt><trkpt lat="44.7655682" lon="9.3888472"><ele>257.0</ele><time>2026-04-04T10:23:28.058Z</time></trkpt><trkpt lat="44.7654532" lon="9.3887006"><ele>256.6666666666667</ele><time>2026-04-04T10:23:29.04Z</time></trkpt><trkpt lat="44.7653461" lon="9.388539"><ele>256.3333333333333</ele><time>2026-04-04T10:23:30.044Z</time></trkpt><trkpt lat="44.7652454" lon="9.3883548"><ele>256.0</ele><time>2026-04-04T10:23:31.067Z</time></trkpt><trkpt lat="44.7651548" lon="9.3881544"><ele>256.3333333333333</ele><time>2026-04-04T10:23:32.025Z</time></trkpt><trkpt lat="44.7650692" lon="9.3879623"><ele>256.6666666666667</ele><time>2026-04-04T10:23:33.041Z</time></trkpt><trkpt lat="44.7649777" lon="9.387774"><ele>257.0</ele><time>2026-04-04T10:23:34.009Z</time></trkpt><trkpt lat="44.7648844" lon="9.3875958"><ele>257.0</ele><time>2026-04-04T10:23:35.039Z</time></trkpt><trkpt lat="44.764798" lon="9.387425"><ele>257.0</ele><time>2026-04-04T10:23:36.058Z</time></trkpt><trkpt lat="44.7647207" lon="9.3872674"><ele>257.0</ele><time>2026-04-04T10:23:37.031Z</time></trkpt><trkpt lat="44.7646462" lon="9.3871215"><ele>257.0</ele><time>2026-04-04T10:23:38.023Z</time></trkpt><trkpt lat="44.7645762" lon="9.3869805"><ele>257.0</ele><time>2026-04-04T10:23:39.07Z</time></trkpt><trkpt lat="44.7645114" lon="9.3868417"><ele>257.0</ele><time>2026-04-04T10:23:40.038Z</time></trkpt><trkpt lat="44.7644502" lon="9.3867111"><ele>257.0</ele><time>2026-04-04T10:23:41.042Z</time></trkpt><trkpt lat="44.7643987" lon="9.3865794"><ele>257.0</ele><time>2026-04-04T10:23:42.06Z</time></trkpt><trkpt lat="44.7643491" lon="9.3864464"><ele>257.0</ele><time>2026-04-04T10:23:43.014Z</time></trkpt><trkpt lat="44.7642971" lon="9.3863086"><ele>259.25</ele><time>2026-04-04T10:23:44.052Z</time></trkpt><trkpt lat="44.7642303" lon="9.3861672"><ele>261.5</ele><time>2026-04-04T10:23:45.02Z</time></trkpt><trkpt lat="44.7641627" lon="9.3860288"><ele>263.75</ele><time>2026-04-04T10:23:46.038Z</time></trkpt><trkpt lat="44.7640957" lon="9.3858978"><ele>266.0</ele><time>2026-04-04T10:23:47.038Z</time></trkpt><trkpt lat="44.7640298" lon="9.3857683"><ele>266.0</ele><time>2026-04-04T10:23:48.056Z</time></trkpt><trkpt lat="44.7639605" lon="9.3856216"><ele>266.0</ele><time>2026-04-04T10:23:49.028Z</time></trkpt><trkpt lat="44.7638891" lon="9.3854711"><ele>266.0</ele><time>2026-04-04T10:23:50.051Z</time></trkpt><trkpt lat="44.7638085" lon="9.3852966"><ele>266.0</ele><time>2026-04-04T10:23:51.017Z</time></trkpt><trkpt lat="44.7637216" lon="9.3851151"><ele>266.6666666666667</ele><time>2026-04-04T10:23:52.041Z</time></trkpt><trkpt lat="44.7636326" lon="9.3849293"><ele>267.3333333333333</ele><time>2026-04-04T10:23:53.056Z</time></trkpt><trkpt lat="44.7635403" lon="9.3847415"><ele>268.0</ele><time>2026-04-04T10:23:54.033Z</time></trkpt><trkpt lat="44.7634459" lon="9.3845396"><ele>268.0</ele><time>2026-04-04T10:23:55.044Z</time></trkpt><trkpt lat="44.7633488" lon="9.3843489"><ele>268.0</ele><time>2026-04-04T10:23:56.036Z</time></trkpt><trkpt lat="44.7632561" lon="9.3841754"><ele>268.0</ele><time>2026-04-04T10:23:57.02Z</time></trkpt><trkpt lat="44.7631627" lon="9.3840029"><ele>270.66666666666663</ele><time>2026-04-04T10:23:58.026Z</time></trkpt><trkpt lat="44.7630493" lon="9.3838264"><ele>273.3333333333333</ele><time>2026-04-04T10:23:59.022Z</time></trkpt><trkpt lat="44.7629309" lon="9.3836552"><ele>276.0</ele><time>2026-04-04T10:24:00.024Z</time></trkpt><trkpt lat="44.7627984" lon="9.383493"><ele>272.75</ele><time>2026-04-04T10:24:01.033Z</time></trkpt><trkpt lat="44.7626829" lon="9.3833517"><ele>269.5</ele><time>2026-04-04T10:24:02.027Z</time></trkpt><trkpt lat="44.7625598" lon="9.383246"><ele>266.25</ele><time>2026-04-04T10:24:03.065Z</time></trkpt><trkpt lat="44.7624322" lon="9.3831612"><ele>263.0</ele><time>2026-04-04T10:24:04.05Z</time></trkpt><trkpt lat="44.7623061" lon="9.3830796"><ele>263.0</ele><time>2026-04-04T10:24:05.04Z</time></trkpt><trkpt lat="44.7621881" lon="9.3829996"><ele>263.0</ele><time>2026-04-04T10:24:06.062Z</time></trkpt><trkpt lat="44.7620734" lon="9.3829226"><ele>263.0</ele><time>2026-04-04T10:24:07.031Z</time></trkpt><trkpt lat="44.761959" lon="9.3828468"><ele>263.0</ele><time>2026-04-04T10:24:08.032Z</time></trkpt><trkpt lat="44.7618355" lon="9.3827739"><ele>263.0</ele><time>2026-04-04T10:24:09.039Z</time></trkpt><trkpt lat="44.7616951" lon="9.3826788"><ele>263.0</ele><time>2026-04-04T10:24:10.048Z</time></trkpt><trkpt lat="44.7615379" lon="9.3825617"><ele>263.0</ele><time>2026-04-04T10:24:11.061Z</time></trkpt><trkpt lat="44.7613679" lon="9.3824357"><ele>263.0</ele><time>2026-04-04T10:24:12.05Z</time></trkpt><trkpt lat="44.7611884" lon="9.3823132"><ele>263.0</ele><time>2026-04-04T10:24:13.039Z</time></trkpt><trkpt lat="44.7610033" lon="9.382191"><ele>263.0</ele><time>2026-04-04T10:24:14Z</time></trkpt><trkpt lat="44.7608237" lon="9.3820695"><ele>264.6666666666667</ele><time>2026-04-04T10:24:15.042Z</time></trkpt><trkpt lat="44.76064" lon="9.3819474"><ele>266.3333333333333</ele><time>2026-04-04T10:24:16.017Z</time></trkpt><trkpt lat="44.7604548" lon="9.3818336"><ele>268.0</ele><time>2026-04-04T10:24:17.04Z</time></trkpt><trkpt lat="44.7602795" lon="9.3817237"><ele>267.3333333333333</ele><time>2026-04-04T10:24:18.035Z</time></trkpt><trkpt lat="44.7601091" lon="9.3816512"><ele>266.6666666666667</ele><time>2026-04-04T10:24:19.043Z</time></trkpt><trkpt lat="44.7599447" lon="9.3816274"><ele>266.0</ele><time>2026-04-04T10:24:20.019Z</time></trkpt><trkpt lat="44.7597846" lon="9.3816227"><ele>266.0</ele><time>2026-04-04T10:24:20.989Z</time></trkpt><trkpt lat="44.759633" lon="9.381632"><ele>266.0</ele><time>2026-04-04T10:24:22.05Z</time></trkpt><trkpt lat="44.7594931" lon="9.381666"><ele>266.0</ele><time>2026-04-04T10:24:23.04Z</time></trkpt><trkpt lat="44.7593575" lon="9.3816946"><ele>266.0</ele><time>2026-04-04T10:24:24.034Z</time></trkpt><trkpt lat="44.7592355" lon="9.3817041"><ele>266.0</ele><time>2026-04-04T10:24:24.998Z</time></trkpt><trkpt lat="44.7591265" lon="9.3817274"><ele>266.0</ele><time>2026-04-04T10:24:26.04Z</time></trkpt><trkpt lat="44.7590132" lon="9.3817499"><ele>266.0</ele><time>2026-04-04T10:24:27.04Z</time></trkpt><trkpt lat="44.7588985" lon="9.3817663"><ele>266.0</ele><time>2026-04-04T10:24:28.004Z</time></trkpt><trkpt lat="44.7587708" lon="9.3817988"><ele>266.0</ele><time>2026-04-04T10:24:29.024Z</time></trkpt><trkpt lat="44.7586374" lon="9.3818223"><ele>266.0</ele><time>2026-04-04T10:24:30.018Z</time></trkpt><trkpt lat="44.758498" lon="9.3818424"><ele>266.0</ele><time>2026-04-04T10:24:31.071Z</time></trkpt><trkpt lat="44.7583539" lon="9.3818702"><ele>266.0</ele><time>2026-04-04T10:24:32.047Z</time></trkpt><trkpt lat="44.758203" lon="9.3819032"><ele>266.33333333333337</ele><time>2026-04-04T10:24:33.034Z</time></trkpt><trkpt lat="44.7580444" lon="9.3819364"><ele>266.6666666666667</ele><time>2026-04-04T10:24:34.047Z</time></trkpt><trkpt lat="44.7578813" lon="9.3819691"><ele>267.0</ele><time>2026-04-04T10:24:35.042Z</time></trkpt><trkpt lat="44.757725" lon="9.3819945"><ele>267.5</ele><time>2026-04-04T10:24:36.055Z</time></trkpt><trkpt lat="44.7575689" lon="9.3820168"><ele>268.0</ele><time>2026-04-04T10:24:37.023Z</time></trkpt><trkpt lat="44.7574204" lon="9.3820411"><ele>268.5</ele><time>2026-04-04T10:24:38.018Z</time></trkpt><trkpt lat="44.7572797" lon="9.3820653"><ele>269.0</ele><time>2026-04-04T10:24:39.013Z</time></trkpt><trkpt lat="44.7571534" lon="9.38209"><ele>269.0</ele><time>2026-04-04T10:24:40.049Z</time></trkpt><trkpt lat="44.757037" lon="9.3821062"><ele>269.0</ele><time>2026-04-04T10:24:41.059Z</time></trkpt><trkpt lat="44.756927" lon="9.3821179"><ele>269.0</ele><time>2026-04-04T10:24:42.036Z</time></trkpt><trkpt lat="44.7568211" lon="9.38212"><ele>269.0</ele><time>2026-04-04T10:24:43.047Z</time></trkpt><trkpt lat="44.7567091" lon="9.3821173"><ele>269.0</ele><time>2026-04-04T10:24:44.046Z</time></trkpt><trkpt lat="44.7565973" lon="9.3821136"><ele>269.5</ele><time>2026-04-04T10:24:45.035Z</time></trkpt><trkpt lat="44.7564865" lon="9.3820818"><ele>270.0</ele><time>2026-04-04T10:24:46.048Z</time></trkpt><trkpt lat="44.7563804" lon="9.382034"><ele>270.5</ele><time>2026-04-04T10:24:47.055Z</time></trkpt><trkpt lat="44.7562594" lon="9.3819748"><ele>271.0</ele><time>2026-04-04T10:24:48.033Z</time></trkpt><trkpt lat="44.7561212" lon="9.3818977"><ele>270.66666666666663</ele><time>2026-04-04T10:24:49.047Z</time></trkpt><trkpt lat="44.7559713" lon="9.3818075"><ele>270.3333333333333</ele><time>2026-04-04T10:24:50.042Z</time></trkpt><trkpt lat="44.7558224" lon="9.3816778"><ele>270.0</ele><time>2026-04-04T10:24:51.025Z</time></trkpt><trkpt lat="44.7556525" lon="9.3815162"><ele>270.3333333333333</ele><time>2026-04-04T10:24:52.043Z</time></trkpt><trkpt lat="44.7554696" lon="9.381344"><ele>270.66666666666663</ele><time>2026-04-04T10:24:53.041Z</time></trkpt><trkpt lat="44.7552853" lon="9.3811704"><ele>271.0</ele><time>2026-04-04T10:24:54.051Z</time></trkpt><trkpt lat="44.7550886" lon="9.3809887"><ele>271.0</ele><time>2026-04-04T10:24:55.038Z</time></trkpt><trkpt lat="44.7548804" lon="9.3807989"><ele>271.0</ele><time>2026-04-04T10:24:56.035Z</time></trkpt><trkpt lat="44.7546719" lon="9.3805996"><ele>271.0</ele><time>2026-04-04T10:24:57.036Z</time></trkpt><trkpt lat="44.7544603" lon="9.3804015"><ele>271.0</ele><time>2026-04-04T10:24:58.059Z</time></trkpt><trkpt lat="44.7542594" lon="9.3802077"><ele>271.0</ele><time>2026-04-04T10:24:59.04Z</time></trkpt><trkpt lat="44.7540521" lon="9.3800568"><ele>271.0</ele><time>2026-04-04T10:25:00.041Z</time></trkpt><trkpt lat="44.7538306" lon="9.3799555"><ele>271.0</ele><time>2026-04-04T10:25:01.024Z</time></trkpt><trkpt lat="44.7536001" lon="9.3798961"><ele>271.0</ele><time>2026-04-04T10:25:02.043Z</time></trkpt><trkpt lat="44.7533522" lon="9.3798642"><ele>267.5</ele><time>2026-04-04T10:25:03.038Z</time></trkpt><trkpt lat="44.753096" lon="9.3798401"><ele>264.0</ele><time>2026-04-04T10:25:04.043Z</time></trkpt><trkpt lat="44.7528343" lon="9.3798262"><ele>263.0</ele><time>2026-04-04T10:25:05.054Z</time></trkpt><trkpt lat="44.7525653" lon="9.3798056"><ele>262.0</ele><time>2026-04-04T10:25:06.045Z</time></trkpt><trkpt lat="44.7522894" lon="9.379782"><ele>262.0</ele><time>2026-04-04T10:25:07.059Z</time></trkpt><trkpt lat="44.7520045" lon="9.3797589"><ele>262.0</ele><time>2026-04-04T10:25:08.056Z</time></trkpt><trkpt lat="44.751716" lon="9.3797344"><ele>263.5</ele><time>2026-04-04T10:25:09.049Z</time></trkpt><trkpt lat="44.7514259" lon="9.3797141"><ele>265.0</ele><time>2026-04-04T10:25:10.011Z</time></trkpt><trkpt lat="44.7511425" lon="9.379691"><ele>266.0</ele><time>2026-04-04T10:25:11.036Z</time></trkpt><trkpt lat="44.7508675" lon="9.3796674"><ele>267.0</ele><time>2026-04-04T10:25:12.044Z</time></trkpt><trkpt lat="44.7506054" lon="9.3796576"><ele>267.0</ele><time>2026-04-04T10:25:13.032Z</time></trkpt><trkpt lat="44.7503666" lon="9.3796587"><ele>267.0</ele><time>2026-04-04T10:25:14.039Z</time></trkpt><trkpt lat="44.7501345" lon="9.3796966"><ele>268.5</ele><time>2026-04-04T10:25:15.033Z</time></trkpt><trkpt lat="44.7498995" lon="9.3797796"><ele>270.0</ele><time>2026-04-04T10:25:16.019Z</time></trkpt><trkpt lat="44.7496772" lon="9.3799197"><ele>270.0</ele><time>2026-04-04T10:25:17.037Z</time></trkpt><trkpt lat="44.7494768" lon="9.380086"><ele>270.0</ele><time>2026-04-04T10:25:18.055Z</time></trkpt><trkpt lat="44.7492878" lon="9.3802923"><ele>277.5</ele><time>2026-04-04T10:25:19.036Z</time></trkpt><trkpt lat="44.749112" lon="9.3805384"><ele>285.0</ele><time>2026-04-04T10:25:20.022Z</time></trkpt><trkpt lat="44.748963" lon="9.3808208"><ele>285.0</ele><time>2026-04-04T10:25:21.044Z</time></trkpt><trkpt lat="44.748833" lon="9.3811191"><ele>285.0</ele><time>2026-04-04T10:25:22.034Z</time></trkpt><trkpt lat="44.7487323" lon="9.3814247"><ele>292.0</ele><time>2026-04-04T10:25:23.044Z</time></trkpt><trkpt lat="44.7486855" lon="9.3817522"><ele>299.0</ele><time>2026-04-04T10:25:24.061Z</time></trkpt><trkpt lat="44.7486914" lon="9.3821052"><ele>302.5</ele><time>2026-04-04T10:25:25.025Z</time></trkpt><trkpt lat="44.7487083" lon="9.3824567"><ele>306.0</ele><time>2026-04-04T10:25:26.046Z</time></trkpt><trkpt lat="44.7487643" lon="9.3827822"><ele>306.5</ele><time>2026-04-04T10:25:27.026Z</time></trkpt><trkpt lat="44.74884" lon="9.3830974"><ele>307.0</ele><time>2026-04-04T10:25:28.028Z</time></trkpt><trkpt lat="44.7488894" lon="9.383412"><ele>307.0</ele><time>2026-04-04T10:25:29.041Z</time></trkpt><trkpt lat="44.7489297" lon="9.3837288"><ele>307.0</ele><time>2026-04-04T10:25:30.04Z</time></trkpt><trkpt lat="44.7489441" lon="9.3840518"><ele>308.0</ele><time>2026-04-04T10:25:31.037Z</time></trkpt><trkpt lat="44.7489446" lon="9.3843856"><ele>309.0</ele><time>2026-04-04T10:25:32.041Z</time></trkpt><trkpt lat="44.7489497" lon="9.3847179"><ele>309.0</ele><time>2026-04-04T10:25:33.015Z</time></trkpt><trkpt lat="44.7489586" lon="9.38504"><ele>309.0</ele><time>2026-04-04T10:25:34.019Z</time></trkpt><trkpt lat="44.7489657" lon="9.3853513"><ele>313.0</ele><time>2026-04-04T10:25:35.022Z</time></trkpt><trkpt lat="44.7489718" lon="9.3856643"><ele>317.0</ele><time>2026-04-04T10:25:36.025Z</time></trkpt><trkpt lat="44.7489743" lon="9.3859877"><ele>317.0</ele><time>2026-04-04T10:25:37.038Z</time></trkpt><trkpt lat="44.7489589" lon="9.3863184"><ele>317.0</ele><time>2026-04-04T10:25:38.036Z</time></trkpt><trkpt lat="44.7489294" lon="9.3866531"><ele>324.0</ele><time>2026-04-04T10:25:39.044Z</time></trkpt><trkpt lat="44.7488767" lon="9.3869853"><ele>331.0</ele><time>2026-04-04T10:25:40.03Z</time></trkpt><trkpt lat="44.7488082" lon="9.3873088"><ele>339.0</ele><time>2026-04-04T10:25:41.019Z</time></trkpt><trkpt lat="44.7487243" lon="9.3876267"><ele>347.0</ele><time>2026-04-04T10:25:42.029Z</time></trkpt><trkpt lat="44.7486101" lon="9.3879361"><ele>327.0</ele><time>2026-04-04T10:25:42.987Z</time></trkpt><trkpt lat="44.7484859" lon="9.3882394"><ele>307.0</ele><time>2026-04-04T10:25:43.998Z</time></trkpt><trkpt lat="44.7483621" lon="9.3885266"><ele>307.0</ele><time>2026-04-04T10:25:45.01Z</time></trkpt><trkpt lat="44.7482446" lon="9.3887958"><ele>307.0</ele><time>2026-04-04T10:25:46.024Z</time></trkpt><trkpt lat="44.7481334" lon="9.3890297"><ele>307.0</ele><time>2026-04-04T10:25:47.029Z</time></trkpt><trkpt lat="44.7480228" lon="9.3892679"><ele>312.66666666666663</ele><time>2026-04-04T10:25:48.028Z</time></trkpt><trkpt lat="44.7479026" lon="9.3894849"><ele>318.3333333333333</ele><time>2026-04-04T10:25:49.022Z</time></trkpt><trkpt lat="44.74776" lon="9.3896519"><ele>324.0</ele><time>2026-04-04T10:25:50.029Z</time></trkpt><trkpt lat="44.7476068" lon="9.3897962"><ele>324.0</ele><time>2026-04-04T10:25:51.041Z</time></trkpt><trkpt lat="44.747455" lon="9.3899155"><ele>324.0</ele><time>2026-04-04T10:25:52.023Z</time></trkpt><trkpt lat="44.7473091" lon="9.3900222"><ele>324.0</ele><time>2026-04-04T10:25:53.001Z</time></trkpt><trkpt lat="44.7471482" lon="9.390087"><ele>324.0</ele><time>2026-04-04T10:25:54.019Z</time></trkpt><trkpt lat="44.7469947" lon="9.3901385"><ele>324.0</ele><time>2026-04-04T10:25:55.034Z</time></trkpt><trkpt lat="44.746849" lon="9.3901748"><ele>324.0</ele><time>2026-04-04T10:25:56.037Z</time></trkpt><trkpt lat="44.7466979" lon="9.3901999"><ele>319.5</ele><time>2026-04-04T10:25:57.013Z</time></trkpt><trkpt lat="44.746558" lon="9.3901986"><ele>315.0</ele><time>2026-04-04T10:25:58.034Z</time></trkpt><trkpt lat="44.7464188" lon="9.3901761"><ele>310.5</ele><time>2026-04-04T10:25:59.037Z</time></trkpt><trkpt lat="44.7462893" lon="9.3901415"><ele>306.0</ele><time>2026-04-04T10:26:00.03Z</time></trkpt><trkpt lat="44.7461572" lon="9.3901057"><ele>310.0</ele><time>2026-04-04T10:26:01.029Z</time></trkpt><trkpt lat="44.7460277" lon="9.3900617"><ele>314.0</ele><time>2026-04-04T10:26:02.031Z</time></trkpt><trkpt lat="44.7459026" lon="9.3900085"><ele>318.0</ele><time>2026-04-04T10:26:03.035Z</time></trkpt><trkpt lat="44.7457649" lon="9.3899469"><ele>322.0</ele><time>2026-04-04T10:26:03.988Z</time></trkpt><trkpt lat="44.7456248" lon="9.3898707"><ele>322.0</ele><time>2026-04-04T10:26:05.02Z</time></trkpt><trkpt lat="44.7454908" lon="9.389777"><ele>322.0</ele><time>2026-04-04T10:26:06.035Z</time></trkpt><trkpt lat="44.7453571" lon="9.3896645"><ele>322.0</ele><time>2026-04-04T10:26:07.031Z</time></trkpt><trkpt lat="44.7452253" lon="9.3895522"><ele>319.3333333333333</ele><time>2026-04-04T10:26:08.025Z</time></trkpt><trkpt lat="44.7450909" lon="9.389443"><ele>316.6666666666667</ele><time>2026-04-04T10:26:09.037Z</time></trkpt><trkpt lat="44.7449538" lon="9.3893297"><ele>314.0</ele><time>2026-04-04T10:26:10.019Z</time></trkpt><trkpt lat="44.744816" lon="9.3892369"><ele>314.0</ele><time>2026-04-04T10:26:11.04Z</time></trkpt><trkpt lat="44.74467" lon="9.3891509"><ele>314.0</ele><time>2026-04-04T10:26:12.033Z</time></trkpt><trkpt lat="44.7445209" lon="9.3890797"><ele>314.0</ele><time>2026-04-04T10:26:13.022Z</time></trkpt><trkpt lat="44.7443865" lon="9.3890421"><ele>318.0</ele><time>2026-04-04T10:26:14.031Z</time></trkpt><trkpt lat="44.7442543" lon="9.3890266"><ele>322.0</ele><time>2026-04-04T10:26:14.993Z</time></trkpt><trkpt lat="44.7441344" lon="9.3890161"><ele>326.0</ele><time>2026-04-04T10:26:16.004Z</time></trkpt><trkpt lat="44.7440224" lon="9.389016"><ele>330.0</ele><time>2026-04-04T10:26:16.995Z</time></trkpt><trkpt lat="44.7439258" lon="9.3890199"><ele>330.0</ele><time>2026-04-04T10:26:18.027Z</time></trkpt><trkpt lat="44.7438316" lon="9.3890287"><ele>330.0</ele><time>2026-04-04T10:26:19.026Z</time></trkpt><trkpt lat="44.7437364" lon="9.3890359"><ele>330.0</ele><time>2026-04-04T10:26:20.012Z</time></trkpt><trkpt lat="44.7436504" lon="9.389044"><ele>330.0</ele><time>2026-04-04T10:26:21.029Z</time></trkpt><trkpt lat="44.7435726" lon="9.3890546"><ele>330.0</ele><time>2026-04-04T10:26:22.034Z</time></trkpt><trkpt lat="44.7435062" lon="9.3890528"><ele>330.0</ele><time>2026-04-04T10:26:23.036Z</time></trkpt><trkpt lat="44.7434175" lon="9.3890383"><ele>332.8333333333333</ele><time>2026-04-04T10:26:24.965Z</time></trkpt><trkpt lat="44.7433326" lon="9.38902"><ele>335.6666666666667</ele><time>2026-04-04T10:26:28.009Z</time></trkpt><trkpt lat="44.7432679" lon="9.3889777"><ele>338.5</ele><time>2026-04-04T10:28:17.007Z</time></trkpt><trkpt lat="44.7431779" lon="9.3889453"><ele>341.33333333333337</ele><time>2026-04-04T10:28:19.033Z</time></trkpt><trkpt lat="44.7430645" lon="9.3889226"><ele>344.1666666666667</ele><time>2026-04-04T10:28:21.022Z</time></trkpt><trkpt lat="44.7429899" lon="9.3888888"><ele>347.0</ele><time>2026-04-04T10:28:22.035Z</time></trkpt><trkpt lat="44.7428883" lon="9.3888307"><ele>344.20000000000005</ele><time>2026-04-04T10:28:23.03Z</time></trkpt><trkpt lat="44.7427714" lon="9.388771"><ele>341.4</ele><time>2026-04-04T10:28:24.035Z</time></trkpt><trkpt lat="44.7426656" lon="9.3886979"><ele>338.6</ele><time>2026-04-04T10:28:25.022Z</time></trkpt><trkpt lat="44.7425661" lon="9.3886314"><ele>335.79999999999995</ele><time>2026-04-04T10:28:26.029Z</time></trkpt><trkpt lat="44.742481" lon="9.3885736"><ele>333.0</ele><time>2026-04-04T10:28:27.02Z</time></trkpt><trkpt lat="44.7424076" lon="9.388515"><ele>333.0</ele><time>2026-04-04T10:28:27.993Z</time></trkpt><trkpt lat="44.7423136" lon="9.388467"><ele>333.0</ele><time>2026-04-04T10:28:29.018Z</time></trkpt><trkpt lat="44.7422216" lon="9.3884114"><ele>333.0</ele><time>2026-04-04T10:28:30.008Z</time></trkpt><trkpt lat="44.7421205" lon="9.3883464"><ele>333.0</ele><time>2026-04-04T10:28:31.011Z</time></trkpt><trkpt lat="44.7420137" lon="9.3882832"><ele>333.0</ele><time>2026-04-04T10:28:32.012Z</time></trkpt><trkpt lat="44.7419085" lon="9.3882145"><ele>356.0</ele><time>2026-04-04T10:28:33.004Z</time></trkpt><trkpt lat="44.7402595" lon="9.3872251"><ele>346.0</ele><time>2026-04-04T10:28:45.998Z</time></trkpt><trkpt lat="44.7401404" lon="9.387187"><ele>336.0</ele><time>2026-04-04T10:28:47.02Z</time></trkpt><trkpt lat="44.7400051" lon="9.3871866"><ele>326.0</ele><time>2026-04-04T10:28:48.029Z</time></trkpt><trkpt lat="44.739873" lon="9.3871781"><ele>316.0</ele><time>2026-04-04T10:28:49.05Z</time></trkpt><trkpt lat="44.7397374" lon="9.3871865"><ele>316.0</ele><time>2026-04-04T10:28:50.091Z</time></trkpt><trkpt lat="44.7396084" lon="9.3872161"><ele>316.0</ele><time>2026-04-04T10:28:51.036Z</time></trkpt><trkpt lat="44.7394665" lon="9.3872506"><ele>316.0</ele><time>2026-04-04T10:28:52.035Z</time></trkpt><trkpt lat="44.7393385" lon="9.387297"><ele>316.0</ele><time>2026-04-04T10:28:53.031Z</time></trkpt><trkpt lat="44.7392106" lon="9.3873628"><ele>319.0</ele><time>2026-04-04T10:28:54.046Z</time></trkpt><trkpt lat="44.7390856" lon="9.3874425"><ele>322.0</ele><time>2026-04-04T10:28:55.044Z</time></trkpt><trkpt lat="44.7389642" lon="9.3875497"><ele>325.0</ele><time>2026-04-04T10:28:56.025Z</time></trkpt><trkpt lat="44.738842" lon="9.3876804"><ele>328.0</ele><time>2026-04-04T10:28:57.027Z</time></trkpt><trkpt lat="44.7387185" lon="9.3878181"><ele>328.0</ele><time>2026-04-04T10:28:58.047Z</time></trkpt><trkpt lat="44.7385935" lon="9.387967"><ele>328.0</ele><time>2026-04-04T10:28:59.051Z</time></trkpt><trkpt lat="44.7384699" lon="9.3881181"><ele>328.0</ele><time>2026-04-04T10:29:00.036Z</time></trkpt><trkpt lat="44.7383457" lon="9.3882744"><ele>327.3333333333333</ele><time>2026-04-04T10:29:01.024Z</time></trkpt><trkpt lat="44.7382174" lon="9.3884337"><ele>326.6666666666667</ele><time>2026-04-04T10:29:02.025Z</time></trkpt><trkpt lat="44.7380907" lon="9.3885869"><ele>326.0</ele><time>2026-04-04T10:29:03.043Z</time></trkpt><trkpt lat="44.7379632" lon="9.3887481"><ele>328.33333333333337</ele><time>2026-04-04T10:29:04.049Z</time></trkpt><trkpt lat="44.737836" lon="9.3889065"><ele>330.6666666666667</ele><time>2026-04-04T10:29:05.021Z</time></trkpt><trkpt lat="44.7377021" lon="9.3890418"><ele>333.0</ele><time>2026-04-04T10:29:06.056Z</time></trkpt><trkpt lat="44.737559" lon="9.3891643"><ele>333.0</ele><time>2026-04-04T10:29:07.022Z</time></trkpt><trkpt lat="44.7374143" lon="9.3892896"><ele>333.0</ele><time>2026-04-04T10:29:08.022Z</time></trkpt><trkpt lat="44.7372703" lon="9.3894027"><ele>333.0</ele><time>2026-04-04T10:29:09.039Z</time></trkpt><trkpt lat="44.7371181" lon="9.3895071"><ele>333.0</ele><time>2026-04-04T10:29:09.997Z</time></trkpt><trkpt lat="44.7369553" lon="9.3895872"><ele>333.0</ele><time>2026-04-04T10:29:11.016Z</time></trkpt><trkpt lat="44.7367908" lon="9.3896387"><ele>333.0</ele><time>2026-04-04T10:29:12.01Z</time></trkpt><trkpt lat="44.7366278" lon="9.3896784"><ele>340.75</ele><time>2026-04-04T10:29:13.05Z</time></trkpt><trkpt lat="44.7364818" lon="9.3896989"><ele>348.5</ele><time>2026-04-04T10:29:14.03Z</time></trkpt><trkpt lat="44.7363394" lon="9.3897065"><ele>356.25</ele><time>2026-04-04T10:29:15.008Z</time></trkpt><trkpt lat="44.7362066" lon="9.3897107"><ele>364.0</ele><time>2026-04-04T10:29:16.02Z</time></trkpt><trkpt lat="44.7360625" lon="9.3897156"><ele>363.0</ele><time>2026-04-04T10:29:17.023Z</time></trkpt><trkpt lat="44.7359211" lon="9.3897193"><ele>362.0</ele><time>2026-04-04T10:29:18.046Z</time></trkpt><trkpt lat="44.735796" lon="9.3897242"><ele>361.0</ele><time>2026-04-04T10:29:19.033Z</time></trkpt><trkpt lat="44.7356732" lon="9.3897275"><ele>360.0</ele><time>2026-04-04T10:29:20.029Z</time></trkpt><trkpt lat="44.7355547" lon="9.3897272"><ele>360.0</ele><time>2026-04-04T10:29:21.034Z</time></trkpt><trkpt lat="44.7354358" lon="9.3897122"><ele>360.0</ele><time>2026-04-04T10:29:22.022Z</time></trkpt><trkpt lat="44.7353129" lon="9.3896836"><ele>360.0</ele><time>2026-04-04T10:29:23.024Z</time></trkpt><trkpt lat="44.7351879" lon="9.389641"><ele>360.0</ele><time>2026-04-04T10:29:24.002Z</time></trkpt><trkpt lat="44.7350685" lon="9.3895907"><ele>352.5</ele><time>2026-04-04T10:29:25.031Z</time></trkpt><trkpt lat="44.7349575" lon="9.3895367"><ele>345.0</ele><time>2026-04-04T10:29:26.032Z</time></trkpt><trkpt lat="44.7348457" lon="9.3894831"><ele>337.5</ele><time>2026-04-04T10:29:27.018Z</time></trkpt><trkpt lat="44.7347254" lon="9.38941"><ele>330.0</ele><time>2026-04-04T10:29:28.041Z</time></trkpt><trkpt lat="44.7346066" lon="9.389312"><ele>330.0</ele><time>2026-04-04T10:29:29.032Z</time></trkpt><trkpt lat="44.7344875" lon="9.389211"><ele>330.0</ele><time>2026-04-04T10:29:30.025Z</time></trkpt><trkpt lat="44.7343626" lon="9.3891414"><ele>330.0</ele><time>2026-04-04T10:29:31.032Z</time></trkpt><trkpt lat="44.7342299" lon="9.3891033"><ele>330.0</ele><time>2026-04-04T10:29:32.001Z</time></trkpt><trkpt lat="44.7340983" lon="9.3890888"><ele>333.75</ele><time>2026-04-04T10:29:32.973Z</time></trkpt><trkpt lat="44.733966" lon="9.389085"><ele>337.5</ele><time>2026-04-04T10:29:34.03Z</time></trkpt><trkpt lat="44.7338288" lon="9.3890794"><ele>341.25</ele><time>2026-04-04T10:29:35.027Z</time></trkpt><trkpt lat="44.7336903" lon="9.3891059"><ele>345.0</ele><time>2026-04-04T10:29:36.02Z</time></trkpt><trkpt lat="44.7335421" lon="9.3891422"><ele>345.75</ele><time>2026-04-04T10:29:37.034Z</time></trkpt><trkpt lat="44.7333932" lon="9.3891388"><ele>346.5</ele><time>2026-04-04T10:29:38.021Z</time></trkpt><trkpt lat="44.7332414" lon="9.3890945"><ele>347.25</ele><time>2026-04-04T10:29:39.04Z</time></trkpt><trkpt lat="44.7331012" lon="9.3890551"><ele>348.0</ele><time>2026-04-04T10:29:40.024Z</time></trkpt><trkpt lat="44.7329532" lon="9.3890172"><ele>348.0</ele><time>2026-04-04T10:29:41.015Z</time></trkpt><trkpt lat="44.7328092" lon="9.3890012"><ele>348.0</ele><time>2026-04-04T10:29:42.018Z</time></trkpt><trkpt lat="44.7326752" lon="9.3889927"><ele>348.0</ele><time>2026-04-04T10:29:42.994Z</time></trkpt><trkpt lat="44.7325505" lon="9.3889855"><ele>348.0</ele><time>2026-04-04T10:29:44.019Z</time></trkpt><trkpt lat="44.7324333" lon="9.3889488"><ele>353.25</ele><time>2026-04-04T10:29:45.014Z</time></trkpt><trkpt lat="44.7323402" lon="9.3888671"><ele>358.5</ele><time>2026-04-04T10:29:46.049Z</time></trkpt><trkpt lat="44.7322611" lon="9.3887419"><ele>363.75</ele><time>2026-04-04T10:29:47.039Z</time></trkpt><trkpt lat="44.7321642" lon="9.3886316"><ele>369.0</ele><time>2026-04-04T10:29:48.016Z</time></trkpt><trkpt lat="44.7320338" lon="9.3885521"><ele>362.0</ele><time>2026-04-04T10:29:49.024Z</time></trkpt><trkpt lat="44.7318906" lon="9.3884821"><ele>355.0</ele><time>2026-04-04T10:29:50.027Z</time></trkpt><trkpt lat="44.7317664" lon="9.3884267"><ele>348.0</ele><time>2026-04-04T10:29:51.025Z</time></trkpt><trkpt lat="44.731643" lon="9.3884026"><ele>341.0</ele><time>2026-04-04T10:29:52.027Z</time></trkpt><trkpt lat="44.7315154" lon="9.3884248"><ele>341.0</ele><time>2026-04-04T10:29:53.03Z</time></trkpt><trkpt lat="44.7313887" lon="9.3884861"><ele>341.0</ele><time>2026-04-04T10:29:54.018Z</time></trkpt><trkpt lat="44.7312707" lon="9.3885023"><ele>341.0</ele><time>2026-04-04T10:29:55.027Z</time></trkpt><trkpt lat="44.7311688" lon="9.3885058"><ele>341.0</ele><time>2026-04-04T10:29:56.034Z</time></trkpt><trkpt lat="44.7310757" lon="9.3884668"><ele>344.8</ele><time>2026-04-04T10:29:57.015Z</time></trkpt><trkpt lat="44.7309948" lon="9.3884021"><ele>348.6</ele><time>2026-04-04T10:29:58.043Z</time></trkpt><trkpt lat="44.7309412" lon="9.3882812"><ele>352.4</ele><time>2026-04-04T10:29:59.039Z</time></trkpt><trkpt lat="44.73087" lon="9.388189"><ele>356.2</ele><time>2026-04-04T10:30:00.026Z</time></trkpt><trkpt lat="44.7307705" lon="9.388133"><ele>360.0</ele><time>2026-04-04T10:30:01.04Z</time></trkpt><trkpt lat="44.7306559" lon="9.3880799"><ele>360.0</ele><time>2026-04-04T10:30:01.99Z</time></trkpt><trkpt lat="44.7305348" lon="9.3880739"><ele>360.0</ele><time>2026-04-04T10:30:03.026Z</time></trkpt><trkpt lat="44.7304007" lon="9.3880433"><ele>360.0</ele><time>2026-04-04T10:30:04.035Z</time></trkpt><trkpt lat="44.7302793" lon="9.387961"><ele>360.0</ele><time>2026-04-04T10:30:05.021Z</time></trkpt><trkpt lat="44.7301577" lon="9.3878704"><ele>354.0</ele><time>2026-04-04T10:30:06.025Z</time></trkpt><trkpt lat="44.7300358" lon="9.3877931"><ele>348.0</ele><time>2026-04-04T10:30:07.014Z</time></trkpt><trkpt lat="44.7299071" lon="9.3877436"><ele>342.0</ele><time>2026-04-04T10:30:08.029Z</time></trkpt><trkpt lat="44.7297925" lon="9.3876731"><ele>336.0</ele><time>2026-04-04T10:30:09.035Z</time></trkpt><trkpt lat="44.7296958" lon="9.3875492"><ele>336.0</ele><time>2026-04-04T10:30:10.025Z</time></trkpt><trkpt lat="44.729607" lon="9.3874296"><ele>336.0</ele><time>2026-04-04T10:30:11.03Z</time></trkpt><trkpt lat="44.7294926" lon="9.3873674"><ele>336.0</ele><time>2026-04-04T10:30:12.024Z</time></trkpt><trkpt lat="44.7293628" lon="9.3873682"><ele>336.0</ele><time>2026-04-04T10:30:13.014Z</time></trkpt><trkpt lat="44.7292367" lon="9.3873925"><ele>332.8</ele><time>2026-04-04T10:30:14.034Z</time></trkpt><trkpt lat="44.7291162" lon="9.3873913"><ele>329.6</ele><time>2026-04-04T10:30:15.042Z</time></trkpt><trkpt lat="44.7290021" lon="9.3873616"><ele>326.4</ele><time>2026-04-04T10:30:16.036Z</time></trkpt><trkpt lat="44.7289028" lon="9.3872949"><ele>323.2</ele><time>2026-04-04T10:30:17.02Z</time></trkpt><trkpt lat="44.7288291" lon="9.3871972"><ele>320.0</ele><time>2026-04-04T10:30:18.037Z</time></trkpt><trkpt lat="44.7287964" lon="9.3870615"><ele>320.0</ele><time>2026-04-04T10:30:19.017Z</time></trkpt><trkpt lat="44.7287597" lon="9.3869176"><ele>320.0</ele><time>2026-04-04T10:30:20.025Z</time></trkpt><trkpt lat="44.728713" lon="9.3868107"><ele>320.0</ele><time>2026-04-04T10:30:21.018Z</time></trkpt><trkpt lat="44.728645" lon="9.3867378"><ele>320.0</ele><time>2026-04-04T10:30:22.028Z</time></trkpt><trkpt lat="44.7285436" lon="9.3867122"><ele>320.0</ele><time>2026-04-04T10:30:23.029Z</time></trkpt><trkpt lat="44.7284222" lon="9.3867117"><ele>328.0</ele><time>2026-04-04T10:30:24.017Z</time></trkpt><trkpt lat="44.7283082" lon="9.3866744"><ele>336.0</ele><time>2026-04-04T10:30:25.019Z</time></trkpt><trkpt lat="44.7281953" lon="9.3866394"><ele>344.0</ele><time>2026-04-04T10:30:26.041Z</time></trkpt><trkpt lat="44.728087" lon="9.3866148"><ele>352.0</ele><time>2026-04-04T10:30:27.032Z</time></trkpt><trkpt lat="44.7279991" lon="9.3865833"><ele>360.0</ele><time>2026-04-04T10:30:28.04Z</time></trkpt><trkpt lat="44.7279067" lon="9.3865408"><ele>360.0</ele><time>2026-04-04T10:30:29.024Z</time></trkpt><trkpt lat="44.7278143" lon="9.3865024"><ele>360.0</ele><time>2026-04-04T10:30:30.022Z</time></trkpt><trkpt lat="44.7277195" lon="9.3864468"><ele>360.0</ele><time>2026-04-04T10:30:31.015Z</time></trkpt><trkpt lat="44.7276265" lon="9.3863699"><ele>360.0</ele><time>2026-04-04T10:30:32.026Z</time></trkpt><trkpt lat="44.7275317" lon="9.3862849"><ele>360.0</ele><time>2026-04-04T10:30:33.034Z</time></trkpt><trkpt lat="44.7274298" lon="9.3861968"><ele>353.25</ele><time>2026-04-04T10:30:34.023Z</time></trkpt><trkpt lat="44.7273264" lon="9.386105"><ele>346.5</ele><time>2026-04-04T10:30:35.017Z</time></trkpt><trkpt lat="44.7272165" lon="9.3860226"><ele>339.75</ele><time>2026-04-04T10:30:36.023Z</time></trkpt><trkpt lat="44.7270975" lon="9.3859372"><ele>333.0</ele><time>2026-04-04T10:30:37.026Z</time></trkpt><trkpt lat="44.726979" lon="9.3858254"><ele>329.0</ele><time>2026-04-04T10:30:38.023Z</time></trkpt><trkpt lat="44.7268818" lon="9.3856869"><ele>325.0</ele><time>2026-04-04T10:30:39.032Z</time></trkpt><trkpt lat="44.7268005" lon="9.385549"><ele>321.0</ele><time>2026-04-04T10:30:40.047Z</time></trkpt><trkpt lat="44.7266955" lon="9.3854425"><ele>317.0</ele><time>2026-04-04T10:30:41.038Z</time></trkpt><trkpt lat="44.7265728" lon="9.3853823"><ele>317.0</ele><time>2026-04-04T10:30:41.989Z</time></trkpt><trkpt lat="44.726463" lon="9.3853183"><ele>317.0</ele><time>2026-04-04T10:30:43.029Z</time></trkpt><trkpt lat="44.7263796" lon="9.3852559"><ele>317.0</ele><time>2026-04-04T10:30:44.016Z</time></trkpt><trkpt lat="44.7263062" lon="9.3852415"><ele>317.0</ele><time>2026-04-04T10:30:45.026Z</time></trkpt><trkpt lat="44.7262166" lon="9.3853437"><ele>317.0</ele><time>2026-04-04T10:30:47.014Z</time></trkpt><trkpt lat="44.7261993" lon="9.3854329"><ele>327.0</ele><time>2026-04-04T10:30:48.027Z</time></trkpt><trkpt lat="44.7262211" lon="9.3855449"><ele>337.0</ele><time>2026-04-04T10:30:49.034Z</time></trkpt><trkpt lat="44.726264" lon="9.3856897"><ele>347.0</ele><time>2026-04-04T10:30:50.017Z</time></trkpt><trkpt lat="44.7262978" lon="9.3858648"><ele>357.0</ele><time>2026-04-04T10:30:51.024Z</time></trkpt><trkpt lat="44.7263235" lon="9.3860535"><ele>357.0</ele><time>2026-04-04T10:30:52.005Z</time></trkpt><trkpt lat="44.7263541" lon="9.3862308"><ele>357.0</ele><time>2026-04-04T10:30:53.02Z</time></trkpt><trkpt lat="44.726388" lon="9.3863992"><ele>357.0</ele><time>2026-04-04T10:30:54.017Z</time></trkpt><trkpt lat="44.726415" lon="9.3865686"><ele>357.0</ele><time>2026-04-04T10:30:55.029Z</time></trkpt><trkpt lat="44.7264422" lon="9.3867518"><ele>361.75</ele><time>2026-04-04T10:30:56.038Z</time></trkpt><trkpt lat="44.7264371" lon="9.3869469"><ele>366.5</ele><time>2026-04-04T10:30:57.008Z</time></trkpt><trkpt lat="44.726412" lon="9.3871386"><ele>371.25</ele><time>2026-04-04T10:30:58.029Z</time></trkpt><trkpt lat="44.7263657" lon="9.3873368"><ele>376.0</ele><time>2026-04-04T10:30:59.028Z</time></trkpt><trkpt lat="44.7262977" lon="9.3875405"><ele>374.25</ele><time>2026-04-04T10:31:00.034Z</time></trkpt><trkpt lat="44.7262175" lon="9.3877275"><ele>372.5</ele><time>2026-04-04T10:31:01.024Z</time></trkpt><trkpt lat="44.7261395" lon="9.3878916"><ele>370.75</ele><time>2026-04-04T10:31:02.022Z</time></trkpt><trkpt lat="44.7260625" lon="9.3880486"><ele>369.0</ele><time>2026-04-04T10:31:03.027Z</time></trkpt><trkpt lat="44.7259824" lon="9.3881911"><ele>369.0</ele><time>2026-04-04T10:31:04.038Z</time></trkpt><trkpt lat="44.7258842" lon="9.3883217"><ele>369.0</ele><time>2026-04-04T10:31:05.037Z</time></trkpt><trkpt lat="44.7257839" lon="9.3884434"><ele>369.0</ele><time>2026-04-04T10:31:06.033Z</time></trkpt><trkpt lat="44.7256718" lon="9.3885611"><ele>369.0</ele><time>2026-04-04T10:31:07.043Z</time></trkpt><trkpt lat="44.7255525" lon="9.3886828"><ele>369.0</ele><time>2026-04-04T10:31:08.025Z</time></trkpt><trkpt lat="44.7254224" lon="9.3887838"><ele>369.0</ele><time>2026-04-04T10:31:09.028Z</time></trkpt><trkpt lat="44.7252869" lon="9.3888749"><ele>369.0</ele><time>2026-04-04T10:31:10.037Z</time></trkpt><trkpt lat="44.7251561" lon="9.3889595"><ele>369.0</ele><time>2026-04-04T10:31:11.032Z</time></trkpt><trkpt lat="44.725045" lon="9.3890669"><ele>365.0</ele><time>2026-04-04T10:31:12.011Z</time></trkpt><trkpt lat="44.7249574" lon="9.3892361"><ele>361.0</ele><time>2026-04-04T10:31:13.038Z</time></trkpt><trkpt lat="44.7248828" lon="9.3894408"><ele>357.0</ele><time>2026-04-04T10:31:14.027Z</time></trkpt><trkpt lat="44.724813" lon="9.3896436"><ele>357.5</ele><time>2026-04-04T10:31:15.036Z</time></trkpt><trkpt lat="44.7247683" lon="9.3898418"><ele>358.0</ele><time>2026-04-04T10:31:16.03Z</time></trkpt><trkpt lat="44.7247412" lon="9.3900303"><ele>358.5</ele><time>2026-04-04T10:31:17.033Z</time></trkpt><trkpt lat="44.7247729" lon="9.3901949"><ele>359.0</ele><time>2026-04-04T10:31:18.019Z</time></trkpt><trkpt lat="44.7248565" lon="9.3903442"><ele>359.0</ele><time>2026-04-04T10:31:19.022Z</time></trkpt><trkpt lat="44.7249121" lon="9.3904931"><ele>359.0</ele><time>2026-04-04T10:31:19.997Z</time></trkpt><trkpt lat="44.7249187" lon="9.3906454"><ele>359.0</ele><time>2026-04-04T10:31:20.997Z</time></trkpt><trkpt lat="44.7248884" lon="9.3908151"><ele>359.0</ele><time>2026-04-04T10:31:22.029Z</time></trkpt><trkpt lat="44.7248573" lon="9.3910362"><ele>360.0</ele><time>2026-04-04T10:31:23.028Z</time></trkpt><trkpt lat="44.7248098" lon="9.3912809"><ele>361.0</ele><time>2026-04-04T10:31:23.99Z</time></trkpt><trkpt lat="44.7247557" lon="9.391512"><ele>362.0</ele><time>2026-04-04T10:31:25.024Z</time></trkpt><trkpt lat="44.7247093" lon="9.3917223"><ele>362.0</ele><time>2026-04-04T10:31:26.029Z</time></trkpt><trkpt lat="44.7246497" lon="9.3919222"><ele>362.0</ele><time>2026-04-04T10:31:27.032Z</time></trkpt><trkpt lat="44.7245951" lon="9.3921366"><ele>362.0</ele><time>2026-04-04T10:31:28.038Z</time></trkpt><trkpt lat="44.7245393" lon="9.3923375"><ele>366.25</ele><time>2026-04-04T10:31:29.007Z</time></trkpt><trkpt lat="44.7244739" lon="9.3925234"><ele>370.5</ele><time>2026-04-04T10:31:30.045Z</time></trkpt><trkpt lat="44.7243827" lon="9.3926785"><ele>374.75</ele><time>2026-04-04T10:31:31.025Z</time></trkpt><trkpt lat="44.7242869" lon="9.3928148"><ele>379.0</ele><time>2026-04-04T10:31:32.058Z</time></trkpt><trkpt lat="44.7242068" lon="9.3929404"><ele>376.8333333333333</ele><time>2026-04-04T10:31:33.007Z</time></trkpt><trkpt lat="44.7241305" lon="9.393052"><ele>374.66666666666663</ele><time>2026-04-04T10:31:34.038Z</time></trkpt><trkpt lat="44.7240742" lon="9.3931466"><ele>372.5</ele><time>2026-04-04T10:31:35.013Z</time></trkpt><trkpt lat="44.7240297" lon="9.393217"><ele>370.3333333333333</ele><time>2026-04-04T10:31:36.031Z</time></trkpt><trkpt lat="44.7239766" lon="9.3933107"><ele>368.1666666666667</ele><time>2026-04-04T10:31:39.027Z</time></trkpt><trkpt lat="44.7239371" lon="9.3934063"><ele>366.0</ele><time>2026-04-04T10:31:42.03Z</time></trkpt><trkpt lat="44.723882" lon="9.3934762"><ele>366.0</ele><time>2026-04-04T10:32:04.997Z</time></trkpt><trkpt lat="44.7238185" lon="9.3935922"><ele>366.0</ele><time>2026-04-04T10:32:08.034Z</time></trkpt><trkpt lat="44.7237218" lon="9.3936836"><ele>366.0</ele><time>2026-04-04T10:32:10.026Z</time></trkpt><trkpt lat="44.7236197" lon="9.3937449"><ele>366.0</ele><time>2026-04-04T10:32:12.033Z</time></trkpt><trkpt lat="44.7234985" lon="9.3938084"><ele>366.4</ele><time>2026-04-04T10:32:14.026Z</time></trkpt><trkpt lat="44.7234179" lon="9.3938423"><ele>366.8</ele><time>2026-04-04T10:32:15.021Z</time></trkpt><trkpt lat="44.7233247" lon="9.3938822"><ele>367.2</ele><time>2026-04-04T10:32:16.032Z</time></trkpt><trkpt lat="44.7232208" lon="9.3939241"><ele>367.59999999999997</ele><time>2026-04-04T10:32:17.02Z</time></trkpt><trkpt lat="44.7231225" lon="9.3939586"><ele>368.0</ele><time>2026-04-04T10:32:18.023Z</time></trkpt><trkpt lat="44.7230206" lon="9.394001"><ele>368.0</ele><time>2026-04-04T10:32:19.025Z</time></trkpt><trkpt lat="44.7229237" lon="9.3940321"><ele>368.0</ele><time>2026-04-04T10:32:20.039Z</time></trkpt><trkpt lat="44.7228299" lon="9.3940672"><ele>368.0</ele><time>2026-04-04T10:32:21.001Z</time></trkpt><trkpt lat="44.7227477" lon="9.3941257"><ele>368.0</ele><time>2026-04-04T10:32:22.006Z</time></trkpt><trkpt lat="44.7226846" lon="9.3942093"><ele>368.0</ele><time>2026-04-04T10:32:23.029Z</time></trkpt><trkpt lat="44.7226345" lon="9.3943227"><ele>363.33333333333337</ele><time>2026-04-04T10:32:24.037Z</time></trkpt><trkpt lat="44.7225926" lon="9.3944393"><ele>358.6666666666667</ele><time>2026-04-04T10:32:25.039Z</time></trkpt><trkpt lat="44.7225448" lon="9.39452"><ele>354.0</ele><time>2026-04-04T10:32:26.025Z</time></trkpt><trkpt lat="44.7224705" lon="9.3945439"><ele>349.3333333333333</ele><time>2026-04-04T10:32:27.015Z</time></trkpt><trkpt lat="44.7223917" lon="9.3945066"><ele>344.66666666666663</ele><time>2026-04-04T10:32:28.033Z</time></trkpt><trkpt lat="44.7223147" lon="9.3944541"><ele>340.0</ele><time>2026-04-04T10:32:29.039Z</time></trkpt><trkpt lat="44.7222423" lon="9.3943388"><ele>340.0</ele><time>2026-04-04T10:32:30.025Z</time></trkpt><trkpt lat="44.7221692" lon="9.3942054"><ele>340.0</ele><time>2026-04-04T10:32:31.02Z</time></trkpt><trkpt lat="44.7220898" lon="9.3940697"><ele>340.0</ele><time>2026-04-04T10:32:32.03Z</time></trkpt><trkpt lat="44.7220038" lon="9.3939594"><ele>340.0</ele><time>2026-04-04T10:32:33.028Z</time></trkpt><trkpt lat="44.7218991" lon="9.3938674"><ele>339.25</ele><time>2026-04-04T10:32:34.034Z</time></trkpt><trkpt lat="44.7217887" lon="9.3938174"><ele>338.5</ele><time>2026-04-04T10:32:35.059Z</time></trkpt><trkpt lat="44.7216755" lon="9.3937855"><ele>337.75</ele><time>2026-04-04T10:32:36.044Z</time></trkpt><trkpt lat="44.7215782" lon="9.393841"><ele>337.0</ele><time>2026-04-04T10:32:37.034Z</time></trkpt><trkpt lat="44.7214872" lon="9.3939435"><ele>337.0</ele><time>2026-04-04T10:32:38.051Z</time></trkpt><trkpt lat="44.721413" lon="9.3940589"><ele>337.0</ele><time>2026-04-04T10:32:39.017Z</time></trkpt><trkpt lat="44.7213589" lon="9.3941989"><ele>337.0</ele><time>2026-04-04T10:32:40.022Z</time></trkpt><trkpt lat="44.7213391" lon="9.3943683"><ele>337.0</ele><time>2026-04-04T10:32:41.03Z</time></trkpt><trkpt lat="44.7212806" lon="9.394537"><ele>340.0</ele><time>2026-04-04T10:32:42.014Z</time></trkpt><trkpt lat="44.7211751" lon="9.394687"><ele>343.0</ele><time>2026-04-04T10:32:42.995Z</time></trkpt><trkpt lat="44.7210596" lon="9.3947957"><ele>346.0</ele><time>2026-04-04T10:32:43.988Z</time></trkpt><trkpt lat="44.720951" lon="9.394888"><ele>349.0</ele><time>2026-04-04T10:32:44.989Z</time></trkpt><trkpt lat="44.7208488" lon="9.3949739"><ele>349.0</ele><time>2026-04-04T10:32:46.02Z</time></trkpt><trkpt lat="44.7207386" lon="9.3950257"><ele>349.0</ele><time>2026-04-04T10:32:47.007Z</time></trkpt><trkpt lat="44.7206389" lon="9.3950379"><ele>349.0</ele><time>2026-04-04T10:32:47.995Z</time></trkpt><trkpt lat="44.7205468" lon="9.3950186"><ele>349.0</ele><time>2026-04-04T10:32:48.985Z</time></trkpt><trkpt lat="44.7204908" lon="9.3949395"><ele>349.0</ele><time>2026-04-04T10:32:50.006Z</time></trkpt><trkpt lat="44.7204658" lon="9.394821"><ele>341.0</ele><time>2026-04-04T10:32:51.01Z</time></trkpt><trkpt lat="44.7204645" lon="9.3946239"><ele>333.0</ele><time>2026-04-04T10:32:51.973Z</time></trkpt><trkpt lat="44.7204712" lon="9.3943981"><ele>325.0</ele><time>2026-04-04T10:32:52.978Z</time></trkpt><trkpt lat="44.7204882" lon="9.3941697"><ele>325.0</ele><time>2026-04-04T10:32:54.028Z</time></trkpt><trkpt lat="44.7205287" lon="9.393954"><ele>325.0</ele><time>2026-04-04T10:32:55.014Z</time></trkpt><trkpt lat="44.7206082" lon="9.3937824"><ele>325.0</ele><time>2026-04-04T10:32:56.003Z</time></trkpt><trkpt lat="44.7206857" lon="9.3936225"><ele>325.0</ele><time>2026-04-04T10:32:57.01Z</time></trkpt><trkpt lat="44.7207564" lon="9.3934716"><ele>325.5</ele><time>2026-04-04T10:32:58.028Z</time></trkpt><trkpt lat="44.7207983" lon="9.3933309"><ele>326.0</ele><time>2026-04-04T10:32:59.031Z</time></trkpt><trkpt lat="44.7208112" lon="9.3931751"><ele>326.5</ele><time>2026-04-04T10:33:00.031Z</time></trkpt><trkpt lat="44.7207741" lon="9.3930324"><ele>327.0</ele><time>2026-04-04T10:33:01.03Z</time></trkpt><trkpt lat="44.7206915" lon="9.3928914"><ele>325.75</ele><time>2026-04-04T10:33:02.031Z</time></trkpt><trkpt lat="44.720587" lon="9.3927575"><ele>324.5</ele><time>2026-04-04T10:33:03.013Z</time></trkpt><trkpt lat="44.7204843" lon="9.3926221"><ele>323.25</ele><time>2026-04-04T10:33:04.033Z</time></trkpt><trkpt lat="44.7203978" lon="9.3924543"><ele>322.0</ele><time>2026-04-04T10:33:05.039Z</time></trkpt><trkpt lat="44.7203458" lon="9.3922372"><ele>317.66666666666663</ele><time>2026-04-04T10:33:06.041Z</time></trkpt><trkpt lat="44.7202918" lon="9.3920167"><ele>313.3333333333333</ele><time>2026-04-04T10:33:07.032Z</time></trkpt><trkpt lat="44.720259" lon="9.3917816"><ele>309.0</ele><time>2026-04-04T10:33:08.034Z</time></trkpt><trkpt lat="44.7202388" lon="9.3915285"><ele>321.0</ele><time>2026-04-04T10:33:09.015Z</time></trkpt><trkpt lat="44.7202207" lon="9.3912757"><ele>333.0</ele><time>2026-04-04T10:33:10.013Z</time></trkpt><trkpt lat="44.7202125" lon="9.391025"><ele>345.0</ele><time>2026-04-04T10:33:11.014Z</time></trkpt><trkpt lat="44.720195" lon="9.3907953"><ele>345.0</ele><time>2026-04-04T10:33:12.032Z</time></trkpt><trkpt lat="44.7201731" lon="9.3905899"><ele>345.0</ele><time>2026-04-04T10:33:13.005Z</time></trkpt><trkpt lat="44.7201498" lon="9.3903919"><ele>345.0</ele><time>2026-04-04T10:33:14.04Z</time></trkpt><trkpt lat="44.7200876" lon="9.3902341"><ele>345.0</ele><time>2026-04-04T10:33:15.036Z</time></trkpt><trkpt lat="44.7199944" lon="9.3901307"><ele>336.3333333333333</ele><time>2026-04-04T10:33:16.028Z</time></trkpt><trkpt lat="44.7198797" lon="9.3900449"><ele>327.66666666666663</ele><time>2026-04-04T10:33:17.004Z</time></trkpt><trkpt lat="44.7197393" lon="9.3899694"><ele>319.0</ele><time>2026-04-04T10:33:18.029Z</time></trkpt><trkpt lat="44.7195673" lon="9.3899226"><ele>319.0</ele><time>2026-04-04T10:33:19.028Z</time></trkpt><trkpt lat="44.7194051" lon="9.3899113"><ele>319.0</ele><time>2026-04-04T10:33:20.022Z</time></trkpt><trkpt lat="44.7192563" lon="9.3899352"><ele>319.0</ele><time>2026-04-04T10:33:21.025Z</time></trkpt><trkpt lat="44.7191014" lon="9.3900087"><ele>320.3333333333333</ele><time>2026-04-04T10:33:21.976Z</time></trkpt><trkpt lat="44.7189552" lon="9.3901041"><ele>321.6666666666667</ele><time>2026-04-04T10:33:23.014Z</time></trkpt><trkpt lat="44.7188164" lon="9.3901868"><ele>323.0</ele><time>2026-04-04T10:33:24.031Z</time></trkpt><trkpt lat="44.7186753" lon="9.3902377"><ele>323.5</ele><time>2026-04-04T10:33:25.021Z</time></trkpt><trkpt lat="44.7185331" lon="9.3902432"><ele>324.0</ele><time>2026-04-04T10:33:26.013Z</time></trkpt><trkpt lat="44.7183847" lon="9.390227"><ele>324.5</ele><time>2026-04-04T10:33:27.021Z</time></trkpt><trkpt lat="44.7182305" lon="9.3902095"><ele>325.0</ele><time>2026-04-04T10:33:28.037Z</time></trkpt><trkpt lat="44.7180721" lon="9.3901818"><ele>325.0</ele><time>2026-04-04T10:33:29.005Z</time></trkpt><trkpt lat="44.7179153" lon="9.3901593"><ele>325.0</ele><time>2026-04-04T10:33:30.026Z</time></trkpt><trkpt lat="44.7177613" lon="9.3901473"><ele>325.0</ele><time>2026-04-04T10:33:31.041Z</time></trkpt><trkpt lat="44.7176071" lon="9.3901391"><ele>327.3333333333333</ele><time>2026-04-04T10:33:32.036Z</time></trkpt><trkpt lat="44.7174534" lon="9.3901377"><ele>329.6666666666667</ele><time>2026-04-04T10:33:33.024Z</time></trkpt><trkpt lat="44.7172983" lon="9.3900631"><ele>332.0</ele><time>2026-04-04T10:33:34.034Z</time></trkpt><trkpt lat="44.7171309" lon="9.3899728"><ele>332.0</ele><time>2026-04-04T10:33:35.032Z</time></trkpt><trkpt lat="44.7169711" lon="9.3898927"><ele>332.0</ele><time>2026-04-04T10:33:36.033Z</time></trkpt><trkpt lat="44.71681" lon="9.3898031"><ele>332.0</ele><time>2026-04-04T10:33:37.027Z</time></trkpt><trkpt lat="44.7166584" lon="9.3897136"><ele>325.33333333333337</ele><time>2026-04-04T10:33:38.03Z</time></trkpt><trkpt lat="44.7165156" lon="9.3895988"><ele>318.6666666666667</ele><time>2026-04-04T10:33:39.031Z</time></trkpt><trkpt lat="44.7163873" lon="9.3894739"><ele>312.0</ele><time>2026-04-04T10:33:40.03Z</time></trkpt><trkpt lat="44.7162678" lon="9.3893672"><ele>312.0</ele><time>2026-04-04T10:33:41.007Z</time></trkpt><trkpt lat="44.7161532" lon="9.3892626"><ele>312.0</ele><time>2026-04-04T10:33:42.032Z</time></trkpt><trkpt lat="44.7160457" lon="9.3891156"><ele>312.0</ele><time>2026-04-04T10:33:43.031Z</time></trkpt><trkpt lat="44.7159565" lon="9.3889125"><ele>316.0</ele><time>2026-04-04T10:33:44.038Z</time></trkpt><trkpt lat="44.7158994" lon="9.3886635"><ele>320.0</ele><time>2026-04-04T10:33:44.992Z</time></trkpt><trkpt lat="44.7158373" lon="9.3884515"><ele>324.0</ele><time>2026-04-04T10:33:46.007Z</time></trkpt><trkpt lat="44.7157674" lon="9.3882456"><ele>324.0</ele><time>2026-04-04T10:33:47.03Z</time></trkpt><trkpt lat="44.7156985" lon="9.3880548"><ele>324.0</ele><time>2026-04-04T10:33:48.004Z</time></trkpt><trkpt lat="44.715614" lon="9.3878814"><ele>324.0</ele><time>2026-04-04T10:33:49.01Z</time></trkpt><trkpt lat="44.715512" lon="9.3877151"><ele>324.5</ele><time>2026-04-04T10:33:50.028Z</time></trkpt><trkpt lat="44.7153953" lon="9.3875654"><ele>325.0</ele><time>2026-04-04T10:33:51.032Z</time></trkpt><trkpt lat="44.7152987" lon="9.3874172"><ele>325.5</ele><time>2026-04-04T10:33:52.016Z</time></trkpt><trkpt lat="44.7152295" lon="9.3872445"><ele>326.0</ele><time>2026-04-04T10:33:53.018Z</time></trkpt><trkpt lat="44.715195" lon="9.3870582"><ele>326.0</ele><time>2026-04-04T10:33:54.024Z</time></trkpt><trkpt lat="44.7151436" lon="9.386891"><ele>326.0</ele><time>2026-04-04T10:33:55.036Z</time></trkpt><trkpt lat="44.7150541" lon="9.3867226"><ele>326.0</ele><time>2026-04-04T10:33:56.038Z</time></trkpt><trkpt lat="44.7149618" lon="9.3865365"><ele>326.0</ele><time>2026-04-04T10:33:57.046Z</time></trkpt><trkpt lat="44.7148737" lon="9.3863003"><ele>322.33333333333337</ele><time>2026-04-04T10:33:58.036Z</time></trkpt><trkpt lat="44.7147854" lon="9.3860488"><ele>318.6666666666667</ele><time>2026-04-04T10:33:59.015Z</time></trkpt><trkpt lat="44.7146984" lon="9.3858327"><ele>315.0</ele><time>2026-04-04T10:34:00.038Z</time></trkpt><trkpt lat="44.7146304" lon="9.3856246"><ele>313.25</ele><time>2026-04-04T10:34:01.033Z</time></trkpt><trkpt lat="44.7145612" lon="9.3854306"><ele>311.5</ele><time>2026-04-04T10:34:02.033Z</time></trkpt><trkpt lat="44.7144916" lon="9.3852494"><ele>309.75</ele><time>2026-04-04T10:34:03.03Z</time></trkpt><trkpt lat="44.7144368" lon="9.3850776"><ele>308.0</ele><time>2026-04-04T10:34:04.036Z</time></trkpt><trkpt lat="44.714415" lon="9.3848638"><ele>308.0</ele><time>2026-04-04T10:34:05.025Z</time></trkpt><trkpt lat="44.7144283" lon="9.3846094"><ele>308.0</ele><time>2026-04-04T10:34:06.011Z</time></trkpt><trkpt lat="44.71444" lon="9.3843651"><ele>308.0</ele><time>2026-04-04T10:34:07.041Z</time></trkpt><trkpt lat="44.7144496" lon="9.3841288"><ele>308.0</ele><time>2026-04-04T10:34:08.025Z</time></trkpt><trkpt lat="44.7144738" lon="9.3839248"><ele>308.0</ele><time>2026-04-04T10:34:09.025Z</time></trkpt><trkpt lat="44.7145021" lon="9.3837378"><ele>308.0</ele><time>2026-04-04T10:34:10.04Z</time></trkpt><trkpt lat="44.71452" lon="9.3835785"><ele>308.0</ele><time>2026-04-04T10:34:11.04Z</time></trkpt><trkpt lat="44.714512" lon="9.3834401"><ele>309.0</ele><time>2026-04-04T10:34:12.023Z</time></trkpt><trkpt lat="44.7144567" lon="9.3832953"><ele>310.0</ele><time>2026-04-04T10:34:13.027Z</time></trkpt><trkpt lat="44.714372" lon="9.3831567"><ele>311.0</ele><time>2026-04-04T10:34:14.037Z</time></trkpt><trkpt lat="44.7142693" lon="9.3830014"><ele>312.0</ele><time>2026-04-04T10:34:15.029Z</time></trkpt><trkpt lat="44.7141769" lon="9.3828641"><ele>313.25</ele><time>2026-04-04T10:34:16.022Z</time></trkpt><trkpt lat="44.7140918" lon="9.3827406"><ele>314.5</ele><time>2026-04-04T10:34:17.042Z</time></trkpt><trkpt lat="44.7140226" lon="9.3826221"><ele>315.75</ele><time>2026-04-04T10:34:18.015Z</time></trkpt><trkpt lat="44.7139587" lon="9.3824827"><ele>317.0</ele><time>2026-04-04T10:34:19.003Z</time></trkpt><trkpt lat="44.7139225" lon="9.3823287"><ele>316.25</ele><time>2026-04-04T10:34:20.031Z</time></trkpt><trkpt lat="44.71391" lon="9.3821485"><ele>315.5</ele><time>2026-04-04T10:34:21.025Z</time></trkpt><trkpt lat="44.713899" lon="9.3819724"><ele>314.75</ele><time>2026-04-04T10:34:22.035Z</time></trkpt><trkpt lat="44.7138912" lon="9.38181"><ele>314.0</ele><time>2026-04-04T10:34:23.029Z</time></trkpt><trkpt lat="44.7138795" lon="9.3816541"><ele>314.0</ele><time>2026-04-04T10:34:24.023Z</time></trkpt><trkpt lat="44.7138648" lon="9.3815063"><ele>314.0</ele><time>2026-04-04T10:34:25.037Z</time></trkpt><trkpt lat="44.7138502" lon="9.381372"><ele>314.0</ele><time>2026-04-04T10:34:26.003Z</time></trkpt><trkpt lat="44.7138298" lon="9.3812401"><ele>314.0</ele><time>2026-04-04T10:34:27.024Z</time></trkpt><trkpt lat="44.713801" lon="9.3811146"><ele>314.0</ele><time>2026-04-04T10:34:28.04Z</time></trkpt><trkpt lat="44.7137655" lon="9.3809961"><ele>314.0</ele><time>2026-04-04T10:34:29.004Z</time></trkpt><trkpt lat="44.7137156" lon="9.3808992"><ele>314.0</ele><time>2026-04-04T10:34:30.041Z</time></trkpt><trkpt lat="44.7136546" lon="9.380806"><ele>314.0</ele><time>2026-04-04T10:34:31.03Z</time></trkpt><trkpt lat="44.7135885" lon="9.3807071"><ele>314.0</ele><time>2026-04-04T10:34:32.06Z</time></trkpt><trkpt lat="44.713521" lon="9.3805988"><ele>314.0</ele><time>2026-04-04T10:34:33.045Z</time></trkpt><trkpt lat="44.71345" lon="9.3804912"><ele>315.0</ele><time>2026-04-04T10:34:34.012Z</time></trkpt><trkpt lat="44.7133787" lon="9.3803846"><ele>316.0</ele><time>2026-04-04T10:34:35.043Z</time></trkpt><trkpt lat="44.7132939" lon="9.380289"><ele>317.0</ele><time>2026-04-04T10:34:36.047Z</time></trkpt><trkpt lat="44.7132027" lon="9.380207"><ele>318.0</ele><time>2026-04-04T10:34:37.052Z</time></trkpt><trkpt lat="44.7131022" lon="9.3801561"><ele>319.0</ele><time>2026-04-04T10:34:37.99Z</time></trkpt><trkpt lat="44.7130146" lon="9.3801349"><ele>319.0</ele><time>2026-04-04T10:34:39.038Z</time></trkpt><trkpt lat="44.7129512" lon="9.3801306"><ele>319.0</ele><time>2026-04-04T10:34:40.04Z</time></trkpt><trkpt lat="44.7128521" lon="9.3801658"><ele>319.0</ele><time>2026-04-04T10:34:42.068Z</time></trkpt><trkpt lat="44.7127663" lon="9.3802849"><ele>319.0</ele><time>2026-04-04T10:34:44.043Z</time></trkpt><trkpt lat="44.7126788" lon="9.3803234"><ele>319.0</ele><time>2026-04-04T10:34:45.034Z</time></trkpt><trkpt lat="44.7125757" lon="9.3803432"><ele>319.6</ele><time>2026-04-04T10:34:45.992Z</time></trkpt><trkpt lat="44.7124577" lon="9.3803729"><ele>320.2</ele><time>2026-04-04T10:34:47.029Z</time></trkpt><trkpt lat="44.7123612" lon="9.3804083"><ele>320.8</ele><time>2026-04-04T10:34:48.012Z</time></trkpt><trkpt lat="44.7122915" lon="9.3804722"><ele>321.40000000000003</ele><time>2026-04-04T10:34:49.036Z</time></trkpt><trkpt lat="44.7122444" lon="9.3805779"><ele>322.0</ele><time>2026-04-04T10:34:50.042Z</time></trkpt><trkpt lat="44.7122257" lon="9.380746"><ele>323.0</ele><time>2026-04-04T10:34:51.057Z</time></trkpt><trkpt lat="44.712202" lon="9.3809456"><ele>324.0</ele><time>2026-04-04T10:34:52.04Z</time></trkpt><trkpt lat="44.712181" lon="9.3811228"><ele>325.0</ele><time>2026-04-04T10:34:53.038Z</time></trkpt><trkpt lat="44.7121559" lon="9.3813059"><ele>326.0</ele><time>2026-04-04T10:34:54.031Z</time></trkpt><trkpt lat="44.7121317" lon="9.3814963"><ele>327.75</ele><time>2026-04-04T10:34:55.035Z</time></trkpt><trkpt lat="44.7121071" lon="9.3816843"><ele>329.5</ele><time>2026-04-04T10:34:56.037Z</time></trkpt><trkpt lat="44.7120838" lon="9.3818837"><ele>331.25</ele><time>2026-04-04T10:34:57.049Z</time></trkpt><trkpt lat="44.7120657" lon="9.3820652"><ele>333.0</ele><time>2026-04-04T10:34:58.032Z</time></trkpt><trkpt lat="44.7120425" lon="9.3822365"><ele>333.79999999999995</ele><time>2026-04-04T10:34:59.047Z</time></trkpt><trkpt lat="44.7120386" lon="9.3824013"><ele>334.6</ele><time>2026-04-04T10:35:00.025Z</time></trkpt><trkpt lat="44.7120558" lon="9.3825518"><ele>335.4</ele><time>2026-04-04T10:35:01.041Z</time></trkpt><trkpt lat="44.7120914" lon="9.3826838"><ele>336.20000000000005</ele><time>2026-04-04T10:35:02.044Z</time></trkpt><trkpt lat="44.7121483" lon="9.3828266"><ele>337.0</ele><time>2026-04-04T10:35:03.048Z</time></trkpt><trkpt lat="44.712234" lon="9.3829529"><ele>338.40000000000003</ele><time>2026-04-04T10:35:04.036Z</time></trkpt><trkpt lat="44.7123125" lon="9.3830678"><ele>339.8</ele><time>2026-04-04T10:35:05.044Z</time></trkpt><trkpt lat="44.7123738" lon="9.3831674"><ele>341.2</ele><time>2026-04-04T10:35:06.037Z</time></trkpt><trkpt lat="44.7123954" lon="9.3832828"><ele>342.6</ele><time>2026-04-04T10:35:07.035Z</time></trkpt><trkpt lat="44.7123821" lon="9.3834551"><ele>344.0</ele><time>2026-04-04T10:35:08.024Z</time></trkpt><trkpt lat="44.7123629" lon="9.3836651"><ele>346.0</ele><time>2026-04-04T10:35:09.033Z</time></trkpt><trkpt lat="44.7123576" lon="9.3838612"><ele>348.0</ele><time>2026-04-04T10:35:10.034Z</time></trkpt><trkpt lat="44.7123383" lon="9.3840409"><ele>350.0</ele><time>2026-04-04T10:35:11.014Z</time></trkpt><trkpt lat="44.7122973" lon="9.3841916"><ele>352.0</ele><time>2026-04-04T10:35:12.032Z</time></trkpt><trkpt lat="44.7122199" lon="9.384304"><ele>352.0</ele><time>2026-04-04T10:35:13.018Z</time></trkpt><trkpt lat="44.7121185" lon="9.3843961"><ele>352.0</ele><time>2026-04-04T10:35:14.039Z</time></trkpt><trkpt lat="44.7119859" lon="9.3845027"><ele>352.0</ele><time>2026-04-04T10:35:15.026Z</time></trkpt><trkpt lat="44.7118405" lon="9.384618"><ele>352.0</ele><time>2026-04-04T10:35:16.028Z</time></trkpt><trkpt lat="44.7117068" lon="9.3847319"><ele>352.0</ele><time>2026-04-04T10:35:17.032Z</time></trkpt><trkpt lat="44.7115701" lon="9.3848194"><ele>352.0</ele><time>2026-04-04T10:35:18.038Z</time></trkpt><trkpt lat="44.7114451" lon="9.3848955"><ele>352.0</ele><time>2026-04-04T10:35:19.065Z</time></trkpt><trkpt lat="44.7113413" lon="9.3849645"><ele>352.0</ele><time>2026-04-04T10:35:20.043Z</time></trkpt><trkpt lat="44.7112458" lon="9.3850267"><ele>352.0</ele><time>2026-04-04T10:35:21.032Z</time></trkpt><trkpt lat="44.7111559" lon="9.3850922"><ele>352.0</ele><time>2026-04-04T10:35:22.017Z</time></trkpt><trkpt lat="44.7110742" lon="9.3851464"><ele>352.0</ele><time>2026-04-04T10:35:23.03Z</time></trkpt><trkpt lat="44.7109849" lon="9.3851988"><ele>352.0</ele><time>2026-04-04T10:35:24.013Z</time></trkpt><trkpt lat="44.7108808" lon="9.3852487"><ele>352.0</ele><time>2026-04-04T10:35:25.036Z</time></trkpt><trkpt lat="44.7107361" lon="9.3853163"><ele>353.3333333333333</ele><time>2026-04-04T10:35:26.039Z</time></trkpt><trkpt lat="44.7105769" lon="9.3853876"><ele>354.6666666666667</ele><time>2026-04-04T10:35:27.029Z</time></trkpt><trkpt lat="44.7104386" lon="9.3854474"><ele>356.0</ele><time>2026-04-04T10:35:28.026Z</time></trkpt><trkpt lat="44.7102963" lon="9.3854852"><ele>356.25</ele><time>2026-04-04T10:35:28.99Z</time></trkpt><trkpt lat="44.7101607" lon="9.3854957"><ele>356.5</ele><time>2026-04-04T10:35:30.027Z</time></trkpt><trkpt lat="44.7100255" lon="9.3854935"><ele>356.75</ele><time>2026-04-04T10:35:31.018Z</time></trkpt><trkpt lat="44.7098898" lon="9.3855114"><ele>357.0</ele><time>2026-04-04T10:35:32.046Z</time></trkpt><trkpt lat="44.7097515" lon="9.385619"><ele>359.0</ele><time>2026-04-04T10:35:33.039Z</time></trkpt><trkpt lat="44.7096283" lon="9.3857988"><ele>361.0</ele><time>2026-04-04T10:35:34.048Z</time></trkpt><trkpt lat="44.7095114" lon="9.3859995"><ele>363.0</ele><time>2026-04-04T10:35:35.055Z</time></trkpt><trkpt lat="44.7094109" lon="9.3861465"><ele>364.4</ele><time>2026-04-04T10:35:36.035Z</time></trkpt><trkpt lat="44.7093201" lon="9.3862557"><ele>365.79999999999995</ele><time>2026-04-04T10:35:37.029Z</time></trkpt><trkpt lat="44.7092365" lon="9.3863239"><ele>367.2</ele><time>2026-04-04T10:35:38.035Z</time></trkpt><trkpt lat="44.7091708" lon="9.3862986"><ele>368.6</ele><time>2026-04-04T10:35:39.031Z</time></trkpt><trkpt lat="44.7091205" lon="9.3861864"><ele>370.0</ele><time>2026-04-04T10:35:40.042Z</time></trkpt><trkpt lat="44.7091248" lon="9.3860464"><ele>370.0</ele><time>2026-04-04T10:35:41.016Z</time></trkpt><trkpt lat="44.7091771" lon="9.3858994"><ele>370.0</ele><time>2026-04-04T10:35:42.037Z</time></trkpt><trkpt lat="44.7092309" lon="9.3857874"><ele>370.0</ele><time>2026-04-04T10:35:43.028Z</time></trkpt><trkpt lat="44.7092159" lon="9.3856215"><ele>370.0</ele><time>2026-04-04T10:35:45.041Z</time></trkpt><trkpt lat="44.7091491" lon="9.3855802"><ele>370.0</ele><time>2026-04-04T10:35:46.023Z</time></trkpt><trkpt lat="44.7090709" lon="9.385554"><ele>370.0</ele><time>2026-04-04T10:35:47.033Z</time></trkpt><trkpt lat="44.7089878" lon="9.3856005"><ele>370.0</ele><time>2026-04-04T10:35:48.025Z</time></trkpt><trkpt lat="44.7088991" lon="9.3856736"><ele>370.0</ele><time>2026-04-04T10:35:48.991Z</time></trkpt><trkpt lat="44.7088111" lon="9.3857326"><ele>370.0</ele><time>2026-04-04T10:35:49.976Z</time></trkpt><trkpt lat="44.7087319" lon="9.3857334"><ele>370.0</ele><time>2026-04-04T10:35:50.98Z</time></trkpt><trkpt lat="44.7086527" lon="9.3856605"><ele>371.0</ele><time>2026-04-04T10:35:52.04Z</time></trkpt><trkpt lat="44.7085867" lon="9.3855062"><ele>372.0</ele><time>2026-04-04T10:35:53.045Z</time></trkpt><trkpt lat="44.7085217" lon="9.38536"><ele>373.0</ele><time>2026-04-04T10:35:54.003Z</time></trkpt><trkpt lat="44.7084427" lon="9.3852715"><ele>374.0</ele><time>2026-04-04T10:35:55.046Z</time></trkpt><trkpt lat="44.7083755" lon="9.385259"><ele>375.0</ele><time>2026-04-04T10:35:56.031Z</time></trkpt><trkpt lat="44.7082777" lon="9.3853522"><ele>375.0</ele><time>2026-04-04T10:35:58.032Z</time></trkpt><trkpt lat="44.7082805" lon="9.3854718"><ele>375.0</ele><time>2026-04-04T10:35:59.041Z</time></trkpt><trkpt lat="44.7083237" lon="9.3855935"><ele>375.0</ele><time>2026-04-04T10:36:00.039Z</time></trkpt><trkpt lat="44.7083723" lon="9.3857223"><ele>375.0</ele><time>2026-04-04T10:36:01.05Z</time></trkpt><trkpt lat="44.7084281" lon="9.3858807"><ele>375.0</ele><time>2026-04-04T10:36:02.033Z</time></trkpt><trkpt lat="44.7084911" lon="9.3860631"><ele>374.0</ele><time>2026-04-04T10:36:03.027Z</time></trkpt><trkpt lat="44.7085685" lon="9.3861858"><ele>373.0</ele><time>2026-04-04T10:36:04.034Z</time></trkpt><trkpt lat="44.7086445" lon="9.3862559"><ele>372.0</ele><time>2026-04-04T10:36:05.017Z</time></trkpt><trkpt lat="44.7086952" lon="9.3863339"><ele>371.0</ele><time>2026-04-04T10:36:06.048Z</time></trkpt><trkpt lat="44.7086479" lon="9.3864728"><ele>370.0</ele><time>2026-04-04T10:36:08.033Z</time></trkpt><trkpt lat="44.7085395" lon="9.3864503"><ele>375.66666666666663</ele><time>2026-04-04T10:36:09.036Z</time></trkpt><trkpt lat="44.7083916" lon="9.3862962"><ele>381.3333333333333</ele><time>2026-04-04T10:36:10.019Z</time></trkpt><trkpt lat="44.7082343" lon="9.386083"><ele>387.0</ele><time>2026-04-04T10:36:11.029Z</time></trkpt><trkpt lat="44.7081113" lon="9.3858929"><ele>387.0</ele><time>2026-04-04T10:36:12.041Z</time></trkpt><trkpt lat="44.7079811" lon="9.3857337"><ele>387.0</ele><time>2026-04-04T10:36:13.027Z</time></trkpt><trkpt lat="44.7078658" lon="9.3856144"><ele>387.0</ele><time>2026-04-04T10:36:14.032Z</time></trkpt><trkpt lat="44.7077527" lon="9.3854801"><ele>389.5</ele><time>2026-04-04T10:36:15.027Z</time></trkpt><trkpt lat="44.7076372" lon="9.3853324"><ele>392.0</ele><time>2026-04-04T10:36:16.02Z</time></trkpt><trkpt lat="44.7075433" lon="9.385181"><ele>394.5</ele><time>2026-04-04T10:36:17.041Z</time></trkpt><trkpt lat="44.7074578" lon="9.3850558"><ele>397.0</ele><time>2026-04-04T10:36:18.012Z</time></trkpt><trkpt lat="44.707386" lon="9.384952"><ele>397.0</ele><time>2026-04-04T10:36:19.017Z</time></trkpt><trkpt lat="44.7073186" lon="9.384875"><ele>397.0</ele><time>2026-04-04T10:36:20.02Z</time></trkpt><trkpt lat="44.7072343" lon="9.3848676"><ele>397.0</ele><time>2026-04-04T10:36:21.031Z</time></trkpt><trkpt lat="44.7071234" lon="9.3849092"><ele>397.0</ele><time>2026-04-04T10:36:22.001Z</time></trkpt><trkpt lat="44.7069939" lon="9.3850011"><ele>397.0</ele><time>2026-04-04T10:36:23.049Z</time></trkpt><trkpt lat="44.7068643" lon="9.3850953"><ele>397.25</ele><time>2026-04-04T10:36:24.03Z</time></trkpt><trkpt lat="44.7067615" lon="9.38519"><ele>397.5</ele><time>2026-04-04T10:36:25.006Z</time></trkpt><trkpt lat="44.7066913" lon="9.3853114"><ele>397.75</ele><time>2026-04-04T10:36:26.023Z</time></trkpt><trkpt lat="44.7066466" lon="9.3854641"><ele>398.0</ele><time>2026-04-04T10:36:27.01Z</time></trkpt><trkpt lat="44.7066218" lon="9.3856348"><ele>402.5</ele><time>2026-04-04T10:36:28.021Z</time></trkpt><trkpt lat="44.7066046" lon="9.3858182"><ele>407.0</ele><time>2026-04-04T10:36:29.031Z</time></trkpt><trkpt lat="44.7065545" lon="9.3859439"><ele>411.5</ele><time>2026-04-04T10:36:30.035Z</time></trkpt><trkpt lat="44.7064575" lon="9.386036"><ele>416.0</ele><time>2026-04-04T10:36:31.042Z</time></trkpt><trkpt lat="44.706321" lon="9.3860549"><ele>416.0</ele><time>2026-04-04T10:36:32.067Z</time></trkpt><trkpt lat="44.7061697" lon="9.3860228"><ele>416.0</ele><time>2026-04-04T10:36:33.039Z</time></trkpt><trkpt lat="44.7060235" lon="9.3859346"><ele>416.0</ele><time>2026-04-04T10:36:34.023Z</time></trkpt><trkpt lat="44.7058978" lon="9.3858231"><ele>414.25</ele><time>2026-04-04T10:36:35.035Z</time></trkpt><trkpt lat="44.7057718" lon="9.3857395"><ele>412.5</ele><time>2026-04-04T10:36:36.034Z</time></trkpt><trkpt lat="44.7056667" lon="9.3856621"><ele>410.75</ele><time>2026-04-04T10:36:37.034Z</time></trkpt><trkpt lat="44.7055459" lon="9.3856384"><ele>409.0</ele><time>2026-04-04T10:36:38.043Z</time></trkpt><trkpt lat="44.7054124" lon="9.3856496"><ele>409.0</ele><time>2026-04-04T10:36:39.005Z</time></trkpt><trkpt lat="44.7053016" lon="9.3856769"><ele>409.0</ele><time>2026-04-04T10:36:40.056Z</time></trkpt><trkpt lat="44.7052194" lon="9.385739"><ele>409.0</ele><time>2026-04-04T10:36:41.029Z</time></trkpt><trkpt lat="44.7051345" lon="9.3858346"><ele>409.0</ele><time>2026-04-04T10:36:42.032Z</time></trkpt><trkpt lat="44.7050618" lon="9.3859874"><ele>409.0</ele><time>2026-04-04T10:36:43.045Z</time></trkpt><trkpt lat="44.7050393" lon="9.386131"><ele>410.0</ele><time>2026-04-04T10:36:44.023Z</time></trkpt><trkpt lat="44.7050201" lon="9.3862797"><ele>411.0</ele><time>2026-04-04T10:36:45.023Z</time></trkpt><trkpt lat="44.7050354" lon="9.3864077"><ele>412.0</ele><time>2026-04-04T10:36:46.039Z</time></trkpt><trkpt lat="44.7050815" lon="9.3865266"><ele>413.0</ele><time>2026-04-04T10:36:47.053Z</time></trkpt><trkpt lat="44.7051812" lon="9.3866024"><ele>414.0</ele><time>2026-04-04T10:36:48.026Z</time></trkpt><trkpt lat="44.7053184" lon="9.3866127"><ele>416.0</ele><time>2026-04-04T10:36:49.058Z</time></trkpt><trkpt lat="44.7054378" lon="9.3865637"><ele>418.0</ele><time>2026-04-04T10:36:50.021Z</time></trkpt><trkpt lat="44.7055279" lon="9.3865076"><ele>420.0</ele><time>2026-04-04T10:36:51.018Z</time></trkpt><trkpt lat="44.7056103" lon="9.3864723"><ele>422.0</ele><time>2026-04-04T10:36:52.041Z</time></trkpt><trkpt lat="44.7056905" lon="9.3866117"><ele>424.0</ele><time>2026-04-04T10:36:54.052Z</time></trkpt><trkpt lat="44.7056604" lon="9.3867423"><ele>424.0</ele><time>2026-04-04T10:36:55.02Z</time></trkpt><trkpt lat="44.7055943" lon="9.3868685"><ele>424.0</ele><time>2026-04-04T10:36:56.048Z</time></trkpt><trkpt lat="44.7054991" lon="9.3869595"><ele>424.0</ele><time>2026-04-04T10:36:57.021Z</time></trkpt><trkpt lat="44.7053844" lon="9.3870047"><ele>424.0</ele><time>2026-04-04T10:36:58.045Z</time></trkpt><trkpt lat="44.7052761" lon="9.3870063"><ele>424.2</ele><time>2026-04-04T10:36:59.034Z</time></trkpt><trkpt lat="44.7051839" lon="9.3869843"><ele>424.4</ele><time>2026-04-04T10:37:00.058Z</time></trkpt><trkpt lat="44.7051101" lon="9.38698"><ele>424.6</ele><time>2026-04-04T10:37:01.046Z</time></trkpt><trkpt lat="44.7050449" lon="9.3870317"><ele>424.8</ele><time>2026-04-04T10:37:02.044Z</time></trkpt><trkpt lat="44.704955" lon="9.387122"><ele>425.0</ele><time>2026-04-04T10:37:03.042Z</time></trkpt><trkpt lat="44.7048627" lon="9.3871996"><ele>426.75</ele><time>2026-04-04T10:37:04.021Z</time></trkpt><trkpt lat="44.7047369" lon="9.3872585"><ele>428.5</ele><time>2026-04-04T10:37:05.042Z</time></trkpt><trkpt lat="44.7045907" lon="9.387312"><ele>430.25</ele><time>2026-04-04T10:37:06.058Z</time></trkpt><trkpt lat="44.7044258" lon="9.3873185"><ele>432.0</ele><time>2026-04-04T10:37:07.042Z</time></trkpt><trkpt lat="44.7042876" lon="9.3872839"><ele>432.0</ele><time>2026-04-04T10:37:08.018Z</time></trkpt><trkpt lat="44.7041518" lon="9.3872167"><ele>432.00000000000006</ele><time>2026-04-04T10:37:08.993Z</time></trkpt><trkpt lat="44.7040269" lon="9.3871906"><ele>432.00000000000006</ele><time>2026-04-04T10:37:10.028Z</time></trkpt><trkpt lat="44.7039581" lon="9.3871685"><ele>432.0</ele><time>2026-04-04T10:37:11.04Z</time></trkpt><trkpt lat="44.7038739" lon="9.3872499"><ele>432.0</ele><time>2026-04-04T10:37:13.025Z</time></trkpt><trkpt lat="44.7038272" lon="9.3873941"><ele>432.0</ele><time>2026-04-04T10:37:14.036Z</time></trkpt><trkpt lat="44.7037516" lon="9.3876102"><ele>432.0</ele><time>2026-04-04T10:37:15.012Z</time></trkpt><trkpt lat="44.7036682" lon="9.3878562"><ele>432.0</ele><time>2026-04-04T10:37:16.034Z</time></trkpt><trkpt lat="44.7035909" lon="9.3881035"><ele>434.33333333333337</ele><time>2026-04-04T10:37:17.024Z</time></trkpt><trkpt lat="44.7035266" lon="9.3883055"><ele>436.6666666666667</ele><time>2026-04-04T10:37:18.038Z</time></trkpt><trkpt lat="44.7034632" lon="9.3884994"><ele>439.0</ele><time>2026-04-04T10:37:19.016Z</time></trkpt><trkpt lat="44.7033793" lon="9.3886743"><ele>439.0</ele><time>2026-04-04T10:37:20.04Z</time></trkpt><trkpt lat="44.703288" lon="9.3888346"><ele>439.0</ele><time>2026-04-04T10:37:21.027Z</time></trkpt><trkpt lat="44.7032012" lon="9.3889765"><ele>439.0</ele><time>2026-04-04T10:37:22.034Z</time></trkpt><trkpt lat="44.7031412" lon="9.3890785"><ele>439.0</ele><time>2026-04-04T10:37:23.049Z</time></trkpt><trkpt lat="44.7031067" lon="9.38916"><ele>439.0</ele><time>2026-04-04T10:37:24.032Z</time></trkpt><trkpt lat="44.7031831" lon="9.3893045"><ele>441.33333333333337</ele><time>2026-04-04T10:37:26.031Z</time></trkpt><trkpt lat="44.7032974" lon="9.3893612"><ele>443.66666666666663</ele><time>2026-04-04T10:37:27.007Z</time></trkpt><trkpt lat="44.7034571" lon="9.3894191"><ele>446.0</ele><time>2026-04-04T10:37:28.027Z</time></trkpt><trkpt lat="44.7036323" lon="9.3895128"><ele>446.0</ele><time>2026-04-04T10:37:29.014Z</time></trkpt><trkpt lat="44.7037924" lon="9.3896294"><ele>446.0</ele><time>2026-04-04T10:37:29.976Z</time></trkpt><trkpt lat="44.7039255" lon="9.38973"><ele>446.0</ele><time>2026-04-04T10:37:31.031Z</time></trkpt><trkpt lat="44.7040489" lon="9.3897789"><ele>446.3333333333333</ele><time>2026-04-04T10:37:31.986Z</time></trkpt><trkpt lat="44.7042112" lon="9.3897505"><ele>446.66666666666663</ele><time>2026-04-04T10:37:33.023Z</time></trkpt><trkpt lat="44.7043828" lon="9.3896873"><ele>447.0</ele><time>2026-04-04T10:37:34.019Z</time></trkpt><trkpt lat="44.7045417" lon="9.3896486"><ele>455.0</ele><time>2026-04-04T10:37:34.972Z</time></trkpt><trkpt lat="44.7046728" lon="9.3896788"><ele>463.0</ele><time>2026-04-04T10:37:36.023Z</time></trkpt><trkpt lat="44.7048205" lon="9.3897894"><ele>471.0</ele><time>2026-04-04T10:37:37.015Z</time></trkpt><trkpt lat="44.7049745" lon="9.3899321"><ele>471.0</ele><time>2026-04-04T10:37:38.018Z</time></trkpt><trkpt lat="44.7051303" lon="9.3900606"><ele>471.0</ele><time>2026-04-04T10:37:39.02Z</time></trkpt><trkpt lat="44.7052559" lon="9.390156"><ele>471.0</ele><time>2026-04-04T10:37:40.003Z</time></trkpt><trkpt lat="44.7053672" lon="9.3902206"><ele>471.0</ele><time>2026-04-04T10:37:41.02Z</time></trkpt><trkpt lat="44.7054799" lon="9.3902251"><ele>473.0</ele><time>2026-04-04T10:37:42.038Z</time></trkpt><trkpt lat="44.7055918" lon="9.3901299"><ele>475.0</ele><time>2026-04-04T10:37:43.034Z</time></trkpt><trkpt lat="44.705703" lon="9.3899664"><ele>477.0</ele><time>2026-04-04T10:37:44.041Z</time></trkpt><trkpt lat="44.705809" lon="9.389796"><ele>475.0</ele><time>2026-04-04T10:37:45.032Z</time></trkpt><trkpt lat="44.7058992" lon="9.3896486"><ele>473.00000000000006</ele><time>2026-04-04T10:37:45.979Z</time></trkpt><trkpt lat="44.7059685" lon="9.3895369"><ele>471.00000000000006</ele><time>2026-04-04T10:37:47.022Z</time></trkpt><trkpt lat="44.7060307" lon="9.38945"><ele>469.0</ele><time>2026-04-04T10:37:48.038Z</time></trkpt><trkpt lat="44.7060854" lon="9.3893734"><ele>467.0</ele><time>2026-04-04T10:37:49.013Z</time></trkpt><trkpt lat="44.7061607" lon="9.389322"><ele>467.0</ele><time>2026-04-04T10:37:50.018Z</time></trkpt><trkpt lat="44.7062487" lon="9.389323"><ele>467.0</ele><time>2026-04-04T10:37:50.995Z</time></trkpt><trkpt lat="44.7063677" lon="9.3894079"><ele>467.0</ele><time>2026-04-04T10:37:52.055Z</time></trkpt><trkpt lat="44.7064824" lon="9.3895543"><ele>467.0</ele><time>2026-04-04T10:37:53.037Z</time></trkpt><trkpt lat="44.7066109" lon="9.3897342"><ele>469.66666666666663</ele><time>2026-04-04T10:37:54.013Z</time></trkpt><trkpt lat="44.7067552" lon="9.3899278"><ele>472.33333333333337</ele><time>2026-04-04T10:37:55.028Z</time></trkpt><trkpt lat="44.7068982" lon="9.3901132"><ele>475.0</ele><time>2026-04-04T10:37:56.046Z</time></trkpt><trkpt lat="44.7070076" lon="9.3902838"><ele>475.0</ele><time>2026-04-04T10:37:57.002Z</time></trkpt><trkpt lat="44.7070885" lon="9.3904312"><ele>475.0</ele><time>2026-04-04T10:37:58Z</time></trkpt><trkpt lat="44.707145" lon="9.3905525"><ele>475.0</ele><time>2026-04-04T10:37:59.03Z</time></trkpt><trkpt lat="44.707181" lon="9.3906708"><ele>475.0</ele><time>2026-04-04T10:38:00.03Z</time></trkpt><trkpt lat="44.707148" lon="9.3908199"><ele>475.0</ele><time>2026-04-04T10:38:01.046Z</time></trkpt><trkpt lat="44.7070546" lon="9.3910178"><ele>474.0</ele><time>2026-04-04T10:38:02.046Z</time></trkpt><trkpt lat="44.7069133" lon="9.3912245"><ele>473.0</ele><time>2026-04-04T10:38:03.038Z</time></trkpt><trkpt lat="44.7067685" lon="9.391424"><ele>472.0</ele><time>2026-04-04T10:38:04.041Z</time></trkpt><trkpt lat="44.7065984" lon="9.3915927"><ele>478.0</ele><time>2026-04-04T10:38:05.051Z</time></trkpt><trkpt lat="44.706399" lon="9.3917627"><ele>484.0</ele><time>2026-04-04T10:38:06.053Z</time></trkpt><trkpt lat="44.7061974" lon="9.3919145"><ele>489.33333333333337</ele><time>2026-04-04T10:38:07.043Z</time></trkpt><trkpt lat="44.7060264" lon="9.3920376"><ele>494.66666666666663</ele><time>2026-04-04T10:38:08.035Z</time></trkpt><trkpt lat="44.7058784" lon="9.3921509"><ele>500.0</ele><time>2026-04-04T10:38:09.007Z</time></trkpt><trkpt lat="44.7057566" lon="9.3922799"><ele>500.0</ele><time>2026-04-04T10:38:10.032Z</time></trkpt><trkpt lat="44.7056385" lon="9.3924173"><ele>500.0</ele><time>2026-04-04T10:38:11.026Z</time></trkpt><trkpt lat="44.7055416" lon="9.392586"><ele>500.0</ele><time>2026-04-04T10:38:12.034Z</time></trkpt><trkpt lat="44.7054629" lon="9.3927707"><ele>500.0</ele><time>2026-04-04T10:38:13.023Z</time></trkpt><trkpt lat="44.7054043" lon="9.3929529"><ele>500.0</ele><time>2026-04-04T10:38:14.003Z</time></trkpt><trkpt lat="44.7053597" lon="9.3930886"><ele>500.0</ele><time>2026-04-04T10:38:15.003Z</time></trkpt><trkpt lat="44.7053225" lon="9.3931919"><ele>500.0</ele><time>2026-04-04T10:38:16.022Z</time></trkpt><trkpt lat="44.7052894" lon="9.3932829"><ele>500.0</ele><time>2026-04-04T10:38:17.036Z</time></trkpt><trkpt lat="44.7052469" lon="9.3933737"><ele>501.8</ele><time>2026-04-04T10:38:18.053Z</time></trkpt><trkpt lat="44.7052027" lon="9.3934712"><ele>503.6</ele><time>2026-04-04T10:38:19.023Z</time></trkpt><trkpt lat="44.7051634" lon="9.3935644"><ele>505.4</ele><time>2026-04-04T10:38:19.995Z</time></trkpt><trkpt lat="44.7051103" lon="9.3936679"><ele>507.2</ele><time>2026-04-04T10:38:20.99Z</time></trkpt><trkpt lat="44.7050341" lon="9.3937981"><ele>509.0</ele><time>2026-04-04T10:38:22.014Z</time></trkpt><trkpt lat="44.7049558" lon="9.3939422"><ele>509.0</ele><time>2026-04-04T10:38:23.012Z</time></trkpt><trkpt lat="44.7048623" lon="9.3940787"><ele>509.0</ele><time>2026-04-04T10:38:23.979Z</time></trkpt><trkpt lat="44.7047554" lon="9.3941782"><ele>509.0</ele><time>2026-04-04T10:38:24.986Z</time></trkpt><trkpt lat="44.7046295" lon="9.3942364"><ele>509.0</ele><time>2026-04-04T10:38:26.036Z</time></trkpt><trkpt lat="44.7044881" lon="9.3942884"><ele>517.0</ele><time>2026-04-04T10:38:27.036Z</time></trkpt><trkpt lat="44.7043102" lon="9.3943474"><ele>525.0</ele><time>2026-04-04T10:38:28.024Z</time></trkpt><trkpt lat="44.7041208" lon="9.3944486"><ele>533.0</ele><time>2026-04-04T10:38:29.024Z</time></trkpt><trkpt lat="44.7039025" lon="9.3945293"><ele>533.0</ele><time>2026-04-04T10:38:29.998Z</time></trkpt><trkpt lat="44.7036981" lon="9.394608"><ele>533.0</ele><time>2026-04-04T10:38:30.966Z</time></trkpt><trkpt lat="44.7035054" lon="9.3946684"><ele>533.0</ele><time>2026-04-04T10:38:32.022Z</time></trkpt><trkpt lat="44.7033307" lon="9.3947248"><ele>532.6666666666666</ele><time>2026-04-04T10:38:32.997Z</time></trkpt><trkpt lat="44.7031766" lon="9.3948106"><ele>532.3333333333334</ele><time>2026-04-04T10:38:33.976Z</time></trkpt><trkpt lat="44.7030306" lon="9.3949424"><ele>532.0</ele><time>2026-04-04T10:38:34.986Z</time></trkpt><trkpt lat="44.7028726" lon="9.3950906"><ele>540.0</ele><time>2026-04-04T10:38:35.962Z</time></trkpt><trkpt lat="44.7026937" lon="9.3952005"><ele>548.0</ele><time>2026-04-04T10:38:36.957Z</time></trkpt><trkpt lat="44.7025038" lon="9.3953028"><ele>556.0</ele><time>2026-04-04T10:38:37.986Z</time></trkpt><trkpt lat="44.7023063" lon="9.3954005"><ele>556.0</ele><time>2026-04-04T10:38:39.019Z</time></trkpt><trkpt lat="44.7021082" lon="9.3954913"><ele>556.0</ele><time>2026-04-04T10:38:40.006Z</time></trkpt><trkpt lat="44.7019244" lon="9.3955857"><ele>556.0</ele><time>2026-04-04T10:38:41.018Z</time></trkpt><trkpt lat="44.7017521" lon="9.3956984"><ele>555.0</ele><time>2026-04-04T10:38:42.027Z</time></trkpt><trkpt lat="44.7016082" lon="9.3959027"><ele>554.0</ele><time>2026-04-04T10:38:43.024Z</time></trkpt><trkpt lat="44.7014848" lon="9.3961244"><ele>553.0</ele><time>2026-04-04T10:38:44.026Z</time></trkpt><trkpt lat="44.7013693" lon="9.3963207"><ele>555.3333333333334</ele><time>2026-04-04T10:38:44.962Z</time></trkpt><trkpt lat="44.701228" lon="9.3964709"><ele>557.6666666666666</ele><time>2026-04-04T10:38:46.015Z</time></trkpt><trkpt lat="44.7010541" lon="9.3966142"><ele>560.0</ele><time>2026-04-04T10:38:47.008Z</time></trkpt><trkpt lat="44.7008813" lon="9.3967384"><ele>560.0</ele><time>2026-04-04T10:38:48.043Z</time></trkpt><trkpt lat="44.7007176" lon="9.3968423"><ele>560.0</ele><time>2026-04-04T10:38:49.018Z</time></trkpt><trkpt lat="44.7006084" lon="9.3969378"><ele>560.0</ele><time>2026-04-04T10:38:50.039Z</time></trkpt><trkpt lat="44.7005193" lon="9.3969894"><ele>560.0</ele><time>2026-04-04T10:38:51.026Z</time></trkpt><trkpt lat="44.7004216" lon="9.3969822"><ele>560.0</ele><time>2026-04-04T10:38:52Z</time></trkpt><trkpt lat="44.7003539" lon="9.3968888"><ele>560.0</ele><time>2026-04-04T10:38:53.017Z</time></trkpt><trkpt lat="44.7003111" lon="9.3967588"><ele>560.0</ele><time>2026-04-04T10:38:53.998Z</time></trkpt><trkpt lat="44.7003274" lon="9.3966085"><ele>560.0</ele><time>2026-04-04T10:38:55.026Z</time></trkpt><trkpt lat="44.7003972" lon="9.3964681"><ele>560.0</ele><time>2026-04-04T10:38:56.03Z</time></trkpt><trkpt lat="44.7005401" lon="9.3963958"><ele>567.0</ele><time>2026-04-04T10:38:57.007Z</time></trkpt><trkpt lat="44.7007116" lon="9.3963228"><ele>574.0</ele><time>2026-04-04T10:38:58.025Z</time></trkpt><trkpt lat="44.700857" lon="9.3962404"><ele>581.0</ele><time>2026-04-04T10:38:59.025Z</time></trkpt><trkpt lat="44.7009925" lon="9.3961337"><ele>571.6666666666666</ele><time>2026-04-04T10:39:00.014Z</time></trkpt><trkpt lat="44.7011411" lon="9.3959652"><ele>562.3333333333334</ele><time>2026-04-04T10:39:01.009Z</time></trkpt><trkpt lat="44.7012568" lon="9.3957446"><ele>553.0</ele><time>2026-04-04T10:39:02.035Z</time></trkpt><trkpt lat="44.701368" lon="9.3955175"><ele>560.6666666666667</ele><time>2026-04-04T10:39:03.017Z</time></trkpt><trkpt lat="44.7014846" lon="9.3953176"><ele>568.3333333333334</ele><time>2026-04-04T10:39:04.026Z</time></trkpt><trkpt lat="44.7015935" lon="9.3951338"><ele>576.0</ele><time>2026-04-04T10:39:05.015Z</time></trkpt><trkpt lat="44.7017234" lon="9.394968"><ele>576.0</ele><time>2026-04-04T10:39:06.023Z</time></trkpt><trkpt lat="44.7018666" lon="9.3948288"><ele>576.0</ele><time>2026-04-04T10:39:07.054Z</time></trkpt><trkpt lat="44.7020339" lon="9.3947083"><ele>576.0</ele><time>2026-04-04T10:39:08.03Z</time></trkpt><trkpt lat="44.702209" lon="9.3946021"><ele>576.0</ele><time>2026-04-04T10:39:09.041Z</time></trkpt><trkpt lat="44.7023398" lon="9.3944756"><ele>576.0</ele><time>2026-04-04T10:39:10.034Z</time></trkpt><trkpt lat="44.7024125" lon="9.3943693"><ele>576.0</ele><time>2026-04-04T10:39:11.025Z</time></trkpt><trkpt lat="44.7024719" lon="9.3942443"><ele>576.0</ele><time>2026-04-04T10:39:12.058Z</time></trkpt><trkpt lat="44.7024848" lon="9.3941211"><ele>576.0</ele><time>2026-04-04T10:39:13.05Z</time></trkpt><trkpt lat="44.7024391" lon="9.3940311"><ele>576.0</ele><time>2026-04-04T10:39:14.076Z</time></trkpt><trkpt lat="44.7023515" lon="9.3939685"><ele>576.0</ele><time>2026-04-04T10:39:15.038Z</time></trkpt><trkpt lat="44.7022405" lon="9.393943"><ele>576.0</ele><time>2026-04-04T10:39:16.022Z</time></trkpt><trkpt lat="44.7020881" lon="9.393989"><ele>576.0</ele><time>2026-04-04T10:39:17.043Z</time></trkpt><trkpt lat="44.701918" lon="9.3941025"><ele>578.3333333333334</ele><time>2026-04-04T10:39:18.016Z</time></trkpt><trkpt lat="44.7017343" lon="9.3942823"><ele>580.6666666666667</ele><time>2026-04-04T10:39:19.025Z</time></trkpt><trkpt lat="44.7015536" lon="9.3944437"><ele>583.0</ele><time>2026-04-04T10:39:20.015Z</time></trkpt><trkpt lat="44.7013867" lon="9.3945276"><ele>583.0</ele><time>2026-04-04T10:39:21.023Z</time></trkpt><trkpt lat="44.7012159" lon="9.3945763"><ele>583.0</ele><time>2026-04-04T10:39:21.998Z</time></trkpt><trkpt lat="44.7010183" lon="9.3946488"><ele>583.0</ele><time>2026-04-04T10:39:23.02Z</time></trkpt><trkpt lat="44.700825" lon="9.3947358"><ele>587.3333333333334</ele><time>2026-04-04T10:39:24.002Z</time></trkpt><trkpt lat="44.7006387" lon="9.3948264"><ele>591.6666666666666</ele><time>2026-04-04T10:39:25.028Z</time></trkpt><trkpt lat="44.7004719" lon="9.3949077"><ele>596.0</ele><time>2026-04-04T10:39:26.033Z</time></trkpt><trkpt lat="44.7003284" lon="9.3949499"><ele>597.5</ele><time>2026-04-04T10:39:27.003Z</time></trkpt><trkpt lat="44.700203" lon="9.394936"><ele>599.0</ele><time>2026-04-04T10:39:28.039Z</time></trkpt><trkpt lat="44.7000739" lon="9.394836"><ele>600.5</ele><time>2026-04-04T10:39:29.03Z</time></trkpt><trkpt lat="44.6999577" lon="9.3946546"><ele>602.0</ele><time>2026-04-04T10:39:30.016Z</time></trkpt><trkpt lat="44.6998403" lon="9.394408"><ele>602.0</ele><time>2026-04-04T10:39:31.011Z</time></trkpt><trkpt lat="44.6997233" lon="9.3941507"><ele>602.0</ele><time>2026-04-04T10:39:32.029Z</time></trkpt><trkpt lat="44.699613" lon="9.393916"><ele>602.0</ele><time>2026-04-04T10:39:33.047Z</time></trkpt><trkpt lat="44.6995133" lon="9.3936928"><ele>599.75</ele><time>2026-04-04T10:39:34.019Z</time></trkpt><trkpt lat="44.6994206" lon="9.3935258"><ele>597.5</ele><time>2026-04-04T10:39:35.027Z</time></trkpt><trkpt lat="44.6993185" lon="9.3934058"><ele>595.25</ele><time>2026-04-04T10:39:36.003Z</time></trkpt><trkpt lat="44.6992144" lon="9.3932871"><ele>593.0</ele><time>2026-04-04T10:39:37.03Z</time></trkpt><trkpt lat="44.6991399" lon="9.3931548"><ele>601.0</ele><time>2026-04-04T10:39:38.038Z</time></trkpt><trkpt lat="44.6991052" lon="9.3930065"><ele>609.0</ele><time>2026-04-04T10:39:39.025Z</time></trkpt><trkpt lat="44.6991065" lon="9.3928726"><ele>617.0</ele><time>2026-04-04T10:39:40.049Z</time></trkpt><trkpt lat="44.699153" lon="9.3926982"><ele>625.0</ele><time>2026-04-04T10:39:41.006Z</time></trkpt><trkpt lat="44.6992289" lon="9.3925267"><ele>625.0</ele><time>2026-04-04T10:39:42.018Z</time></trkpt><trkpt lat="44.6993058" lon="9.3923663"><ele>625.0</ele><time>2026-04-04T10:39:43.043Z</time></trkpt><trkpt lat="44.6993727" lon="9.3922158"><ele>625.0</ele><time>2026-04-04T10:39:44.037Z</time></trkpt><trkpt lat="44.699426" lon="9.3920764"><ele>625.0</ele><time>2026-04-04T10:39:45.036Z</time></trkpt><trkpt lat="44.6994376" lon="9.3919222"><ele>622.75</ele><time>2026-04-04T10:39:46.034Z</time></trkpt><trkpt lat="44.6994095" lon="9.3917679"><ele>620.5</ele><time>2026-04-04T10:39:47.028Z</time></trkpt><trkpt lat="44.6993474" lon="9.3916477"><ele>618.25</ele><time>2026-04-04T10:39:48.036Z</time></trkpt><trkpt lat="44.6992431" lon="9.3915925"><ele>616.0</ele><time>2026-04-04T10:39:49.027Z</time></trkpt><trkpt lat="44.6991092" lon="9.3916102"><ele>616.0</ele><time>2026-04-04T10:39:50.028Z</time></trkpt><trkpt lat="44.699013" lon="9.3916857"><ele>616.0</ele><time>2026-04-04T10:39:51.039Z</time></trkpt><trkpt lat="44.698927" lon="9.3918146"><ele>616.0</ele><time>2026-04-04T10:39:52.061Z</time></trkpt><trkpt lat="44.6988782" lon="9.3919989"><ele>616.0</ele><time>2026-04-04T10:39:53.026Z</time></trkpt><trkpt lat="44.698828" lon="9.3922176"><ele>619.0</ele><time>2026-04-04T10:39:54.023Z</time></trkpt><trkpt lat="44.6987525" lon="9.3924392"><ele>622.0</ele><time>2026-04-04T10:39:55.064Z</time></trkpt><trkpt lat="44.6986601" lon="9.3925879"><ele>625.0</ele><time>2026-04-04T10:39:56.022Z</time></trkpt><trkpt lat="44.6985037" lon="9.392646"><ele>629.6666666666667</ele><time>2026-04-04T10:39:57.016Z</time></trkpt><trkpt lat="44.6983244" lon="9.3926905"><ele>634.3333333333334</ele><time>2026-04-04T10:39:58.027Z</time></trkpt><trkpt lat="44.6981443" lon="9.3927123"><ele>639.0</ele><time>2026-04-04T10:39:59.038Z</time></trkpt><trkpt lat="44.6979875" lon="9.3926977"><ele>639.0</ele><time>2026-04-04T10:40:00.023Z</time></trkpt><trkpt lat="44.6978515" lon="9.3926967"><ele>639.0</ele><time>2026-04-04T10:40:01.02Z</time></trkpt><trkpt lat="44.6976968" lon="9.3927391"><ele>639.0</ele><time>2026-04-04T10:40:02.044Z</time></trkpt><trkpt lat="44.6975423" lon="9.3927948"><ele>640.25</ele><time>2026-04-04T10:40:03.048Z</time></trkpt><trkpt lat="44.6974118" lon="9.3928267"><ele>641.5</ele><time>2026-04-04T10:40:04.048Z</time></trkpt><trkpt lat="44.6972941" lon="9.3928117"><ele>642.75</ele><time>2026-04-04T10:40:05.029Z</time></trkpt><trkpt lat="44.6971628" lon="9.3927403"><ele>644.0</ele><time>2026-04-04T10:40:06.031Z</time></trkpt><trkpt lat="44.6970211" lon="9.3926666"><ele>646.3333333333333</ele><time>2026-04-04T10:40:07.058Z</time></trkpt><trkpt lat="44.6968646" lon="9.39262"><ele>648.6666666666666</ele><time>2026-04-04T10:40:08.05Z</time></trkpt><trkpt lat="44.6967083" lon="9.3926083"><ele>651.0</ele><time>2026-04-04T10:40:09.042Z</time></trkpt><trkpt lat="44.696562" lon="9.3926065"><ele>651.0</ele><time>2026-04-04T10:40:10.044Z</time></trkpt><trkpt lat="44.6964535" lon="9.3925352"><ele>651.0</ele><time>2026-04-04T10:40:11.04Z</time></trkpt><trkpt lat="44.6963829" lon="9.3923873"><ele>651.0</ele><time>2026-04-04T10:40:12.038Z</time></trkpt><trkpt lat="44.696337" lon="9.3921958"><ele>651.0</ele><time>2026-04-04T10:40:13.015Z</time></trkpt><trkpt lat="44.6962905" lon="9.3919645"><ele>650.25</ele><time>2026-04-04T10:40:14.054Z</time></trkpt><trkpt lat="44.6962398" lon="9.3917255"><ele>649.5</ele><time>2026-04-04T10:40:15.04Z</time></trkpt><trkpt lat="44.6961965" lon="9.391532"><ele>648.75</ele><time>2026-04-04T10:40:16.027Z</time></trkpt><trkpt lat="44.6961618" lon="9.3913602"><ele>648.0</ele><time>2026-04-04T10:40:17.031Z</time></trkpt><trkpt lat="44.696162" lon="9.3911991"><ele>647.25</ele><time>2026-04-04T10:40:18.041Z</time></trkpt><trkpt lat="44.6961978" lon="9.3910483"><ele>646.5</ele><time>2026-04-04T10:40:19.044Z</time></trkpt><trkpt lat="44.6962618" lon="9.3908921"><ele>645.75</ele><time>2026-04-04T10:40:20.022Z</time></trkpt><trkpt lat="44.6963261" lon="9.3907678"><ele>645.0</ele><time>2026-04-04T10:40:21.043Z</time></trkpt><trkpt lat="44.6963845" lon="9.3906413"><ele>645.0</ele><time>2026-04-04T10:40:22.041Z</time></trkpt><trkpt lat="44.6964164" lon="9.3905088"><ele>645.0</ele><time>2026-04-04T10:40:22.986Z</time></trkpt><trkpt lat="44.6963939" lon="9.3903835"><ele>645.0</ele><time>2026-04-04T10:40:24.025Z</time></trkpt><trkpt lat="44.6963435" lon="9.390282"><ele>645.0</ele><time>2026-04-04T10:40:25.045Z</time></trkpt><trkpt lat="44.6962661" lon="9.3902119"><ele>645.0</ele><time>2026-04-04T10:40:26.052Z</time></trkpt><trkpt lat="44.6961829" lon="9.3901703"><ele>645.4</ele><time>2026-04-04T10:40:27.053Z</time></trkpt><trkpt lat="44.6960976" lon="9.3901671"><ele>645.8</ele><time>2026-04-04T10:40:28.016Z</time></trkpt><trkpt lat="44.6960071" lon="9.3902289"><ele>646.2</ele><time>2026-04-04T10:40:28.999Z</time></trkpt><trkpt lat="44.6959211" lon="9.3903408"><ele>646.6</ele><time>2026-04-04T10:40:30.014Z</time></trkpt><trkpt lat="44.695831" lon="9.3904702"><ele>647.0</ele><time>2026-04-04T10:40:30.993Z</time></trkpt><trkpt lat="44.69574" lon="9.390592"><ele>652.0</ele><time>2026-04-04T10:40:32.046Z</time></trkpt><trkpt lat="44.6956422" lon="9.3907311"><ele>657.0</ele><time>2026-04-04T10:40:32.996Z</time></trkpt><trkpt lat="44.6955408" lon="9.3908706"><ele>662.0</ele><time>2026-04-04T10:40:34.004Z</time></trkpt><trkpt lat="44.6954428" lon="9.3909986"><ele>667.0</ele><time>2026-04-04T10:40:35.032Z</time></trkpt><trkpt lat="44.6953468" lon="9.3911193"><ele>667.0</ele><time>2026-04-04T10:40:36.027Z</time></trkpt><trkpt lat="44.6952545" lon="9.3912488"><ele>667.0</ele><time>2026-04-04T10:40:37.034Z</time></trkpt><trkpt lat="44.695153" lon="9.3913857"><ele>667.0</ele><time>2026-04-04T10:40:38.031Z</time></trkpt><trkpt lat="44.6950492" lon="9.3915196"><ele>667.0</ele><time>2026-04-04T10:40:38.984Z</time></trkpt><trkpt lat="44.694961" lon="9.391678"><ele>669.6666666666667</ele><time>2026-04-04T10:40:40.028Z</time></trkpt><trkpt lat="44.6948886" lon="9.3918652"><ele>672.3333333333334</ele><time>2026-04-04T10:40:41.026Z</time></trkpt><trkpt lat="44.6948328" lon="9.3920719"><ele>675.0</ele><time>2026-04-04T10:40:42.042Z</time></trkpt><trkpt lat="44.6947747" lon="9.3922836"><ele>677.0</ele><time>2026-04-04T10:40:43.025Z</time></trkpt><trkpt lat="44.6947074" lon="9.3924747"><ele>679.0</ele><time>2026-04-04T10:40:44.05Z</time></trkpt><trkpt lat="44.6946105" lon="9.3926347"><ele>681.0</ele><time>2026-04-04T10:40:45.062Z</time></trkpt><trkpt lat="44.6944736" lon="9.3927473"><ele>680.75</ele><time>2026-04-04T10:40:46.047Z</time></trkpt><trkpt lat="44.6943176" lon="9.3928208"><ele>680.5</ele><time>2026-04-04T10:40:47.05Z</time></trkpt><trkpt lat="44.6941645" lon="9.392831"><ele>680.25</ele><time>2026-04-04T10:40:48.041Z</time></trkpt><trkpt lat="44.694037" lon="9.3928017"><ele>680.0</ele><time>2026-04-04T10:40:49.046Z</time></trkpt><trkpt lat="44.6939142" lon="9.3927285"><ele>680.0</ele><time>2026-04-04T10:40:50.039Z</time></trkpt><trkpt lat="44.6937952" lon="9.3926566"><ele>680.0</ele><time>2026-04-04T10:40:51.049Z</time></trkpt><trkpt lat="44.6937043" lon="9.3926112"><ele>680.0</ele><time>2026-04-04T10:40:52.048Z</time></trkpt><trkpt lat="44.6936104" lon="9.3926227"><ele>680.0</ele><time>2026-04-04T10:40:53.039Z</time></trkpt><trkpt lat="44.6935043" lon="9.3926925"><ele>680.0</ele><time>2026-04-04T10:40:54.031Z</time></trkpt><trkpt lat="44.6933707" lon="9.3927728"><ele>681.0</ele><time>2026-04-04T10:40:55.048Z</time></trkpt><trkpt lat="44.6932295" lon="9.3928118"><ele>682.0</ele><time>2026-04-04T10:40:56.029Z</time></trkpt><trkpt lat="44.6931072" lon="9.3927982"><ele>683.0</ele><time>2026-04-04T10:40:56.991Z</time></trkpt><trkpt lat="44.692999" lon="9.3927439"><ele>684.0</ele><time>2026-04-04T10:40:58.019Z</time></trkpt><trkpt lat="44.6929117" lon="9.3926649"><ele>684.0</ele><time>2026-04-04T10:40:59.013Z</time></trkpt><trkpt lat="44.6928163" lon="9.3926107"><ele>684.0</ele><time>2026-04-04T10:41:00.045Z</time></trkpt><trkpt lat="44.6927158" lon="9.3925835"><ele>684.0</ele><time>2026-04-04T10:41:01.044Z</time></trkpt><trkpt lat="44.6926106" lon="9.3926184"><ele>684.0</ele><time>2026-04-04T10:41:02.042Z</time></trkpt><trkpt lat="44.6924953" lon="9.3926569"><ele>684.0</ele><time>2026-04-04T10:41:03.011Z</time></trkpt><trkpt lat="44.6923787" lon="9.3926962"><ele>685.75</ele><time>2026-04-04T10:41:04.039Z</time></trkpt><trkpt lat="44.6922492" lon="9.3927373"><ele>687.5</ele><time>2026-04-04T10:41:05.043Z</time></trkpt><trkpt lat="44.6921158" lon="9.3927591"><ele>689.25</ele><time>2026-04-04T10:41:06.041Z</time></trkpt><trkpt lat="44.6919784" lon="9.392749"><ele>691.0</ele><time>2026-04-04T10:41:07.036Z</time></trkpt><trkpt lat="44.6918401" lon="9.3926994"><ele>693.0</ele><time>2026-04-04T10:41:08.041Z</time></trkpt><trkpt lat="44.6916941" lon="9.3926189"><ele>695.0</ele><time>2026-04-04T10:41:09.036Z</time></trkpt><trkpt lat="44.6915587" lon="9.3925158"><ele>697.0</ele><time>2026-04-04T10:41:10.056Z</time></trkpt><trkpt lat="44.6914492" lon="9.3924289"><ele>699.0</ele><time>2026-04-04T10:41:11.042Z</time></trkpt><trkpt lat="44.6913403" lon="9.3923233"><ele>701.6666666666666</ele><time>2026-04-04T10:41:12.027Z</time></trkpt><trkpt lat="44.691216" lon="9.3921672"><ele>704.3333333333333</ele><time>2026-04-04T10:41:13.037Z</time></trkpt><trkpt lat="44.691086" lon="9.3919998"><ele>707.0</ele><time>2026-04-04T10:41:14.028Z</time></trkpt><trkpt lat="44.6909499" lon="9.3918222"><ele>707.0</ele><time>2026-04-04T10:41:15.036Z</time></trkpt><trkpt lat="44.6908191" lon="9.3916594"><ele>707.0</ele><time>2026-04-04T10:41:16.005Z</time></trkpt><trkpt lat="44.6907017" lon="9.3915237"><ele>707.0</ele><time>2026-04-04T10:41:17.036Z</time></trkpt><trkpt lat="44.6905627" lon="9.3914167"><ele>707.0</ele><time>2026-04-04T10:41:18.029Z</time></trkpt><trkpt lat="44.6904171" lon="9.3913607"><ele>707.0</ele><time>2026-04-04T10:41:19.001Z</time></trkpt><trkpt lat="44.6902553" lon="9.3913305"><ele>707.0</ele><time>2026-04-04T10:41:20.027Z</time></trkpt><trkpt lat="44.6901194" lon="9.391276"><ele>708.75</ele><time>2026-04-04T10:41:21.033Z</time></trkpt><trkpt lat="44.6900058" lon="9.3911766"><ele>710.5</ele><time>2026-04-04T10:41:22.049Z</time></trkpt><trkpt lat="44.6899248" lon="9.3910124"><ele>712.25</ele><time>2026-04-04T10:41:23.021Z</time></trkpt><trkpt lat="44.6898924" lon="9.3908246"><ele>714.0</ele><time>2026-04-04T10:41:24.033Z</time></trkpt><trkpt lat="44.6898839" lon="9.3905893"><ele>713.3333333333334</ele><time>2026-04-04T10:41:25.031Z</time></trkpt><trkpt lat="44.6898997" lon="9.3903548"><ele>712.6666666666667</ele><time>2026-04-04T10:41:26.04Z</time></trkpt><trkpt lat="44.6898921" lon="9.3901225"><ele>712.0</ele><time>2026-04-04T10:41:26.965Z</time></trkpt><trkpt lat="44.6898718" lon="9.3899131"><ele>709.6666666666667</ele><time>2026-04-04T10:41:28.032Z</time></trkpt><trkpt lat="44.6898187" lon="9.3896651"><ele>707.3333333333334</ele><time>2026-04-04T10:41:29.008Z</time></trkpt><trkpt lat="44.6897368" lon="9.3894223"><ele>705.0</ele><time>2026-04-04T10:41:30.046Z</time></trkpt><trkpt lat="44.6896628" lon="9.3892355"><ele>705.0</ele><time>2026-04-04T10:41:31.033Z</time></trkpt><trkpt lat="44.6895942" lon="9.3890737"><ele>705.0</ele><time>2026-04-04T10:41:32.016Z</time></trkpt><trkpt lat="44.6895109" lon="9.3889464"><ele>705.0</ele><time>2026-04-04T10:41:33.03Z</time></trkpt><trkpt lat="44.6893983" lon="9.3888608"><ele>705.0</ele><time>2026-04-04T10:41:34.031Z</time></trkpt><trkpt lat="44.6892667" lon="9.3888058"><ele>707.3333333333334</ele><time>2026-04-04T10:41:35.054Z</time></trkpt><trkpt lat="44.6891148" lon="9.388774"><ele>709.6666666666667</ele><time>2026-04-04T10:41:36.05Z</time></trkpt><trkpt lat="44.688934" lon="9.3887623"><ele>712.0</ele><time>2026-04-04T10:41:37.036Z</time></trkpt><trkpt lat="44.6887284" lon="9.3887826"><ele>723.0</ele><time>2026-04-04T10:41:38.025Z</time></trkpt><trkpt lat="44.6884884" lon="9.3888793"><ele>734.0</ele><time>2026-04-04T10:41:39.036Z</time></trkpt><trkpt lat="44.6882501" lon="9.3889841"><ele>734.0</ele><time>2026-04-04T10:41:40.011Z</time></trkpt><trkpt lat="44.6880086" lon="9.3890832"><ele>734.0</ele><time>2026-04-04T10:41:41.034Z</time></trkpt><trkpt lat="44.6877892" lon="9.3891662"><ele>733.0</ele><time>2026-04-04T10:41:42.04Z</time></trkpt><trkpt lat="44.6875878" lon="9.3892607"><ele>732.0</ele><time>2026-04-04T10:41:43.048Z</time></trkpt><trkpt lat="44.6874034" lon="9.3893372"><ele>731.0</ele><time>2026-04-04T10:41:44.041Z</time></trkpt><trkpt lat="44.6872399" lon="9.3894078"><ele>731.0</ele><time>2026-04-04T10:41:45.035Z</time></trkpt><trkpt lat="44.6870896" lon="9.3894006"><ele>731.0</ele><time>2026-04-04T10:41:46.037Z</time></trkpt><trkpt lat="44.686958" lon="9.3893042"><ele>731.0</ele><time>2026-04-04T10:41:47.037Z</time></trkpt><trkpt lat="44.6868119" lon="9.3891537"><ele>730.3333333333333</ele><time>2026-04-04T10:41:48.021Z</time></trkpt><trkpt lat="44.6866559" lon="9.3889614"><ele>729.6666666666666</ele><time>2026-04-04T10:41:49.037Z</time></trkpt><trkpt lat="44.6864909" lon="9.3887772"><ele>729.0</ele><time>2026-04-04T10:41:50.029Z</time></trkpt><trkpt lat="44.6863302" lon="9.3885914"><ele>729.0</ele><time>2026-04-04T10:41:51.016Z</time></trkpt><trkpt lat="44.6861785" lon="9.3884159"><ele>729.0</ele><time>2026-04-04T10:41:52.023Z</time></trkpt><trkpt lat="44.6860438" lon="9.3882751"><ele>729.0</ele><time>2026-04-04T10:41:53.038Z</time></trkpt><trkpt lat="44.6858894" lon="9.3881457"><ele>736.6666666666666</ele><time>2026-04-04T10:41:54.041Z</time></trkpt><trkpt lat="44.6857036" lon="9.3880752"><ele>744.3333333333333</ele><time>2026-04-04T10:41:55.043Z</time></trkpt><trkpt lat="44.6855089" lon="9.3880549"><ele>752.0</ele><time>2026-04-04T10:41:56.034Z</time></trkpt><trkpt lat="44.6853117" lon="9.3880605"><ele>753.0</ele><time>2026-04-04T10:41:57.042Z</time></trkpt><trkpt lat="44.6851415" lon="9.3880687"><ele>754.0</ele><time>2026-04-04T10:41:58.036Z</time></trkpt><trkpt lat="44.684999" lon="9.3881045"><ele>755.0</ele><time>2026-04-04T10:41:59.038Z</time></trkpt><trkpt lat="44.6848657" lon="9.3882028"><ele>755.0</ele><time>2026-04-04T10:42:00.011Z</time></trkpt><trkpt lat="44.6847127" lon="9.3883557"><ele>755.0</ele><time>2026-04-04T10:42:01.029Z</time></trkpt><trkpt lat="44.6845564" lon="9.3885244"><ele>755.0</ele><time>2026-04-04T10:42:02.039Z</time></trkpt><trkpt lat="44.6843986" lon="9.388641"><ele>752.6666666666666</ele><time>2026-04-04T10:42:03.044Z</time></trkpt><trkpt lat="44.6842346" lon="9.3886946"><ele>750.3333333333334</ele><time>2026-04-04T10:42:04.029Z</time></trkpt><trkpt lat="44.6840623" lon="9.3886805"><ele>748.0</ele><time>2026-04-04T10:42:05.018Z</time></trkpt><trkpt lat="44.6839057" lon="9.3886534"><ele>748.0</ele><time>2026-04-04T10:42:06.03Z</time></trkpt><trkpt lat="44.683773" lon="9.3886447"><ele>748.0</ele><time>2026-04-04T10:42:07.034Z</time></trkpt><trkpt lat="44.6836584" lon="9.3886941"><ele>748.0</ele><time>2026-04-04T10:42:08.046Z</time></trkpt><trkpt lat="44.6835326" lon="9.388804"><ele>748.0</ele><time>2026-04-04T10:42:09.043Z</time></trkpt><trkpt lat="44.6834449" lon="9.3889267"><ele>751.3333333333334</ele><time>2026-04-04T10:42:10.019Z</time></trkpt><trkpt lat="44.6833661" lon="9.3890677"><ele>754.6666666666666</ele><time>2026-04-04T10:42:11.045Z</time></trkpt><trkpt lat="44.683337" lon="9.3892783"><ele>758.0</ele><time>2026-04-04T10:42:12.021Z</time></trkpt><trkpt lat="44.683351" lon="9.3895382"><ele>761.0</ele><time>2026-04-04T10:42:13.019Z</time></trkpt><trkpt lat="44.6833771" lon="9.3898408"><ele>764.0</ele><time>2026-04-04T10:42:14.043Z</time></trkpt><trkpt lat="44.6833943" lon="9.3901268"><ele>767.0</ele><time>2026-04-04T10:42:15.058Z</time></trkpt><trkpt lat="44.683386" lon="9.3903624"><ele>769.6666666666666</ele><time>2026-04-04T10:42:16.03Z</time></trkpt><trkpt lat="44.6833677" lon="9.3905817"><ele>772.3333333333333</ele><time>2026-04-04T10:42:17.04Z</time></trkpt><trkpt lat="44.6833118" lon="9.3908023"><ele>775.0</ele><time>2026-04-04T10:42:18.027Z</time></trkpt><trkpt lat="44.6832112" lon="9.3910276"><ele>775.0</ele><time>2026-04-04T10:42:19.024Z</time></trkpt><trkpt lat="44.683067" lon="9.3912251"><ele>775.0</ele><time>2026-04-04T10:42:20.02Z</time></trkpt><trkpt lat="44.6828903" lon="9.3914358"><ele>775.0</ele><time>2026-04-04T10:42:21.041Z</time></trkpt><trkpt lat="44.6827049" lon="9.391651"><ele>774.0</ele><time>2026-04-04T10:42:22.042Z</time></trkpt><trkpt lat="44.682525" lon="9.3918614"><ele>773.0</ele><time>2026-04-04T10:42:23.059Z</time></trkpt><trkpt lat="44.6823757" lon="9.3920654"><ele>772.0</ele><time>2026-04-04T10:42:24.03Z</time></trkpt><trkpt lat="44.6822262" lon="9.3922586"><ele>771.0</ele><time>2026-04-04T10:42:25.037Z</time></trkpt><trkpt lat="44.6820763" lon="9.3924519"><ele>770.0</ele><time>2026-04-04T10:42:26.063Z</time></trkpt><trkpt lat="44.6819233" lon="9.3926382"><ele>769.0</ele><time>2026-04-04T10:42:27.033Z</time></trkpt><trkpt lat="44.6817682" lon="9.3928108"><ele>769.0</ele><time>2026-04-04T10:42:28.042Z</time></trkpt><trkpt lat="44.681603" lon="9.3929413"><ele>769.0</ele><time>2026-04-04T10:42:28.997Z</time></trkpt><trkpt lat="44.6814396" lon="9.3930557"><ele>769.0</ele><time>2026-04-04T10:42:30.034Z</time></trkpt><trkpt lat="44.6812865" lon="9.3931534"><ele>770.0</ele><time>2026-04-04T10:42:31.027Z</time></trkpt><trkpt lat="44.6811425" lon="9.3932655"><ele>771.0</ele><time>2026-04-04T10:42:32.041Z</time></trkpt><trkpt lat="44.6810292" lon="9.3934172"><ele>772.0</ele><time>2026-04-04T10:42:33.036Z</time></trkpt><trkpt lat="44.6809625" lon="9.393626"><ele>777.3333333333333</ele><time>2026-04-04T10:42:34.039Z</time></trkpt><trkpt lat="44.6809211" lon="9.3938602"><ele>782.6666666666667</ele><time>2026-04-04T10:42:35.013Z</time></trkpt><trkpt lat="44.6808907" lon="9.3941261"><ele>788.0</ele><time>2026-04-04T10:42:36.034Z</time></trkpt><trkpt lat="44.680832" lon="9.394378"><ele>788.0</ele><time>2026-04-04T10:42:37.039Z</time></trkpt><trkpt lat="44.680716" lon="9.3946028"><ele>788.0</ele><time>2026-04-04T10:42:38.046Z</time></trkpt><trkpt lat="44.6805714" lon="9.3948138"><ele>788.0</ele><time>2026-04-04T10:42:39.049Z</time></trkpt><trkpt lat="44.6804382" lon="9.3950189"><ele>786.3333333333334</ele><time>2026-04-04T10:42:40.008Z</time></trkpt><trkpt lat="44.6803319" lon="9.3952649"><ele>784.6666666666667</ele><time>2026-04-04T10:42:41.042Z</time></trkpt><trkpt lat="44.6802551" lon="9.3955531"><ele>783.0</ele><time>2026-04-04T10:42:42.045Z</time></trkpt><trkpt lat="44.6801843" lon="9.3958327"><ele>783.0</ele><time>2026-04-04T10:42:43.004Z</time></trkpt><trkpt lat="44.6801283" lon="9.3961136"><ele>783.0</ele><time>2026-04-04T10:42:44.024Z</time></trkpt><trkpt lat="44.6800841" lon="9.3964027"><ele>783.0</ele><time>2026-04-04T10:42:45.032Z</time></trkpt><trkpt lat="44.6800598" lon="9.3967293"><ele>786.0</ele><time>2026-04-04T10:42:46.025Z</time></trkpt><trkpt lat="44.6800592" lon="9.3970685"><ele>789.0</ele><time>2026-04-04T10:42:47.047Z</time></trkpt><trkpt lat="44.680081" lon="9.3973784"><ele>790.3333333333333</ele><time>2026-04-04T10:42:48.031Z</time></trkpt><trkpt lat="44.6800881" lon="9.3976734"><ele>791.6666666666666</ele><time>2026-04-04T10:42:49.022Z</time></trkpt><trkpt lat="44.680074" lon="9.3979457"><ele>793.0</ele><time>2026-04-04T10:42:50.035Z</time></trkpt><trkpt lat="44.6800488" lon="9.3981863"><ele>796.6666666666666</ele><time>2026-04-04T10:42:51.027Z</time></trkpt><trkpt lat="44.679971" lon="9.398409"><ele>800.3333333333333</ele><time>2026-04-04T10:42:52.018Z</time></trkpt><trkpt lat="44.6798494" lon="9.3986409"><ele>804.0</ele><time>2026-04-04T10:42:53.038Z</time></trkpt><trkpt lat="44.6797056" lon="9.3988708"><ele>802.6666666666667</ele><time>2026-04-04T10:42:54.031Z</time></trkpt><trkpt lat="44.6795543" lon="9.3990957"><ele>801.3333333333334</ele><time>2026-04-04T10:42:55.035Z</time></trkpt><trkpt lat="44.6794196" lon="9.3992998"><ele>800.0</ele><time>2026-04-04T10:42:56.044Z</time></trkpt><trkpt lat="44.6792992" lon="9.3994856"><ele>800.0</ele><time>2026-04-04T10:42:57.031Z</time></trkpt><trkpt lat="44.6791797" lon="9.3996251"><ele>800.0</ele><time>2026-04-04T10:42:58.025Z</time></trkpt><trkpt lat="44.6790431" lon="9.3997069"><ele>800.0</ele><time>2026-04-04T10:42:59.039Z</time></trkpt><trkpt lat="44.6789086" lon="9.3996855"><ele>800.0</ele><time>2026-04-04T10:43:00.006Z</time></trkpt><trkpt lat="44.6787378" lon="9.3995849"><ele>801.0</ele><time>2026-04-04T10:43:01.032Z</time></trkpt><trkpt lat="44.6785424" lon="9.3994209"><ele>802.0</ele><time>2026-04-04T10:43:02.041Z</time></trkpt><trkpt lat="44.6783587" lon="9.3992742"><ele>803.0</ele><time>2026-04-04T10:43:03.033Z</time></trkpt><trkpt lat="44.6781918" lon="9.3991518"><ele>803.0</ele><time>2026-04-04T10:43:03.989Z</time></trkpt><trkpt lat="44.6780553" lon="9.3990522"><ele>803.0</ele><time>2026-04-04T10:43:05.043Z</time></trkpt><trkpt lat="44.6779492" lon="9.3990134"><ele>803.0</ele><time>2026-04-04T10:43:06.04Z</time></trkpt><trkpt lat="44.6778364" lon="9.3990224"><ele>803.0</ele><time>2026-04-04T10:43:07.039Z</time></trkpt><trkpt lat="44.6777334" lon="9.3991125"><ele>800.0</ele><time>2026-04-04T10:43:08.041Z</time></trkpt><trkpt lat="44.6776551" lon="9.399264"><ele>797.0</ele><time>2026-04-04T10:43:09.049Z</time></trkpt><trkpt lat="44.6775808" lon="9.3994931"><ele>794.0</ele><time>2026-04-04T10:43:10.052Z</time></trkpt><trkpt lat="44.6774855" lon="9.3997706"><ele>800.3333333333334</ele><time>2026-04-04T10:43:11.052Z</time></trkpt><trkpt lat="44.677373" lon="9.4000601"><ele>806.6666666666667</ele><time>2026-04-04T10:43:12.055Z</time></trkpt><trkpt lat="44.677282" lon="9.4003265"><ele>813.0</ele><time>2026-04-04T10:43:13.032Z</time></trkpt><trkpt lat="44.677191" lon="9.4005685"><ele>817.3333333333333</ele><time>2026-04-04T10:43:14.047Z</time></trkpt><trkpt lat="44.6771103" lon="9.4007957"><ele>821.6666666666666</ele><time>2026-04-04T10:43:15.032Z</time></trkpt><trkpt lat="44.6770168" lon="9.4010035"><ele>826.0</ele><time>2026-04-04T10:43:16.058Z</time></trkpt><trkpt lat="44.6768854" lon="9.4011714"><ele>824.3333333333333</ele><time>2026-04-04T10:43:17.039Z</time></trkpt><trkpt lat="44.6767054" lon="9.4012782"><ele>822.6666666666667</ele><time>2026-04-04T10:43:18.046Z</time></trkpt><trkpt lat="44.6764966" lon="9.4013807"><ele>821.0</ele><time>2026-04-04T10:43:19.053Z</time></trkpt><trkpt lat="44.6762657" lon="9.4015034"><ele>814.5</ele><time>2026-04-04T10:43:20.031Z</time></trkpt><trkpt lat="44.6760334" lon="9.4016397"><ele>808.0</ele><time>2026-04-04T10:43:21.06Z</time></trkpt><trkpt lat="44.6758292" lon="9.4017554"><ele>808.0</ele><time>2026-04-04T10:43:22.063Z</time></trkpt><trkpt lat="44.6756682" lon="9.4018418"><ele>808.0</ele><time>2026-04-04T10:43:23.031Z</time></trkpt><trkpt lat="44.6755181" lon="9.4019339"><ele>808.0</ele><time>2026-04-04T10:43:24.016Z</time></trkpt><trkpt lat="44.6754072" lon="9.4020336"><ele>812.0</ele><time>2026-04-04T10:43:25.054Z</time></trkpt><trkpt lat="44.6753314" lon="9.4021726"><ele>816.0</ele><time>2026-04-04T10:43:26.038Z</time></trkpt><trkpt lat="44.6753079" lon="9.4023435"><ele>820.0</ele><time>2026-04-04T10:43:27.017Z</time></trkpt><trkpt lat="44.6753317" lon="9.4025373"><ele>824.0</ele><time>2026-04-04T10:43:28.04Z</time></trkpt><trkpt lat="44.6754123" lon="9.4027229"><ele>824.0</ele><time>2026-04-04T10:43:29.01Z</time></trkpt><trkpt lat="44.6755028" lon="9.40292"><ele>824.0</ele><time>2026-04-04T10:43:30.019Z</time></trkpt><trkpt lat="44.6755706" lon="9.4030939"><ele>824.0</ele><time>2026-04-04T10:43:31.035Z</time></trkpt><trkpt lat="44.6756018" lon="9.4032671"><ele>824.0</ele><time>2026-04-04T10:43:32.024Z</time></trkpt><trkpt lat="44.6755832" lon="9.4034661"><ele>824.6666666666667</ele><time>2026-04-04T10:43:33.038Z</time></trkpt><trkpt lat="44.6754989" lon="9.4036225"><ele>825.3333333333333</ele><time>2026-04-04T10:43:34.024Z</time></trkpt><trkpt lat="44.6753508" lon="9.403732"><ele>826.0</ele><time>2026-04-04T10:43:34.982Z</time></trkpt><trkpt lat="44.6751527" lon="9.4038191"><ele>826.3333333333333</ele><time>2026-04-04T10:43:36.025Z</time></trkpt><trkpt lat="44.6749521" lon="9.4039163"><ele>826.6666666666667</ele><time>2026-04-04T10:43:37.015Z</time></trkpt><trkpt lat="44.6747382" lon="9.4040571"><ele>827.0</ele><time>2026-04-04T10:43:38.045Z</time></trkpt><trkpt lat="44.6745703" lon="9.4042389"><ele>822.0</ele><time>2026-04-04T10:43:39.039Z</time></trkpt><trkpt lat="44.6744106" lon="9.4043598"><ele>817.0</ele><time>2026-04-04T10:43:39.999Z</time></trkpt><trkpt lat="44.6742248" lon="9.4044335"><ele>812.0</ele><time>2026-04-04T10:43:41.034Z</time></trkpt><trkpt lat="44.6740332" lon="9.4044452"><ele>812.0</ele><time>2026-04-04T10:43:42.033Z</time></trkpt><trkpt lat="44.6738248" lon="9.4044239"><ele>812.0</ele><time>2026-04-04T10:43:43.043Z</time></trkpt><trkpt lat="44.6736128" lon="9.4043971"><ele>812.0</ele><time>2026-04-04T10:43:44.028Z</time></trkpt><trkpt lat="44.673438" lon="9.4044273"><ele>810.0</ele><time>2026-04-04T10:43:45.028Z</time></trkpt><trkpt lat="44.6732584" lon="9.4044814"><ele>808.0</ele><time>2026-04-04T10:43:46.038Z</time></trkpt><trkpt lat="44.6730724" lon="9.4045562"><ele>806.0</ele><time>2026-04-04T10:43:47.026Z</time></trkpt><trkpt lat="44.6729017" lon="9.4046402"><ele>810.0</ele><time>2026-04-04T10:43:48.031Z</time></trkpt><trkpt lat="44.6727339" lon="9.4047221"><ele>814.0</ele><time>2026-04-04T10:43:49.045Z</time></trkpt><trkpt lat="44.6725858" lon="9.4047984"><ele>818.0</ele><time>2026-04-04T10:43:50.046Z</time></trkpt><trkpt lat="44.6724696" lon="9.4048718"><ele>818.0</ele><time>2026-04-04T10:43:51.03Z</time></trkpt><trkpt lat="44.6723543" lon="9.4049607"><ele>818.0</ele><time>2026-04-04T10:43:52.041Z</time></trkpt><trkpt lat="44.6722728" lon="9.4050925"><ele>818.0</ele><time>2026-04-04T10:43:53.055Z</time></trkpt><trkpt lat="44.67223" lon="9.405262"><ele>818.0</ele><time>2026-04-04T10:43:54.043Z</time></trkpt><trkpt lat="44.6722281" lon="9.4054427"><ele>817.6666666666667</ele><time>2026-04-04T10:43:55.045Z</time></trkpt><trkpt lat="44.6722862" lon="9.4056097"><ele>817.3333333333333</ele><time>2026-04-04T10:43:56.037Z</time></trkpt><trkpt lat="44.6723722" lon="9.4057818"><ele>817.0</ele><time>2026-04-04T10:43:56.991Z</time></trkpt><trkpt lat="44.6725113" lon="9.4059665"><ele>817.0</ele><time>2026-04-04T10:43:58.033Z</time></trkpt><trkpt lat="44.672679" lon="9.4061936"><ele>817.0</ele><time>2026-04-04T10:43:59.034Z</time></trkpt><trkpt lat="44.6728537" lon="9.4064578"><ele>826.0</ele><time>2026-04-04T10:44:00.07Z</time></trkpt><trkpt lat="44.6730069" lon="9.4067168"><ele>835.0</ele><time>2026-04-04T10:44:01.037Z</time></trkpt><trkpt lat="44.6731166" lon="9.4069714"><ele>831.6666666666666</ele><time>2026-04-04T10:44:02.047Z</time></trkpt><trkpt lat="44.6732242" lon="9.4071976"><ele>828.3333333333333</ele><time>2026-04-04T10:44:03.045Z</time></trkpt><trkpt lat="44.6733373" lon="9.4073906"><ele>825.0</ele><time>2026-04-04T10:44:04.043Z</time></trkpt><trkpt lat="44.6734361" lon="9.4075762"><ele>825.0</ele><time>2026-04-04T10:44:05.031Z</time></trkpt><trkpt lat="44.67351" lon="9.4077803"><ele>825.0</ele><time>2026-04-04T10:44:06.047Z</time></trkpt><trkpt lat="44.6735623" lon="9.4080055"><ele>825.0</ele><time>2026-04-04T10:44:07.049Z</time></trkpt><trkpt lat="44.6736076" lon="9.4082343"><ele>829.6666666666667</ele><time>2026-04-04T10:44:08.034Z</time></trkpt><trkpt lat="44.6736751" lon="9.4084198"><ele>834.3333333333334</ele><time>2026-04-04T10:44:09.064Z</time></trkpt><trkpt lat="44.6737514" lon="9.4085942"><ele>839.0</ele><time>2026-04-04T10:44:10.034Z</time></trkpt><trkpt lat="44.6738673" lon="9.4087602"><ele>835.3333333333334</ele><time>2026-04-04T10:44:10.985Z</time></trkpt><trkpt lat="44.6740293" lon="9.4089031"><ele>831.6666666666667</ele><time>2026-04-04T10:44:12.053Z</time></trkpt><trkpt lat="44.6741546" lon="9.40908"><ele>828.0</ele><time>2026-04-04T10:44:13.019Z</time></trkpt><trkpt lat="44.6742514" lon="9.409329"><ele>828.0</ele><time>2026-04-04T10:44:14.031Z</time></trkpt><trkpt lat="44.674342" lon="9.4096175"><ele>828.0</ele><time>2026-04-04T10:44:15.032Z</time></trkpt><trkpt lat="44.6744325" lon="9.4099084"><ele>832.6666666666667</ele><time>2026-04-04T10:44:16.041Z</time></trkpt><trkpt lat="44.6745205" lon="9.4101693"><ele>837.3333333333334</ele><time>2026-04-04T10:44:17.025Z</time></trkpt><trkpt lat="44.6745934" lon="9.4104144"><ele>842.0</ele><time>2026-04-04T10:44:18.022Z</time></trkpt><trkpt lat="44.6746426" lon="9.4106487"><ele>842.0</ele><time>2026-04-04T10:44:19.031Z</time></trkpt><trkpt lat="44.6746944" lon="9.4108562"><ele>842.0</ele><time>2026-04-04T10:44:20.006Z</time></trkpt><trkpt lat="44.6747536" lon="9.4110467"><ele>842.0</ele><time>2026-04-04T10:44:21.063Z</time></trkpt><trkpt lat="44.6748267" lon="9.4112086"><ele>842.0</ele><time>2026-04-04T10:44:22.018Z</time></trkpt><trkpt lat="44.6749303" lon="9.4113229"><ele>838.0</ele><time>2026-04-04T10:44:23.041Z</time></trkpt><trkpt lat="44.6750818" lon="9.4113817"><ele>834.0</ele><time>2026-04-04T10:44:24.045Z</time></trkpt><trkpt lat="44.6752686" lon="9.4114039"><ele>830.0</ele><time>2026-04-04T10:44:25.028Z</time></trkpt><trkpt lat="44.6754566" lon="9.4114185"><ele>830.0</ele><time>2026-04-04T10:44:26.026Z</time></trkpt><trkpt lat="44.6756544" lon="9.4114295"><ele>830.0</ele><time>2026-04-04T10:44:27.046Z</time></trkpt><trkpt lat="44.6758555" lon="9.4114608"><ele>830.0</ele><time>2026-04-04T10:44:28.043Z</time></trkpt><trkpt lat="44.6760588" lon="9.4115069"><ele>833.6666666666667</ele><time>2026-04-04T10:44:29.05Z</time></trkpt><trkpt lat="44.6762362" lon="9.4115537"><ele>837.3333333333333</ele><time>2026-04-04T10:44:30.044Z</time></trkpt><trkpt lat="44.676395" lon="9.4116131"><ele>841.0</ele><time>2026-04-04T10:44:31.056Z</time></trkpt><trkpt lat="44.6765201" lon="9.4117156"><ele>841.0</ele><time>2026-04-04T10:44:32.041Z</time></trkpt><trkpt lat="44.6766095" lon="9.4118817"><ele>841.0</ele><time>2026-04-04T10:44:33.043Z</time></trkpt><trkpt lat="44.6766832" lon="9.412092"><ele>841.0</ele><time>2026-04-04T10:44:34.048Z</time></trkpt><trkpt lat="44.6767351" lon="9.4122908"><ele>841.75</ele><time>2026-04-04T10:44:35.037Z</time></trkpt><trkpt lat="44.6767771" lon="9.4124795"><ele>842.5</ele><time>2026-04-04T10:44:36.047Z</time></trkpt><trkpt lat="44.6767849" lon="9.4126799"><ele>843.25</ele><time>2026-04-04T10:44:37.043Z</time></trkpt><trkpt lat="44.6767545" lon="9.4128858"><ele>844.0</ele><time>2026-04-04T10:44:38.045Z</time></trkpt><trkpt lat="44.6766926" lon="9.4130988"><ele>844.0</ele><time>2026-04-04T10:44:39.041Z</time></trkpt><trkpt lat="44.6766342" lon="9.413292"><ele>844.0</ele><time>2026-04-04T10:44:40.042Z</time></trkpt><trkpt lat="44.6765872" lon="9.4134778"><ele>844.0</ele><time>2026-04-04T10:44:41.036Z</time></trkpt><trkpt lat="44.6765698" lon="9.413644"><ele>844.0</ele><time>2026-04-04T10:44:42.065Z</time></trkpt><trkpt lat="44.6765579" lon="9.4137917"><ele>842.4000000000001</ele><time>2026-04-04T10:44:43.031Z</time></trkpt><trkpt lat="44.6765518" lon="9.4139261"><ele>840.8</ele><time>2026-04-04T10:44:44.031Z</time></trkpt><trkpt lat="44.6765891" lon="9.4140539"><ele>839.2</ele><time>2026-04-04T10:44:45.033Z</time></trkpt><trkpt lat="44.6766522" lon="9.4141476"><ele>837.5999999999999</ele><time>2026-04-04T10:44:46.038Z</time></trkpt><trkpt lat="44.6767589" lon="9.4142547"><ele>836.0</ele><time>2026-04-04T10:44:47.044Z</time></trkpt><trkpt lat="44.6768895" lon="9.4143613"><ele>838.0</ele><time>2026-04-04T10:44:48.046Z</time></trkpt><trkpt lat="44.6770234" lon="9.4144752"><ele>840.0</ele><time>2026-04-04T10:44:49.045Z</time></trkpt><trkpt lat="44.6771459" lon="9.4145872"><ele>842.0</ele><time>2026-04-04T10:44:50.053Z</time></trkpt><trkpt lat="44.677263" lon="9.4147027"><ele>844.0</ele><time>2026-04-04T10:44:51.04Z</time></trkpt><trkpt lat="44.6773762" lon="9.4148274"><ele>844.0</ele><time>2026-04-04T10:44:52.046Z</time></trkpt><trkpt lat="44.6774858" lon="9.4149509"><ele>844.0</ele><time>2026-04-04T10:44:53.035Z</time></trkpt><trkpt lat="44.67759" lon="9.4150637"><ele>844.0</ele><time>2026-04-04T10:44:54.043Z</time></trkpt><trkpt lat="44.6776855" lon="9.4151616"><ele>844.0</ele><time>2026-04-04T10:44:55.047Z</time></trkpt><trkpt lat="44.677772" lon="9.4152797"><ele>847.0</ele><time>2026-04-04T10:44:56.014Z</time></trkpt><trkpt lat="44.6778322" lon="9.4154391"><ele>850.0</ele><time>2026-04-04T10:44:57.01Z</time></trkpt><trkpt lat="44.6778528" lon="9.4156099"><ele>853.0</ele><time>2026-04-04T10:44:58.053Z</time></trkpt><trkpt lat="44.6778355" lon="9.4157727"><ele>856.0</ele><time>2026-04-04T10:44:59.017Z</time></trkpt><trkpt lat="44.6778245" lon="9.4159173"><ele>856.0</ele><time>2026-04-04T10:45:00.042Z</time></trkpt><trkpt lat="44.677821" lon="9.4160335"><ele>855.9999999999999</ele><time>2026-04-04T10:45:01.036Z</time></trkpt><trkpt lat="44.6778481" lon="9.4161449"><ele>855.9999999999999</ele><time>2026-04-04T10:45:02.043Z</time></trkpt><trkpt lat="44.6779272" lon="9.416249"><ele>856.0</ele><time>2026-04-04T10:45:03.036Z</time></trkpt><trkpt lat="44.678036" lon="9.4163557"><ele>856.0</ele><time>2026-04-04T10:45:04.058Z</time></trkpt><trkpt lat="44.6781454" lon="9.4164604"><ele>854.25</ele><time>2026-04-04T10:45:05.041Z</time></trkpt><trkpt lat="44.6782256" lon="9.4165916"><ele>852.5</ele><time>2026-04-04T10:45:06.044Z</time></trkpt><trkpt lat="44.6782881" lon="9.416744"><ele>850.75</ele><time>2026-04-04T10:45:07.051Z</time></trkpt><trkpt lat="44.6783394" lon="9.4169296"><ele>849.0</ele><time>2026-04-04T10:45:08.031Z</time></trkpt><trkpt lat="44.678384" lon="9.4171112"><ele>848.75</ele><time>2026-04-04T10:45:09.034Z</time></trkpt><trkpt lat="44.6784179" lon="9.4172996"><ele>848.5</ele><time>2026-04-04T10:45:10.046Z</time></trkpt><trkpt lat="44.6784302" lon="9.4175004"><ele>848.25</ele><time>2026-04-04T10:45:11.052Z</time></trkpt><trkpt lat="44.6784326" lon="9.417703"><ele>848.0</ele><time>2026-04-04T10:45:12.055Z</time></trkpt><trkpt lat="44.6784227" lon="9.4179098"><ele>847.0</ele><time>2026-04-04T10:45:13.037Z</time></trkpt><trkpt lat="44.6784094" lon="9.4181341"><ele>846.0</ele><time>2026-04-04T10:45:14.042Z</time></trkpt><trkpt lat="44.678421" lon="9.418342"><ele>845.0</ele><time>2026-04-04T10:45:15.049Z</time></trkpt><trkpt lat="44.6784561" lon="9.4185395"><ele>845.0</ele><time>2026-04-04T10:45:16.043Z</time></trkpt><trkpt lat="44.6785347" lon="9.4187381"><ele>845.0</ele><time>2026-04-04T10:45:17.032Z</time></trkpt><trkpt lat="44.6786319" lon="9.4189383"><ele>845.0</ele><time>2026-04-04T10:45:18.068Z</time></trkpt><trkpt lat="44.6787244" lon="9.419139"><ele>850.25</ele><time>2026-04-04T10:45:19.023Z</time></trkpt><trkpt lat="44.6788064" lon="9.4193245"><ele>855.5</ele><time>2026-04-04T10:45:20.037Z</time></trkpt><trkpt lat="44.6788693" lon="9.4194804"><ele>860.75</ele><time>2026-04-04T10:45:21.045Z</time></trkpt><trkpt lat="44.678914" lon="9.4196096"><ele>866.0</ele><time>2026-04-04T10:45:22.034Z</time></trkpt><trkpt lat="44.6789582" lon="9.4197187"><ele>866.0</ele><time>2026-04-04T10:45:23.036Z</time></trkpt><trkpt lat="44.678996" lon="9.4198179"><ele>865.9999999999999</ele><time>2026-04-04T10:45:24.026Z</time></trkpt><trkpt lat="44.6790316" lon="9.4199271"><ele>865.9999999999999</ele><time>2026-04-04T10:45:25.041Z</time></trkpt><trkpt lat="44.6790262" lon="9.4200486"><ele>866.0</ele><time>2026-04-04T10:45:26.038Z</time></trkpt><trkpt lat="44.6789634" lon="9.4201785"><ele>866.0</ele><time>2026-04-04T10:45:27.03Z</time></trkpt><trkpt lat="44.6788649" lon="9.4202742"><ele>866.0</ele><time>2026-04-04T10:45:28.035Z</time></trkpt><trkpt lat="44.67874" lon="9.420333"><ele>866.0</ele><time>2026-04-04T10:45:29.044Z</time></trkpt><trkpt lat="44.6786207" lon="9.420328"><ele>866.0</ele><time>2026-04-04T10:45:30.028Z</time></trkpt><trkpt lat="44.6784888" lon="9.4202673"><ele>866.0</ele><time>2026-04-04T10:45:31.037Z</time></trkpt><trkpt lat="44.6783735" lon="9.4201849"><ele>863.25</ele><time>2026-04-04T10:45:32.037Z</time></trkpt><trkpt lat="44.6782739" lon="9.4200864"><ele>860.5</ele><time>2026-04-04T10:45:33.044Z</time></trkpt><trkpt lat="44.6781669" lon="9.4200098"><ele>857.75</ele><time>2026-04-04T10:45:33.999Z</time></trkpt><trkpt lat="44.6780431" lon="9.4199562"><ele>855.0</ele><time>2026-04-04T10:45:35.055Z</time></trkpt><trkpt lat="44.6779231" lon="9.419922"><ele>855.0</ele><time>2026-04-04T10:45:36.039Z</time></trkpt><trkpt lat="44.6778201" lon="9.4199121"><ele>855.0</ele><time>2026-04-04T10:45:37.038Z</time></trkpt><trkpt lat="44.6777154" lon="9.4199414"><ele>855.0</ele><time>2026-04-04T10:45:38.05Z</time></trkpt><trkpt lat="44.6776227" lon="9.4200056"><ele>855.0</ele><time>2026-04-04T10:45:39.047Z</time></trkpt><trkpt lat="44.6775441" lon="9.420114"><ele>855.0</ele><time>2026-04-04T10:45:40.029Z</time></trkpt><trkpt lat="44.6774967" lon="9.4202584"><ele>854.5</ele><time>2026-04-04T10:45:41.055Z</time></trkpt><trkpt lat="44.6774581" lon="9.4204484"><ele>854.0</ele><time>2026-04-04T10:45:42.038Z</time></trkpt><trkpt lat="44.6774209" lon="9.4206417"><ele>853.5</ele><time>2026-04-04T10:45:43.035Z</time></trkpt><trkpt lat="44.6773787" lon="9.4208356"><ele>853.0</ele><time>2026-04-04T10:45:44.04Z</time></trkpt><trkpt lat="44.6773268" lon="9.4210396"><ele>854.75</ele><time>2026-04-04T10:45:45.038Z</time></trkpt><trkpt lat="44.677279" lon="9.4212402"><ele>856.5</ele><time>2026-04-04T10:45:46.028Z</time></trkpt><trkpt lat="44.6772381" lon="9.4214294"><ele>858.25</ele><time>2026-04-04T10:45:47.054Z</time></trkpt><trkpt lat="44.6771918" lon="9.4216193"><ele>860.0</ele><time>2026-04-04T10:45:48.037Z</time></trkpt><trkpt lat="44.6771381" lon="9.4217975"><ele>860.0</ele><time>2026-04-04T10:45:49.043Z</time></trkpt><trkpt lat="44.6770832" lon="9.4219642"><ele>860.0</ele><time>2026-04-04T10:45:50.039Z</time></trkpt><trkpt lat="44.6770127" lon="9.422098"><ele>860.0</ele><time>2026-04-04T10:45:51.047Z</time></trkpt><trkpt lat="44.676925" lon="9.4222032"><ele>860.0</ele><time>2026-04-04T10:45:52.036Z</time></trkpt><trkpt lat="44.6768307" lon="9.4222797"><ele>859.0</ele><time>2026-04-04T10:45:53.058Z</time></trkpt><trkpt lat="44.6767293" lon="9.42229"><ele>858.0</ele><time>2026-04-04T10:45:54.055Z</time></trkpt><trkpt lat="44.6766224" lon="9.4222161"><ele>857.0</ele><time>2026-04-04T10:45:55.039Z</time></trkpt><trkpt lat="44.6765192" lon="9.4220864"><ele>856.0</ele><time>2026-04-04T10:45:56.035Z</time></trkpt><trkpt lat="44.676411" lon="9.4219353"><ele>856.0</ele><time>2026-04-04T10:45:57.029Z</time></trkpt><trkpt lat="44.6762925" lon="9.4217873"><ele>856.0</ele><time>2026-04-04T10:45:58.028Z</time></trkpt><trkpt lat="44.6761783" lon="9.4216444"><ele>856.0</ele><time>2026-04-04T10:45:59.035Z</time></trkpt><trkpt lat="44.6760612" lon="9.4215217"><ele>857.3333333333333</ele><time>2026-04-04T10:46:00.045Z</time></trkpt><trkpt lat="44.675934" lon="9.4214145"><ele>858.6666666666667</ele><time>2026-04-04T10:46:01.029Z</time></trkpt><trkpt lat="44.675797" lon="9.4213033"><ele>860.0</ele><time>2026-04-04T10:46:02.04Z</time></trkpt><trkpt lat="44.6756626" lon="9.4211955"><ele>860.0</ele><time>2026-04-04T10:46:03.032Z</time></trkpt><trkpt lat="44.6755333" lon="9.4211082"><ele>860.0</ele><time>2026-04-04T10:46:04.039Z</time></trkpt><trkpt lat="44.6753975" lon="9.4210462"><ele>860.0</ele><time>2026-04-04T10:46:05.041Z</time></trkpt><trkpt lat="44.6752588" lon="9.4209954"><ele>860.0</ele><time>2026-04-04T10:46:06.019Z</time></trkpt><trkpt lat="44.6751214" lon="9.4209606"><ele>863.75</ele><time>2026-04-04T10:46:07.04Z</time></trkpt><trkpt lat="44.6749918" lon="9.4209174"><ele>867.5</ele><time>2026-04-04T10:46:08.05Z</time></trkpt><trkpt lat="44.6748786" lon="9.4208759"><ele>871.25</ele><time>2026-04-04T10:46:09.039Z</time></trkpt><trkpt lat="44.6747708" lon="9.4207956"><ele>875.0</ele><time>2026-04-04T10:46:10.046Z</time></trkpt><trkpt lat="44.6746923" lon="9.4207015"><ele>875.0</ele><time>2026-04-04T10:46:10.997Z</time></trkpt><trkpt lat="44.6746326" lon="9.4205532"><ele>875.0</ele><time>2026-04-04T10:46:12.039Z</time></trkpt><trkpt lat="44.6745791" lon="9.4203942"><ele>875.0</ele><time>2026-04-04T10:46:13.034Z</time></trkpt><trkpt lat="44.6745321" lon="9.4202566"><ele>875.0</ele><time>2026-04-04T10:46:14.047Z</time></trkpt><trkpt lat="44.6744817" lon="9.4201466"><ele>875.0</ele><time>2026-04-04T10:46:15.044Z</time></trkpt><trkpt lat="44.6744206" lon="9.4200609"><ele>874.4</ele><time>2026-04-04T10:46:16.014Z</time></trkpt><trkpt lat="44.67434" lon="9.4200202"><ele>873.8</ele><time>2026-04-04T10:46:17.052Z</time></trkpt><trkpt lat="44.6742464" lon="9.4200222"><ele>873.2</ele><time>2026-04-04T10:46:18.015Z</time></trkpt><trkpt lat="44.6741499" lon="9.4200939"><ele>872.6</ele><time>2026-04-04T10:46:19.046Z</time></trkpt><trkpt lat="44.6740471" lon="9.4201908"><ele>872.0</ele><time>2026-04-04T10:46:20.031Z</time></trkpt><trkpt lat="44.6739512" lon="9.4202797"><ele>872.0</ele><time>2026-04-04T10:46:21.025Z</time></trkpt><trkpt lat="44.6738572" lon="9.4203462"><ele>872.0</ele><time>2026-04-04T10:46:22.037Z</time></trkpt><trkpt lat="44.6737561" lon="9.4203569"><ele>872.0</ele><time>2026-04-04T10:46:23.044Z</time></trkpt><trkpt lat="44.6736369" lon="9.4203588"><ele>872.0</ele><time>2026-04-04T10:46:24.033Z</time></trkpt><trkpt lat="44.6735132" lon="9.4203587"><ele>872.0</ele><time>2026-04-04T10:46:25.029Z</time></trkpt><trkpt lat="44.6733872" lon="9.4203885"><ele>871.0</ele><time>2026-04-04T10:46:26.041Z</time></trkpt><trkpt lat="44.6732566" lon="9.4204435"><ele>870.0</ele><time>2026-04-04T10:46:27.032Z</time></trkpt><trkpt lat="44.6731309" lon="9.4205079"><ele>869.0</ele><time>2026-04-04T10:46:28.027Z</time></trkpt><trkpt lat="44.6730067" lon="9.4205916"><ele>868.0</ele><time>2026-04-04T10:46:28.989Z</time></trkpt><trkpt lat="44.6728679" lon="9.4206915"><ele>872.5</ele><time>2026-04-04T10:46:30.035Z</time></trkpt><trkpt lat="44.6727464" lon="9.4207868"><ele>877.0</ele><time>2026-04-04T10:46:31.038Z</time></trkpt><trkpt lat="44.6726283" lon="9.4208391"><ele>881.5</ele><time>2026-04-04T10:46:32.034Z</time></trkpt><trkpt lat="44.6724945" lon="9.4208577"><ele>886.0</ele><time>2026-04-04T10:46:33.024Z</time></trkpt><trkpt lat="44.6723638" lon="9.420862"><ele>886.0</ele><time>2026-04-04T10:46:34.057Z</time></trkpt><trkpt lat="44.6722412" lon="9.4208648"><ele>886.0</ele><time>2026-04-04T10:46:35.033Z</time></trkpt><trkpt lat="44.6721139" lon="9.4208573"><ele>886.0</ele><time>2026-04-04T10:46:36.023Z</time></trkpt><trkpt lat="44.6720009" lon="9.4208482"><ele>886.0</ele><time>2026-04-04T10:46:37.037Z</time></trkpt><trkpt lat="44.6718917" lon="9.4208003"><ele>888.0</ele><time>2026-04-04T10:46:38.037Z</time></trkpt><trkpt lat="44.6718032" lon="9.4206853"><ele>890.0</ele><time>2026-04-04T10:46:39.029Z</time></trkpt><trkpt lat="44.6717428" lon="9.4205571"><ele>892.0</ele><time>2026-04-04T10:46:39.974Z</time></trkpt><trkpt lat="44.6716713" lon="9.4204307"><ele>894.0</ele><time>2026-04-04T10:46:41.025Z</time></trkpt><trkpt lat="44.6715931" lon="9.4203278"><ele>894.0</ele><time>2026-04-04T10:46:42.03Z</time></trkpt><trkpt lat="44.6715122" lon="9.4202689"><ele>894.0</ele><time>2026-04-04T10:46:43.035Z</time></trkpt><trkpt lat="44.671422" lon="9.4202439"><ele>894.0</ele><time>2026-04-04T10:46:44.051Z</time></trkpt><trkpt lat="44.6713477" lon="9.4202414"><ele>894.0</ele><time>2026-04-04T10:46:45.052Z</time></trkpt><trkpt lat="44.6712666" lon="9.4202881"><ele>894.0</ele><time>2026-04-04T10:46:46.032Z</time></trkpt><trkpt lat="44.6711989" lon="9.4203856"><ele>894.0</ele><time>2026-04-04T10:46:47.038Z</time></trkpt><trkpt lat="44.6711248" lon="9.4205151"><ele>892.5</ele><time>2026-04-04T10:46:48.037Z</time></trkpt><trkpt lat="44.6710572" lon="9.4206522"><ele>891.0</ele><time>2026-04-04T10:46:49.028Z</time></trkpt><trkpt lat="44.6709854" lon="9.4207854"><ele>889.5</ele><time>2026-04-04T10:46:50.05Z</time></trkpt><trkpt lat="44.6709002" lon="9.4209133"><ele>888.0</ele><time>2026-04-04T10:46:51.009Z</time></trkpt><trkpt lat="44.670799" lon="9.4209992"><ele>888.0</ele><time>2026-04-04T10:46:52.022Z</time></trkpt><trkpt lat="44.6706785" lon="9.4210292"><ele>888.0</ele><time>2026-04-04T10:46:53.034Z</time></trkpt><trkpt lat="44.6705555" lon="9.4210405"><ele>888.0</ele><time>2026-04-04T10:46:54.038Z</time></trkpt><trkpt lat="44.6704439" lon="9.4210549"><ele>888.0</ele><time>2026-04-04T10:46:55.021Z</time></trkpt><trkpt lat="44.6703517" lon="9.4210903"><ele>886.25</ele><time>2026-04-04T10:46:56.044Z</time></trkpt><trkpt lat="44.6702714" lon="9.4211593"><ele>884.5</ele><time>2026-04-04T10:46:57.013Z</time></trkpt><trkpt lat="44.6702205" lon="9.421294"><ele>882.75</ele><time>2026-04-04T10:46:58.037Z</time></trkpt><trkpt lat="44.6701724" lon="9.4214679"><ele>881.0</ele><time>2026-04-04T10:46:59.027Z</time></trkpt><trkpt lat="44.6701652" lon="9.4216722"><ele>881.0</ele><time>2026-04-04T10:47:00.04Z</time></trkpt><trkpt lat="44.6701717" lon="9.4219308"><ele>881.0</ele><time>2026-04-04T10:47:01.034Z</time></trkpt><trkpt lat="44.6701564" lon="9.4221632"><ele>881.0</ele><time>2026-04-04T10:47:02.035Z</time></trkpt><trkpt lat="44.6701501" lon="9.4223728"><ele>882.0</ele><time>2026-04-04T10:47:03.038Z</time></trkpt><trkpt lat="44.6701448" lon="9.4225627"><ele>883.0</ele><time>2026-04-04T10:47:04.034Z</time></trkpt><trkpt lat="44.670132" lon="9.4227399"><ele>884.0</ele><time>2026-04-04T10:47:05.026Z</time></trkpt><trkpt lat="44.6701301" lon="9.4229126"><ele>885.0</ele><time>2026-04-04T10:47:06.048Z</time></trkpt><trkpt lat="44.6701301" lon="9.4230536"><ele>885.6</ele><time>2026-04-04T10:47:07.04Z</time></trkpt><trkpt lat="44.6701668" lon="9.4231934"><ele>886.2</ele><time>2026-04-04T10:47:08.019Z</time></trkpt><trkpt lat="44.6702289" lon="9.4233091"><ele>886.8</ele><time>2026-04-04T10:47:09.029Z</time></trkpt><trkpt lat="44.6703028" lon="9.4234092"><ele>887.4</ele><time>2026-04-04T10:47:10Z</time></trkpt><trkpt lat="44.6703497" lon="9.4235252"><ele>888.0</ele><time>2026-04-04T10:47:11.042Z</time></trkpt><trkpt lat="44.670348" lon="9.4236718"><ele>889.0</ele><time>2026-04-04T10:47:12.057Z</time></trkpt><trkpt lat="44.670288" lon="9.4238369"><ele>890.0</ele><time>2026-04-04T10:47:13.037Z</time></trkpt><trkpt lat="44.6702072" lon="9.4239994"><ele>891.0</ele><time>2026-04-04T10:47:14.004Z</time></trkpt><trkpt lat="44.6701383" lon="9.4241596"><ele>892.0</ele><time>2026-04-04T10:47:15.002Z</time></trkpt><trkpt lat="44.6700738" lon="9.4243318"><ele>892.0</ele><time>2026-04-04T10:47:16.036Z</time></trkpt><trkpt lat="44.6700065" lon="9.4245284"><ele>892.0</ele><time>2026-04-04T10:47:17.023Z</time></trkpt><trkpt lat="44.6699503" lon="9.4247713"><ele>892.0</ele><time>2026-04-04T10:47:18.027Z</time></trkpt><trkpt lat="44.669909" lon="9.4250578"><ele>893.6666666666666</ele><time>2026-04-04T10:47:19.01Z</time></trkpt><trkpt lat="44.6698746" lon="9.4253484"><ele>895.3333333333333</ele><time>2026-04-04T10:47:19.997Z</time></trkpt><trkpt lat="44.6698337" lon="9.425652"><ele>897.0</ele><time>2026-04-04T10:47:21.033Z</time></trkpt><trkpt lat="44.6697811" lon="9.4259782"><ele>906.0</ele><time>2026-04-04T10:47:22.032Z</time></trkpt><trkpt lat="44.6697085" lon="9.426321"><ele>915.0</ele><time>2026-04-04T10:47:23.031Z</time></trkpt><trkpt lat="44.6696187" lon="9.4266544"><ele>915.0</ele><time>2026-04-04T10:47:24.041Z</time></trkpt><trkpt lat="44.6695396" lon="9.4269542"><ele>915.0</ele><time>2026-04-04T10:47:25.032Z</time></trkpt><trkpt lat="44.6694737" lon="9.4271979"><ele>915.0</ele><time>2026-04-04T10:47:26.036Z</time></trkpt><trkpt lat="44.6694099" lon="9.4274127"><ele>912.25</ele><time>2026-04-04T10:47:27.05Z</time></trkpt><trkpt lat="44.66933" lon="9.4275739"><ele>909.5</ele><time>2026-04-04T10:47:28.049Z</time></trkpt><trkpt lat="44.6692116" lon="9.4276558"><ele>906.75</ele><time>2026-04-04T10:47:29.032Z</time></trkpt><trkpt lat="44.6690765" lon="9.4277021"><ele>904.0</ele><time>2026-04-04T10:47:30.02Z</time></trkpt><trkpt lat="44.6689443" lon="9.4276624"><ele>904.0</ele><time>2026-04-04T10:47:30.999Z</time></trkpt><trkpt lat="44.6687923" lon="9.4275391"><ele>904.0</ele><time>2026-04-04T10:47:32.003Z</time></trkpt><trkpt lat="44.6686657" lon="9.4273568"><ele>904.0</ele><time>2026-04-04T10:47:33.017Z</time></trkpt><trkpt lat="44.6685636" lon="9.4271472"><ele>902.0</ele><time>2026-04-04T10:47:34.026Z</time></trkpt><trkpt lat="44.6684656" lon="9.4269527"><ele>900.0</ele><time>2026-04-04T10:47:35.031Z</time></trkpt><trkpt lat="44.6683691" lon="9.4267997"><ele>898.0</ele><time>2026-04-04T10:47:36.045Z</time></trkpt><trkpt lat="44.6682474" lon="9.4266775"><ele>898.0</ele><time>2026-04-04T10:47:37.05Z</time></trkpt><trkpt lat="44.6680934" lon="9.4266217"><ele>898.0</ele><time>2026-04-04T10:47:38.01Z</time></trkpt><trkpt lat="44.6679439" lon="9.426602"><ele>898.0</ele><time>2026-04-04T10:47:39.002Z</time></trkpt><trkpt lat="44.6677924" lon="9.4266376"><ele>900.0</ele><time>2026-04-04T10:47:40.021Z</time></trkpt><trkpt lat="44.6676427" lon="9.426696"><ele>902.0</ele><time>2026-04-04T10:47:41.02Z</time></trkpt><trkpt lat="44.6675072" lon="9.4267933"><ele>904.0</ele><time>2026-04-04T10:47:42.033Z</time></trkpt><trkpt lat="44.6673792" lon="9.4268999"><ele>904.0</ele><time>2026-04-04T10:47:43.045Z</time></trkpt><trkpt lat="44.6672969" lon="9.4270119"><ele>904.0000000000001</ele><time>2026-04-04T10:47:44.026Z</time></trkpt><trkpt lat="44.6672468" lon="9.42712"><ele>904.0000000000001</ele><time>2026-04-04T10:47:45.032Z</time></trkpt><trkpt lat="44.6672343" lon="9.427243"><ele>904.0</ele><time>2026-04-04T10:47:46.048Z</time></trkpt><trkpt lat="44.6672625" lon="9.4274045"><ele>904.0</ele><time>2026-04-04T10:47:47.037Z</time></trkpt><trkpt lat="44.6672921" lon="9.4275724"><ele>904.75</ele><time>2026-04-04T10:47:48.03Z</time></trkpt><trkpt lat="44.6673177" lon="9.4277423"><ele>905.5</ele><time>2026-04-04T10:47:49.04Z</time></trkpt><trkpt lat="44.6673343" lon="9.4279224"><ele>906.25</ele><time>2026-04-04T10:47:50.017Z</time></trkpt><trkpt lat="44.6673643" lon="9.4281112"><ele>907.0</ele><time>2026-04-04T10:47:51.038Z</time></trkpt><trkpt lat="44.6674044" lon="9.4283021"><ele>908.25</ele><time>2026-04-04T10:47:52.043Z</time></trkpt><trkpt lat="44.6674384" lon="9.4284903"><ele>909.5</ele><time>2026-04-04T10:47:53.028Z</time></trkpt><trkpt lat="44.6674679" lon="9.4286963"><ele>910.75</ele><time>2026-04-04T10:47:54.037Z</time></trkpt><trkpt lat="44.6674846" lon="9.4288905"><ele>912.0</ele><time>2026-04-04T10:47:55.038Z</time></trkpt><trkpt lat="44.667466" lon="9.429072"><ele>914.25</ele><time>2026-04-04T10:47:56.045Z</time></trkpt><trkpt lat="44.6674067" lon="9.4292114"><ele>916.5</ele><time>2026-04-04T10:47:57.03Z</time></trkpt><trkpt lat="44.6672978" lon="9.4293168"><ele>918.75</ele><time>2026-04-04T10:47:58.046Z</time></trkpt><trkpt lat="44.6671719" lon="9.4294065"><ele>921.0</ele><time>2026-04-04T10:47:59.036Z</time></trkpt><trkpt lat="44.6670363" lon="9.4295174"><ele>920.3333333333333</ele><time>2026-04-04T10:48:00.045Z</time></trkpt><trkpt lat="44.6669034" lon="9.4296634"><ele>919.6666666666666</ele><time>2026-04-04T10:48:01.051Z</time></trkpt><trkpt lat="44.666768" lon="9.429865"><ele>919.0</ele><time>2026-04-04T10:48:02.041Z</time></trkpt><trkpt lat="44.6666445" lon="9.4300995"><ele>919.0</ele><time>2026-04-04T10:48:03.047Z</time></trkpt><trkpt lat="44.6665465" lon="9.4303077"><ele>919.0</ele><time>2026-04-04T10:48:04.052Z</time></trkpt><trkpt lat="44.666472" lon="9.4304997"><ele>919.0</ele><time>2026-04-04T10:48:05.034Z</time></trkpt><trkpt lat="44.6663888" lon="9.4306565"><ele>920.5</ele><time>2026-04-04T10:48:06.039Z</time></trkpt><trkpt lat="44.6662789" lon="9.4307481"><ele>922.0</ele><time>2026-04-04T10:48:07.021Z</time></trkpt><trkpt lat="44.666149" lon="9.4307937"><ele>923.5</ele><time>2026-04-04T10:48:08.024Z</time></trkpt><trkpt lat="44.6660302" lon="9.4308275"><ele>925.0</ele><time>2026-04-04T10:48:09.044Z</time></trkpt><trkpt lat="44.6659468" lon="9.4308627"><ele>925.0</ele><time>2026-04-04T10:48:10.052Z</time></trkpt><trkpt lat="44.6658906" lon="9.4309371"><ele>925.0</ele><time>2026-04-04T10:48:11.047Z</time></trkpt><trkpt lat="44.6658882" lon="9.4310452"><ele>925.0</ele><time>2026-04-04T10:48:12.038Z</time></trkpt><trkpt lat="44.6659367" lon="9.4311489"><ele>925.0</ele><time>2026-04-04T10:48:13.054Z</time></trkpt><trkpt lat="44.6660287" lon="9.4311954"><ele>925.0</ele><time>2026-04-04T10:48:14.031Z</time></trkpt><trkpt lat="44.6661652" lon="9.4311724"><ele>927.25</ele><time>2026-04-04T10:48:15.05Z</time></trkpt><trkpt lat="44.6663208" lon="9.4310942"><ele>929.5</ele><time>2026-04-04T10:48:15.997Z</time></trkpt><trkpt lat="44.6664591" lon="9.4310159"><ele>931.75</ele><time>2026-04-04T10:48:17.02Z</time></trkpt><trkpt lat="44.6665373" lon="9.4310113"><ele>934.0</ele><time>2026-04-04T10:48:18.032Z</time></trkpt><trkpt lat="44.6666073" lon="9.4310358"><ele>934.0</ele><time>2026-04-04T10:48:19.023Z</time></trkpt><trkpt lat="44.6666449" lon="9.4311091"><ele>934.0000000000001</ele><time>2026-04-04T10:48:20.013Z</time></trkpt><trkpt lat="44.6666253" lon="9.4312304"><ele>934.0000000000001</ele><time>2026-04-04T10:48:21.028Z</time></trkpt><trkpt lat="44.666529" lon="9.4313473"><ele>934.0</ele><time>2026-04-04T10:48:22.049Z</time></trkpt><trkpt lat="44.6664088" lon="9.4314403"><ele>934.0</ele><time>2026-04-04T10:48:23.04Z</time></trkpt><trkpt lat="44.6662453" lon="9.4315571"><ele>938.3333333333333</ele><time>2026-04-04T10:48:24.008Z</time></trkpt><trkpt lat="44.6660644" lon="9.4316702"><ele>942.6666666666667</ele><time>2026-04-04T10:48:25.018Z</time></trkpt><trkpt lat="44.6658921" lon="9.4317826"><ele>947.0</ele><time>2026-04-04T10:48:26.039Z</time></trkpt><trkpt lat="44.6657346" lon="9.4318636"><ele>947.0</ele><time>2026-04-04T10:48:27.036Z</time></trkpt><trkpt lat="44.6655628" lon="9.4318928"><ele>947.0</ele><time>2026-04-04T10:48:28.04Z</time></trkpt><trkpt lat="44.6654146" lon="9.4318887"><ele>947.0</ele><time>2026-04-04T10:48:29.014Z</time></trkpt><trkpt lat="44.6652778" lon="9.4319007"><ele>945.6666666666667</ele><time>2026-04-04T10:48:30.039Z</time></trkpt><trkpt lat="44.665156" lon="9.4319943"><ele>944.3333333333333</ele><time>2026-04-04T10:48:31.031Z</time></trkpt><trkpt lat="44.6649904" lon="9.4321369"><ele>943.0</ele><time>2026-04-04T10:48:32.012Z</time></trkpt><trkpt lat="44.6648145" lon="9.4322565"><ele>945.5</ele><time>2026-04-04T10:48:33.045Z</time></trkpt><trkpt lat="44.6646688" lon="9.4323217"><ele>948.0</ele><time>2026-04-04T10:48:34.039Z</time></trkpt><trkpt lat="44.6645455" lon="9.4323883"><ele>950.5</ele><time>2026-04-04T10:48:35.011Z</time></trkpt><trkpt lat="44.6644474" lon="9.432499"><ele>953.0</ele><time>2026-04-04T10:48:36.033Z</time></trkpt><trkpt lat="44.6644024" lon="9.432694"><ele>953.0</ele><time>2026-04-04T10:48:37.029Z</time></trkpt><trkpt lat="44.6643865" lon="9.4329391"><ele>953.0</ele><time>2026-04-04T10:48:38.025Z</time></trkpt><trkpt lat="44.6643515" lon="9.4331623"><ele>953.0</ele><time>2026-04-04T10:48:39.04Z</time></trkpt><trkpt lat="44.664304" lon="9.4333631"><ele>954.75</ele><time>2026-04-04T10:48:40.057Z</time></trkpt><trkpt lat="44.664207" lon="9.433504"><ele>956.5</ele><time>2026-04-04T10:48:41.035Z</time></trkpt><trkpt lat="44.6640998" lon="9.4336301"><ele>958.25</ele><time>2026-04-04T10:48:42.042Z</time></trkpt><trkpt lat="44.6640083" lon="9.4337804"><ele>960.0</ele><time>2026-04-04T10:48:43.026Z</time></trkpt><trkpt lat="44.6639402" lon="9.433956"><ele>963.3333333333333</ele><time>2026-04-04T10:48:44.044Z</time></trkpt><trkpt lat="44.6639027" lon="9.4342214"><ele>966.6666666666666</ele><time>2026-04-04T10:48:45.031Z</time></trkpt><trkpt lat="44.6638545" lon="9.4345656"><ele>970.0</ele><time>2026-04-04T10:48:46.044Z</time></trkpt><trkpt lat="44.663786" lon="9.4349358"><ele>971.5</ele><time>2026-04-04T10:48:47.043Z</time></trkpt><trkpt lat="44.6636882" lon="9.4352874"><ele>973.0</ele><time>2026-04-04T10:48:48.039Z</time></trkpt><trkpt lat="44.6635744" lon="9.4356419"><ele>973.0</ele><time>2026-04-04T10:48:49.035Z</time></trkpt><trkpt lat="44.6634697" lon="9.435978"><ele>973.0</ele><time>2026-04-04T10:48:50.026Z</time></trkpt><trkpt lat="44.6633689" lon="9.4362942"><ele>976.3333333333333</ele><time>2026-04-04T10:48:51.008Z</time></trkpt><trkpt lat="44.6632831" lon="9.4365897"><ele>979.6666666666667</ele><time>2026-04-04T10:48:52.059Z</time></trkpt><trkpt lat="44.6632158" lon="9.4368246"><ele>983.0</ele><time>2026-04-04T10:48:53.044Z</time></trkpt><trkpt lat="44.6631715" lon="9.4370363"><ele>983.6666666666667</ele><time>2026-04-04T10:48:54.044Z</time></trkpt><trkpt lat="44.6631416" lon="9.437285"><ele>984.3333333333333</ele><time>2026-04-04T10:48:55.01Z</time></trkpt><trkpt lat="44.6631296" lon="9.43756"><ele>985.0</ele><time>2026-04-04T10:48:56.038Z</time></trkpt><trkpt lat="44.6631345" lon="9.437837"><ele>985.25</ele><time>2026-04-04T10:48:57.024Z</time></trkpt><trkpt lat="44.6631682" lon="9.4380772"><ele>985.5</ele><time>2026-04-04T10:48:58.028Z</time></trkpt><trkpt lat="44.66318" lon="9.4382631"><ele>985.75</ele><time>2026-04-04T10:48:59.04Z</time></trkpt><trkpt lat="44.6631995" lon="9.4384365"><ele>986.0</ele><time>2026-04-04T10:49:00.024Z</time></trkpt><trkpt lat="44.6632475" lon="9.438549"><ele>986.0</ele><time>2026-04-04T10:49:01.045Z</time></trkpt><trkpt lat="44.6633397" lon="9.438623"><ele>986.0</ele><time>2026-04-04T10:49:02.033Z</time></trkpt><trkpt lat="44.6634424" lon="9.4386717"><ele>986.0</ele><time>2026-04-04T10:49:03.033Z</time></trkpt><trkpt lat="44.6635894" lon="9.438698"><ele>986.0</ele><time>2026-04-04T10:49:04.04Z</time></trkpt><trkpt lat="44.6637385" lon="9.4387362"><ele>990.25</ele><time>2026-04-04T10:49:05.021Z</time></trkpt><trkpt lat="44.6638842" lon="9.4387761"><ele>994.5</ele><time>2026-04-04T10:49:06.042Z</time></trkpt><trkpt lat="44.6639984" lon="9.4388527"><ele>998.75</ele><time>2026-04-04T10:49:07.027Z</time></trkpt><trkpt lat="44.6640406" lon="9.438968"><ele>1003.0</ele><time>2026-04-04T10:49:08.066Z</time></trkpt><trkpt lat="44.6640161" lon="9.4391555"><ele>1003.0</ele><time>2026-04-04T10:49:08.998Z</time></trkpt><trkpt lat="44.6639133" lon="9.4393354"><ele>1003.0</ele><time>2026-04-04T10:49:10.029Z</time></trkpt><trkpt lat="44.6637854" lon="9.4395481"><ele>1003.0</ele><time>2026-04-04T10:49:11.039Z</time></trkpt><trkpt lat="44.6636546" lon="9.4397647"><ele>1002.75</ele><time>2026-04-04T10:49:12.041Z</time></trkpt><trkpt lat="44.6635439" lon="9.4399306"><ele>1002.5</ele><time>2026-04-04T10:49:13.043Z</time></trkpt><trkpt lat="44.6634672" lon="9.44008"><ele>1002.25</ele><time>2026-04-04T10:49:14.013Z</time></trkpt><trkpt lat="44.663419" lon="9.4402588"><ele>1002.0</ele><time>2026-04-04T10:49:15.033Z</time></trkpt><trkpt lat="44.6634038" lon="9.4404863"><ele>1002.0</ele><time>2026-04-04T10:49:16.036Z</time></trkpt><trkpt lat="44.6633899" lon="9.4407241"><ele>1002.0</ele><time>2026-04-04T10:49:17.034Z</time></trkpt><trkpt lat="44.6633646" lon="9.4409484"><ele>1002.0</ele><time>2026-04-04T10:49:18.042Z</time></trkpt><trkpt lat="44.6633006" lon="9.4411268"><ele>1002.0</ele><time>2026-04-04T10:49:19.033Z</time></trkpt><trkpt lat="44.6631972" lon="9.4412768"><ele>1002.0</ele><time>2026-04-04T10:49:20.015Z</time></trkpt><trkpt lat="44.663098" lon="9.4413802"><ele>1002.0</ele><time>2026-04-04T10:49:21.007Z</time></trkpt><trkpt lat="44.6629693" lon="9.4414171"><ele>1002.0</ele><time>2026-04-04T10:49:22.038Z</time></trkpt><trkpt lat="44.6628286" lon="9.4413715"><ele>1001.6</ele><time>2026-04-04T10:49:23.062Z</time></trkpt><trkpt lat="44.6627074" lon="9.4412877"><ele>1001.2</ele><time>2026-04-04T10:49:24.037Z</time></trkpt><trkpt lat="44.6626164" lon="9.4412401"><ele>1000.8</ele><time>2026-04-04T10:49:24.998Z</time></trkpt><trkpt lat="44.6625374" lon="9.441248"><ele>1000.4</ele><time>2026-04-04T10:49:26.034Z</time></trkpt><trkpt lat="44.6624843" lon="9.4413106"><ele>1000.0</ele><time>2026-04-04T10:49:27.045Z</time></trkpt><trkpt lat="44.6624399" lon="9.441445"><ele>1000.0</ele><time>2026-04-04T10:49:28.041Z</time></trkpt><trkpt lat="44.6624054" lon="9.4416688"><ele>1000.0</ele><time>2026-04-04T10:49:29.03Z</time></trkpt><trkpt lat="44.6623593" lon="9.4419446"><ele>1000.0</ele><time>2026-04-04T10:49:30.038Z</time></trkpt><trkpt lat="44.6623058" lon="9.4422059"><ele>1004.0</ele><time>2026-04-04T10:49:31.029Z</time></trkpt><trkpt lat="44.6622668" lon="9.4424525"><ele>1008.0</ele><time>2026-04-04T10:49:32.035Z</time></trkpt><trkpt lat="44.6622267" lon="9.442691"><ele>1012.0</ele><time>2026-04-04T10:49:33.032Z</time></trkpt><trkpt lat="44.6621798" lon="9.4429225"><ele>1013.3333333333333</ele><time>2026-04-04T10:49:33.999Z</time></trkpt><trkpt lat="44.6621432" lon="9.4431659"><ele>1014.6666666666667</ele><time>2026-04-04T10:49:35.027Z</time></trkpt><trkpt lat="44.6621438" lon="9.4434119"><ele>1016.0</ele><time>2026-04-04T10:49:36.045Z</time></trkpt><trkpt lat="44.6621635" lon="9.4436732"><ele>1016.5</ele><time>2026-04-04T10:49:37.043Z</time></trkpt><trkpt lat="44.6621856" lon="9.443903"><ele>1017.0</ele><time>2026-04-04T10:49:38.055Z</time></trkpt><trkpt lat="44.6621708" lon="9.4440708"><ele>1017.5</ele><time>2026-04-04T10:49:39.032Z</time></trkpt><trkpt lat="44.6621051" lon="9.4441952"><ele>1018.0</ele><time>2026-04-04T10:49:40.022Z</time></trkpt><trkpt lat="44.6619965" lon="9.4442911"><ele>1016.25</ele><time>2026-04-04T10:49:41.014Z</time></trkpt><trkpt lat="44.6618787" lon="9.4443099"><ele>1014.5</ele><time>2026-04-04T10:49:42.033Z</time></trkpt><trkpt lat="44.6617371" lon="9.4442827"><ele>1012.75</ele><time>2026-04-04T10:49:43.042Z</time></trkpt><trkpt lat="44.6616399" lon="9.4441561"><ele>1011.0</ele><time>2026-04-04T10:49:44.003Z</time></trkpt><trkpt lat="44.6615676" lon="9.4439884"><ele>1011.0</ele><time>2026-04-04T10:49:45.026Z</time></trkpt><trkpt lat="44.6614906" lon="9.4438367"><ele>1011.0</ele><time>2026-04-04T10:49:46.021Z</time></trkpt><trkpt lat="44.66142" lon="9.4437247"><ele>1011.0</ele><time>2026-04-04T10:49:47.034Z</time></trkpt><trkpt lat="44.6612813" lon="9.4436856"><ele>1011.0</ele><time>2026-04-04T10:49:48.037Z</time></trkpt><trkpt lat="44.6611302" lon="9.4436779"><ele>1006.3333333333333</ele><time>2026-04-04T10:49:49.034Z</time></trkpt><trkpt lat="44.660948" lon="9.4436802"><ele>1001.6666666666666</ele><time>2026-04-04T10:49:50.044Z</time></trkpt><trkpt lat="44.6607524" lon="9.4436974"><ele>997.0</ele><time>2026-04-04T10:49:51.041Z</time></trkpt><trkpt lat="44.6605557" lon="9.4437218"><ele>997.0</ele><time>2026-04-04T10:49:52.05Z</time></trkpt><trkpt lat="44.660383" lon="9.4437587"><ele>997.0</ele><time>2026-04-04T10:49:53.039Z</time></trkpt><trkpt lat="44.6602529" lon="9.4437945"><ele>997.0</ele><time>2026-04-04T10:49:54.053Z</time></trkpt><trkpt lat="44.6601324" lon="9.4438932"><ele>997.0</ele><time>2026-04-04T10:49:55.009Z</time></trkpt><trkpt lat="44.6599993" lon="9.4440577"><ele>1002.6666666666666</ele><time>2026-04-04T10:49:56.03Z</time></trkpt><trkpt lat="44.6598581" lon="9.444264"><ele>1008.3333333333333</ele><time>2026-04-04T10:49:57.032Z</time></trkpt><trkpt lat="44.6596915" lon="9.4444625"><ele>1014.0</ele><time>2026-04-04T10:49:58.045Z</time></trkpt><trkpt lat="44.659501" lon="9.444682"><ele>1014.3333333333333</ele><time>2026-04-04T10:49:59.033Z</time></trkpt><trkpt lat="44.6593188" lon="9.4448918"><ele>1014.6666666666666</ele><time>2026-04-04T10:50:00.04Z</time></trkpt><trkpt lat="44.659167" lon="9.4450648"><ele>1015.0</ele><time>2026-04-04T10:50:01.042Z</time></trkpt><trkpt lat="44.6590271" lon="9.4452123"><ele>1015.0</ele><time>2026-04-04T10:50:02.044Z</time></trkpt><trkpt lat="44.6588653" lon="9.4452885"><ele>1015.0</ele><time>2026-04-04T10:50:03.05Z</time></trkpt><trkpt lat="44.6586576" lon="9.4453243"><ele>1015.0</ele><time>2026-04-04T10:50:04.051Z</time></trkpt><trkpt lat="44.658446" lon="9.4453488"><ele>1016.3333333333333</ele><time>2026-04-04T10:50:05.057Z</time></trkpt><trkpt lat="44.6582398" lon="9.4453652"><ele>1017.6666666666667</ele><time>2026-04-04T10:50:06.06Z</time></trkpt><trkpt lat="44.6580535" lon="9.4453429"><ele>1019.0</ele><time>2026-04-04T10:50:07.045Z</time></trkpt><trkpt lat="44.6578922" lon="9.4452971"><ele>1020.6666666666667</ele><time>2026-04-04T10:50:08.057Z</time></trkpt><trkpt lat="44.6577428" lon="9.4452475"><ele>1022.3333333333333</ele><time>2026-04-04T10:50:09.041Z</time></trkpt><trkpt lat="44.6575876" lon="9.4452091"><ele>1024.0</ele><time>2026-04-04T10:50:10.043Z</time></trkpt><trkpt lat="44.6574164" lon="9.4452085"><ele>1024.0</ele><time>2026-04-04T10:50:11.043Z</time></trkpt><trkpt lat="44.6572349" lon="9.4452531"><ele>1024.0</ele><time>2026-04-04T10:50:12.044Z</time></trkpt><trkpt lat="44.6570839" lon="9.4453255"><ele>1024.0</ele><time>2026-04-04T10:50:13.029Z</time></trkpt><trkpt lat="44.6569644" lon="9.445415"><ele>1028.3333333333333</ele><time>2026-04-04T10:50:14.045Z</time></trkpt><trkpt lat="44.6568513" lon="9.4455671"><ele>1032.6666666666667</ele><time>2026-04-04T10:50:15.047Z</time></trkpt><trkpt lat="44.6567228" lon="9.4457645"><ele>1037.0</ele><time>2026-04-04T10:50:16.013Z</time></trkpt><trkpt lat="44.656597" lon="9.4459177"><ele>1037.0</ele><time>2026-04-04T10:50:16.978Z</time></trkpt><trkpt lat="44.6564555" lon="9.445988"><ele>1037.0</ele><time>2026-04-04T10:50:18.016Z</time></trkpt><trkpt lat="44.6563054" lon="9.4459808"><ele>1037.0</ele><time>2026-04-04T10:50:19.036Z</time></trkpt><trkpt lat="44.6561529" lon="9.4459874"><ele>1035.3333333333335</ele><time>2026-04-04T10:50:20.048Z</time></trkpt><trkpt lat="44.6560146" lon="9.4460354"><ele>1033.6666666666667</ele><time>2026-04-04T10:50:21.008Z</time></trkpt><trkpt lat="44.6558677" lon="9.446157"><ele>1032.0</ele><time>2026-04-04T10:50:22.042Z</time></trkpt><trkpt lat="44.6557432" lon="9.4463139"><ele>1035.0</ele><time>2026-04-04T10:50:23.017Z</time></trkpt><trkpt lat="44.6556507" lon="9.4464608"><ele>1038.0</ele><time>2026-04-04T10:50:24.032Z</time></trkpt><trkpt lat="44.6556071" lon="9.446656"><ele>1041.0</ele><time>2026-04-04T10:50:25.048Z</time></trkpt><trkpt lat="44.6556051" lon="9.4468798"><ele>1044.0</ele><time>2026-04-04T10:50:26.037Z</time></trkpt><trkpt lat="44.6556259" lon="9.4471383"><ele>1045.6666666666667</ele><time>2026-04-04T10:50:26.982Z</time></trkpt><trkpt lat="44.6556664" lon="9.4474132"><ele>1047.3333333333335</ele><time>2026-04-04T10:50:28.005Z</time></trkpt><trkpt lat="44.6556869" lon="9.4476238"><ele>1049.0</ele><time>2026-04-04T10:50:29.014Z</time></trkpt><trkpt lat="44.6556742" lon="9.4477771"><ele>1049.0</ele><time>2026-04-04T10:50:30.045Z</time></trkpt><trkpt lat="44.6556082" lon="9.4479002"><ele>1049.0</ele><time>2026-04-04T10:50:31.037Z</time></trkpt><trkpt lat="44.655524" lon="9.4479773"><ele>1049.0</ele><time>2026-04-04T10:50:31.987Z</time></trkpt><trkpt lat="44.6553597" lon="9.4480051"><ele>1049.0</ele><time>2026-04-04T10:50:32.995Z</time></trkpt><trkpt lat="44.6552004" lon="9.4480421"><ele>1050.3333333333335</ele><time>2026-04-04T10:50:34.026Z</time></trkpt><trkpt lat="44.6550118" lon="9.448073"><ele>1051.6666666666667</ele><time>2026-04-04T10:50:35.021Z</time></trkpt><trkpt lat="44.6548429" lon="9.4481373"><ele>1053.0</ele><time>2026-04-04T10:50:36.023Z</time></trkpt><trkpt lat="44.6546982" lon="9.4482248"><ele>1053.0</ele><time>2026-04-04T10:50:36.992Z</time></trkpt><trkpt lat="44.6545588" lon="9.4482926"><ele>1053.0</ele><time>2026-04-04T10:50:37.997Z</time></trkpt><trkpt lat="44.6544408" lon="9.4484016"><ele>1053.0</ele><time>2026-04-04T10:50:39.026Z</time></trkpt><trkpt lat="44.6543475" lon="9.4486034"><ele>1053.0</ele><time>2026-04-04T10:50:40.036Z</time></trkpt><trkpt lat="44.654256" lon="9.4488536"><ele>1053.0</ele><time>2026-04-04T10:50:41.03Z</time></trkpt><trkpt lat="44.6541674" lon="9.4491366"><ele>1053.0</ele><time>2026-04-04T10:50:42.045Z</time></trkpt><trkpt lat="44.6540746" lon="9.4494147"><ele>1056.0</ele><time>2026-04-04T10:50:42.986Z</time></trkpt><trkpt lat="44.6540001" lon="9.4496761"><ele>1059.0</ele><time>2026-04-04T10:50:43.997Z</time></trkpt><trkpt lat="44.6539526" lon="9.4499244"><ele>1062.0</ele><time>2026-04-04T10:50:45.027Z</time></trkpt><trkpt lat="44.6539251" lon="9.4501568"><ele>1062.0</ele><time>2026-04-04T10:50:46.045Z</time></trkpt><trkpt lat="44.6539108" lon="9.4503685"><ele>1062.0</ele><time>2026-04-04T10:50:47.025Z</time></trkpt><trkpt lat="44.6539026" lon="9.4505615"><ele>1062.0</ele><time>2026-04-04T10:50:48.043Z</time></trkpt><trkpt lat="44.6539031" lon="9.4507087"><ele>1062.0</ele><time>2026-04-04T10:50:49.038Z</time></trkpt><trkpt lat="44.6539199" lon="9.4508135"><ele>1061.8333333333333</ele><time>2026-04-04T10:50:50.047Z</time></trkpt><trkpt lat="44.6539378" lon="9.4509062"><ele>1061.6666666666667</ele><time>2026-04-04T10:50:51.037Z</time></trkpt><trkpt lat="44.6539586" lon="9.4510009"><ele>1061.5</ele><time>2026-04-04T10:50:53.073Z</time></trkpt><trkpt lat="44.6539753" lon="9.4510894"><ele>1061.3333333333335</ele><time>2026-04-04T10:51:25.011Z</time></trkpt><trkpt lat="44.6540882" lon="9.4511913"><ele>1061.1666666666667</ele><time>2026-04-04T10:51:26.983Z</time></trkpt><trkpt lat="44.6541683" lon="9.4512639"><ele>1061.0</ele><time>2026-04-04T10:51:27.991Z</time></trkpt><trkpt lat="44.6542647" lon="9.4513314"><ele>1059.75</ele><time>2026-04-04T10:51:28.982Z</time></trkpt><trkpt lat="44.6543768" lon="9.4513925"><ele>1058.5</ele><time>2026-04-04T10:51:29.977Z</time></trkpt><trkpt lat="44.6545069" lon="9.4514243"><ele>1057.25</ele><time>2026-04-04T10:51:30.993Z</time></trkpt><trkpt lat="44.6546484" lon="9.4514582"><ele>1056.0</ele><time>2026-04-04T10:51:31.991Z</time></trkpt><trkpt lat="44.6547963" lon="9.4515264"><ele>1056.0</ele><time>2026-04-04T10:51:33.005Z</time></trkpt><trkpt lat="44.6549475" lon="9.4516346"><ele>1056.0</ele><time>2026-04-04T10:51:33.987Z</time></trkpt><trkpt lat="44.6550903" lon="9.4517648"><ele>1056.0</ele><time>2026-04-04T10:51:34.984Z</time></trkpt><trkpt lat="44.65523" lon="9.4519025"><ele>1056.5</ele><time>2026-04-04T10:51:35.985Z</time></trkpt><trkpt lat="44.6553561" lon="9.4520243"><ele>1057.0</ele><time>2026-04-04T10:51:36.989Z</time></trkpt><trkpt lat="44.6554695" lon="9.4521511"><ele>1057.5</ele><time>2026-04-04T10:51:37.977Z</time></trkpt><trkpt lat="44.6555666" lon="9.4522865"><ele>1058.0</ele><time>2026-04-04T10:51:39.004Z</time></trkpt><trkpt lat="44.6556415" lon="9.4524725"><ele>1058.0</ele><time>2026-04-04T10:51:39.983Z</time></trkpt><trkpt lat="44.6557097" lon="9.4526997"><ele>1058.0</ele><time>2026-04-04T10:51:41.027Z</time></trkpt><trkpt lat="44.6557899" lon="9.4529604"><ele>1058.0</ele><time>2026-04-04T10:51:41.993Z</time></trkpt><trkpt lat="44.655872" lon="9.4532541"><ele>1055.6666666666667</ele><time>2026-04-04T10:51:43.007Z</time></trkpt><trkpt lat="44.6559565" lon="9.4535455"><ele>1053.3333333333333</ele><time>2026-04-04T10:51:44.047Z</time></trkpt><trkpt lat="44.6560305" lon="9.453827"><ele>1051.0</ele><time>2026-04-04T10:51:45.011Z</time></trkpt><trkpt lat="44.6560832" lon="9.4540746"><ele>1053.0</ele><time>2026-04-04T10:51:46.053Z</time></trkpt><trkpt lat="44.656148" lon="9.4543041"><ele>1055.0</ele><time>2026-04-04T10:51:47.043Z</time></trkpt><trkpt lat="44.6562371" lon="9.4545095"><ele>1057.0</ele><time>2026-04-04T10:51:48.053Z</time></trkpt><trkpt lat="44.6563478" lon="9.4546808"><ele>1052.6666666666665</ele><time>2026-04-04T10:51:49.051Z</time></trkpt><trkpt lat="44.6564747" lon="9.4548059"><ele>1048.3333333333333</ele><time>2026-04-04T10:51:50.066Z</time></trkpt><trkpt lat="44.6566268" lon="9.4548865"><ele>1044.0</ele><time>2026-04-04T10:51:51.039Z</time></trkpt><trkpt lat="44.6567954" lon="9.4549251"><ele>1046.0</ele><time>2026-04-04T10:51:52.05Z</time></trkpt><trkpt lat="44.656955" lon="9.4549584"><ele>1048.0</ele><time>2026-04-04T10:51:53.055Z</time></trkpt><trkpt lat="44.6570855" lon="9.4549908"><ele>1050.0</ele><time>2026-04-04T10:51:54.017Z</time></trkpt><trkpt lat="44.6571828" lon="9.4550677"><ele>1052.0</ele><time>2026-04-04T10:51:54.996Z</time></trkpt><trkpt lat="44.6572093" lon="9.455201"><ele>1052.0</ele><time>2026-04-04T10:51:56.048Z</time></trkpt><trkpt lat="44.6572131" lon="9.4553783"><ele>1052.0</ele><time>2026-04-04T10:51:57.05Z</time></trkpt><trkpt lat="44.6571975" lon="9.4555739"><ele>1052.0</ele><time>2026-04-04T10:51:58.053Z</time></trkpt><trkpt lat="44.6571902" lon="9.455785"><ele>1052.0</ele><time>2026-04-04T10:51:59.051Z</time></trkpt><trkpt lat="44.6572361" lon="9.45603"><ele>1050.5</ele><time>2026-04-04T10:52:00.042Z</time></trkpt><trkpt lat="44.657318" lon="9.4562631"><ele>1049.0</ele><time>2026-04-04T10:52:01.065Z</time></trkpt><trkpt lat="44.6573984" lon="9.456416"><ele>1047.5</ele><time>2026-04-04T10:52:02.051Z</time></trkpt><trkpt lat="44.6574872" lon="9.4565362"><ele>1046.0</ele><time>2026-04-04T10:52:03.036Z</time></trkpt><trkpt lat="44.6576176" lon="9.4565548"><ele>1042.3333333333335</ele><time>2026-04-04T10:52:04.098Z</time></trkpt><trkpt lat="44.657777" lon="9.4565342"><ele>1038.6666666666667</ele><time>2026-04-04T10:52:05.056Z</time></trkpt><trkpt lat="44.6579564" lon="9.4564865"><ele>1035.0</ele><time>2026-04-04T10:52:06.052Z</time></trkpt><trkpt lat="44.6581563" lon="9.4564162"><ele>1034.5</ele><time>2026-04-04T10:52:07.042Z</time></trkpt><trkpt lat="44.6583832" lon="9.4563492"><ele>1034.0</ele><time>2026-04-04T10:52:08.058Z</time></trkpt><trkpt lat="44.6586178" lon="9.4563181"><ele>1034.0</ele><time>2026-04-04T10:52:09Z</time></trkpt><trkpt lat="44.6588703" lon="9.4563497"><ele>1034.0</ele><time>2026-04-04T10:52:10.038Z</time></trkpt><trkpt lat="44.6591481" lon="9.4564312"><ele>1034.0</ele><time>2026-04-04T10:52:11.047Z</time></trkpt><trkpt lat="44.6594328" lon="9.456519"><ele>1034.0</ele><time>2026-04-04T10:52:12.041Z</time></trkpt><trkpt lat="44.6597164" lon="9.4566165"><ele>1033.3333333333335</ele><time>2026-04-04T10:52:13.038Z</time></trkpt><trkpt lat="44.6599455" lon="9.4566902"><ele>1032.6666666666667</ele><time>2026-04-04T10:52:14.039Z</time></trkpt><trkpt lat="44.6601251" lon="9.45676"><ele>1032.0</ele><time>2026-04-04T10:52:15.013Z</time></trkpt><trkpt lat="44.6602553" lon="9.4568271"><ele>1031.5</ele><time>2026-04-04T10:52:16.068Z</time></trkpt><trkpt lat="44.6603882" lon="9.4569255"><ele>1031.0</ele><time>2026-04-04T10:52:17.058Z</time></trkpt><trkpt lat="44.6605014" lon="9.457071"><ele>1030.5</ele><time>2026-04-04T10:52:18.031Z</time></trkpt><trkpt lat="44.6605816" lon="9.4572069"><ele>1030.0</ele><time>2026-04-04T10:52:19.033Z</time></trkpt><trkpt lat="44.6606571" lon="9.4572747"><ele>1030.0</ele><time>2026-04-04T10:52:20.037Z</time></trkpt><trkpt lat="44.6607583" lon="9.4572723"><ele>1030.0</ele><time>2026-04-04T10:52:21.016Z</time></trkpt><trkpt lat="44.6608671" lon="9.457223"><ele>1030.0</ele><time>2026-04-04T10:52:22.019Z</time></trkpt><trkpt lat="44.6609741" lon="9.4570717"><ele>1030.0</ele><time>2026-04-04T10:52:23.033Z</time></trkpt><trkpt lat="44.6610876" lon="9.4568939"><ele>1028.0</ele><time>2026-04-04T10:52:24.047Z</time></trkpt><trkpt lat="44.6612303" lon="9.4567566"><ele>1026.0</ele><time>2026-04-04T10:52:25.027Z</time></trkpt><trkpt lat="44.6614162" lon="9.4566772"><ele>1024.0</ele><time>2026-04-04T10:52:25.972Z</time></trkpt><trkpt lat="44.6616191" lon="9.456654"><ele>1024.0</ele><time>2026-04-04T10:52:27.029Z</time></trkpt><trkpt lat="44.6618329" lon="9.4566387"><ele>1024.0</ele><time>2026-04-04T10:52:28.045Z</time></trkpt><trkpt lat="44.66201" lon="9.45665"><ele>1024.0</ele><time>2026-04-04T10:52:29.029Z</time></trkpt><trkpt lat="44.6621585" lon="9.4566849"><ele>1023.25</ele><time>2026-04-04T10:52:30.037Z</time></trkpt><trkpt lat="44.6622839" lon="9.4567404"><ele>1022.5</ele><time>2026-04-04T10:52:31.049Z</time></trkpt><trkpt lat="44.6623615" lon="9.4568639"><ele>1021.75</ele><time>2026-04-04T10:52:32.048Z</time></trkpt><trkpt lat="44.6623998" lon="9.457067"><ele>1021.0</ele><time>2026-04-04T10:52:33.019Z</time></trkpt><trkpt lat="44.6624121" lon="9.4573253"><ele>1018.5</ele><time>2026-04-04T10:52:34.047Z</time></trkpt><trkpt lat="44.6624297" lon="9.4576503"><ele>1016.0</ele><time>2026-04-04T10:52:35.039Z</time></trkpt><trkpt lat="44.6624372" lon="9.4580109"><ele>1016.0</ele><time>2026-04-04T10:52:36.036Z</time></trkpt><trkpt lat="44.6624417" lon="9.4583702"><ele>1016.0</ele><time>2026-04-04T10:52:36.999Z</time></trkpt><trkpt lat="44.6624416" lon="9.4587142"><ele>1013.0</ele><time>2026-04-04T10:52:38.048Z</time></trkpt><trkpt lat="44.6624126" lon="9.4590703"><ele>1010.0</ele><time>2026-04-04T10:52:39.041Z</time></trkpt><trkpt lat="44.6623665" lon="9.4594458"><ele>1009.0</ele><time>2026-04-04T10:52:39.98Z</time></trkpt><trkpt lat="44.6623148" lon="9.4598111"><ele>1008.0</ele><time>2026-04-04T10:52:41.05Z</time></trkpt><trkpt lat="44.6622685" lon="9.4601408"><ele>1008.0</ele><time>2026-04-04T10:52:42.026Z</time></trkpt><trkpt lat="44.6622316" lon="9.4604413"><ele>1008.0</ele><time>2026-04-04T10:52:43.013Z</time></trkpt><trkpt lat="44.6622026" lon="9.4606891"><ele>1008.0</ele><time>2026-04-04T10:52:44.041Z</time></trkpt><trkpt lat="44.6621761" lon="9.4609018"><ele>1007.0</ele><time>2026-04-04T10:52:45.053Z</time></trkpt><trkpt lat="44.6621545" lon="9.461075"><ele>1006.0</ele><time>2026-04-04T10:52:46.051Z</time></trkpt><trkpt lat="44.6621593" lon="9.4612235"><ele>1005.0</ele><time>2026-04-04T10:52:47.038Z</time></trkpt><trkpt lat="44.6622105" lon="9.4613648"><ele>1004.0</ele><time>2026-04-04T10:52:48.018Z</time></trkpt><trkpt lat="44.6623063" lon="9.4615104"><ele>1004.3333333333334</ele><time>2026-04-04T10:52:49.034Z</time></trkpt><trkpt lat="44.6624812" lon="9.4616548"><ele>1004.6666666666667</ele><time>2026-04-04T10:52:50.041Z</time></trkpt><trkpt lat="44.6626686" lon="9.4618249"><ele>1005.0</ele><time>2026-04-04T10:52:51.021Z</time></trkpt><trkpt lat="44.6628591" lon="9.4619838"><ele>1002.25</ele><time>2026-04-04T10:52:52.053Z</time></trkpt><trkpt lat="44.6629963" lon="9.4621167"><ele>999.5</ele><time>2026-04-04T10:52:53.051Z</time></trkpt><trkpt lat="44.6630976" lon="9.4621995"><ele>996.75</ele><time>2026-04-04T10:52:54.047Z</time></trkpt><trkpt lat="44.6631775" lon="9.4623057"><ele>994.0</ele><time>2026-04-04T10:52:55.048Z</time></trkpt><trkpt lat="44.663235" lon="9.4624375"><ele>994.0</ele><time>2026-04-04T10:52:56.051Z</time></trkpt><trkpt lat="44.6632692" lon="9.4625892"><ele>994.0</ele><time>2026-04-04T10:52:57.047Z</time></trkpt><trkpt lat="44.6632883" lon="9.4627839"><ele>994.0</ele><time>2026-04-04T10:52:58.049Z</time></trkpt><trkpt lat="44.6633168" lon="9.462957"><ele>994.0</ele><time>2026-04-04T10:52:59.052Z</time></trkpt><trkpt lat="44.663342" lon="9.4631338"><ele>993.6666666666666</ele><time>2026-04-04T10:53:00.053Z</time></trkpt><trkpt lat="44.6634291" lon="9.4633166"><ele>993.3333333333333</ele><time>2026-04-04T10:53:01.051Z</time></trkpt><trkpt lat="44.6635691" lon="9.4635117"><ele>993.0</ele><time>2026-04-04T10:53:02.053Z</time></trkpt><trkpt lat="44.6637251" lon="9.4637145"><ele>990.3333333333333</ele><time>2026-04-04T10:53:03.058Z</time></trkpt><trkpt lat="44.6638854" lon="9.4639276"><ele>987.6666666666666</ele><time>2026-04-04T10:53:04.06Z</time></trkpt><trkpt lat="44.6640339" lon="9.4641209"><ele>985.0</ele><time>2026-04-04T10:53:05.052Z</time></trkpt><trkpt lat="44.6641705" lon="9.4643162"><ele>985.0</ele><time>2026-04-04T10:53:06.047Z</time></trkpt><trkpt lat="44.6642967" lon="9.4644723"><ele>985.0</ele><time>2026-04-04T10:53:07.066Z</time></trkpt><trkpt lat="44.6644031" lon="9.4645508"><ele>985.0</ele><time>2026-04-04T10:53:08.001Z</time></trkpt><trkpt lat="44.6645073" lon="9.4645968"><ele>985.0</ele><time>2026-04-04T10:53:09.047Z</time></trkpt><trkpt lat="44.6646374" lon="9.4645825"><ele>985.3333333333333</ele><time>2026-04-04T10:53:10.015Z</time></trkpt><trkpt lat="44.6647818" lon="9.4645585"><ele>985.6666666666667</ele><time>2026-04-04T10:53:11.021Z</time></trkpt><trkpt lat="44.6649495" lon="9.4645509"><ele>986.0</ele><time>2026-04-04T10:53:12.053Z</time></trkpt><trkpt lat="44.6651318" lon="9.4646017"><ele>985.0</ele><time>2026-04-04T10:53:13.06Z</time></trkpt><trkpt lat="44.6652805" lon="9.4647467"><ele>984.0</ele><time>2026-04-04T10:53:14.029Z</time></trkpt><trkpt lat="44.6654364" lon="9.4649044"><ele>983.0</ele><time>2026-04-04T10:53:15.053Z</time></trkpt><trkpt lat="44.6655976" lon="9.4651243"><ele>983.0</ele><time>2026-04-04T10:53:16.041Z</time></trkpt><trkpt lat="44.6657593" lon="9.4653507"><ele>983.0</ele><time>2026-04-04T10:53:17.066Z</time></trkpt><trkpt lat="44.6659086" lon="9.4655532"><ele>983.0</ele><time>2026-04-04T10:53:18.06Z</time></trkpt><trkpt lat="44.6660337" lon="9.4657211"><ele>982.75</ele><time>2026-04-04T10:53:19.048Z</time></trkpt><trkpt lat="44.6661184" lon="9.4658777"><ele>982.5</ele><time>2026-04-04T10:53:20.049Z</time></trkpt><trkpt lat="44.6661782" lon="9.4660649"><ele>982.25</ele><time>2026-04-04T10:53:21.042Z</time></trkpt><trkpt lat="44.6661842" lon="9.4662873"><ele>982.0</ele><time>2026-04-04T10:53:22.063Z</time></trkpt><trkpt lat="44.6661324" lon="9.4665906"><ele>976.0</ele><time>2026-04-04T10:53:23.038Z</time></trkpt><trkpt lat="44.6660747" lon="9.4669208"><ele>970.0</ele><time>2026-04-04T10:53:24.04Z</time></trkpt><trkpt lat="44.6660229" lon="9.4672565"><ele>969.0</ele><time>2026-04-04T10:53:25.015Z</time></trkpt><trkpt lat="44.665962" lon="9.4675757"><ele>968.0</ele><time>2026-04-04T10:53:25.99Z</time></trkpt><trkpt lat="44.6659069" lon="9.4678555"><ele>967.0</ele><time>2026-04-04T10:53:27.032Z</time></trkpt><trkpt lat="44.6658437" lon="9.468092"><ele>965.75</ele><time>2026-04-04T10:53:28.063Z</time></trkpt><trkpt lat="44.6657763" lon="9.4682881"><ele>964.5</ele><time>2026-04-04T10:53:29.046Z</time></trkpt><trkpt lat="44.6656807" lon="9.4684271"><ele>963.25</ele><time>2026-04-04T10:53:30.049Z</time></trkpt><trkpt lat="44.6655482" lon="9.4685075"><ele>962.0</ele><time>2026-04-04T10:53:31.028Z</time></trkpt><trkpt lat="44.6654157" lon="9.4685007"><ele>962.0</ele><time>2026-04-04T10:53:32.053Z</time></trkpt><trkpt lat="44.6652932" lon="9.4684588"><ele>962.0</ele><time>2026-04-04T10:53:33.055Z</time></trkpt><trkpt lat="44.6651437" lon="9.4683669"><ele>962.0</ele><time>2026-04-04T10:53:34.046Z</time></trkpt><trkpt lat="44.664972" lon="9.4682429"><ele>963.0</ele><time>2026-04-04T10:53:35.064Z</time></trkpt><trkpt lat="44.6647583" lon="9.4680967"><ele>964.0</ele><time>2026-04-04T10:53:36.072Z</time></trkpt><trkpt lat="44.6645068" lon="9.4679268"><ele>959.5</ele><time>2026-04-04T10:53:37.02Z</time></trkpt><trkpt lat="44.6642437" lon="9.4677647"><ele>955.0</ele><time>2026-04-04T10:53:38.053Z</time></trkpt><trkpt lat="44.6639981" lon="9.467607"><ele>955.0</ele><time>2026-04-04T10:53:39.059Z</time></trkpt><trkpt lat="44.6637767" lon="9.4674778"><ele>955.0</ele><time>2026-04-04T10:53:40.054Z</time></trkpt><trkpt lat="44.6635987" lon="9.4673808"><ele>955.0</ele><time>2026-04-04T10:53:41.052Z</time></trkpt><trkpt lat="44.6634475" lon="9.4672944"><ele>953.8</ele><time>2026-04-04T10:53:42.04Z</time></trkpt><trkpt lat="44.6633373" lon="9.4672378"><ele>952.6</ele><time>2026-04-04T10:53:43.03Z</time></trkpt><trkpt lat="44.6632502" lon="9.4672199"><ele>951.4000000000001</ele><time>2026-04-04T10:53:44.064Z</time></trkpt><trkpt lat="44.6631792" lon="9.4672624"><ele>950.2</ele><time>2026-04-04T10:53:45.055Z</time></trkpt><trkpt lat="44.663129" lon="9.4673659"><ele>949.0</ele><time>2026-04-04T10:53:46.043Z</time></trkpt><trkpt lat="44.6631055" lon="9.4675051"><ele>949.0</ele><time>2026-04-04T10:53:47.045Z</time></trkpt><trkpt lat="44.6631482" lon="9.4676974"><ele>949.0</ele><time>2026-04-04T10:53:48.033Z</time></trkpt><trkpt lat="44.6632406" lon="9.4679234"><ele>949.0</ele><time>2026-04-04T10:53:49.045Z</time></trkpt><trkpt lat="44.6633507" lon="9.4681985"><ele>944.0</ele><time>2026-04-04T10:53:50.043Z</time></trkpt><trkpt lat="44.6634539" lon="9.4685292"><ele>939.0</ele><time>2026-04-04T10:53:51.027Z</time></trkpt><trkpt lat="44.6635771" lon="9.4688471"><ele>938.0</ele><time>2026-04-04T10:53:52.041Z</time></trkpt><trkpt lat="44.6636924" lon="9.469166"><ele>937.0</ele><time>2026-04-04T10:53:53.056Z</time></trkpt><trkpt lat="44.6637948" lon="9.4694483"><ele>933.6666666666666</ele><time>2026-04-04T10:53:54.045Z</time></trkpt><trkpt lat="44.6638988" lon="9.4697025"><ele>930.3333333333333</ele><time>2026-04-04T10:53:55.039Z</time></trkpt><trkpt lat="44.6640343" lon="9.4699438"><ele>927.0</ele><time>2026-04-04T10:53:56.025Z</time></trkpt><trkpt lat="44.6641905" lon="9.4701797"><ele>927.0</ele><time>2026-04-04T10:53:57.055Z</time></trkpt><trkpt lat="44.6643385" lon="9.4703991"><ele>927.0</ele><time>2026-04-04T10:53:58.073Z</time></trkpt><trkpt lat="44.6644664" lon="9.4705864"><ele>927.0</ele><time>2026-04-04T10:53:59.075Z</time></trkpt><trkpt lat="44.664566" lon="9.470722"><ele>926.2</ele><time>2026-04-04T10:54:00.067Z</time></trkpt><trkpt lat="44.6646535" lon="9.4708309"><ele>925.4000000000001</ele><time>2026-04-04T10:54:01.052Z</time></trkpt><trkpt lat="44.6647017" lon="9.4709372"><ele>924.5999999999999</ele><time>2026-04-04T10:54:02.052Z</time></trkpt><trkpt lat="44.6647109" lon="9.471058"><ele>923.8</ele><time>2026-04-04T10:54:03.039Z</time></trkpt><trkpt lat="44.6646655" lon="9.471171"><ele>923.0</ele><time>2026-04-04T10:54:04.033Z</time></trkpt><trkpt lat="44.6645695" lon="9.4712456"><ele>923.0</ele><time>2026-04-04T10:54:05.017Z</time></trkpt><trkpt lat="44.6644475" lon="9.4712378"><ele>923.0</ele><time>2026-04-04T10:54:06.027Z</time></trkpt><trkpt lat="44.6643098" lon="9.4711754"><ele>923.0</ele><time>2026-04-04T10:54:07.046Z</time></trkpt><trkpt lat="44.6641271" lon="9.4710607"><ele>922.0</ele><time>2026-04-04T10:54:08.028Z</time></trkpt><trkpt lat="44.6639296" lon="9.4709348"><ele>921.0</ele><time>2026-04-04T10:54:09.07Z</time></trkpt><trkpt lat="44.6637153" lon="9.4708356"><ele>920.0</ele><time>2026-04-04T10:54:10.046Z</time></trkpt><trkpt lat="44.663522" lon="9.4707418"><ele>919.0</ele><time>2026-04-04T10:54:11.061Z</time></trkpt><trkpt lat="44.6633589" lon="9.4706464"><ele>918.0</ele><time>2026-04-04T10:54:12.059Z</time></trkpt><trkpt lat="44.663214" lon="9.4705256"><ele>917.0</ele><time>2026-04-04T10:54:13.022Z</time></trkpt><trkpt lat="44.6630806" lon="9.470363"><ele>917.0</ele><time>2026-04-04T10:54:14.039Z</time></trkpt><trkpt lat="44.6629527" lon="9.4701945"><ele>917.0</ele><time>2026-04-04T10:54:15.04Z</time></trkpt><trkpt lat="44.6628471" lon="9.4700569"><ele>917.0</ele><time>2026-04-04T10:54:16.046Z</time></trkpt><trkpt lat="44.6627431" lon="9.4699785"><ele>917.0</ele><time>2026-04-04T10:54:17.053Z</time></trkpt><trkpt lat="44.6626609" lon="9.4699313"><ele>914.75</ele><time>2026-04-04T10:54:18.061Z</time></trkpt><trkpt lat="44.6625571" lon="9.470056"><ele>912.5</ele><time>2026-04-04T10:54:20.035Z</time></trkpt><trkpt lat="44.6625347" lon="9.4702077"><ele>910.25</ele><time>2026-04-04T10:54:21.052Z</time></trkpt><trkpt lat="44.6626126" lon="9.4703167"><ele>908.0</ele><time>2026-04-04T10:54:22.026Z</time></trkpt><trkpt lat="44.6627345" lon="9.470435"><ele>907.6666666666667</ele><time>2026-04-04T10:54:23.017Z</time></trkpt><trkpt lat="44.6628706" lon="9.470561"><ele>907.3333333333333</ele><time>2026-04-04T10:54:24.044Z</time></trkpt><trkpt lat="44.6629884" lon="9.4706915"><ele>907.0</ele><time>2026-04-04T10:54:25.028Z</time></trkpt><trkpt lat="44.6630523" lon="9.4709096"><ele>907.0</ele><time>2026-04-04T10:54:26.027Z</time></trkpt><trkpt lat="44.6631102" lon="9.4711498"><ele>907.0</ele><time>2026-04-04T10:54:27.026Z</time></trkpt><trkpt lat="44.6631727" lon="9.4713577"><ele>907.0</ele><time>2026-04-04T10:54:28.043Z</time></trkpt><trkpt lat="44.6632896" lon="9.471497"><ele>908.0</ele><time>2026-04-04T10:54:29.057Z</time></trkpt><trkpt lat="44.6634469" lon="9.4716181"><ele>909.0</ele><time>2026-04-04T10:54:30.008Z</time></trkpt><trkpt lat="44.6635868" lon="9.4717318"><ele>910.0</ele><time>2026-04-04T10:54:31.027Z</time></trkpt><trkpt lat="44.6636833" lon="9.4718508"><ele>910.0</ele><time>2026-04-04T10:54:32.06Z</time></trkpt><trkpt lat="44.6637244" lon="9.4719994"><ele>910.0</ele><time>2026-04-04T10:54:33.033Z</time></trkpt><trkpt lat="44.6637351" lon="9.4722155"><ele>910.0</ele><time>2026-04-04T10:54:34.046Z</time></trkpt><trkpt lat="44.6636729" lon="9.4724775"><ele>900.5</ele><time>2026-04-04T10:54:35.057Z</time></trkpt><trkpt lat="44.6635978" lon="9.4727623"><ele>891.0</ele><time>2026-04-04T10:54:36.044Z</time></trkpt><trkpt lat="44.6635237" lon="9.4730748"><ele>889.6666666666667</ele><time>2026-04-04T10:54:37.059Z</time></trkpt><trkpt lat="44.6635073" lon="9.4733655"><ele>888.3333333333334</ele><time>2026-04-04T10:54:38.065Z</time></trkpt><trkpt lat="44.6635182" lon="9.4736806"><ele>887.0</ele><time>2026-04-04T10:54:39.006Z</time></trkpt><trkpt lat="44.6635349" lon="9.4739739"><ele>886.25</ele><time>2026-04-04T10:54:40.054Z</time></trkpt><trkpt lat="44.663601" lon="9.4742325"><ele>885.5</ele><time>2026-04-04T10:54:41.051Z</time></trkpt><trkpt lat="44.6636647" lon="9.4744206"><ele>884.75</ele><time>2026-04-04T10:54:42.039Z</time></trkpt><trkpt lat="44.663722" lon="9.474538"><ele>884.0</ele><time>2026-04-04T10:54:43.053Z</time></trkpt><trkpt lat="44.6637299" lon="9.4746529"><ele>883.4000000000001</ele><time>2026-04-04T10:54:44.046Z</time></trkpt><trkpt lat="44.6636672" lon="9.4747588"><ele>882.8000000000001</ele><time>2026-04-04T10:54:45.034Z</time></trkpt><trkpt lat="44.6635906" lon="9.4747976"><ele>882.1999999999999</ele><time>2026-04-04T10:54:46.075Z</time></trkpt><trkpt lat="44.6634689" lon="9.4747826"><ele>881.5999999999999</ele><time>2026-04-04T10:54:47.002Z</time></trkpt><trkpt lat="44.6633505" lon="9.4746891"><ele>881.0</ele><time>2026-04-04T10:54:48.047Z</time></trkpt><trkpt lat="44.6632767" lon="9.4745228"><ele>881.0</ele><time>2026-04-04T10:54:49.034Z</time></trkpt><trkpt lat="44.6632124" lon="9.474286"><ele>881.0</ele><time>2026-04-04T10:54:50.04Z</time></trkpt><trkpt lat="44.6631463" lon="9.4740505"><ele>881.0</ele><time>2026-04-04T10:54:51.032Z</time></trkpt><trkpt lat="44.6630832" lon="9.4738794"><ele>881.0000000000001</ele><time>2026-04-04T10:54:52.025Z</time></trkpt><trkpt lat="44.6630398" lon="9.473789"><ele>881.0</ele><time>2026-04-04T10:54:53.04Z</time></trkpt><trkpt lat="44.6629697" lon="9.4737437"><ele>881.0</ele><time>2026-04-04T10:54:54.045Z</time></trkpt><trkpt lat="44.6628806" lon="9.4737624"><ele>881.0</ele><time>2026-04-04T10:54:55.049Z</time></trkpt><trkpt lat="44.6628081" lon="9.4738443"><ele>881.0000000000001</ele><time>2026-04-04T10:54:56.04Z</time></trkpt><trkpt lat="44.6627922" lon="9.473987"><ele>881.0</ele><time>2026-04-04T10:54:57.031Z</time></trkpt><trkpt lat="44.66284" lon="9.4741598"><ele>881.0</ele><time>2026-04-04T10:54:58.049Z</time></trkpt><trkpt lat="44.6629465" lon="9.4743795"><ele>881.0</ele><time>2026-04-04T10:54:59.049Z</time></trkpt><trkpt lat="44.6630529" lon="9.4746448"><ele>881.0</ele><time>2026-04-04T10:55:00.043Z</time></trkpt><trkpt lat="44.6631488" lon="9.4749396"><ele>878.0</ele><time>2026-04-04T10:55:01.052Z</time></trkpt><trkpt lat="44.6632261" lon="9.4752661"><ele>875.0</ele><time>2026-04-04T10:55:02.038Z</time></trkpt><trkpt lat="44.6632661" lon="9.4755768"><ele>873.6</ele><time>2026-04-04T10:55:03.063Z</time></trkpt><trkpt lat="44.6632705" lon="9.4758214"><ele>872.2</ele><time>2026-04-04T10:55:04.023Z</time></trkpt><trkpt lat="44.6632716" lon="9.4759856"><ele>870.8</ele><time>2026-04-04T10:55:05.019Z</time></trkpt><trkpt lat="44.6633006" lon="9.4761008"><ele>869.4</ele><time>2026-04-04T10:55:06.046Z</time></trkpt><trkpt lat="44.663354" lon="9.4761662"><ele>868.0</ele><time>2026-04-04T10:55:07.039Z</time></trkpt><trkpt lat="44.6634325" lon="9.4761901"><ele>868.0</ele><time>2026-04-04T10:55:08.034Z</time></trkpt><trkpt lat="44.6635281" lon="9.4762176"><ele>868.0</ele><time>2026-04-04T10:55:09.028Z</time></trkpt><trkpt lat="44.66363" lon="9.4762294"><ele>868.0</ele><time>2026-04-04T10:55:10.026Z</time></trkpt><trkpt lat="44.6637259" lon="9.4762782"><ele>868.0</ele><time>2026-04-04T10:55:11.033Z</time></trkpt><trkpt lat="44.6638012" lon="9.4764059"><ele>868.0</ele><time>2026-04-04T10:55:12.019Z</time></trkpt><trkpt lat="44.6638708" lon="9.4765702"><ele>871.3333333333333</ele><time>2026-04-04T10:55:13.012Z</time></trkpt><trkpt lat="44.6639097" lon="9.4767677"><ele>874.6666666666667</ele><time>2026-04-04T10:55:13.992Z</time></trkpt><trkpt lat="44.6638806" lon="9.4770137"><ele>878.0</ele><time>2026-04-04T10:55:15.002Z</time></trkpt><trkpt lat="44.6637961" lon="9.4773042"><ele>880.0</ele><time>2026-04-04T10:55:16.007Z</time></trkpt><trkpt lat="44.6637306" lon="9.4776019"><ele>882.0</ele><time>2026-04-04T10:55:17.014Z</time></trkpt><trkpt lat="44.6636837" lon="9.4778633"><ele>884.0</ele><time>2026-04-04T10:55:18.021Z</time></trkpt><trkpt lat="44.6636835" lon="9.4780979"><ele>884.0</ele><time>2026-04-04T10:55:19.038Z</time></trkpt><trkpt lat="44.6636715" lon="9.478326"><ele>884.0</ele><time>2026-04-04T10:55:20.04Z</time></trkpt><trkpt lat="44.6636781" lon="9.4785367"><ele>884.0</ele><time>2026-04-04T10:55:21.038Z</time></trkpt><trkpt lat="44.6637002" lon="9.4787245"><ele>884.0</ele><time>2026-04-04T10:55:22.034Z</time></trkpt><trkpt lat="44.6637102" lon="9.4789081"><ele>882.75</ele><time>2026-04-04T10:55:23.045Z</time></trkpt><trkpt lat="44.6636955" lon="9.4790798"><ele>881.5</ele><time>2026-04-04T10:55:24.029Z</time></trkpt><trkpt lat="44.6636398" lon="9.4792471"><ele>880.25</ele><time>2026-04-04T10:55:25.069Z</time></trkpt><trkpt lat="44.6635865" lon="9.4794173"><ele>879.0</ele><time>2026-04-04T10:55:26.038Z</time></trkpt><trkpt lat="44.6635628" lon="9.4795984"><ele>876.5</ele><time>2026-04-04T10:55:27.052Z</time></trkpt><trkpt lat="44.6636029" lon="9.4797509"><ele>874.0</ele><time>2026-04-04T10:55:28.051Z</time></trkpt><trkpt lat="44.6636872" lon="9.4799109"><ele>871.5</ele><time>2026-04-04T10:55:29.042Z</time></trkpt><trkpt lat="44.6637855" lon="9.480092"><ele>869.0</ele><time>2026-04-04T10:55:30.021Z</time></trkpt><trkpt lat="44.6638846" lon="9.480306"><ele>867.3333333333334</ele><time>2026-04-04T10:55:31.035Z</time></trkpt><trkpt lat="44.6639739" lon="9.48054"><ele>865.6666666666667</ele><time>2026-04-04T10:55:32.02Z</time></trkpt><trkpt lat="44.6640571" lon="9.4807734"><ele>864.0</ele><time>2026-04-04T10:55:32.994Z</time></trkpt><trkpt lat="44.6641269" lon="9.4809453"><ele>864.0</ele><time>2026-04-04T10:55:34.053Z</time></trkpt><trkpt lat="44.664142" lon="9.4810673"><ele>864.0</ele><time>2026-04-04T10:55:35.042Z</time></trkpt><trkpt lat="44.6641279" lon="9.4812124"><ele>864.0</ele><time>2026-04-04T10:55:36.044Z</time></trkpt><trkpt lat="44.6640362" lon="9.4813459"><ele>864.0</ele><time>2026-04-04T10:55:37.032Z</time></trkpt><trkpt lat="44.663873" lon="9.4814464"><ele>867.0</ele><time>2026-04-04T10:55:38.009Z</time></trkpt><trkpt lat="44.6637002" lon="9.4815168"><ele>870.0</ele><time>2026-04-04T10:55:39.044Z</time></trkpt><trkpt lat="44.6635454" lon="9.4815931"><ele>873.0</ele><time>2026-04-04T10:55:40.027Z</time></trkpt><trkpt lat="44.6633862" lon="9.4817599"><ele>868.5</ele><time>2026-04-04T10:55:41.048Z</time></trkpt><trkpt lat="44.663207" lon="9.4820161"><ele>864.0</ele><time>2026-04-04T10:55:42.027Z</time></trkpt><trkpt lat="44.6630233" lon="9.4822906"><ele>864.0</ele><time>2026-04-04T10:55:43.021Z</time></trkpt><trkpt lat="44.6628289" lon="9.4825896"><ele>864.0</ele><time>2026-04-04T10:55:44.032Z</time></trkpt><trkpt lat="44.662638" lon="9.482868"><ele>856.5</ele><time>2026-04-04T10:55:45.049Z</time></trkpt><trkpt lat="44.6624678" lon="9.483122"><ele>849.0</ele><time>2026-04-04T10:55:46.026Z</time></trkpt><trkpt lat="44.6622942" lon="9.4833448"><ele>849.0</ele><time>2026-04-04T10:55:47.021Z</time></trkpt><trkpt lat="44.6621195" lon="9.4835235"><ele>849.0</ele><time>2026-04-04T10:55:48.008Z</time></trkpt><trkpt lat="44.6619558" lon="9.483669"><ele>849.0</ele><time>2026-04-04T10:55:49.033Z</time></trkpt><trkpt lat="44.6618007" lon="9.4837897"><ele>846.0</ele><time>2026-04-04T10:55:50.051Z</time></trkpt><trkpt lat="44.6615993" lon="9.4838913"><ele>843.0</ele><time>2026-04-04T10:55:51.052Z</time></trkpt><trkpt lat="44.6613554" lon="9.4839408"><ele>838.5</ele><time>2026-04-04T10:55:52.051Z</time></trkpt><trkpt lat="44.6611122" lon="9.4839893"><ele>834.0</ele><time>2026-04-04T10:55:53.038Z</time></trkpt><trkpt lat="44.6608996" lon="9.4840168"><ele>834.0</ele><time>2026-04-04T10:55:54.017Z</time></trkpt><trkpt lat="44.6607112" lon="9.4840388"><ele>834.0</ele><time>2026-04-04T10:55:55.059Z</time></trkpt><trkpt lat="44.6605238" lon="9.4840097"><ele>834.0</ele><time>2026-04-04T10:55:56.036Z</time></trkpt><trkpt lat="44.6603359" lon="9.4839752"><ele>831.6666666666667</ele><time>2026-04-04T10:55:57.036Z</time></trkpt><trkpt lat="44.6601442" lon="9.4839571"><ele>829.3333333333334</ele><time>2026-04-04T10:55:58.056Z</time></trkpt><trkpt lat="44.6599911" lon="9.4839562"><ele>827.0</ele><time>2026-04-04T10:55:59.035Z</time></trkpt><trkpt lat="44.6598697" lon="9.4839567"><ele>827.0</ele><time>2026-04-04T10:56:00.045Z</time></trkpt><trkpt lat="44.6597468" lon="9.4839999"><ele>827.0</ele><time>2026-04-04T10:56:01.047Z</time></trkpt><trkpt lat="44.659615" lon="9.4840987"><ele>827.0</ele><time>2026-04-04T10:56:02.038Z</time></trkpt><trkpt lat="44.6594934" lon="9.4842726"><ele>827.0</ele><time>2026-04-04T10:56:03.028Z</time></trkpt><trkpt lat="44.6593827" lon="9.4844668"><ele>824.3333333333334</ele><time>2026-04-04T10:56:04.027Z</time></trkpt><trkpt lat="44.6592755" lon="9.4846752"><ele>821.6666666666667</ele><time>2026-04-04T10:56:05.045Z</time></trkpt><trkpt lat="44.6591986" lon="9.484869"><ele>819.0</ele><time>2026-04-04T10:56:06.038Z</time></trkpt><trkpt lat="44.6591448" lon="9.4851082"><ele>819.0</ele><time>2026-04-04T10:56:07.046Z</time></trkpt><trkpt lat="44.6591044" lon="9.4854055"><ele>819.0</ele><time>2026-04-04T10:56:08.025Z</time></trkpt><trkpt lat="44.6590688" lon="9.4856957"><ele>819.0</ele><time>2026-04-04T10:56:09.044Z</time></trkpt><trkpt lat="44.6590373" lon="9.4859417"><ele>819.25</ele><time>2026-04-04T10:56:10.035Z</time></trkpt><trkpt lat="44.6589972" lon="9.4861403"><ele>819.5</ele><time>2026-04-04T10:56:11.026Z</time></trkpt><trkpt lat="44.6589271" lon="9.4862647"><ele>819.75</ele><time>2026-04-04T10:56:12.042Z</time></trkpt><trkpt lat="44.6588164" lon="9.4863513"><ele>820.0</ele><time>2026-04-04T10:56:12.97Z</time></trkpt><trkpt lat="44.6586669" lon="9.4864281"><ele>819.3333333333333</ele><time>2026-04-04T10:56:14.015Z</time></trkpt><trkpt lat="44.6584873" lon="9.4865077"><ele>818.6666666666667</ele><time>2026-04-04T10:56:15.028Z</time></trkpt><trkpt lat="44.658289" lon="9.4865942"><ele>818.0</ele><time>2026-04-04T10:56:16.039Z</time></trkpt><trkpt lat="44.6580947" lon="9.486677"><ele>818.0</ele><time>2026-04-04T10:56:17.039Z</time></trkpt><trkpt lat="44.6579355" lon="9.4867459"><ele>818.0</ele><time>2026-04-04T10:56:18.032Z</time></trkpt><trkpt lat="44.6577816" lon="9.4868089"><ele>818.0</ele><time>2026-04-04T10:56:19.023Z</time></trkpt><trkpt lat="44.6576784" lon="9.4869285"><ele>816.6666666666667</ele><time>2026-04-04T10:56:20.043Z</time></trkpt><trkpt lat="44.657583" lon="9.4871073"><ele>815.3333333333333</ele><time>2026-04-04T10:56:21.027Z</time></trkpt><trkpt lat="44.657483" lon="9.4873371"><ele>814.0</ele><time>2026-04-04T10:56:22.03Z</time></trkpt><trkpt lat="44.6573435" lon="9.4875326"><ele>814.0</ele><time>2026-04-04T10:56:23.038Z</time></trkpt><trkpt lat="44.657188" lon="9.4876959"><ele>814.0</ele><time>2026-04-04T10:56:24.025Z</time></trkpt><trkpt lat="44.6570376" lon="9.4877949"><ele>814.0</ele><time>2026-04-04T10:56:25.019Z</time></trkpt><trkpt lat="44.6569032" lon="9.487816"><ele>808.0</ele><time>2026-04-04T10:56:26.021Z</time></trkpt><trkpt lat="44.6567455" lon="9.4877973"><ele>802.0</ele><time>2026-04-04T10:56:27.027Z</time></trkpt><trkpt lat="44.6565855" lon="9.4877933"><ele>796.0</ele><time>2026-04-04T10:56:28.027Z</time></trkpt><trkpt lat="44.6564163" lon="9.4878277"><ele>796.0</ele><time>2026-04-04T10:56:29.033Z</time></trkpt><trkpt lat="44.6562434" lon="9.487924"><ele>796.0</ele><time>2026-04-04T10:56:30.032Z</time></trkpt><trkpt lat="44.6560316" lon="9.4880667"><ele>796.0</ele><time>2026-04-04T10:56:31.025Z</time></trkpt><trkpt lat="44.6558425" lon="9.4881917"><ele>796.6666666666666</ele><time>2026-04-04T10:56:32.063Z</time></trkpt><trkpt lat="44.6556715" lon="9.4883193"><ele>797.3333333333333</ele><time>2026-04-04T10:56:33.044Z</time></trkpt><trkpt lat="44.6555219" lon="9.4884172"><ele>798.0</ele><time>2026-04-04T10:56:34.032Z</time></trkpt><trkpt lat="44.6554057" lon="9.488469"><ele>796.5</ele><time>2026-04-04T10:56:35.012Z</time></trkpt><trkpt lat="44.6552771" lon="9.4884547"><ele>795.0</ele><time>2026-04-04T10:56:36.041Z</time></trkpt><trkpt lat="44.6551573" lon="9.4883759"><ele>793.5</ele><time>2026-04-04T10:56:37.028Z</time></trkpt><trkpt lat="44.6550439" lon="9.4882359"><ele>792.0</ele><time>2026-04-04T10:56:38.027Z</time></trkpt><trkpt lat="44.6549349" lon="9.4880717"><ele>792.0</ele><time>2026-04-04T10:56:39.03Z</time></trkpt><trkpt lat="44.6548497" lon="9.4879592"><ele>792.0</ele><time>2026-04-04T10:56:39.982Z</time></trkpt><trkpt lat="44.6547728" lon="9.487885"><ele>792.0</ele><time>2026-04-04T10:56:41.019Z</time></trkpt><trkpt lat="44.6546767" lon="9.4878444"><ele>792.0</ele><time>2026-04-04T10:56:42.052Z</time></trkpt><trkpt lat="44.654567" lon="9.4879125"><ele>792.0</ele><time>2026-04-04T10:56:43.036Z</time></trkpt><trkpt lat="44.6544323" lon="9.4880571"><ele>787.6666666666667</ele><time>2026-04-04T10:56:44.035Z</time></trkpt><trkpt lat="44.6542951" lon="9.4882397"><ele>783.3333333333334</ele><time>2026-04-04T10:56:45.051Z</time></trkpt><trkpt lat="44.6541456" lon="9.4884092"><ele>779.0</ele><time>2026-04-04T10:56:46.019Z</time></trkpt><trkpt lat="44.653975" lon="9.4884808"><ele>779.0</ele><time>2026-04-04T10:56:47.035Z</time></trkpt><trkpt lat="44.6538688" lon="9.4884897"><ele>779.0</ele><time>2026-04-04T10:56:48.03Z</time></trkpt><trkpt lat="44.6537598" lon="9.4885355"><ele>779.0</ele><time>2026-04-04T10:56:49.035Z</time></trkpt><trkpt lat="44.6536691" lon="9.4886244"><ele>779.0</ele><time>2026-04-04T10:56:50.044Z</time></trkpt><trkpt lat="44.6535772" lon="9.4887957"><ele>777.0</ele><time>2026-04-04T10:56:51.021Z</time></trkpt><trkpt lat="44.6534576" lon="9.4889218"><ele>775.0</ele><time>2026-04-04T10:56:52.034Z</time></trkpt><trkpt lat="44.653336" lon="9.4890274"><ele>773.0</ele><time>2026-04-04T10:56:53.03Z</time></trkpt><trkpt lat="44.6532225" lon="9.4891004"><ele>771.0</ele><time>2026-04-04T10:56:54.025Z</time></trkpt><trkpt lat="44.6531554" lon="9.4892009"><ele>771.0</ele><time>2026-04-04T10:56:55.039Z</time></trkpt><trkpt lat="44.6531208" lon="9.4893657"><ele>771.0</ele><time>2026-04-04T10:56:56Z</time></trkpt><trkpt lat="44.6530856" lon="9.4895953"><ele>771.0</ele><time>2026-04-04T10:56:56.97Z</time></trkpt><trkpt lat="44.6530357" lon="9.4898458"><ele>774.6666666666667</ele><time>2026-04-04T10:56:58.046Z</time></trkpt><trkpt lat="44.6529592" lon="9.4900653"><ele>778.3333333333334</ele><time>2026-04-04T10:56:59.038Z</time></trkpt><trkpt lat="44.6528408" lon="9.4902287"><ele>782.0</ele><time>2026-04-04T10:57:00.029Z</time></trkpt><trkpt lat="44.6526873" lon="9.4903964"><ele>777.75</ele><time>2026-04-04T10:57:01.044Z</time></trkpt><trkpt lat="44.6525467" lon="9.4905227"><ele>773.5</ele><time>2026-04-04T10:57:02.042Z</time></trkpt><trkpt lat="44.652444" lon="9.4906296"><ele>769.25</ele><time>2026-04-04T10:57:03.033Z</time></trkpt><trkpt lat="44.6523713" lon="9.4907523"><ele>765.0</ele><time>2026-04-04T10:57:04.033Z</time></trkpt><trkpt lat="44.6523305" lon="9.4909041"><ele>765.0</ele><time>2026-04-04T10:57:05.006Z</time></trkpt><trkpt lat="44.6523335" lon="9.4910595"><ele>765.0</ele><time>2026-04-04T10:57:05.988Z</time></trkpt><trkpt lat="44.6523883" lon="9.4912005"><ele>765.0</ele><time>2026-04-04T10:57:07.036Z</time></trkpt><trkpt lat="44.6524832" lon="9.4913242"><ele>765.0</ele><time>2026-04-04T10:57:08.037Z</time></trkpt><trkpt lat="44.6526158" lon="9.4914409"><ele>763.0</ele><time>2026-04-04T10:57:09.069Z</time></trkpt><trkpt lat="44.6527531" lon="9.4915636"><ele>761.0</ele><time>2026-04-04T10:57:10.058Z</time></trkpt><trkpt lat="44.6528741" lon="9.4916962"><ele>759.0</ele><time>2026-04-04T10:57:11.051Z</time></trkpt><trkpt lat="44.6529582" lon="9.4918433"><ele>762.25</ele><time>2026-04-04T10:57:12.053Z</time></trkpt><trkpt lat="44.6530034" lon="9.4920147"><ele>765.5</ele><time>2026-04-04T10:57:13.031Z</time></trkpt><trkpt lat="44.6530082" lon="9.4921937"><ele>768.75</ele><time>2026-04-04T10:57:14.043Z</time></trkpt><trkpt lat="44.6529691" lon="9.4923701"><ele>772.0</ele><time>2026-04-04T10:57:15.054Z</time></trkpt><trkpt lat="44.652869" lon="9.4925555"><ele>764.5</ele><time>2026-04-04T10:57:16.007Z</time></trkpt><trkpt lat="44.6527069" lon="9.4927926"><ele>757.0</ele><time>2026-04-04T10:57:17.033Z</time></trkpt><trkpt lat="44.6525399" lon="9.493008"><ele>757.0</ele><time>2026-04-04T10:57:18.026Z</time></trkpt><trkpt lat="44.6523845" lon="9.4932285"><ele>757.0</ele><time>2026-04-04T10:57:19.036Z</time></trkpt><trkpt lat="44.6522436" lon="9.493422"><ele>757.0</ele><time>2026-04-04T10:57:20.044Z</time></trkpt><trkpt lat="44.6521456" lon="9.4935804"><ele>757.0</ele><time>2026-04-04T10:57:21.031Z</time></trkpt><trkpt lat="44.6520745" lon="9.4937242"><ele>757.0</ele><time>2026-04-04T10:57:22.044Z</time></trkpt><trkpt lat="44.6520535" lon="9.4938761"><ele>757.0</ele><time>2026-04-04T10:57:23.054Z</time></trkpt><trkpt lat="44.65206" lon="9.4940863"><ele>757.0</ele><time>2026-04-04T10:57:24.047Z</time></trkpt><trkpt lat="44.6521187" lon="9.4943254"><ele>756.3333333333334</ele><time>2026-04-04T10:57:25.033Z</time></trkpt><trkpt lat="44.6521862" lon="9.4946036"><ele>755.6666666666666</ele><time>2026-04-04T10:57:26.026Z</time></trkpt><trkpt lat="44.6522309" lon="9.4949218"><ele>755.0</ele><time>2026-04-04T10:57:27.037Z</time></trkpt><trkpt lat="44.6522485" lon="9.4952709"><ele>753.0</ele><time>2026-04-04T10:57:28.038Z</time></trkpt><trkpt lat="44.6522655" lon="9.4956383"><ele>751.0</ele><time>2026-04-04T10:57:29.042Z</time></trkpt><trkpt lat="44.6522806" lon="9.4959433"><ele>751.0</ele><time>2026-04-04T10:57:30.055Z</time></trkpt><trkpt lat="44.6522804" lon="9.4961619"><ele>751.0</ele><time>2026-04-04T10:57:31.038Z</time></trkpt><trkpt lat="44.6522827" lon="9.4963395"><ele>751.0</ele><time>2026-04-04T10:57:32.048Z</time></trkpt><trkpt lat="44.6522671" lon="9.4964722"><ele>751.0</ele><time>2026-04-04T10:57:33.068Z</time></trkpt><trkpt lat="44.6522023" lon="9.4966155"><ele>751.25</ele><time>2026-04-04T10:57:34.033Z</time></trkpt><trkpt lat="44.6520966" lon="9.4967079"><ele>751.5</ele><time>2026-04-04T10:57:35.048Z</time></trkpt><trkpt lat="44.6519884" lon="9.4967245"><ele>751.75</ele><time>2026-04-04T10:57:36.024Z</time></trkpt><trkpt lat="44.6518706" lon="9.4967114"><ele>752.0</ele><time>2026-04-04T10:57:36.991Z</time></trkpt><trkpt lat="44.651767" lon="9.4966173"><ele>747.3333333333333</ele><time>2026-04-04T10:57:38.043Z</time></trkpt><trkpt lat="44.6517184" lon="9.4964617"><ele>742.6666666666666</ele><time>2026-04-04T10:57:39.044Z</time></trkpt><trkpt lat="44.6516992" lon="9.496271"><ele>738.0</ele><time>2026-04-04T10:57:40.047Z</time></trkpt><trkpt lat="44.6517113" lon="9.4959936"><ele>736.3333333333334</ele><time>2026-04-04T10:57:41.022Z</time></trkpt><trkpt lat="44.6517059" lon="9.4956975"><ele>734.6666666666667</ele><time>2026-04-04T10:57:42.056Z</time></trkpt><trkpt lat="44.6516997" lon="9.4954163"><ele>733.0</ele><time>2026-04-04T10:57:43.043Z</time></trkpt><trkpt lat="44.6516715" lon="9.4951783"><ele>732.6666666666667</ele><time>2026-04-04T10:57:44.041Z</time></trkpt><trkpt lat="44.6516284" lon="9.4949167"><ele>732.3333333333334</ele><time>2026-04-04T10:57:45.03Z</time></trkpt><trkpt lat="44.6515655" lon="9.4946837"><ele>732.0</ele><time>2026-04-04T10:57:46.038Z</time></trkpt><trkpt lat="44.651453" lon="9.4945152"><ele>732.5</ele><time>2026-04-04T10:57:47.071Z</time></trkpt><trkpt lat="44.6513474" lon="9.4943621"><ele>733.0</ele><time>2026-04-04T10:57:48.026Z</time></trkpt><trkpt lat="44.6512445" lon="9.4941958"><ele>733.5</ele><time>2026-04-04T10:57:49.047Z</time></trkpt><trkpt lat="44.6511581" lon="9.4940474"><ele>734.0</ele><time>2026-04-04T10:57:50.042Z</time></trkpt><trkpt lat="44.6511186" lon="9.4938867"><ele>735.0</ele><time>2026-04-04T10:57:51.043Z</time></trkpt><trkpt lat="44.6511174" lon="9.4937013"><ele>736.0</ele><time>2026-04-04T10:57:52.044Z</time></trkpt><trkpt lat="44.6511324" lon="9.4934667"><ele>737.0</ele><time>2026-04-04T10:57:53.046Z</time></trkpt><trkpt lat="44.6511501" lon="9.4932101"><ele>737.0</ele><time>2026-04-04T10:57:54.054Z</time></trkpt><trkpt lat="44.6511585" lon="9.4929782"><ele>737.0</ele><time>2026-04-04T10:57:55.041Z</time></trkpt><trkpt lat="44.6511335" lon="9.4928281"><ele>737.0</ele><time>2026-04-04T10:57:55.986Z</time></trkpt><trkpt lat="44.6510933" lon="9.4926969"><ele>737.0</ele><time>2026-04-04T10:57:57.003Z</time></trkpt><trkpt lat="44.651037" lon="9.4925851"><ele>732.6</ele><time>2026-04-04T10:57:58.034Z</time></trkpt><trkpt lat="44.6509508" lon="9.4925091"><ele>728.2</ele><time>2026-04-04T10:57:59.052Z</time></trkpt><trkpt lat="44.6508619" lon="9.492484"><ele>723.8</ele><time>2026-04-04T10:58:00.062Z</time></trkpt><trkpt lat="44.6507659" lon="9.4925628"><ele>719.4</ele><time>2026-04-04T10:58:01.052Z</time></trkpt><trkpt lat="44.6506771" lon="9.4926941"><ele>715.0</ele><time>2026-04-04T10:58:02.035Z</time></trkpt><trkpt lat="44.6506172" lon="9.4928829"><ele>715.0</ele><time>2026-04-04T10:58:03.031Z</time></trkpt><trkpt lat="44.6505699" lon="9.4931224"><ele>715.0</ele><time>2026-04-04T10:58:04.066Z</time></trkpt><trkpt lat="44.6505262" lon="9.493346"><ele>715.0</ele><time>2026-04-04T10:58:05.035Z</time></trkpt><trkpt lat="44.6504376" lon="9.4935651"><ele>716.3333333333334</ele><time>2026-04-04T10:58:06.039Z</time></trkpt><trkpt lat="44.6503239" lon="9.4937882"><ele>717.6666666666666</ele><time>2026-04-04T10:58:07.03Z</time></trkpt><trkpt lat="44.6502145" lon="9.4939822"><ele>719.0</ele><time>2026-04-04T10:58:08.047Z</time></trkpt><trkpt lat="44.6500936" lon="9.4941427"><ele>714.3333333333333</ele><time>2026-04-04T10:58:09.048Z</time></trkpt><trkpt lat="44.6499336" lon="9.4942678"><ele>709.6666666666666</ele><time>2026-04-04T10:58:10.052Z</time></trkpt><trkpt lat="44.6497743" lon="9.494388"><ele>705.0</ele><time>2026-04-04T10:58:11.05Z</time></trkpt><trkpt lat="44.6496185" lon="9.4945152"><ele>705.0</ele><time>2026-04-04T10:58:12.052Z</time></trkpt><trkpt lat="44.6494865" lon="9.4946333"><ele>705.0</ele><time>2026-04-04T10:58:13.062Z</time></trkpt><trkpt lat="44.6493797" lon="9.494746"><ele>705.0</ele><time>2026-04-04T10:58:14.038Z</time></trkpt><trkpt lat="44.6492963" lon="9.4948503"><ele>705.0</ele><time>2026-04-04T10:58:15.023Z</time></trkpt><trkpt lat="44.6492536" lon="9.4949851"><ele>703.0</ele><time>2026-04-04T10:58:16.036Z</time></trkpt><trkpt lat="44.6492418" lon="9.4951493"><ele>701.0</ele><time>2026-04-04T10:58:17.048Z</time></trkpt><trkpt lat="44.6492569" lon="9.4953383"><ele>699.0</ele><time>2026-04-04T10:58:18.026Z</time></trkpt><trkpt lat="44.6493067" lon="9.4955455"><ele>697.0</ele><time>2026-04-04T10:58:19.047Z</time></trkpt><trkpt lat="44.6493555" lon="9.4957346"><ele>695.75</ele><time>2026-04-04T10:58:20.043Z</time></trkpt><trkpt lat="44.6493572" lon="9.4958977"><ele>694.5</ele><time>2026-04-04T10:58:21.032Z</time></trkpt><trkpt lat="44.6493132" lon="9.4960292"><ele>693.25</ele><time>2026-04-04T10:58:22.044Z</time></trkpt><trkpt lat="44.6492041" lon="9.4961252"><ele>692.0</ele><time>2026-04-04T10:58:23.049Z</time></trkpt><trkpt lat="44.6490926" lon="9.4962444"><ele>691.5</ele><time>2026-04-04T10:58:24.03Z</time></trkpt><trkpt lat="44.6489952" lon="9.4964054"><ele>691.0</ele><time>2026-04-04T10:58:25.042Z</time></trkpt><trkpt lat="44.6489227" lon="9.4965905"><ele>690.5</ele><time>2026-04-04T10:58:26.026Z</time></trkpt><trkpt lat="44.6488853" lon="9.4967572"><ele>690.0</ele><time>2026-04-04T10:58:27.029Z</time></trkpt><trkpt lat="44.6489191" lon="9.4969084"><ele>690.0</ele><time>2026-04-04T10:58:28.044Z</time></trkpt><trkpt lat="44.6489804" lon="9.4970669"><ele>690.0</ele><time>2026-04-04T10:58:29.039Z</time></trkpt><trkpt lat="44.6490815" lon="9.4972391"><ele>690.0</ele><time>2026-04-04T10:58:30.041Z</time></trkpt><trkpt lat="44.6492104" lon="9.4973966"><ele>688.3333333333334</ele><time>2026-04-04T10:58:31.019Z</time></trkpt><trkpt lat="44.6493488" lon="9.497548"><ele>686.6666666666667</ele><time>2026-04-04T10:58:32.067Z</time></trkpt><trkpt lat="44.6494506" lon="9.4977188"><ele>685.0</ele><time>2026-04-04T10:58:33.035Z</time></trkpt><trkpt lat="44.6495059" lon="9.4979185"><ele>688.6666666666667</ele><time>2026-04-04T10:58:34.049Z</time></trkpt><trkpt lat="44.6495253" lon="9.4981269"><ele>692.3333333333334</ele><time>2026-04-04T10:58:35.007Z</time></trkpt><trkpt lat="44.6495332" lon="9.4983687"><ele>696.0</ele><time>2026-04-04T10:58:36.028Z</time></trkpt><trkpt lat="44.6495251" lon="9.4986206"><ele>695.0</ele><time>2026-04-04T10:58:37.036Z</time></trkpt><trkpt lat="44.6495268" lon="9.4988421"><ele>694.0</ele><time>2026-04-04T10:58:38.015Z</time></trkpt><trkpt lat="44.6495387" lon="9.4990629"><ele>693.0</ele><time>2026-04-04T10:58:39.042Z</time></trkpt><trkpt lat="44.6495651" lon="9.4992599"><ele>693.0</ele><time>2026-04-04T10:58:40.02Z</time></trkpt><trkpt lat="44.6496008" lon="9.4994471"><ele>693.0</ele><time>2026-04-04T10:58:41.009Z</time></trkpt><trkpt lat="44.6496244" lon="9.4995734"><ele>693.0</ele><time>2026-04-04T10:58:42.065Z</time></trkpt><trkpt lat="44.6495209" lon="9.4996647"><ele>693.0</ele><time>2026-04-04T10:58:44.035Z</time></trkpt><trkpt lat="44.6494276" lon="9.4996208"><ele>687.75</ele><time>2026-04-04T10:58:45.026Z</time></trkpt><trkpt lat="44.649335" lon="9.4995069"><ele>682.5</ele><time>2026-04-04T10:58:46.035Z</time></trkpt><trkpt lat="44.6492564" lon="9.4993388"><ele>677.25</ele><time>2026-04-04T10:58:47.041Z</time></trkpt><trkpt lat="44.6491676" lon="9.4991566"><ele>672.0</ele><time>2026-04-04T10:58:48.037Z</time></trkpt><trkpt lat="44.6490734" lon="9.4989696"><ele>672.0</ele><time>2026-04-04T10:58:49.015Z</time></trkpt><trkpt lat="44.6489673" lon="9.4988305"><ele>672.0</ele><time>2026-04-04T10:58:50.04Z</time></trkpt><trkpt lat="44.6488437" lon="9.4987359"><ele>672.0</ele><time>2026-04-04T10:58:51.023Z</time></trkpt><trkpt lat="44.6486878" lon="9.498656"><ele>670.25</ele><time>2026-04-04T10:58:52.025Z</time></trkpt><trkpt lat="44.648524" lon="9.4985821"><ele>668.5</ele><time>2026-04-04T10:58:53.016Z</time></trkpt><trkpt lat="44.6483843" lon="9.4985277"><ele>666.75</ele><time>2026-04-04T10:58:54.04Z</time></trkpt><trkpt lat="44.648263" lon="9.4984724"><ele>665.0</ele><time>2026-04-04T10:58:55.025Z</time></trkpt><trkpt lat="44.6481458" lon="9.4983971"><ele>665.0</ele><time>2026-04-04T10:58:56.054Z</time></trkpt><trkpt lat="44.6480548" lon="9.4983039"><ele>665.0</ele><time>2026-04-04T10:58:57.05Z</time></trkpt><trkpt lat="44.64799" lon="9.4981614"><ele>665.0</ele><time>2026-04-04T10:58:58.048Z</time></trkpt><trkpt lat="44.6479282" lon="9.4979681"><ele>665.0</ele><time>2026-04-04T10:58:59.033Z</time></trkpt><trkpt lat="44.6478749" lon="9.4977409"><ele>664.5</ele><time>2026-04-04T10:59:00.05Z</time></trkpt><trkpt lat="44.6478184" lon="9.4975255"><ele>664.0</ele><time>2026-04-04T10:59:01.036Z</time></trkpt><trkpt lat="44.647769" lon="9.4973204"><ele>663.5</ele><time>2026-04-04T10:59:02.051Z</time></trkpt><trkpt lat="44.6477125" lon="9.4971633"><ele>663.0</ele><time>2026-04-04T10:59:03.039Z</time></trkpt><trkpt lat="44.6476382" lon="9.4970532"><ele>663.0</ele><time>2026-04-04T10:59:04.029Z</time></trkpt><trkpt lat="44.6475504" lon="9.4969964"><ele>663.0</ele><time>2026-04-04T10:59:05.044Z</time></trkpt><trkpt lat="44.6474494" lon="9.4969855"><ele>663.0</ele><time>2026-04-04T10:59:06.037Z</time></trkpt><trkpt lat="44.647329" lon="9.4970066"><ele>663.0</ele><time>2026-04-04T10:59:07.044Z</time></trkpt><trkpt lat="44.6471956" lon="9.4970872"><ele>661.8</ele><time>2026-04-04T10:59:08.053Z</time></trkpt><trkpt lat="44.6470726" lon="9.4971601"><ele>660.5999999999999</ele><time>2026-04-04T10:59:09.049Z</time></trkpt><trkpt lat="44.6469681" lon="9.4971981"><ele>659.4000000000001</ele><time>2026-04-04T10:59:10.029Z</time></trkpt><trkpt lat="44.6469094" lon="9.4971373"><ele>658.2</ele><time>2026-04-04T10:59:11.055Z</time></trkpt><trkpt lat="44.6468841" lon="9.4970141"><ele>657.0</ele><time>2026-04-04T10:59:12.065Z</time></trkpt><trkpt lat="44.6469037" lon="9.4968993"><ele>658.5</ele><time>2026-04-04T10:59:12.986Z</time></trkpt><trkpt lat="44.6469858" lon="9.4967647"><ele>660.0</ele><time>2026-04-04T10:59:14.036Z</time></trkpt><trkpt lat="44.6471016" lon="9.4966388"><ele>661.5</ele><time>2026-04-04T10:59:15.046Z</time></trkpt><trkpt lat="44.6472033" lon="9.4964892"><ele>663.0</ele><time>2026-04-04T10:59:16.019Z</time></trkpt><trkpt lat="44.64728" lon="9.4963318"><ele>663.75</ele><time>2026-04-04T10:59:17.048Z</time></trkpt><trkpt lat="44.6473375" lon="9.4961842"><ele>664.5</ele><time>2026-04-04T10:59:18.042Z</time></trkpt><trkpt lat="44.6473759" lon="9.4960259"><ele>665.25</ele><time>2026-04-04T10:59:19.023Z</time></trkpt><trkpt lat="44.6473556" lon="9.4958444"><ele>666.0</ele><time>2026-04-04T10:59:20.022Z</time></trkpt><trkpt lat="44.6472911" lon="9.4956533"><ele>666.0</ele><time>2026-04-04T10:59:20.981Z</time></trkpt><trkpt lat="44.6472263" lon="9.4954668"><ele>666.0</ele><time>2026-04-04T10:59:22.022Z</time></trkpt><trkpt lat="44.647196" lon="9.4952726"><ele>666.0</ele><time>2026-04-04T10:59:23.003Z</time></trkpt><trkpt lat="44.6472104" lon="9.4950874"><ele>666.0</ele><time>2026-04-04T10:59:24.015Z</time></trkpt><trkpt lat="44.6472386" lon="9.4949416"><ele>665.1666666666666</ele><time>2026-04-04T10:59:25.039Z</time></trkpt><trkpt lat="44.6472684" lon="9.4948141"><ele>664.3333333333334</ele><time>2026-04-04T10:59:26.014Z</time></trkpt><trkpt lat="44.6472714" lon="9.4947247"><ele>663.5</ele><time>2026-04-04T10:59:27.012Z</time></trkpt><trkpt lat="44.647172" lon="9.4947006"><ele>662.6666666666667</ele><time>2026-04-04T10:59:28.963Z</time></trkpt><trkpt lat="44.6471075" lon="9.4947636"><ele>661.8333333333334</ele><time>2026-04-04T10:59:29.99Z</time></trkpt><trkpt lat="44.6470619" lon="9.4948859"><ele>661.0</ele><time>2026-04-04T10:59:30.966Z</time></trkpt><trkpt lat="44.6470137" lon="9.4950445"><ele>656.5</ele><time>2026-04-04T10:59:31.969Z</time></trkpt><trkpt lat="44.6469602" lon="9.4952347"><ele>652.0</ele><time>2026-04-04T10:59:32.983Z</time></trkpt><trkpt lat="44.6468951" lon="9.4954159"><ele>647.5</ele><time>2026-04-04T10:59:34.03Z</time></trkpt><trkpt lat="44.646819" lon="9.4955815"><ele>643.0</ele><time>2026-04-04T10:59:35.017Z</time></trkpt><trkpt lat="44.6467429" lon="9.495699"><ele>642.0</ele><time>2026-04-04T10:59:36.022Z</time></trkpt><trkpt lat="44.6466718" lon="9.4957897"><ele>641.0</ele><time>2026-04-04T10:59:37.022Z</time></trkpt><trkpt lat="44.646606" lon="9.4958882"><ele>640.0</ele><time>2026-04-04T10:59:38.035Z</time></trkpt><trkpt lat="44.6465473" lon="9.4959845"><ele>639.0</ele><time>2026-04-04T10:59:39.03Z</time></trkpt><trkpt lat="44.6464831" lon="9.4960852"><ele>638.0</ele><time>2026-04-04T10:59:40.036Z</time></trkpt><trkpt lat="44.6464139" lon="9.4961785"><ele>639.4</ele><time>2026-04-04T10:59:41.023Z</time></trkpt><trkpt lat="44.6463552" lon="9.496279"><ele>640.8</ele><time>2026-04-04T10:59:42.039Z</time></trkpt><trkpt lat="44.6462996" lon="9.4963987"><ele>642.2</ele><time>2026-04-04T10:59:43.016Z</time></trkpt><trkpt lat="44.6462504" lon="9.4965137"><ele>643.6</ele><time>2026-04-04T10:59:44.035Z</time></trkpt><trkpt lat="44.6462221" lon="9.4966331"><ele>645.0</ele><time>2026-04-04T10:59:45.034Z</time></trkpt><trkpt lat="44.6462077" lon="9.4967534"><ele>645.0</ele><time>2026-04-04T10:59:46.027Z</time></trkpt><trkpt lat="44.6461939" lon="9.496876"><ele>645.0</ele><time>2026-04-04T10:59:47.036Z</time></trkpt><trkpt lat="44.6461868" lon="9.4969918"><ele>645.0</ele><time>2026-04-04T10:59:48.019Z</time></trkpt><trkpt lat="44.6461735" lon="9.4970941"><ele>645.0</ele><time>2026-04-04T10:59:49.023Z</time></trkpt><trkpt lat="44.6461607" lon="9.4971832"><ele>645.0</ele><time>2026-04-04T10:59:50.03Z</time></trkpt><trkpt lat="44.6461328" lon="9.4973088"><ele>645.0</ele><time>2026-04-04T10:59:52.049Z</time></trkpt><trkpt lat="44.6461415" lon="9.497437"><ele>644.0</ele><time>2026-04-04T10:59:58.031Z</time></trkpt><trkpt lat="44.6462152" lon="9.4975966"><ele>643.0</ele><time>2026-04-04T11:00:00.062Z</time></trkpt><trkpt lat="44.6462465" lon="9.4977313"><ele>642.0</ele><time>2026-04-04T11:00:02.045Z</time></trkpt><trkpt lat="44.646273" lon="9.4978973"><ele>641.0</ele><time>2026-04-04T11:00:18.031Z</time></trkpt><trkpt lat="44.6462984" lon="9.4979901"><ele>640.0</ele><time>2026-04-04T11:00:19.038Z</time></trkpt><trkpt lat="44.6463372" lon="9.4980975"><ele>638.2857142857142</ele><time>2026-04-04T11:00:20.054Z</time></trkpt><trkpt lat="44.6463841" lon="9.4981863"><ele>636.5714285714286</ele><time>2026-04-04T11:00:21.05Z</time></trkpt><trkpt lat="44.6464433" lon="9.4982633"><ele>634.8571428571429</ele><time>2026-04-04T11:00:22.057Z</time></trkpt><trkpt lat="44.6465025" lon="9.4983398"><ele>633.1428571428571</ele><time>2026-04-04T11:00:23.023Z</time></trkpt><trkpt lat="44.6465539" lon="9.4984059"><ele>631.4285714285714</ele><time>2026-04-04T11:00:24.03Z</time></trkpt><trkpt lat="44.6466088" lon="9.4984738"><ele>629.7142857142857</ele><time>2026-04-04T11:00:25.033Z</time></trkpt><trkpt lat="44.6466594" lon="9.4985339"><ele>628.0</ele><time>2026-04-04T11:00:26.04Z</time></trkpt><trkpt lat="44.6466683" lon="9.4986236"><ele>627.0</ele><time>2026-04-04T11:00:30.05Z</time></trkpt><trkpt lat="44.6466713" lon="9.4987967"><ele>626.0</ele><time>2026-04-04T11:00:33.052Z</time></trkpt><trkpt lat="44.6466513" lon="9.4989074"><ele>625.0</ele><time>2026-04-04T11:00:34.034Z</time></trkpt><trkpt lat="44.6466592" lon="9.4990447"><ele>624.0</ele><time>2026-04-04T11:00:35.05Z</time></trkpt><trkpt lat="44.6466796" lon="9.4992074"><ele>623.0</ele><time>2026-04-04T11:00:36.039Z</time></trkpt><trkpt lat="44.646716" lon="9.4993686"><ele>623.0</ele><time>2026-04-04T11:00:37.038Z</time></trkpt><trkpt lat="44.646766" lon="9.4995095"><ele>623.0</ele><time>2026-04-04T11:00:38.076Z</time></trkpt><trkpt lat="44.6468287" lon="9.4996448"><ele>623.0</ele><time>2026-04-04T11:00:39.061Z</time></trkpt><trkpt lat="44.646921" lon="9.4997705"><ele>623.0</ele><time>2026-04-04T11:00:40.051Z</time></trkpt><trkpt lat="44.6470499" lon="9.4998902"><ele>625.75</ele><time>2026-04-04T11:00:41.036Z</time></trkpt><trkpt lat="44.6471887" lon="9.5000082"><ele>628.5</ele><time>2026-04-04T11:00:42.067Z</time></trkpt><trkpt lat="44.6473157" lon="9.5001079"><ele>631.25</ele><time>2026-04-04T11:00:42.972Z</time></trkpt><trkpt lat="44.6474335" lon="9.5001953"><ele>634.0</ele><time>2026-04-04T11:00:43.989Z</time></trkpt><trkpt lat="44.6475345" lon="9.5002693"><ele>634.0</ele><time>2026-04-04T11:00:44.978Z</time></trkpt><trkpt lat="44.6476129" lon="9.5003369"><ele>634.0</ele><time>2026-04-04T11:00:45.981Z</time></trkpt><trkpt lat="44.6476717" lon="9.5004002"><ele>634.0</ele><time>2026-04-04T11:00:47Z</time></trkpt><trkpt lat="44.6477157" lon="9.5004837"><ele>634.0</ele><time>2026-04-04T11:00:47.978Z</time></trkpt><trkpt lat="44.6477397" lon="9.5005987"><ele>634.0</ele><time>2026-04-04T11:00:49.035Z</time></trkpt><trkpt lat="44.6477567" lon="9.5007258"><ele>634.0</ele><time>2026-04-04T11:00:50.04Z</time></trkpt><trkpt lat="44.6477502" lon="9.5008484"><ele>635.2</ele><time>2026-04-04T11:00:51.024Z</time></trkpt><trkpt lat="44.6477575" lon="9.5009691"><ele>636.4</ele><time>2026-04-04T11:00:52.037Z</time></trkpt><trkpt lat="44.6477877" lon="9.5010958"><ele>637.6</ele><time>2026-04-04T11:00:53.047Z</time></trkpt><trkpt lat="44.6478494" lon="9.5012491"><ele>638.8</ele><time>2026-04-04T11:00:54.049Z</time></trkpt><trkpt lat="44.6479455" lon="9.5013897"><ele>640.0</ele><time>2026-04-04T11:00:55.034Z</time></trkpt><trkpt lat="44.648029" lon="9.5015162"><ele>640.0</ele><time>2026-04-04T11:00:56.011Z</time></trkpt><trkpt lat="44.648103" lon="9.5016176"><ele>640.0</ele><time>2026-04-04T11:00:57.038Z</time></trkpt><trkpt lat="44.6481772" lon="9.5017395"><ele>640.0</ele><time>2026-04-04T11:00:58.029Z</time></trkpt><trkpt lat="44.6482289" lon="9.5018761"><ele>640.0</ele><time>2026-04-04T11:00:59.03Z</time></trkpt><trkpt lat="44.6482448" lon="9.5020297"><ele>640.0</ele><time>2026-04-04T11:01:00.035Z</time></trkpt><trkpt lat="44.6482434" lon="9.5022024"><ele>638.8</ele><time>2026-04-04T11:01:01.034Z</time></trkpt><trkpt lat="44.6482481" lon="9.5023774"><ele>637.6</ele><time>2026-04-04T11:01:02.006Z</time></trkpt><trkpt lat="44.6482669" lon="9.5025239"><ele>636.4</ele><time>2026-04-04T11:01:03.053Z</time></trkpt><trkpt lat="44.6483022" lon="9.5026572"><ele>635.2</ele><time>2026-04-04T11:01:04.046Z</time></trkpt><trkpt lat="44.6483442" lon="9.5028064"><ele>634.0</ele><time>2026-04-04T11:01:05.054Z</time></trkpt><trkpt lat="44.6483714" lon="9.5029482"><ele>632.5</ele><time>2026-04-04T11:01:06.047Z</time></trkpt><trkpt lat="44.648387" lon="9.5031004"><ele>631.0</ele><time>2026-04-04T11:01:07.05Z</time></trkpt><trkpt lat="44.6484222" lon="9.5032595"><ele>629.5</ele><time>2026-04-04T11:01:08.044Z</time></trkpt><trkpt lat="44.6484747" lon="9.503425"><ele>628.0</ele><time>2026-04-04T11:01:09.04Z</time></trkpt><trkpt lat="44.6485338" lon="9.5035907"><ele>627.0</ele><time>2026-04-04T11:01:10.053Z</time></trkpt><trkpt lat="44.6485896" lon="9.5037614"><ele>626.0</ele><time>2026-04-04T11:01:11.042Z</time></trkpt><trkpt lat="44.6486364" lon="9.5038876"><ele>625.0</ele><time>2026-04-04T11:01:12.045Z</time></trkpt><trkpt lat="44.6486674" lon="9.5039787"><ele>624.0</ele><time>2026-04-04T11:01:13.029Z</time></trkpt><trkpt lat="44.6486845" lon="9.5040702"><ele>623.0</ele><time>2026-04-04T11:01:15.048Z</time></trkpt><trkpt lat="44.6485876" lon="9.5041639"><ele>623.0</ele><time>2026-04-04T11:01:18.041Z</time></trkpt><trkpt lat="44.6485176" lon="9.5042258"><ele>623.0</ele><time>2026-04-04T11:01:20.049Z</time></trkpt><trkpt lat="44.6485288" lon="9.5043467"><ele>623.0</ele><time>2026-04-04T11:01:24.017Z</time></trkpt><trkpt lat="44.6485852" lon="9.504452"><ele>623.0</ele><time>2026-04-04T11:01:26.051Z</time></trkpt><trkpt lat="44.6486284" lon="9.5045216"><ele>623.0</ele><time>2026-04-04T11:01:27.991Z</time></trkpt><trkpt lat="44.6485305" lon="9.5044026"><ele>623.0</ele><time>2026-04-04T11:02:06.983Z</time></trkpt><trkpt lat="44.6484601" lon="9.5042774"><ele>623.0</ele><time>2026-04-04T11:02:08.977Z</time></trkpt><trkpt lat="44.6484077" lon="9.5041466"><ele>623.0</ele><time>2026-04-04T11:02:10.987Z</time></trkpt><trkpt lat="44.6483659" lon="9.5040585"><ele>623.0</ele><time>2026-04-04T11:02:11.986Z</time></trkpt><trkpt lat="44.6483207" lon="9.503969"><ele>623.0</ele><time>2026-04-04T11:02:12.983Z</time></trkpt><trkpt lat="44.648272" lon="9.5038651"><ele>623.0</ele><time>2026-04-04T11:02:13.985Z</time></trkpt><trkpt lat="44.6482327" lon="9.5037646"><ele>623.0</ele><time>2026-04-04T11:02:14.979Z</time></trkpt><trkpt lat="44.6481946" lon="9.5036679"><ele>623.0</ele><time>2026-04-04T11:02:15.98Z</time></trkpt><trkpt lat="44.6481586" lon="9.5035804"><ele>623.0</ele><time>2026-04-04T11:02:16.977Z</time></trkpt><trkpt lat="44.6481036" lon="9.5034354"><ele>623.0</ele><time>2026-04-04T11:02:18.983Z</time></trkpt><trkpt lat="44.6480584" lon="9.5032756"><ele>623.8333333333333</ele><time>2026-04-04T11:02:20.987Z</time></trkpt><trkpt lat="44.6480419" lon="9.5031768"><ele>624.6666666666666</ele><time>2026-04-04T11:02:21.989Z</time></trkpt><trkpt lat="44.6480293" lon="9.5030796"><ele>625.5</ele><time>2026-04-04T11:02:22.981Z</time></trkpt><trkpt lat="44.6480131" lon="9.5029777"><ele>626.3333333333334</ele><time>2026-04-04T11:02:23.985Z</time></trkpt><trkpt lat="44.6479998" lon="9.5028655"><ele>627.1666666666667</ele><time>2026-04-04T11:02:24.987Z</time></trkpt><trkpt lat="44.6479868" lon="9.5027438"><ele>628.0</ele><time>2026-04-04T11:02:25.987Z</time></trkpt><trkpt lat="44.6479827" lon="9.5026137"><ele>629.0</ele><time>2026-04-04T11:02:26.991Z</time></trkpt><trkpt lat="44.6479693" lon="9.5025045"><ele>630.0</ele><time>2026-04-04T11:02:27.976Z</time></trkpt><trkpt lat="44.6479568" lon="9.5024106"><ele>631.0</ele><time>2026-04-04T11:02:28.987Z</time></trkpt><trkpt lat="44.6479357" lon="9.5023126"><ele>632.0</ele><time>2026-04-04T11:02:30.979Z</time></trkpt><trkpt lat="44.6479859" lon="9.5024459"><ele>633.0</ele><time>2026-04-04T11:02:56.976Z</time></trkpt><trkpt lat="44.6479989" lon="9.5025765"><ele>634.0</ele><time>2026-04-04T11:02:57.987Z</time></trkpt><trkpt lat="44.6480026" lon="9.5027152"><ele>634.0</ele><time>2026-04-04T11:02:58.982Z</time></trkpt><trkpt lat="44.6480088" lon="9.5028459"><ele>634.0</ele><time>2026-04-04T11:02:59.982Z</time></trkpt><trkpt lat="44.6480167" lon="9.5029607"><ele>634.0</ele><time>2026-04-04T11:03:00.98Z</time></trkpt><trkpt lat="44.6480317" lon="9.5030562"><ele>634.0</ele><time>2026-04-04T11:03:01.997Z</time></trkpt><trkpt lat="44.648047" lon="9.5031447"><ele>634.0</ele><time>2026-04-04T11:03:02.982Z</time></trkpt><trkpt lat="44.6480592" lon="9.5032413"><ele>634.0</ele><time>2026-04-04T11:03:03.984Z</time></trkpt><trkpt lat="44.6481148" lon="9.5034527"><ele>633.0</ele><time>2026-04-04T11:03:05.984Z</time></trkpt><trkpt lat="44.6481611" lon="9.5035686"><ele>632.0</ele><time>2026-04-04T11:03:06.985Z</time></trkpt><trkpt lat="44.6482085" lon="9.5036873"><ele>631.0</ele><time>2026-04-04T11:03:07.979Z</time></trkpt><trkpt lat="44.6482596" lon="9.5038056"><ele>630.0</ele><time>2026-04-04T11:03:08.991Z</time></trkpt><trkpt lat="44.6483062" lon="9.5039051"><ele>629.0</ele><time>2026-04-04T11:03:09.974Z</time></trkpt><trkpt lat="44.6483473" lon="9.5039931"><ele>628.0</ele><time>2026-04-04T11:03:11Z</time></trkpt><trkpt lat="44.6483851" lon="9.5040864"><ele>627.1666666666667</ele><time>2026-04-04T11:03:11.984Z</time></trkpt><trkpt lat="44.6484216" lon="9.5041601"><ele>626.3333333333334</ele><time>2026-04-04T11:03:12.982Z</time></trkpt><trkpt lat="44.6484668" lon="9.5042244"><ele>625.5</ele><time>2026-04-04T11:03:14.998Z</time></trkpt><trkpt lat="44.6485214" lon="9.5041782"><ele>624.6666666666666</ele><time>2026-04-04T11:03:16.982Z</time></trkpt><trkpt lat="44.6486188" lon="9.5040911"><ele>623.8333333333333</ele><time>2026-04-04T11:03:18.975Z</time></trkpt><trkpt lat="44.6486745" lon="9.5040492"><ele>623.0</ele><time>2026-04-04T11:03:21.979Z</time></trkpt><trkpt lat="44.6486669" lon="9.5039101"><ele>623.8333333333333</ele><time>2026-04-04T11:03:27.979Z</time></trkpt><trkpt lat="44.6486337" lon="9.5038195"><ele>624.6666666666666</ele><time>2026-04-04T11:03:28.978Z</time></trkpt><trkpt lat="44.6485895" lon="9.5037148"><ele>625.5</ele><time>2026-04-04T11:03:29.977Z</time></trkpt><trkpt lat="44.6485433" lon="9.5036067"><ele>626.3333333333334</ele><time>2026-04-04T11:03:30.983Z</time></trkpt><trkpt lat="44.6485034" lon="9.5034944"><ele>627.1666666666667</ele><time>2026-04-04T11:03:31.985Z</time></trkpt><trkpt lat="44.6484611" lon="9.503375"><ele>628.0</ele><time>2026-04-04T11:03:32.986Z</time></trkpt><trkpt lat="44.6484194" lon="9.503246"><ele>628.0</ele><time>2026-04-04T11:03:33.984Z</time></trkpt><trkpt lat="44.648382" lon="9.5031162"><ele>628.0</ele><time>2026-04-04T11:03:34.983Z</time></trkpt><trkpt lat="44.6483506" lon="9.5029839"><ele>628.0</ele><time>2026-04-04T11:03:35.98Z</time></trkpt><trkpt lat="44.6483299" lon="9.5028456"><ele>628.0</ele><time>2026-04-04T11:03:36.976Z</time></trkpt><trkpt lat="44.6483092" lon="9.5027142"><ele>628.0</ele><time>2026-04-04T11:03:37.989Z</time></trkpt><trkpt lat="44.6482694" lon="9.5025867"><ele>629.1999999999999</ele><time>2026-04-04T11:03:38.976Z</time></trkpt><trkpt lat="44.6482307" lon="9.5024665"><ele>630.4</ele><time>2026-04-04T11:03:39.991Z</time></trkpt><trkpt lat="44.6482116" lon="9.5023366"><ele>631.5999999999999</ele><time>2026-04-04T11:03:40.978Z</time></trkpt><trkpt lat="44.6482074" lon="9.5022031"><ele>632.8</ele><time>2026-04-04T11:03:41.978Z</time></trkpt><trkpt lat="44.6481947" lon="9.5020669"><ele>634.0</ele><time>2026-04-04T11:03:42.975Z</time></trkpt><trkpt lat="44.6481806" lon="9.5019186"><ele>635.2</ele><time>2026-04-04T11:03:43.974Z</time></trkpt><trkpt lat="44.6481451" lon="9.5017823"><ele>636.4</ele><time>2026-04-04T11:03:44.975Z</time></trkpt><trkpt lat="44.648085" lon="9.5016526"><ele>637.6</ele><time>2026-04-04T11:03:45.974Z</time></trkpt><trkpt lat="44.6480068" lon="9.5015446"><ele>638.8</ele><time>2026-04-04T11:03:46.98Z</time></trkpt><trkpt lat="44.6479281" lon="9.5014368"><ele>640.0</ele><time>2026-04-04T11:03:47.974Z</time></trkpt><trkpt lat="44.6478444" lon="9.5013346"><ele>637.5</ele><time>2026-04-04T11:03:48.981Z</time></trkpt><trkpt lat="44.6477725" lon="9.5012453"><ele>635.0</ele><time>2026-04-04T11:03:49.975Z</time></trkpt><trkpt lat="44.6477061" lon="9.5011467"><ele>632.5</ele><time>2026-04-04T11:03:50.974Z</time></trkpt><trkpt lat="44.6476507" lon="9.5010509"><ele>630.0</ele><time>2026-04-04T11:03:51.985Z</time></trkpt><trkpt lat="44.6476176" lon="9.5009536"><ele>627.5</ele><time>2026-04-04T11:03:52.977Z</time></trkpt><trkpt lat="44.6476109" lon="9.5008506"><ele>625.0</ele><time>2026-04-04T11:03:53.975Z</time></trkpt><trkpt lat="44.647617" lon="9.500744"><ele>625.0</ele><time>2026-04-04T11:03:55.004Z</time></trkpt><trkpt lat="44.6476143" lon="9.5006173"><ele>625.0</ele><time>2026-04-04T11:03:55.993Z</time></trkpt><trkpt lat="44.6476227" lon="9.5004913"><ele>625.0</ele><time>2026-04-04T11:03:56.969Z</time></trkpt><trkpt lat="44.6476032" lon="9.5003943"><ele>625.0</ele><time>2026-04-04T11:03:57.997Z</time></trkpt><trkpt lat="44.6475533" lon="9.5003127"><ele>625.0</ele><time>2026-04-04T11:03:58.977Z</time></trkpt><trkpt lat="44.6474732" lon="9.500235"><ele>625.0</ele><time>2026-04-04T11:03:59.975Z</time></trkpt><trkpt lat="44.6473708" lon="9.5001636"><ele>626.8</ele><time>2026-04-04T11:04:00.973Z</time></trkpt><trkpt lat="44.6472705" lon="9.5000822"><ele>628.6</ele><time>2026-04-04T11:04:01.983Z</time></trkpt><trkpt lat="44.6471808" lon="9.5000067"><ele>630.4</ele><time>2026-04-04T11:04:02.976Z</time></trkpt><trkpt lat="44.6470966" lon="9.4999424"><ele>632.2</ele><time>2026-04-04T11:04:03.983Z</time></trkpt><trkpt lat="44.6470182" lon="9.4998566"><ele>634.0</ele><time>2026-04-04T11:04:04.978Z</time></trkpt><trkpt lat="44.6469384" lon="9.4997597"><ele>631.8</ele><time>2026-04-04T11:04:05.993Z</time></trkpt><trkpt lat="44.6468568" lon="9.4996648"><ele>629.5999999999999</ele><time>2026-04-04T11:04:06.995Z</time></trkpt><trkpt lat="44.6467942" lon="9.4995471"><ele>627.4</ele><time>2026-04-04T11:04:07.987Z</time></trkpt><trkpt lat="44.6467383" lon="9.4994343"><ele>625.1999999999999</ele><time>2026-04-04T11:04:08.983Z</time></trkpt><trkpt lat="44.6467008" lon="9.4993196"><ele>623.0</ele><time>2026-04-04T11:04:09.973Z</time></trkpt><trkpt lat="44.6466648" lon="9.4992024"><ele>623.0</ele><time>2026-04-04T11:04:10.99Z</time></trkpt><trkpt lat="44.6466379" lon="9.4990655"><ele>623.0</ele><time>2026-04-04T11:04:11.986Z</time></trkpt><trkpt lat="44.6466283" lon="9.4989284"><ele>623.0</ele><time>2026-04-04T11:04:12.985Z</time></trkpt><trkpt lat="44.646634" lon="9.4988085"><ele>623.0</ele><time>2026-04-04T11:04:13.969Z</time></trkpt><trkpt lat="44.6466425" lon="9.4987068"><ele>623.0</ele><time>2026-04-04T11:04:14.982Z</time></trkpt><trkpt lat="44.6466486" lon="9.4986136"><ele>623.0</ele><time>2026-04-04T11:04:15.98Z</time></trkpt><trkpt lat="44.6466358" lon="9.4984917"><ele>624.0</ele><time>2026-04-04T11:04:17.986Z</time></trkpt><trkpt lat="44.6465681" lon="9.4983574"><ele>625.0</ele><time>2026-04-04T11:04:19.98Z</time></trkpt><trkpt lat="44.6465108" lon="9.4982714"><ele>626.0</ele><time>2026-04-04T11:04:20.974Z</time></trkpt><trkpt lat="44.6464455" lon="9.4981784"><ele>627.0</ele><time>2026-04-04T11:04:21.987Z</time></trkpt><trkpt lat="44.6463922" lon="9.4980906"><ele>628.0</ele><time>2026-04-04T11:04:22.987Z</time></trkpt><trkpt lat="44.646344" lon="9.4979939"><ele>630.0</ele><time>2026-04-04T11:04:23.979Z</time></trkpt><trkpt lat="44.6463105" lon="9.4978794"><ele>632.0</ele><time>2026-04-04T11:04:24.976Z</time></trkpt><trkpt lat="44.6462813" lon="9.4977693"><ele>634.0</ele><time>2026-04-04T11:04:25.987Z</time></trkpt><trkpt lat="44.6462567" lon="9.4976649"><ele>636.0</ele><time>2026-04-04T11:04:26.982Z</time></trkpt><trkpt lat="44.6462362" lon="9.4975734"><ele>638.0</ele><time>2026-04-04T11:04:27.988Z</time></trkpt><trkpt lat="44.6462149" lon="9.49749"><ele>640.0</ele><time>2026-04-04T11:04:28.976Z</time></trkpt><trkpt lat="44.6461683" lon="9.4973788"><ele>637.4</ele><time>2026-04-04T11:04:30.996Z</time></trkpt><trkpt lat="44.6460821" lon="9.4973466"><ele>634.8</ele><time>2026-04-04T11:04:42.975Z</time></trkpt><trkpt lat="44.6460087" lon="9.4973927"><ele>632.2</ele><time>2026-04-04T11:04:44.974Z</time></trkpt><trkpt lat="44.6459208" lon="9.4974334"><ele>629.6</ele><time>2026-04-04T11:04:46.983Z</time></trkpt><trkpt lat="44.6458279" lon="9.4974966"><ele>627.0</ele><time>2026-04-04T11:04:48.985Z</time></trkpt><trkpt lat="44.6457285" lon="9.4975892"><ele>627.0</ele><time>2026-04-04T11:04:50.988Z</time></trkpt><trkpt lat="44.6456226" lon="9.4976723"><ele>627.0</ele><time>2026-04-04T11:04:52.988Z</time></trkpt><trkpt lat="44.6455229" lon="9.4977356"><ele>627.0</ele><time>2026-04-04T11:04:54.979Z</time></trkpt><trkpt lat="44.6454356" lon="9.4977798"><ele>627.0</ele><time>2026-04-04T11:04:57.006Z</time></trkpt><trkpt lat="44.6453732" lon="9.4977676"><ele>627.0</ele><time>2026-04-04T11:05:15.983Z</time></trkpt></trkseg><trkseg><trkpt lat="44.6456769" lon="9.503155"><ele>642.0</ele><time>2026-04-04T12:39:05.943Z</time></trkpt><trkpt lat="44.6457449" lon="9.503175"><ele>642.0</ele><time>2026-04-04T12:39:29.924Z</time></trkpt><trkpt lat="44.6458173" lon="9.5032411"><ele>642.0</ele><time>2026-04-04T12:39:32.922Z</time></trkpt><trkpt lat="44.6458532" lon="9.5033299"><ele>642.0</ele><time>2026-04-04T12:39:33.923Z</time></trkpt><trkpt lat="44.6458695" lon="9.5034659"><ele>642.0</ele><time>2026-04-04T12:39:34.937Z</time></trkpt><trkpt lat="44.6458888" lon="9.5036176"><ele>642.0</ele><time>2026-04-04T12:39:35.967Z</time></trkpt><trkpt lat="44.6459337" lon="9.5037741"><ele>644.5</ele><time>2026-04-04T12:39:36.939Z</time></trkpt><trkpt lat="44.6460018" lon="9.5039441"><ele>647.0</ele><time>2026-04-04T12:39:37.947Z</time></trkpt><trkpt lat="44.6460769" lon="9.5041153"><ele>649.5</ele><time>2026-04-04T12:39:38.952Z</time></trkpt><trkpt lat="44.6461459" lon="9.504274"><ele>652.0</ele><time>2026-04-04T12:39:39.947Z</time></trkpt><trkpt lat="44.6461926" lon="9.5044316"><ele>644.5</ele><time>2026-04-04T12:39:40.942Z</time></trkpt><trkpt lat="44.6462047" lon="9.5046124"><ele>637.0</ele><time>2026-04-04T12:39:41.969Z</time></trkpt><trkpt lat="44.6461843" lon="9.5048193"><ele>629.5</ele><time>2026-04-04T12:39:42.931Z</time></trkpt><trkpt lat="44.6461547" lon="9.5050324"><ele>622.0</ele><time>2026-04-04T12:39:43.934Z</time></trkpt><trkpt lat="44.6461629" lon="9.5052311"><ele>625.25</ele><time>2026-04-04T12:39:44.92Z</time></trkpt><trkpt lat="44.646202" lon="9.5054224"><ele>628.5</ele><time>2026-04-04T12:39:45.929Z</time></trkpt><trkpt lat="44.6462749" lon="9.5055925"><ele>631.75</ele><time>2026-04-04T12:39:46.931Z</time></trkpt><trkpt lat="44.6463634" lon="9.5057719"><ele>635.0</ele><time>2026-04-04T12:39:47.953Z</time></trkpt><trkpt lat="44.646486" lon="9.5059773"><ele>635.0</ele><time>2026-04-04T12:39:48.93Z</time></trkpt><trkpt lat="44.6466201" lon="9.5061903"><ele>635.0</ele><time>2026-04-04T12:39:49.952Z</time></trkpt><trkpt lat="44.646761" lon="9.5063996"><ele>635.0</ele><time>2026-04-04T12:39:50.938Z</time></trkpt><trkpt lat="44.6469031" lon="9.5065812"><ele>630.0</ele><time>2026-04-04T12:39:51.952Z</time></trkpt><trkpt lat="44.647057" lon="9.5067429"><ele>625.0</ele><time>2026-04-04T12:39:52.952Z</time></trkpt><trkpt lat="44.647199" lon="9.5068875"><ele>620.0</ele><time>2026-04-04T12:39:53.942Z</time></trkpt><trkpt lat="44.6473033" lon="9.5070434"><ele>624.25</ele><time>2026-04-04T12:39:54.94Z</time></trkpt><trkpt lat="44.6473641" lon="9.5072245"><ele>628.5</ele><time>2026-04-04T12:39:55.927Z</time></trkpt><trkpt lat="44.6474038" lon="9.5074175"><ele>632.75</ele><time>2026-04-04T12:39:56.942Z</time></trkpt><trkpt lat="44.6474306" lon="9.5076233"><ele>637.0</ele><time>2026-04-04T12:39:57.952Z</time></trkpt><trkpt lat="44.6474739" lon="9.5077919"><ele>636.8000000000001</ele><time>2026-04-04T12:39:58.956Z</time></trkpt><trkpt lat="44.6475333" lon="9.5079238"><ele>636.6</ele><time>2026-04-04T12:39:59.95Z</time></trkpt><trkpt lat="44.6476154" lon="9.5080325"><ele>636.4000000000001</ele><time>2026-04-04T12:40:00.948Z</time></trkpt><trkpt lat="44.6477144" lon="9.5081072"><ele>636.2</ele><time>2026-04-04T12:40:01.936Z</time></trkpt><trkpt lat="44.6478171" lon="9.5081569"><ele>636.0</ele><time>2026-04-04T12:40:02.956Z</time></trkpt><trkpt lat="44.6479366" lon="9.5081756"><ele>636.0</ele><time>2026-04-04T12:40:03.939Z</time></trkpt><trkpt lat="44.6480421" lon="9.5081889"><ele>636.0</ele><time>2026-04-04T12:40:04.934Z</time></trkpt><trkpt lat="44.6481428" lon="9.508203"><ele>636.0</ele><time>2026-04-04T12:40:05.949Z</time></trkpt><trkpt lat="44.6482414" lon="9.5082331"><ele>636.0</ele><time>2026-04-04T12:40:06.953Z</time></trkpt><trkpt lat="44.6483339" lon="9.5082663"><ele>636.0</ele><time>2026-04-04T12:40:07.958Z</time></trkpt><trkpt lat="44.6484141" lon="9.5083719"><ele>636.0</ele><time>2026-04-04T12:40:08.939Z</time></trkpt><trkpt lat="44.6484734" lon="9.5085228"><ele>636.0</ele><time>2026-04-04T12:40:09.946Z</time></trkpt><trkpt lat="44.6485391" lon="9.5086876"><ele>636.0</ele><time>2026-04-04T12:40:10.962Z</time></trkpt><trkpt lat="44.6486005" lon="9.5088555"><ele>636.0</ele><time>2026-04-04T12:40:11.964Z</time></trkpt><trkpt lat="44.6486912" lon="9.5090457"><ele>633.0</ele><time>2026-04-04T12:40:12.947Z</time></trkpt><trkpt lat="44.6487887" lon="9.5092448"><ele>630.0</ele><time>2026-04-04T12:40:13.962Z</time></trkpt><trkpt lat="44.6488827" lon="9.5095084"><ele>627.0</ele><time>2026-04-04T12:40:14.976Z</time></trkpt><trkpt lat="44.6489624" lon="9.5098037"><ele>627.0</ele><time>2026-04-04T12:40:15.907Z</time></trkpt><trkpt lat="44.6490381" lon="9.5100962"><ele>627.0</ele><time>2026-04-04T12:40:16.928Z</time></trkpt><trkpt lat="44.6491096" lon="9.5103827"><ele>627.0</ele><time>2026-04-04T12:40:17.959Z</time></trkpt><trkpt lat="44.6491933" lon="9.5106538"><ele>629.0</ele><time>2026-04-04T12:40:18.95Z</time></trkpt><trkpt lat="44.6492735" lon="9.5108992"><ele>631.0</ele><time>2026-04-04T12:40:19.961Z</time></trkpt><trkpt lat="44.6493416" lon="9.5111029"><ele>633.0</ele><time>2026-04-04T12:40:20.961Z</time></trkpt><trkpt lat="44.6494191" lon="9.5112704"><ele>634.5</ele><time>2026-04-04T12:40:21.961Z</time></trkpt><trkpt lat="44.6494494" lon="9.5114359"><ele>636.0</ele><time>2026-04-04T12:40:22.963Z</time></trkpt><trkpt lat="44.6494567" lon="9.5116411"><ele>637.5</ele><time>2026-04-04T12:40:23.955Z</time></trkpt><trkpt lat="44.6494434" lon="9.5118538"><ele>639.0</ele><time>2026-04-04T12:40:24.983Z</time></trkpt><trkpt lat="44.6494466" lon="9.5120752"><ele>633.0</ele><time>2026-04-04T12:40:25.95Z</time></trkpt><trkpt lat="44.649476" lon="9.5122948"><ele>627.0</ele><time>2026-04-04T12:40:26.962Z</time></trkpt><trkpt lat="44.6495234" lon="9.5125003"><ele>621.0</ele><time>2026-04-04T12:40:27.964Z</time></trkpt><trkpt lat="44.6495961" lon="9.5126909"><ele>621.0</ele><time>2026-04-04T12:40:28.916Z</time></trkpt><trkpt lat="44.6496363" lon="9.512834"><ele>621.0</ele><time>2026-04-04T12:40:29.948Z</time></trkpt><trkpt lat="44.6496604" lon="9.5129692"><ele>621.0</ele><time>2026-04-04T12:40:30.977Z</time></trkpt><trkpt lat="44.6496459" lon="9.5131397"><ele>621.0</ele><time>2026-04-04T12:40:31.951Z</time></trkpt><trkpt lat="44.6496077" lon="9.5133365"><ele>621.75</ele><time>2026-04-04T12:40:32.947Z</time></trkpt><trkpt lat="44.6495494" lon="9.5135354"><ele>622.5</ele><time>2026-04-04T12:40:33.959Z</time></trkpt><trkpt lat="44.6494945" lon="9.5137456"><ele>623.25</ele><time>2026-04-04T12:40:34.956Z</time></trkpt><trkpt lat="44.6494538" lon="9.5139202"><ele>624.0</ele><time>2026-04-04T12:40:35.93Z</time></trkpt><trkpt lat="44.6494359" lon="9.5140772"><ele>624.0</ele><time>2026-04-04T12:40:36.981Z</time></trkpt><trkpt lat="44.649449" lon="9.5142519"><ele>624.0</ele><time>2026-04-04T12:40:37.944Z</time></trkpt><trkpt lat="44.6495214" lon="9.5144199"><ele>624.0</ele><time>2026-04-04T12:40:38.969Z</time></trkpt><trkpt lat="44.6496344" lon="9.5145492"><ele>624.0</ele><time>2026-04-04T12:40:39.975Z</time></trkpt><trkpt lat="44.6497551" lon="9.5146788"><ele>624.5</ele><time>2026-04-04T12:40:40.97Z</time></trkpt><trkpt lat="44.649873" lon="9.5147951"><ele>625.0</ele><time>2026-04-04T12:40:42Z</time></trkpt><trkpt lat="44.6499767" lon="9.5148991"><ele>625.5</ele><time>2026-04-04T12:40:42.954Z</time></trkpt><trkpt lat="44.650037" lon="9.5150103"><ele>626.0</ele><time>2026-04-04T12:40:43.969Z</time></trkpt><trkpt lat="44.6500832" lon="9.5151318"><ele>626.0</ele><time>2026-04-04T12:40:44.971Z</time></trkpt><trkpt lat="44.6501066" lon="9.5152827"><ele>626.0</ele><time>2026-04-04T12:40:45.974Z</time></trkpt><trkpt lat="44.6500782" lon="9.5154931"><ele>626.0</ele><time>2026-04-04T12:40:46.942Z</time></trkpt><trkpt lat="44.650039" lon="9.5157097"><ele>626.0</ele><time>2026-04-04T12:40:47.955Z</time></trkpt><trkpt lat="44.6500105" lon="9.5159075"><ele>626.25</ele><time>2026-04-04T12:40:48.962Z</time></trkpt><trkpt lat="44.6499797" lon="9.5160981"><ele>626.5</ele><time>2026-04-04T12:40:49.961Z</time></trkpt><trkpt lat="44.6499906" lon="9.5162931"><ele>626.75</ele><time>2026-04-04T12:40:50.899Z</time></trkpt><trkpt lat="44.6500502" lon="9.5165139"><ele>627.0</ele><time>2026-04-04T12:40:51.897Z</time></trkpt><trkpt lat="44.6501237" lon="9.5167394"><ele>627.0</ele><time>2026-04-04T12:40:52.898Z</time></trkpt><trkpt lat="44.6501881" lon="9.5169623"><ele>627.0</ele><time>2026-04-04T12:40:53.922Z</time></trkpt><trkpt lat="44.6502441" lon="9.5171729"><ele>627.0</ele><time>2026-04-04T12:40:54.9Z</time></trkpt><trkpt lat="44.6502853" lon="9.5173768"><ele>619.6666666666666</ele><time>2026-04-04T12:40:55.934Z</time></trkpt><trkpt lat="44.6503289" lon="9.517583"><ele>612.3333333333333</ele><time>2026-04-04T12:40:56.959Z</time></trkpt><trkpt lat="44.6503759" lon="9.5177883"><ele>605.0</ele><time>2026-04-04T12:40:57.974Z</time></trkpt><trkpt lat="44.6504209" lon="9.5179904"><ele>604.25</ele><time>2026-04-04T12:40:58.926Z</time></trkpt><trkpt lat="44.6504496" lon="9.5181934"><ele>603.5</ele><time>2026-04-04T12:40:59.928Z</time></trkpt><trkpt lat="44.6504536" lon="9.5184042"><ele>602.75</ele><time>2026-04-04T12:41:00.909Z</time></trkpt><trkpt lat="44.650457" lon="9.518612"><ele>602.0</ele><time>2026-04-04T12:41:01.956Z</time></trkpt><trkpt lat="44.6504602" lon="9.5188348"><ele>602.0</ele><time>2026-04-04T12:41:02.976Z</time></trkpt><trkpt lat="44.6504733" lon="9.5190545"><ele>602.0</ele><time>2026-04-04T12:41:03.971Z</time></trkpt><trkpt lat="44.6505013" lon="9.5192849"><ele>602.0</ele><time>2026-04-04T12:41:04.968Z</time></trkpt><trkpt lat="44.6505519" lon="9.5195125"><ele>602.0</ele><time>2026-04-04T12:41:05.898Z</time></trkpt><trkpt lat="44.6506072" lon="9.5197324"><ele>602.0</ele><time>2026-04-04T12:41:06.911Z</time></trkpt><trkpt lat="44.6506552" lon="9.5199458"><ele>602.0</ele><time>2026-04-04T12:41:07.974Z</time></trkpt><trkpt lat="44.6506957" lon="9.5201333"><ele>602.0</ele><time>2026-04-04T12:41:08.97Z</time></trkpt><trkpt lat="44.6507264" lon="9.5203245"><ele>602.0</ele><time>2026-04-04T12:41:09.937Z</time></trkpt><trkpt lat="44.6507553" lon="9.5205109"><ele>602.0</ele><time>2026-04-04T12:41:10.978Z</time></trkpt><trkpt lat="44.6507892" lon="9.5206931"><ele>602.0</ele><time>2026-04-04T12:41:11.909Z</time></trkpt><trkpt lat="44.6508359" lon="9.5208793"><ele>603.75</ele><time>2026-04-04T12:41:12.975Z</time></trkpt><trkpt lat="44.6509044" lon="9.5210618"><ele>605.5</ele><time>2026-04-04T12:41:13.971Z</time></trkpt><trkpt lat="44.6509843" lon="9.521242"><ele>607.25</ele><time>2026-04-04T12:41:14.994Z</time></trkpt><trkpt lat="44.6510489" lon="9.5214119"><ele>609.0</ele><time>2026-04-04T12:41:15.944Z</time></trkpt><trkpt lat="44.6511032" lon="9.5215898"><ele>601.5</ele><time>2026-04-04T12:41:16.964Z</time></trkpt><trkpt lat="44.6511514" lon="9.5217672"><ele>594.0</ele><time>2026-04-04T12:41:17.967Z</time></trkpt><trkpt lat="44.6511807" lon="9.5219617"><ele>586.5</ele><time>2026-04-04T12:41:18.916Z</time></trkpt><trkpt lat="44.6512026" lon="9.5221674"><ele>579.0</ele><time>2026-04-04T12:41:19.964Z</time></trkpt><trkpt lat="44.6512222" lon="9.5223783"><ele>579.0</ele><time>2026-04-04T12:41:20.939Z</time></trkpt><trkpt lat="44.6512388" lon="9.5225941"><ele>579.0</ele><time>2026-04-04T12:41:21.964Z</time></trkpt><trkpt lat="44.6512542" lon="9.5228096"><ele>579.0</ele><time>2026-04-04T12:41:22.952Z</time></trkpt><trkpt lat="44.6512735" lon="9.5230117"><ele>580.75</ele><time>2026-04-04T12:41:23.944Z</time></trkpt><trkpt lat="44.6512906" lon="9.5232063"><ele>582.5</ele><time>2026-04-04T12:41:24.962Z</time></trkpt><trkpt lat="44.6513166" lon="9.5233889"><ele>584.25</ele><time>2026-04-04T12:41:25.954Z</time></trkpt><trkpt lat="44.651353" lon="9.5235642"><ele>586.0</ele><time>2026-04-04T12:41:26.956Z</time></trkpt><trkpt lat="44.651422" lon="9.5237325"><ele>588.5</ele><time>2026-04-04T12:41:27.966Z</time></trkpt><trkpt lat="44.6515101" lon="9.5238957"><ele>591.0</ele><time>2026-04-04T12:41:28.951Z</time></trkpt><trkpt lat="44.6515789" lon="9.5240474"><ele>593.5</ele><time>2026-04-04T12:41:29.968Z</time></trkpt><trkpt lat="44.6516303" lon="9.5242137"><ele>596.0</ele><time>2026-04-04T12:41:30.967Z</time></trkpt><trkpt lat="44.6516601" lon="9.5243852"><ele>596.0</ele><time>2026-04-04T12:41:31.961Z</time></trkpt><trkpt lat="44.6516907" lon="9.5245365"><ele>596.0</ele><time>2026-04-04T12:41:32.954Z</time></trkpt><trkpt lat="44.6517362" lon="9.524675"><ele>596.0</ele><time>2026-04-04T12:41:33.964Z</time></trkpt><trkpt lat="44.6518033" lon="9.5247984"><ele>596.0</ele><time>2026-04-04T12:41:34.971Z</time></trkpt><trkpt lat="44.6518907" lon="9.5249014"><ele>596.0</ele><time>2026-04-04T12:41:35.962Z</time></trkpt><trkpt lat="44.6519789" lon="9.5249892"><ele>596.0</ele><time>2026-04-04T12:41:36.961Z</time></trkpt><trkpt lat="44.6520789" lon="9.5250522"><ele>596.0</ele><time>2026-04-04T12:41:37.972Z</time></trkpt><trkpt lat="44.6521736" lon="9.5251218"><ele>596.0</ele><time>2026-04-04T12:41:38.942Z</time></trkpt><trkpt lat="44.6522698" lon="9.5251956"><ele>596.0</ele><time>2026-04-04T12:41:39.892Z</time></trkpt><trkpt lat="44.6523349" lon="9.5253198"><ele>596.0</ele><time>2026-04-04T12:41:40.925Z</time></trkpt><trkpt lat="44.6523905" lon="9.5254909"><ele>596.0</ele><time>2026-04-04T12:41:41.963Z</time></trkpt><trkpt lat="44.65244" lon="9.5256604"><ele>596.0</ele><time>2026-04-04T12:41:42.961Z</time></trkpt><trkpt lat="44.6525038" lon="9.5258154"><ele>596.0</ele><time>2026-04-04T12:41:43.898Z</time></trkpt><trkpt lat="44.6525821" lon="9.5259547"><ele>596.0</ele><time>2026-04-04T12:41:44.934Z</time></trkpt><trkpt lat="44.6526614" lon="9.5260755"><ele>596.0</ele><time>2026-04-04T12:41:45.977Z</time></trkpt><trkpt lat="44.6527381" lon="9.5262024"><ele>596.0</ele><time>2026-04-04T12:41:46.947Z</time></trkpt><trkpt lat="44.6528093" lon="9.5263298"><ele>596.0</ele><time>2026-04-04T12:41:47.964Z</time></trkpt><trkpt lat="44.6528733" lon="9.526453"><ele>596.0</ele><time>2026-04-04T12:41:48.971Z</time></trkpt><trkpt lat="44.6529183" lon="9.5265778"><ele>596.0</ele><time>2026-04-04T12:41:49.946Z</time></trkpt><trkpt lat="44.6529227" lon="9.526715"><ele>595.8</ele><time>2026-04-04T12:41:50.969Z</time></trkpt><trkpt lat="44.6528995" lon="9.5268532"><ele>595.6</ele><time>2026-04-04T12:41:51.943Z</time></trkpt><trkpt lat="44.652852" lon="9.5269846"><ele>595.4</ele><time>2026-04-04T12:41:52.965Z</time></trkpt><trkpt lat="44.6527815" lon="9.5270971"><ele>595.2</ele><time>2026-04-04T12:41:53.976Z</time></trkpt><trkpt lat="44.6527074" lon="9.5271952"><ele>595.0</ele><time>2026-04-04T12:41:54.97Z</time></trkpt><trkpt lat="44.6526412" lon="9.5273057"><ele>595.0</ele><time>2026-04-04T12:41:55.963Z</time></trkpt><trkpt lat="44.6525987" lon="9.5274554"><ele>595.0</ele><time>2026-04-04T12:41:56.978Z</time></trkpt><trkpt lat="44.6526245" lon="9.5276283"><ele>595.0</ele><time>2026-04-04T12:41:57.97Z</time></trkpt><trkpt lat="44.6526594" lon="9.5277889"><ele>595.0</ele><time>2026-04-04T12:41:58.968Z</time></trkpt><trkpt lat="44.6526998" lon="9.5279553"><ele>596.25</ele><time>2026-04-04T12:41:59.958Z</time></trkpt><trkpt lat="44.6527667" lon="9.5281202"><ele>597.5</ele><time>2026-04-04T12:42:00.966Z</time></trkpt><trkpt lat="44.6528426" lon="9.5282925"><ele>598.75</ele><time>2026-04-04T12:42:01.971Z</time></trkpt><trkpt lat="44.6529158" lon="9.5284628"><ele>600.0</ele><time>2026-04-04T12:42:02.977Z</time></trkpt><trkpt lat="44.6529721" lon="9.5286373"><ele>596.0</ele><time>2026-04-04T12:42:03.987Z</time></trkpt><trkpt lat="44.6530389" lon="9.528794"><ele>592.0</ele><time>2026-04-04T12:42:04.97Z</time></trkpt><trkpt lat="44.6531186" lon="9.5289391"><ele>588.0</ele><time>2026-04-04T12:42:05.93Z</time></trkpt><trkpt lat="44.6532332" lon="9.5290644"><ele>584.0</ele><time>2026-04-04T12:42:06.925Z</time></trkpt><trkpt lat="44.6533628" lon="9.5291731"><ele>584.0</ele><time>2026-04-04T12:42:07.966Z</time></trkpt><trkpt lat="44.6534895" lon="9.5292799"><ele>584.0</ele><time>2026-04-04T12:42:08.965Z</time></trkpt><trkpt lat="44.6536061" lon="9.5293944"><ele>584.0</ele><time>2026-04-04T12:42:09.952Z</time></trkpt><trkpt lat="44.6537158" lon="9.529499"><ele>584.0</ele><time>2026-04-04T12:42:10.974Z</time></trkpt><trkpt lat="44.6538151" lon="9.5296145"><ele>582.25</ele><time>2026-04-04T12:42:11.953Z</time></trkpt><trkpt lat="44.6538801" lon="9.5297488"><ele>580.5</ele><time>2026-04-04T12:42:12.982Z</time></trkpt><trkpt lat="44.653926" lon="9.5298994"><ele>578.75</ele><time>2026-04-04T12:42:13.992Z</time></trkpt><trkpt lat="44.6539585" lon="9.5300566"><ele>577.0</ele><time>2026-04-04T12:42:14.975Z</time></trkpt><trkpt lat="44.6539435" lon="9.5302374"><ele>576.75</ele><time>2026-04-04T12:42:15.979Z</time></trkpt><trkpt lat="44.6539107" lon="9.5304088"><ele>576.5</ele><time>2026-04-04T12:42:16.952Z</time></trkpt><trkpt lat="44.6538923" lon="9.5305984"><ele>576.25</ele><time>2026-04-04T12:42:17.965Z</time></trkpt><trkpt lat="44.6539035" lon="9.530803"><ele>576.0</ele><time>2026-04-04T12:42:18.933Z</time></trkpt><trkpt lat="44.653943" lon="9.5310446"><ele>575.6666666666666</ele><time>2026-04-04T12:42:19.942Z</time></trkpt><trkpt lat="44.654004" lon="9.5313162"><ele>575.3333333333333</ele><time>2026-04-04T12:42:20.938Z</time></trkpt><trkpt lat="44.6540542" lon="9.5315914"><ele>575.0</ele><time>2026-04-04T12:42:21.963Z</time></trkpt><trkpt lat="44.6541117" lon="9.5318665"><ele>575.0</ele><time>2026-04-04T12:42:22.969Z</time></trkpt><trkpt lat="44.6541846" lon="9.5321401"><ele>575.0</ele><time>2026-04-04T12:42:23.96Z</time></trkpt><trkpt lat="44.6542695" lon="9.5324066"><ele>575.0</ele><time>2026-04-04T12:42:24.97Z</time></trkpt><trkpt lat="44.6543769" lon="9.5326416"><ele>574.3333333333333</ele><time>2026-04-04T12:42:25.972Z</time></trkpt><trkpt lat="44.6545038" lon="9.5328455"><ele>573.6666666666666</ele><time>2026-04-04T12:42:26.96Z</time></trkpt><trkpt lat="44.6546618" lon="9.5330385"><ele>573.0</ele><time>2026-04-04T12:42:27.947Z</time></trkpt><trkpt lat="44.6548382" lon="9.5332007"><ele>573.0</ele><time>2026-04-04T12:42:28.978Z</time></trkpt><trkpt lat="44.6549934" lon="9.5333338"><ele>573.0</ele><time>2026-04-04T12:42:29.968Z</time></trkpt><trkpt lat="44.6551265" lon="9.5334491"><ele>573.0</ele><time>2026-04-04T12:42:30.944Z</time></trkpt><trkpt lat="44.6552279" lon="9.5335698"><ele>568.25</ele><time>2026-04-04T12:42:31.961Z</time></trkpt><trkpt lat="44.6553047" lon="9.5336997"><ele>563.5</ele><time>2026-04-04T12:42:32.955Z</time></trkpt><trkpt lat="44.6553387" lon="9.5338906"><ele>558.75</ele><time>2026-04-04T12:42:33.972Z</time></trkpt><trkpt lat="44.6553279" lon="9.5340954"><ele>554.0</ele><time>2026-04-04T12:42:34.957Z</time></trkpt><trkpt lat="44.6552931" lon="9.534315"><ele>564.3333333333333</ele><time>2026-04-04T12:42:35.979Z</time></trkpt><trkpt lat="44.6552414" lon="9.5345379"><ele>574.6666666666666</ele><time>2026-04-04T12:42:36.949Z</time></trkpt><trkpt lat="44.6551923" lon="9.5347687"><ele>585.0</ele><time>2026-04-04T12:42:37.981Z</time></trkpt><trkpt lat="44.6551512" lon="9.5349987"><ele>585.0</ele><time>2026-04-04T12:42:38.965Z</time></trkpt><trkpt lat="44.6551471" lon="9.5352107"><ele>585.0</ele><time>2026-04-04T12:42:39.953Z</time></trkpt><trkpt lat="44.6551951" lon="9.5354071"><ele>585.0</ele><time>2026-04-04T12:42:40.961Z</time></trkpt><trkpt lat="44.6552723" lon="9.5355999"><ele>579.6666666666666</ele><time>2026-04-04T12:42:41.954Z</time></trkpt><trkpt lat="44.6554008" lon="9.5357668"><ele>574.3333333333333</ele><time>2026-04-04T12:42:42.96Z</time></trkpt><trkpt lat="44.6555663" lon="9.5359265"><ele>569.0</ele><time>2026-04-04T12:42:43.959Z</time></trkpt><trkpt lat="44.6557183" lon="9.5361157"><ele>572.6666666666666</ele><time>2026-04-04T12:42:44.94Z</time></trkpt><trkpt lat="44.6558425" lon="9.5363412"><ele>576.3333333333334</ele><time>2026-04-04T12:42:45.933Z</time></trkpt><trkpt lat="44.6559302" lon="9.5365983"><ele>580.0</ele><time>2026-04-04T12:42:46.981Z</time></trkpt><trkpt lat="44.656038" lon="9.5368594"><ele>576.6666666666667</ele><time>2026-04-04T12:42:47.949Z</time></trkpt><trkpt lat="44.6561614" lon="9.5371272"><ele>573.3333333333334</ele><time>2026-04-04T12:42:48.965Z</time></trkpt><trkpt lat="44.6563069" lon="9.5373585"><ele>570.0</ele><time>2026-04-04T12:42:49.963Z</time></trkpt><trkpt lat="44.6564524" lon="9.5375664"><ele>570.0</ele><time>2026-04-04T12:42:50.939Z</time></trkpt><trkpt lat="44.6565855" lon="9.537726"><ele>570.0</ele><time>2026-04-04T12:42:51.966Z</time></trkpt><trkpt lat="44.6567225" lon="9.5378299"><ele>570.0</ele><time>2026-04-04T12:42:52.958Z</time></trkpt><trkpt lat="44.6568808" lon="9.5379039"><ele>572.6666666666666</ele><time>2026-04-04T12:42:53.965Z</time></trkpt><trkpt lat="44.6570524" lon="9.5379348"><ele>575.3333333333333</ele><time>2026-04-04T12:42:54.946Z</time></trkpt><trkpt lat="44.6572341" lon="9.5379476"><ele>578.0</ele><time>2026-04-04T12:42:55.95Z</time></trkpt><trkpt lat="44.6574159" lon="9.5379643"><ele>578.0</ele><time>2026-04-04T12:42:56.946Z</time></trkpt><trkpt lat="44.6576054" lon="9.5380371"><ele>578.0</ele><time>2026-04-04T12:42:57.976Z</time></trkpt><trkpt lat="44.657781" lon="9.5381731"><ele>578.0</ele><time>2026-04-04T12:42:58.946Z</time></trkpt><trkpt lat="44.6579242" lon="9.538287"><ele>572.6666666666666</ele><time>2026-04-04T12:42:59.964Z</time></trkpt><trkpt lat="44.6580557" lon="9.5383852"><ele>567.3333333333334</ele><time>2026-04-04T12:43:00.974Z</time></trkpt><trkpt lat="44.6581653" lon="9.5385242"><ele>562.0</ele><time>2026-04-04T12:43:01.966Z</time></trkpt><trkpt lat="44.6582352" lon="9.5387614"><ele>562.0</ele><time>2026-04-04T12:43:02.983Z</time></trkpt><trkpt lat="44.658297" lon="9.5390466"><ele>562.0</ele><time>2026-04-04T12:43:03.975Z</time></trkpt><trkpt lat="44.6583811" lon="9.5393049"><ele>562.0</ele><time>2026-04-04T12:43:04.939Z</time></trkpt><trkpt lat="44.6584525" lon="9.539509"><ele>562.3333333333334</ele><time>2026-04-04T12:43:05.97Z</time></trkpt><trkpt lat="44.6584724" lon="9.5397084"><ele>562.6666666666666</ele><time>2026-04-04T12:43:06.965Z</time></trkpt><trkpt lat="44.658442" lon="9.5399394"><ele>563.0</ele><time>2026-04-04T12:43:07.979Z</time></trkpt><trkpt lat="44.6584021" lon="9.5401775"><ele>563.0</ele><time>2026-04-04T12:43:08.952Z</time></trkpt><trkpt lat="44.6583816" lon="9.540371"><ele>563.0</ele><time>2026-04-04T12:43:09.937Z</time></trkpt><trkpt lat="44.6583879" lon="9.5405445"><ele>563.0</ele><time>2026-04-04T12:43:10.937Z</time></trkpt><trkpt lat="44.6584149" lon="9.540717"><ele>563.0</ele><time>2026-04-04T12:43:11.931Z</time></trkpt><trkpt lat="44.6584988" lon="9.5408725"><ele>564.0</ele><time>2026-04-04T12:43:12.94Z</time></trkpt><trkpt lat="44.658641" lon="9.541013"><ele>565.0</ele><time>2026-04-04T12:43:13.916Z</time></trkpt><trkpt lat="44.6588194" lon="9.5411274"><ele>566.0</ele><time>2026-04-04T12:43:14.949Z</time></trkpt><trkpt lat="44.6590801" lon="9.5412302"><ele>566.0</ele><time>2026-04-04T12:43:15.914Z</time></trkpt><trkpt lat="44.6593269" lon="9.5413374"><ele>566.0</ele><time>2026-04-04T12:43:16.966Z</time></trkpt><trkpt lat="44.6595372" lon="9.5414485"><ele>561.0</ele><time>2026-04-04T12:43:17.962Z</time></trkpt><trkpt lat="44.6597148" lon="9.5415965"><ele>556.0</ele><time>2026-04-04T12:43:18.97Z</time></trkpt><trkpt lat="44.6598889" lon="9.541795"><ele>551.0</ele><time>2026-04-04T12:43:19.919Z</time></trkpt><trkpt lat="44.6600602" lon="9.54202"><ele>549.0</ele><time>2026-04-04T12:43:20.941Z</time></trkpt><trkpt lat="44.6602372" lon="9.5422226"><ele>547.0</ele><time>2026-04-04T12:43:21.968Z</time></trkpt><trkpt lat="44.660408" lon="9.5423348"><ele>545.0</ele><time>2026-04-04T12:43:22.955Z</time></trkpt><trkpt lat="44.660543" lon="9.5424301"><ele>545.0</ele><time>2026-04-04T12:43:23.961Z</time></trkpt><trkpt lat="44.6606459" lon="9.5425456"><ele>545.0</ele><time>2026-04-04T12:43:24.935Z</time></trkpt><trkpt lat="44.6607298" lon="9.5427004"><ele>545.0</ele><time>2026-04-04T12:43:25.965Z</time></trkpt><trkpt lat="44.6607939" lon="9.5428949"><ele>545.0</ele><time>2026-04-04T12:43:26.958Z</time></trkpt><trkpt lat="44.6608457" lon="9.5431581"><ele>545.6666666666666</ele><time>2026-04-04T12:43:27.955Z</time></trkpt><trkpt lat="44.6608927" lon="9.5434656"><ele>546.3333333333334</ele><time>2026-04-04T12:43:28.958Z</time></trkpt><trkpt lat="44.660927" lon="9.5437579"><ele>547.0</ele><time>2026-04-04T12:43:29.974Z</time></trkpt><trkpt lat="44.6609364" lon="9.5440514"><ele>547.0</ele><time>2026-04-04T12:43:30.957Z</time></trkpt><trkpt lat="44.6609236" lon="9.5443698"><ele>547.0</ele><time>2026-04-04T12:43:31.963Z</time></trkpt><trkpt lat="44.660918" lon="9.5447129"><ele>545.5</ele><time>2026-04-04T12:43:32.943Z</time></trkpt><trkpt lat="44.6609184" lon="9.5450445"><ele>544.0</ele><time>2026-04-04T12:43:33.956Z</time></trkpt><trkpt lat="44.6609042" lon="9.5453514"><ele>543.0</ele><time>2026-04-04T12:43:34.957Z</time></trkpt><trkpt lat="44.6609011" lon="9.5456186"><ele>542.0</ele><time>2026-04-04T12:43:35.919Z</time></trkpt><trkpt lat="44.6609116" lon="9.5458152"><ele>541.0</ele><time>2026-04-04T12:43:36.933Z</time></trkpt><trkpt lat="44.6609371" lon="9.5459829"><ele>541.0</ele><time>2026-04-04T12:43:37.958Z</time></trkpt><trkpt lat="44.6609924" lon="9.5461504"><ele>541.0</ele><time>2026-04-04T12:43:38.969Z</time></trkpt><trkpt lat="44.6610777" lon="9.5463086"><ele>541.0</ele><time>2026-04-04T12:43:39.971Z</time></trkpt><trkpt lat="44.6611766" lon="9.5464283"><ele>541.0</ele><time>2026-04-04T12:43:40.981Z</time></trkpt><trkpt lat="44.6612946" lon="9.5465135"><ele>537.3333333333334</ele><time>2026-04-04T12:43:41.97Z</time></trkpt><trkpt lat="44.6614173" lon="9.546556"><ele>533.6666666666666</ele><time>2026-04-04T12:43:42.945Z</time></trkpt><trkpt lat="44.6615757" lon="9.5465255"><ele>530.0</ele><time>2026-04-04T12:43:43.931Z</time></trkpt><trkpt lat="44.6617413" lon="9.5464689"><ele>530.0</ele><time>2026-04-04T12:43:44.962Z</time></trkpt><trkpt lat="44.6619392" lon="9.5464053"><ele>530.0</ele><time>2026-04-04T12:43:45.982Z</time></trkpt><trkpt lat="44.6621482" lon="9.5463332"><ele>530.0</ele><time>2026-04-04T12:43:46.913Z</time></trkpt><trkpt lat="44.6623608" lon="9.5462762"><ele>529.0</ele><time>2026-04-04T12:43:47.986Z</time></trkpt><trkpt lat="44.6625692" lon="9.546213"><ele>528.0</ele><time>2026-04-04T12:43:48.983Z</time></trkpt><trkpt lat="44.6627623" lon="9.5461494"><ele>527.0</ele><time>2026-04-04T12:43:49.96Z</time></trkpt><trkpt lat="44.6629253" lon="9.5460846"><ele>531.5</ele><time>2026-04-04T12:43:50.967Z</time></trkpt><trkpt lat="44.6630651" lon="9.5460415"><ele>536.0</ele><time>2026-04-04T12:43:51.906Z</time></trkpt><trkpt lat="44.6631874" lon="9.5460175"><ele>540.5</ele><time>2026-04-04T12:43:52.964Z</time></trkpt><trkpt lat="44.6632953" lon="9.5460407"><ele>545.0</ele><time>2026-04-04T12:43:53.971Z</time></trkpt><trkpt lat="44.6633856" lon="9.546124"><ele>543.25</ele><time>2026-04-04T12:43:54.948Z</time></trkpt><trkpt lat="44.6634437" lon="9.5462506"><ele>541.5</ele><time>2026-04-04T12:43:55.973Z</time></trkpt><trkpt lat="44.663487" lon="9.5463926"><ele>539.75</ele><time>2026-04-04T12:43:56.958Z</time></trkpt><trkpt lat="44.66351" lon="9.54657"><ele>538.0</ele><time>2026-04-04T12:43:57.963Z</time></trkpt><trkpt lat="44.6634823" lon="9.5467549"><ele>538.0</ele><time>2026-04-04T12:43:58.917Z</time></trkpt><trkpt lat="44.6633919" lon="9.5469448"><ele>538.0</ele><time>2026-04-04T12:43:59.955Z</time></trkpt><trkpt lat="44.6632872" lon="9.5471385"><ele>538.0</ele><time>2026-04-04T12:44:00.982Z</time></trkpt><trkpt lat="44.6632578" lon="9.5473264"><ele>538.3333333333334</ele><time>2026-04-04T12:44:01.974Z</time></trkpt><trkpt lat="44.6633051" lon="9.5475398"><ele>538.6666666666666</ele><time>2026-04-04T12:44:02.985Z</time></trkpt><trkpt lat="44.6633723" lon="9.5477714"><ele>539.0</ele><time>2026-04-04T12:44:03.964Z</time></trkpt><trkpt lat="44.6634625" lon="9.5480156"><ele>535.6666666666666</ele><time>2026-04-04T12:44:04.947Z</time></trkpt><trkpt lat="44.6635642" lon="9.5482678"><ele>532.3333333333334</ele><time>2026-04-04T12:44:05.967Z</time></trkpt><trkpt lat="44.6636797" lon="9.5485333"><ele>529.0</ele><time>2026-04-04T12:44:06.943Z</time></trkpt><trkpt lat="44.6638102" lon="9.5487883"><ele>539.0</ele><time>2026-04-04T12:44:07.972Z</time></trkpt><trkpt lat="44.663925" lon="9.5490499"><ele>549.0</ele><time>2026-04-04T12:44:08.968Z</time></trkpt><trkpt lat="44.6640251" lon="9.5493527"><ele>542.0</ele><time>2026-04-04T12:44:09.97Z</time></trkpt><trkpt lat="44.6641184" lon="9.5496707"><ele>535.0</ele><time>2026-04-04T12:44:10.963Z</time></trkpt><trkpt lat="44.6642099" lon="9.5499615"><ele>535.0</ele><time>2026-04-04T12:44:11.952Z</time></trkpt><trkpt lat="44.6642997" lon="9.5502009"><ele>535.0</ele><time>2026-04-04T12:44:12.964Z</time></trkpt><trkpt lat="44.664388" lon="9.5504136"><ele>535.0</ele><time>2026-04-04T12:44:13.924Z</time></trkpt><trkpt lat="44.6644809" lon="9.5506151"><ele>537.25</ele><time>2026-04-04T12:44:14.927Z</time></trkpt><trkpt lat="44.6645725" lon="9.550802"><ele>539.5</ele><time>2026-04-04T12:44:15.944Z</time></trkpt><trkpt lat="44.6646608" lon="9.5509806"><ele>541.75</ele><time>2026-04-04T12:44:16.964Z</time></trkpt><trkpt lat="44.6647347" lon="9.5511321"><ele>544.0</ele><time>2026-04-04T12:44:17.947Z</time></trkpt><trkpt lat="44.6647879" lon="9.5512749"><ele>544.0</ele><time>2026-04-04T12:44:18.954Z</time></trkpt><trkpt lat="44.6648219" lon="9.551417"><ele>544.0</ele><time>2026-04-04T12:44:19.959Z</time></trkpt><trkpt lat="44.6647895" lon="9.5516132"><ele>544.0</ele><time>2026-04-04T12:44:20.946Z</time></trkpt><trkpt lat="44.6647349" lon="9.5518179"><ele>544.0</ele><time>2026-04-04T12:44:21.949Z</time></trkpt><trkpt lat="44.6646835" lon="9.5520262"><ele>544.0</ele><time>2026-04-04T12:44:22.94Z</time></trkpt><trkpt lat="44.6646372" lon="9.5522225"><ele>544.0</ele><time>2026-04-04T12:44:23.943Z</time></trkpt><trkpt lat="44.664609" lon="9.5524225"><ele>544.0</ele><time>2026-04-04T12:44:24.965Z</time></trkpt><trkpt lat="44.6645857" lon="9.5526216"><ele>544.0</ele><time>2026-04-04T12:44:25.963Z</time></trkpt><trkpt lat="44.6645849" lon="9.5528154"><ele>543.3333333333334</ele><time>2026-04-04T12:44:26.957Z</time></trkpt><trkpt lat="44.664613" lon="9.5529979"><ele>542.6666666666666</ele><time>2026-04-04T12:44:27.96Z</time></trkpt><trkpt lat="44.6646805" lon="9.5532109"><ele>542.0</ele><time>2026-04-04T12:44:28.929Z</time></trkpt><trkpt lat="44.6647588" lon="9.5534336"><ele>542.0</ele><time>2026-04-04T12:44:29.965Z</time></trkpt><trkpt lat="44.6648417" lon="9.5536715"><ele>542.0</ele><time>2026-04-04T12:44:30.944Z</time></trkpt><trkpt lat="44.6649214" lon="9.5538861"><ele>542.0</ele><time>2026-04-04T12:44:31.923Z</time></trkpt><trkpt lat="44.6649968" lon="9.5540969"><ele>539.6666666666666</ele><time>2026-04-04T12:44:32.916Z</time></trkpt><trkpt lat="44.6650612" lon="9.5543025"><ele>537.3333333333334</ele><time>2026-04-04T12:44:33.962Z</time></trkpt><trkpt lat="44.6651233" lon="9.554514"><ele>535.0</ele><time>2026-04-04T12:44:34.958Z</time></trkpt><trkpt lat="44.6651897" lon="9.5547249"><ele>530.6666666666667</ele><time>2026-04-04T12:44:35.958Z</time></trkpt><trkpt lat="44.6652446" lon="9.5549414"><ele>526.3333333333334</ele><time>2026-04-04T12:44:36.946Z</time></trkpt><trkpt lat="44.665307" lon="9.5551662"><ele>522.0</ele><time>2026-04-04T12:44:37.941Z</time></trkpt><trkpt lat="44.6653764" lon="9.5553994"><ele>531.0</ele><time>2026-04-04T12:44:38.933Z</time></trkpt><trkpt lat="44.6654409" lon="9.5556374"><ele>540.0</ele><time>2026-04-04T12:44:39.935Z</time></trkpt><trkpt lat="44.6655025" lon="9.5558885"><ele>549.0</ele><time>2026-04-04T12:44:40.932Z</time></trkpt><trkpt lat="44.6655596" lon="9.556152"><ele>544.3333333333334</ele><time>2026-04-04T12:44:41.914Z</time></trkpt><trkpt lat="44.6656114" lon="9.5564274"><ele>539.6666666666667</ele><time>2026-04-04T12:44:42.949Z</time></trkpt><trkpt lat="44.6656486" lon="9.5567072"><ele>535.0</ele><time>2026-04-04T12:44:43.948Z</time></trkpt><trkpt lat="44.6656794" lon="9.5569784"><ele>531.6666666666667</ele><time>2026-04-04T12:44:44.965Z</time></trkpt><trkpt lat="44.6657162" lon="9.5572374"><ele>528.3333333333334</ele><time>2026-04-04T12:44:45.938Z</time></trkpt><trkpt lat="44.6657484" lon="9.5574751"><ele>525.0</ele><time>2026-04-04T12:44:46.964Z</time></trkpt><trkpt lat="44.6657772" lon="9.5576981"><ele>523.3333333333334</ele><time>2026-04-04T12:44:47.971Z</time></trkpt><trkpt lat="44.6658161" lon="9.5579113"><ele>521.6666666666667</ele><time>2026-04-04T12:44:48.944Z</time></trkpt><trkpt lat="44.6658673" lon="9.5581154"><ele>520.0</ele><time>2026-04-04T12:44:49.945Z</time></trkpt><trkpt lat="44.6659254" lon="9.5583116"><ele>520.0</ele><time>2026-04-04T12:44:50.952Z</time></trkpt><trkpt lat="44.6659843" lon="9.5585122"><ele>520.0</ele><time>2026-04-04T12:44:51.948Z</time></trkpt><trkpt lat="44.666047" lon="9.5587329"><ele>520.0</ele><time>2026-04-04T12:44:52.958Z</time></trkpt><trkpt lat="44.6661033" lon="9.558958"><ele>524.0</ele><time>2026-04-04T12:44:53.96Z</time></trkpt><trkpt lat="44.666164" lon="9.559192"><ele>528.0</ele><time>2026-04-04T12:44:54.989Z</time></trkpt><trkpt lat="44.6662184" lon="9.5594309"><ele>532.0</ele><time>2026-04-04T12:44:55.958Z</time></trkpt><trkpt lat="44.6662719" lon="9.559654"><ele>532.0</ele><time>2026-04-04T12:44:56.95Z</time></trkpt><trkpt lat="44.6663244" lon="9.5598654"><ele>532.0</ele><time>2026-04-04T12:44:57.964Z</time></trkpt><trkpt lat="44.6663609" lon="9.5600635"><ele>532.0</ele><time>2026-04-04T12:44:58.936Z</time></trkpt><trkpt lat="44.6663569" lon="9.5602407"><ele>532.0</ele><time>2026-04-04T12:44:59.955Z</time></trkpt><trkpt lat="44.66631" lon="9.5604078"><ele>532.25</ele><time>2026-04-04T12:45:00.951Z</time></trkpt><trkpt lat="44.6662336" lon="9.5605571"><ele>532.5</ele><time>2026-04-04T12:45:01.953Z</time></trkpt><trkpt lat="44.6661435" lon="9.5607158"><ele>532.75</ele><time>2026-04-04T12:45:02.968Z</time></trkpt><trkpt lat="44.6660615" lon="9.5608629"><ele>533.0</ele><time>2026-04-04T12:45:03.967Z</time></trkpt><trkpt lat="44.6660187" lon="9.5609985"><ele>531.0</ele><time>2026-04-04T12:45:04.945Z</time></trkpt><trkpt lat="44.6659968" lon="9.5611251"><ele>529.0</ele><time>2026-04-04T12:45:05.96Z</time></trkpt><trkpt lat="44.6659947" lon="9.561226"><ele>527.0</ele><time>2026-04-04T12:45:06.971Z</time></trkpt><trkpt lat="44.6660281" lon="9.5613248"><ele>525.0</ele><time>2026-04-04T12:45:07.918Z</time></trkpt><trkpt lat="44.6661112" lon="9.561454"><ele>523.0</ele><time>2026-04-04T12:45:08.939Z</time></trkpt><trkpt lat="44.6662257" lon="9.5616087"><ele>523.0</ele><time>2026-04-04T12:45:09.971Z</time></trkpt><trkpt lat="44.6663374" lon="9.561739"><ele>523.0</ele><time>2026-04-04T12:45:10.952Z</time></trkpt><trkpt lat="44.6664692" lon="9.561828"><ele>523.0</ele><time>2026-04-04T12:45:11.964Z</time></trkpt><trkpt lat="44.6666353" lon="9.5618917"><ele>523.0</ele><time>2026-04-04T12:45:12.963Z</time></trkpt><trkpt lat="44.6668124" lon="9.5619581"><ele>523.0</ele><time>2026-04-04T12:45:13.954Z</time></trkpt><trkpt lat="44.6669658" lon="9.5620513"><ele>523.0</ele><time>2026-04-04T12:45:14.964Z</time></trkpt><trkpt lat="44.6670824" lon="9.5621989"><ele>525.0</ele><time>2026-04-04T12:45:15.979Z</time></trkpt><trkpt lat="44.6671778" lon="9.5623905"><ele>527.0</ele><time>2026-04-04T12:45:16.956Z</time></trkpt><trkpt lat="44.6672759" lon="9.5626195"><ele>529.0</ele><time>2026-04-04T12:45:17.964Z</time></trkpt><trkpt lat="44.6673718" lon="9.5628618"><ele>526.0</ele><time>2026-04-04T12:45:18.964Z</time></trkpt><trkpt lat="44.6674506" lon="9.5631062"><ele>523.0</ele><time>2026-04-04T12:45:19.96Z</time></trkpt><trkpt lat="44.667513" lon="9.5633576"><ele>520.0</ele><time>2026-04-04T12:45:20.921Z</time></trkpt><trkpt lat="44.6675496" lon="9.5636227"><ele>517.3333333333334</ele><time>2026-04-04T12:45:21.978Z</time></trkpt><trkpt lat="44.6675665" lon="9.5639021"><ele>514.6666666666666</ele><time>2026-04-04T12:45:22.955Z</time></trkpt><trkpt lat="44.6675942" lon="9.5641655"><ele>512.0</ele><time>2026-04-04T12:45:23.969Z</time></trkpt><trkpt lat="44.6676466" lon="9.5644298"><ele>513.0</ele><time>2026-04-04T12:45:24.976Z</time></trkpt><trkpt lat="44.6677082" lon="9.5646551"><ele>514.0</ele><time>2026-04-04T12:45:25.959Z</time></trkpt><trkpt lat="44.6677675" lon="9.5648371"><ele>515.0</ele><time>2026-04-04T12:45:26.97Z</time></trkpt><trkpt lat="44.6678318" lon="9.564962"><ele>516.0</ele><time>2026-04-04T12:45:27.949Z</time></trkpt><trkpt lat="44.6679233" lon="9.5650814"><ele>516.0</ele><time>2026-04-04T12:45:28.969Z</time></trkpt><trkpt lat="44.6680612" lon="9.5651811"><ele>516.0</ele><time>2026-04-04T12:45:29.965Z</time></trkpt><trkpt lat="44.6682187" lon="9.5652973"><ele>516.0</ele><time>2026-04-04T12:45:30.956Z</time></trkpt><trkpt lat="44.6683522" lon="9.5654336"><ele>514.0</ele><time>2026-04-04T12:45:31.966Z</time></trkpt><trkpt lat="44.6684644" lon="9.5655732"><ele>512.0</ele><time>2026-04-04T12:45:32.977Z</time></trkpt><trkpt lat="44.6685679" lon="9.5657094"><ele>510.0</ele><time>2026-04-04T12:45:33.969Z</time></trkpt><trkpt lat="44.6686578" lon="9.5658439"><ele>508.0</ele><time>2026-04-04T12:45:34.968Z</time></trkpt><trkpt lat="44.668735" lon="9.5659873"><ele>510.0</ele><time>2026-04-04T12:45:35.946Z</time></trkpt><trkpt lat="44.6688031" lon="9.5661425"><ele>512.0</ele><time>2026-04-04T12:45:36.967Z</time></trkpt><trkpt lat="44.6688606" lon="9.5663072"><ele>514.0</ele><time>2026-04-04T12:45:37.963Z</time></trkpt><trkpt lat="44.668909" lon="9.5664706"><ele>516.0</ele><time>2026-04-04T12:45:38.957Z</time></trkpt><trkpt lat="44.6689554" lon="9.5666165"><ele>516.0</ele><time>2026-04-04T12:45:39.936Z</time></trkpt><trkpt lat="44.6690066" lon="9.5667543"><ele>516.0</ele><time>2026-04-04T12:45:40.96Z</time></trkpt><trkpt lat="44.6690619" lon="9.5668763"><ele>516.0</ele><time>2026-04-04T12:45:41.936Z</time></trkpt><trkpt lat="44.6691526" lon="9.5669609"><ele>516.0</ele><time>2026-04-04T12:45:42.948Z</time></trkpt><trkpt lat="44.6692846" lon="9.5670103"><ele>511.66666666666663</ele><time>2026-04-04T12:45:43.933Z</time></trkpt><trkpt lat="44.6694427" lon="9.5670436"><ele>507.3333333333333</ele><time>2026-04-04T12:45:44.955Z</time></trkpt><trkpt lat="44.6696016" lon="9.5670831"><ele>503.0</ele><time>2026-04-04T12:45:45.909Z</time></trkpt><trkpt lat="44.669776" lon="9.5671339"><ele>503.0</ele><time>2026-04-04T12:45:46.898Z</time></trkpt><trkpt lat="44.6699476" lon="9.5672109"><ele>503.0</ele><time>2026-04-04T12:45:47.916Z</time></trkpt><trkpt lat="44.6701108" lon="9.5673055"><ele>503.0</ele><time>2026-04-04T12:45:48.943Z</time></trkpt><trkpt lat="44.6702548" lon="9.5673992"><ele>503.5</ele><time>2026-04-04T12:45:49.952Z</time></trkpt><trkpt lat="44.6703953" lon="9.5674655"><ele>504.0</ele><time>2026-04-04T12:45:50.922Z</time></trkpt><trkpt lat="44.6705381" lon="9.5674952"><ele>504.5</ele><time>2026-04-04T12:45:51.92Z</time></trkpt><trkpt lat="44.6706889" lon="9.567493"><ele>505.0</ele><time>2026-04-04T12:45:52.95Z</time></trkpt><trkpt lat="44.6708381" lon="9.5674699"><ele>505.0</ele><time>2026-04-04T12:45:53.973Z</time></trkpt><trkpt lat="44.6709905" lon="9.5674458"><ele>505.0</ele><time>2026-04-04T12:45:54.987Z</time></trkpt><trkpt lat="44.6711201" lon="9.5674496"><ele>505.0</ele><time>2026-04-04T12:45:55.972Z</time></trkpt><trkpt lat="44.6712444" lon="9.5675023"><ele>505.0</ele><time>2026-04-04T12:45:56.966Z</time></trkpt><trkpt lat="44.6713851" lon="9.5675958"><ele>506.33333333333337</ele><time>2026-04-04T12:45:57.978Z</time></trkpt><trkpt lat="44.6715346" lon="9.5677162"><ele>507.66666666666663</ele><time>2026-04-04T12:45:58.956Z</time></trkpt><trkpt lat="44.6716892" lon="9.5678426"><ele>509.0</ele><time>2026-04-04T12:45:59.956Z</time></trkpt><trkpt lat="44.6718448" lon="9.5679498"><ele>506.3333333333333</ele><time>2026-04-04T12:46:00.955Z</time></trkpt><trkpt lat="44.6719943" lon="9.5680232"><ele>503.66666666666663</ele><time>2026-04-04T12:46:01.969Z</time></trkpt><trkpt lat="44.6721502" lon="9.568079"><ele>501.0</ele><time>2026-04-04T12:46:02.965Z</time></trkpt><trkpt lat="44.6723134" lon="9.5680948"><ele>501.0</ele><time>2026-04-04T12:46:03.971Z</time></trkpt><trkpt lat="44.6724812" lon="9.568105"><ele>501.0</ele><time>2026-04-04T12:46:04.952Z</time></trkpt><trkpt lat="44.6726459" lon="9.5681173"><ele>501.0</ele><time>2026-04-04T12:46:05.965Z</time></trkpt><trkpt lat="44.6728012" lon="9.5681168"><ele>498.25</ele><time>2026-04-04T12:46:06.951Z</time></trkpt><trkpt lat="44.672945" lon="9.5681144"><ele>495.5</ele><time>2026-04-04T12:46:07.975Z</time></trkpt><trkpt lat="44.673072" lon="9.5681165"><ele>492.75</ele><time>2026-04-04T12:46:08.955Z</time></trkpt><trkpt lat="44.673195" lon="9.5681191"><ele>490.0</ele><time>2026-04-04T12:46:09.933Z</time></trkpt><trkpt lat="44.6733028" lon="9.5680896"><ele>490.0</ele><time>2026-04-04T12:46:10.951Z</time></trkpt><trkpt lat="44.6734171" lon="9.568039"><ele>490.0</ele><time>2026-04-04T12:46:11.972Z</time></trkpt><trkpt lat="44.6735411" lon="9.5679649"><ele>490.0</ele><time>2026-04-04T12:46:12.951Z</time></trkpt><trkpt lat="44.6736695" lon="9.5678717"><ele>490.0</ele><time>2026-04-04T12:46:13.959Z</time></trkpt><trkpt lat="44.6737978" lon="9.567748"><ele>491.6666666666667</ele><time>2026-04-04T12:46:14.963Z</time></trkpt><trkpt lat="44.6739368" lon="9.5676244"><ele>493.33333333333337</ele><time>2026-04-04T12:46:15.95Z</time></trkpt><trkpt lat="44.6740789" lon="9.5675174"><ele>495.0</ele><time>2026-04-04T12:46:16.951Z</time></trkpt><trkpt lat="44.6742279" lon="9.5674294"><ele>495.0</ele><time>2026-04-04T12:46:17.961Z</time></trkpt><trkpt lat="44.6743888" lon="9.5673469"><ele>495.0</ele><time>2026-04-04T12:46:18.966Z</time></trkpt><trkpt lat="44.6745493" lon="9.5672653"><ele>495.0</ele><time>2026-04-04T12:46:19.966Z</time></trkpt><trkpt lat="44.674704" lon="9.5671827"><ele>495.0</ele><time>2026-04-04T12:46:20.937Z</time></trkpt><trkpt lat="44.6748495" lon="9.5671065"><ele>495.0</ele><time>2026-04-04T12:46:21.966Z</time></trkpt><trkpt lat="44.675009" lon="9.5670359"><ele>495.0</ele><time>2026-04-04T12:46:22.961Z</time></trkpt><trkpt lat="44.6751609" lon="9.5669808"><ele>494.0</ele><time>2026-04-04T12:46:23.969Z</time></trkpt><trkpt lat="44.6753" lon="9.56694"><ele>493.0</ele><time>2026-04-04T12:46:24.945Z</time></trkpt><trkpt lat="44.6754357" lon="9.5668883"><ele>492.0</ele><time>2026-04-04T12:46:25.948Z</time></trkpt><trkpt lat="44.6755642" lon="9.5668279"><ele>491.0</ele><time>2026-04-04T12:46:26.98Z</time></trkpt><trkpt lat="44.6756975" lon="9.5667937"><ele>491.0</ele><time>2026-04-04T12:46:28.004Z</time></trkpt><trkpt lat="44.6758288" lon="9.5667818"><ele>491.0</ele><time>2026-04-04T12:46:28.974Z</time></trkpt><trkpt lat="44.6759577" lon="9.566782"><ele>491.0</ele><time>2026-04-04T12:46:29.963Z</time></trkpt><trkpt lat="44.6760869" lon="9.5667879"><ele>491.0</ele><time>2026-04-04T12:46:30.985Z</time></trkpt><trkpt lat="44.6762139" lon="9.5667916"><ele>490.5</ele><time>2026-04-04T12:46:31.942Z</time></trkpt><trkpt lat="44.6763385" lon="9.5667973"><ele>490.0</ele><time>2026-04-04T12:46:32.978Z</time></trkpt><trkpt lat="44.6764605" lon="9.5667989"><ele>489.5</ele><time>2026-04-04T12:46:33.96Z</time></trkpt><trkpt lat="44.6765741" lon="9.5667795"><ele>489.0</ele><time>2026-04-04T12:46:34.948Z</time></trkpt><trkpt lat="44.6766852" lon="9.5667406"><ele>489.0</ele><time>2026-04-04T12:46:35.909Z</time></trkpt><trkpt lat="44.6767974" lon="9.5666806"><ele>489.0</ele><time>2026-04-04T12:46:36.964Z</time></trkpt><trkpt lat="44.6768998" lon="9.5666119"><ele>489.0</ele><time>2026-04-04T12:46:37.975Z</time></trkpt><trkpt lat="44.6769981" lon="9.5665518"><ele>489.0</ele><time>2026-04-04T12:46:38.923Z</time></trkpt><trkpt lat="44.6770985" lon="9.5665317"><ele>489.0</ele><time>2026-04-04T12:46:39.958Z</time></trkpt><trkpt lat="44.6771937" lon="9.5665463"><ele>486.25</ele><time>2026-04-04T12:46:40.958Z</time></trkpt><trkpt lat="44.6772823" lon="9.5666014"><ele>483.5</ele><time>2026-04-04T12:46:41.975Z</time></trkpt><trkpt lat="44.677355" lon="9.5667248"><ele>480.75</ele><time>2026-04-04T12:46:42.957Z</time></trkpt><trkpt lat="44.6774268" lon="9.5668895"><ele>478.0</ele><time>2026-04-04T12:46:43.964Z</time></trkpt><trkpt lat="44.6775046" lon="9.5670485"><ele>477.25</ele><time>2026-04-04T12:46:44.954Z</time></trkpt><trkpt lat="44.6775862" lon="9.5672137"><ele>476.5</ele><time>2026-04-04T12:46:45.964Z</time></trkpt><trkpt lat="44.6776662" lon="9.5673772"><ele>475.75</ele><time>2026-04-04T12:46:46.965Z</time></trkpt><trkpt lat="44.6777421" lon="9.5675275"><ele>475.0</ele><time>2026-04-04T12:46:47.964Z</time></trkpt><trkpt lat="44.6778128" lon="9.5676737"><ele>475.0</ele><time>2026-04-04T12:46:48.955Z</time></trkpt><trkpt lat="44.6778817" lon="9.5678253"><ele>475.0</ele><time>2026-04-04T12:46:49.963Z</time></trkpt><trkpt lat="44.6779517" lon="9.5679664"><ele>475.0</ele><time>2026-04-04T12:46:50.959Z</time></trkpt><trkpt lat="44.6780259" lon="9.5681008"><ele>475.0</ele><time>2026-04-04T12:46:51.951Z</time></trkpt><trkpt lat="44.6780945" lon="9.5682188"><ele>477.00000000000006</ele><time>2026-04-04T12:46:52.962Z</time></trkpt><trkpt lat="44.6781528" lon="9.5683349"><ele>479.0</ele><time>2026-04-04T12:46:53.975Z</time></trkpt><trkpt lat="44.6782049" lon="9.5684438"><ele>481.0</ele><time>2026-04-04T12:46:54.965Z</time></trkpt><trkpt lat="44.6782353" lon="9.5685462"><ele>483.0</ele><time>2026-04-04T12:46:55.939Z</time></trkpt><trkpt lat="44.678242" lon="9.5686576"><ele>485.00000000000006</ele><time>2026-04-04T12:46:56.948Z</time></trkpt><trkpt lat="44.6782098" lon="9.5687837"><ele>487.0</ele><time>2026-04-04T12:46:57.944Z</time></trkpt><trkpt lat="44.6781533" lon="9.5689144"><ele>490.25</ele><time>2026-04-04T12:46:58.962Z</time></trkpt><trkpt lat="44.6780627" lon="9.5690299"><ele>493.5</ele><time>2026-04-04T12:46:59.968Z</time></trkpt><trkpt lat="44.6779572" lon="9.5691295"><ele>496.75</ele><time>2026-04-04T12:47:00.976Z</time></trkpt><trkpt lat="44.6778668" lon="9.5692217"><ele>500.0</ele><time>2026-04-04T12:47:01.954Z</time></trkpt><trkpt lat="44.6777924" lon="9.5692959"><ele>499.6</ele><time>2026-04-04T12:47:02.95Z</time></trkpt><trkpt lat="44.677734" lon="9.5693455"><ele>499.2</ele><time>2026-04-04T12:47:03.967Z</time></trkpt><trkpt lat="44.6776311" lon="9.5694623"><ele>498.79999999999995</ele><time>2026-04-04T12:47:05.94Z</time></trkpt><trkpt lat="44.6775748" lon="9.5695163"><ele>498.4</ele><time>2026-04-04T12:47:06.957Z</time></trkpt><trkpt lat="44.677479" lon="9.569608"><ele>498.0</ele><time>2026-04-04T12:47:08.965Z</time></trkpt><trkpt lat="44.6774007" lon="9.5697342"><ele>498.0</ele><time>2026-04-04T12:47:10.946Z</time></trkpt><trkpt lat="44.677372" lon="9.5698135"><ele>497.99999999999994</ele><time>2026-04-04T12:47:11.963Z</time></trkpt><trkpt lat="44.6773443" lon="9.5699007"><ele>498.0</ele><time>2026-04-04T12:47:12.959Z</time></trkpt><trkpt lat="44.6773313" lon="9.5700057"><ele>498.0</ele><time>2026-04-04T12:47:13.976Z</time></trkpt><trkpt lat="44.6773368" lon="9.5701063"><ele>497.99999999999994</ele><time>2026-04-04T12:47:14.95Z</time></trkpt><trkpt lat="44.6773487" lon="9.5702008"><ele>498.0</ele><time>2026-04-04T12:47:15.965Z</time></trkpt><trkpt lat="44.6773559" lon="9.5703076"><ele>498.0</ele><time>2026-04-04T12:47:16.921Z</time></trkpt><trkpt lat="44.6773672" lon="9.5704472"><ele>499.4</ele><time>2026-04-04T12:47:17.961Z</time></trkpt><trkpt lat="44.677373" lon="9.5705896"><ele>500.79999999999995</ele><time>2026-04-04T12:47:18.959Z</time></trkpt><trkpt lat="44.6773574" lon="9.570734"><ele>502.2</ele><time>2026-04-04T12:47:19.976Z</time></trkpt><trkpt lat="44.677324" lon="9.570879"><ele>503.6</ele><time>2026-04-04T12:47:20.932Z</time></trkpt><trkpt lat="44.6772616" lon="9.5709946"><ele>505.0</ele><time>2026-04-04T12:47:21.967Z</time></trkpt><trkpt lat="44.6771552" lon="9.5710889"><ele>505.0</ele><time>2026-04-04T12:47:22.947Z</time></trkpt><trkpt lat="44.6770321" lon="9.5711675"><ele>505.0</ele><time>2026-04-04T12:47:23.967Z</time></trkpt><trkpt lat="44.6769003" lon="9.5711972"><ele>505.0</ele><time>2026-04-04T12:47:24.954Z</time></trkpt><trkpt lat="44.676777" lon="9.5711516"><ele>505.0</ele><time>2026-04-04T12:47:25.974Z</time></trkpt><trkpt lat="44.6766499" lon="9.5710363"><ele>503.25</ele><time>2026-04-04T12:47:26.942Z</time></trkpt><trkpt lat="44.6765209" lon="9.5709095"><ele>501.5</ele><time>2026-04-04T12:47:27.955Z</time></trkpt><trkpt lat="44.6764119" lon="9.5708056"><ele>499.75</ele><time>2026-04-04T12:47:28.963Z</time></trkpt><trkpt lat="44.6762932" lon="9.5707059"><ele>498.0</ele><time>2026-04-04T12:47:29.961Z</time></trkpt><trkpt lat="44.676151" lon="9.5706536"><ele>498.66666666666663</ele><time>2026-04-04T12:47:30.96Z</time></trkpt><trkpt lat="44.6759949" lon="9.5706329"><ele>499.3333333333333</ele><time>2026-04-04T12:47:31.962Z</time></trkpt><trkpt lat="44.6758225" lon="9.570658"><ele>500.0</ele><time>2026-04-04T12:47:32.955Z</time></trkpt><trkpt lat="44.6756459" lon="9.5706849"><ele>500.0</ele><time>2026-04-04T12:47:33.965Z</time></trkpt><trkpt lat="44.6754985" lon="9.570716"><ele>500.0</ele><time>2026-04-04T12:47:34.961Z</time></trkpt><trkpt lat="44.6753622" lon="9.5707621"><ele>500.0</ele><time>2026-04-04T12:47:35.939Z</time></trkpt><trkpt lat="44.675262" lon="9.570846"><ele>500.0</ele><time>2026-04-04T12:47:36.964Z</time></trkpt><trkpt lat="44.6751804" lon="9.5709932"><ele>501.3333333333333</ele><time>2026-04-04T12:47:37.939Z</time></trkpt><trkpt lat="44.6750961" lon="9.5711567"><ele>502.66666666666663</ele><time>2026-04-04T12:47:38.96Z</time></trkpt><trkpt lat="44.6750017" lon="9.571345"><ele>504.0</ele><time>2026-04-04T12:47:39.965Z</time></trkpt><trkpt lat="44.6748937" lon="9.5715239"><ele>504.0</ele><time>2026-04-04T12:47:40.969Z</time></trkpt><trkpt lat="44.6747593" lon="9.5716603"><ele>504.0</ele><time>2026-04-04T12:47:41.959Z</time></trkpt><trkpt lat="44.6746255" lon="9.5717654"><ele>504.0</ele><time>2026-04-04T12:47:42.954Z</time></trkpt><trkpt lat="44.6744928" lon="9.5717974"><ele>502.75</ele><time>2026-04-04T12:47:43.959Z</time></trkpt><trkpt lat="44.674362" lon="9.5718046"><ele>501.5</ele><time>2026-04-04T12:47:44.947Z</time></trkpt><trkpt lat="44.6742484" lon="9.571819"><ele>500.25</ele><time>2026-04-04T12:47:45.95Z</time></trkpt><trkpt lat="44.6741322" lon="9.5718458"><ele>499.0</ele><time>2026-04-04T12:47:46.945Z</time></trkpt><trkpt lat="44.6740225" lon="9.5718816"><ele>499.0</ele><time>2026-04-04T12:47:47.962Z</time></trkpt><trkpt lat="44.6739293" lon="9.5719724"><ele>499.0</ele><time>2026-04-04T12:47:48.957Z</time></trkpt><trkpt lat="44.6738612" lon="9.5721231"><ele>499.0</ele><time>2026-04-04T12:47:49.955Z</time></trkpt><trkpt lat="44.6738148" lon="9.5723001"><ele>499.0</ele><time>2026-04-04T12:47:50.929Z</time></trkpt><trkpt lat="44.6737817" lon="9.5725127"><ele>503.0</ele><time>2026-04-04T12:47:51.939Z</time></trkpt><trkpt lat="44.6737767" lon="9.5727391"><ele>507.0</ele><time>2026-04-04T12:47:52.963Z</time></trkpt><trkpt lat="44.6737792" lon="9.5729696"><ele>511.0</ele><time>2026-04-04T12:47:53.958Z</time></trkpt><trkpt lat="44.6737686" lon="9.5732014"><ele>512.25</ele><time>2026-04-04T12:47:54.935Z</time></trkpt><trkpt lat="44.6737462" lon="9.5734207"><ele>513.5</ele><time>2026-04-04T12:47:55.964Z</time></trkpt><trkpt lat="44.6737262" lon="9.5736276"><ele>514.75</ele><time>2026-04-04T12:47:56.976Z</time></trkpt><trkpt lat="44.6736785" lon="9.573808"><ele>516.0</ele><time>2026-04-04T12:47:57.942Z</time></trkpt><trkpt lat="44.6735955" lon="9.5739451"><ele>513.0</ele><time>2026-04-04T12:47:58.956Z</time></trkpt><trkpt lat="44.6734931" lon="9.5740424"><ele>510.0</ele><time>2026-04-04T12:47:59.961Z</time></trkpt><trkpt lat="44.673396" lon="9.5741543"><ele>507.0</ele><time>2026-04-04T12:48:00.939Z</time></trkpt><trkpt lat="44.6733139" lon="9.574321"><ele>504.0</ele><time>2026-04-04T12:48:01.993Z</time></trkpt><trkpt lat="44.6732532" lon="9.5745218"><ele>504.0</ele><time>2026-04-04T12:48:02.98Z</time></trkpt><trkpt lat="44.6732125" lon="9.5747338"><ele>504.0</ele><time>2026-04-04T12:48:03.984Z</time></trkpt><trkpt lat="44.6732032" lon="9.5749651"><ele>504.0</ele><time>2026-04-04T12:48:04.968Z</time></trkpt><trkpt lat="44.6732063" lon="9.5752055"><ele>505.33333333333337</ele><time>2026-04-04T12:48:05.978Z</time></trkpt><trkpt lat="44.6732145" lon="9.5754528"><ele>506.6666666666667</ele><time>2026-04-04T12:48:06.994Z</time></trkpt><trkpt lat="44.6732148" lon="9.5757051"><ele>508.0</ele><time>2026-04-04T12:48:07.968Z</time></trkpt><trkpt lat="44.6732162" lon="9.5759581"><ele>508.0</ele><time>2026-04-04T12:48:08.964Z</time></trkpt><trkpt lat="44.6731813" lon="9.5761856"><ele>508.0</ele><time>2026-04-04T12:48:09.969Z</time></trkpt><trkpt lat="44.6731168" lon="9.576397"><ele>508.0</ele><time>2026-04-04T12:48:10.977Z</time></trkpt><trkpt lat="44.6730397" lon="9.5765927"><ele>509.0</ele><time>2026-04-04T12:48:11.975Z</time></trkpt><trkpt lat="44.6729604" lon="9.5767741"><ele>510.0</ele><time>2026-04-04T12:48:12.979Z</time></trkpt><trkpt lat="44.6728679" lon="9.5769202"><ele>511.0</ele><time>2026-04-04T12:48:13.976Z</time></trkpt><trkpt lat="44.67275" lon="9.577037"><ele>512.0</ele><time>2026-04-04T12:48:14.948Z</time></trkpt><trkpt lat="44.6726079" lon="9.5770746"><ele>507.3333333333333</ele><time>2026-04-04T12:48:15.979Z</time></trkpt><trkpt lat="44.6724459" lon="9.5770652"><ele>502.66666666666663</ele><time>2026-04-04T12:48:16.956Z</time></trkpt><trkpt lat="44.6722717" lon="9.5770117"><ele>498.0</ele><time>2026-04-04T12:48:17.938Z</time></trkpt><trkpt lat="44.6720814" lon="9.5769231"><ele>496.66666666666663</ele><time>2026-04-04T12:48:18.938Z</time></trkpt><trkpt lat="44.6718931" lon="9.5768474"><ele>495.3333333333333</ele><time>2026-04-04T12:48:19.957Z</time></trkpt><trkpt lat="44.6717163" lon="9.5767866"><ele>494.0</ele><time>2026-04-04T12:48:20.911Z</time></trkpt><trkpt lat="44.6715491" lon="9.5767462"><ele>494.0</ele><time>2026-04-04T12:48:21.957Z</time></trkpt><trkpt lat="44.6714041" lon="9.5767008"><ele>494.0</ele><time>2026-04-04T12:48:22.966Z</time></trkpt><trkpt lat="44.6712854" lon="9.5766167"><ele>494.0</ele><time>2026-04-04T12:48:23.959Z</time></trkpt><trkpt lat="44.6711758" lon="9.5765086"><ele>494.0</ele><time>2026-04-04T12:48:24.946Z</time></trkpt><trkpt lat="44.6710895" lon="9.5763742"><ele>500.3333333333333</ele><time>2026-04-04T12:48:25.962Z</time></trkpt><trkpt lat="44.6710219" lon="9.5762057"><ele>506.66666666666663</ele><time>2026-04-04T12:48:26.961Z</time></trkpt><trkpt lat="44.6709641" lon="9.5760016"><ele>513.0</ele><time>2026-04-04T12:48:27.979Z</time></trkpt><trkpt lat="44.6709194" lon="9.5757743"><ele>513.0</ele><time>2026-04-04T12:48:28.956Z</time></trkpt><trkpt lat="44.6708901" lon="9.5755174"><ele>513.0</ele><time>2026-04-04T12:48:29.954Z</time></trkpt><trkpt lat="44.670838" lon="9.5752411"><ele>513.0</ele><time>2026-04-04T12:48:30.988Z</time></trkpt><trkpt lat="44.670784" lon="9.5749585"><ele>512.3333333333334</ele><time>2026-04-04T12:48:31.983Z</time></trkpt><trkpt lat="44.6707254" lon="9.5746723"><ele>511.6666666666667</ele><time>2026-04-04T12:48:32.959Z</time></trkpt><trkpt lat="44.6706676" lon="9.5743879"><ele>511.0</ele><time>2026-04-04T12:48:33.957Z</time></trkpt><trkpt lat="44.6706135" lon="9.5741322"><ele>510.0</ele><time>2026-04-04T12:48:34.959Z</time></trkpt><trkpt lat="44.6705713" lon="9.5738873"><ele>509.0</ele><time>2026-04-04T12:48:35.968Z</time></trkpt><trkpt lat="44.6705267" lon="9.5736588"><ele>508.0</ele><time>2026-04-04T12:48:36.961Z</time></trkpt><trkpt lat="44.6704986" lon="9.5734568"><ele>507.59999999999997</ele><time>2026-04-04T12:48:37.982Z</time></trkpt><trkpt lat="44.6704919" lon="9.573271"><ele>507.19999999999993</ele><time>2026-04-04T12:48:38.953Z</time></trkpt><trkpt lat="44.6705168" lon="9.573081"><ele>506.8</ele><time>2026-04-04T12:48:39.963Z</time></trkpt><trkpt lat="44.670542" lon="9.5729359"><ele>506.4</ele><time>2026-04-04T12:48:40.931Z</time></trkpt><trkpt lat="44.6705521" lon="9.5728361"><ele>506.0</ele><time>2026-04-04T12:48:42.005Z</time></trkpt><trkpt lat="44.6705267" lon="9.5727431"><ele>506.0</ele><time>2026-04-04T12:48:42.956Z</time></trkpt><trkpt lat="44.6704796" lon="9.5726528"><ele>506.0</ele><time>2026-04-04T12:48:43.996Z</time></trkpt><trkpt lat="44.6704017" lon="9.572581"><ele>506.0</ele><time>2026-04-04T12:48:44.959Z</time></trkpt><trkpt lat="44.6702806" lon="9.5725398"><ele>506.0</ele><time>2026-04-04T12:48:45.948Z</time></trkpt><trkpt lat="44.6701631" lon="9.572552"><ele>506.0</ele><time>2026-04-04T12:48:46.988Z</time></trkpt><trkpt lat="44.6700564" lon="9.5726061"><ele>507.5</ele><time>2026-04-04T12:48:47.972Z</time></trkpt><trkpt lat="44.6699685" lon="9.5727184"><ele>509.0</ele><time>2026-04-04T12:48:48.958Z</time></trkpt><trkpt lat="44.669909" lon="9.5729043"><ele>510.5</ele><time>2026-04-04T12:48:49.98Z</time></trkpt><trkpt lat="44.6698729" lon="9.5731279"><ele>512.0</ele><time>2026-04-04T12:48:50.931Z</time></trkpt><trkpt lat="44.6698345" lon="9.5733503"><ele>514.3333333333333</ele><time>2026-04-04T12:48:51.951Z</time></trkpt><trkpt lat="44.6697779" lon="9.5735835"><ele>516.6666666666666</ele><time>2026-04-04T12:48:52.976Z</time></trkpt><trkpt lat="44.6697112" lon="9.573812"><ele>519.0</ele><time>2026-04-04T12:48:53.994Z</time></trkpt><trkpt lat="44.6696419" lon="9.5740183"><ele>517.3333333333334</ele><time>2026-04-04T12:48:54.969Z</time></trkpt><trkpt lat="44.6695433" lon="9.5741981"><ele>515.6666666666667</ele><time>2026-04-04T12:48:55.983Z</time></trkpt><trkpt lat="44.6694261" lon="9.5743598"><ele>514.0</ele><time>2026-04-04T12:48:56.976Z</time></trkpt><trkpt lat="44.669304" lon="9.5745046"><ele>518.6666666666667</ele><time>2026-04-04T12:48:57.997Z</time></trkpt><trkpt lat="44.669178" lon="9.5746363"><ele>523.3333333333334</ele><time>2026-04-04T12:48:58.96Z</time></trkpt><trkpt lat="44.669052" lon="9.5747979"><ele>528.0</ele><time>2026-04-04T12:48:59.953Z</time></trkpt><trkpt lat="44.6689427" lon="9.5749551"><ele>528.0</ele><time>2026-04-04T12:49:00.972Z</time></trkpt><trkpt lat="44.6688461" lon="9.5751223"><ele>528.0</ele><time>2026-04-04T12:49:01.965Z</time></trkpt><trkpt lat="44.6687577" lon="9.5752687"><ele>528.0</ele><time>2026-04-04T12:49:02.912Z</time></trkpt><trkpt lat="44.6686609" lon="9.5753717"><ele>528.0</ele><time>2026-04-04T12:49:03.928Z</time></trkpt><trkpt lat="44.6685429" lon="9.5754276"><ele>528.6</ele><time>2026-04-04T12:49:04.958Z</time></trkpt><trkpt lat="44.6684179" lon="9.5754412"><ele>529.1999999999999</ele><time>2026-04-04T12:49:05.961Z</time></trkpt><trkpt lat="44.6682895" lon="9.5754554"><ele>529.8</ele><time>2026-04-04T12:49:06.96Z</time></trkpt><trkpt lat="44.6681924" lon="9.5755047"><ele>530.4</ele><time>2026-04-04T12:49:07.968Z</time></trkpt><trkpt lat="44.6681213" lon="9.5755691"><ele>531.0</ele><time>2026-04-04T12:49:08.974Z</time></trkpt><trkpt lat="44.6680664" lon="9.575659"><ele>531.0</ele><time>2026-04-04T12:49:09.96Z</time></trkpt><trkpt lat="44.6680498" lon="9.575774"><ele>531.0</ele><time>2026-04-04T12:49:10.956Z</time></trkpt><trkpt lat="44.6680693" lon="9.5759586"><ele>531.0</ele><time>2026-04-04T12:49:11.962Z</time></trkpt><trkpt lat="44.6680937" lon="9.5761614"><ele>531.0</ele><time>2026-04-04T12:49:12.953Z</time></trkpt><trkpt lat="44.6681309" lon="9.5763583"><ele>531.5</ele><time>2026-04-04T12:49:13.969Z</time></trkpt><trkpt lat="44.668143" lon="9.5765566"><ele>532.0</ele><time>2026-04-04T12:49:14.947Z</time></trkpt><trkpt lat="44.6681168" lon="9.5767323"><ele>532.5</ele><time>2026-04-04T12:49:15.949Z</time></trkpt><trkpt lat="44.6680385" lon="9.5769192"><ele>533.0</ele><time>2026-04-04T12:49:16.953Z</time></trkpt><trkpt lat="44.6679364" lon="9.5770885"><ele>534.3333333333333</ele><time>2026-04-04T12:49:17.955Z</time></trkpt><trkpt lat="44.667832" lon="9.5772676"><ele>535.6666666666666</ele><time>2026-04-04T12:49:18.954Z</time></trkpt><trkpt lat="44.6677204" lon="9.5774536"><ele>537.0</ele><time>2026-04-04T12:49:19.942Z</time></trkpt><trkpt lat="44.6676079" lon="9.57766"><ele>536.0</ele><time>2026-04-04T12:49:20.898Z</time></trkpt><trkpt lat="44.6675053" lon="9.5778568"><ele>535.0</ele><time>2026-04-04T12:49:21.911Z</time></trkpt><trkpt lat="44.6673998" lon="9.5780355"><ele>534.0</ele><time>2026-04-04T12:49:22.959Z</time></trkpt><trkpt lat="44.6672981" lon="9.5781838"><ele>534.0</ele><time>2026-04-04T12:49:23.954Z</time></trkpt><trkpt lat="44.6671779" lon="9.5783103"><ele>534.0</ele><time>2026-04-04T12:49:24.959Z</time></trkpt><trkpt lat="44.6670383" lon="9.578415"><ele>534.0</ele><time>2026-04-04T12:49:25.948Z</time></trkpt><trkpt lat="44.6668794" lon="9.5784908"><ele>532.3333333333334</ele><time>2026-04-04T12:49:26.922Z</time></trkpt><trkpt lat="44.6667056" lon="9.578559"><ele>530.6666666666667</ele><time>2026-04-04T12:49:27.942Z</time></trkpt><trkpt lat="44.666525" lon="9.5786298"><ele>529.0</ele><time>2026-04-04T12:49:28.952Z</time></trkpt><trkpt lat="44.6663362" lon="9.5787001"><ele>532.3333333333334</ele><time>2026-04-04T12:49:29.96Z</time></trkpt><trkpt lat="44.6661404" lon="9.5787676"><ele>535.6666666666666</ele><time>2026-04-04T12:49:30.957Z</time></trkpt><trkpt lat="44.6659385" lon="9.5788446"><ele>539.0</ele><time>2026-04-04T12:49:31.959Z</time></trkpt><trkpt lat="44.6657388" lon="9.5789409"><ele>539.0</ele><time>2026-04-04T12:49:32.934Z</time></trkpt><trkpt lat="44.6655458" lon="9.5790442"><ele>539.0</ele><time>2026-04-04T12:49:33.938Z</time></trkpt><trkpt lat="44.6653516" lon="9.5791586"><ele>539.0</ele><time>2026-04-04T12:49:34.96Z</time></trkpt><trkpt lat="44.6651684" lon="9.5792737"><ele>537.3333333333333</ele><time>2026-04-04T12:49:35.947Z</time></trkpt><trkpt lat="44.6649973" lon="9.5793772"><ele>535.6666666666666</ele><time>2026-04-04T12:49:36.951Z</time></trkpt><trkpt lat="44.6648302" lon="9.5794528"><ele>534.0</ele><time>2026-04-04T12:49:37.957Z</time></trkpt><trkpt lat="44.6646676" lon="9.5795012"><ele>535.5</ele><time>2026-04-04T12:49:38.894Z</time></trkpt><trkpt lat="44.6645259" lon="9.5795284"><ele>537.0</ele><time>2026-04-04T12:49:39.952Z</time></trkpt><trkpt lat="44.6644129" lon="9.5795587"><ele>538.5</ele><time>2026-04-04T12:49:40.941Z</time></trkpt><trkpt lat="44.6643238" lon="9.5796358"><ele>540.0</ele><time>2026-04-04T12:49:41.934Z</time></trkpt><trkpt lat="44.6642629" lon="9.5797656"><ele>540.0</ele><time>2026-04-04T12:49:42.936Z</time></trkpt><trkpt lat="44.6642263" lon="9.579925"><ele>540.0</ele><time>2026-04-04T12:49:43.95Z</time></trkpt><trkpt lat="44.6641817" lon="9.5800836"><ele>540.0</ele><time>2026-04-04T12:49:44.959Z</time></trkpt><trkpt lat="44.6641254" lon="9.5802478"><ele>540.0</ele><time>2026-04-04T12:49:45.927Z</time></trkpt><trkpt lat="44.6640497" lon="9.5803972"><ele>541.6666666666666</ele><time>2026-04-04T12:49:46.956Z</time></trkpt><trkpt lat="44.6639403" lon="9.5805532"><ele>543.3333333333333</ele><time>2026-04-04T12:49:47.932Z</time></trkpt><trkpt lat="44.6637949" lon="9.5806768"><ele>545.0</ele><time>2026-04-04T12:49:48.921Z</time></trkpt><trkpt lat="44.6636397" lon="9.5808062"><ele>542.6666666666666</ele><time>2026-04-04T12:49:49.933Z</time></trkpt><trkpt lat="44.6634759" lon="9.5809223"><ele>540.3333333333334</ele><time>2026-04-04T12:49:50.931Z</time></trkpt><trkpt lat="44.6633239" lon="9.5810238"><ele>538.0</ele><time>2026-04-04T12:49:51.932Z</time></trkpt><trkpt lat="44.6631641" lon="9.5811073"><ele>538.0</ele><time>2026-04-04T12:49:52.936Z</time></trkpt><trkpt lat="44.6630122" lon="9.5811561"><ele>538.0</ele><time>2026-04-04T12:49:53.941Z</time></trkpt><trkpt lat="44.6628681" lon="9.5811829"><ele>538.0</ele><time>2026-04-04T12:49:54.941Z</time></trkpt><trkpt lat="44.6627339" lon="9.5811472"><ele>538.0</ele><time>2026-04-04T12:49:55.917Z</time></trkpt><trkpt lat="44.6626192" lon="9.5810327"><ele>538.6</ele><time>2026-04-04T12:49:56.934Z</time></trkpt><trkpt lat="44.66252" lon="9.5809172"><ele>539.1999999999999</ele><time>2026-04-04T12:49:57.936Z</time></trkpt><trkpt lat="44.6624466" lon="9.5808551"><ele>539.8</ele><time>2026-04-04T12:49:58.925Z</time></trkpt><trkpt lat="44.662374" lon="9.5808217"><ele>540.4</ele><time>2026-04-04T12:49:59.931Z</time></trkpt><trkpt lat="44.662287" lon="9.5808507"><ele>541.0</ele><time>2026-04-04T12:50:00.951Z</time></trkpt><trkpt lat="44.6621994" lon="9.5809853"><ele>541.0</ele><time>2026-04-04T12:50:01.938Z</time></trkpt><trkpt lat="44.6620934" lon="9.5811594"><ele>541.0</ele><time>2026-04-04T12:50:02.936Z</time></trkpt><trkpt lat="44.6619731" lon="9.5813458"><ele>541.0</ele><time>2026-04-04T12:50:03.932Z</time></trkpt><trkpt lat="44.6618532" lon="9.5815255"><ele>541.0</ele><time>2026-04-04T12:50:04.93Z</time></trkpt><trkpt lat="44.6617285" lon="9.5817137"><ele>541.0</ele><time>2026-04-04T12:50:05.919Z</time></trkpt><trkpt lat="44.6616164" lon="9.5819197"><ele>541.0</ele><time>2026-04-04T12:50:06.938Z</time></trkpt><trkpt lat="44.661516" lon="9.5821016"><ele>541.75</ele><time>2026-04-04T12:50:07.928Z</time></trkpt><trkpt lat="44.6614276" lon="9.5822456"><ele>542.5</ele><time>2026-04-04T12:50:08.962Z</time></trkpt><trkpt lat="44.6613213" lon="9.5823234"><ele>543.25</ele><time>2026-04-04T12:50:09.942Z</time></trkpt><trkpt lat="44.6611807" lon="9.5823555"><ele>544.0</ele><time>2026-04-04T12:50:10.928Z</time></trkpt><trkpt lat="44.6610333" lon="9.5823362"><ele>544.0</ele><time>2026-04-04T12:50:11.928Z</time></trkpt><trkpt lat="44.6608957" lon="9.5823053"><ele>544.0</ele><time>2026-04-04T12:50:12.932Z</time></trkpt><trkpt lat="44.6607417" lon="9.5822826"><ele>544.0</ele><time>2026-04-04T12:50:13.962Z</time></trkpt><trkpt lat="44.6605868" lon="9.5822782"><ele>544.0</ele><time>2026-04-04T12:50:14.944Z</time></trkpt><trkpt lat="44.6604693" lon="9.5822919"><ele>544.0</ele><time>2026-04-04T12:50:15.97Z</time></trkpt><trkpt lat="44.6603761" lon="9.5823616"><ele>544.0</ele><time>2026-04-04T12:50:16.909Z</time></trkpt><trkpt lat="44.6602936" lon="9.5824629"><ele>544.0</ele><time>2026-04-04T12:50:17.932Z</time></trkpt><trkpt lat="44.660252" lon="9.5826302"><ele>544.0</ele><time>2026-04-04T12:50:18.938Z</time></trkpt><trkpt lat="44.6602477" lon="9.5828459"><ele>543.5</ele><time>2026-04-04T12:50:19.926Z</time></trkpt><trkpt lat="44.6602572" lon="9.5830615"><ele>543.0</ele><time>2026-04-04T12:50:20.927Z</time></trkpt><trkpt lat="44.6602707" lon="9.583283"><ele>542.5</ele><time>2026-04-04T12:50:21.947Z</time></trkpt><trkpt lat="44.6602463" lon="9.5834442"><ele>542.0</ele><time>2026-04-04T12:50:22.942Z</time></trkpt><trkpt lat="44.6601768" lon="9.5835833"><ele>542.0</ele><time>2026-04-04T12:50:23.928Z</time></trkpt><trkpt lat="44.6600736" lon="9.583655"><ele>542.0</ele><time>2026-04-04T12:50:24.943Z</time></trkpt><trkpt lat="44.6599386" lon="9.5836752"><ele>542.0</ele><time>2026-04-04T12:50:25.933Z</time></trkpt><trkpt lat="44.6597869" lon="9.5836539"><ele>542.0</ele><time>2026-04-04T12:50:26.938Z</time></trkpt><trkpt lat="44.6596348" lon="9.5835564"><ele>542.0</ele><time>2026-04-04T12:50:27.944Z</time></trkpt><trkpt lat="44.6594736" lon="9.5834508"><ele>542.0</ele><time>2026-04-04T12:50:28.929Z</time></trkpt><trkpt lat="44.659295" lon="9.5833443"><ele>542.0</ele><time>2026-04-04T12:50:29.942Z</time></trkpt><trkpt lat="44.6591126" lon="9.5832737"><ele>542.6666666666666</ele><time>2026-04-04T12:50:30.937Z</time></trkpt><trkpt lat="44.6589284" lon="9.583222"><ele>543.3333333333334</ele><time>2026-04-04T12:50:31.926Z</time></trkpt><trkpt lat="44.6587511" lon="9.5831789"><ele>544.0</ele><time>2026-04-04T12:50:32.955Z</time></trkpt><trkpt lat="44.6585745" lon="9.5831553"><ele>544.3333333333334</ele><time>2026-04-04T12:50:33.938Z</time></trkpt><trkpt lat="44.6584013" lon="9.5831581"><ele>544.6666666666666</ele><time>2026-04-04T12:50:34.966Z</time></trkpt><trkpt lat="44.6582329" lon="9.5831855"><ele>545.0</ele><time>2026-04-04T12:50:35.931Z</time></trkpt><trkpt lat="44.6580836" lon="9.5832317"><ele>545.0</ele><time>2026-04-04T12:50:36.936Z</time></trkpt><trkpt lat="44.6579576" lon="9.5832767"><ele>545.0</ele><time>2026-04-04T12:50:37.939Z</time></trkpt><trkpt lat="44.657864" lon="9.5833425"><ele>545.0</ele><time>2026-04-04T12:50:38.944Z</time></trkpt><trkpt lat="44.6577907" lon="9.5834451"><ele>545.0</ele><time>2026-04-04T12:50:39.924Z</time></trkpt><trkpt lat="44.6577117" lon="9.5835908"><ele>548.0</ele><time>2026-04-04T12:50:40.938Z</time></trkpt><trkpt lat="44.6576333" lon="9.5837485"><ele>551.0</ele><time>2026-04-04T12:50:41.943Z</time></trkpt><trkpt lat="44.6575482" lon="9.5839044"><ele>554.0</ele><time>2026-04-04T12:50:42.959Z</time></trkpt><trkpt lat="44.657448" lon="9.5840098"><ele>557.0</ele><time>2026-04-04T12:50:43.939Z</time></trkpt><trkpt lat="44.6573457" lon="9.5840489"><ele>557.0</ele><time>2026-04-04T12:50:44.944Z</time></trkpt><trkpt lat="44.6572074" lon="9.5839819"><ele>557.0</ele><time>2026-04-04T12:50:45.959Z</time></trkpt><trkpt lat="44.6570487" lon="9.583942"><ele>557.0</ele><time>2026-04-04T12:50:46.944Z</time></trkpt><trkpt lat="44.6569049" lon="9.5839756"><ele>555.75</ele><time>2026-04-04T12:50:47.945Z</time></trkpt><trkpt lat="44.6567881" lon="9.5840339"><ele>554.5</ele><time>2026-04-04T12:50:48.936Z</time></trkpt><trkpt lat="44.656678" lon="9.5841195"><ele>553.25</ele><time>2026-04-04T12:50:49.958Z</time></trkpt><trkpt lat="44.6565678" lon="9.58425"><ele>552.0</ele><time>2026-04-04T12:50:50.959Z</time></trkpt><trkpt lat="44.6564705" lon="9.5844243"><ele>554.6666666666666</ele><time>2026-04-04T12:50:51.918Z</time></trkpt><trkpt lat="44.656372" lon="9.5846148"><ele>557.3333333333333</ele><time>2026-04-04T12:50:52.939Z</time></trkpt><trkpt lat="44.6562824" lon="9.5848192"><ele>560.0</ele><time>2026-04-04T12:50:53.946Z</time></trkpt><trkpt lat="44.6562057" lon="9.5850376"><ele>560.0</ele><time>2026-04-04T12:50:54.967Z</time></trkpt><trkpt lat="44.6561426" lon="9.5852753"><ele>560.0</ele><time>2026-04-04T12:50:55.951Z</time></trkpt><trkpt lat="44.6560816" lon="9.5855252"><ele>560.0</ele><time>2026-04-04T12:50:56.952Z</time></trkpt><trkpt lat="44.6560091" lon="9.5857689"><ele>560.3333333333333</ele><time>2026-04-04T12:50:57.939Z</time></trkpt><trkpt lat="44.655907" lon="9.5860057"><ele>560.6666666666666</ele><time>2026-04-04T12:50:58.958Z</time></trkpt><trkpt lat="44.6557909" lon="9.5862326"><ele>561.0</ele><time>2026-04-04T12:50:59.968Z</time></trkpt><trkpt lat="44.6556643" lon="9.5864686"><ele>562.0</ele><time>2026-04-04T12:51:00.958Z</time></trkpt><trkpt lat="44.6555295" lon="9.5867044"><ele>563.0</ele><time>2026-04-04T12:51:01.938Z</time></trkpt><trkpt lat="44.6553952" lon="9.5869449"><ele>564.0</ele><time>2026-04-04T12:51:02.897Z</time></trkpt><trkpt lat="44.6552644" lon="9.5871784"><ele>564.0</ele><time>2026-04-04T12:51:03.955Z</time></trkpt><trkpt lat="44.655134" lon="9.5874101"><ele>564.0</ele><time>2026-04-04T12:51:04.953Z</time></trkpt><trkpt lat="44.6550104" lon="9.5876332"><ele>564.0</ele><time>2026-04-04T12:51:05.96Z</time></trkpt><trkpt lat="44.6548841" lon="9.5878512"><ele>566.0</ele><time>2026-04-04T12:51:06.97Z</time></trkpt><trkpt lat="44.654765" lon="9.5880646"><ele>568.0</ele><time>2026-04-04T12:51:07.97Z</time></trkpt><trkpt lat="44.6546475" lon="9.5882763"><ele>570.0</ele><time>2026-04-04T12:51:08.943Z</time></trkpt><trkpt lat="44.6545336" lon="9.5884973"><ele>569.6666666666666</ele><time>2026-04-04T12:51:09.949Z</time></trkpt><trkpt lat="44.6544358" lon="9.5887327"><ele>569.3333333333333</ele><time>2026-04-04T12:51:10.954Z</time></trkpt><trkpt lat="44.6543473" lon="9.5889788"><ele>569.0</ele><time>2026-04-04T12:51:11.96Z</time></trkpt><trkpt lat="44.6542622" lon="9.5892427"><ele>569.0</ele><time>2026-04-04T12:51:12.961Z</time></trkpt><trkpt lat="44.6541642" lon="9.5894949"><ele>569.0</ele><time>2026-04-04T12:51:13.944Z</time></trkpt><trkpt lat="44.6540631" lon="9.5897464"><ele>569.0</ele><time>2026-04-04T12:51:14.963Z</time></trkpt><trkpt lat="44.6539705" lon="9.5899792"><ele>572.3333333333333</ele><time>2026-04-04T12:51:15.955Z</time></trkpt><trkpt lat="44.6538793" lon="9.59021"><ele>575.6666666666666</ele><time>2026-04-04T12:51:16.953Z</time></trkpt><trkpt lat="44.6538038" lon="9.5904622"><ele>579.0</ele><time>2026-04-04T12:51:17.974Z</time></trkpt><trkpt lat="44.6537562" lon="9.5907553"><ele>582.0</ele><time>2026-04-04T12:51:18.949Z</time></trkpt><trkpt lat="44.6537033" lon="9.5910636"><ele>585.0</ele><time>2026-04-04T12:51:19.958Z</time></trkpt><trkpt lat="44.6536269" lon="9.5913697"><ele>584.3333333333334</ele><time>2026-04-04T12:51:20.948Z</time></trkpt><trkpt lat="44.6535422" lon="9.5916639"><ele>583.6666666666667</ele><time>2026-04-04T12:51:21.935Z</time></trkpt><trkpt lat="44.653464" lon="9.5919429"><ele>583.0</ele><time>2026-04-04T12:51:22.973Z</time></trkpt><trkpt lat="44.6533814" lon="9.5922056"><ele>586.6666666666667</ele><time>2026-04-04T12:51:23.961Z</time></trkpt><trkpt lat="44.6532981" lon="9.5924393"><ele>590.3333333333334</ele><time>2026-04-04T12:51:24.974Z</time></trkpt><trkpt lat="44.6531742" lon="9.5926366"><ele>594.0</ele><time>2026-04-04T12:51:25.937Z</time></trkpt><trkpt lat="44.6530321" lon="9.5928271"><ele>593.6666666666666</ele><time>2026-04-04T12:51:26.939Z</time></trkpt><trkpt lat="44.6528964" lon="9.5930194"><ele>593.3333333333333</ele><time>2026-04-04T12:51:27.956Z</time></trkpt><trkpt lat="44.6527598" lon="9.5932226"><ele>593.0</ele><time>2026-04-04T12:51:28.931Z</time></trkpt><trkpt lat="44.6526278" lon="9.5934006"><ele>593.0</ele><time>2026-04-04T12:51:29.971Z</time></trkpt><trkpt lat="44.6525254" lon="9.5935689"><ele>593.0</ele><time>2026-04-04T12:51:30.952Z</time></trkpt><trkpt lat="44.6524501" lon="9.5937413"><ele>593.0</ele><time>2026-04-04T12:51:31.966Z</time></trkpt><trkpt lat="44.65241" lon="9.5939124"><ele>593.0</ele><time>2026-04-04T12:51:32.976Z</time></trkpt><trkpt lat="44.6524019" lon="9.5941174"><ele>594.5</ele><time>2026-04-04T12:51:33.954Z</time></trkpt><trkpt lat="44.6524065" lon="9.5943261"><ele>596.0</ele><time>2026-04-04T12:51:34.958Z</time></trkpt><trkpt lat="44.6524215" lon="9.5945137"><ele>597.5</ele><time>2026-04-04T12:51:35.951Z</time></trkpt><trkpt lat="44.6523864" lon="9.5946779"><ele>599.0</ele><time>2026-04-04T12:51:36.926Z</time></trkpt><trkpt lat="44.6523023" lon="9.5947889"><ele>599.25</ele><time>2026-04-04T12:51:37.9Z</time></trkpt><trkpt lat="44.6521741" lon="9.594873"><ele>599.5</ele><time>2026-04-04T12:51:38.922Z</time></trkpt><trkpt lat="44.6520467" lon="9.5949028"><ele>599.75</ele><time>2026-04-04T12:51:39.966Z</time></trkpt><trkpt lat="44.6519233" lon="9.5948817"><ele>600.0</ele><time>2026-04-04T12:51:40.96Z</time></trkpt><trkpt lat="44.6518022" lon="9.5947845"><ele>599.6666666666666</ele><time>2026-04-04T12:51:41.969Z</time></trkpt><trkpt lat="44.6516611" lon="9.5946378"><ele>599.3333333333333</ele><time>2026-04-04T12:51:42.962Z</time></trkpt><trkpt lat="44.6515101" lon="9.594487"><ele>599.0</ele><time>2026-04-04T12:51:43.945Z</time></trkpt><trkpt lat="44.6513429" lon="9.594342"><ele>599.0</ele><time>2026-04-04T12:51:44.968Z</time></trkpt><trkpt lat="44.651147" lon="9.5942275"><ele>599.0</ele><time>2026-04-04T12:51:45.961Z</time></trkpt><trkpt lat="44.6509372" lon="9.5941348"><ele>599.0</ele><time>2026-04-04T12:51:46.965Z</time></trkpt><trkpt lat="44.650732" lon="9.5940575"><ele>602.3333333333333</ele><time>2026-04-04T12:51:47.94Z</time></trkpt><trkpt lat="44.6505385" lon="9.5939852"><ele>605.6666666666666</ele><time>2026-04-04T12:51:48.953Z</time></trkpt><trkpt lat="44.6503603" lon="9.5939221"><ele>609.0</ele><time>2026-04-04T12:51:49.977Z</time></trkpt><trkpt lat="44.6502129" lon="9.5938791"><ele>611.5</ele><time>2026-04-04T12:51:50.985Z</time></trkpt><trkpt lat="44.6500845" lon="9.5938757"><ele>614.0</ele><time>2026-04-04T12:51:51.973Z</time></trkpt><trkpt lat="44.6499768" lon="9.5939449"><ele>616.5</ele><time>2026-04-04T12:51:52.976Z</time></trkpt><trkpt lat="44.6498626" lon="9.5940366"><ele>619.0</ele><time>2026-04-04T12:51:53.905Z</time></trkpt><trkpt lat="44.6497549" lon="9.5941787"><ele>619.0</ele><time>2026-04-04T12:51:54.96Z</time></trkpt><trkpt lat="44.649672" lon="9.5943911"><ele>619.0</ele><time>2026-04-04T12:51:55.971Z</time></trkpt><trkpt lat="44.6495996" lon="9.5946224"><ele>619.0</ele><time>2026-04-04T12:51:56.964Z</time></trkpt><trkpt lat="44.649525" lon="9.5948522"><ele>621.75</ele><time>2026-04-04T12:51:57.963Z</time></trkpt><trkpt lat="44.6494582" lon="9.5950407"><ele>624.5</ele><time>2026-04-04T12:51:58.981Z</time></trkpt><trkpt lat="44.6494061" lon="9.5952253"><ele>627.25</ele><time>2026-04-04T12:51:59.965Z</time></trkpt><trkpt lat="44.649382" lon="9.5953938"><ele>630.0</ele><time>2026-04-04T12:52:00.977Z</time></trkpt><trkpt lat="44.649396" lon="9.5955514"><ele>629.5</ele><time>2026-04-04T12:52:01.976Z</time></trkpt><trkpt lat="44.6494466" lon="9.5957104"><ele>629.0</ele><time>2026-04-04T12:52:02.955Z</time></trkpt><trkpt lat="44.6495231" lon="9.5958883"><ele>628.5</ele><time>2026-04-04T12:52:03.932Z</time></trkpt><trkpt lat="44.6495818" lon="9.5960662"><ele>628.0</ele><time>2026-04-04T12:52:04.966Z</time></trkpt><trkpt lat="44.6496077" lon="9.596243"><ele>628.0</ele><time>2026-04-04T12:52:05.959Z</time></trkpt><trkpt lat="44.6496005" lon="9.5964344"><ele>628.0</ele><time>2026-04-04T12:52:06.965Z</time></trkpt><trkpt lat="44.6495818" lon="9.5966431"><ele>628.0</ele><time>2026-04-04T12:52:07.941Z</time></trkpt><trkpt lat="44.6495905" lon="9.5968584"><ele>628.0</ele><time>2026-04-04T12:52:08.985Z</time></trkpt><trkpt lat="44.6496293" lon="9.5970464"><ele>630.0</ele><time>2026-04-04T12:52:09.962Z</time></trkpt><trkpt lat="44.6496947" lon="9.5972414"><ele>632.0</ele><time>2026-04-04T12:52:10.957Z</time></trkpt><trkpt lat="44.6497748" lon="9.5974267"><ele>634.0</ele><time>2026-04-04T12:52:11.968Z</time></trkpt><trkpt lat="44.6498287" lon="9.5975789"><ele>636.0</ele><time>2026-04-04T12:52:12.953Z</time></trkpt><trkpt lat="44.6498485" lon="9.5977457"><ele>637.2</ele><time>2026-04-04T12:52:13.958Z</time></trkpt><trkpt lat="44.6498253" lon="9.5978991"><ele>638.4000000000001</ele><time>2026-04-04T12:52:14.994Z</time></trkpt><trkpt lat="44.6497788" lon="9.5980339"><ele>639.6</ele><time>2026-04-04T12:52:15.959Z</time></trkpt><trkpt lat="44.6496961" lon="9.5981483"><ele>640.8000000000001</ele><time>2026-04-04T12:52:16.957Z</time></trkpt><trkpt lat="44.6496111" lon="9.5982549"><ele>642.0</ele><time>2026-04-04T12:52:17.951Z</time></trkpt><trkpt lat="44.6495607" lon="9.5983687"><ele>642.0</ele><time>2026-04-04T12:52:18.961Z</time></trkpt><trkpt lat="44.64956" lon="9.5984746"><ele>642.0</ele><time>2026-04-04T12:52:19.953Z</time></trkpt><trkpt lat="44.6495928" lon="9.5985899"><ele>642.0</ele><time>2026-04-04T12:52:20.944Z</time></trkpt><trkpt lat="44.6496844" lon="9.5986702"><ele>642.0</ele><time>2026-04-04T12:52:21.958Z</time></trkpt><trkpt lat="44.6497934" lon="9.5986685"><ele>642.0</ele><time>2026-04-04T12:52:22.986Z</time></trkpt><trkpt lat="44.6499201" lon="9.598656"><ele>642.0</ele><time>2026-04-04T12:52:23.94Z</time></trkpt><trkpt lat="44.6500619" lon="9.5985661"><ele>642.0</ele><time>2026-04-04T12:52:24.952Z</time></trkpt><trkpt lat="44.6502172" lon="9.5984483"><ele>642.0</ele><time>2026-04-04T12:52:25.995Z</time></trkpt><trkpt lat="44.6503689" lon="9.5983496"><ele>643.25</ele><time>2026-04-04T12:52:26.964Z</time></trkpt><trkpt lat="44.6505131" lon="9.5982894"><ele>644.5</ele><time>2026-04-04T12:52:27.893Z</time></trkpt><trkpt lat="44.6506394" lon="9.5982736"><ele>645.75</ele><time>2026-04-04T12:52:28.955Z</time></trkpt><trkpt lat="44.6507893" lon="9.5983281"><ele>647.0</ele><time>2026-04-04T12:52:29.958Z</time></trkpt><trkpt lat="44.6509268" lon="9.5983929"><ele>647.0</ele><time>2026-04-04T12:52:30.962Z</time></trkpt><trkpt lat="44.651046" lon="9.5984846"><ele>647.0</ele><time>2026-04-04T12:52:31.963Z</time></trkpt><trkpt lat="44.6511178" lon="9.5986162"><ele>647.0</ele><time>2026-04-04T12:52:32.915Z</time></trkpt><trkpt lat="44.651152" lon="9.5987905"><ele>647.0</ele><time>2026-04-04T12:52:33.947Z</time></trkpt><trkpt lat="44.6511492" lon="9.5989808"><ele>649.0</ele><time>2026-04-04T12:52:34.947Z</time></trkpt><trkpt lat="44.6511208" lon="9.5991851"><ele>651.0</ele><time>2026-04-04T12:52:35.942Z</time></trkpt><trkpt lat="44.6510693" lon="9.5994029"><ele>653.0</ele><time>2026-04-04T12:52:36.956Z</time></trkpt><trkpt lat="44.6509981" lon="9.5996339"><ele>653.0</ele><time>2026-04-04T12:52:37.926Z</time></trkpt><trkpt lat="44.650943" lon="9.5998498"><ele>653.0</ele><time>2026-04-04T12:52:38.957Z</time></trkpt><trkpt lat="44.650906" lon="9.6000846"><ele>653.0</ele><time>2026-04-04T12:52:39.958Z</time></trkpt><trkpt lat="44.6509019" lon="9.6002931"><ele>653.75</ele><time>2026-04-04T12:52:40.968Z</time></trkpt><trkpt lat="44.6509395" lon="9.6004798"><ele>654.5</ele><time>2026-04-04T12:52:41.959Z</time></trkpt><trkpt lat="44.650976" lon="9.6006578"><ele>655.25</ele><time>2026-04-04T12:52:42.958Z</time></trkpt><trkpt lat="44.6509954" lon="9.6008112"><ele>656.0</ele><time>2026-04-04T12:52:43.954Z</time></trkpt><trkpt lat="44.6509779" lon="9.6009431"><ele>656.0</ele><time>2026-04-04T12:52:44.962Z</time></trkpt><trkpt lat="44.650961" lon="9.6010878"><ele>656.0</ele><time>2026-04-04T12:52:45.971Z</time></trkpt><trkpt lat="44.6509241" lon="9.601181"><ele>656.0</ele><time>2026-04-04T12:52:46.965Z</time></trkpt><trkpt lat="44.6508172" lon="9.6011517"><ele>656.0</ele><time>2026-04-04T12:52:47.953Z</time></trkpt><trkpt lat="44.6506928" lon="9.60098"><ele>656.0</ele><time>2026-04-04T12:52:48.935Z</time></trkpt><trkpt lat="44.6506271" lon="9.6007764"><ele>656.0</ele><time>2026-04-04T12:52:49.949Z</time></trkpt><trkpt lat="44.6506257" lon="9.6005332"><ele>656.0</ele><time>2026-04-04T12:52:50.973Z</time></trkpt><trkpt lat="44.6506122" lon="9.6002903"><ele>655.25</ele><time>2026-04-04T12:52:51.919Z</time></trkpt><trkpt lat="44.6505943" lon="9.6000825"><ele>654.5</ele><time>2026-04-04T12:52:52.96Z</time></trkpt><trkpt lat="44.650568" lon="9.5999262"><ele>653.75</ele><time>2026-04-04T12:52:53.957Z</time></trkpt><trkpt lat="44.650524" lon="9.599794"><ele>653.0</ele><time>2026-04-04T12:52:54.966Z</time></trkpt><trkpt lat="44.6504456" lon="9.5997021"><ele>653.0</ele><time>2026-04-04T12:52:55.938Z</time></trkpt><trkpt lat="44.6503412" lon="9.5996582"><ele>653.0</ele><time>2026-04-04T12:52:56.961Z</time></trkpt><trkpt lat="44.6502181" lon="9.5996914"><ele>653.0</ele><time>2026-04-04T12:52:57.966Z</time></trkpt><trkpt lat="44.6501078" lon="9.5997424"><ele>653.0</ele><time>2026-04-04T12:52:58.953Z</time></trkpt><trkpt lat="44.6499871" lon="9.5998337"><ele>657.6666666666666</ele><time>2026-04-04T12:52:59.973Z</time></trkpt><trkpt lat="44.6498517" lon="9.5999481"><ele>662.3333333333334</ele><time>2026-04-04T12:53:00.97Z</time></trkpt><trkpt lat="44.6497156" lon="9.6000729"><ele>667.0</ele><time>2026-04-04T12:53:01.969Z</time></trkpt><trkpt lat="44.649574" lon="9.6001811"><ele>666.0</ele><time>2026-04-04T12:53:02.973Z</time></trkpt><trkpt lat="44.649421" lon="9.6002697"><ele>665.0</ele><time>2026-04-04T12:53:03.927Z</time></trkpt><trkpt lat="44.6492588" lon="9.6003375"><ele>664.0</ele><time>2026-04-04T12:53:04.994Z</time></trkpt><trkpt lat="44.6490975" lon="9.600398"><ele>668.6666666666667</ele><time>2026-04-04T12:53:05.941Z</time></trkpt><trkpt lat="44.6489366" lon="9.6004559"><ele>673.3333333333334</ele><time>2026-04-04T12:53:06.968Z</time></trkpt><trkpt lat="44.6487872" lon="9.6005223"><ele>678.0</ele><time>2026-04-04T12:53:07.983Z</time></trkpt><trkpt lat="44.6486396" lon="9.6005919"><ele>678.0</ele><time>2026-04-04T12:53:08.969Z</time></trkpt><trkpt lat="44.6485028" lon="9.6006606"><ele>678.0</ele><time>2026-04-04T12:53:09.986Z</time></trkpt><trkpt lat="44.6483879" lon="9.6007231"><ele>678.0</ele><time>2026-04-04T12:53:10.956Z</time></trkpt><trkpt lat="44.6482979" lon="9.6008159"><ele>678.0</ele><time>2026-04-04T12:53:11.972Z</time></trkpt><trkpt lat="44.6482476" lon="9.6009636"><ele>678.0</ele><time>2026-04-04T12:53:12.962Z</time></trkpt><trkpt lat="44.6482393" lon="9.6011182"><ele>678.0</ele><time>2026-04-04T12:53:13.952Z</time></trkpt><trkpt lat="44.6482717" lon="9.6012533"><ele>678.0</ele><time>2026-04-04T12:53:14.984Z</time></trkpt><trkpt lat="44.6483496" lon="9.6013494"><ele>678.0</ele><time>2026-04-04T12:53:15.967Z</time></trkpt><trkpt lat="44.6484366" lon="9.6014174"><ele>678.0</ele><time>2026-04-04T12:53:16.968Z</time></trkpt><trkpt lat="44.6485556" lon="9.6014518"><ele>680.75</ele><time>2026-04-04T12:53:17.986Z</time></trkpt><trkpt lat="44.648673" lon="9.6014369"><ele>683.5</ele><time>2026-04-04T12:53:18.963Z</time></trkpt><trkpt lat="44.6487988" lon="9.6013827"><ele>686.25</ele><time>2026-04-04T12:53:19.966Z</time></trkpt><trkpt lat="44.6489184" lon="9.6013018"><ele>689.0</ele><time>2026-04-04T12:53:20.947Z</time></trkpt><trkpt lat="44.6490382" lon="9.6012253"><ele>689.0</ele><time>2026-04-04T12:53:21.972Z</time></trkpt><trkpt lat="44.6491722" lon="9.6012161"><ele>689.0</ele><time>2026-04-04T12:53:22.949Z</time></trkpt><trkpt lat="44.6492957" lon="9.6013047"><ele>689.0</ele><time>2026-04-04T12:53:23.952Z</time></trkpt><trkpt lat="44.6494035" lon="9.6014239"><ele>689.0</ele><time>2026-04-04T12:53:24.962Z</time></trkpt><trkpt lat="44.6494889" lon="9.6015972"><ele>687.0</ele><time>2026-04-04T12:53:25.974Z</time></trkpt><trkpt lat="44.6495385" lon="9.6018152"><ele>685.0</ele><time>2026-04-04T12:53:26.951Z</time></trkpt><trkpt lat="44.6496038" lon="9.602051"><ele>683.0</ele><time>2026-04-04T12:53:27.96Z</time></trkpt><trkpt lat="44.6496665" lon="9.6023048"><ele>683.0</ele><time>2026-04-04T12:53:29.004Z</time></trkpt><trkpt lat="44.6497215" lon="9.6025647"><ele>683.0</ele><time>2026-04-04T12:53:29.95Z</time></trkpt><trkpt lat="44.6497607" lon="9.6028127"><ele>683.0</ele><time>2026-04-04T12:53:30.955Z</time></trkpt><trkpt lat="44.6497861" lon="9.603015"><ele>684.0</ele><time>2026-04-04T12:53:31.933Z</time></trkpt><trkpt lat="44.6498121" lon="9.6032131"><ele>685.0</ele><time>2026-04-04T12:53:32.974Z</time></trkpt><trkpt lat="44.6497918" lon="9.603414"><ele>686.0</ele><time>2026-04-04T12:53:33.934Z</time></trkpt><trkpt lat="44.6497135" lon="9.6036218"><ele>686.0</ele><time>2026-04-04T12:53:34.952Z</time></trkpt><trkpt lat="44.649619" lon="9.603811"><ele>686.0</ele><time>2026-04-04T12:53:35.967Z</time></trkpt><trkpt lat="44.6495139" lon="9.6039937"><ele>686.0</ele><time>2026-04-04T12:53:36.969Z</time></trkpt><trkpt lat="44.6494085" lon="9.6041841"><ele>691.3333333333333</ele><time>2026-04-04T12:53:37.959Z</time></trkpt><trkpt lat="44.6493093" lon="9.6044077"><ele>696.6666666666666</ele><time>2026-04-04T12:53:38.962Z</time></trkpt><trkpt lat="44.6492351" lon="9.6046181"><ele>702.0</ele><time>2026-04-04T12:53:39.963Z</time></trkpt><trkpt lat="44.6491799" lon="9.6048239"><ele>702.5</ele><time>2026-04-04T12:53:40.956Z</time></trkpt><trkpt lat="44.6491332" lon="9.6050287"><ele>703.0</ele><time>2026-04-04T12:53:41.962Z</time></trkpt><trkpt lat="44.6491099" lon="9.6052261"><ele>703.5</ele><time>2026-04-04T12:53:42.965Z</time></trkpt><trkpt lat="44.6491159" lon="9.6053985"><ele>704.0</ele><time>2026-04-04T12:53:43.932Z</time></trkpt><trkpt lat="44.6491606" lon="9.6055718"><ele>705.0</ele><time>2026-04-04T12:53:44.945Z</time></trkpt><trkpt lat="44.6492422" lon="9.6057408"><ele>706.0</ele><time>2026-04-04T12:53:45.984Z</time></trkpt><trkpt lat="44.6493596" lon="9.6059105"><ele>707.0</ele><time>2026-04-04T12:53:46.89Z</time></trkpt><trkpt lat="44.6494863" lon="9.6060886"><ele>706.75</ele><time>2026-04-04T12:53:47.89Z</time></trkpt><trkpt lat="44.649591" lon="9.6062558"><ele>706.5</ele><time>2026-04-04T12:53:48.945Z</time></trkpt><trkpt lat="44.6496913" lon="9.6064039"><ele>706.25</ele><time>2026-04-04T12:53:49.909Z</time></trkpt><trkpt lat="44.6497841" lon="9.6065306"><ele>706.0</ele><time>2026-04-04T12:53:50.951Z</time></trkpt><trkpt lat="44.6498619" lon="9.6066263"><ele>706.0</ele><time>2026-04-04T12:53:51.973Z</time></trkpt><trkpt lat="44.6499243" lon="9.6066826"><ele>706.0</ele><time>2026-04-04T12:53:52.958Z</time></trkpt><trkpt lat="44.6499902" lon="9.6067008"><ele>706.0</ele><time>2026-04-04T12:53:53.962Z</time></trkpt><trkpt lat="44.6500887" lon="9.6066423"><ele>706.0</ele><time>2026-04-04T12:53:55.937Z</time></trkpt><trkpt lat="44.6501601" lon="9.6065747"><ele>706.0</ele><time>2026-04-04T12:53:57.932Z</time></trkpt><trkpt lat="44.6502392" lon="9.6065187"><ele>706.0</ele><time>2026-04-04T12:54:00.957Z</time></trkpt><trkpt lat="44.6503143" lon="9.6064621"><ele>706.1666666666667</ele><time>2026-04-04T12:54:04.963Z</time></trkpt><trkpt lat="44.6503817" lon="9.6063938"><ele>706.3333333333334</ele><time>2026-04-04T12:54:07.967Z</time></trkpt><trkpt lat="44.6504682" lon="9.6063293"><ele>706.5</ele><time>2026-04-04T12:54:10.973Z</time></trkpt><trkpt lat="44.6505451" lon="9.606254"><ele>706.6666666666666</ele><time>2026-04-04T12:54:12.962Z</time></trkpt><trkpt lat="44.6506109" lon="9.6061867"><ele>706.8333333333333</ele><time>2026-04-04T12:54:14.986Z</time></trkpt><trkpt lat="44.6506874" lon="9.6061114"><ele>707.0</ele><time>2026-04-04T12:54:16.977Z</time></trkpt><trkpt lat="44.6507598" lon="9.6060363"><ele>707.0</ele><time>2026-04-04T12:54:18.975Z</time></trkpt><trkpt lat="44.6508203" lon="9.6059766"><ele>707.0</ele><time>2026-04-04T12:54:20.934Z</time></trkpt><trkpt lat="44.6508871" lon="9.6059213"><ele>707.0</ele><time>2026-04-04T12:54:22.963Z</time></trkpt><trkpt lat="44.6509436" lon="9.6058628"><ele>707.0</ele><time>2026-04-04T12:54:24.907Z</time></trkpt><trkpt lat="44.6510048" lon="9.605805"><ele>707.0</ele><time>2026-04-04T12:54:26.911Z</time></trkpt><trkpt lat="44.6510709" lon="9.6057603"><ele>707.0</ele><time>2026-04-04T12:54:28.927Z</time></trkpt><trkpt lat="44.6511383" lon="9.6056981"><ele>707.0</ele><time>2026-04-04T12:54:30.92Z</time></trkpt><trkpt lat="44.6512017" lon="9.6056304"><ele>707.0</ele><time>2026-04-04T12:54:32.92Z</time></trkpt><trkpt lat="44.6512627" lon="9.6055613"><ele>707.0</ele><time>2026-04-04T12:54:34.909Z</time></trkpt><trkpt lat="44.6513225" lon="9.6054966"><ele>707.0</ele><time>2026-04-04T12:54:36.917Z</time></trkpt><trkpt lat="44.6513774" lon="9.6054392"><ele>707.0</ele><time>2026-04-04T12:54:38.899Z</time></trkpt><trkpt lat="44.6514205" lon="9.6053552"><ele>707.0</ele><time>2026-04-04T12:54:40.911Z</time></trkpt><trkpt lat="44.6514863" lon="9.6053485"><ele>707.0</ele><time>2026-04-04T12:55:17.916Z</time></trkpt><trkpt lat="44.6515833" lon="9.6052563"><ele>704.6</ele><time>2026-04-04T12:55:19.91Z</time></trkpt><trkpt lat="44.6516462" lon="9.6052072"><ele>702.2</ele><time>2026-04-04T12:55:20.92Z</time></trkpt><trkpt lat="44.6517169" lon="9.6051459"><ele>699.8</ele><time>2026-04-04T12:55:21.908Z</time></trkpt><trkpt lat="44.6517949" lon="9.6050763"><ele>697.4</ele><time>2026-04-04T12:55:22.911Z</time></trkpt><trkpt lat="44.6518805" lon="9.6049888"><ele>695.0</ele><time>2026-04-04T12:55:23.916Z</time></trkpt><trkpt lat="44.6519566" lon="9.6048848"><ele>694.5</ele><time>2026-04-04T12:55:24.911Z</time></trkpt><trkpt lat="44.6520089" lon="9.6047792"><ele>694.0</ele><time>2026-04-04T12:55:25.937Z</time></trkpt><trkpt lat="44.6520479" lon="9.6046649"><ele>693.5</ele><time>2026-04-04T12:55:26.918Z</time></trkpt><trkpt lat="44.65207" lon="9.6045492"><ele>693.0</ele><time>2026-04-04T12:55:27.906Z</time></trkpt><trkpt lat="44.6520885" lon="9.6044262"><ele>692.5</ele><time>2026-04-04T12:55:28.926Z</time></trkpt><trkpt lat="44.6521174" lon="9.6043183"><ele>692.0</ele><time>2026-04-04T12:55:29.928Z</time></trkpt><trkpt lat="44.6521492" lon="9.6042179"><ele>692.0</ele><time>2026-04-04T12:55:30.916Z</time></trkpt><trkpt lat="44.6522055" lon="9.6041482"><ele>692.0</ele><time>2026-04-04T12:55:31.916Z</time></trkpt><trkpt lat="44.6522873" lon="9.6040915"><ele>692.0</ele><time>2026-04-04T12:55:32.894Z</time></trkpt><trkpt lat="44.6523747" lon="9.6040317"><ele>692.0</ele><time>2026-04-04T12:55:33.915Z</time></trkpt><trkpt lat="44.6524656" lon="9.6039745"><ele>692.0</ele><time>2026-04-04T12:55:34.902Z</time></trkpt><trkpt lat="44.652568" lon="9.603924"><ele>692.0</ele><time>2026-04-04T12:55:35.928Z</time></trkpt><trkpt lat="44.652672" lon="9.6038518"><ele>692.0</ele><time>2026-04-04T12:55:36.904Z</time></trkpt><trkpt lat="44.6527627" lon="9.6037604"><ele>692.0</ele><time>2026-04-04T12:55:37.927Z</time></trkpt><trkpt lat="44.6528461" lon="9.6036717"><ele>692.0</ele><time>2026-04-04T12:55:38.928Z</time></trkpt><trkpt lat="44.652933" lon="9.6035762"><ele>692.0</ele><time>2026-04-04T12:55:39.929Z</time></trkpt><trkpt lat="44.6530082" lon="9.60348"><ele>691.8</ele><time>2026-04-04T12:55:40.904Z</time></trkpt><trkpt lat="44.6530744" lon="9.6033887"><ele>691.6</ele><time>2026-04-04T12:55:41.909Z</time></trkpt><trkpt lat="44.6531373" lon="9.6032999"><ele>691.4</ele><time>2026-04-04T12:55:42.891Z</time></trkpt><trkpt lat="44.6532095" lon="9.6032241"><ele>691.1999999999999</ele><time>2026-04-04T12:55:43.912Z</time></trkpt><trkpt lat="44.6533016" lon="9.6031683"><ele>691.0</ele><time>2026-04-04T12:55:44.936Z</time></trkpt><trkpt lat="44.6534082" lon="9.6031325"><ele>691.0</ele><time>2026-04-04T12:55:45.957Z</time></trkpt><trkpt lat="44.6535154" lon="9.6030819"><ele>691.0</ele><time>2026-04-04T12:55:46.904Z</time></trkpt><trkpt lat="44.6536217" lon="9.6030341"><ele>691.0</ele><time>2026-04-04T12:55:47.896Z</time></trkpt><trkpt lat="44.6537111" lon="9.6030186"><ele>691.0</ele><time>2026-04-04T12:55:48.896Z</time></trkpt><trkpt lat="44.6538176" lon="9.6030423"><ele>691.0</ele><time>2026-04-04T12:55:49.889Z</time></trkpt><trkpt lat="44.6539321" lon="9.6030691"><ele>694.0</ele><time>2026-04-04T12:55:50.901Z</time></trkpt><trkpt lat="44.6540425" lon="9.603111"><ele>697.0</ele><time>2026-04-04T12:55:51.916Z</time></trkpt><trkpt lat="44.6541505" lon="9.6031653"><ele>700.0</ele><time>2026-04-04T12:55:52.967Z</time></trkpt><trkpt lat="44.6542734" lon="9.6032355"><ele>703.0</ele><time>2026-04-04T12:55:53.947Z</time></trkpt><trkpt lat="44.6543987" lon="9.6032953"><ele>705.5</ele><time>2026-04-04T12:55:54.885Z</time></trkpt><trkpt lat="44.6545253" lon="9.6033303"><ele>708.0</ele><time>2026-04-04T12:55:55.888Z</time></trkpt><trkpt lat="44.6546507" lon="9.6033535"><ele>710.5</ele><time>2026-04-04T12:55:56.887Z</time></trkpt><trkpt lat="44.6547688" lon="9.6033562"><ele>713.0</ele><time>2026-04-04T12:55:57.897Z</time></trkpt><trkpt lat="44.6548708" lon="9.6032817"><ele>713.0</ele><time>2026-04-04T12:55:58.892Z</time></trkpt><trkpt lat="44.6549624" lon="9.603162"><ele>713.0</ele><time>2026-04-04T12:55:59.883Z</time></trkpt><trkpt lat="44.6550491" lon="9.6029975"><ele>713.0</ele><time>2026-04-04T12:56:00.899Z</time></trkpt><trkpt lat="44.6551275" lon="9.6028269"><ele>713.0</ele><time>2026-04-04T12:56:01.908Z</time></trkpt><trkpt lat="44.6552103" lon="9.6026703"><ele>713.5999999999999</ele><time>2026-04-04T12:56:02.888Z</time></trkpt><trkpt lat="44.6552813" lon="9.6025327"><ele>714.1999999999999</ele><time>2026-04-04T12:56:03.883Z</time></trkpt><trkpt lat="44.655335" lon="9.6024038"><ele>714.8</ele><time>2026-04-04T12:56:04.889Z</time></trkpt><trkpt lat="44.6553873" lon="9.6022825"><ele>715.4</ele><time>2026-04-04T12:56:05.895Z</time></trkpt><trkpt lat="44.6554348" lon="9.6021716"><ele>716.0</ele><time>2026-04-04T12:56:06.894Z</time></trkpt><trkpt lat="44.6554871" lon="9.6020864"><ele>716.0</ele><time>2026-04-04T12:56:07.907Z</time></trkpt><trkpt lat="44.6555534" lon="9.6020263"><ele>716.0</ele><time>2026-04-04T12:56:08.895Z</time></trkpt><trkpt lat="44.6556371" lon="9.6019937"><ele>716.0</ele><time>2026-04-04T12:56:09.907Z</time></trkpt><trkpt lat="44.6557395" lon="9.6020119"><ele>716.0</ele><time>2026-04-04T12:56:10.905Z</time></trkpt><trkpt lat="44.6558404" lon="9.602052"><ele>716.0</ele><time>2026-04-04T12:56:11.892Z</time></trkpt><trkpt lat="44.6559396" lon="9.6020907"><ele>716.0</ele><time>2026-04-04T12:56:12.891Z</time></trkpt><trkpt lat="44.6560183" lon="9.6021011"><ele>716.0</ele><time>2026-04-04T12:56:13.891Z</time></trkpt><trkpt lat="44.6560916" lon="9.6020492"><ele>716.0</ele><time>2026-04-04T12:56:14.894Z</time></trkpt><trkpt lat="44.6561608" lon="9.6019371"><ele>716.0</ele><time>2026-04-04T12:56:15.896Z</time></trkpt><trkpt lat="44.6562183" lon="9.6018004"><ele>716.0</ele><time>2026-04-04T12:56:16.904Z</time></trkpt><trkpt lat="44.6562829" lon="9.6016345"><ele>714.75</ele><time>2026-04-04T12:56:17.905Z</time></trkpt><trkpt lat="44.6563564" lon="9.6014847"><ele>713.5</ele><time>2026-04-04T12:56:18.909Z</time></trkpt><trkpt lat="44.6564411" lon="9.6013456"><ele>712.25</ele><time>2026-04-04T12:56:19.94Z</time></trkpt><trkpt lat="44.6565098" lon="9.6012106"><ele>711.0</ele><time>2026-04-04T12:56:20.944Z</time></trkpt><trkpt lat="44.6565934" lon="9.6010963"><ele>711.0</ele><time>2026-04-04T12:56:21.961Z</time></trkpt><trkpt lat="44.6566898" lon="9.6010166"><ele>711.0</ele><time>2026-04-04T12:56:22.935Z</time></trkpt><trkpt lat="44.6567929" lon="9.6009906"><ele>711.0</ele><time>2026-04-04T12:56:23.927Z</time></trkpt><trkpt lat="44.656899" lon="9.6010054"><ele>711.0</ele><time>2026-04-04T12:56:24.965Z</time></trkpt><trkpt lat="44.6569989" lon="9.6010292"><ele>711.0</ele><time>2026-04-04T12:56:25.942Z</time></trkpt><trkpt lat="44.6570906" lon="9.6010621"><ele>714.5999999999999</ele><time>2026-04-04T12:56:26.962Z</time></trkpt><trkpt lat="44.6571789" lon="9.6010483"><ele>718.2</ele><time>2026-04-04T12:56:27.915Z</time></trkpt><trkpt lat="44.6572727" lon="9.600983"><ele>721.8</ele><time>2026-04-04T12:56:28.957Z</time></trkpt><trkpt lat="44.6573795" lon="9.6009085"><ele>725.4000000000001</ele><time>2026-04-04T12:56:29.969Z</time></trkpt><trkpt lat="44.657474" lon="9.6008419"><ele>729.0</ele><time>2026-04-04T12:56:30.958Z</time></trkpt><trkpt lat="44.6575968" lon="9.6008134"><ele>729.0</ele><time>2026-04-04T12:56:31.962Z</time></trkpt><trkpt lat="44.6577351" lon="9.6008155"><ele>729.0</ele><time>2026-04-04T12:56:32.95Z</time></trkpt><trkpt lat="44.6578684" lon="9.6008106"><ele>729.0</ele><time>2026-04-04T12:56:33.964Z</time></trkpt><trkpt lat="44.6579851" lon="9.6007616"><ele>729.0</ele><time>2026-04-04T12:56:34.945Z</time></trkpt><trkpt lat="44.658089" lon="9.6006725"><ele>732.5</ele><time>2026-04-04T12:56:35.936Z</time></trkpt><trkpt lat="44.6581596" lon="9.6005233"><ele>736.0</ele><time>2026-04-04T12:56:36.931Z</time></trkpt><trkpt lat="44.6582004" lon="9.6003565"><ele>739.5</ele><time>2026-04-04T12:56:37.953Z</time></trkpt><trkpt lat="44.6582204" lon="9.6001441"><ele>743.0</ele><time>2026-04-04T12:56:38.959Z</time></trkpt><trkpt lat="44.6582452" lon="9.5999258"><ele>743.0</ele><time>2026-04-04T12:56:39.961Z</time></trkpt><trkpt lat="44.6582631" lon="9.5996994"><ele>743.0</ele><time>2026-04-04T12:56:40.953Z</time></trkpt><trkpt lat="44.6582983" lon="9.5994951"><ele>743.0</ele><time>2026-04-04T12:56:41.93Z</time></trkpt><trkpt lat="44.6583651" lon="9.5993114"><ele>738.0</ele><time>2026-04-04T12:56:42.92Z</time></trkpt><trkpt lat="44.6584501" lon="9.5991363"><ele>733.0</ele><time>2026-04-04T12:56:43.936Z</time></trkpt><trkpt lat="44.6586084" lon="9.5987774"><ele>742.0</ele><time>2026-04-04T12:56:45.937Z</time></trkpt><trkpt lat="44.6586653" lon="9.5986057"><ele>751.0</ele><time>2026-04-04T12:56:46.957Z</time></trkpt><trkpt lat="44.6587134" lon="9.5984209"><ele>760.0</ele><time>2026-04-04T12:56:47.946Z</time></trkpt><trkpt lat="44.6587249" lon="9.5982325"><ele>769.0</ele><time>2026-04-04T12:56:48.957Z</time></trkpt><trkpt lat="44.6587399" lon="9.598056"><ele>769.0</ele><time>2026-04-04T12:56:49.983Z</time></trkpt><trkpt lat="44.6587734" lon="9.5978852"><ele>769.0</ele><time>2026-04-04T12:56:50.951Z</time></trkpt><trkpt lat="44.658835" lon="9.5977183"><ele>769.0</ele><time>2026-04-04T12:56:51.962Z</time></trkpt><trkpt lat="44.6589108" lon="9.5975437"><ele>769.0</ele><time>2026-04-04T12:56:52.964Z</time></trkpt><trkpt lat="44.6589681" lon="9.5973494"><ele>765.75</ele><time>2026-04-04T12:56:53.964Z</time></trkpt><trkpt lat="44.6590176" lon="9.5971702"><ele>762.5</ele><time>2026-04-04T12:56:54.961Z</time></trkpt><trkpt lat="44.659091" lon="9.5970324"><ele>759.25</ele><time>2026-04-04T12:56:55.944Z</time></trkpt><trkpt lat="44.6591953" lon="9.5969427"><ele>756.0</ele><time>2026-04-04T12:56:56.953Z</time></trkpt><trkpt lat="44.6593205" lon="9.5968827"><ele>752.75</ele><time>2026-04-04T12:56:57.933Z</time></trkpt><trkpt lat="44.6594429" lon="9.596812"><ele>749.5</ele><time>2026-04-04T12:56:58.969Z</time></trkpt><trkpt lat="44.6595552" lon="9.5967558"><ele>746.25</ele><time>2026-04-04T12:56:59.972Z</time></trkpt><trkpt lat="44.6596747" lon="9.5967221"><ele>743.0</ele><time>2026-04-04T12:57:00.964Z</time></trkpt><trkpt lat="44.6597945" lon="9.5967398"><ele>743.0</ele><time>2026-04-04T12:57:01.946Z</time></trkpt><trkpt lat="44.6598961" lon="9.5967857"><ele>743.0</ele><time>2026-04-04T12:57:02.949Z</time></trkpt><trkpt lat="44.6600049" lon="9.5968912"><ele>743.0</ele><time>2026-04-04T12:57:03.977Z</time></trkpt><trkpt lat="44.6601243" lon="9.5970278"><ele>743.0</ele><time>2026-04-04T12:57:04.94Z</time></trkpt><trkpt lat="44.6602508" lon="9.5971585"><ele>745.6666666666666</ele><time>2026-04-04T12:57:05.91Z</time></trkpt><trkpt lat="44.6603789" lon="9.5972863"><ele>748.3333333333334</ele><time>2026-04-04T12:57:06.924Z</time></trkpt><trkpt lat="44.6605086" lon="9.5974267"><ele>751.0</ele><time>2026-04-04T12:57:07.973Z</time></trkpt><trkpt lat="44.660637" lon="9.5975727"><ele>751.0</ele><time>2026-04-04T12:57:08.957Z</time></trkpt><trkpt lat="44.6607673" lon="9.5977078"><ele>751.0</ele><time>2026-04-04T12:57:09.96Z</time></trkpt><trkpt lat="44.6608948" lon="9.5978379"><ele>751.0</ele><time>2026-04-04T12:57:10.947Z</time></trkpt><trkpt lat="44.6610144" lon="9.5979651"><ele>750.75</ele><time>2026-04-04T12:57:11.966Z</time></trkpt><trkpt lat="44.6611204" lon="9.5981026"><ele>750.5</ele><time>2026-04-04T12:57:12.923Z</time></trkpt><trkpt lat="44.6612179" lon="9.5982633"><ele>750.25</ele><time>2026-04-04T12:57:13.902Z</time></trkpt><trkpt lat="44.6613136" lon="9.5984345"><ele>750.0</ele><time>2026-04-04T12:57:14.934Z</time></trkpt><trkpt lat="44.66142" lon="9.5986129"><ele>752.6666666666666</ele><time>2026-04-04T12:57:15.908Z</time></trkpt><trkpt lat="44.6615318" lon="9.5987996"><ele>755.3333333333333</ele><time>2026-04-04T12:57:16.899Z</time></trkpt><trkpt lat="44.6616496" lon="9.5989893"><ele>758.0</ele><time>2026-04-04T12:57:17.929Z</time></trkpt><trkpt lat="44.6617612" lon="9.599184"><ele>758.0</ele><time>2026-04-04T12:57:18.947Z</time></trkpt><trkpt lat="44.6618743" lon="9.5993791"><ele>758.0</ele><time>2026-04-04T12:57:19.93Z</time></trkpt><trkpt lat="44.6619902" lon="9.5995769"><ele>758.0</ele><time>2026-04-04T12:57:20.958Z</time></trkpt><trkpt lat="44.6621051" lon="9.5997736"><ele>757.6666666666666</ele><time>2026-04-04T12:57:21.906Z</time></trkpt><trkpt lat="44.6622144" lon="9.5999625"><ele>757.3333333333334</ele><time>2026-04-04T12:57:22.922Z</time></trkpt><trkpt lat="44.6623239" lon="9.600154"><ele>757.0</ele><time>2026-04-04T12:57:23.924Z</time></trkpt><trkpt lat="44.6624281" lon="9.6003368"><ele>760.3333333333334</ele><time>2026-04-04T12:57:24.957Z</time></trkpt><trkpt lat="44.6625349" lon="9.6005159"><ele>763.6666666666666</ele><time>2026-04-04T12:57:25.963Z</time></trkpt><trkpt lat="44.6626389" lon="9.6006958"><ele>767.0</ele><time>2026-04-04T12:57:26.915Z</time></trkpt><trkpt lat="44.6627406" lon="9.6008724"><ele>766.0</ele><time>2026-04-04T12:57:27.957Z</time></trkpt><trkpt lat="44.6628289" lon="9.6010302"><ele>765.0</ele><time>2026-04-04T12:57:28.964Z</time></trkpt><trkpt lat="44.6629152" lon="9.6011926"><ele>764.0</ele><time>2026-04-04T12:57:29.968Z</time></trkpt><trkpt lat="44.662992" lon="9.6013445"><ele>763.0</ele><time>2026-04-04T12:57:30.937Z</time></trkpt><trkpt lat="44.6630468" lon="9.6015071"><ele>763.0</ele><time>2026-04-04T12:57:31.938Z</time></trkpt><trkpt lat="44.6630808" lon="9.6016998"><ele>763.0</ele><time>2026-04-04T12:57:32.947Z</time></trkpt><trkpt lat="44.6630834" lon="9.6019195"><ele>763.0</ele><time>2026-04-04T12:57:33.934Z</time></trkpt><trkpt lat="44.6630678" lon="9.6021494"><ele>763.3333333333334</ele><time>2026-04-04T12:57:34.922Z</time></trkpt><trkpt lat="44.6630534" lon="9.6023991"><ele>763.6666666666666</ele><time>2026-04-04T12:57:35.913Z</time></trkpt><trkpt lat="44.6630431" lon="9.6026457"><ele>764.0</ele><time>2026-04-04T12:57:36.932Z</time></trkpt><trkpt lat="44.6630353" lon="9.6028998"><ele>764.0</ele><time>2026-04-04T12:57:37.965Z</time></trkpt><trkpt lat="44.6630254" lon="9.6031617"><ele>764.0</ele><time>2026-04-04T12:57:38.909Z</time></trkpt><trkpt lat="44.6630131" lon="9.6034263"><ele>764.0</ele><time>2026-04-04T12:57:39.912Z</time></trkpt><trkpt lat="44.6629908" lon="9.6036922"><ele>764.0</ele><time>2026-04-04T12:57:40.965Z</time></trkpt><trkpt lat="44.6629818" lon="9.6039605"><ele>764.0</ele><time>2026-04-04T12:57:41.935Z</time></trkpt><trkpt lat="44.6629804" lon="9.6042235"><ele>764.0</ele><time>2026-04-04T12:57:42.96Z</time></trkpt><trkpt lat="44.6629771" lon="9.6044718"><ele>765.0</ele><time>2026-04-04T12:57:43.926Z</time></trkpt><trkpt lat="44.6629778" lon="9.604717"><ele>766.0</ele><time>2026-04-04T12:57:44.952Z</time></trkpt><trkpt lat="44.6629785" lon="9.6049499"><ele>767.0</ele><time>2026-04-04T12:57:45.936Z</time></trkpt><trkpt lat="44.662987" lon="9.6051522"><ele>767.0</ele><time>2026-04-04T12:57:46.953Z</time></trkpt><trkpt lat="44.663014" lon="9.6053159"><ele>767.0</ele><time>2026-04-04T12:57:47.966Z</time></trkpt><trkpt lat="44.6630483" lon="9.605448"><ele>767.0</ele><time>2026-04-04T12:57:48.962Z</time></trkpt><trkpt lat="44.6631151" lon="9.6055542"><ele>767.0</ele><time>2026-04-04T12:57:49.94Z</time></trkpt><trkpt lat="44.6632262" lon="9.6056316"><ele>767.0</ele><time>2026-04-04T12:57:50.991Z</time></trkpt><trkpt lat="44.6633658" lon="9.6056824"><ele>765.25</ele><time>2026-04-04T12:57:51.956Z</time></trkpt><trkpt lat="44.6635096" lon="9.6057364"><ele>763.5</ele><time>2026-04-04T12:57:52.968Z</time></trkpt><trkpt lat="44.6636377" lon="9.6057951"><ele>761.75</ele><time>2026-04-04T12:57:53.956Z</time></trkpt><trkpt lat="44.6637503" lon="9.6058855"><ele>760.0</ele><time>2026-04-04T12:57:54.951Z</time></trkpt><trkpt lat="44.6638382" lon="9.6060037"><ele>760.0</ele><time>2026-04-04T12:57:55.94Z</time></trkpt><trkpt lat="44.6639066" lon="9.6061458"><ele>760.0</ele><time>2026-04-04T12:57:56.959Z</time></trkpt><trkpt lat="44.6639278" lon="9.6063624"><ele>760.0</ele><time>2026-04-04T12:57:57.989Z</time></trkpt><trkpt lat="44.6639369" lon="9.606617"><ele>761.75</ele><time>2026-04-04T12:57:58.982Z</time></trkpt><trkpt lat="44.6639501" lon="9.606854"><ele>763.5</ele><time>2026-04-04T12:57:59.972Z</time></trkpt><trkpt lat="44.6639698" lon="9.6070466"><ele>765.25</ele><time>2026-04-04T12:58:00.979Z</time></trkpt><trkpt lat="44.6640273" lon="9.6071788"><ele>767.0</ele><time>2026-04-04T12:58:01.961Z</time></trkpt><trkpt lat="44.664126" lon="9.6072538"><ele>768.0</ele><time>2026-04-04T12:58:02.959Z</time></trkpt><trkpt lat="44.664246" lon="9.6072772"><ele>769.0</ele><time>2026-04-04T12:58:03.961Z</time></trkpt><trkpt lat="44.6643921" lon="9.6072847"><ele>770.0</ele><time>2026-04-04T12:58:04.958Z</time></trkpt><trkpt lat="44.6645401" lon="9.6072666"><ele>771.0</ele><time>2026-04-04T12:58:05.978Z</time></trkpt><trkpt lat="44.6646688" lon="9.6072565"><ele>771.0</ele><time>2026-04-04T12:58:06.968Z</time></trkpt><trkpt lat="44.664785" lon="9.6072614"><ele>771.0</ele><time>2026-04-04T12:58:07.979Z</time></trkpt><trkpt lat="44.6649009" lon="9.6072907"><ele>771.0</ele><time>2026-04-04T12:58:08.947Z</time></trkpt><trkpt lat="44.6649965" lon="9.6074365"><ele>771.0</ele><time>2026-04-04T12:58:09.941Z</time></trkpt><trkpt lat="44.6650785" lon="9.6076309"><ele>771.0</ele><time>2026-04-04T12:58:10.939Z</time></trkpt><trkpt lat="44.665121" lon="9.6077984"><ele>771.0</ele><time>2026-04-04T12:58:11.962Z</time></trkpt><trkpt lat="44.6651223" lon="9.607963"><ele>771.0</ele><time>2026-04-04T12:58:12.962Z</time></trkpt><trkpt lat="44.6651021" lon="9.6081069"><ele>771.0</ele><time>2026-04-04T12:58:13.965Z</time></trkpt><trkpt lat="44.6650431" lon="9.6082629"><ele>773.5999999999999</ele><time>2026-04-04T12:58:14.975Z</time></trkpt><trkpt lat="44.6649834" lon="9.6084116"><ele>776.2</ele><time>2026-04-04T12:58:15.928Z</time></trkpt><trkpt lat="44.6649318" lon="9.6085454"><ele>778.8</ele><time>2026-04-04T12:58:16.97Z</time></trkpt><trkpt lat="44.6648977" lon="9.6086602"><ele>781.4000000000001</ele><time>2026-04-04T12:58:17.969Z</time></trkpt><trkpt lat="44.6648911" lon="9.6087846"><ele>784.0</ele><time>2026-04-04T12:58:18.974Z</time></trkpt><trkpt lat="44.6649405" lon="9.608899"><ele>785.5</ele><time>2026-04-04T12:58:19.977Z</time></trkpt><trkpt lat="44.6650437" lon="9.6090184"><ele>787.0</ele><time>2026-04-04T12:58:20.963Z</time></trkpt><trkpt lat="44.6651646" lon="9.6091253"><ele>788.5</ele><time>2026-04-04T12:58:21.963Z</time></trkpt><trkpt lat="44.665277" lon="9.6092153"><ele>790.0</ele><time>2026-04-04T12:58:22.907Z</time></trkpt><trkpt lat="44.6653697" lon="9.6093099"><ele>785.4</ele><time>2026-04-04T12:58:23.915Z</time></trkpt><trkpt lat="44.6654342" lon="9.6094316"><ele>780.8</ele><time>2026-04-04T12:58:24.944Z</time></trkpt><trkpt lat="44.6654562" lon="9.6095859"><ele>776.2</ele><time>2026-04-04T12:58:25.969Z</time></trkpt><trkpt lat="44.6654712" lon="9.6097273"><ele>771.6</ele><time>2026-04-04T12:58:26.961Z</time></trkpt><trkpt lat="44.6654588" lon="9.6098955"><ele>767.0</ele><time>2026-04-04T12:58:27.976Z</time></trkpt><trkpt lat="44.6654001" lon="9.6100991"><ele>764.3333333333333</ele><time>2026-04-04T12:58:28.957Z</time></trkpt><trkpt lat="44.665312" lon="9.6103133"><ele>761.6666666666666</ele><time>2026-04-04T12:58:29.977Z</time></trkpt><trkpt lat="44.6652155" lon="9.6105303"><ele>759.0</ele><time>2026-04-04T12:58:30.977Z</time></trkpt><trkpt lat="44.6651222" lon="9.6107301"><ele>763.75</ele><time>2026-04-04T12:58:31.943Z</time></trkpt><trkpt lat="44.6650568" lon="9.610908"><ele>768.5</ele><time>2026-04-04T12:58:32.941Z</time></trkpt><trkpt lat="44.6649901" lon="9.6110551"><ele>773.25</ele><time>2026-04-04T12:58:33.98Z</time></trkpt><trkpt lat="44.6649105" lon="9.6111829"><ele>778.0</ele><time>2026-04-04T12:58:34.966Z</time></trkpt><trkpt lat="44.6648123" lon="9.6112879"><ele>778.0</ele><time>2026-04-04T12:58:35.964Z</time></trkpt><trkpt lat="44.6646866" lon="9.6113588"><ele>778.0</ele><time>2026-04-04T12:58:36.909Z</time></trkpt><trkpt lat="44.6645423" lon="9.6114153"><ele>778.0</ele><time>2026-04-04T12:58:37.903Z</time></trkpt><trkpt lat="44.6644028" lon="9.6114755"><ele>778.0</ele><time>2026-04-04T12:58:38.923Z</time></trkpt><trkpt lat="44.6642648" lon="9.6115405"><ele>785.3333333333333</ele><time>2026-04-04T12:58:39.938Z</time></trkpt><trkpt lat="44.6641305" lon="9.6116278"><ele>792.6666666666667</ele><time>2026-04-04T12:58:40.968Z</time></trkpt><trkpt lat="44.6639942" lon="9.6117549"><ele>800.0</ele><time>2026-04-04T12:58:41.94Z</time></trkpt><trkpt lat="44.6639042" lon="9.6119569"><ele>796.0</ele><time>2026-04-04T12:58:42.975Z</time></trkpt><trkpt lat="44.6638095" lon="9.6121926"><ele>792.0</ele><time>2026-04-04T12:58:43.963Z</time></trkpt><trkpt lat="44.6637399" lon="9.6123959"><ele>788.0</ele><time>2026-04-04T12:58:44.964Z</time></trkpt><trkpt lat="44.6636985" lon="9.6126015"><ele>788.0</ele><time>2026-04-04T12:58:45.97Z</time></trkpt><trkpt lat="44.6636699" lon="9.6128169"><ele>788.0</ele><time>2026-04-04T12:58:46.97Z</time></trkpt><trkpt lat="44.6636636" lon="9.6130352"><ele>788.0</ele><time>2026-04-04T12:58:47.957Z</time></trkpt><trkpt lat="44.6636396" lon="9.6132583"><ele>798.0</ele><time>2026-04-04T12:58:48.951Z</time></trkpt><trkpt lat="44.6636071" lon="9.6134725"><ele>808.0</ele><time>2026-04-04T12:58:49.958Z</time></trkpt><trkpt lat="44.6635655" lon="9.6136764"><ele>818.0</ele><time>2026-04-04T12:58:50.977Z</time></trkpt><trkpt lat="44.6635298" lon="9.613876"><ele>818.0</ele><time>2026-04-04T12:58:51.912Z</time></trkpt><trkpt lat="44.6635292" lon="9.614039"><ele>818.0</ele><time>2026-04-04T12:58:52.89Z</time></trkpt><trkpt lat="44.6635618" lon="9.6142028"><ele>818.0</ele><time>2026-04-04T12:58:53.956Z</time></trkpt><trkpt lat="44.6636387" lon="9.6143508"><ele>818.0</ele><time>2026-04-04T12:58:54.962Z</time></trkpt><trkpt lat="44.663765" lon="9.6144924"><ele>810.3333333333334</ele><time>2026-04-04T12:58:55.963Z</time></trkpt><trkpt lat="44.6639019" lon="9.6146563"><ele>802.6666666666667</ele><time>2026-04-04T12:58:56.908Z</time></trkpt><trkpt lat="44.6640499" lon="9.6148203"><ele>795.0</ele><time>2026-04-04T12:58:57.954Z</time></trkpt><trkpt lat="44.6641989" lon="9.6149874"><ele>795.0</ele><time>2026-04-04T12:58:58.93Z</time></trkpt><trkpt lat="44.6643513" lon="9.6151409"><ele>795.0</ele><time>2026-04-04T12:58:59.964Z</time></trkpt><trkpt lat="44.6644766" lon="9.6152862"><ele>795.0</ele><time>2026-04-04T12:59:00.934Z</time></trkpt><trkpt lat="44.6645875" lon="9.6154274"><ele>793.6666666666667</ele><time>2026-04-04T12:59:01.96Z</time></trkpt><trkpt lat="44.6646856" lon="9.6155876"><ele>792.3333333333334</ele><time>2026-04-04T12:59:02.956Z</time></trkpt><trkpt lat="44.6647798" lon="9.6157754"><ele>791.0</ele><time>2026-04-04T12:59:03.953Z</time></trkpt><trkpt lat="44.6648633" lon="9.6159679"><ele>791.0</ele><time>2026-04-04T12:59:04.972Z</time></trkpt><trkpt lat="44.6649544" lon="9.6161337"><ele>791.0</ele><time>2026-04-04T12:59:05.971Z</time></trkpt><trkpt lat="44.665032" lon="9.6162893"><ele>791.0</ele><time>2026-04-04T12:59:06.95Z</time></trkpt><trkpt lat="44.6651032" lon="9.6164364"><ele>791.0</ele><time>2026-04-04T12:59:07.967Z</time></trkpt><trkpt lat="44.6651577" lon="9.6166171"><ele>793.6666666666667</ele><time>2026-04-04T12:59:08.971Z</time></trkpt><trkpt lat="44.6651948" lon="9.6168227"><ele>796.3333333333333</ele><time>2026-04-04T12:59:09.969Z</time></trkpt><trkpt lat="44.6652186" lon="9.6170389"><ele>799.0</ele><time>2026-04-04T12:59:10.975Z</time></trkpt><trkpt lat="44.6652407" lon="9.6172459"><ele>800.25</ele><time>2026-04-04T12:59:11.931Z</time></trkpt><trkpt lat="44.6652751" lon="9.6174166"><ele>801.5</ele><time>2026-04-04T12:59:12.941Z</time></trkpt><trkpt lat="44.6653332" lon="9.6175316"><ele>802.75</ele><time>2026-04-04T12:59:13.96Z</time></trkpt><trkpt lat="44.665445" lon="9.6176311"><ele>804.0</ele><time>2026-04-04T12:59:14.966Z</time></trkpt><trkpt lat="44.6655805" lon="9.6177178"><ele>802.0</ele><time>2026-04-04T12:59:15.965Z</time></trkpt><trkpt lat="44.6657048" lon="9.6177972"><ele>800.0</ele><time>2026-04-04T12:59:16.965Z</time></trkpt><trkpt lat="44.6658228" lon="9.6178762"><ele>798.0</ele><time>2026-04-04T12:59:17.958Z</time></trkpt><trkpt lat="44.6659251" lon="9.6179725"><ele>796.0</ele><time>2026-04-04T12:59:18.98Z</time></trkpt><trkpt lat="44.6660157" lon="9.6180818"><ele>796.0</ele><time>2026-04-04T12:59:19.98Z</time></trkpt><trkpt lat="44.6661006" lon="9.6182141"><ele>796.0</ele><time>2026-04-04T12:59:20.982Z</time></trkpt><trkpt lat="44.6661839" lon="9.6183538"><ele>796.0</ele><time>2026-04-04T12:59:21.976Z</time></trkpt><trkpt lat="44.6662848" lon="9.6184807"><ele>796.0</ele><time>2026-04-04T12:59:22.98Z</time></trkpt><trkpt lat="44.6663919" lon="9.6186021"><ele>796.5</ele><time>2026-04-04T12:59:23.911Z</time></trkpt><trkpt lat="44.6665066" lon="9.6187151"><ele>797.0</ele><time>2026-04-04T12:59:24.971Z</time></trkpt><trkpt lat="44.6666329" lon="9.618821"><ele>797.5</ele><time>2026-04-04T12:59:25.968Z</time></trkpt><trkpt lat="44.6667721" lon="9.6189132"><ele>798.0</ele><time>2026-04-04T12:59:26.963Z</time></trkpt><trkpt lat="44.6669223" lon="9.618985"><ele>797.3333333333333</ele><time>2026-04-04T12:59:27.977Z</time></trkpt><trkpt lat="44.6670685" lon="9.619038"><ele>796.6666666666666</ele><time>2026-04-04T12:59:28.971Z</time></trkpt><trkpt lat="44.6672191" lon="9.6190727"><ele>796.0</ele><time>2026-04-04T12:59:29.983Z</time></trkpt><trkpt lat="44.6673855" lon="9.6190935"><ele>796.0</ele><time>2026-04-04T12:59:30.967Z</time></trkpt><trkpt lat="44.6675679" lon="9.6191027"><ele>796.0</ele><time>2026-04-04T12:59:31.945Z</time></trkpt><trkpt lat="44.6677457" lon="9.619117"><ele>796.0</ele><time>2026-04-04T12:59:32.969Z</time></trkpt><trkpt lat="44.6679095" lon="9.6191171"><ele>796.3333333333333</ele><time>2026-04-04T12:59:33.969Z</time></trkpt><trkpt lat="44.6680655" lon="9.6190878"><ele>796.6666666666667</ele><time>2026-04-04T12:59:34.98Z</time></trkpt><trkpt lat="44.6682191" lon="9.6190342"><ele>797.0</ele><time>2026-04-04T12:59:35.964Z</time></trkpt><trkpt lat="44.6683664" lon="9.6189697"><ele>797.0</ele><time>2026-04-04T12:59:36.943Z</time></trkpt><trkpt lat="44.6685205" lon="9.6189243"><ele>797.0</ele><time>2026-04-04T12:59:37.968Z</time></trkpt><trkpt lat="44.6686894" lon="9.6189045"><ele>797.0</ele><time>2026-04-04T12:59:38.962Z</time></trkpt><trkpt lat="44.6688554" lon="9.6189038"><ele>797.6666666666667</ele><time>2026-04-04T12:59:39.969Z</time></trkpt><trkpt lat="44.6690253" lon="9.6189134"><ele>798.3333333333333</ele><time>2026-04-04T12:59:40.971Z</time></trkpt><trkpt lat="44.6691895" lon="9.6189253"><ele>799.0</ele><time>2026-04-04T12:59:41.916Z</time></trkpt><trkpt lat="44.6693482" lon="9.6189451"><ele>794.0</ele><time>2026-04-04T12:59:42.927Z</time></trkpt><trkpt lat="44.6695091" lon="9.6189687"><ele>789.0</ele><time>2026-04-04T12:59:43.957Z</time></trkpt><trkpt lat="44.6696687" lon="9.619013"><ele>784.0</ele><time>2026-04-04T12:59:44.984Z</time></trkpt><trkpt lat="44.6698228" lon="9.6190759"><ele>784.0</ele><time>2026-04-04T12:59:45.954Z</time></trkpt><trkpt lat="44.6699656" lon="9.6191509"><ele>784.0</ele><time>2026-04-04T12:59:46.968Z</time></trkpt><trkpt lat="44.670102" lon="9.6192575"><ele>784.0</ele><time>2026-04-04T12:59:47.981Z</time></trkpt><trkpt lat="44.6702198" lon="9.6194087"><ele>783.6666666666666</ele><time>2026-04-04T12:59:48.977Z</time></trkpt><trkpt lat="44.6703282" lon="9.6196007"><ele>783.3333333333333</ele><time>2026-04-04T12:59:49.969Z</time></trkpt><trkpt lat="44.6704285" lon="9.6198247"><ele>783.0</ele><time>2026-04-04T12:59:50.979Z</time></trkpt><trkpt lat="44.6705125" lon="9.6200739"><ele>783.0</ele><time>2026-04-04T12:59:51.957Z</time></trkpt><trkpt lat="44.6705894" lon="9.6203163"><ele>783.0</ele><time>2026-04-04T12:59:52.973Z</time></trkpt><trkpt lat="44.6706679" lon="9.6205535"><ele>783.0</ele><time>2026-04-04T12:59:53.968Z</time></trkpt><trkpt lat="44.670753" lon="9.6207841"><ele>783.6666666666667</ele><time>2026-04-04T12:59:54.976Z</time></trkpt><trkpt lat="44.6708304" lon="9.6210222"><ele>784.3333333333334</ele><time>2026-04-04T12:59:55.951Z</time></trkpt><trkpt lat="44.6709086" lon="9.6212556"><ele>785.0</ele><time>2026-04-04T12:59:56.986Z</time></trkpt><trkpt lat="44.670974" lon="9.6214794"><ele>785.0</ele><time>2026-04-04T12:59:57.955Z</time></trkpt><trkpt lat="44.6710248" lon="9.6216822"><ele>785.0</ele><time>2026-04-04T12:59:58.953Z</time></trkpt><trkpt lat="44.6710647" lon="9.6218516"><ele>785.0</ele><time>2026-04-04T12:59:59.985Z</time></trkpt><trkpt lat="44.6710752" lon="9.6219958"><ele>785.0</ele><time>2026-04-04T13:00:00.979Z</time></trkpt><trkpt lat="44.6710633" lon="9.6221325"><ele>785.0</ele><time>2026-04-04T13:00:02.002Z</time></trkpt><trkpt lat="44.6710268" lon="9.6222593"><ele>785.0</ele><time>2026-04-04T13:00:02.982Z</time></trkpt><trkpt lat="44.6709784" lon="9.6223568"><ele>785.0</ele><time>2026-04-04T13:00:03.959Z</time></trkpt><trkpt lat="44.670923" lon="9.6224515"><ele>785.0</ele><time>2026-04-04T13:00:04.976Z</time></trkpt><trkpt lat="44.6708537" lon="9.6225442"><ele>785.0</ele><time>2026-04-04T13:00:05.971Z</time></trkpt><trkpt lat="44.6707723" lon="9.6226677"><ele>785.0</ele><time>2026-04-04T13:00:06.978Z</time></trkpt><trkpt lat="44.6707063" lon="9.6227989"><ele>785.0</ele><time>2026-04-04T13:00:07.994Z</time></trkpt><trkpt lat="44.6706884" lon="9.6229784"><ele>785.0</ele><time>2026-04-04T13:00:08.965Z</time></trkpt><trkpt lat="44.6707176" lon="9.6232"><ele>785.0</ele><time>2026-04-04T13:00:09.963Z</time></trkpt><trkpt lat="44.6707503" lon="9.6234298"><ele>784.0</ele><time>2026-04-04T13:00:10.956Z</time></trkpt><trkpt lat="44.6707714" lon="9.6236696"><ele>783.0</ele><time>2026-04-04T13:00:11.996Z</time></trkpt><trkpt lat="44.6707851" lon="9.6239041"><ele>782.0</ele><time>2026-04-04T13:00:12.981Z</time></trkpt><trkpt lat="44.6708034" lon="9.624125"><ele>782.0</ele><time>2026-04-04T13:00:13.977Z</time></trkpt><trkpt lat="44.670819" lon="9.6243548"><ele>782.0</ele><time>2026-04-04T13:00:14.969Z</time></trkpt><trkpt lat="44.6708512" lon="9.6245884"><ele>782.0</ele><time>2026-04-04T13:00:15.961Z</time></trkpt><trkpt lat="44.6708889" lon="9.6248083"><ele>784.6666666666667</ele><time>2026-04-04T13:00:16.959Z</time></trkpt><trkpt lat="44.6709273" lon="9.6250213"><ele>787.3333333333333</ele><time>2026-04-04T13:00:17.946Z</time></trkpt><trkpt lat="44.6709779" lon="9.6252248"><ele>790.0</ele><time>2026-04-04T13:00:18.971Z</time></trkpt><trkpt lat="44.6710313" lon="9.6254362"><ele>792.3333333333333</ele><time>2026-04-04T13:00:19.959Z</time></trkpt><trkpt lat="44.6710879" lon="9.6256415"><ele>794.6666666666667</ele><time>2026-04-04T13:00:20.932Z</time></trkpt><trkpt lat="44.6711423" lon="9.6258456"><ele>797.0</ele><time>2026-04-04T13:00:21.964Z</time></trkpt><trkpt lat="44.6711917" lon="9.6260428"><ele>792.75</ele><time>2026-04-04T13:00:22.967Z</time></trkpt><trkpt lat="44.6712306" lon="9.626235"><ele>788.5</ele><time>2026-04-04T13:00:23.967Z</time></trkpt><trkpt lat="44.6712435" lon="9.6264311"><ele>784.25</ele><time>2026-04-04T13:00:24.973Z</time></trkpt><trkpt lat="44.6712387" lon="9.6266215"><ele>780.0</ele><time>2026-04-04T13:00:25.949Z</time></trkpt><trkpt lat="44.671227" lon="9.6267901"><ele>780.0</ele><time>2026-04-04T13:00:26.946Z</time></trkpt><trkpt lat="44.6712439" lon="9.6269422"><ele>780.0</ele><time>2026-04-04T13:00:27.959Z</time></trkpt><trkpt lat="44.6713064" lon="9.6270499"><ele>780.0</ele><time>2026-04-04T13:00:28.959Z</time></trkpt><trkpt lat="44.6713904" lon="9.627166"><ele>780.0</ele><time>2026-04-04T13:00:29.952Z</time></trkpt><trkpt lat="44.6714989" lon="9.6272709"><ele>784.3333333333333</ele><time>2026-04-04T13:00:30.932Z</time></trkpt><trkpt lat="44.6716278" lon="9.6273837"><ele>788.6666666666666</ele><time>2026-04-04T13:00:31.969Z</time></trkpt><trkpt lat="44.6717609" lon="9.6275014"><ele>793.0</ele><time>2026-04-04T13:00:32.975Z</time></trkpt><trkpt lat="44.6718969" lon="9.6276216"><ele>794.0</ele><time>2026-04-04T13:00:33.98Z</time></trkpt><trkpt lat="44.6720271" lon="9.62777"><ele>795.0</ele><time>2026-04-04T13:00:34.921Z</time></trkpt><trkpt lat="44.6721481" lon="9.6279475"><ele>796.0</ele><time>2026-04-04T13:00:35.959Z</time></trkpt><trkpt lat="44.6722585" lon="9.6281342"><ele>796.0</ele><time>2026-04-04T13:00:36.937Z</time></trkpt><trkpt lat="44.6723628" lon="9.6283234"><ele>796.0</ele><time>2026-04-04T13:00:37.962Z</time></trkpt><trkpt lat="44.6724596" lon="9.6285011"><ele>796.0</ele><time>2026-04-04T13:00:38.953Z</time></trkpt><trkpt lat="44.6725444" lon="9.6286732"><ele>798.0</ele><time>2026-04-04T13:00:39.955Z</time></trkpt><trkpt lat="44.6726077" lon="9.6288673"><ele>800.0</ele><time>2026-04-04T13:00:40.983Z</time></trkpt><trkpt lat="44.6726466" lon="9.6290781"><ele>802.0</ele><time>2026-04-04T13:00:41.955Z</time></trkpt><trkpt lat="44.6726522" lon="9.6293174"><ele>802.3333333333333</ele><time>2026-04-04T13:00:42.971Z</time></trkpt><trkpt lat="44.6726637" lon="9.6295841"><ele>802.6666666666667</ele><time>2026-04-04T13:00:43.967Z</time></trkpt><trkpt lat="44.6726809" lon="9.6298652"><ele>803.0</ele><time>2026-04-04T13:00:44.977Z</time></trkpt><trkpt lat="44.6727007" lon="9.6301377"><ele>803.6666666666667</ele><time>2026-04-04T13:00:45.928Z</time></trkpt><trkpt lat="44.6727272" lon="9.6303975"><ele>804.3333333333333</ele><time>2026-04-04T13:00:46.958Z</time></trkpt><trkpt lat="44.6727386" lon="9.630643"><ele>805.0</ele><time>2026-04-04T13:00:47.924Z</time></trkpt><trkpt lat="44.6727429" lon="9.6308725"><ele>805.0</ele><time>2026-04-04T13:00:48.958Z</time></trkpt><trkpt lat="44.6727358" lon="9.6310946"><ele>805.0</ele><time>2026-04-04T13:00:49.97Z</time></trkpt><trkpt lat="44.6727207" lon="9.6313052"><ele>805.0</ele><time>2026-04-04T13:00:50.957Z</time></trkpt><trkpt lat="44.6727042" lon="9.6315195"><ele>806.3333333333333</ele><time>2026-04-04T13:00:51.967Z</time></trkpt><trkpt lat="44.6726751" lon="9.631734"><ele>807.6666666666667</ele><time>2026-04-04T13:00:52.977Z</time></trkpt><trkpt lat="44.6726463" lon="9.6319437"><ele>809.0</ele><time>2026-04-04T13:00:53.981Z</time></trkpt><trkpt lat="44.6726146" lon="9.6321396"><ele>809.0</ele><time>2026-04-04T13:00:54.967Z</time></trkpt><trkpt lat="44.6725694" lon="9.6323166"><ele>809.0</ele><time>2026-04-04T13:00:55.962Z</time></trkpt><trkpt lat="44.6725089" lon="9.632482"><ele>809.0</ele><time>2026-04-04T13:00:56.924Z</time></trkpt><trkpt lat="44.6724083" lon="9.6326527"><ele>809.0</ele><time>2026-04-04T13:00:57.969Z</time></trkpt><trkpt lat="44.6722885" lon="9.632828"><ele>807.3333333333334</ele><time>2026-04-04T13:00:58.961Z</time></trkpt><trkpt lat="44.6721503" lon="9.6330072"><ele>805.6666666666667</ele><time>2026-04-04T13:00:59.969Z</time></trkpt><trkpt lat="44.6720293" lon="9.6332061"><ele>804.0</ele><time>2026-04-04T13:01:00.983Z</time></trkpt><trkpt lat="44.6719204" lon="9.6334179"><ele>808.0</ele><time>2026-04-04T13:01:01.958Z</time></trkpt><trkpt lat="44.6718231" lon="9.6336418"><ele>812.0</ele><time>2026-04-04T13:01:02.978Z</time></trkpt><trkpt lat="44.6717293" lon="9.6338604"><ele>816.0</ele><time>2026-04-04T13:01:03.946Z</time></trkpt><trkpt lat="44.6716392" lon="9.6340774"><ele>816.0</ele><time>2026-04-04T13:01:04.977Z</time></trkpt><trkpt lat="44.6715464" lon="9.6342921"><ele>816.0</ele><time>2026-04-04T13:01:05.979Z</time></trkpt><trkpt lat="44.6714436" lon="9.6345102"><ele>816.0</ele><time>2026-04-04T13:01:06.988Z</time></trkpt><trkpt lat="44.6713371" lon="9.6347171"><ele>816.5</ele><time>2026-04-04T13:01:07.921Z</time></trkpt><trkpt lat="44.6712388" lon="9.6349037"><ele>817.0</ele><time>2026-04-04T13:01:08.95Z</time></trkpt><trkpt lat="44.6711516" lon="9.6350662"><ele>817.5</ele><time>2026-04-04T13:01:09.984Z</time></trkpt><trkpt lat="44.6710852" lon="9.635218"><ele>818.0</ele><time>2026-04-04T13:01:10.932Z</time></trkpt><trkpt lat="44.6710362" lon="9.6353641"><ele>819.0</ele><time>2026-04-04T13:01:11.974Z</time></trkpt><trkpt lat="44.6710206" lon="9.6354923"><ele>820.0</ele><time>2026-04-04T13:01:12.971Z</time></trkpt><trkpt lat="44.6710621" lon="9.6356501"><ele>821.0</ele><time>2026-04-04T13:01:13.985Z</time></trkpt><trkpt lat="44.6711485" lon="9.6358126"><ele>822.0</ele><time>2026-04-04T13:01:14.95Z</time></trkpt><trkpt lat="44.6712508" lon="9.6360016"><ele>823.3333333333333</ele><time>2026-04-04T13:01:15.921Z</time></trkpt><trkpt lat="44.6713319" lon="9.6361825"><ele>824.6666666666666</ele><time>2026-04-04T13:01:16.916Z</time></trkpt><trkpt lat="44.6714102" lon="9.6363629"><ele>826.0</ele><time>2026-04-04T13:01:17.956Z</time></trkpt><trkpt lat="44.6714658" lon="9.6365652"><ele>826.0</ele><time>2026-04-04T13:01:18.964Z</time></trkpt><trkpt lat="44.6714747" lon="9.6367666"><ele>826.0</ele><time>2026-04-04T13:01:19.946Z</time></trkpt><trkpt lat="44.6714531" lon="9.6369833"><ele>826.0</ele><time>2026-04-04T13:01:20.916Z</time></trkpt><trkpt lat="44.6714383" lon="9.6372218"><ele>826.3333333333333</ele><time>2026-04-04T13:01:21.942Z</time></trkpt><trkpt lat="44.6714144" lon="9.6374543"><ele>826.6666666666667</ele><time>2026-04-04T13:01:22.956Z</time></trkpt><trkpt lat="44.6713872" lon="9.6376741"><ele>827.0</ele><time>2026-04-04T13:01:23.95Z</time></trkpt><trkpt lat="44.6713389" lon="9.6378842"><ele>827.0</ele><time>2026-04-04T13:01:24.97Z</time></trkpt><trkpt lat="44.6712694" lon="9.6380761"><ele>827.0</ele><time>2026-04-04T13:01:25.952Z</time></trkpt><trkpt lat="44.671197" lon="9.6382733"><ele>827.0</ele><time>2026-04-04T13:01:26.962Z</time></trkpt><trkpt lat="44.6711479" lon="9.638478"><ele>828.0</ele><time>2026-04-04T13:01:27.973Z</time></trkpt><trkpt lat="44.6711401" lon="9.638696"><ele>829.0</ele><time>2026-04-04T13:01:28.967Z</time></trkpt><trkpt lat="44.6711579" lon="9.6389277"><ele>830.0</ele><time>2026-04-04T13:01:29.919Z</time></trkpt><trkpt lat="44.6711836" lon="9.6391622"><ele>830.0</ele><time>2026-04-04T13:01:30.975Z</time></trkpt><trkpt lat="44.6712161" lon="9.6393958"><ele>830.0</ele><time>2026-04-04T13:01:31.979Z</time></trkpt><trkpt lat="44.6712436" lon="9.6396139"><ele>830.0</ele><time>2026-04-04T13:01:32.971Z</time></trkpt><trkpt lat="44.6712453" lon="9.6397995"><ele>830.75</ele><time>2026-04-04T13:01:33.96Z</time></trkpt><trkpt lat="44.671248" lon="9.6399675"><ele>831.5</ele><time>2026-04-04T13:01:34.982Z</time></trkpt><trkpt lat="44.6712443" lon="9.6401295"><ele>832.25</ele><time>2026-04-04T13:01:35.956Z</time></trkpt><trkpt lat="44.6712292" lon="9.6402862"><ele>833.0</ele><time>2026-04-04T13:01:36.971Z</time></trkpt><trkpt lat="44.6711906" lon="9.6404652"><ele>834.3333333333334</ele><time>2026-04-04T13:01:37.993Z</time></trkpt><trkpt lat="44.6711382" lon="9.6406639"><ele>835.6666666666667</ele><time>2026-04-04T13:01:38.956Z</time></trkpt><trkpt lat="44.671084" lon="9.6408727"><ele>837.0</ele><time>2026-04-04T13:01:39.985Z</time></trkpt><trkpt lat="44.671023" lon="9.6411044"><ele>843.0</ele><time>2026-04-04T13:01:40.971Z</time></trkpt><trkpt lat="44.6709625" lon="9.6413109"><ele>849.0</ele><time>2026-04-04T13:01:41.944Z</time></trkpt><trkpt lat="44.6708849" lon="9.6415119"><ele>855.0</ele><time>2026-04-04T13:01:42.981Z</time></trkpt><trkpt lat="44.6708158" lon="9.6416809"><ele>855.0</ele><time>2026-04-04T13:01:43.941Z</time></trkpt><trkpt lat="44.6707406" lon="9.6418362"><ele>855.0</ele><time>2026-04-04T13:01:44.963Z</time></trkpt><trkpt lat="44.670686" lon="9.6419621"><ele>855.0</ele><time>2026-04-04T13:01:45.961Z</time></trkpt><trkpt lat="44.6706559" lon="9.6420772"><ele>855.0</ele><time>2026-04-04T13:01:46.947Z</time></trkpt><trkpt lat="44.6706517" lon="9.6422055"><ele>855.0</ele><time>2026-04-04T13:01:47.986Z</time></trkpt><trkpt lat="44.6707147" lon="9.6423153"><ele>854.5</ele><time>2026-04-04T13:01:48.913Z</time></trkpt><trkpt lat="44.6708216" lon="9.6424087"><ele>854.0</ele><time>2026-04-04T13:01:49.933Z</time></trkpt><trkpt lat="44.6709448" lon="9.6424987"><ele>853.5</ele><time>2026-04-04T13:01:50.973Z</time></trkpt><trkpt lat="44.6710779" lon="9.6425911"><ele>853.0</ele><time>2026-04-04T13:01:51.987Z</time></trkpt><trkpt lat="44.6712343" lon="9.6426933"><ele>857.6666666666666</ele><time>2026-04-04T13:01:52.966Z</time></trkpt><trkpt lat="44.6714076" lon="9.6428048"><ele>862.3333333333333</ele><time>2026-04-04T13:01:53.97Z</time></trkpt><trkpt lat="44.6715842" lon="9.6429251"><ele>867.0</ele><time>2026-04-04T13:01:54.963Z</time></trkpt><trkpt lat="44.6717407" lon="9.6430383"><ele>867.0</ele><time>2026-04-04T13:01:55.964Z</time></trkpt><trkpt lat="44.6718901" lon="9.6431343"><ele>867.0</ele><time>2026-04-04T13:01:56.965Z</time></trkpt><trkpt lat="44.6720292" lon="9.6432423"><ele>867.0</ele><time>2026-04-04T13:01:57.979Z</time></trkpt><trkpt lat="44.672159" lon="9.6433606"><ele>867.0</ele><time>2026-04-04T13:01:58.924Z</time></trkpt><trkpt lat="44.6722793" lon="9.643517"><ele>867.0</ele><time>2026-04-04T13:01:59.971Z</time></trkpt><trkpt lat="44.6723769" lon="9.6437137"><ele>867.0</ele><time>2026-04-04T13:02:00.98Z</time></trkpt><trkpt lat="44.6724671" lon="9.6439406"><ele>867.0</ele><time>2026-04-04T13:02:01.96Z</time></trkpt><trkpt lat="44.6725476" lon="9.6441835"><ele>867.0</ele><time>2026-04-04T13:02:02.948Z</time></trkpt><trkpt lat="44.6726011" lon="9.6444308"><ele>867.0</ele><time>2026-04-04T13:02:03.963Z</time></trkpt><trkpt lat="44.672639" lon="9.6446666"><ele>868.5</ele><time>2026-04-04T13:02:04.968Z</time></trkpt><trkpt lat="44.6726821" lon="9.6448785"><ele>870.0</ele><time>2026-04-04T13:02:05.971Z</time></trkpt><trkpt lat="44.6727499" lon="9.6450589"><ele>871.5</ele><time>2026-04-04T13:02:06.95Z</time></trkpt><trkpt lat="44.67285" lon="9.6451927"><ele>873.0</ele><time>2026-04-04T13:02:07.973Z</time></trkpt><trkpt lat="44.672982" lon="9.6452963"><ele>876.3333333333333</ele><time>2026-04-04T13:02:08.973Z</time></trkpt><trkpt lat="44.6731395" lon="9.6453783"><ele>879.6666666666666</ele><time>2026-04-04T13:02:09.983Z</time></trkpt><trkpt lat="44.6733257" lon="9.6454371"><ele>883.0</ele><time>2026-04-04T13:02:10.96Z</time></trkpt><trkpt lat="44.6735221" lon="9.6455047"><ele>883.6666666666666</ele><time>2026-04-04T13:02:11.961Z</time></trkpt><trkpt lat="44.6737045" lon="9.6455878"><ele>884.3333333333333</ele><time>2026-04-04T13:02:12.99Z</time></trkpt><trkpt lat="44.6738779" lon="9.6456927"><ele>885.0</ele><time>2026-04-04T13:02:13.983Z</time></trkpt><trkpt lat="44.6740517" lon="9.645786"><ele>885.0</ele><time>2026-04-04T13:02:14.96Z</time></trkpt><trkpt lat="44.6742242" lon="9.6458653"><ele>885.0</ele><time>2026-04-04T13:02:15.959Z</time></trkpt><trkpt lat="44.6743983" lon="9.645911"><ele>885.0</ele><time>2026-04-04T13:02:16.958Z</time></trkpt><trkpt lat="44.6745815" lon="9.6459219"><ele>886.6666666666667</ele><time>2026-04-04T13:02:17.968Z</time></trkpt><trkpt lat="44.674742" lon="9.6459141"><ele>888.3333333333334</ele><time>2026-04-04T13:02:18.94Z</time></trkpt><trkpt lat="44.6748964" lon="9.6459025"><ele>890.0</ele><time>2026-04-04T13:02:19.966Z</time></trkpt><trkpt lat="44.6750535" lon="9.6459038"><ele>890.0</ele><time>2026-04-04T13:02:20.95Z</time></trkpt><trkpt lat="44.6752093" lon="9.6459033"><ele>890.0</ele><time>2026-04-04T13:02:21.971Z</time></trkpt><trkpt lat="44.6753691" lon="9.6459215"><ele>890.0</ele><time>2026-04-04T13:02:22.943Z</time></trkpt><trkpt lat="44.6755116" lon="9.6459617"><ele>890.75</ele><time>2026-04-04T13:02:23.961Z</time></trkpt><trkpt lat="44.6756355" lon="9.6460036"><ele>891.5</ele><time>2026-04-04T13:02:24.954Z</time></trkpt><trkpt lat="44.6757497" lon="9.6460364"><ele>892.25</ele><time>2026-04-04T13:02:25.931Z</time></trkpt><trkpt lat="44.6758688" lon="9.6460315"><ele>893.0</ele><time>2026-04-04T13:02:26.975Z</time></trkpt><trkpt lat="44.6759892" lon="9.6459715"><ele>894.5</ele><time>2026-04-04T13:02:27.94Z</time></trkpt><trkpt lat="44.67612" lon="9.6458903"><ele>896.0</ele><time>2026-04-04T13:02:28.964Z</time></trkpt><trkpt lat="44.6762307" lon="9.6458249"><ele>897.5</ele><time>2026-04-04T13:02:29.968Z</time></trkpt><trkpt lat="44.6763528" lon="9.6457846"><ele>899.0</ele><time>2026-04-04T13:02:30.965Z</time></trkpt><trkpt lat="44.6764751" lon="9.6457759"><ele>899.0</ele><time>2026-04-04T13:02:31.961Z</time></trkpt><trkpt lat="44.6766046" lon="9.6457788"><ele>899.0</ele><time>2026-04-04T13:02:32.975Z</time></trkpt><trkpt lat="44.6767393" lon="9.6457923"><ele>899.0</ele><time>2026-04-04T13:02:33.974Z</time></trkpt><trkpt lat="44.6768739" lon="9.6458043"><ele>899.0</ele><time>2026-04-04T13:02:34.96Z</time></trkpt><trkpt lat="44.6770008" lon="9.6458048"><ele>900.6666666666667</ele><time>2026-04-04T13:02:35.953Z</time></trkpt><trkpt lat="44.6771079" lon="9.645772"><ele>902.3333333333334</ele><time>2026-04-04T13:02:36.951Z</time></trkpt><trkpt lat="44.6771926" lon="9.6457172"><ele>904.0</ele><time>2026-04-04T13:02:37.949Z</time></trkpt><trkpt lat="44.6772569" lon="9.6456437"><ele>905.6666666666667</ele><time>2026-04-04T13:02:38.929Z</time></trkpt><trkpt lat="44.677302" lon="9.6455716"><ele>907.3333333333334</ele><time>2026-04-04T13:02:39.948Z</time></trkpt><trkpt lat="44.6773501" lon="9.6454951"><ele>909.0</ele><time>2026-04-04T13:02:40.951Z</time></trkpt><trkpt lat="44.6773981" lon="9.6453997"><ele>909.0</ele><time>2026-04-04T13:02:41.966Z</time></trkpt><trkpt lat="44.6774455" lon="9.6453082"><ele>909.0</ele><time>2026-04-04T13:02:42.946Z</time></trkpt><trkpt lat="44.6774932" lon="9.645228"><ele>909.0</ele><time>2026-04-04T13:02:43.981Z</time></trkpt><trkpt lat="44.6775506" lon="9.6451867"><ele>909.0</ele><time>2026-04-04T13:02:44.961Z</time></trkpt><trkpt lat="44.6776338" lon="9.6452538"><ele>909.0</ele><time>2026-04-04T13:02:46.956Z</time></trkpt><trkpt lat="44.6776552" lon="9.6453379"><ele>909.0</ele><time>2026-04-04T13:02:47.948Z</time></trkpt><trkpt lat="44.6776585" lon="9.6454674"><ele>909.0</ele><time>2026-04-04T13:02:48.95Z</time></trkpt><trkpt lat="44.6776314" lon="9.6456202"><ele>909.0000000000001</ele><time>2026-04-04T13:02:49.949Z</time></trkpt><trkpt lat="44.6776026" lon="9.6457664"><ele>909.0000000000001</ele><time>2026-04-04T13:02:50.943Z</time></trkpt><trkpt lat="44.6775763" lon="9.6459003"><ele>909.0</ele><time>2026-04-04T13:02:51.948Z</time></trkpt><trkpt lat="44.6775359" lon="9.6460153"><ele>909.0</ele><time>2026-04-04T13:02:52.95Z</time></trkpt><trkpt lat="44.6774807" lon="9.6461089"><ele>911.6</ele><time>2026-04-04T13:02:53.951Z</time></trkpt><trkpt lat="44.6773981" lon="9.6461781"><ele>914.2</ele><time>2026-04-04T13:02:54.955Z</time></trkpt><trkpt lat="44.6773108" lon="9.646231"><ele>916.8000000000001</ele><time>2026-04-04T13:02:55.962Z</time></trkpt><trkpt lat="44.6771978" lon="9.6462279"><ele>919.4000000000001</ele><time>2026-04-04T13:02:56.95Z</time></trkpt><trkpt lat="44.6770893" lon="9.6461815"><ele>922.0</ele><time>2026-04-04T13:02:57.969Z</time></trkpt><trkpt lat="44.6769891" lon="9.6461413"><ele>922.25</ele><time>2026-04-04T13:02:58.957Z</time></trkpt><trkpt lat="44.6768931" lon="9.6461403"><ele>922.5</ele><time>2026-04-04T13:02:59.975Z</time></trkpt><trkpt lat="44.6767715" lon="9.6461888"><ele>922.75</ele><time>2026-04-04T13:03:00.942Z</time></trkpt><trkpt lat="44.6766362" lon="9.6462652"><ele>923.0</ele><time>2026-04-04T13:03:01.963Z</time></trkpt><trkpt lat="44.6764892" lon="9.6463603"><ele>923.0</ele><time>2026-04-04T13:03:02.951Z</time></trkpt><trkpt lat="44.6763379" lon="9.6464427"><ele>923.0</ele><time>2026-04-04T13:03:03.963Z</time></trkpt><trkpt lat="44.6761853" lon="9.6465251"><ele>923.0</ele><time>2026-04-04T13:03:04.956Z</time></trkpt><trkpt lat="44.6760429" lon="9.6466195"><ele>920.5</ele><time>2026-04-04T13:03:05.961Z</time></trkpt><trkpt lat="44.6759223" lon="9.6467153"><ele>918.0</ele><time>2026-04-04T13:03:06.973Z</time></trkpt><trkpt lat="44.6758193" lon="9.6468034"><ele>915.5</ele><time>2026-04-04T13:03:07.971Z</time></trkpt><trkpt lat="44.6757187" lon="9.6468393"><ele>913.0</ele><time>2026-04-04T13:03:08.953Z</time></trkpt><trkpt lat="44.6756276" lon="9.6468412"><ele>913.0</ele><time>2026-04-04T13:03:09.952Z</time></trkpt><trkpt lat="44.6755396" lon="9.6468392"><ele>913.0</ele><time>2026-04-04T13:03:10.952Z</time></trkpt><trkpt lat="44.6754385" lon="9.6468888"><ele>913.0</ele><time>2026-04-04T13:03:11.96Z</time></trkpt><trkpt lat="44.6753238" lon="9.6469619"><ele>913.0</ele><time>2026-04-04T13:03:12.943Z</time></trkpt><trkpt lat="44.6752026" lon="9.6470354"><ele>916.75</ele><time>2026-04-04T13:03:13.969Z</time></trkpt><trkpt lat="44.6750668" lon="9.6470755"><ele>920.5</ele><time>2026-04-04T13:03:14.94Z</time></trkpt><trkpt lat="44.674919" lon="9.6470714"><ele>924.25</ele><time>2026-04-04T13:03:15.932Z</time></trkpt><trkpt lat="44.674786" lon="9.6470788"><ele>928.0</ele><time>2026-04-04T13:03:16.938Z</time></trkpt><trkpt lat="44.6746688" lon="9.6471028"><ele>928.0</ele><time>2026-04-04T13:03:17.964Z</time></trkpt><trkpt lat="44.6745589" lon="9.6471733"><ele>928.0</ele><time>2026-04-04T13:03:18.969Z</time></trkpt><trkpt lat="44.6744339" lon="9.6472629"><ele>928.0</ele><time>2026-04-04T13:03:19.959Z</time></trkpt><trkpt lat="44.6743038" lon="9.6473924"><ele>928.0</ele><time>2026-04-04T13:03:20.961Z</time></trkpt><trkpt lat="44.6741657" lon="9.6475412"><ele>928.3333333333333</ele><time>2026-04-04T13:03:21.887Z</time></trkpt><trkpt lat="44.6740272" lon="9.6477316"><ele>928.6666666666667</ele><time>2026-04-04T13:03:22.894Z</time></trkpt><trkpt lat="44.6738943" lon="9.6479503"><ele>929.0</ele><time>2026-04-04T13:03:23.891Z</time></trkpt><trkpt lat="44.6737772" lon="9.648174"><ele>929.0</ele><time>2026-04-04T13:03:24.891Z</time></trkpt><trkpt lat="44.6736748" lon="9.6483688"><ele>929.0</ele><time>2026-04-04T13:03:25.955Z</time></trkpt><trkpt lat="44.6735845" lon="9.6485305"><ele>929.0</ele><time>2026-04-04T13:03:26.954Z</time></trkpt><trkpt lat="44.6734918" lon="9.6486711"><ele>930.0</ele><time>2026-04-04T13:03:27.941Z</time></trkpt><trkpt lat="44.673378" lon="9.6487643"><ele>931.0</ele><time>2026-04-04T13:03:28.906Z</time></trkpt><trkpt lat="44.6732626" lon="9.6488256"><ele>932.0</ele><time>2026-04-04T13:03:29.953Z</time></trkpt><trkpt lat="44.6731326" lon="9.6489018"><ele>933.0</ele><time>2026-04-04T13:03:30.949Z</time></trkpt><trkpt lat="44.6730067" lon="9.6489916"><ele>933.0</ele><time>2026-04-04T13:03:31.938Z</time></trkpt><trkpt lat="44.6728693" lon="9.6490867"><ele>933.0</ele><time>2026-04-04T13:03:32.908Z</time></trkpt><trkpt lat="44.6727223" lon="9.649141"><ele>933.0</ele><time>2026-04-04T13:03:33.977Z</time></trkpt><trkpt lat="44.6725882" lon="9.6491805"><ele>933.0</ele><time>2026-04-04T13:03:34.966Z</time></trkpt><trkpt lat="44.6724537" lon="9.649159"><ele>932.5</ele><time>2026-04-04T13:03:35.951Z</time></trkpt><trkpt lat="44.6723166" lon="9.6491227"><ele>932.0</ele><time>2026-04-04T13:03:36.957Z</time></trkpt><trkpt lat="44.672195" lon="9.6490929"><ele>931.5</ele><time>2026-04-04T13:03:37.958Z</time></trkpt><trkpt lat="44.6720764" lon="9.6490759"><ele>931.0</ele><time>2026-04-04T13:03:38.976Z</time></trkpt><trkpt lat="44.6719692" lon="9.649068"><ele>930.1999999999999</ele><time>2026-04-04T13:03:39.95Z</time></trkpt><trkpt lat="44.6718992" lon="9.6490283"><ele>929.3999999999999</ele><time>2026-04-04T13:03:40.957Z</time></trkpt><trkpt lat="44.6718385" lon="9.6489418"><ele>928.6</ele><time>2026-04-04T13:03:41.956Z</time></trkpt><trkpt lat="44.6717712" lon="9.6488085"><ele>927.8</ele><time>2026-04-04T13:03:42.96Z</time></trkpt><trkpt lat="44.6717057" lon="9.6486426"><ele>927.0</ele><time>2026-04-04T13:03:43.943Z</time></trkpt><trkpt lat="44.6716552" lon="9.6484781"><ele>927.0</ele><time>2026-04-04T13:03:44.947Z</time></trkpt><trkpt lat="44.671618" lon="9.6483221"><ele>927.0</ele><time>2026-04-04T13:03:45.964Z</time></trkpt><trkpt lat="44.6715946" lon="9.6481921"><ele>927.0</ele><time>2026-04-04T13:03:46.958Z</time></trkpt><trkpt lat="44.6715225" lon="9.6481214"><ele>927.0</ele><time>2026-04-04T13:03:47.947Z</time></trkpt><trkpt lat="44.6714644" lon="9.6480472"><ele>927.0</ele><time>2026-04-04T13:03:48.982Z</time></trkpt><trkpt lat="44.6713289" lon="9.6479728"><ele>927.0</ele><time>2026-04-04T13:03:50.962Z</time></trkpt><trkpt lat="44.6712231" lon="9.6479688"><ele>927.0</ele><time>2026-04-04T13:03:51.954Z</time></trkpt><trkpt lat="44.6711143" lon="9.6479642"><ele>927.0</ele><time>2026-04-04T13:03:52.932Z</time></trkpt><trkpt lat="44.6710039" lon="9.64793"><ele>927.0</ele><time>2026-04-04T13:03:53.962Z</time></trkpt><trkpt lat="44.6709301" lon="9.6478651"><ele>927.0</ele><time>2026-04-04T13:03:54.954Z</time></trkpt><trkpt lat="44.6708718" lon="9.6477705"><ele>927.3333333333334</ele><time>2026-04-04T13:03:55.962Z</time></trkpt><trkpt lat="44.6708475" lon="9.6476525"><ele>927.6666666666667</ele><time>2026-04-04T13:03:56.935Z</time></trkpt><trkpt lat="44.6708331" lon="9.6475244"><ele>928.0</ele><time>2026-04-04T13:03:57.942Z</time></trkpt><trkpt lat="44.6708139" lon="9.647429"><ele>928.3333333333334</ele><time>2026-04-04T13:03:58.961Z</time></trkpt><trkpt lat="44.6707762" lon="9.6473373"><ele>928.6666666666667</ele><time>2026-04-04T13:03:59.929Z</time></trkpt><trkpt lat="44.6707156" lon="9.6472786"><ele>929.0</ele><time>2026-04-04T13:04:00.964Z</time></trkpt><trkpt lat="44.6706353" lon="9.6472476"><ele>929.0</ele><time>2026-04-04T13:04:01.949Z</time></trkpt><trkpt lat="44.6705454" lon="9.6472841"><ele>929.0</ele><time>2026-04-04T13:04:02.964Z</time></trkpt><trkpt lat="44.6704388" lon="9.6474043"><ele>929.0</ele><time>2026-04-04T13:04:03.954Z</time></trkpt><trkpt lat="44.6703305" lon="9.6475257"><ele>929.0</ele><time>2026-04-04T13:04:04.969Z</time></trkpt><trkpt lat="44.6702323" lon="9.647643"><ele>929.75</ele><time>2026-04-04T13:04:05.952Z</time></trkpt><trkpt lat="44.670111" lon="9.647714"><ele>930.5</ele><time>2026-04-04T13:04:06.968Z</time></trkpt><trkpt lat="44.6699525" lon="9.6477356"><ele>931.25</ele><time>2026-04-04T13:04:07.967Z</time></trkpt><trkpt lat="44.6697964" lon="9.6477621"><ele>932.0</ele><time>2026-04-04T13:04:08.96Z</time></trkpt><trkpt lat="44.6696487" lon="9.6477985"><ele>932.0</ele><time>2026-04-04T13:04:09.946Z</time></trkpt><trkpt lat="44.669532" lon="9.6478754"><ele>932.0</ele><time>2026-04-04T13:04:10.903Z</time></trkpt><trkpt lat="44.6694279" lon="9.6479722"><ele>932.0</ele><time>2026-04-04T13:04:11.967Z</time></trkpt><trkpt lat="44.6693332" lon="9.6480596"><ele>932.0</ele><time>2026-04-04T13:04:12.958Z</time></trkpt><trkpt lat="44.6692717" lon="9.6481663"><ele>932.0</ele><time>2026-04-04T13:04:13.983Z</time></trkpt><trkpt lat="44.6692367" lon="9.6482767"><ele>932.0</ele><time>2026-04-04T13:04:14.954Z</time></trkpt><trkpt lat="44.6692375" lon="9.6484107"><ele>932.0</ele><time>2026-04-04T13:04:15.96Z</time></trkpt><trkpt lat="44.6692561" lon="9.6485895"><ele>932.0</ele><time>2026-04-04T13:04:16.956Z</time></trkpt><trkpt lat="44.6692937" lon="9.6487857"><ele>933.0</ele><time>2026-04-04T13:04:17.96Z</time></trkpt><trkpt lat="44.6693369" lon="9.6490062"><ele>934.0</ele><time>2026-04-04T13:04:18.961Z</time></trkpt><trkpt lat="44.6693791" lon="9.6492295"><ele>935.0</ele><time>2026-04-04T13:04:19.955Z</time></trkpt><trkpt lat="44.6694085" lon="9.6494302"><ele>935.3333333333334</ele><time>2026-04-04T13:04:20.966Z</time></trkpt><trkpt lat="44.6694387" lon="9.6496471"><ele>935.6666666666667</ele><time>2026-04-04T13:04:21.977Z</time></trkpt><trkpt lat="44.6694669" lon="9.6498657"><ele>936.0</ele><time>2026-04-04T13:04:22.957Z</time></trkpt><trkpt lat="44.6695012" lon="9.6500917"><ele>941.3333333333333</ele><time>2026-04-04T13:04:23.957Z</time></trkpt><trkpt lat="44.669531" lon="9.6503103"><ele>946.6666666666666</ele><time>2026-04-04T13:04:24.949Z</time></trkpt><trkpt lat="44.6695513" lon="9.650517"><ele>952.0</ele><time>2026-04-04T13:04:25.965Z</time></trkpt><trkpt lat="44.6695728" lon="9.6507241"><ele>952.0</ele><time>2026-04-04T13:04:26.958Z</time></trkpt><trkpt lat="44.6695762" lon="9.6509305"><ele>952.0</ele><time>2026-04-04T13:04:27.96Z</time></trkpt><trkpt lat="44.669566" lon="9.6511394"><ele>952.0</ele><time>2026-04-04T13:04:28.964Z</time></trkpt><trkpt lat="44.6695416" lon="9.6513397"><ele>952.0</ele><time>2026-04-04T13:04:29.933Z</time></trkpt><trkpt lat="44.6695174" lon="9.6515244"><ele>953.75</ele><time>2026-04-04T13:04:30.981Z</time></trkpt><trkpt lat="44.6694919" lon="9.6516998"><ele>955.5</ele><time>2026-04-04T13:04:31.971Z</time></trkpt><trkpt lat="44.6694734" lon="9.6518742"><ele>957.25</ele><time>2026-04-04T13:04:32.93Z</time></trkpt><trkpt lat="44.6694734" lon="9.6520467"><ele>959.0</ele><time>2026-04-04T13:04:33.997Z</time></trkpt><trkpt lat="44.6695118" lon="9.6522372"><ele>959.25</ele><time>2026-04-04T13:04:34.97Z</time></trkpt><trkpt lat="44.6695667" lon="9.6524323"><ele>959.5</ele><time>2026-04-04T13:04:35.968Z</time></trkpt><trkpt lat="44.6696385" lon="9.652615"><ele>959.75</ele><time>2026-04-04T13:04:36.93Z</time></trkpt><trkpt lat="44.6696965" lon="9.6527659"><ele>960.0</ele><time>2026-04-04T13:04:37.977Z</time></trkpt><trkpt lat="44.6697579" lon="9.6528919"><ele>957.25</ele><time>2026-04-04T13:04:38.93Z</time></trkpt><trkpt lat="44.6698418" lon="9.6529755"><ele>954.5</ele><time>2026-04-04T13:04:39.963Z</time></trkpt><trkpt lat="44.6699571" lon="9.6530346"><ele>951.75</ele><time>2026-04-04T13:04:40.982Z</time></trkpt><trkpt lat="44.6700879" lon="9.6530789"><ele>949.0</ele><time>2026-04-04T13:04:41.947Z</time></trkpt><trkpt lat="44.6702202" lon="9.6531223"><ele>952.75</ele><time>2026-04-04T13:04:42.956Z</time></trkpt><trkpt lat="44.6703439" lon="9.6531856"><ele>956.5</ele><time>2026-04-04T13:04:43.954Z</time></trkpt><trkpt lat="44.6704414" lon="9.6533164"><ele>960.25</ele><time>2026-04-04T13:04:44.961Z</time></trkpt><trkpt lat="44.6705305" lon="9.653493"><ele>964.0</ele><time>2026-04-04T13:04:45.974Z</time></trkpt><trkpt lat="44.6706121" lon="9.6537109"><ele>964.0</ele><time>2026-04-04T13:04:46.932Z</time></trkpt><trkpt lat="44.6706834" lon="9.653951"><ele>964.0</ele><time>2026-04-04T13:04:47.974Z</time></trkpt><trkpt lat="44.6707584" lon="9.6541933"><ele>964.0</ele><time>2026-04-04T13:04:48.951Z</time></trkpt><trkpt lat="44.6708339" lon="9.6544337"><ele>965.6666666666666</ele><time>2026-04-04T13:04:49.955Z</time></trkpt><trkpt lat="44.6709365" lon="9.6546554"><ele>967.3333333333333</ele><time>2026-04-04T13:04:50.969Z</time></trkpt><trkpt lat="44.6710695" lon="9.6548747"><ele>969.0</ele><time>2026-04-04T13:04:51.953Z</time></trkpt><trkpt lat="44.6712103" lon="9.655094"><ele>964.0</ele><time>2026-04-04T13:04:52.935Z</time></trkpt><trkpt lat="44.6713543" lon="9.6552946"><ele>959.0</ele><time>2026-04-04T13:04:53.953Z</time></trkpt><trkpt lat="44.6714887" lon="9.6554593"><ele>954.0</ele><time>2026-04-04T13:04:54.934Z</time></trkpt><trkpt lat="44.6716055" lon="9.6556023"><ele>954.0</ele><time>2026-04-04T13:04:55.928Z</time></trkpt><trkpt lat="44.6716976" lon="9.6557342"><ele>954.0</ele><time>2026-04-04T13:04:56.979Z</time></trkpt><trkpt lat="44.6717642" lon="9.6558672"><ele>954.0</ele><time>2026-04-04T13:04:57.936Z</time></trkpt><trkpt lat="44.6718345" lon="9.6560241"><ele>954.0</ele><time>2026-04-04T13:04:58.966Z</time></trkpt><trkpt lat="44.671884" lon="9.6562187"><ele>954.3333333333333</ele><time>2026-04-04T13:04:59.962Z</time></trkpt><trkpt lat="44.6718662" lon="9.6564417"><ele>954.6666666666666</ele><time>2026-04-04T13:05:00.956Z</time></trkpt><trkpt lat="44.6718241" lon="9.6567103"><ele>955.0</ele><time>2026-04-04T13:05:01.96Z</time></trkpt><trkpt lat="44.6717776" lon="9.6569722"><ele>955.0</ele><time>2026-04-04T13:05:02.935Z</time></trkpt><trkpt lat="44.6717381" lon="9.6572018"><ele>955.0</ele><time>2026-04-04T13:05:03.958Z</time></trkpt><trkpt lat="44.6716982" lon="9.6574229"><ele>955.0</ele><time>2026-04-04T13:05:04.964Z</time></trkpt><trkpt lat="44.671615" lon="9.6576487"><ele>957.3333333333333</ele><time>2026-04-04T13:05:05.935Z</time></trkpt><trkpt lat="44.6715021" lon="9.6578598"><ele>959.6666666666667</ele><time>2026-04-04T13:05:06.969Z</time></trkpt><trkpt lat="44.6713772" lon="9.6580559"><ele>962.0</ele><time>2026-04-04T13:05:07.959Z</time></trkpt><trkpt lat="44.671255" lon="9.6582231"><ele>962.0</ele><time>2026-04-04T13:05:08.96Z</time></trkpt><trkpt lat="44.6711183" lon="9.658354"><ele>962.0</ele><time>2026-04-04T13:05:09.959Z</time></trkpt><trkpt lat="44.6709673" lon="9.6584617"><ele>962.0</ele><time>2026-04-04T13:05:10.951Z</time></trkpt><trkpt lat="44.6708055" lon="9.6585375"><ele>959.3333333333334</ele><time>2026-04-04T13:05:11.931Z</time></trkpt><trkpt lat="44.6706193" lon="9.6585932"><ele>956.6666666666667</ele><time>2026-04-04T13:05:12.961Z</time></trkpt><trkpt lat="44.6704421" lon="9.6586422"><ele>954.0</ele><time>2026-04-04T13:05:13.97Z</time></trkpt><trkpt lat="44.6702666" lon="9.6586958"><ele>950.75</ele><time>2026-04-04T13:05:14.929Z</time></trkpt><trkpt lat="44.6701121" lon="9.6587389"><ele>947.5</ele><time>2026-04-04T13:05:15.968Z</time></trkpt><trkpt lat="44.6699809" lon="9.658789"><ele>944.25</ele><time>2026-04-04T13:05:16.969Z</time></trkpt><trkpt lat="44.6698623" lon="9.6588428"><ele>941.0</ele><time>2026-04-04T13:05:17.935Z</time></trkpt><trkpt lat="44.6697631" lon="9.6589116"><ele>941.0</ele><time>2026-04-04T13:05:18.938Z</time></trkpt><trkpt lat="44.6696845" lon="9.6589984"><ele>941.0</ele><time>2026-04-04T13:05:19.948Z</time></trkpt><trkpt lat="44.6696309" lon="9.6591427"><ele>941.0</ele><time>2026-04-04T13:05:20.953Z</time></trkpt><trkpt lat="44.6695899" lon="9.6593359"><ele>941.0</ele><time>2026-04-04T13:05:21.959Z</time></trkpt><trkpt lat="44.6695575" lon="9.6595621"><ele>940.0</ele><time>2026-04-04T13:05:22.952Z</time></trkpt><trkpt lat="44.6695121" lon="9.6597964"><ele>939.0</ele><time>2026-04-04T13:05:23.953Z</time></trkpt><trkpt lat="44.6694734" lon="9.6600396"><ele>938.0</ele><time>2026-04-04T13:05:24.957Z</time></trkpt><trkpt lat="44.6694366" lon="9.6602929"><ele>931.6666666666667</ele><time>2026-04-04T13:05:25.957Z</time></trkpt><trkpt lat="44.6694029" lon="9.6605383"><ele>925.3333333333333</ele><time>2026-04-04T13:05:26.95Z</time></trkpt><trkpt lat="44.6693714" lon="9.6607865"><ele>919.0</ele><time>2026-04-04T13:05:27.941Z</time></trkpt><trkpt lat="44.6693434" lon="9.6610423"><ele>918.3333333333333</ele><time>2026-04-04T13:05:28.948Z</time></trkpt><trkpt lat="44.669317" lon="9.6612949"><ele>917.6666666666667</ele><time>2026-04-04T13:05:29.896Z</time></trkpt><trkpt lat="44.6692978" lon="9.6615523"><ele>917.0</ele><time>2026-04-04T13:05:30.954Z</time></trkpt><trkpt lat="44.6692738" lon="9.6618066"><ele>916.3333333333334</ele><time>2026-04-04T13:05:31.938Z</time></trkpt><trkpt lat="44.669251" lon="9.6620542"><ele>915.6666666666667</ele><time>2026-04-04T13:05:32.955Z</time></trkpt><trkpt lat="44.6692322" lon="9.6622866"><ele>915.0</ele><time>2026-04-04T13:05:33.979Z</time></trkpt><trkpt lat="44.6692161" lon="9.6625019"><ele>915.0</ele><time>2026-04-04T13:05:34.96Z</time></trkpt><trkpt lat="44.6692172" lon="9.662681"><ele>915.0</ele><time>2026-04-04T13:05:35.952Z</time></trkpt><trkpt lat="44.6692435" lon="9.6628447"><ele>915.0</ele><time>2026-04-04T13:05:36.936Z</time></trkpt><trkpt lat="44.669298" lon="9.6629886"><ele>915.0</ele><time>2026-04-04T13:05:37.955Z</time></trkpt><trkpt lat="44.6693725" lon="9.6631507"><ele>917.3333333333333</ele><time>2026-04-04T13:05:38.948Z</time></trkpt><trkpt lat="44.6694725" lon="9.663344"><ele>919.6666666666666</ele><time>2026-04-04T13:05:39.954Z</time></trkpt><trkpt lat="44.6695747" lon="9.663567"><ele>922.0</ele><time>2026-04-04T13:05:40.901Z</time></trkpt><trkpt lat="44.6696606" lon="9.663791"><ele>922.0</ele><time>2026-04-04T13:05:41.974Z</time></trkpt><trkpt lat="44.6697578" lon="9.6640223"><ele>922.0</ele><time>2026-04-04T13:05:42.968Z</time></trkpt><trkpt lat="44.6698368" lon="9.6642567"><ele>922.0</ele><time>2026-04-04T13:05:43.954Z</time></trkpt><trkpt lat="44.6698744" lon="9.6645038"><ele>920.3333333333333</ele><time>2026-04-04T13:05:44.953Z</time></trkpt><trkpt lat="44.6698858" lon="9.6647472"><ele>918.6666666666667</ele><time>2026-04-04T13:05:45.943Z</time></trkpt><trkpt lat="44.6698829" lon="9.6649778"><ele>917.0</ele><time>2026-04-04T13:05:46.951Z</time></trkpt><trkpt lat="44.6698727" lon="9.6651888"><ele>915.5</ele><time>2026-04-04T13:05:47.974Z</time></trkpt><trkpt lat="44.6698622" lon="9.6653728"><ele>914.0</ele><time>2026-04-04T13:05:48.955Z</time></trkpt><trkpt lat="44.669873" lon="9.6655405"><ele>912.5</ele><time>2026-04-04T13:05:49.956Z</time></trkpt><trkpt lat="44.6699086" lon="9.6657313"><ele>911.0</ele><time>2026-04-04T13:05:50.958Z</time></trkpt><trkpt lat="44.6699798" lon="9.6659416"><ele>908.6666666666667</ele><time>2026-04-04T13:05:51.948Z</time></trkpt><trkpt lat="44.670044" lon="9.6661631"><ele>906.3333333333333</ele><time>2026-04-04T13:05:52.95Z</time></trkpt><trkpt lat="44.6700974" lon="9.6664024"><ele>904.0</ele><time>2026-04-04T13:05:53.949Z</time></trkpt><trkpt lat="44.6701343" lon="9.6666488"><ele>904.0</ele><time>2026-04-04T13:05:54.917Z</time></trkpt><trkpt lat="44.6701587" lon="9.6669035"><ele>904.0</ele><time>2026-04-04T13:05:55.948Z</time></trkpt><trkpt lat="44.6701952" lon="9.6671294"><ele>904.0</ele><time>2026-04-04T13:05:56.963Z</time></trkpt><trkpt lat="44.6702279" lon="9.667331"><ele>905.0</ele><time>2026-04-04T13:05:57.897Z</time></trkpt><trkpt lat="44.6702346" lon="9.6675207"><ele>906.0</ele><time>2026-04-04T13:05:58.951Z</time></trkpt><trkpt lat="44.670225" lon="9.6676894"><ele>907.0</ele><time>2026-04-04T13:05:59.919Z</time></trkpt><trkpt lat="44.6702018" lon="9.6678496"><ele>908.0</ele><time>2026-04-04T13:06:00.931Z</time></trkpt><trkpt lat="44.6701783" lon="9.6679924"><ele>908.0</ele><time>2026-04-04T13:06:01.958Z</time></trkpt><trkpt lat="44.6701473" lon="9.6681032"><ele>908.0</ele><time>2026-04-04T13:06:02.958Z</time></trkpt><trkpt lat="44.6700862" lon="9.6681887"><ele>908.0</ele><time>2026-04-04T13:06:03.956Z</time></trkpt><trkpt lat="44.6699899" lon="9.6682311"><ele>908.0</ele><time>2026-04-04T13:06:04.957Z</time></trkpt><trkpt lat="44.6698655" lon="9.668238"><ele>908.0</ele><time>2026-04-04T13:06:05.965Z</time></trkpt><trkpt lat="44.6697274" lon="9.668214"><ele>908.0</ele><time>2026-04-04T13:06:06.897Z</time></trkpt><trkpt lat="44.6695762" lon="9.6681955"><ele>908.0</ele><time>2026-04-04T13:06:07.937Z</time></trkpt><trkpt lat="44.6694106" lon="9.6681854"><ele>908.0</ele><time>2026-04-04T13:06:08.914Z</time></trkpt><trkpt lat="44.6692547" lon="9.668183"><ele>906.75</ele><time>2026-04-04T13:06:09.933Z</time></trkpt><trkpt lat="44.6691081" lon="9.6682096"><ele>905.5</ele><time>2026-04-04T13:06:10.952Z</time></trkpt><trkpt lat="44.6689705" lon="9.6682609"><ele>904.25</ele><time>2026-04-04T13:06:11.896Z</time></trkpt><trkpt lat="44.6688572" lon="9.668324"><ele>903.0</ele><time>2026-04-04T13:06:12.937Z</time></trkpt><trkpt lat="44.6687702" lon="9.6684074"><ele>903.0</ele><time>2026-04-04T13:06:13.908Z</time></trkpt><trkpt lat="44.6686941" lon="9.6685506"><ele>903.0</ele><time>2026-04-04T13:06:14.944Z</time></trkpt><trkpt lat="44.6686314" lon="9.6687028"><ele>903.0</ele><time>2026-04-04T13:06:15.93Z</time></trkpt><trkpt lat="44.6685681" lon="9.6689027"><ele>903.0</ele><time>2026-04-04T13:06:16.883Z</time></trkpt><trkpt lat="44.6684971" lon="9.6691363"><ele>905.0</ele><time>2026-04-04T13:06:17.933Z</time></trkpt><trkpt lat="44.6684152" lon="9.6693471"><ele>907.0</ele><time>2026-04-04T13:06:18.936Z</time></trkpt><trkpt lat="44.6683062" lon="9.669536"><ele>909.0</ele><time>2026-04-04T13:06:19.947Z</time></trkpt><trkpt lat="44.6681805" lon="9.6696685"><ele>909.0</ele><time>2026-04-04T13:06:20.962Z</time></trkpt><trkpt lat="44.6680802" lon="9.6697647"><ele>909.0</ele><time>2026-04-04T13:06:21.965Z</time></trkpt><trkpt lat="44.6680073" lon="9.6698849"><ele>909.0</ele><time>2026-04-04T13:06:22.942Z</time></trkpt><trkpt lat="44.6679702" lon="9.6700327"><ele>909.0</ele><time>2026-04-04T13:06:23.948Z</time></trkpt><trkpt lat="44.6679538" lon="9.6702228"><ele>910.75</ele><time>2026-04-04T13:06:24.897Z</time></trkpt><trkpt lat="44.6679463" lon="9.6704094"><ele>912.5</ele><time>2026-04-04T13:06:25.946Z</time></trkpt><trkpt lat="44.6679407" lon="9.670609"><ele>914.25</ele><time>2026-04-04T13:06:26.961Z</time></trkpt><trkpt lat="44.6679091" lon="9.6707998"><ele>916.0</ele><time>2026-04-04T13:06:27.937Z</time></trkpt><trkpt lat="44.6678306" lon="9.6709634"><ele>911.6666666666666</ele><time>2026-04-04T13:06:28.954Z</time></trkpt><trkpt lat="44.6677072" lon="9.6711037"><ele>907.3333333333333</ele><time>2026-04-04T13:06:29.938Z</time></trkpt><trkpt lat="44.6675753" lon="9.6712208"><ele>903.0</ele><time>2026-04-04T13:06:30.959Z</time></trkpt><trkpt lat="44.6674343" lon="9.671339"><ele>903.0</ele><time>2026-04-04T13:06:31.961Z</time></trkpt><trkpt lat="44.6673037" lon="9.6714437"><ele>903.0</ele><time>2026-04-04T13:06:32.954Z</time></trkpt><trkpt lat="44.6671846" lon="9.6715357"><ele>903.0</ele><time>2026-04-04T13:06:33.925Z</time></trkpt><trkpt lat="44.6670791" lon="9.6716086"><ele>903.0</ele><time>2026-04-04T13:06:34.963Z</time></trkpt><trkpt lat="44.6669792" lon="9.671633"><ele>903.25</ele><time>2026-04-04T13:06:35.95Z</time></trkpt><trkpt lat="44.6668765" lon="9.6715792"><ele>903.5</ele><time>2026-04-04T13:06:36.979Z</time></trkpt><trkpt lat="44.6667541" lon="9.6714766"><ele>903.75</ele><time>2026-04-04T13:06:37.96Z</time></trkpt><trkpt lat="44.6666487" lon="9.6713249"><ele>904.0</ele><time>2026-04-04T13:06:38.966Z</time></trkpt><trkpt lat="44.6665586" lon="9.671215"><ele>904.0</ele><time>2026-04-04T13:06:39.94Z</time></trkpt><trkpt lat="44.6664723" lon="9.6711312"><ele>904.0</ele><time>2026-04-04T13:06:40.91Z</time></trkpt><trkpt lat="44.6663659" lon="9.6710654"><ele>904.0</ele><time>2026-04-04T13:06:41.95Z</time></trkpt><trkpt lat="44.6662194" lon="9.6710858"><ele>904.0</ele><time>2026-04-04T13:06:42.941Z</time></trkpt><trkpt lat="44.6660472" lon="9.6711509"><ele>903.0</ele><time>2026-04-04T13:06:43.937Z</time></trkpt><trkpt lat="44.665876" lon="9.6712099"><ele>902.0</ele><time>2026-04-04T13:06:44.942Z</time></trkpt><trkpt lat="44.6657081" lon="9.6712669"><ele>901.0</ele><time>2026-04-04T13:06:45.939Z</time></trkpt><trkpt lat="44.665552" lon="9.6713132"><ele>901.0</ele><time>2026-04-04T13:06:46.945Z</time></trkpt><trkpt lat="44.6654096" lon="9.6713136"><ele>901.0</ele><time>2026-04-04T13:06:47.955Z</time></trkpt><trkpt lat="44.6652823" lon="9.6712578"><ele>901.0</ele><time>2026-04-04T13:06:48.956Z</time></trkpt><trkpt lat="44.6651825" lon="9.6711221"><ele>901.0</ele><time>2026-04-04T13:06:49.927Z</time></trkpt><trkpt lat="44.6650926" lon="9.6709501"><ele>899.25</ele><time>2026-04-04T13:06:50.939Z</time></trkpt><trkpt lat="44.665026" lon="9.670782"><ele>897.5</ele><time>2026-04-04T13:06:51.956Z</time></trkpt><trkpt lat="44.664961" lon="9.6706506"><ele>895.75</ele><time>2026-04-04T13:06:52.953Z</time></trkpt><trkpt lat="44.664858" lon="9.6705865"><ele>894.0</ele><time>2026-04-04T13:06:53.956Z</time></trkpt><trkpt lat="44.6647165" lon="9.6705451"><ele>894.0</ele><time>2026-04-04T13:06:54.964Z</time></trkpt><trkpt lat="44.6645633" lon="9.6705183"><ele>894.0</ele><time>2026-04-04T13:06:55.92Z</time></trkpt><trkpt lat="44.6644132" lon="9.6704817"><ele>894.0</ele><time>2026-04-04T13:06:56.943Z</time></trkpt><trkpt lat="44.6642518" lon="9.6704474"><ele>896.0</ele><time>2026-04-04T13:06:57.946Z</time></trkpt><trkpt lat="44.66412" lon="9.6703716"><ele>898.0</ele><time>2026-04-04T13:06:58.96Z</time></trkpt><trkpt lat="44.6640175" lon="9.6702308"><ele>900.0</ele><time>2026-04-04T13:06:59.893Z</time></trkpt><trkpt lat="44.663926" lon="9.6700302"><ele>895.0</ele><time>2026-04-04T13:07:00.919Z</time></trkpt><trkpt lat="44.6638482" lon="9.6698227"><ele>890.0</ele><time>2026-04-04T13:07:01.92Z</time></trkpt><trkpt lat="44.6637614" lon="9.669618"><ele>885.0</ele><time>2026-04-04T13:07:02.947Z</time></trkpt><trkpt lat="44.6636597" lon="9.6693988"><ele>885.3333333333333</ele><time>2026-04-04T13:07:03.953Z</time></trkpt><trkpt lat="44.6635527" lon="9.6691531"><ele>885.6666666666666</ele><time>2026-04-04T13:07:04.928Z</time></trkpt><trkpt lat="44.6634533" lon="9.6689141"><ele>886.0</ele><time>2026-04-04T13:07:05.951Z</time></trkpt><trkpt lat="44.6633605" lon="9.6686796"><ele>881.6666666666666</ele><time>2026-04-04T13:07:06.965Z</time></trkpt><trkpt lat="44.6632713" lon="9.6684537"><ele>877.3333333333333</ele><time>2026-04-04T13:07:07.957Z</time></trkpt><trkpt lat="44.6631981" lon="9.6682438"><ele>873.0</ele><time>2026-04-04T13:07:08.963Z</time></trkpt><trkpt lat="44.6631233" lon="9.6680462"><ele>873.0</ele><time>2026-04-04T13:07:09.903Z</time></trkpt><trkpt lat="44.6630405" lon="9.6678861"><ele>873.0</ele><time>2026-04-04T13:07:10.909Z</time></trkpt><trkpt lat="44.6629411" lon="9.6677593"><ele>873.0</ele><time>2026-04-04T13:07:11.908Z</time></trkpt><trkpt lat="44.6628372" lon="9.6676662"><ele>873.0</ele><time>2026-04-04T13:07:12.918Z</time></trkpt><trkpt lat="44.6627339" lon="9.6676167"><ele>873.0</ele><time>2026-04-04T13:07:13.917Z</time></trkpt><trkpt lat="44.6626402" lon="9.6676222"><ele>873.0</ele><time>2026-04-04T13:07:14.931Z</time></trkpt><trkpt lat="44.6625533" lon="9.6676518"><ele>873.0</ele><time>2026-04-04T13:07:15.944Z</time></trkpt><trkpt lat="44.6624727" lon="9.6677204"><ele>873.0</ele><time>2026-04-04T13:07:16.892Z</time></trkpt><trkpt lat="44.6624103" lon="9.667785"><ele>873.0</ele><time>2026-04-04T13:07:17.945Z</time></trkpt><trkpt lat="44.6623898" lon="9.6679092"><ele>873.0</ele><time>2026-04-04T13:07:18.955Z</time></trkpt><trkpt lat="44.6623764" lon="9.6680448"><ele>873.0</ele><time>2026-04-04T13:07:19.917Z</time></trkpt><trkpt lat="44.66235" lon="9.668232"><ele>873.0</ele><time>2026-04-04T13:07:20.956Z</time></trkpt><trkpt lat="44.6622914" lon="9.6684248"><ele>873.0</ele><time>2026-04-04T13:07:21.94Z</time></trkpt><trkpt lat="44.6622106" lon="9.6686086"><ele>873.0</ele><time>2026-04-04T13:07:22.96Z</time></trkpt><trkpt lat="44.662107" lon="9.6687783"><ele>873.25</ele><time>2026-04-04T13:07:23.967Z</time></trkpt><trkpt lat="44.662002" lon="9.6689228"><ele>873.5</ele><time>2026-04-04T13:07:24.902Z</time></trkpt><trkpt lat="44.661891" lon="9.6690267"><ele>873.75</ele><time>2026-04-04T13:07:25.964Z</time></trkpt><trkpt lat="44.6617796" lon="9.6690805"><ele>874.0</ele><time>2026-04-04T13:07:26.96Z</time></trkpt><trkpt lat="44.6616582" lon="9.6690797"><ele>874.0</ele><time>2026-04-04T13:07:27.933Z</time></trkpt><trkpt lat="44.6615317" lon="9.6690293"><ele>874.0</ele><time>2026-04-04T13:07:28.955Z</time></trkpt><trkpt lat="44.661382" lon="9.6689344"><ele>874.0</ele><time>2026-04-04T13:07:29.97Z</time></trkpt><trkpt lat="44.6612349" lon="9.6688046"><ele>875.6666666666666</ele><time>2026-04-04T13:07:30.956Z</time></trkpt><trkpt lat="44.6610948" lon="9.6686312"><ele>877.3333333333333</ele><time>2026-04-04T13:07:31.958Z</time></trkpt><trkpt lat="44.6609595" lon="9.6684638"><ele>879.0</ele><time>2026-04-04T13:07:32.948Z</time></trkpt><trkpt lat="44.6608284" lon="9.6683029"><ele>874.0</ele><time>2026-04-04T13:07:33.947Z</time></trkpt><trkpt lat="44.6606908" lon="9.6681577"><ele>869.0</ele><time>2026-04-04T13:07:34.945Z</time></trkpt><trkpt lat="44.6605544" lon="9.6680182"><ele>864.0</ele><time>2026-04-04T13:07:35.966Z</time></trkpt><trkpt lat="44.6603993" lon="9.6678963"><ele>862.3333333333333</ele><time>2026-04-04T13:07:36.965Z</time></trkpt><trkpt lat="44.6602385" lon="9.6677894"><ele>860.6666666666666</ele><time>2026-04-04T13:07:37.953Z</time></trkpt><trkpt lat="44.6600706" lon="9.6677011"><ele>859.0</ele><time>2026-04-04T13:07:38.929Z</time></trkpt><trkpt lat="44.6599043" lon="9.6676218"><ele>859.0</ele><time>2026-04-04T13:07:39.963Z</time></trkpt><trkpt lat="44.6597335" lon="9.6675471"><ele>859.0</ele><time>2026-04-04T13:07:40.965Z</time></trkpt><trkpt lat="44.6595592" lon="9.6674813"><ele>859.0</ele><time>2026-04-04T13:07:41.912Z</time></trkpt><trkpt lat="44.659417" lon="9.6674195"><ele>859.5</ele><time>2026-04-04T13:07:42.954Z</time></trkpt><trkpt lat="44.659295" lon="9.6673772"><ele>860.0</ele><time>2026-04-04T13:07:43.956Z</time></trkpt><trkpt lat="44.6591811" lon="9.667373"><ele>860.5</ele><time>2026-04-04T13:07:44.953Z</time></trkpt><trkpt lat="44.6590707" lon="9.6673953"><ele>861.0</ele><time>2026-04-04T13:07:45.974Z</time></trkpt><trkpt lat="44.6589433" lon="9.6674653"><ele>861.0</ele><time>2026-04-04T13:07:46.959Z</time></trkpt><trkpt lat="44.6587894" lon="9.6675489"><ele>861.0</ele><time>2026-04-04T13:07:47.962Z</time></trkpt><trkpt lat="44.6586211" lon="9.6676076"><ele>861.0</ele><time>2026-04-04T13:07:48.963Z</time></trkpt><trkpt lat="44.6584257" lon="9.6676279"><ele>860.6666666666667</ele><time>2026-04-04T13:07:49.948Z</time></trkpt><trkpt lat="44.6582323" lon="9.6676362"><ele>860.3333333333334</ele><time>2026-04-04T13:07:50.953Z</time></trkpt><trkpt lat="44.6580652" lon="9.6676266"><ele>860.0</ele><time>2026-04-04T13:07:51.928Z</time></trkpt><trkpt lat="44.6579123" lon="9.6675796"><ele>860.75</ele><time>2026-04-04T13:07:52.913Z</time></trkpt><trkpt lat="44.6577752" lon="9.6675095"><ele>861.5</ele><time>2026-04-04T13:07:53.931Z</time></trkpt><trkpt lat="44.6576526" lon="9.6674524"><ele>862.25</ele><time>2026-04-04T13:07:54.934Z</time></trkpt><trkpt lat="44.6575366" lon="9.6674373"><ele>863.0</ele><time>2026-04-04T13:07:55.929Z</time></trkpt><trkpt lat="44.6573989" lon="9.6674678"><ele>863.0</ele><time>2026-04-04T13:07:56.953Z</time></trkpt><trkpt lat="44.6572331" lon="9.6675054"><ele>863.0</ele><time>2026-04-04T13:07:57.892Z</time></trkpt><trkpt lat="44.6570554" lon="9.6674958"><ele>863.0</ele><time>2026-04-04T13:07:58.887Z</time></trkpt><trkpt lat="44.6568893" lon="9.6674601"><ele>861.3333333333334</ele><time>2026-04-04T13:07:59.886Z</time></trkpt><trkpt lat="44.6567338" lon="9.6674306"><ele>859.6666666666667</ele><time>2026-04-04T13:08:00.894Z</time></trkpt><trkpt lat="44.6565741" lon="9.6674542"><ele>858.0</ele><time>2026-04-04T13:08:01.886Z</time></trkpt><trkpt lat="44.6564077" lon="9.6675069"><ele>858.0</ele><time>2026-04-04T13:08:02.925Z</time></trkpt><trkpt lat="44.6562278" lon="9.6675817"><ele>858.0</ele><time>2026-04-04T13:08:03.883Z</time></trkpt><trkpt lat="44.6560527" lon="9.6676535"><ele>858.0</ele><time>2026-04-04T13:08:04.883Z</time></trkpt><trkpt lat="44.6558614" lon="9.6677102"><ele>856.0</ele><time>2026-04-04T13:08:05.947Z</time></trkpt><trkpt lat="44.6556692" lon="9.6677432"><ele>854.0</ele><time>2026-04-04T13:08:06.9Z</time></trkpt><trkpt lat="44.6554649" lon="9.6677688"><ele>852.0</ele><time>2026-04-04T13:08:07.899Z</time></trkpt><trkpt lat="44.6552655" lon="9.6677765"><ele>855.6666666666667</ele><time>2026-04-04T13:08:08.944Z</time></trkpt><trkpt lat="44.6550769" lon="9.667781"><ele>859.3333333333334</ele><time>2026-04-04T13:08:09.924Z</time></trkpt><trkpt lat="44.6548966" lon="9.6677841"><ele>863.0</ele><time>2026-04-04T13:08:10.906Z</time></trkpt><trkpt lat="44.6547303" lon="9.6677814"><ele>859.5</ele><time>2026-04-04T13:08:11.924Z</time></trkpt><trkpt lat="44.6545827" lon="9.6677517"><ele>856.0</ele><time>2026-04-04T13:08:12.915Z</time></trkpt><trkpt lat="44.6544497" lon="9.6677185"><ele>852.5</ele><time>2026-04-04T13:08:13.95Z</time></trkpt><trkpt lat="44.6543509" lon="9.6677147"><ele>849.0</ele><time>2026-04-04T13:08:14.939Z</time></trkpt><trkpt lat="44.6542663" lon="9.667749"><ele>850.0</ele><time>2026-04-04T13:08:15.973Z</time></trkpt><trkpt lat="44.6541993" lon="9.6678164"><ele>851.0</ele><time>2026-04-04T13:08:16.921Z</time></trkpt><trkpt lat="44.6541505" lon="9.6679674"><ele>852.0</ele><time>2026-04-04T13:08:17.965Z</time></trkpt><trkpt lat="44.6541316" lon="9.6681432"><ele>853.0</ele><time>2026-04-04T13:08:18.957Z</time></trkpt><trkpt lat="44.6541116" lon="9.6683582"><ele>853.0</ele><time>2026-04-04T13:08:19.95Z</time></trkpt><trkpt lat="44.6540874" lon="9.6685782"><ele>853.0</ele><time>2026-04-04T13:08:20.919Z</time></trkpt><trkpt lat="44.6540412" lon="9.6687839"><ele>853.0</ele><time>2026-04-04T13:08:21.942Z</time></trkpt><trkpt lat="44.6539568" lon="9.6689338"><ele>853.0</ele><time>2026-04-04T13:08:22.924Z</time></trkpt><trkpt lat="44.6538406" lon="9.6690284"><ele>852.25</ele><time>2026-04-04T13:08:23.918Z</time></trkpt><trkpt lat="44.6537055" lon="9.6690893"><ele>851.5</ele><time>2026-04-04T13:08:24.946Z</time></trkpt><trkpt lat="44.6535683" lon="9.6691107"><ele>850.75</ele><time>2026-04-04T13:08:25.924Z</time></trkpt><trkpt lat="44.6534342" lon="9.6690766"><ele>850.0</ele><time>2026-04-04T13:08:26.95Z</time></trkpt><trkpt lat="44.6533061" lon="9.6690068"><ele>850.0</ele><time>2026-04-04T13:08:27.93Z</time></trkpt><trkpt lat="44.6531991" lon="9.6689174"><ele>850.0</ele><time>2026-04-04T13:08:28.937Z</time></trkpt><trkpt lat="44.6531039" lon="9.6688406"><ele>850.0</ele><time>2026-04-04T13:08:29.961Z</time></trkpt><trkpt lat="44.653008" lon="9.6688101"><ele>850.0</ele><time>2026-04-04T13:08:30.965Z</time></trkpt><trkpt lat="44.652911" lon="9.6688472"><ele>850.0</ele><time>2026-04-04T13:08:31.969Z</time></trkpt><trkpt lat="44.6527854" lon="9.6689611"><ele>847.3333333333333</ele><time>2026-04-04T13:08:32.949Z</time></trkpt><trkpt lat="44.6526842" lon="9.6691197"><ele>844.6666666666667</ele><time>2026-04-04T13:08:33.946Z</time></trkpt><trkpt lat="44.652618" lon="9.6693137"><ele>842.0</ele><time>2026-04-04T13:08:34.959Z</time></trkpt><trkpt lat="44.6525673" lon="9.6695256"><ele>842.0</ele><time>2026-04-04T13:08:35.958Z</time></trkpt><trkpt lat="44.6525143" lon="9.6697461"><ele>842.0</ele><time>2026-04-04T13:08:36.953Z</time></trkpt><trkpt lat="44.6524495" lon="9.6699613"><ele>842.0</ele><time>2026-04-04T13:08:37.937Z</time></trkpt><trkpt lat="44.6523622" lon="9.6701479"><ele>844.0</ele><time>2026-04-04T13:08:38.957Z</time></trkpt><trkpt lat="44.6522828" lon="9.6703269"><ele>846.0</ele><time>2026-04-04T13:08:39.953Z</time></trkpt><trkpt lat="44.652223" lon="9.6705496"><ele>848.0</ele><time>2026-04-04T13:08:40.923Z</time></trkpt><trkpt lat="44.6521918" lon="9.6707915"><ele>848.0</ele><time>2026-04-04T13:08:41.946Z</time></trkpt><trkpt lat="44.6521488" lon="9.6710349"><ele>848.0</ele><time>2026-04-04T13:08:42.937Z</time></trkpt><trkpt lat="44.6520603" lon="9.6712322"><ele>848.0</ele><time>2026-04-04T13:08:43.944Z</time></trkpt><trkpt lat="44.6519486" lon="9.6714196"><ele>847.3333333333334</ele><time>2026-04-04T13:08:44.956Z</time></trkpt><trkpt lat="44.6518279" lon="9.6715815"><ele>846.6666666666667</ele><time>2026-04-04T13:08:45.954Z</time></trkpt><trkpt lat="44.6516991" lon="9.67169"><ele>846.0</ele><time>2026-04-04T13:08:46.955Z</time></trkpt><trkpt lat="44.651562" lon="9.6717367"><ele>846.0</ele><time>2026-04-04T13:08:47.945Z</time></trkpt><trkpt lat="44.651403" lon="9.6717239"><ele>846.0</ele><time>2026-04-04T13:08:48.961Z</time></trkpt><trkpt lat="44.6512212" lon="9.6716966"><ele>846.0</ele><time>2026-04-04T13:08:49.957Z</time></trkpt><trkpt lat="44.6510293" lon="9.6717228"><ele>846.6666666666667</ele><time>2026-04-04T13:08:50.956Z</time></trkpt><trkpt lat="44.6508489" lon="9.6717303"><ele>847.3333333333334</ele><time>2026-04-04T13:08:51.9Z</time></trkpt><trkpt lat="44.6507104" lon="9.6716782"><ele>848.0</ele><time>2026-04-04T13:08:52.899Z</time></trkpt><trkpt lat="44.6505752" lon="9.6715665"><ele>848.0</ele><time>2026-04-04T13:08:53.904Z</time></trkpt><trkpt lat="44.6504748" lon="9.6714053"><ele>848.0</ele><time>2026-04-04T13:08:54.891Z</time></trkpt><trkpt lat="44.6503836" lon="9.6712155"><ele>848.0</ele><time>2026-04-04T13:08:55.888Z</time></trkpt><trkpt lat="44.6503108" lon="9.6711227"><ele>848.0</ele><time>2026-04-04T13:08:56.951Z</time></trkpt><trkpt lat="44.6501996" lon="9.6710608"><ele>846.3333333333334</ele><time>2026-04-04T13:08:57.957Z</time></trkpt><trkpt lat="44.6500467" lon="9.6710742"><ele>844.6666666666667</ele><time>2026-04-04T13:08:58.915Z</time></trkpt><trkpt lat="44.6498991" lon="9.6711406"><ele>843.0</ele><time>2026-04-04T13:08:59.917Z</time></trkpt><trkpt lat="44.6497172" lon="9.6712606"><ele>846.0</ele><time>2026-04-04T13:09:00.929Z</time></trkpt><trkpt lat="44.6495484" lon="9.6714004"><ele>849.0</ele><time>2026-04-04T13:09:01.927Z</time></trkpt><trkpt lat="44.6493688" lon="9.6714959"><ele>852.0</ele><time>2026-04-04T13:09:02.961Z</time></trkpt><trkpt lat="44.6491949" lon="9.6715529"><ele>852.0</ele><time>2026-04-04T13:09:03.897Z</time></trkpt><trkpt lat="44.6489949" lon="9.671551"><ele>852.0</ele><time>2026-04-04T13:09:04.966Z</time></trkpt><trkpt lat="44.6487872" lon="9.6714846"><ele>852.0</ele><time>2026-04-04T13:09:05.943Z</time></trkpt><trkpt lat="44.648572" lon="9.671411"><ele>852.0</ele><time>2026-04-04T13:09:06.924Z</time></trkpt><trkpt lat="44.6483812" lon="9.6713473"><ele>852.0</ele><time>2026-04-04T13:09:07.942Z</time></trkpt><trkpt lat="44.6481857" lon="9.6712989"><ele>852.0</ele><time>2026-04-04T13:09:08.912Z</time></trkpt><trkpt lat="44.6480138" lon="9.6712113"><ele>852.0</ele><time>2026-04-04T13:09:09.926Z</time></trkpt><trkpt lat="44.6478831" lon="9.6710454"><ele>852.0</ele><time>2026-04-04T13:09:10.946Z</time></trkpt><trkpt lat="44.6477711" lon="9.6708142"><ele>852.0</ele><time>2026-04-04T13:09:11.921Z</time></trkpt><trkpt lat="44.6476912" lon="9.6706005"><ele>852.0</ele><time>2026-04-04T13:09:12.923Z</time></trkpt><trkpt lat="44.6476252" lon="9.6704626"><ele>852.0</ele><time>2026-04-04T13:09:13.948Z</time></trkpt><trkpt lat="44.6475688" lon="9.6703541"><ele>852.0</ele><time>2026-04-04T13:09:14.943Z</time></trkpt><trkpt lat="44.6474981" lon="9.6703041"><ele>852.0</ele><time>2026-04-04T13:09:15.943Z</time></trkpt><trkpt lat="44.6473936" lon="9.6703128"><ele>852.0</ele><time>2026-04-04T13:09:16.933Z</time></trkpt><trkpt lat="44.647294" lon="9.6703905"><ele>852.0</ele><time>2026-04-04T13:09:17.948Z</time></trkpt><trkpt lat="44.6472022" lon="9.670524"><ele>852.0</ele><time>2026-04-04T13:09:18.958Z</time></trkpt><trkpt lat="44.6470908" lon="9.6706697"><ele>852.0</ele><time>2026-04-04T13:09:19.944Z</time></trkpt><trkpt lat="44.6469617" lon="9.6707978"><ele>852.0</ele><time>2026-04-04T13:09:20.96Z</time></trkpt><trkpt lat="44.6468466" lon="9.6709216"><ele>850.25</ele><time>2026-04-04T13:09:21.94Z</time></trkpt><trkpt lat="44.6467584" lon="9.6710592"><ele>848.5</ele><time>2026-04-04T13:09:22.945Z</time></trkpt><trkpt lat="44.6467204" lon="9.6712623"><ele>846.75</ele><time>2026-04-04T13:09:23.954Z</time></trkpt><trkpt lat="44.6466947" lon="9.6714823"><ele>845.0</ele><time>2026-04-04T13:09:24.954Z</time></trkpt><trkpt lat="44.6466452" lon="9.6716725"><ele>845.0</ele><time>2026-04-04T13:09:25.889Z</time></trkpt><trkpt lat="44.6465892" lon="9.6718107"><ele>845.0</ele><time>2026-04-04T13:09:26.913Z</time></trkpt><trkpt lat="44.6465566" lon="9.6719481"><ele>845.0</ele><time>2026-04-04T13:09:27.924Z</time></trkpt><trkpt lat="44.6465484" lon="9.6720619"><ele>845.0</ele><time>2026-04-04T13:09:28.948Z</time></trkpt><trkpt lat="44.6465891" lon="9.6722042"><ele>845.0</ele><time>2026-04-04T13:09:29.951Z</time></trkpt><trkpt lat="44.6467188" lon="9.6724057"><ele>842.6666666666667</ele><time>2026-04-04T13:09:30.952Z</time></trkpt><trkpt lat="44.6468604" lon="9.6726212"><ele>840.3333333333333</ele><time>2026-04-04T13:09:31.95Z</time></trkpt><trkpt lat="44.6469808" lon="9.672839"><ele>838.0</ele><time>2026-04-04T13:09:32.934Z</time></trkpt><trkpt lat="44.6470684" lon="9.6730548"><ele>845.3333333333333</ele><time>2026-04-04T13:09:33.953Z</time></trkpt><trkpt lat="44.6471433" lon="9.6732923"><ele>852.6666666666667</ele><time>2026-04-04T13:09:34.955Z</time></trkpt><trkpt lat="44.6471655" lon="9.6735591"><ele>860.0</ele><time>2026-04-04T13:09:35.954Z</time></trkpt><trkpt lat="44.647135" lon="9.6738307"><ele>860.6666666666667</ele><time>2026-04-04T13:09:36.949Z</time></trkpt><trkpt lat="44.6470848" lon="9.6741151"><ele>861.3333333333333</ele><time>2026-04-04T13:09:37.949Z</time></trkpt><trkpt lat="44.6470386" lon="9.6743893"><ele>862.0</ele><time>2026-04-04T13:09:38.959Z</time></trkpt><trkpt lat="44.6469706" lon="9.6746447"><ele>854.0</ele><time>2026-04-04T13:09:39.902Z</time></trkpt><trkpt lat="44.6468983" lon="9.6748662"><ele>846.0</ele><time>2026-04-04T13:09:40.946Z</time></trkpt><trkpt lat="44.6468287" lon="9.6750695"><ele>838.0</ele><time>2026-04-04T13:09:41.953Z</time></trkpt><trkpt lat="44.6467724" lon="9.6752885"><ele>838.0</ele><time>2026-04-04T13:09:42.915Z</time></trkpt><trkpt lat="44.6467346" lon="9.6755078"><ele>838.0</ele><time>2026-04-04T13:09:43.93Z</time></trkpt><trkpt lat="44.6467145" lon="9.675746"><ele>838.0</ele><time>2026-04-04T13:09:44.947Z</time></trkpt><trkpt lat="44.6466936" lon="9.6759739"><ele>839.3333333333333</ele><time>2026-04-04T13:09:45.946Z</time></trkpt><trkpt lat="44.6466228" lon="9.6761655"><ele>840.6666666666667</ele><time>2026-04-04T13:09:46.927Z</time></trkpt><trkpt lat="44.6464981" lon="9.6763467"><ele>842.0</ele><time>2026-04-04T13:09:47.962Z</time></trkpt><trkpt lat="44.6463667" lon="9.6765506"><ele>842.0</ele><time>2026-04-04T13:09:48.938Z</time></trkpt><trkpt lat="44.6462419" lon="9.6768211"><ele>842.0</ele><time>2026-04-04T13:09:49.93Z</time></trkpt><trkpt lat="44.6461263" lon="9.6770936"><ele>840.0</ele><time>2026-04-04T13:09:50.947Z</time></trkpt><trkpt lat="44.6460234" lon="9.6773355"><ele>838.0</ele><time>2026-04-04T13:09:51.948Z</time></trkpt><trkpt lat="44.6459153" lon="9.6775216"><ele>836.0</ele><time>2026-04-04T13:09:52.941Z</time></trkpt><trkpt lat="44.6457712" lon="9.6776725"><ele>838.6666666666667</ele><time>2026-04-04T13:09:53.95Z</time></trkpt><trkpt lat="44.6455787" lon="9.6777831"><ele>841.3333333333333</ele><time>2026-04-04T13:09:54.943Z</time></trkpt><trkpt lat="44.6453595" lon="9.6778501"><ele>844.0</ele><time>2026-04-04T13:09:55.957Z</time></trkpt><trkpt lat="44.6451352" lon="9.6778741"><ele>844.0</ele><time>2026-04-04T13:09:56.953Z</time></trkpt><trkpt lat="44.6449208" lon="9.6778931"><ele>844.0</ele><time>2026-04-04T13:09:57.938Z</time></trkpt><trkpt lat="44.6447146" lon="9.6779068"><ele>844.0</ele><time>2026-04-04T13:09:58.95Z</time></trkpt><trkpt lat="44.6445346" lon="9.677927"><ele>842.0</ele><time>2026-04-04T13:09:59.953Z</time></trkpt><trkpt lat="44.6444043" lon="9.6779709"><ele>840.0</ele><time>2026-04-04T13:10:00.965Z</time></trkpt><trkpt lat="44.6443185" lon="9.6780242"><ele>838.0</ele><time>2026-04-04T13:10:01.94Z</time></trkpt><trkpt lat="44.6442548" lon="9.6781147"><ele>836.0</ele><time>2026-04-04T13:10:02.928Z</time></trkpt><trkpt lat="44.6442141" lon="9.6782259"><ele>834.0</ele><time>2026-04-04T13:10:03.935Z</time></trkpt><trkpt lat="44.6442102" lon="9.6783574"><ele>834.0</ele><time>2026-04-04T13:10:04.924Z</time></trkpt><trkpt lat="44.6442556" lon="9.6784947"><ele>834.0</ele><time>2026-04-04T13:10:05.938Z</time></trkpt><trkpt lat="44.6443737" lon="9.6786337"><ele>834.0</ele><time>2026-04-04T13:10:06.922Z</time></trkpt><trkpt lat="44.6445067" lon="9.6787972"><ele>834.0</ele><time>2026-04-04T13:10:07.953Z</time></trkpt><trkpt lat="44.644667" lon="9.6789935"><ele>834.0</ele><time>2026-04-04T13:10:08.948Z</time></trkpt><trkpt lat="44.6448266" lon="9.6791797"><ele>834.0</ele><time>2026-04-04T13:10:09.95Z</time></trkpt><trkpt lat="44.6449761" lon="9.6793482"><ele>834.0</ele><time>2026-04-04T13:10:10.96Z</time></trkpt><trkpt lat="44.6451142" lon="9.6795006"><ele>834.0</ele><time>2026-04-04T13:10:11.967Z</time></trkpt><trkpt lat="44.6452027" lon="9.679639"><ele>834.0</ele><time>2026-04-04T13:10:12.956Z</time></trkpt><trkpt lat="44.6452443" lon="9.6798023"><ele>834.0</ele><time>2026-04-04T13:10:13.934Z</time></trkpt><trkpt lat="44.6452305" lon="9.68002"><ele>834.0</ele><time>2026-04-04T13:10:14.957Z</time></trkpt><trkpt lat="44.6451795" lon="9.6802479"><ele>836.0</ele><time>2026-04-04T13:10:15.95Z</time></trkpt><trkpt lat="44.6451088" lon="9.6804911"><ele>838.0</ele><time>2026-04-04T13:10:16.953Z</time></trkpt><trkpt lat="44.645006" lon="9.6806963"><ele>840.0</ele><time>2026-04-04T13:10:17.947Z</time></trkpt><trkpt lat="44.644862" lon="9.6808648"><ele>840.0</ele><time>2026-04-04T13:10:18.948Z</time></trkpt><trkpt lat="44.6446721" lon="9.6809991"><ele>840.0</ele><time>2026-04-04T13:10:19.95Z</time></trkpt><trkpt lat="44.644475" lon="9.6811269"><ele>840.0</ele><time>2026-04-04T13:10:20.911Z</time></trkpt><trkpt lat="44.6442822" lon="9.6812727"><ele>841.3333333333333</ele><time>2026-04-04T13:10:21.939Z</time></trkpt><trkpt lat="44.644112" lon="9.6813958"><ele>842.6666666666666</ele><time>2026-04-04T13:10:22.944Z</time></trkpt><trkpt lat="44.6439591" lon="9.6814694"><ele>844.0</ele><time>2026-04-04T13:10:23.98Z</time></trkpt><trkpt lat="44.6438021" lon="9.6814761"><ele>844.0</ele><time>2026-04-04T13:10:24.952Z</time></trkpt><trkpt lat="44.6436493" lon="9.6813757"><ele>844.0</ele><time>2026-04-04T13:10:25.901Z</time></trkpt><trkpt lat="44.6435033" lon="9.6812253"><ele>844.0</ele><time>2026-04-04T13:10:26.944Z</time></trkpt><trkpt lat="44.6433509" lon="9.6811021"><ele>837.3333333333333</ele><time>2026-04-04T13:10:27.909Z</time></trkpt><trkpt lat="44.6432164" lon="9.6810457"><ele>830.6666666666667</ele><time>2026-04-04T13:10:28.911Z</time></trkpt><trkpt lat="44.6430479" lon="9.6810193"><ele>824.0</ele><time>2026-04-04T13:10:29.902Z</time></trkpt><trkpt lat="44.642863" lon="9.6810556"><ele>826.0</ele><time>2026-04-04T13:10:30.929Z</time></trkpt><trkpt lat="44.6426897" lon="9.6811029"><ele>828.0</ele><time>2026-04-04T13:10:31.953Z</time></trkpt><trkpt lat="44.6425462" lon="9.6811708"><ele>830.0</ele><time>2026-04-04T13:10:32.977Z</time></trkpt><trkpt lat="44.6424267" lon="9.6812867"><ele>830.0</ele><time>2026-04-04T13:10:33.946Z</time></trkpt><trkpt lat="44.642292" lon="9.681493"><ele>830.0</ele><time>2026-04-04T13:10:34.933Z</time></trkpt><trkpt lat="44.642141" lon="9.6817152"><ele>830.0</ele><time>2026-04-04T13:10:35.951Z</time></trkpt><trkpt lat="44.6419938" lon="9.6819245"><ele>827.3333333333334</ele><time>2026-04-04T13:10:36.95Z</time></trkpt><trkpt lat="44.641859" lon="9.6821047"><ele>824.6666666666667</ele><time>2026-04-04T13:10:37.946Z</time></trkpt><trkpt lat="44.6417462" lon="9.6822388"><ele>822.0</ele><time>2026-04-04T13:10:38.935Z</time></trkpt><trkpt lat="44.6416267" lon="9.6823249"><ele>822.0</ele><time>2026-04-04T13:10:39.948Z</time></trkpt><trkpt lat="44.6414982" lon="9.6823649"><ele>822.0</ele><time>2026-04-04T13:10:40.926Z</time></trkpt><trkpt lat="44.6413612" lon="9.682365"><ele>822.0</ele><time>2026-04-04T13:10:41.941Z</time></trkpt><trkpt lat="44.6412271" lon="9.6823567"><ele>822.0</ele><time>2026-04-04T13:10:42.941Z</time></trkpt><trkpt lat="44.6410793" lon="9.6823852"><ele>817.3333333333333</ele><time>2026-04-04T13:10:43.946Z</time></trkpt><trkpt lat="44.6409088" lon="9.6825003"><ele>812.6666666666666</ele><time>2026-04-04T13:10:44.932Z</time></trkpt><trkpt lat="44.640728" lon="9.6826382"><ele>808.0</ele><time>2026-04-04T13:10:45.89Z</time></trkpt><trkpt lat="44.6405398" lon="9.6827488"><ele>807.0</ele><time>2026-04-04T13:10:46.942Z</time></trkpt><trkpt lat="44.6403547" lon="9.6827925"><ele>806.0</ele><time>2026-04-04T13:10:47.939Z</time></trkpt><trkpt lat="44.6401664" lon="9.6828108"><ele>805.0</ele><time>2026-04-04T13:10:48.908Z</time></trkpt><trkpt lat="44.6399973" lon="9.6828384"><ele>805.0</ele><time>2026-04-04T13:10:49.89Z</time></trkpt><trkpt lat="44.639881" lon="9.6828724"><ele>805.0</ele><time>2026-04-04T13:10:50.883Z</time></trkpt><trkpt lat="44.6397957" lon="9.6829455"><ele>805.0</ele><time>2026-04-04T13:10:51.943Z</time></trkpt><trkpt lat="44.6397482" lon="9.6830514"><ele>805.0</ele><time>2026-04-04T13:10:52.901Z</time></trkpt><trkpt lat="44.6397045" lon="9.6832309"><ele>805.0</ele><time>2026-04-04T13:10:53.904Z</time></trkpt><trkpt lat="44.6397073" lon="9.6834308"><ele>805.3333333333333</ele><time>2026-04-04T13:10:54.919Z</time></trkpt><trkpt lat="44.6397492" lon="9.6836493"><ele>805.6666666666667</ele><time>2026-04-04T13:10:55.898Z</time></trkpt><trkpt lat="44.6397798" lon="9.6838242"><ele>806.0</ele><time>2026-04-04T13:10:56.94Z</time></trkpt><trkpt lat="44.6396974" lon="9.6844149"><ele>807.3333333333334</ele><time>2026-04-04T13:11:00.323Z</time></trkpt><trkpt lat="44.6394904" lon="9.6846856"><ele>808.6666666666667</ele><time>2026-04-04T13:11:01.884Z</time></trkpt><trkpt lat="44.6393411" lon="9.6847648"><ele>810.0</ele><time>2026-04-04T13:11:02.893Z</time></trkpt><trkpt lat="44.6392191" lon="9.6848424"><ele>807.75</ele><time>2026-04-04T13:11:03.885Z</time></trkpt><trkpt lat="44.6390719" lon="9.6848287"><ele>805.5</ele><time>2026-04-04T13:11:04.883Z</time></trkpt><trkpt lat="44.6389352" lon="9.6847563"><ele>803.25</ele><time>2026-04-04T13:11:05.913Z</time></trkpt><trkpt lat="44.6388232" lon="9.6846988"><ele>801.0</ele><time>2026-04-04T13:11:06.913Z</time></trkpt><trkpt lat="44.6386989" lon="9.684707"><ele>800.0</ele><time>2026-04-04T13:11:07.915Z</time></trkpt><trkpt lat="44.6385501" lon="9.684808"><ele>799.0</ele><time>2026-04-04T13:11:08.89Z</time></trkpt><trkpt lat="44.6383732" lon="9.6849424"><ele>798.0</ele><time>2026-04-04T13:11:09.888Z</time></trkpt><trkpt lat="44.6382295" lon="9.6850249"><ele>798.0</ele><time>2026-04-04T13:11:10.9Z</time></trkpt><trkpt lat="44.6380948" lon="9.6850304"><ele>798.0</ele><time>2026-04-04T13:11:11.903Z</time></trkpt><trkpt lat="44.6379183" lon="9.6850084"><ele>798.0</ele><time>2026-04-04T13:11:12.94Z</time></trkpt><trkpt lat="44.6377531" lon="9.6849523"><ele>797.0</ele><time>2026-04-04T13:11:13.921Z</time></trkpt><trkpt lat="44.637626" lon="9.684895"><ele>796.0</ele><time>2026-04-04T13:11:14.887Z</time></trkpt><trkpt lat="44.6375263" lon="9.6848781"><ele>795.0</ele><time>2026-04-04T13:11:15.907Z</time></trkpt><trkpt lat="44.6374303" lon="9.6848868"><ele>794.0</ele><time>2026-04-04T13:11:16.922Z</time></trkpt><trkpt lat="44.637302" lon="9.684956"><ele>794.0</ele><time>2026-04-04T13:11:17.941Z</time></trkpt><trkpt lat="44.6371736" lon="9.6850859"><ele>794.0</ele><time>2026-04-04T13:11:18.944Z</time></trkpt><trkpt lat="44.6370353" lon="9.6852428"><ele>794.0</ele><time>2026-04-04T13:11:19.919Z</time></trkpt><trkpt lat="44.6369284" lon="9.6854291"><ele>792.5</ele><time>2026-04-04T13:11:20.958Z</time></trkpt><trkpt lat="44.636813" lon="9.685606"><ele>791.0</ele><time>2026-04-04T13:11:21.951Z</time></trkpt><trkpt lat="44.6367151" lon="9.6857444"><ele>789.5</ele><time>2026-04-04T13:11:22.946Z</time></trkpt><trkpt lat="44.6366131" lon="9.6858573"><ele>788.0</ele><time>2026-04-04T13:11:23.905Z</time></trkpt><trkpt lat="44.6365115" lon="9.6859623"><ele>788.0</ele><time>2026-04-04T13:11:24.887Z</time></trkpt><trkpt lat="44.6364391" lon="9.6860384"><ele>788.0</ele><time>2026-04-04T13:11:25.897Z</time></trkpt><trkpt lat="44.6363958" lon="9.6861552"><ele>788.0</ele><time>2026-04-04T13:11:26.947Z</time></trkpt><trkpt lat="44.6363801" lon="9.6862958"><ele>788.0</ele><time>2026-04-04T13:11:27.91Z</time></trkpt><trkpt lat="44.636395" lon="9.6864438"><ele>788.0</ele><time>2026-04-04T13:11:28.923Z</time></trkpt><trkpt lat="44.6364565" lon="9.6865886"><ele>786.25</ele><time>2026-04-04T13:11:29.914Z</time></trkpt><trkpt lat="44.6365462" lon="9.6867057"><ele>784.5</ele><time>2026-04-04T13:11:30.971Z</time></trkpt><trkpt lat="44.6366572" lon="9.686784"><ele>782.75</ele><time>2026-04-04T13:11:31.963Z</time></trkpt><trkpt lat="44.6368021" lon="9.686844"><ele>781.0</ele><time>2026-04-04T13:11:32.953Z</time></trkpt><trkpt lat="44.6369523" lon="9.6869246"><ele>781.0</ele><time>2026-04-04T13:11:33.933Z</time></trkpt><trkpt lat="44.6370808" lon="9.687022"><ele>781.0</ele><time>2026-04-04T13:11:34.963Z</time></trkpt><trkpt lat="44.6371697" lon="9.6871658"><ele>781.0</ele><time>2026-04-04T13:11:35.969Z</time></trkpt><trkpt lat="44.637215" lon="9.6873444"><ele>781.0</ele><time>2026-04-04T13:11:36.965Z</time></trkpt><trkpt lat="44.637269" lon="9.6875293"><ele>781.0</ele><time>2026-04-04T13:11:37.963Z</time></trkpt><trkpt lat="44.637361" lon="9.6877069"><ele>781.0</ele><time>2026-04-04T13:11:38.936Z</time></trkpt><trkpt lat="44.6374785" lon="9.687879"><ele>781.0</ele><time>2026-04-04T13:11:39.946Z</time></trkpt><trkpt lat="44.6375774" lon="9.6880048"><ele>780.0</ele><time>2026-04-04T13:11:40.966Z</time></trkpt><trkpt lat="44.6376402" lon="9.6881484"><ele>779.0</ele><time>2026-04-04T13:11:41.927Z</time></trkpt><trkpt lat="44.6376553" lon="9.6883136"><ele>778.0</ele><time>2026-04-04T13:11:42.949Z</time></trkpt><trkpt lat="44.6376196" lon="9.6884997"><ele>777.0</ele><time>2026-04-04T13:11:43.936Z</time></trkpt><trkpt lat="44.6375594" lon="9.6886835"><ele>777.0</ele><time>2026-04-04T13:11:44.888Z</time></trkpt><trkpt lat="44.6374868" lon="9.6888695"><ele>777.0</ele><time>2026-04-04T13:11:45.899Z</time></trkpt><trkpt lat="44.6374202" lon="9.6890844"><ele>777.0</ele><time>2026-04-04T13:11:46.962Z</time></trkpt><trkpt lat="44.637352" lon="9.6892893"><ele>776.5</ele><time>2026-04-04T13:11:47.956Z</time></trkpt><trkpt lat="44.637278" lon="9.6894677"><ele>776.0</ele><time>2026-04-04T13:11:48.921Z</time></trkpt><trkpt lat="44.6372063" lon="9.6896067"><ele>775.5</ele><time>2026-04-04T13:11:49.943Z</time></trkpt><trkpt lat="44.6371394" lon="9.689722"><ele>775.0</ele><time>2026-04-04T13:11:50.951Z</time></trkpt><trkpt lat="44.6371002" lon="9.6898407"><ele>775.0</ele><time>2026-04-04T13:11:51.957Z</time></trkpt><trkpt lat="44.6370991" lon="9.6899505"><ele>775.0</ele><time>2026-04-04T13:11:52.957Z</time></trkpt><trkpt lat="44.6371412" lon="9.6900563"><ele>775.0</ele><time>2026-04-04T13:11:53.962Z</time></trkpt><trkpt lat="44.6372234" lon="9.6901584"><ele>775.0</ele><time>2026-04-04T13:11:54.941Z</time></trkpt><trkpt lat="44.6373251" lon="9.6902707"><ele>775.0</ele><time>2026-04-04T13:11:55.942Z</time></trkpt><trkpt lat="44.6374176" lon="9.6904103"><ele>770.6666666666666</ele><time>2026-04-04T13:11:56.949Z</time></trkpt><trkpt lat="44.6374836" lon="9.6905853"><ele>766.3333333333333</ele><time>2026-04-04T13:11:57.95Z</time></trkpt><trkpt lat="44.637531" lon="9.6907814"><ele>762.0</ele><time>2026-04-04T13:11:58.927Z</time></trkpt><trkpt lat="44.6375426" lon="9.6910078"><ele>760.0</ele><time>2026-04-04T13:11:59.939Z</time></trkpt><trkpt lat="44.6375388" lon="9.691232"><ele>758.0</ele><time>2026-04-04T13:12:00.924Z</time></trkpt><trkpt lat="44.637543" lon="9.6914341"><ele>756.0</ele><time>2026-04-04T13:12:01.945Z</time></trkpt><trkpt lat="44.6375556" lon="9.6916123"><ele>754.0</ele><time>2026-04-04T13:12:02.946Z</time></trkpt><trkpt lat="44.6375886" lon="9.6917717"><ele>752.6</ele><time>2026-04-04T13:12:03.937Z</time></trkpt><trkpt lat="44.6376489" lon="9.6919273"><ele>751.2</ele><time>2026-04-04T13:12:04.958Z</time></trkpt><trkpt lat="44.6377091" lon="9.6920495"><ele>749.8000000000001</ele><time>2026-04-04T13:12:05.965Z</time></trkpt><trkpt lat="44.6377502" lon="9.6921631"><ele>748.4000000000001</ele><time>2026-04-04T13:12:06.966Z</time></trkpt><trkpt lat="44.6377551" lon="9.6922787"><ele>747.0</ele><time>2026-04-04T13:12:07.947Z</time></trkpt><trkpt lat="44.6377069" lon="9.6923805"><ele>747.0</ele><time>2026-04-04T13:12:08.947Z</time></trkpt><trkpt lat="44.637621" lon="9.6924528"><ele>747.0</ele><time>2026-04-04T13:12:09.964Z</time></trkpt><trkpt lat="44.6375116" lon="9.6924673"><ele>747.0</ele><time>2026-04-04T13:12:10.931Z</time></trkpt><trkpt lat="44.6373865" lon="9.692445"><ele>747.0</ele><time>2026-04-04T13:12:11.953Z</time></trkpt><trkpt lat="44.6372582" lon="9.692411"><ele>747.0</ele><time>2026-04-04T13:12:12.966Z</time></trkpt><trkpt lat="44.637145" lon="9.6923898"><ele>747.0</ele><time>2026-04-04T13:12:13.906Z</time></trkpt><trkpt lat="44.6370556" lon="9.6924111"><ele>747.0</ele><time>2026-04-04T13:12:14.935Z</time></trkpt><trkpt lat="44.6369685" lon="9.6924956"><ele>747.0</ele><time>2026-04-04T13:12:15.953Z</time></trkpt><trkpt lat="44.6368819" lon="9.6926338"><ele>747.0</ele><time>2026-04-04T13:12:16.964Z</time></trkpt><trkpt lat="44.6367973" lon="9.6927923"><ele>742.6666666666666</ele><time>2026-04-04T13:12:17.941Z</time></trkpt><trkpt lat="44.6367098" lon="9.6929913"><ele>738.3333333333333</ele><time>2026-04-04T13:12:18.957Z</time></trkpt><trkpt lat="44.6366234" lon="9.69319"><ele>734.0</ele><time>2026-04-04T13:12:19.935Z</time></trkpt><trkpt lat="44.6365612" lon="9.6933521"><ele>734.0</ele><time>2026-04-04T13:12:20.943Z</time></trkpt><trkpt lat="44.6365086" lon="9.6935094"><ele>734.0</ele><time>2026-04-04T13:12:21.953Z</time></trkpt><trkpt lat="44.6364613" lon="9.6936604"><ele>734.0</ele><time>2026-04-04T13:12:22.952Z</time></trkpt><trkpt lat="44.6364475" lon="9.6938516"><ele>734.0</ele><time>2026-04-04T13:12:23.929Z</time></trkpt><trkpt lat="44.6364852" lon="9.6940668"><ele>733.5</ele><time>2026-04-04T13:12:24.901Z</time></trkpt><trkpt lat="44.6365266" lon="9.6942681"><ele>733.0</ele><time>2026-04-04T13:12:25.942Z</time></trkpt><trkpt lat="44.6365683" lon="9.6944642"><ele>732.5</ele><time>2026-04-04T13:12:26.883Z</time></trkpt><trkpt lat="44.6366194" lon="9.6946273"><ele>732.0</ele><time>2026-04-04T13:12:27.887Z</time></trkpt><trkpt lat="44.6366695" lon="9.6947711"><ele>731.0</ele><time>2026-04-04T13:12:28.937Z</time></trkpt><trkpt lat="44.6367133" lon="9.6949046"><ele>730.0</ele><time>2026-04-04T13:12:29.963Z</time></trkpt><trkpt lat="44.6367411" lon="9.6950365"><ele>729.0</ele><time>2026-04-04T13:12:30.964Z</time></trkpt><trkpt lat="44.6367067" lon="9.6951388"><ele>728.0</ele><time>2026-04-04T13:12:31.948Z</time></trkpt><trkpt lat="44.6366214" lon="9.6951876"><ele>727.0</ele><time>2026-04-04T13:12:32.941Z</time></trkpt><trkpt lat="44.6365103" lon="9.6952176"><ele>727.0</ele><time>2026-04-04T13:12:33.96Z</time></trkpt><trkpt lat="44.6363919" lon="9.6952178"><ele>727.0</ele><time>2026-04-04T13:12:34.969Z</time></trkpt><trkpt lat="44.6362913" lon="9.6952447"><ele>727.0</ele><time>2026-04-04T13:12:35.943Z</time></trkpt><trkpt lat="44.6362014" lon="9.6952886"><ele>727.0</ele><time>2026-04-04T13:12:36.917Z</time></trkpt><trkpt lat="44.6361083" lon="9.69537"><ele>727.0</ele><time>2026-04-04T13:12:37.958Z</time></trkpt><trkpt lat="44.6360082" lon="9.695513"><ele>724.3333333333334</ele><time>2026-04-04T13:12:38.959Z</time></trkpt><trkpt lat="44.6359266" lon="9.6957061"><ele>721.6666666666666</ele><time>2026-04-04T13:12:39.974Z</time></trkpt><trkpt lat="44.6359101" lon="9.6959587"><ele>719.0</ele><time>2026-04-04T13:12:40.957Z</time></trkpt><trkpt lat="44.6358977" lon="9.6961741"><ele>719.0</ele><time>2026-04-04T13:12:41.931Z</time></trkpt><trkpt lat="44.6358884" lon="9.6963756"><ele>719.0</ele><time>2026-04-04T13:12:42.962Z</time></trkpt><trkpt lat="44.6358615" lon="9.6965374"><ele>719.0</ele><time>2026-04-04T13:12:43.927Z</time></trkpt><trkpt lat="44.635789" lon="9.6966784"><ele>719.0</ele><time>2026-04-04T13:12:44.963Z</time></trkpt><trkpt lat="44.6357018" lon="9.6968244"><ele>720.75</ele><time>2026-04-04T13:12:45.935Z</time></trkpt><trkpt lat="44.6356101" lon="9.6969743"><ele>722.5</ele><time>2026-04-04T13:12:46.95Z</time></trkpt><trkpt lat="44.6355139" lon="9.6971227"><ele>724.25</ele><time>2026-04-04T13:12:47.949Z</time></trkpt><trkpt lat="44.6354266" lon="9.6972609"><ele>726.0</ele><time>2026-04-04T13:12:48.953Z</time></trkpt><trkpt lat="44.6353377" lon="9.6973783"><ele>722.75</ele><time>2026-04-04T13:12:49.96Z</time></trkpt><trkpt lat="44.6352578" lon="9.6974773"><ele>719.5</ele><time>2026-04-04T13:12:50.944Z</time></trkpt><trkpt lat="44.6351885" lon="9.6975757"><ele>716.25</ele><time>2026-04-04T13:12:51.966Z</time></trkpt><trkpt lat="44.6351313" lon="9.697723"><ele>713.0</ele><time>2026-04-04T13:12:52.922Z</time></trkpt><trkpt lat="44.6350994" lon="9.6979026"><ele>713.0</ele><time>2026-04-04T13:12:53.952Z</time></trkpt><trkpt lat="44.6350636" lon="9.6981042"><ele>713.0</ele><time>2026-04-04T13:12:54.928Z</time></trkpt><trkpt lat="44.6350068" lon="9.6983158"><ele>713.0</ele><time>2026-04-04T13:12:55.956Z</time></trkpt><trkpt lat="44.6349196" lon="9.6985314"><ele>712.6666666666666</ele><time>2026-04-04T13:12:56.958Z</time></trkpt><trkpt lat="44.6348361" lon="9.698736"><ele>712.3333333333334</ele><time>2026-04-04T13:12:57.948Z</time></trkpt><trkpt lat="44.6347128" lon="9.6990876"><ele>712.0</ele><time>2026-04-04T13:12:59.961Z</time></trkpt><trkpt lat="44.6346716" lon="9.6992441"><ele>712.0</ele><time>2026-04-04T13:13:00.887Z</time></trkpt><trkpt lat="44.6346615" lon="9.699394"><ele>712.0</ele><time>2026-04-04T13:13:01.95Z</time></trkpt><trkpt lat="44.6346897" lon="9.6995755"><ele>712.0</ele><time>2026-04-04T13:13:02.902Z</time></trkpt><trkpt lat="44.6347366" lon="9.6997918"><ele>712.0</ele><time>2026-04-04T13:13:03.93Z</time></trkpt><trkpt lat="44.6347719" lon="9.7000233"><ele>712.3333333333334</ele><time>2026-04-04T13:13:04.929Z</time></trkpt><trkpt lat="44.6347848" lon="9.7002475"><ele>712.6666666666666</ele><time>2026-04-04T13:13:05.914Z</time></trkpt><trkpt lat="44.6347677" lon="9.7004609"><ele>713.0</ele><time>2026-04-04T13:13:06.957Z</time></trkpt><trkpt lat="44.6347291" lon="9.7006597"><ele>713.0</ele><time>2026-04-04T13:13:07.949Z</time></trkpt><trkpt lat="44.6346609" lon="9.7008775"><ele>713.0</ele><time>2026-04-04T13:13:08.965Z</time></trkpt><trkpt lat="44.6345786" lon="9.7011015"><ele>713.0</ele><time>2026-04-04T13:13:09.974Z</time></trkpt><trkpt lat="44.6345082" lon="9.7013421"><ele>709.75</ele><time>2026-04-04T13:13:10.965Z</time></trkpt><trkpt lat="44.6344497" lon="9.7015644"><ele>706.5</ele><time>2026-04-04T13:13:11.949Z</time></trkpt><trkpt lat="44.6344203" lon="9.7017463"><ele>703.25</ele><time>2026-04-04T13:13:12.95Z</time></trkpt><trkpt lat="44.6344191" lon="9.7018907"><ele>700.0</ele><time>2026-04-04T13:13:13.964Z</time></trkpt><trkpt lat="44.63445" lon="9.702002"><ele>702.25</ele><time>2026-04-04T13:13:14.949Z</time></trkpt><trkpt lat="44.6345258" lon="9.7020789"><ele>704.5</ele><time>2026-04-04T13:13:15.968Z</time></trkpt><trkpt lat="44.6346471" lon="9.7021274"><ele>706.75</ele><time>2026-04-04T13:13:16.959Z</time></trkpt><trkpt lat="44.6348034" lon="9.7021647"><ele>709.0</ele><time>2026-04-04T13:13:17.949Z</time></trkpt><trkpt lat="44.6349937" lon="9.7022139"><ele>709.0</ele><time>2026-04-04T13:13:18.956Z</time></trkpt><trkpt lat="44.6351687" lon="9.7022617"><ele>709.0</ele><time>2026-04-04T13:13:19.945Z</time></trkpt><trkpt lat="44.635318" lon="9.7023274"><ele>709.0</ele><time>2026-04-04T13:13:20.972Z</time></trkpt><trkpt lat="44.6354372" lon="9.7024104"><ele>711.3333333333334</ele><time>2026-04-04T13:13:21.947Z</time></trkpt><trkpt lat="44.6355425" lon="9.7025508"><ele>713.6666666666666</ele><time>2026-04-04T13:13:22.938Z</time></trkpt><trkpt lat="44.6356281" lon="9.7027448"><ele>716.0</ele><time>2026-04-04T13:13:23.961Z</time></trkpt><trkpt lat="44.6356784" lon="9.7029913"><ele>716.0</ele><time>2026-04-04T13:13:24.957Z</time></trkpt><trkpt lat="44.6357228" lon="9.7032618"><ele>716.0</ele><time>2026-04-04T13:13:25.961Z</time></trkpt><trkpt lat="44.6357526" lon="9.7035571"><ele>716.0</ele><time>2026-04-04T13:13:26.936Z</time></trkpt><trkpt lat="44.6358034" lon="9.7038346"><ele>715.3333333333333</ele><time>2026-04-04T13:13:27.939Z</time></trkpt><trkpt lat="44.6358332" lon="9.7040922"><ele>714.6666666666666</ele><time>2026-04-04T13:13:28.954Z</time></trkpt><trkpt lat="44.6358624" lon="9.7043134"><ele>714.0</ele><time>2026-04-04T13:13:29.961Z</time></trkpt><trkpt lat="44.6358886" lon="9.7045152"><ele>714.0</ele><time>2026-04-04T13:13:30.958Z</time></trkpt><trkpt lat="44.6359032" lon="9.7047143"><ele>714.0</ele><time>2026-04-04T13:13:31.945Z</time></trkpt><trkpt lat="44.6358935" lon="9.7048749"><ele>714.0</ele><time>2026-04-04T13:13:32.907Z</time></trkpt><trkpt lat="44.6358576" lon="9.7050257"><ele>714.0</ele><time>2026-04-04T13:13:33.923Z</time></trkpt><trkpt lat="44.6357934" lon="9.705151"><ele>715.5</ele><time>2026-04-04T13:13:34.916Z</time></trkpt><trkpt lat="44.6356984" lon="9.7052763"><ele>717.0</ele><time>2026-04-04T13:13:35.922Z</time></trkpt><trkpt lat="44.6356179" lon="9.7054009"><ele>718.5</ele><time>2026-04-04T13:13:36.966Z</time></trkpt><trkpt lat="44.6355718" lon="9.7055738"><ele>720.0</ele><time>2026-04-04T13:13:37.915Z</time></trkpt><trkpt lat="44.6355486" lon="9.7058179"><ele>720.0</ele><time>2026-04-04T13:13:38.916Z</time></trkpt><trkpt lat="44.6355382" lon="9.7060742"><ele>720.0</ele><time>2026-04-04T13:13:39.9Z</time></trkpt><trkpt lat="44.6355424" lon="9.7063066"><ele>720.0</ele><time>2026-04-04T13:13:40.93Z</time></trkpt><trkpt lat="44.6355537" lon="9.7065177"><ele>719.0</ele><time>2026-04-04T13:13:41.944Z</time></trkpt><trkpt lat="44.6355654" lon="9.7067073"><ele>718.0</ele><time>2026-04-04T13:13:42.917Z</time></trkpt><trkpt lat="44.6356064" lon="9.7068884"><ele>717.0</ele><time>2026-04-04T13:13:43.958Z</time></trkpt><trkpt lat="44.6356696" lon="9.7070454"><ele>716.0</ele><time>2026-04-04T13:13:44.941Z</time></trkpt><trkpt lat="44.6357698" lon="9.7071855"><ele>714.25</ele><time>2026-04-04T13:13:45.932Z</time></trkpt><trkpt lat="44.6358875" lon="9.707302"><ele>712.5</ele><time>2026-04-04T13:13:46.943Z</time></trkpt><trkpt lat="44.6360086" lon="9.7073853"><ele>710.75</ele><time>2026-04-04T13:13:47.93Z</time></trkpt><trkpt lat="44.6361133" lon="9.7074585"><ele>709.0</ele><time>2026-04-04T13:13:48.966Z</time></trkpt><trkpt lat="44.6361697" lon="9.7075717"><ele>710.0</ele><time>2026-04-04T13:13:49.955Z</time></trkpt><trkpt lat="44.6361875" lon="9.7076908"><ele>711.0</ele><time>2026-04-04T13:13:50.965Z</time></trkpt><trkpt lat="44.6361676" lon="9.7078187"><ele>712.0</ele><time>2026-04-04T13:13:51.963Z</time></trkpt><trkpt lat="44.6360955" lon="9.7079467"><ele>713.0</ele><time>2026-04-04T13:13:52.949Z</time></trkpt><trkpt lat="44.6359943" lon="9.7080517"><ele>714.0</ele><time>2026-04-04T13:13:53.956Z</time></trkpt><trkpt lat="44.6358893" lon="9.7081736"><ele>714.0</ele><time>2026-04-04T13:13:54.948Z</time></trkpt><trkpt lat="44.6357722" lon="9.7082804"><ele>714.0</ele><time>2026-04-04T13:13:55.94Z</time></trkpt><trkpt lat="44.6356529" lon="9.7084388"><ele>714.0</ele><time>2026-04-04T13:13:56.926Z</time></trkpt><trkpt lat="44.6355324" lon="9.7086149"><ele>716.3333333333334</ele><time>2026-04-04T13:13:57.937Z</time></trkpt><trkpt lat="44.6354519" lon="9.7088169"><ele>718.6666666666667</ele><time>2026-04-04T13:13:58.894Z</time></trkpt><trkpt lat="44.635413" lon="9.7090723"><ele>721.0</ele><time>2026-04-04T13:13:59.919Z</time></trkpt><trkpt lat="44.6354144" lon="9.7093148"><ele>718.5</ele><time>2026-04-04T13:14:00.916Z</time></trkpt><trkpt lat="44.635409" lon="9.709532"><ele>716.0</ele><time>2026-04-04T13:14:01.919Z</time></trkpt><trkpt lat="44.6353923" lon="9.7097272"><ele>713.5</ele><time>2026-04-04T13:14:02.942Z</time></trkpt><trkpt lat="44.6353131" lon="9.7098738"><ele>711.0</ele><time>2026-04-04T13:14:03.924Z</time></trkpt><trkpt lat="44.6352109" lon="9.7099919"><ele>711.0</ele><time>2026-04-04T13:14:04.937Z</time></trkpt><trkpt lat="44.6350903" lon="9.7100833"><ele>711.0</ele><time>2026-04-04T13:14:05.938Z</time></trkpt><trkpt lat="44.6349585" lon="9.7101163"><ele>711.0</ele><time>2026-04-04T13:14:06.946Z</time></trkpt><trkpt lat="44.6348044" lon="9.7101032"><ele>711.0</ele><time>2026-04-04T13:14:07.943Z</time></trkpt><trkpt lat="44.6346444" lon="9.7100356"><ele>711.0</ele><time>2026-04-04T13:14:08.93Z</time></trkpt><trkpt lat="44.6345047" lon="9.7099856"><ele>711.0</ele><time>2026-04-04T13:14:09.928Z</time></trkpt><trkpt lat="44.6343724" lon="9.7099514"><ele>711.0</ele><time>2026-04-04T13:14:10.948Z</time></trkpt><trkpt lat="44.634244" lon="9.7100374"><ele>711.0</ele><time>2026-04-04T13:14:11.946Z</time></trkpt><trkpt lat="44.6341324" lon="9.7101492"><ele>710.75</ele><time>2026-04-04T13:14:12.94Z</time></trkpt><trkpt lat="44.6340095" lon="9.7102392"><ele>710.5</ele><time>2026-04-04T13:14:13.937Z</time></trkpt><trkpt lat="44.6338994" lon="9.71034"><ele>710.25</ele><time>2026-04-04T13:14:14.939Z</time></trkpt><trkpt lat="44.6338185" lon="9.7104438"><ele>710.0</ele><time>2026-04-04T13:14:15.938Z</time></trkpt><trkpt lat="44.6337644" lon="9.7105864"><ele>711.0</ele><time>2026-04-04T13:14:16.943Z</time></trkpt><trkpt lat="44.6337304" lon="9.7107373"><ele>712.0</ele><time>2026-04-04T13:14:17.936Z</time></trkpt><trkpt lat="44.6337622" lon="9.7108857"><ele>713.0</ele><time>2026-04-04T13:14:18.937Z</time></trkpt><trkpt lat="44.6338294" lon="9.7110164"><ele>714.0</ele><time>2026-04-04T13:14:19.946Z</time></trkpt><trkpt lat="44.633946" lon="9.7111509"><ele>710.6666666666666</ele><time>2026-04-04T13:14:20.935Z</time></trkpt><trkpt lat="44.6340571" lon="9.7113106"><ele>707.3333333333333</ele><time>2026-04-04T13:14:21.948Z</time></trkpt><trkpt lat="44.6341431" lon="9.711485"><ele>704.0</ele><time>2026-04-04T13:14:22.977Z</time></trkpt><trkpt lat="44.6342067" lon="9.7116898"><ele>706.0</ele><time>2026-04-04T13:14:23.957Z</time></trkpt><trkpt lat="44.6342279" lon="9.7119133"><ele>708.0</ele><time>2026-04-04T13:14:24.934Z</time></trkpt><trkpt lat="44.6342151" lon="9.7121211"><ele>710.0</ele><time>2026-04-04T13:14:25.946Z</time></trkpt><trkpt lat="44.6341627" lon="9.7123083"><ele>710.0</ele><time>2026-04-04T13:14:26.894Z</time></trkpt><trkpt lat="44.6340574" lon="9.7124637"><ele>710.0</ele><time>2026-04-04T13:14:27.909Z</time></trkpt><trkpt lat="44.6339199" lon="9.7126187"><ele>710.0</ele><time>2026-04-04T13:14:28.952Z</time></trkpt><trkpt lat="44.6337916" lon="9.7127657"><ele>712.0</ele><time>2026-04-04T13:14:29.958Z</time></trkpt><trkpt lat="44.6336817" lon="9.712921"><ele>714.0</ele><time>2026-04-04T13:14:30.945Z</time></trkpt><trkpt lat="44.633596" lon="9.7130723"><ele>716.0</ele><time>2026-04-04T13:14:31.939Z</time></trkpt><trkpt lat="44.633515" lon="9.713219"><ele>718.0</ele><time>2026-04-04T13:14:32.941Z</time></trkpt><trkpt lat="44.633474" lon="9.7133506"><ele>712.4</ele><time>2026-04-04T13:14:33.95Z</time></trkpt><trkpt lat="44.6334543" lon="9.7134648"><ele>706.8</ele><time>2026-04-04T13:14:34.948Z</time></trkpt><trkpt lat="44.6334534" lon="9.713578"><ele>701.2</ele><time>2026-04-04T13:14:35.964Z</time></trkpt><trkpt lat="44.6334657" lon="9.7137056"><ele>695.6</ele><time>2026-04-04T13:14:36.91Z</time></trkpt><trkpt lat="44.6334657" lon="9.7138623"><ele>690.0</ele><time>2026-04-04T13:14:37.93Z</time></trkpt><trkpt lat="44.6334655" lon="9.7140527"><ele>690.0</ele><time>2026-04-04T13:14:38.956Z</time></trkpt><trkpt lat="44.6334419" lon="9.7142208"><ele>690.0</ele><time>2026-04-04T13:14:39.934Z</time></trkpt><trkpt lat="44.6333955" lon="9.7143922"><ele>690.0</ele><time>2026-04-04T13:14:40.938Z</time></trkpt><trkpt lat="44.6333128" lon="9.7145639"><ele>690.0</ele><time>2026-04-04T13:14:41.953Z</time></trkpt><trkpt lat="44.633211" lon="9.7147426"><ele>690.0</ele><time>2026-04-04T13:14:42.954Z</time></trkpt><trkpt lat="44.633098" lon="9.7149372"><ele>690.0</ele><time>2026-04-04T13:14:43.93Z</time></trkpt><trkpt lat="44.632984" lon="9.7151342"><ele>690.0</ele><time>2026-04-04T13:14:44.956Z</time></trkpt><trkpt lat="44.6328656" lon="9.7153431"><ele>688.3333333333334</ele><time>2026-04-04T13:14:45.927Z</time></trkpt><trkpt lat="44.6327482" lon="9.7155501"><ele>686.6666666666667</ele><time>2026-04-04T13:14:46.958Z</time></trkpt><trkpt lat="44.6326459" lon="9.715744"><ele>685.0</ele><time>2026-04-04T13:14:47.943Z</time></trkpt><trkpt lat="44.6325365" lon="9.7159247"><ele>688.0</ele><time>2026-04-04T13:14:48.96Z</time></trkpt><trkpt lat="44.6324219" lon="9.7160743"><ele>691.0</ele><time>2026-04-04T13:14:49.943Z</time></trkpt><trkpt lat="44.6322818" lon="9.7162061"><ele>694.0</ele><time>2026-04-04T13:14:50.963Z</time></trkpt><trkpt lat="44.6321216" lon="9.7163236"><ele>688.0</ele><time>2026-04-04T13:14:51.955Z</time></trkpt><trkpt lat="44.6319534" lon="9.716427"><ele>682.0</ele><time>2026-04-04T13:14:52.947Z</time></trkpt><trkpt lat="44.6318055" lon="9.7165084"><ele>676.0</ele><time>2026-04-04T13:14:53.959Z</time></trkpt><trkpt lat="44.6316632" lon="9.7165696"><ele>676.0</ele><time>2026-04-04T13:14:54.961Z</time></trkpt><trkpt lat="44.6315509" lon="9.7166517"><ele>676.0</ele><time>2026-04-04T13:14:55.926Z</time></trkpt><trkpt lat="44.6314688" lon="9.7167416"><ele>676.0</ele><time>2026-04-04T13:14:56.954Z</time></trkpt><trkpt lat="44.6314283" lon="9.7168554"><ele>676.0</ele><time>2026-04-04T13:14:57.963Z</time></trkpt><trkpt lat="44.63145" lon="9.7169782"><ele>676.0</ele><time>2026-04-04T13:14:58.958Z</time></trkpt><trkpt lat="44.6315141" lon="9.7171177"><ele>674.0</ele><time>2026-04-04T13:14:59.959Z</time></trkpt><trkpt lat="44.631597" lon="9.7172399"><ele>672.0</ele><time>2026-04-04T13:15:00.946Z</time></trkpt><trkpt lat="44.6317583" lon="9.7173457"><ele>670.0</ele><time>2026-04-04T13:15:01.978Z</time></trkpt><trkpt lat="44.6319337" lon="9.7174536"><ele>675.0</ele><time>2026-04-04T13:15:02.963Z</time></trkpt><trkpt lat="44.6321088" lon="9.7175555"><ele>680.0</ele><time>2026-04-04T13:15:03.947Z</time></trkpt><trkpt lat="44.6322639" lon="9.7176641"><ele>685.0</ele><time>2026-04-04T13:15:04.959Z</time></trkpt><trkpt lat="44.6323805" lon="9.7177842"><ele>685.25</ele><time>2026-04-04T13:15:05.981Z</time></trkpt><trkpt lat="44.6324167" lon="9.7179666"><ele>685.5</ele><time>2026-04-04T13:15:06.952Z</time></trkpt><trkpt lat="44.6323775" lon="9.7181625"><ele>685.75</ele><time>2026-04-04T13:15:07.955Z</time></trkpt><trkpt lat="44.6323015" lon="9.7183266"><ele>686.0</ele><time>2026-04-04T13:15:08.951Z</time></trkpt><trkpt lat="44.6321671" lon="9.7185091"><ele>680.5</ele><time>2026-04-04T13:15:09.953Z</time></trkpt><trkpt lat="44.6319674" lon="9.7187136"><ele>675.0</ele><time>2026-04-04T13:15:10.969Z</time></trkpt><trkpt lat="44.6317406" lon="9.7189481"><ele>675.0</ele><time>2026-04-04T13:15:11.956Z</time></trkpt><trkpt lat="44.631539" lon="9.7191875"><ele>675.0</ele><time>2026-04-04T13:15:12.942Z</time></trkpt><trkpt lat="44.6313396" lon="9.7194134"><ele>674.3333333333334</ele><time>2026-04-04T13:15:13.961Z</time></trkpt><trkpt lat="44.6311699" lon="9.7196262"><ele>673.6666666666667</ele><time>2026-04-04T13:15:14.959Z</time></trkpt><trkpt lat="44.6310342" lon="9.7197998"><ele>673.0</ele><time>2026-04-04T13:15:15.948Z</time></trkpt><trkpt lat="44.6309037" lon="9.7198987"><ele>673.0</ele><time>2026-04-04T13:15:16.918Z</time></trkpt><trkpt lat="44.6307705" lon="9.7199066"><ele>673.0</ele><time>2026-04-04T13:15:17.926Z</time></trkpt><trkpt lat="44.6306209" lon="9.7198941"><ele>673.0</ele><time>2026-04-04T13:15:18.96Z</time></trkpt><trkpt lat="44.6304732" lon="9.7198519"><ele>673.0</ele><time>2026-04-04T13:15:19.949Z</time></trkpt><trkpt lat="44.6303623" lon="9.7198305"><ele>670.5999999999999</ele><time>2026-04-04T13:15:20.964Z</time></trkpt><trkpt lat="44.6302825" lon="9.7198594"><ele>668.1999999999999</ele><time>2026-04-04T13:15:21.949Z</time></trkpt><trkpt lat="44.6301966" lon="9.7199189"><ele>665.8</ele><time>2026-04-04T13:15:22.969Z</time></trkpt><trkpt lat="44.6301423" lon="9.7200535"><ele>663.4</ele><time>2026-04-04T13:15:23.963Z</time></trkpt><trkpt lat="44.6301214" lon="9.7202239"><ele>661.0</ele><time>2026-04-04T13:15:24.928Z</time></trkpt><trkpt lat="44.6301449" lon="9.7204108"><ele>657.6666666666667</ele><time>2026-04-04T13:15:25.974Z</time></trkpt><trkpt lat="44.6302374" lon="9.7206101"><ele>654.3333333333334</ele><time>2026-04-04T13:15:26.903Z</time></trkpt><trkpt lat="44.6303347" lon="9.7208438"><ele>651.0</ele><time>2026-04-04T13:15:27.953Z</time></trkpt><trkpt lat="44.6304017" lon="9.7210218"><ele>651.25</ele><time>2026-04-04T13:15:28.907Z</time></trkpt><trkpt lat="44.630444" lon="9.7211377"><ele>651.5</ele><time>2026-04-04T13:15:29.974Z</time></trkpt><trkpt lat="44.6305497" lon="9.7212383"><ele>651.75</ele><time>2026-04-04T13:15:30.945Z</time></trkpt><trkpt lat="44.6306697" lon="9.7213524"><ele>652.0</ele><time>2026-04-04T13:15:31.954Z</time></trkpt><trkpt lat="44.6308407" lon="9.721463"><ele>652.0</ele><time>2026-04-04T13:15:32.951Z</time></trkpt><trkpt lat="44.6310485" lon="9.7215837"><ele>652.0</ele><time>2026-04-04T13:15:33.948Z</time></trkpt><trkpt lat="44.6312528" lon="9.7216797"><ele>652.0</ele><time>2026-04-04T13:15:34.964Z</time></trkpt><trkpt lat="44.6314514" lon="9.7217736"><ele>649.0</ele><time>2026-04-04T13:15:35.943Z</time></trkpt><trkpt lat="44.6316335" lon="9.7218987"><ele>646.0</ele><time>2026-04-04T13:15:36.938Z</time></trkpt><trkpt lat="44.6317892" lon="9.7220462"><ele>643.0</ele><time>2026-04-04T13:15:37.9Z</time></trkpt><trkpt lat="44.6319223" lon="9.7221978"><ele>647.0</ele><time>2026-04-04T13:15:38.914Z</time></trkpt><trkpt lat="44.6319954" lon="9.7223506"><ele>651.0</ele><time>2026-04-04T13:15:39.952Z</time></trkpt><trkpt lat="44.6320539" lon="9.7225139"><ele>655.0</ele><time>2026-04-04T13:15:40.883Z</time></trkpt><trkpt lat="44.6320703" lon="9.7226851"><ele>659.0</ele><time>2026-04-04T13:15:41.892Z</time></trkpt><trkpt lat="44.6320382" lon="9.7228656"><ele>651.6666666666666</ele><time>2026-04-04T13:15:42.943Z</time></trkpt><trkpt lat="44.6319705" lon="9.7230406"><ele>644.3333333333334</ele><time>2026-04-04T13:15:43.9Z</time></trkpt><trkpt lat="44.6318845" lon="9.7232042"><ele>637.0</ele><time>2026-04-04T13:15:44.917Z</time></trkpt><trkpt lat="44.6317985" lon="9.7233995"><ele>636.25</ele><time>2026-04-04T13:15:45.925Z</time></trkpt><trkpt lat="44.6317211" lon="9.7235888"><ele>635.5</ele><time>2026-04-04T13:15:46.908Z</time></trkpt><trkpt lat="44.6316528" lon="9.7237732"><ele>634.75</ele><time>2026-04-04T13:15:47.965Z</time></trkpt><trkpt lat="44.6315926" lon="9.7239548"><ele>634.0</ele><time>2026-04-04T13:15:48.924Z</time></trkpt><trkpt lat="44.6315426" lon="9.7241357"><ele>634.0</ele><time>2026-04-04T13:15:49.896Z</time></trkpt><trkpt lat="44.6315087" lon="9.7243158"><ele>634.0</ele><time>2026-04-04T13:15:50.93Z</time></trkpt><trkpt lat="44.6314908" lon="9.724477"><ele>634.0</ele><time>2026-04-04T13:15:51.951Z</time></trkpt><trkpt lat="44.6314802" lon="9.7246341"><ele>634.0</ele><time>2026-04-04T13:15:52.949Z</time></trkpt><trkpt lat="44.6314914" lon="9.7247992"><ele>631.5</ele><time>2026-04-04T13:15:53.953Z</time></trkpt><trkpt lat="44.6315342" lon="9.7249664"><ele>629.0</ele><time>2026-04-04T13:15:54.901Z</time></trkpt><trkpt lat="44.6315944" lon="9.7251349"><ele>626.5</ele><time>2026-04-04T13:15:55.954Z</time></trkpt><trkpt lat="44.6316838" lon="9.7252697"><ele>624.0</ele><time>2026-04-04T13:15:56.961Z</time></trkpt><trkpt lat="44.6317761" lon="9.7253925"><ele>622.8</ele><time>2026-04-04T13:15:57.96Z</time></trkpt><trkpt lat="44.631866" lon="9.7254979"><ele>621.5999999999999</ele><time>2026-04-04T13:15:58.916Z</time></trkpt><trkpt lat="44.631933" lon="9.7255832"><ele>620.4</ele><time>2026-04-04T13:15:59.919Z</time></trkpt><trkpt lat="44.6319674" lon="9.7257045"><ele>619.1999999999999</ele><time>2026-04-04T13:16:00.959Z</time></trkpt><trkpt lat="44.6319526" lon="9.7258496"><ele>618.0</ele><time>2026-04-04T13:16:01.957Z</time></trkpt><trkpt lat="44.631891" lon="9.7259696"><ele>620.5</ele><time>2026-04-04T13:16:02.966Z</time></trkpt><trkpt lat="44.6317896" lon="9.7260657"><ele>623.0</ele><time>2026-04-04T13:16:03.957Z</time></trkpt><trkpt lat="44.6316751" lon="9.7261545"><ele>625.5</ele><time>2026-04-04T13:16:04.973Z</time></trkpt><trkpt lat="44.6315659" lon="9.7262359"><ele>628.0</ele><time>2026-04-04T13:16:05.939Z</time></trkpt><trkpt lat="44.6314636" lon="9.7263178"><ele>628.0</ele><time>2026-04-04T13:16:06.922Z</time></trkpt><trkpt lat="44.6313888" lon="9.7264196"><ele>628.0</ele><time>2026-04-04T13:16:07.943Z</time></trkpt><trkpt lat="44.6313269" lon="9.7265387"><ele>628.0</ele><time>2026-04-04T13:16:08.945Z</time></trkpt><trkpt lat="44.6312805" lon="9.7266834"><ele>628.0</ele><time>2026-04-04T13:16:09.942Z</time></trkpt><trkpt lat="44.6312435" lon="9.7268452"><ele>628.0</ele><time>2026-04-04T13:16:10.969Z</time></trkpt><trkpt lat="44.6312074" lon="9.727024"><ele>628.0</ele><time>2026-04-04T13:16:11.953Z</time></trkpt><trkpt lat="44.6311784" lon="9.7271985"><ele>628.0</ele><time>2026-04-04T13:16:12.967Z</time></trkpt><trkpt lat="44.6311511" lon="9.7273609"><ele>628.0</ele><time>2026-04-04T13:16:13.955Z</time></trkpt><trkpt lat="44.6311322" lon="9.7275119"><ele>628.0</ele><time>2026-04-04T13:16:14.973Z</time></trkpt><trkpt lat="44.6311195" lon="9.727659"><ele>622.4</ele><time>2026-04-04T13:16:15.974Z</time></trkpt><trkpt lat="44.631104" lon="9.7277986"><ele>616.8</ele><time>2026-04-04T13:16:16.942Z</time></trkpt><trkpt lat="44.6310892" lon="9.727937"><ele>611.2</ele><time>2026-04-04T13:16:17.947Z</time></trkpt><trkpt lat="44.6310734" lon="9.7280771"><ele>605.6</ele><time>2026-04-04T13:16:18.953Z</time></trkpt><trkpt lat="44.6310668" lon="9.7282121"><ele>600.0</ele><time>2026-04-04T13:16:19.944Z</time></trkpt><trkpt lat="44.6310817" lon="9.7283274"><ele>600.0</ele><time>2026-04-04T13:16:20.962Z</time></trkpt><trkpt lat="44.6311145" lon="9.7284287"><ele>600.0</ele><time>2026-04-04T13:16:21.983Z</time></trkpt><trkpt lat="44.6311538" lon="9.7285232"><ele>600.0</ele><time>2026-04-04T13:16:22.96Z</time></trkpt><trkpt lat="44.6311994" lon="9.7286178"><ele>600.0</ele><time>2026-04-04T13:16:23.962Z</time></trkpt><trkpt lat="44.631245" lon="9.7287191"><ele>600.0</ele><time>2026-04-04T13:16:24.957Z</time></trkpt><trkpt lat="44.6312971" lon="9.7288184"><ele>600.0</ele><time>2026-04-04T13:16:25.946Z</time></trkpt><trkpt lat="44.6313495" lon="9.7289228"><ele>601.0</ele><time>2026-04-04T13:16:26.931Z</time></trkpt><trkpt lat="44.6313975" lon="9.7290207"><ele>602.0</ele><time>2026-04-04T13:16:27.928Z</time></trkpt><trkpt lat="44.6314431" lon="9.7291105"><ele>603.0</ele><time>2026-04-04T13:16:28.953Z</time></trkpt><trkpt lat="44.6314892" lon="9.7291822"><ele>604.0</ele><time>2026-04-04T13:16:29.941Z</time></trkpt><trkpt lat="44.6315441" lon="9.7292818"><ele>605.0</ele><time>2026-04-04T13:16:31.945Z</time></trkpt><trkpt lat="44.6315793" lon="9.7293839"><ele>606.0</ele><time>2026-04-04T13:17:19.956Z</time></trkpt><trkpt lat="44.6316914" lon="9.729529"><ele>606.0</ele><time>2026-04-04T13:17:21.948Z</time></trkpt><trkpt lat="44.6317622" lon="9.7296385"><ele>606.0</ele><time>2026-04-04T13:17:22.969Z</time></trkpt><trkpt lat="44.6318285" lon="9.7297627"><ele>606.0</ele><time>2026-04-04T13:17:23.969Z</time></trkpt><trkpt lat="44.631907" lon="9.7299072"><ele>606.0</ele><time>2026-04-04T13:17:24.94Z</time></trkpt><trkpt lat="44.6319858" lon="9.7300429"><ele>607.2</ele><time>2026-04-04T13:17:25.955Z</time></trkpt><trkpt lat="44.6320593" lon="9.7301771"><ele>608.4000000000001</ele><time>2026-04-04T13:17:26.946Z</time></trkpt><trkpt lat="44.6321009" lon="9.7303159"><ele>609.6</ele><time>2026-04-04T13:17:27.891Z</time></trkpt><trkpt lat="44.6321292" lon="9.730466"><ele>610.8000000000001</ele><time>2026-04-04T13:17:28.911Z</time></trkpt><trkpt lat="44.6321573" lon="9.7306052"><ele>612.0</ele><time>2026-04-04T13:17:29.969Z</time></trkpt><trkpt lat="44.6322108" lon="9.7307343"><ele>612.0</ele><time>2026-04-04T13:17:30.955Z</time></trkpt><trkpt lat="44.6322714" lon="9.7308506"><ele>612.0</ele><time>2026-04-04T13:17:31.966Z</time></trkpt><trkpt lat="44.632326" lon="9.7309733"><ele>612.0</ele><time>2026-04-04T13:17:32.972Z</time></trkpt><trkpt lat="44.6323919" lon="9.7311111"><ele>612.0</ele><time>2026-04-04T13:17:33.964Z</time></trkpt><trkpt lat="44.6324546" lon="9.731252"><ele>612.0</ele><time>2026-04-04T13:17:34.972Z</time></trkpt><trkpt lat="44.6325315" lon="9.7313861"><ele>611.25</ele><time>2026-04-04T13:17:35.963Z</time></trkpt><trkpt lat="44.6326048" lon="9.7315257"><ele>610.5</ele><time>2026-04-04T13:17:37.003Z</time></trkpt><trkpt lat="44.6326883" lon="9.7316412"><ele>609.75</ele><time>2026-04-04T13:17:37.951Z</time></trkpt><trkpt lat="44.6327975" lon="9.7317247"><ele>609.0</ele><time>2026-04-04T13:17:38.967Z</time></trkpt><trkpt lat="44.632923" lon="9.7317962"><ele>609.0</ele><time>2026-04-04T13:17:39.965Z</time></trkpt><trkpt lat="44.6330478" lon="9.7318626"><ele>609.0</ele><time>2026-04-04T13:17:40.947Z</time></trkpt><trkpt lat="44.6331655" lon="9.7319231"><ele>609.0</ele><time>2026-04-04T13:17:41.947Z</time></trkpt><trkpt lat="44.6332623" lon="9.7319498"><ele>609.0</ele><time>2026-04-04T13:17:42.963Z</time></trkpt><trkpt lat="44.6333289" lon="9.7319111"><ele>609.0</ele><time>2026-04-04T13:17:43.937Z</time></trkpt><trkpt lat="44.6334412" lon="9.7317413"><ele>609.0</ele><time>2026-04-04T13:17:45.963Z</time></trkpt><trkpt lat="44.6334822" lon="9.7316448"><ele>609.0</ele><time>2026-04-04T13:17:46.952Z</time></trkpt><trkpt lat="44.6335316" lon="9.7315582"><ele>609.0</ele><time>2026-04-04T13:17:47.956Z</time></trkpt><trkpt lat="44.6335863" lon="9.7314786"><ele>609.0</ele><time>2026-04-04T13:17:48.948Z</time></trkpt><trkpt lat="44.6336264" lon="9.7314039"><ele>609.0</ele><time>2026-04-04T13:17:49.956Z</time></trkpt><trkpt lat="44.6336748" lon="9.7313101"><ele>609.0</ele><time>2026-04-04T13:17:50.956Z</time></trkpt><trkpt lat="44.6337152" lon="9.7312084"><ele>608.0</ele><time>2026-04-04T13:17:51.892Z</time></trkpt><trkpt lat="44.6337846" lon="9.7311173"><ele>607.0</ele><time>2026-04-04T13:17:52.925Z</time></trkpt><trkpt lat="44.6338775" lon="9.7310473"><ele>606.0</ele><time>2026-04-04T13:17:53.953Z</time></trkpt><trkpt lat="44.633985" lon="9.7310078"><ele>605.0</ele><time>2026-04-04T13:17:54.955Z</time></trkpt><trkpt lat="44.6341021" lon="9.7309812"><ele>604.0</ele><time>2026-04-04T13:17:55.942Z</time></trkpt><trkpt lat="44.6342323" lon="9.7309738"><ele>604.0</ele><time>2026-04-04T13:17:56.941Z</time></trkpt><trkpt lat="44.6343554" lon="9.7310052"><ele>604.0</ele><time>2026-04-04T13:17:57.908Z</time></trkpt><trkpt lat="44.6344553" lon="9.7311064"><ele>604.0</ele><time>2026-04-04T13:17:58.946Z</time></trkpt><trkpt lat="44.6345377" lon="9.7312327"><ele>604.0</ele><time>2026-04-04T13:17:59.93Z</time></trkpt><trkpt lat="44.6346263" lon="9.731387"><ele>606.25</ele><time>2026-04-04T13:18:00.954Z</time></trkpt><trkpt lat="44.6347258" lon="9.731548"><ele>608.5</ele><time>2026-04-04T13:18:01.925Z</time></trkpt><trkpt lat="44.6348207" lon="9.7317078"><ele>610.75</ele><time>2026-04-04T13:18:02.952Z</time></trkpt><trkpt lat="44.6348809" lon="9.7318603"><ele>613.0</ele><time>2026-04-04T13:18:03.95Z</time></trkpt><trkpt lat="44.6349113" lon="9.7320326"><ele>613.0</ele><time>2026-04-04T13:18:04.954Z</time></trkpt><trkpt lat="44.6349089" lon="9.7322309"><ele>613.0</ele><time>2026-04-04T13:18:05.951Z</time></trkpt><trkpt lat="44.6348915" lon="9.7324231"><ele>613.0</ele><time>2026-04-04T13:18:06.941Z</time></trkpt><trkpt lat="44.634896" lon="9.7325992"><ele>613.0</ele><time>2026-04-04T13:18:07.944Z</time></trkpt><trkpt lat="44.6349287" lon="9.7327679"><ele>612.4</ele><time>2026-04-04T13:18:08.959Z</time></trkpt><trkpt lat="44.6349902" lon="9.7329098"><ele>611.8</ele><time>2026-04-04T13:18:09.967Z</time></trkpt><trkpt lat="44.6350555" lon="9.7329903"><ele>611.2</ele><time>2026-04-04T13:18:10.968Z</time></trkpt><trkpt lat="44.6351299" lon="9.7330234"><ele>610.6</ele><time>2026-04-04T13:18:11.961Z</time></trkpt><trkpt lat="44.6352454" lon="9.7330355"><ele>610.0</ele><time>2026-04-04T13:18:12.907Z</time></trkpt><trkpt lat="44.635395" lon="9.733036"><ele>612.5</ele><time>2026-04-04T13:18:13.95Z</time></trkpt><trkpt lat="44.6355551" lon="9.7330407"><ele>615.0</ele><time>2026-04-04T13:18:14.931Z</time></trkpt><trkpt lat="44.6356983" lon="9.7330562"><ele>617.5</ele><time>2026-04-04T13:18:15.957Z</time></trkpt><trkpt lat="44.6358286" lon="9.733109"><ele>620.0</ele><time>2026-04-04T13:18:16.898Z</time></trkpt><trkpt lat="44.6359283" lon="9.7332262"><ele>620.0</ele><time>2026-04-04T13:18:17.94Z</time></trkpt><trkpt lat="44.6360122" lon="9.7333862"><ele>620.0</ele><time>2026-04-04T13:18:18.935Z</time></trkpt><trkpt lat="44.6360955" lon="9.7335652"><ele>620.0</ele><time>2026-04-04T13:18:19.889Z</time></trkpt><trkpt lat="44.636169" lon="9.7337503"><ele>620.0</ele><time>2026-04-04T13:18:20.96Z</time></trkpt><trkpt lat="44.6362555" lon="9.7339096"><ele>621.0</ele><time>2026-04-04T13:18:21.948Z</time></trkpt><trkpt lat="44.636358" lon="9.7340243"><ele>622.0</ele><time>2026-04-04T13:18:22.965Z</time></trkpt><trkpt lat="44.6364782" lon="9.7340982"><ele>623.0</ele><time>2026-04-04T13:18:23.971Z</time></trkpt><trkpt lat="44.6365927" lon="9.7341181"><ele>624.0</ele><time>2026-04-04T13:18:24.947Z</time></trkpt><trkpt lat="44.6367158" lon="9.7340944"><ele>624.0</ele><time>2026-04-04T13:18:25.948Z</time></trkpt><trkpt lat="44.6368349" lon="9.7340461"><ele>624.0</ele><time>2026-04-04T13:18:26.902Z</time></trkpt><trkpt lat="44.6369406" lon="9.7340002"><ele>624.0</ele><time>2026-04-04T13:18:27.886Z</time></trkpt><trkpt lat="44.6370402" lon="9.7339823"><ele>624.0</ele><time>2026-04-04T13:18:28.952Z</time></trkpt><trkpt lat="44.6371391" lon="9.7340134"><ele>624.0</ele><time>2026-04-04T13:18:29.916Z</time></trkpt><trkpt lat="44.6372221" lon="9.7341025"><ele>625.0</ele><time>2026-04-04T13:18:30.963Z</time></trkpt><trkpt lat="44.6372916" lon="9.7342886"><ele>626.0</ele><time>2026-04-04T13:18:31.946Z</time></trkpt><trkpt lat="44.637367" lon="9.7344543"><ele>627.0</ele><time>2026-04-04T13:18:32.925Z</time></trkpt><trkpt lat="44.637459" lon="9.7345879"><ele>628.0</ele><time>2026-04-04T13:18:33.972Z</time></trkpt><trkpt lat="44.6375646" lon="9.7346956"><ele>628.0</ele><time>2026-04-04T13:18:34.954Z</time></trkpt><trkpt lat="44.6376878" lon="9.7347801"><ele>628.0</ele><time>2026-04-04T13:18:35.96Z</time></trkpt><trkpt lat="44.6377926" lon="9.7348692"><ele>628.0</ele><time>2026-04-04T13:18:36.949Z</time></trkpt><trkpt lat="44.6378698" lon="9.7349785"><ele>628.0</ele><time>2026-04-04T13:18:37.941Z</time></trkpt><trkpt lat="44.6379309" lon="9.7351176"><ele>628.75</ele><time>2026-04-04T13:18:38.95Z</time></trkpt><trkpt lat="44.6379868" lon="9.7352834"><ele>629.5</ele><time>2026-04-04T13:18:39.922Z</time></trkpt><trkpt lat="44.6380563" lon="9.7354504"><ele>630.25</ele><time>2026-04-04T13:18:40.981Z</time></trkpt><trkpt lat="44.638164" lon="9.7355945"><ele>631.0</ele><time>2026-04-04T13:18:41.939Z</time></trkpt><trkpt lat="44.6383142" lon="9.7356784"><ele>631.0</ele><time>2026-04-04T13:18:42.96Z</time></trkpt><trkpt lat="44.6384716" lon="9.7357426"><ele>631.0</ele><time>2026-04-04T13:18:43.927Z</time></trkpt><trkpt lat="44.6386362" lon="9.7357939"><ele>631.0</ele><time>2026-04-04T13:18:44.933Z</time></trkpt><trkpt lat="44.6387954" lon="9.7358383"><ele>632.6666666666667</ele><time>2026-04-04T13:18:45.956Z</time></trkpt><trkpt lat="44.6389495" lon="9.7359018"><ele>634.3333333333334</ele><time>2026-04-04T13:18:46.942Z</time></trkpt><trkpt lat="44.6390717" lon="9.7360178"><ele>636.0</ele><time>2026-04-04T13:18:47.974Z</time></trkpt><trkpt lat="44.6391609" lon="9.7362087"><ele>636.0</ele><time>2026-04-04T13:18:48.901Z</time></trkpt><trkpt lat="44.6392458" lon="9.7364243"><ele>636.0</ele><time>2026-04-04T13:18:49.899Z</time></trkpt><trkpt lat="44.6393265" lon="9.7366171"><ele>636.0</ele><time>2026-04-04T13:18:50.938Z</time></trkpt><trkpt lat="44.6394047" lon="9.7368247"><ele>635.5</ele><time>2026-04-04T13:18:51.952Z</time></trkpt><trkpt lat="44.6394392" lon="9.7370449"><ele>635.0</ele><time>2026-04-04T13:18:52.917Z</time></trkpt><trkpt lat="44.6394368" lon="9.73726"><ele>634.5</ele><time>2026-04-04T13:18:53.932Z</time></trkpt><trkpt lat="44.6394427" lon="9.7374373"><ele>634.0</ele><time>2026-04-04T13:18:54.909Z</time></trkpt><trkpt lat="44.6394804" lon="9.7375951"><ele>638.6666666666667</ele><time>2026-04-04T13:18:55.937Z</time></trkpt><trkpt lat="44.6395617" lon="9.7377377"><ele>643.3333333333334</ele><time>2026-04-04T13:18:56.899Z</time></trkpt><trkpt lat="44.6396654" lon="9.7379125"><ele>648.0</ele><time>2026-04-04T13:18:57.893Z</time></trkpt><trkpt lat="44.6397603" lon="9.7381001"><ele>648.0</ele><time>2026-04-04T13:18:58.922Z</time></trkpt><trkpt lat="44.6398359" lon="9.7383252"><ele>648.0</ele><time>2026-04-04T13:18:59.931Z</time></trkpt><trkpt lat="44.6398894" lon="9.7385413"><ele>648.0</ele><time>2026-04-04T13:19:00.923Z</time></trkpt><trkpt lat="44.6399458" lon="9.7387399"><ele>647.0</ele><time>2026-04-04T13:19:01.949Z</time></trkpt><trkpt lat="44.6400087" lon="9.7388744"><ele>646.0</ele><time>2026-04-04T13:19:02.957Z</time></trkpt><trkpt lat="44.6400684" lon="9.7389455"><ele>645.0</ele><time>2026-04-04T13:19:03.956Z</time></trkpt><trkpt lat="44.6401402" lon="9.7389587"><ele>644.0</ele><time>2026-04-04T13:19:04.967Z</time></trkpt><trkpt lat="44.6402377" lon="9.7389288"><ele>643.0</ele><time>2026-04-04T13:19:05.918Z</time></trkpt><trkpt lat="44.640326" lon="9.7388776"><ele>641.75</ele><time>2026-04-04T13:19:06.939Z</time></trkpt><trkpt lat="44.6404204" lon="9.7387791"><ele>640.5</ele><time>2026-04-04T13:19:07.968Z</time></trkpt><trkpt lat="44.6405215" lon="9.7386673"><ele>639.25</ele><time>2026-04-04T13:19:08.947Z</time></trkpt><trkpt lat="44.640632" lon="9.7385276"><ele>638.0</ele><time>2026-04-04T13:19:09.959Z</time></trkpt><trkpt lat="44.6407538" lon="9.7383907"><ele>637.25</ele><time>2026-04-04T13:19:10.958Z</time></trkpt><trkpt lat="44.6408736" lon="9.7382496"><ele>636.5</ele><time>2026-04-04T13:19:11.949Z</time></trkpt><trkpt lat="44.6409952" lon="9.7381138"><ele>635.75</ele><time>2026-04-04T13:19:12.956Z</time></trkpt><trkpt lat="44.6410936" lon="9.7379857"><ele>635.0</ele><time>2026-04-04T13:19:13.976Z</time></trkpt><trkpt lat="44.6411653" lon="9.737831"><ele>638.0</ele><time>2026-04-04T13:19:14.944Z</time></trkpt><trkpt lat="44.6412079" lon="9.7376473"><ele>641.0</ele><time>2026-04-04T13:19:15.935Z</time></trkpt><trkpt lat="44.6412366" lon="9.7374427"><ele>644.0</ele><time>2026-04-04T13:19:16.947Z</time></trkpt><trkpt lat="44.6412527" lon="9.7372361"><ele>647.0</ele><time>2026-04-04T13:19:17.952Z</time></trkpt><trkpt lat="44.6412789" lon="9.7370546"><ele>647.0</ele><time>2026-04-04T13:19:18.942Z</time></trkpt><trkpt lat="44.6413266" lon="9.7368874"><ele>647.0</ele><time>2026-04-04T13:19:19.953Z</time></trkpt><trkpt lat="44.6414239" lon="9.736732"><ele>647.0</ele><time>2026-04-04T13:19:20.949Z</time></trkpt><trkpt lat="44.6415599" lon="9.7365857"><ele>647.0</ele><time>2026-04-04T13:19:21.954Z</time></trkpt><trkpt lat="44.6416997" lon="9.7364459"><ele>650.0</ele><time>2026-04-04T13:19:22.953Z</time></trkpt><trkpt lat="44.6418166" lon="9.7363093"><ele>653.0</ele><time>2026-04-04T13:19:23.956Z</time></trkpt><trkpt lat="44.6419169" lon="9.7361777"><ele>656.0</ele><time>2026-04-04T13:19:24.946Z</time></trkpt><trkpt lat="44.642003" lon="9.7360315"><ele>659.0</ele><time>2026-04-04T13:19:25.947Z</time></trkpt><trkpt lat="44.6420536" lon="9.7358682"><ele>659.2</ele><time>2026-04-04T13:19:26.945Z</time></trkpt><trkpt lat="44.6420867" lon="9.735696"><ele>659.4000000000001</ele><time>2026-04-04T13:19:27.903Z</time></trkpt><trkpt lat="44.6421086" lon="9.735557"><ele>659.6</ele><time>2026-04-04T13:19:28.952Z</time></trkpt><trkpt lat="44.6421337" lon="9.7354484"><ele>659.8</ele><time>2026-04-04T13:19:29.946Z</time></trkpt><trkpt lat="44.6421934" lon="9.7354115"><ele>660.0</ele><time>2026-04-04T13:19:30.965Z</time></trkpt><trkpt lat="44.6422874" lon="9.7354447"><ele>660.0</ele><time>2026-04-04T13:19:31.952Z</time></trkpt><trkpt lat="44.6423792" lon="9.7355151"><ele>660.0</ele><time>2026-04-04T13:19:32.953Z</time></trkpt><trkpt lat="44.6424891" lon="9.7356115"><ele>660.0</ele><time>2026-04-04T13:19:33.908Z</time></trkpt><trkpt lat="44.642635" lon="9.7357243"><ele>660.0</ele><time>2026-04-04T13:19:34.942Z</time></trkpt><trkpt lat="44.6427982" lon="9.735838"><ele>659.75</ele><time>2026-04-04T13:19:35.949Z</time></trkpt><trkpt lat="44.6429655" lon="9.7359137"><ele>659.5</ele><time>2026-04-04T13:19:36.914Z</time></trkpt><trkpt lat="44.6431056" lon="9.7360018"><ele>659.25</ele><time>2026-04-04T13:19:37.948Z</time></trkpt><trkpt lat="44.6431796" lon="9.7361225"><ele>659.0</ele><time>2026-04-04T13:19:38.97Z</time></trkpt><trkpt lat="44.6432226" lon="9.7362642"><ele>659.0</ele><time>2026-04-04T13:19:39.961Z</time></trkpt><trkpt lat="44.6432592" lon="9.7363749"><ele>659.0</ele><time>2026-04-04T13:19:40.938Z</time></trkpt><trkpt lat="44.643323" lon="9.73643"><ele>659.0</ele><time>2026-04-04T13:19:41.998Z</time></trkpt><trkpt lat="44.6434226" lon="9.7364196"><ele>659.0</ele><time>2026-04-04T13:19:42.981Z</time></trkpt><trkpt lat="44.6435304" lon="9.7363414"><ele>659.0</ele><time>2026-04-04T13:19:43.959Z</time></trkpt><trkpt lat="44.6436363" lon="9.7362198"><ele>661.6666666666666</ele><time>2026-04-04T13:19:44.91Z</time></trkpt><trkpt lat="44.6437449" lon="9.736049"><ele>664.3333333333334</ele><time>2026-04-04T13:19:45.938Z</time></trkpt><trkpt lat="44.6438707" lon="9.7358545"><ele>667.0</ele><time>2026-04-04T13:19:46.942Z</time></trkpt><trkpt lat="44.6440041" lon="9.7356554"><ele>667.0</ele><time>2026-04-04T13:19:47.964Z</time></trkpt><trkpt lat="44.6441421" lon="9.7354566"><ele>667.0</ele><time>2026-04-04T13:19:48.946Z</time></trkpt><trkpt lat="44.644272" lon="9.7352717"><ele>667.0</ele><time>2026-04-04T13:19:49.959Z</time></trkpt><trkpt lat="44.6443829" lon="9.7350557"><ele>669.0</ele><time>2026-04-04T13:19:50.956Z</time></trkpt><trkpt lat="44.6444789" lon="9.7348046"><ele>671.0</ele><time>2026-04-04T13:19:51.903Z</time></trkpt><trkpt lat="44.6445596" lon="9.7345572"><ele>673.0</ele><time>2026-04-04T13:19:52.957Z</time></trkpt><trkpt lat="44.6446633" lon="9.7343237"><ele>676.5</ele><time>2026-04-04T13:19:53.955Z</time></trkpt><trkpt lat="44.644762" lon="9.7341381"><ele>680.0</ele><time>2026-04-04T13:19:54.966Z</time></trkpt><trkpt lat="44.6448661" lon="9.7339851"><ele>683.5</ele><time>2026-04-04T13:19:55.944Z</time></trkpt><trkpt lat="44.6449659" lon="9.7339057"><ele>687.0</ele><time>2026-04-04T13:19:56.94Z</time></trkpt><trkpt lat="44.6450879" lon="9.7338788"><ele>687.0</ele><time>2026-04-04T13:19:57.926Z</time></trkpt><trkpt lat="44.6452539" lon="9.7338789"><ele>687.0</ele><time>2026-04-04T13:19:58.925Z</time></trkpt><trkpt lat="44.6454296" lon="9.7338955"><ele>687.0</ele><time>2026-04-04T13:19:59.932Z</time></trkpt><trkpt lat="44.645589" lon="9.7339304"><ele>688.3333333333334</ele><time>2026-04-04T13:20:00.948Z</time></trkpt><trkpt lat="44.6457442" lon="9.7340037"><ele>689.6666666666667</ele><time>2026-04-04T13:20:01.941Z</time></trkpt><trkpt lat="44.6458792" lon="9.734136"><ele>691.0</ele><time>2026-04-04T13:20:02.947Z</time></trkpt><trkpt lat="44.6460042" lon="9.7343033"><ele>692.25</ele><time>2026-04-04T13:20:03.949Z</time></trkpt><trkpt lat="44.6461245" lon="9.7344714"><ele>693.5</ele><time>2026-04-04T13:20:04.933Z</time></trkpt><trkpt lat="44.646213" lon="9.7346397"><ele>694.75</ele><time>2026-04-04T13:20:05.946Z</time></trkpt><trkpt lat="44.6462702" lon="9.7347874"><ele>696.0</ele><time>2026-04-04T13:20:06.96Z</time></trkpt><trkpt lat="44.6462981" lon="9.7349528"><ele>696.0</ele><time>2026-04-04T13:20:07.919Z</time></trkpt><trkpt lat="44.6463049" lon="9.7351406"><ele>696.0</ele><time>2026-04-04T13:20:08.934Z</time></trkpt><trkpt lat="44.6462953" lon="9.7352933"><ele>696.0</ele><time>2026-04-04T13:20:09.946Z</time></trkpt><trkpt lat="44.6463148" lon="9.7354278"><ele>696.0</ele><time>2026-04-04T13:20:10.945Z</time></trkpt><trkpt lat="44.6463522" lon="9.7355474"><ele>696.0</ele><time>2026-04-04T13:20:11.964Z</time></trkpt><trkpt lat="44.6464265" lon="9.7356494"><ele>694.5</ele><time>2026-04-04T13:20:12.934Z</time></trkpt><trkpt lat="44.6465439" lon="9.7357614"><ele>693.0</ele><time>2026-04-04T13:20:13.944Z</time></trkpt><trkpt lat="44.646683" lon="9.7358779"><ele>691.5</ele><time>2026-04-04T13:20:14.956Z</time></trkpt><trkpt lat="44.6467983" lon="9.7359586"><ele>690.0</ele><time>2026-04-04T13:20:15.96Z</time></trkpt><trkpt lat="44.6468882" lon="9.7360125"><ele>689.25</ele><time>2026-04-04T13:20:16.955Z</time></trkpt><trkpt lat="44.6469632" lon="9.7360312"><ele>688.5</ele><time>2026-04-04T13:20:17.94Z</time></trkpt><trkpt lat="44.6470445" lon="9.73603"><ele>687.75</ele><time>2026-04-04T13:20:18.926Z</time></trkpt><trkpt lat="44.6471436" lon="9.7359348"><ele>687.0</ele><time>2026-04-04T13:20:19.952Z</time></trkpt><trkpt lat="44.6472581" lon="9.7357394"><ele>687.0</ele><time>2026-04-04T13:20:20.962Z</time></trkpt><trkpt lat="44.6473645" lon="9.7355724"><ele>687.0</ele><time>2026-04-04T13:20:21.96Z</time></trkpt><trkpt lat="44.6474873" lon="9.7354516"><ele>687.0</ele><time>2026-04-04T13:20:22.949Z</time></trkpt><trkpt lat="44.647647" lon="9.7353908"><ele>685.6666666666666</ele><time>2026-04-04T13:20:23.948Z</time></trkpt><trkpt lat="44.6478345" lon="9.7353488"><ele>684.3333333333333</ele><time>2026-04-04T13:20:24.917Z</time></trkpt><trkpt lat="44.6480278" lon="9.735318"><ele>683.0</ele><time>2026-04-04T13:20:25.961Z</time></trkpt><trkpt lat="44.6482365" lon="9.735295"><ele>683.0</ele><time>2026-04-04T13:20:26.949Z</time></trkpt><trkpt lat="44.6484384" lon="9.7352629"><ele>683.0</ele><time>2026-04-04T13:20:27.916Z</time></trkpt><trkpt lat="44.6486235" lon="9.7352"><ele>683.0</ele><time>2026-04-04T13:20:28.959Z</time></trkpt><trkpt lat="44.6487795" lon="9.7351424"><ele>685.0</ele><time>2026-04-04T13:20:29.959Z</time></trkpt><trkpt lat="44.648919" lon="9.7350763"><ele>687.0</ele><time>2026-04-04T13:20:30.957Z</time></trkpt><trkpt lat="44.6490373" lon="9.7350471"><ele>689.0</ele><time>2026-04-04T13:20:31.969Z</time></trkpt><trkpt lat="44.6491354" lon="9.7350797"><ele>691.0</ele><time>2026-04-04T13:20:32.926Z</time></trkpt><trkpt lat="44.6492235" lon="9.7351922"><ele>691.0</ele><time>2026-04-04T13:20:33.977Z</time></trkpt><trkpt lat="44.6493176" lon="9.7353513"><ele>691.0</ele><time>2026-04-04T13:20:34.94Z</time></trkpt><trkpt lat="44.6494205" lon="9.7355276"><ele>691.0</ele><time>2026-04-04T13:20:35.911Z</time></trkpt><trkpt lat="44.6495095" lon="9.7357063"><ele>691.0</ele><time>2026-04-04T13:20:36.95Z</time></trkpt><trkpt lat="44.6495947" lon="9.7358679"><ele>691.0</ele><time>2026-04-04T13:20:37.906Z</time></trkpt><trkpt lat="44.6496777" lon="9.7359964"><ele>691.0</ele><time>2026-04-04T13:20:38.924Z</time></trkpt><trkpt lat="44.6497873" lon="9.7361119"><ele>691.0</ele><time>2026-04-04T13:20:39.953Z</time></trkpt><trkpt lat="44.6499063" lon="9.7362036"><ele>689.5999999999999</ele><time>2026-04-04T13:20:40.956Z</time></trkpt><trkpt lat="44.6500114" lon="9.7362871"><ele>688.2</ele><time>2026-04-04T13:20:41.962Z</time></trkpt><trkpt lat="44.6501023" lon="9.7363726"><ele>686.8</ele><time>2026-04-04T13:20:42.94Z</time></trkpt><trkpt lat="44.6501779" lon="9.7364753"><ele>685.4000000000001</ele><time>2026-04-04T13:20:43.958Z</time></trkpt><trkpt lat="44.6502494" lon="9.7365539"><ele>684.0</ele><time>2026-04-04T13:20:44.98Z</time></trkpt><trkpt lat="44.6503183" lon="9.7366188"><ele>684.0</ele><time>2026-04-04T13:20:45.949Z</time></trkpt><trkpt lat="44.6504023" lon="9.7366339"><ele>684.0</ele><time>2026-04-04T13:20:46.918Z</time></trkpt><trkpt lat="44.6505101" lon="9.7365375"><ele>684.0</ele><time>2026-04-04T13:20:47.931Z</time></trkpt><trkpt lat="44.6506245" lon="9.7364196"><ele>684.0</ele><time>2026-04-04T13:20:48.94Z</time></trkpt><trkpt lat="44.6507537" lon="9.7363252"><ele>684.0</ele><time>2026-04-04T13:20:49.959Z</time></trkpt><trkpt lat="44.650894" lon="9.7362855"><ele>684.0</ele><time>2026-04-04T13:20:50.941Z</time></trkpt><trkpt lat="44.6510405" lon="9.7362767"><ele>684.0</ele><time>2026-04-04T13:20:51.941Z</time></trkpt><trkpt lat="44.6511801" lon="9.7362407"><ele>684.0</ele><time>2026-04-04T13:20:52.972Z</time></trkpt><trkpt lat="44.6513148" lon="9.7361523"><ele>683.6666666666666</ele><time>2026-04-04T13:20:53.962Z</time></trkpt><trkpt lat="44.6514665" lon="9.7360172"><ele>683.3333333333333</ele><time>2026-04-04T13:20:54.971Z</time></trkpt><trkpt lat="44.6516471" lon="9.7358332"><ele>683.0</ele><time>2026-04-04T13:20:55.955Z</time></trkpt><trkpt lat="44.651844" lon="9.7356258"><ele>678.5</ele><time>2026-04-04T13:20:56.966Z</time></trkpt><trkpt lat="44.652044" lon="9.7354267"><ele>674.0</ele><time>2026-04-04T13:20:57.956Z</time></trkpt><trkpt lat="44.6522493" lon="9.7352386"><ele>674.6666666666666</ele><time>2026-04-04T13:20:58.942Z</time></trkpt><trkpt lat="44.6524369" lon="9.7350624"><ele>675.3333333333334</ele><time>2026-04-04T13:20:59.944Z</time></trkpt><trkpt lat="44.6526175" lon="9.734897"><ele>676.0</ele><time>2026-04-04T13:21:00.98Z</time></trkpt><trkpt lat="44.652795" lon="9.7347302"><ele>676.0</ele><time>2026-04-04T13:21:01.949Z</time></trkpt><trkpt lat="44.6529605" lon="9.734575"><ele>676.0</ele><time>2026-04-04T13:21:02.953Z</time></trkpt><trkpt lat="44.6531178" lon="9.7344279"><ele>676.0</ele><time>2026-04-04T13:21:03.953Z</time></trkpt><trkpt lat="44.6532658" lon="9.7343284"><ele>675.75</ele><time>2026-04-04T13:21:04.958Z</time></trkpt><trkpt lat="44.6534174" lon="9.7342788"><ele>675.5</ele><time>2026-04-04T13:21:05.954Z</time></trkpt><trkpt lat="44.6535746" lon="9.7342523"><ele>675.25</ele><time>2026-04-04T13:21:06.963Z</time></trkpt><trkpt lat="44.6537002" lon="9.7342459"><ele>675.0</ele><time>2026-04-04T13:21:07.965Z</time></trkpt><trkpt lat="44.6538102" lon="9.7341832"><ele>675.0</ele><time>2026-04-04T13:21:08.949Z</time></trkpt><trkpt lat="44.6539189" lon="9.7340821"><ele>675.0</ele><time>2026-04-04T13:21:09.95Z</time></trkpt><trkpt lat="44.6540301" lon="9.7339447"><ele>675.0</ele><time>2026-04-04T13:21:10.953Z</time></trkpt><trkpt lat="44.6541844" lon="9.7338681"><ele>675.0</ele><time>2026-04-04T13:21:11.984Z</time></trkpt><trkpt lat="44.6543465" lon="9.7338079"><ele>676.0</ele><time>2026-04-04T13:21:12.945Z</time></trkpt><trkpt lat="44.6545109" lon="9.7337499"><ele>677.0</ele><time>2026-04-04T13:21:13.945Z</time></trkpt><trkpt lat="44.6546749" lon="9.7337169"><ele>678.0</ele><time>2026-04-04T13:21:14.949Z</time></trkpt><trkpt lat="44.6548331" lon="9.7337304"><ele>678.0</ele><time>2026-04-04T13:21:15.951Z</time></trkpt><trkpt lat="44.6549707" lon="9.7337396"><ele>678.0</ele><time>2026-04-04T13:21:16.949Z</time></trkpt><trkpt lat="44.6550724" lon="9.7337621"><ele>678.0</ele><time>2026-04-04T13:21:17.972Z</time></trkpt><trkpt lat="44.6551495" lon="9.7338273"><ele>678.0</ele><time>2026-04-04T13:21:18.958Z</time></trkpt><trkpt lat="44.6552082" lon="9.733936"><ele>678.0</ele><time>2026-04-04T13:21:19.947Z</time></trkpt><trkpt lat="44.6552504" lon="9.7340564"><ele>678.0</ele><time>2026-04-04T13:21:20.95Z</time></trkpt><trkpt lat="44.6552522" lon="9.7341867"><ele>678.0</ele><time>2026-04-04T13:21:21.939Z</time></trkpt><trkpt lat="44.6552183" lon="9.7343162"><ele>678.0</ele><time>2026-04-04T13:21:22.95Z</time></trkpt><trkpt lat="44.6551418" lon="9.734441"><ele>678.0</ele><time>2026-04-04T13:21:23.948Z</time></trkpt><trkpt lat="44.6550592" lon="9.7345639"><ele>678.0</ele><time>2026-04-04T13:21:24.943Z</time></trkpt><trkpt lat="44.6550127" lon="9.7346819"><ele>677.8</ele><time>2026-04-04T13:21:25.96Z</time></trkpt><trkpt lat="44.6550153" lon="9.734785"><ele>677.5999999999999</ele><time>2026-04-04T13:21:26.959Z</time></trkpt><trkpt lat="44.6550804" lon="9.7348739"><ele>677.4000000000001</ele><time>2026-04-04T13:21:27.933Z</time></trkpt><trkpt lat="44.6551794" lon="9.7348959"><ele>677.2</ele><time>2026-04-04T13:21:28.966Z</time></trkpt><trkpt lat="44.6552961" lon="9.7348681"><ele>677.0</ele><time>2026-04-04T13:21:29.974Z</time></trkpt><trkpt lat="44.6554238" lon="9.7348183"><ele>679.0</ele><time>2026-04-04T13:21:30.972Z</time></trkpt><trkpt lat="44.6555879" lon="9.7347712"><ele>681.0</ele><time>2026-04-04T13:21:31.913Z</time></trkpt><trkpt lat="44.6557365" lon="9.7347288"><ele>683.0</ele><time>2026-04-04T13:21:32.95Z</time></trkpt><trkpt lat="44.6558761" lon="9.7347085"><ele>683.0</ele><time>2026-04-04T13:21:33.966Z</time></trkpt><trkpt lat="44.6560027" lon="9.7347449"><ele>683.0</ele><time>2026-04-04T13:21:34.957Z</time></trkpt><trkpt lat="44.656122" lon="9.7348133"><ele>683.0</ele><time>2026-04-04T13:21:35.951Z</time></trkpt><trkpt lat="44.656231" lon="9.7348775"><ele>683.0</ele><time>2026-04-04T13:21:36.956Z</time></trkpt><trkpt lat="44.6563736" lon="9.7348962"><ele>685.6666666666666</ele><time>2026-04-04T13:21:37.956Z</time></trkpt><trkpt lat="44.65652" lon="9.7348671"><ele>688.3333333333334</ele><time>2026-04-04T13:21:38.951Z</time></trkpt><trkpt lat="44.6566755" lon="9.7348218"><ele>691.0</ele><time>2026-04-04T13:21:39.942Z</time></trkpt><trkpt lat="44.6568126" lon="9.7347331"><ele>692.0</ele><time>2026-04-04T13:21:40.927Z</time></trkpt><trkpt lat="44.656954" lon="9.7346205"><ele>693.0</ele><time>2026-04-04T13:21:41.953Z</time></trkpt><trkpt lat="44.6570983" lon="9.7344926"><ele>694.0</ele><time>2026-04-04T13:21:42.95Z</time></trkpt><trkpt lat="44.6572242" lon="9.734339"><ele>696.6666666666667</ele><time>2026-04-04T13:21:43.964Z</time></trkpt><trkpt lat="44.6573243" lon="9.7341311"><ele>699.3333333333334</ele><time>2026-04-04T13:21:44.955Z</time></trkpt><trkpt lat="44.657404" lon="9.7338935"><ele>702.0</ele><time>2026-04-04T13:21:45.916Z</time></trkpt><trkpt lat="44.6574739" lon="9.7336524"><ele>703.0</ele><time>2026-04-04T13:21:46.916Z</time></trkpt><trkpt lat="44.6575171" lon="9.7334562"><ele>704.0</ele><time>2026-04-04T13:21:47.945Z</time></trkpt><trkpt lat="44.6575304" lon="9.733278"><ele>705.0</ele><time>2026-04-04T13:21:48.941Z</time></trkpt><trkpt lat="44.6575203" lon="9.7331101"><ele>706.0</ele><time>2026-04-04T13:21:49.967Z</time></trkpt><trkpt lat="44.6574892" lon="9.7329798"><ele>706.0</ele><time>2026-04-04T13:21:50.92Z</time></trkpt><trkpt lat="44.6574701" lon="9.7328661"><ele>706.0</ele><time>2026-04-04T13:21:51.946Z</time></trkpt><trkpt lat="44.6575437" lon="9.7328072"><ele>706.0</ele><time>2026-04-04T13:21:53.9Z</time></trkpt><trkpt lat="44.6576155" lon="9.7328723"><ele>706.0</ele><time>2026-04-04T13:21:54.937Z</time></trkpt><trkpt lat="44.6576928" lon="9.7329766"><ele>706.0</ele><time>2026-04-04T13:21:55.939Z</time></trkpt><trkpt lat="44.6577687" lon="9.7331219"><ele>706.5</ele><time>2026-04-04T13:21:56.934Z</time></trkpt><trkpt lat="44.6578486" lon="9.7333005"><ele>707.0</ele><time>2026-04-04T13:21:57.941Z</time></trkpt><trkpt lat="44.6579222" lon="9.733477"><ele>707.5</ele><time>2026-04-04T13:21:58.978Z</time></trkpt><trkpt lat="44.6579925" lon="9.7336343"><ele>708.0</ele><time>2026-04-04T13:21:59.935Z</time></trkpt><trkpt lat="44.6580562" lon="9.7337408"><ele>708.0</ele><time>2026-04-04T13:22:00.938Z</time></trkpt><trkpt lat="44.6581138" lon="9.7338049"><ele>708.0</ele><time>2026-04-04T13:22:01.929Z</time></trkpt><trkpt lat="44.6581722" lon="9.7338454"><ele>708.0</ele><time>2026-04-04T13:22:02.93Z</time></trkpt><trkpt lat="44.6582741" lon="9.7337831"><ele>708.0</ele><time>2026-04-04T13:22:04.945Z</time></trkpt><trkpt lat="44.6583276" lon="9.7336511"><ele>708.0</ele><time>2026-04-04T13:22:05.961Z</time></trkpt><trkpt lat="44.6583633" lon="9.7334752"><ele>710.75</ele><time>2026-04-04T13:22:06.931Z</time></trkpt><trkpt lat="44.6583616" lon="9.7332801"><ele>713.5</ele><time>2026-04-04T13:22:07.953Z</time></trkpt><trkpt lat="44.6583716" lon="9.7330892"><ele>716.25</ele><time>2026-04-04T13:22:08.938Z</time></trkpt><trkpt lat="44.658376" lon="9.7329309"><ele>719.0</ele><time>2026-04-04T13:22:09.96Z</time></trkpt><trkpt lat="44.658383" lon="9.7327983"><ele>719.4000000000001</ele><time>2026-04-04T13:22:10.963Z</time></trkpt><trkpt lat="44.6584175" lon="9.7327003"><ele>719.8</ele><time>2026-04-04T13:22:11.952Z</time></trkpt><trkpt lat="44.6584789" lon="9.7326262"><ele>720.2</ele><time>2026-04-04T13:22:12.951Z</time></trkpt><trkpt lat="44.6585674" lon="9.7325961"><ele>720.5999999999999</ele><time>2026-04-04T13:22:13.955Z</time></trkpt><trkpt lat="44.658687" lon="9.7326119"><ele>721.0</ele><time>2026-04-04T13:22:14.946Z</time></trkpt><trkpt lat="44.6588081" lon="9.732673"><ele>721.75</ele><time>2026-04-04T13:22:15.962Z</time></trkpt><trkpt lat="44.658939" lon="9.7327366"><ele>722.5</ele><time>2026-04-04T13:22:16.946Z</time></trkpt><trkpt lat="44.6590692" lon="9.732793"><ele>723.25</ele><time>2026-04-04T13:22:17.918Z</time></trkpt><trkpt lat="44.6591925" lon="9.7328039"><ele>724.0</ele><time>2026-04-04T13:22:18.952Z</time></trkpt><trkpt lat="44.6593141" lon="9.732784"><ele>726.6666666666667</ele><time>2026-04-04T13:22:19.956Z</time></trkpt><trkpt lat="44.6594261" lon="9.7326821"><ele>729.3333333333334</ele><time>2026-04-04T13:22:20.973Z</time></trkpt><trkpt lat="44.6595206" lon="9.7324943"><ele>732.0</ele><time>2026-04-04T13:22:21.952Z</time></trkpt><trkpt lat="44.659595" lon="9.7322996"><ele>733.0</ele><time>2026-04-04T13:22:22.952Z</time></trkpt><trkpt lat="44.659668" lon="9.7321031"><ele>734.0</ele><time>2026-04-04T13:22:23.924Z</time></trkpt><trkpt lat="44.6597525" lon="9.7319238"><ele>735.0</ele><time>2026-04-04T13:22:24.962Z</time></trkpt><trkpt lat="44.6598523" lon="9.7317726"><ele>736.0</ele><time>2026-04-04T13:22:25.935Z</time></trkpt><trkpt lat="44.6599551" lon="9.7316403"><ele>737.0</ele><time>2026-04-04T13:22:26.959Z</time></trkpt><trkpt lat="44.6600438" lon="9.7315372"><ele>738.0</ele><time>2026-04-04T13:22:27.941Z</time></trkpt><trkpt lat="44.6600873" lon="9.7314374"><ele>739.0</ele><time>2026-04-04T13:22:28.896Z</time></trkpt><trkpt lat="44.6601026" lon="9.7313256"><ele>740.0</ele><time>2026-04-04T13:22:29.936Z</time></trkpt><trkpt lat="44.6600726" lon="9.7312167"><ele>740.0</ele><time>2026-04-04T13:22:30.935Z</time></trkpt><trkpt lat="44.6600047" lon="9.7311269"><ele>740.0</ele><time>2026-04-04T13:22:31.947Z</time></trkpt><trkpt lat="44.6599255" lon="9.7310751"><ele>740.0</ele><time>2026-04-04T13:22:32.945Z</time></trkpt><trkpt lat="44.6598458" lon="9.7310089"><ele>740.0</ele><time>2026-04-04T13:22:33.955Z</time></trkpt><trkpt lat="44.6598206" lon="9.730912"><ele>740.0</ele><time>2026-04-04T13:22:34.946Z</time></trkpt><trkpt lat="44.6598477" lon="9.7307917"><ele>740.0</ele><time>2026-04-04T13:22:35.952Z</time></trkpt><trkpt lat="44.6598751" lon="9.7306738"><ele>741.25</ele><time>2026-04-04T13:22:36.953Z</time></trkpt><trkpt lat="44.6599396" lon="9.730577"><ele>742.5</ele><time>2026-04-04T13:22:37.96Z</time></trkpt><trkpt lat="44.6600509" lon="9.7305166"><ele>743.75</ele><time>2026-04-04T13:22:38.93Z</time></trkpt><trkpt lat="44.6602088" lon="9.7304607"><ele>745.0</ele><time>2026-04-04T13:22:39.949Z</time></trkpt><trkpt lat="44.6603755" lon="9.7304035"><ele>747.5</ele><time>2026-04-04T13:22:40.935Z</time></trkpt><trkpt lat="44.6605287" lon="9.7303898"><ele>750.0</ele><time>2026-04-04T13:22:41.954Z</time></trkpt><trkpt lat="44.6606572" lon="9.7303999"><ele>752.5</ele><time>2026-04-04T13:22:42.959Z</time></trkpt><trkpt lat="44.6607799" lon="9.7304192"><ele>755.0</ele><time>2026-04-04T13:22:43.969Z</time></trkpt><trkpt lat="44.6608535" lon="9.7305259"><ele>755.0</ele><time>2026-04-04T13:22:44.946Z</time></trkpt><trkpt lat="44.6608886" lon="9.7307234"><ele>755.0</ele><time>2026-04-04T13:22:45.952Z</time></trkpt><trkpt lat="44.6609297" lon="9.7309116"><ele>755.0</ele><time>2026-04-04T13:22:46.948Z</time></trkpt><trkpt lat="44.6609853" lon="9.7310137"><ele>755.0</ele><time>2026-04-04T13:22:47.945Z</time></trkpt><trkpt lat="44.6610571" lon="9.7310734"><ele>757.25</ele><time>2026-04-04T13:22:48.918Z</time></trkpt><trkpt lat="44.6611826" lon="9.7310463"><ele>759.5</ele><time>2026-04-04T13:22:49.961Z</time></trkpt><trkpt lat="44.6613311" lon="9.7309992"><ele>761.75</ele><time>2026-04-04T13:22:50.925Z</time></trkpt><trkpt lat="44.6614847" lon="9.7309572"><ele>764.0</ele><time>2026-04-04T13:22:51.952Z</time></trkpt><trkpt lat="44.6616613" lon="9.7308899"><ele>764.0</ele><time>2026-04-04T13:22:52.943Z</time></trkpt><trkpt lat="44.6618101" lon="9.7308319"><ele>764.0</ele><time>2026-04-04T13:22:53.959Z</time></trkpt><trkpt lat="44.6619567" lon="9.7307633"><ele>764.0</ele><time>2026-04-04T13:22:54.952Z</time></trkpt><trkpt lat="44.6620944" lon="9.7307292"><ele>764.0</ele><time>2026-04-04T13:22:55.963Z</time></trkpt><trkpt lat="44.6622222" lon="9.7307316"><ele>765.8000000000001</ele><time>2026-04-04T13:22:56.956Z</time></trkpt><trkpt lat="44.6623437" lon="9.7307581"><ele>767.6</ele><time>2026-04-04T13:22:57.967Z</time></trkpt><trkpt lat="44.662438" lon="9.7308196"><ele>769.4</ele><time>2026-04-04T13:22:58.95Z</time></trkpt><trkpt lat="44.6624997" lon="9.7309175"><ele>771.2</ele><time>2026-04-04T13:22:59.952Z</time></trkpt><trkpt lat="44.6625259" lon="9.73108"><ele>773.0</ele><time>2026-04-04T13:23:00.955Z</time></trkpt><trkpt lat="44.6625269" lon="9.731252"><ele>773.0</ele><time>2026-04-04T13:23:01.949Z</time></trkpt><trkpt lat="44.6624792" lon="9.7314873"><ele>773.0</ele><time>2026-04-04T13:23:02.957Z</time></trkpt><trkpt lat="44.6624318" lon="9.7316953"><ele>773.0</ele><time>2026-04-04T13:23:03.929Z</time></trkpt><trkpt lat="44.662387" lon="9.7318936"><ele>774.5</ele><time>2026-04-04T13:23:04.948Z</time></trkpt><trkpt lat="44.6623839" lon="9.7320769"><ele>776.0</ele><time>2026-04-04T13:23:05.972Z</time></trkpt><trkpt lat="44.6624328" lon="9.7322614"><ele>777.5</ele><time>2026-04-04T13:23:06.958Z</time></trkpt><trkpt lat="44.6624903" lon="9.7324516"><ele>779.0</ele><time>2026-04-04T13:23:07.938Z</time></trkpt><trkpt lat="44.6625141" lon="9.7326369"><ele>780.75</ele><time>2026-04-04T13:23:08.955Z</time></trkpt><trkpt lat="44.6625166" lon="9.7328204"><ele>782.5</ele><time>2026-04-04T13:23:09.951Z</time></trkpt><trkpt lat="44.6624865" lon="9.7330028"><ele>784.25</ele><time>2026-04-04T13:23:10.938Z</time></trkpt><trkpt lat="44.6624009" lon="9.7331713"><ele>786.0</ele><time>2026-04-04T13:23:11.934Z</time></trkpt><trkpt lat="44.6623242" lon="9.7333017"><ele>786.0</ele><time>2026-04-04T13:23:12.936Z</time></trkpt><trkpt lat="44.6622569" lon="9.7334354"><ele>786.0</ele><time>2026-04-04T13:23:13.956Z</time></trkpt><trkpt lat="44.6622344" lon="9.7335673"><ele>786.0</ele><time>2026-04-04T13:23:14.955Z</time></trkpt><trkpt lat="44.662278" lon="9.7337186"><ele>786.0</ele><time>2026-04-04T13:23:15.962Z</time></trkpt><trkpt lat="44.6623753" lon="9.7338809"><ele>787.0</ele><time>2026-04-04T13:23:16.929Z</time></trkpt><trkpt lat="44.6624776" lon="9.7340211"><ele>788.0</ele><time>2026-04-04T13:23:17.962Z</time></trkpt><trkpt lat="44.6625739" lon="9.7341123"><ele>789.0</ele><time>2026-04-04T13:23:18.924Z</time></trkpt><trkpt lat="44.6626844" lon="9.7341641"><ele>790.0</ele><time>2026-04-04T13:23:19.958Z</time></trkpt><trkpt lat="44.6628369" lon="9.7341507"><ele>790.0</ele><time>2026-04-04T13:23:20.951Z</time></trkpt><trkpt lat="44.6630213" lon="9.7341115"><ele>790.0</ele><time>2026-04-04T13:23:21.932Z</time></trkpt><trkpt lat="44.66321" lon="9.7340591"><ele>790.0</ele><time>2026-04-04T13:23:22.948Z</time></trkpt><trkpt lat="44.6634055" lon="9.7339864"><ele>790.0</ele><time>2026-04-04T13:23:23.975Z</time></trkpt><trkpt lat="44.6636012" lon="9.7339172"><ele>790.0</ele><time>2026-04-04T13:23:24.957Z</time></trkpt><trkpt lat="44.6637789" lon="9.7338524"><ele>790.0</ele><time>2026-04-04T13:23:25.957Z</time></trkpt><trkpt lat="44.6639212" lon="9.7338399"><ele>792.0</ele><time>2026-04-04T13:23:26.961Z</time></trkpt><trkpt lat="44.6640416" lon="9.7339037"><ele>794.0</ele><time>2026-04-04T13:23:27.925Z</time></trkpt><trkpt lat="44.6641306" lon="9.734026"><ele>796.0</ele><time>2026-04-04T13:23:28.947Z</time></trkpt><trkpt lat="44.6641675" lon="9.7341722"><ele>798.0</ele><time>2026-04-04T13:23:29.946Z</time></trkpt><trkpt lat="44.6641979" lon="9.7342792"><ele>800.0</ele><time>2026-04-04T13:23:30.945Z</time></trkpt><trkpt lat="44.6642941" lon="9.7342617"><ele>800.0</ele><time>2026-04-04T13:23:32.927Z</time></trkpt><trkpt lat="44.6643415" lon="9.7341584"><ele>800.0</ele><time>2026-04-04T13:23:33.942Z</time></trkpt><trkpt lat="44.6643415" lon="9.7340389"><ele>800.0</ele><time>2026-04-04T13:23:34.947Z</time></trkpt><trkpt lat="44.6642965" lon="9.7338925"><ele>800.0</ele><time>2026-04-04T13:23:35.961Z</time></trkpt><trkpt lat="44.6642312" lon="9.7337313"><ele>800.0</ele><time>2026-04-04T13:23:36.95Z</time></trkpt><trkpt lat="44.664146" lon="9.733555"><ele>803.25</ele><time>2026-04-04T13:23:37.94Z</time></trkpt><trkpt lat="44.6640425" lon="9.7334161"><ele>806.5</ele><time>2026-04-04T13:23:38.953Z</time></trkpt><trkpt lat="44.6639048" lon="9.7333162"><ele>809.75</ele><time>2026-04-04T13:23:39.96Z</time></trkpt><trkpt lat="44.6637712" lon="9.7332369"><ele>813.0</ele><time>2026-04-04T13:23:40.911Z</time></trkpt><trkpt lat="44.6636605" lon="9.7331355"><ele>813.75</ele><time>2026-04-04T13:23:41.925Z</time></trkpt><trkpt lat="44.6635883" lon="9.7330365"><ele>814.5</ele><time>2026-04-04T13:23:42.961Z</time></trkpt><trkpt lat="44.6635587" lon="9.7329298"><ele>815.25</ele><time>2026-04-04T13:23:43.955Z</time></trkpt><trkpt lat="44.6636102" lon="9.7328152"><ele>816.0</ele><time>2026-04-04T13:23:44.948Z</time></trkpt><trkpt lat="44.6637361" lon="9.732635"><ele>816.0</ele><time>2026-04-04T13:23:45.939Z</time></trkpt><trkpt lat="44.6638823" lon="9.7324121"><ele>816.0</ele><time>2026-04-04T13:23:46.939Z</time></trkpt><trkpt lat="44.664038" lon="9.7321884"><ele>816.0</ele><time>2026-04-04T13:23:47.95Z</time></trkpt><trkpt lat="44.664175" lon="9.7319796"><ele>815.6666666666667</ele><time>2026-04-04T13:23:48.938Z</time></trkpt><trkpt lat="44.6642938" lon="9.7317759"><ele>815.3333333333334</ele><time>2026-04-04T13:23:49.949Z</time></trkpt><trkpt lat="44.664394" lon="9.7315921"><ele>815.0</ele><time>2026-04-04T13:23:50.961Z</time></trkpt><trkpt lat="44.6644173" lon="9.7314026"><ele>815.0</ele><time>2026-04-04T13:23:51.938Z</time></trkpt><trkpt lat="44.6643843" lon="9.731204"><ele>815.0</ele><time>2026-04-04T13:23:52.941Z</time></trkpt><trkpt lat="44.6643242" lon="9.7310133"><ele>815.0</ele><time>2026-04-04T13:23:53.941Z</time></trkpt><trkpt lat="44.6642847" lon="9.7308558"><ele>815.0</ele><time>2026-04-04T13:23:54.936Z</time></trkpt><trkpt lat="44.6642608" lon="9.7307132"><ele>815.2</ele><time>2026-04-04T13:23:55.949Z</time></trkpt><trkpt lat="44.664283" lon="9.7305855"><ele>815.4</ele><time>2026-04-04T13:23:56.959Z</time></trkpt><trkpt lat="44.6643254" lon="9.7304549"><ele>815.5999999999999</ele><time>2026-04-04T13:23:57.932Z</time></trkpt><trkpt lat="44.6643836" lon="9.7303153"><ele>815.8</ele><time>2026-04-04T13:23:58.913Z</time></trkpt><trkpt lat="44.6644617" lon="9.7301643"><ele>816.0</ele><time>2026-04-04T13:23:59.943Z</time></trkpt><trkpt lat="44.6645578" lon="9.729989"><ele>820.6666666666667</ele><time>2026-04-04T13:24:00.915Z</time></trkpt><trkpt lat="44.6646664" lon="9.7297983"><ele>825.3333333333334</ele><time>2026-04-04T13:24:01.937Z</time></trkpt><trkpt lat="44.6647897" lon="9.729589"><ele>830.0</ele><time>2026-04-04T13:24:02.948Z</time></trkpt><trkpt lat="44.6649276" lon="9.7293508"><ele>830.0</ele><time>2026-04-04T13:24:03.922Z</time></trkpt><trkpt lat="44.6650699" lon="9.7291184"><ele>830.0</ele><time>2026-04-04T13:24:04.922Z</time></trkpt><trkpt lat="44.6651937" lon="9.7288818"><ele>830.0</ele><time>2026-04-04T13:24:05.963Z</time></trkpt><trkpt lat="44.6653204" lon="9.728656"><ele>836.6666666666667</ele><time>2026-04-04T13:24:06.94Z</time></trkpt><trkpt lat="44.6654396" lon="9.7284384"><ele>843.3333333333333</ele><time>2026-04-04T13:24:07.963Z</time></trkpt><trkpt lat="44.6655552" lon="9.7282135"><ele>850.0</ele><time>2026-04-04T13:24:08.937Z</time></trkpt><trkpt lat="44.6656649" lon="9.7279898"><ele>850.0</ele><time>2026-04-04T13:24:09.951Z</time></trkpt><trkpt lat="44.6657594" lon="9.727777"><ele>850.0</ele><time>2026-04-04T13:24:10.952Z</time></trkpt><trkpt lat="44.6658292" lon="9.7275802"><ele>850.0</ele><time>2026-04-04T13:24:11.943Z</time></trkpt><trkpt lat="44.6658784" lon="9.7274218"><ele>848.9999999999999</ele><time>2026-04-04T13:24:12.942Z</time></trkpt><trkpt lat="44.6659102" lon="9.7273194"><ele>848.0</ele><time>2026-04-04T13:24:13.929Z</time></trkpt><trkpt lat="44.6659321" lon="9.7272156"><ele>847.0</ele><time>2026-04-04T13:24:14.948Z</time></trkpt><trkpt lat="44.6659595" lon="9.7271339"><ele>846.0</ele><time>2026-04-04T13:24:15.96Z</time></trkpt><trkpt lat="44.6660434" lon="9.7271239"><ele>844.9999999999999</ele><time>2026-04-04T13:24:16.943Z</time></trkpt><trkpt lat="44.6661357" lon="9.7271771"><ele>844.0</ele><time>2026-04-04T13:24:17.951Z</time></trkpt><trkpt lat="44.6661912" lon="9.7272909"><ele>845.5</ele><time>2026-04-04T13:24:18.947Z</time></trkpt><trkpt lat="44.6661978" lon="9.7274441"><ele>847.0</ele><time>2026-04-04T13:24:19.942Z</time></trkpt><trkpt lat="44.6661491" lon="9.7276108"><ele>848.5</ele><time>2026-04-04T13:24:20.939Z</time></trkpt><trkpt lat="44.6660748" lon="9.7277815"><ele>850.0</ele><time>2026-04-04T13:24:21.964Z</time></trkpt><trkpt lat="44.6660236" lon="9.7279892"><ele>850.0</ele><time>2026-04-04T13:24:22.951Z</time></trkpt><trkpt lat="44.6659926" lon="9.7282355"><ele>850.0</ele><time>2026-04-04T13:24:23.911Z</time></trkpt><trkpt lat="44.6659633" lon="9.7284819"><ele>850.0</ele><time>2026-04-04T13:24:24.923Z</time></trkpt><trkpt lat="44.6659209" lon="9.7287068"><ele>851.0</ele><time>2026-04-04T13:24:25.927Z</time></trkpt><trkpt lat="44.6658944" lon="9.7289167"><ele>852.0</ele><time>2026-04-04T13:24:26.929Z</time></trkpt><trkpt lat="44.6659001" lon="9.7291202"><ele>853.0</ele><time>2026-04-04T13:24:27.91Z</time></trkpt><trkpt lat="44.6659393" lon="9.7293207"><ele>854.0</ele><time>2026-04-04T13:24:28.962Z</time></trkpt><trkpt lat="44.6660176" lon="9.7295342"><ele>854.75</ele><time>2026-04-04T13:24:29.943Z</time></trkpt><trkpt lat="44.6661031" lon="9.7297384"><ele>855.5</ele><time>2026-04-04T13:24:30.933Z</time></trkpt><trkpt lat="44.6661725" lon="9.7298913"><ele>856.25</ele><time>2026-04-04T13:24:31.945Z</time></trkpt><trkpt lat="44.6662208" lon="9.730028"><ele>857.0</ele><time>2026-04-04T13:24:32.93Z</time></trkpt><trkpt lat="44.6662348" lon="9.7301696"><ele>858.6</ele><time>2026-04-04T13:24:33.914Z</time></trkpt><trkpt lat="44.6662414" lon="9.7303164"><ele>860.2</ele><time>2026-04-04T13:24:34.913Z</time></trkpt><trkpt lat="44.6662274" lon="9.7304431"><ele>861.8</ele><time>2026-04-04T13:24:35.954Z</time></trkpt><trkpt lat="44.66614" lon="9.7305094"><ele>863.4</ele><time>2026-04-04T13:24:36.926Z</time></trkpt><trkpt lat="44.6659932" lon="9.7305146"><ele>865.0</ele><time>2026-04-04T13:24:37.936Z</time></trkpt><trkpt lat="44.6658856" lon="9.7304851"><ele>864.9999999999999</ele><time>2026-04-04T13:24:38.932Z</time></trkpt><trkpt lat="44.6658121" lon="9.730524"><ele>865.0</ele><time>2026-04-04T13:24:39.931Z</time></trkpt><trkpt lat="44.6657803" lon="9.7306432"><ele>865.0</ele><time>2026-04-04T13:24:40.932Z</time></trkpt><trkpt lat="44.6657858" lon="9.7307421"><ele>865.0</ele><time>2026-04-04T13:24:41.937Z</time></trkpt><trkpt lat="44.6658596" lon="9.7308373"><ele>864.9999999999999</ele><time>2026-04-04T13:24:42.905Z</time></trkpt><trkpt lat="44.6659343" lon="9.7309244"><ele>865.0</ele><time>2026-04-04T13:24:43.96Z</time></trkpt><trkpt lat="44.666012" lon="9.7310227"><ele>864.4</ele><time>2026-04-04T13:24:44.935Z</time></trkpt><trkpt lat="44.6660624" lon="9.7311361"><ele>863.8</ele><time>2026-04-04T13:24:45.944Z</time></trkpt><trkpt lat="44.6660623" lon="9.7312633"><ele>863.2</ele><time>2026-04-04T13:24:46.969Z</time></trkpt><trkpt lat="44.6660351" lon="9.7313935"><ele>862.6</ele><time>2026-04-04T13:24:47.974Z</time></trkpt><trkpt lat="44.6660242" lon="9.7314956"><ele>862.0</ele><time>2026-04-04T13:24:48.93Z</time></trkpt><trkpt lat="44.6661092" lon="9.7315655"><ele>862.8</ele><time>2026-04-04T13:24:50.932Z</time></trkpt><trkpt lat="44.6662063" lon="9.731485"><ele>863.6</ele><time>2026-04-04T13:24:51.936Z</time></trkpt><trkpt lat="44.6663141" lon="9.7313769"><ele>864.3999999999999</ele><time>2026-04-04T13:24:52.937Z</time></trkpt><trkpt lat="44.6663915" lon="9.7312791"><ele>865.1999999999999</ele><time>2026-04-04T13:24:53.945Z</time></trkpt><trkpt lat="44.6664519" lon="9.7311903"><ele>866.0</ele><time>2026-04-04T13:24:54.938Z</time></trkpt><trkpt lat="44.6665195" lon="9.7311031"><ele>867.5999999999999</ele><time>2026-04-04T13:24:55.935Z</time></trkpt><trkpt lat="44.6666062" lon="9.7310453"><ele>869.1999999999999</ele><time>2026-04-04T13:24:56.938Z</time></trkpt><trkpt lat="44.6667035" lon="9.7310072"><ele>870.8000000000001</ele><time>2026-04-04T13:24:57.927Z</time></trkpt><trkpt lat="44.6667999" lon="9.730965"><ele>872.4000000000001</ele><time>2026-04-04T13:24:58.937Z</time></trkpt><trkpt lat="44.6669042" lon="9.7309064"><ele>874.0</ele><time>2026-04-04T13:24:59.924Z</time></trkpt><trkpt lat="44.6670128" lon="9.7308021"><ele>876.5</ele><time>2026-04-04T13:25:00.935Z</time></trkpt><trkpt lat="44.6671177" lon="9.7306883"><ele>879.0</ele><time>2026-04-04T13:25:01.95Z</time></trkpt><trkpt lat="44.6672291" lon="9.7305926"><ele>881.5</ele><time>2026-04-04T13:25:02.939Z</time></trkpt><trkpt lat="44.6673446" lon="9.7305501"><ele>884.0</ele><time>2026-04-04T13:25:03.948Z</time></trkpt><trkpt lat="44.6674895" lon="9.7305682"><ele>884.0</ele><time>2026-04-04T13:25:04.933Z</time></trkpt><trkpt lat="44.6676294" lon="9.7306667"><ele>884.0</ele><time>2026-04-04T13:25:05.933Z</time></trkpt><trkpt lat="44.6677386" lon="9.7308008"><ele>884.0</ele><time>2026-04-04T13:25:06.934Z</time></trkpt><trkpt lat="44.6678135" lon="9.7309534"><ele>884.0</ele><time>2026-04-04T13:25:07.934Z</time></trkpt><trkpt lat="44.6678705" lon="9.7311231"><ele>884.75</ele><time>2026-04-04T13:25:08.945Z</time></trkpt><trkpt lat="44.667918" lon="9.7312799"><ele>885.5</ele><time>2026-04-04T13:25:09.927Z</time></trkpt><trkpt lat="44.6679771" lon="9.731379"><ele>886.25</ele><time>2026-04-04T13:25:10.935Z</time></trkpt><trkpt lat="44.6680721" lon="9.731451"><ele>887.0</ele><time>2026-04-04T13:25:11.94Z</time></trkpt><trkpt lat="44.6681988" lon="9.7315002"><ele>887.0</ele><time>2026-04-04T13:25:12.89Z</time></trkpt><trkpt lat="44.6683218" lon="9.731484"><ele>887.0</ele><time>2026-04-04T13:25:13.927Z</time></trkpt><trkpt lat="44.6684224" lon="9.7314156"><ele>887.0</ele><time>2026-04-04T13:25:14.93Z</time></trkpt><trkpt lat="44.6684983" lon="9.7312793"><ele>887.0</ele><time>2026-04-04T13:25:15.944Z</time></trkpt><trkpt lat="44.6685759" lon="9.731123"><ele>891.25</ele><time>2026-04-04T13:25:16.914Z</time></trkpt><trkpt lat="44.6686521" lon="9.7309876"><ele>895.5</ele><time>2026-04-04T13:25:17.929Z</time></trkpt><trkpt lat="44.6687389" lon="9.7309088"><ele>899.75</ele><time>2026-04-04T13:25:18.938Z</time></trkpt><trkpt lat="44.6688454" lon="9.7308877"><ele>904.0</ele><time>2026-04-04T13:25:19.895Z</time></trkpt><trkpt lat="44.6689795" lon="9.7309347"><ele>904.0</ele><time>2026-04-04T13:25:20.95Z</time></trkpt><trkpt lat="44.6691201" lon="9.7310261"><ele>904.0</ele><time>2026-04-04T13:25:21.944Z</time></trkpt><trkpt lat="44.6692582" lon="9.7311535"><ele>904.0</ele><time>2026-04-04T13:25:22.944Z</time></trkpt><trkpt lat="44.6693895" lon="9.7312665"><ele>905.25</ele><time>2026-04-04T13:25:23.893Z</time></trkpt><trkpt lat="44.6695194" lon="9.7313892"><ele>906.5</ele><time>2026-04-04T13:25:24.925Z</time></trkpt><trkpt lat="44.6696533" lon="9.7314849"><ele>907.75</ele><time>2026-04-04T13:25:25.947Z</time></trkpt><trkpt lat="44.6697837" lon="9.7315548"><ele>909.0</ele><time>2026-04-04T13:25:26.958Z</time></trkpt><trkpt lat="44.6699315" lon="9.7315681"><ele>909.0</ele><time>2026-04-04T13:25:27.908Z</time></trkpt><trkpt lat="44.6700731" lon="9.7315963"><ele>909.0</ele><time>2026-04-04T13:25:28.926Z</time></trkpt><trkpt lat="44.6702021" lon="9.7316408"><ele>909.0</ele><time>2026-04-04T13:25:29.935Z</time></trkpt><trkpt lat="44.6702915" lon="9.7316632"><ele>909.0</ele><time>2026-04-04T13:25:30.929Z</time></trkpt><trkpt lat="44.670406" lon="9.7316135"><ele>910.25</ele><time>2026-04-04T13:25:32.935Z</time></trkpt><trkpt lat="44.670452" lon="9.731483"><ele>911.5</ele><time>2026-04-04T13:25:33.917Z</time></trkpt><trkpt lat="44.6704866" lon="9.7313064"><ele>912.75</ele><time>2026-04-04T13:25:34.905Z</time></trkpt><trkpt lat="44.6705212" lon="9.7311494"><ele>914.0</ele><time>2026-04-04T13:25:35.942Z</time></trkpt><trkpt lat="44.6705964" lon="9.7310562"><ele>914.0</ele><time>2026-04-04T13:25:36.929Z</time></trkpt><trkpt lat="44.6707354" lon="9.731022"><ele>914.0</ele><time>2026-04-04T13:25:37.939Z</time></trkpt><trkpt lat="44.6708805" lon="9.7310482"><ele>914.0</ele><time>2026-04-04T13:25:38.927Z</time></trkpt><trkpt lat="44.6710307" lon="9.7310835"><ele>914.0</ele><time>2026-04-04T13:25:39.935Z</time></trkpt><trkpt lat="44.6711427" lon="9.7311064"><ele>918.0</ele><time>2026-04-04T13:25:40.929Z</time></trkpt><trkpt lat="44.6712476" lon="9.7311512"><ele>922.0</ele><time>2026-04-04T13:25:41.916Z</time></trkpt><trkpt lat="44.6713041" lon="9.7312673"><ele>926.0</ele><time>2026-04-04T13:25:42.922Z</time></trkpt><trkpt lat="44.6713201" lon="9.7314856"><ele>930.0</ele><time>2026-04-04T13:25:43.947Z</time></trkpt><trkpt lat="44.6713191" lon="9.7316795"><ele>930.0</ele><time>2026-04-04T13:25:44.97Z</time></trkpt><trkpt lat="44.6713638" lon="9.7318606"><ele>930.0</ele><time>2026-04-04T13:25:45.928Z</time></trkpt><trkpt lat="44.6714451" lon="9.7320324"><ele>930.0</ele><time>2026-04-04T13:25:46.961Z</time></trkpt><trkpt lat="44.6715431" lon="9.7321554"><ele>930.0</ele><time>2026-04-04T13:25:47.954Z</time></trkpt><trkpt lat="44.6716471" lon="9.7322036"><ele>931.5</ele><time>2026-04-04T13:25:48.933Z</time></trkpt><trkpt lat="44.6717574" lon="9.7321943"><ele>933.0</ele><time>2026-04-04T13:25:49.92Z</time></trkpt><trkpt lat="44.6718968" lon="9.7321854"><ele>934.5</ele><time>2026-04-04T13:25:50.903Z</time></trkpt><trkpt lat="44.6720562" lon="9.7321912"><ele>936.0</ele><time>2026-04-04T13:25:51.954Z</time></trkpt><trkpt lat="44.6722105" lon="9.732222"><ele>936.0</ele><time>2026-04-04T13:25:52.949Z</time></trkpt><trkpt lat="44.6723489" lon="9.7323436"><ele>936.0</ele><time>2026-04-04T13:25:53.953Z</time></trkpt><trkpt lat="44.672469" lon="9.7325242"><ele>936.0</ele><time>2026-04-04T13:25:54.955Z</time></trkpt><trkpt lat="44.6726175" lon="9.7327998"><ele>933.0</ele><time>2026-04-04T13:25:55.957Z</time></trkpt><trkpt lat="44.6727281" lon="9.7330653"><ele>930.0</ele><time>2026-04-04T13:25:56.92Z</time></trkpt><trkpt lat="44.6728067" lon="9.7333062"><ele>927.0</ele><time>2026-04-04T13:25:57.891Z</time></trkpt><trkpt lat="44.672872" lon="9.7335343"><ele>931.75</ele><time>2026-04-04T13:25:58.93Z</time></trkpt><trkpt lat="44.6729253" lon="9.7337405"><ele>936.5</ele><time>2026-04-04T13:25:59.935Z</time></trkpt><trkpt lat="44.672969" lon="9.7339228"><ele>941.25</ele><time>2026-04-04T13:26:00.922Z</time></trkpt><trkpt lat="44.6730075" lon="9.7340453"><ele>946.0</ele><time>2026-04-04T13:26:01.942Z</time></trkpt><trkpt lat="44.6730684" lon="9.7341496"><ele>946.0</ele><time>2026-04-04T13:26:02.942Z</time></trkpt><trkpt lat="44.6731634" lon="9.7341974"><ele>946.0</ele><time>2026-04-04T13:26:03.95Z</time></trkpt><trkpt lat="44.67328" lon="9.7342564"><ele>946.0</ele><time>2026-04-04T13:26:04.939Z</time></trkpt><trkpt lat="44.673405" lon="9.7342967"><ele>946.0</ele><time>2026-04-04T13:26:05.94Z</time></trkpt><trkpt lat="44.6735133" lon="9.73426"><ele>945.5</ele><time>2026-04-04T13:26:06.927Z</time></trkpt><trkpt lat="44.673626" lon="9.7341746"><ele>945.0</ele><time>2026-04-04T13:26:07.937Z</time></trkpt><trkpt lat="44.6737208" lon="9.7340276"><ele>944.5</ele><time>2026-04-04T13:26:08.932Z</time></trkpt><trkpt lat="44.6738207" lon="9.733844"><ele>944.0</ele><time>2026-04-04T13:26:09.948Z</time></trkpt><trkpt lat="44.6739371" lon="9.7336572"><ele>948.0</ele><time>2026-04-04T13:26:10.926Z</time></trkpt><trkpt lat="44.674045" lon="9.7334868"><ele>952.0</ele><time>2026-04-04T13:26:11.909Z</time></trkpt><trkpt lat="44.6741588" lon="9.7333428"><ele>956.0</ele><time>2026-04-04T13:26:12.951Z</time></trkpt><trkpt lat="44.6742931" lon="9.7332527"><ele>959.0</ele><time>2026-04-04T13:26:13.96Z</time></trkpt><trkpt lat="44.6744745" lon="9.7332228"><ele>962.0</ele><time>2026-04-04T13:26:14.921Z</time></trkpt><trkpt lat="44.6746886" lon="9.7332869"><ele>965.0</ele><time>2026-04-04T13:26:15.935Z</time></trkpt><trkpt lat="44.6749155" lon="9.7333944"><ele>965.0</ele><time>2026-04-04T13:26:16.951Z</time></trkpt><trkpt lat="44.6750981" lon="9.7334929"><ele>965.0</ele><time>2026-04-04T13:26:17.95Z</time></trkpt><trkpt lat="44.6752513" lon="9.7336047"><ele>965.0</ele><time>2026-04-04T13:26:18.961Z</time></trkpt><trkpt lat="44.6753625" lon="9.7337861"><ele>965.0</ele><time>2026-04-04T13:26:19.929Z</time></trkpt><trkpt lat="44.6754587" lon="9.7340185"><ele>965.0</ele><time>2026-04-04T13:26:20.912Z</time></trkpt><trkpt lat="44.6755623" lon="9.7343429"><ele>965.0</ele><time>2026-04-04T13:26:21.946Z</time></trkpt><trkpt lat="44.6756838" lon="9.73466"><ele>965.0</ele><time>2026-04-04T13:26:22.959Z</time></trkpt><trkpt lat="44.6758041" lon="9.7349267"><ele>965.0</ele><time>2026-04-04T13:26:23.949Z</time></trkpt><trkpt lat="44.6759177" lon="9.7351421"><ele>965.0</ele><time>2026-04-04T13:26:24.977Z</time></trkpt><trkpt lat="44.6759762" lon="9.7353152"><ele>964.5</ele><time>2026-04-04T13:26:25.956Z</time></trkpt><trkpt lat="44.6760021" lon="9.7354984"><ele>964.0</ele><time>2026-04-04T13:26:26.925Z</time></trkpt><trkpt lat="44.6759974" lon="9.7357088"><ele>963.5</ele><time>2026-04-04T13:26:27.937Z</time></trkpt><trkpt lat="44.6759663" lon="9.7359292"><ele>963.0</ele><time>2026-04-04T13:26:28.945Z</time></trkpt><trkpt lat="44.6759575" lon="9.7361197"><ele>963.0</ele><time>2026-04-04T13:26:29.946Z</time></trkpt><trkpt lat="44.6759535" lon="9.7362954"><ele>963.0</ele><time>2026-04-04T13:26:30.948Z</time></trkpt><trkpt lat="44.6759629" lon="9.7364652"><ele>963.0</ele><time>2026-04-04T13:26:31.936Z</time></trkpt><trkpt lat="44.6759933" lon="9.7366398"><ele>963.0</ele><time>2026-04-04T13:26:32.92Z</time></trkpt><trkpt lat="44.6760166" lon="9.7368277"><ele>963.0</ele><time>2026-04-04T13:26:33.967Z</time></trkpt><trkpt lat="44.6760731" lon="9.7370345"><ele>963.0</ele><time>2026-04-04T13:26:34.989Z</time></trkpt><trkpt lat="44.6761224" lon="9.7372407"><ele>963.0</ele><time>2026-04-04T13:26:35.95Z</time></trkpt><trkpt lat="44.6761667" lon="9.7374606"><ele>967.75</ele><time>2026-04-04T13:26:36.957Z</time></trkpt><trkpt lat="44.6761712" lon="9.7376607"><ele>972.5</ele><time>2026-04-04T13:26:37.962Z</time></trkpt><trkpt lat="44.676187" lon="9.7378168"><ele>977.25</ele><time>2026-04-04T13:26:38.945Z</time></trkpt><trkpt lat="44.6762424" lon="9.7379415"><ele>982.0</ele><time>2026-04-04T13:26:39.964Z</time></trkpt><trkpt lat="44.6763353" lon="9.7380522"><ele>982.0</ele><time>2026-04-04T13:26:40.964Z</time></trkpt><trkpt lat="44.6764767" lon="9.7381607"><ele>982.0</ele><time>2026-04-04T13:26:41.959Z</time></trkpt><trkpt lat="44.6766408" lon="9.7383088"><ele>982.0</ele><time>2026-04-04T13:26:42.96Z</time></trkpt><trkpt lat="44.6768064" lon="9.738486"><ele>985.3333333333333</ele><time>2026-04-04T13:26:43.956Z</time></trkpt><trkpt lat="44.6769687" lon="9.7386594"><ele>988.6666666666667</ele><time>2026-04-04T13:26:44.972Z</time></trkpt><trkpt lat="44.6771293" lon="9.7388202"><ele>992.0</ele><time>2026-04-04T13:26:45.948Z</time></trkpt><trkpt lat="44.6772821" lon="9.7389783"><ele>992.0</ele><time>2026-04-04T13:26:46.899Z</time></trkpt><trkpt lat="44.6774245" lon="9.739127"><ele>992.0</ele><time>2026-04-04T13:26:47.944Z</time></trkpt><trkpt lat="44.6775418" lon="9.7392517"><ele>992.0</ele><time>2026-04-04T13:26:48.941Z</time></trkpt><trkpt lat="44.6776428" lon="9.7393312"><ele>992.0</ele><time>2026-04-04T13:26:49.95Z</time></trkpt><trkpt lat="44.6777475" lon="9.739443"><ele>995.25</ele><time>2026-04-04T13:26:50.962Z</time></trkpt><trkpt lat="44.6778026" lon="9.7395929"><ele>998.5</ele><time>2026-04-04T13:26:51.946Z</time></trkpt><trkpt lat="44.6777983" lon="9.7398014"><ele>1001.75</ele><time>2026-04-04T13:26:52.92Z</time></trkpt><trkpt lat="44.6777819" lon="9.7400235"><ele>1005.0</ele><time>2026-04-04T13:26:53.968Z</time></trkpt><trkpt lat="44.677789" lon="9.7402536"><ele>1005.0</ele><time>2026-04-04T13:26:54.959Z</time></trkpt><trkpt lat="44.6778617" lon="9.7404948"><ele>1005.0</ele><time>2026-04-04T13:26:55.955Z</time></trkpt><trkpt lat="44.6779484" lon="9.7407448"><ele>1005.0</ele><time>2026-04-04T13:26:56.965Z</time></trkpt><trkpt lat="44.6780639" lon="9.7409626"><ele>1003.3333333333333</ele><time>2026-04-04T13:26:57.951Z</time></trkpt><trkpt lat="44.6782036" lon="9.7411672"><ele>1001.6666666666666</ele><time>2026-04-04T13:26:58.969Z</time></trkpt><trkpt lat="44.6783272" lon="9.7413791"><ele>1000.0</ele><time>2026-04-04T13:26:59.952Z</time></trkpt><trkpt lat="44.6784139" lon="9.7415981"><ele>1000.0</ele><time>2026-04-04T13:27:00.963Z</time></trkpt><trkpt lat="44.6784791" lon="9.7418221"><ele>1000.0</ele><time>2026-04-04T13:27:01.939Z</time></trkpt><trkpt lat="44.678494" lon="9.742042"><ele>1000.0</ele><time>2026-04-04T13:27:02.949Z</time></trkpt><trkpt lat="44.6784544" lon="9.7422467"><ele>1000.0</ele><time>2026-04-04T13:27:03.96Z</time></trkpt><trkpt lat="44.678419" lon="9.7424356"><ele>1000.0</ele><time>2026-04-04T13:27:04.94Z</time></trkpt><trkpt lat="44.6783793" lon="9.7425953"><ele>1000.0</ele><time>2026-04-04T13:27:05.942Z</time></trkpt><trkpt lat="44.6783698" lon="9.7427909"><ele>1000.0</ele><time>2026-04-04T13:27:06.929Z</time></trkpt><trkpt lat="44.6784347" lon="9.7429938"><ele>1000.0</ele><time>2026-04-04T13:27:07.923Z</time></trkpt><trkpt lat="44.6784972" lon="9.7432142"><ele>1000.0</ele><time>2026-04-04T13:27:08.945Z</time></trkpt><trkpt lat="44.6785509" lon="9.7433922"><ele>1000.0</ele><time>2026-04-04T13:27:09.938Z</time></trkpt><trkpt lat="44.6785901" lon="9.7435083"><ele>1000.0</ele><time>2026-04-04T13:27:10.909Z</time></trkpt><trkpt lat="44.6786546" lon="9.7435681"><ele>1003.4</ele><time>2026-04-04T13:27:11.966Z</time></trkpt><trkpt lat="44.6787294" lon="9.7435834"><ele>1006.8</ele><time>2026-04-04T13:27:12.917Z</time></trkpt><trkpt lat="44.678779" lon="9.7435271"><ele>1010.2</ele><time>2026-04-04T13:27:13.924Z</time></trkpt><trkpt lat="44.6788125" lon="9.7434024"><ele>1013.6</ele><time>2026-04-04T13:27:14.943Z</time></trkpt><trkpt lat="44.6787994" lon="9.7432216"><ele>1017.0</ele><time>2026-04-04T13:27:15.92Z</time></trkpt><trkpt lat="44.678757" lon="9.7430075"><ele>1017.0</ele><time>2026-04-04T13:27:16.947Z</time></trkpt><trkpt lat="44.6787312" lon="9.7427852"><ele>1017.0</ele><time>2026-04-04T13:27:17.955Z</time></trkpt><trkpt lat="44.6787271" lon="9.742619"><ele>1017.0</ele><time>2026-04-04T13:27:18.949Z</time></trkpt><trkpt lat="44.6787291" lon="9.7425032"><ele>1017.0</ele><time>2026-04-04T13:27:19.945Z</time></trkpt><trkpt lat="44.6788082" lon="9.7423814"><ele>1017.0</ele><time>2026-04-04T13:27:21.946Z</time></trkpt><trkpt lat="44.6788891" lon="9.742397"><ele>1017.0</ele><time>2026-04-04T13:27:22.935Z</time></trkpt><trkpt lat="44.6789588" lon="9.7424495"><ele>1017.0</ele><time>2026-04-04T13:27:23.941Z</time></trkpt><trkpt lat="44.6789971" lon="9.7425721"><ele>1017.0</ele><time>2026-04-04T13:27:24.941Z</time></trkpt><trkpt lat="44.6790091" lon="9.7427306"><ele>1017.0</ele><time>2026-04-04T13:27:25.972Z</time></trkpt><trkpt lat="44.6790313" lon="9.7428813"><ele>1017.0</ele><time>2026-04-04T13:27:26.978Z</time></trkpt><trkpt lat="44.6790762" lon="9.7430214"><ele>1017.0</ele><time>2026-04-04T13:27:27.91Z</time></trkpt><trkpt lat="44.6791469" lon="9.7431129"><ele>1017.0</ele><time>2026-04-04T13:27:28.963Z</time></trkpt><trkpt lat="44.6792379" lon="9.7431787"><ele>1017.0</ele><time>2026-04-04T13:27:29.905Z</time></trkpt><trkpt lat="44.6793384" lon="9.743242"><ele>1017.0</ele><time>2026-04-04T13:27:30.948Z</time></trkpt><trkpt lat="44.6794348" lon="9.7433"><ele>1018.6666666666666</ele><time>2026-04-04T13:27:31.98Z</time></trkpt><trkpt lat="44.6795231" lon="9.7433516"><ele>1020.3333333333333</ele><time>2026-04-04T13:27:32.952Z</time></trkpt><trkpt lat="44.679575" lon="9.7434318"><ele>1022.0</ele><time>2026-04-04T13:27:33.951Z</time></trkpt><trkpt lat="44.6795891" lon="9.7435287"><ele>1023.6666666666666</ele><time>2026-04-04T13:27:34.973Z</time></trkpt><trkpt lat="44.6795935" lon="9.743644"><ele>1025.3333333333333</ele><time>2026-04-04T13:27:36.958Z</time></trkpt><trkpt lat="44.6796204" lon="9.7437627"><ele>1027.0</ele><time>2026-04-04T13:27:38.889Z</time></trkpt><trkpt lat="44.6797289" lon="9.7438696"><ele>1027.1666666666665</ele><time>2026-04-04T13:27:40.918Z</time></trkpt><trkpt lat="44.6798024" lon="9.7439256"><ele>1027.3333333333333</ele><time>2026-04-04T13:27:41.888Z</time></trkpt><trkpt lat="44.6798687" lon="9.7439797"><ele>1027.5</ele><time>2026-04-04T13:27:42.899Z</time></trkpt><trkpt lat="44.6799219" lon="9.7440569"><ele>1027.6666666666667</ele><time>2026-04-04T13:27:43.905Z</time></trkpt><trkpt lat="44.6799651" lon="9.7441566"><ele>1027.8333333333335</ele><time>2026-04-04T13:27:44.94Z</time></trkpt><trkpt lat="44.6799893" lon="9.7442766"><ele>1028.0</ele><time>2026-04-04T13:27:45.941Z</time></trkpt><trkpt lat="44.6800051" lon="9.7444099"><ele>1030.0</ele><time>2026-04-04T13:27:46.942Z</time></trkpt><trkpt lat="44.6800267" lon="9.7445557"><ele>1032.0</ele><time>2026-04-04T13:27:47.951Z</time></trkpt><trkpt lat="44.6800504" lon="9.744717"><ele>1034.0</ele><time>2026-04-04T13:27:48.939Z</time></trkpt><trkpt lat="44.6800793" lon="9.7448963"><ele>1036.0</ele><time>2026-04-04T13:27:49.966Z</time></trkpt><trkpt lat="44.6801229" lon="9.7450564"><ele>1036.0</ele><time>2026-04-04T13:27:50.957Z</time></trkpt><trkpt lat="44.6801907" lon="9.7452058"><ele>1036.0</ele><time>2026-04-04T13:27:51.937Z</time></trkpt><trkpt lat="44.6802849" lon="9.7453485"><ele>1036.0</ele><time>2026-04-04T13:27:52.928Z</time></trkpt><trkpt lat="44.6803846" lon="9.7455017"><ele>1036.0</ele><time>2026-04-04T13:27:53.945Z</time></trkpt><trkpt lat="44.6804773" lon="9.745641"><ele>1037.5</ele><time>2026-04-04T13:27:54.954Z</time></trkpt><trkpt lat="44.680557" lon="9.7457636"><ele>1039.0</ele><time>2026-04-04T13:27:55.953Z</time></trkpt><trkpt lat="44.6806371" lon="9.7458841"><ele>1040.5</ele><time>2026-04-04T13:27:56.959Z</time></trkpt><trkpt lat="44.6807191" lon="9.7460018"><ele>1042.0</ele><time>2026-04-04T13:27:57.893Z</time></trkpt><trkpt lat="44.6808132" lon="9.7461056"><ele>1042.0</ele><time>2026-04-04T13:27:58.88Z</time></trkpt><trkpt lat="44.6809209" lon="9.7461851"><ele>1042.0</ele><time>2026-04-04T13:27:59.879Z</time></trkpt><trkpt lat="44.681042" lon="9.746254"><ele>1042.0</ele><time>2026-04-04T13:28:00.877Z</time></trkpt><trkpt lat="44.681163" lon="9.7463196"><ele>1042.0</ele><time>2026-04-04T13:28:01.931Z</time></trkpt><trkpt lat="44.6812844" lon="9.7463852"><ele>1039.5</ele><time>2026-04-04T13:28:02.922Z</time></trkpt><trkpt lat="44.6813932" lon="9.7464573"><ele>1037.0</ele><time>2026-04-04T13:28:03.891Z</time></trkpt><trkpt lat="44.681487" lon="9.7465609"><ele>1034.5</ele><time>2026-04-04T13:28:04.892Z</time></trkpt><trkpt lat="44.6815739" lon="9.7467114"><ele>1032.0</ele><time>2026-04-04T13:28:05.941Z</time></trkpt><trkpt lat="44.681658" lon="9.7468819"><ele>1032.0</ele><time>2026-04-04T13:28:06.956Z</time></trkpt><trkpt lat="44.6817357" lon="9.7470825"><ele>1032.0</ele><time>2026-04-04T13:28:07.938Z</time></trkpt><trkpt lat="44.6818452" lon="9.7472717"><ele>1032.0</ele><time>2026-04-04T13:28:08.939Z</time></trkpt><trkpt lat="44.6819837" lon="9.7474328"><ele>1025.3333333333333</ele><time>2026-04-04T13:28:09.953Z</time></trkpt><trkpt lat="44.6821312" lon="9.7475795"><ele>1018.6666666666666</ele><time>2026-04-04T13:28:10.935Z</time></trkpt><trkpt lat="44.6822688" lon="9.7477289"><ele>1012.0</ele><time>2026-04-04T13:28:11.905Z</time></trkpt><trkpt lat="44.682391" lon="9.7478754"><ele>1012.0</ele><time>2026-04-04T13:28:12.927Z</time></trkpt><trkpt lat="44.6825003" lon="9.7480227"><ele>1012.0</ele><time>2026-04-04T13:28:13.906Z</time></trkpt><trkpt lat="44.6825981" lon="9.7481741"><ele>1012.0</ele><time>2026-04-04T13:28:14.957Z</time></trkpt><trkpt lat="44.6826661" lon="9.7483493"><ele>1012.0</ele><time>2026-04-04T13:28:15.969Z</time></trkpt><trkpt lat="44.6827256" lon="9.7485332"><ele>1015.75</ele><time>2026-04-04T13:28:16.955Z</time></trkpt><trkpt lat="44.6827508" lon="9.7487141"><ele>1019.5</ele><time>2026-04-04T13:28:17.963Z</time></trkpt><trkpt lat="44.6827755" lon="9.748904"><ele>1023.25</ele><time>2026-04-04T13:28:18.949Z</time></trkpt><trkpt lat="44.6828082" lon="9.7490953"><ele>1027.0</ele><time>2026-04-04T13:28:19.966Z</time></trkpt><trkpt lat="44.6828576" lon="9.7492972"><ele>1019.6666666666666</ele><time>2026-04-04T13:28:20.964Z</time></trkpt><trkpt lat="44.6829206" lon="9.749493"><ele>1012.3333333333333</ele><time>2026-04-04T13:28:21.953Z</time></trkpt><trkpt lat="44.6830026" lon="9.7496757"><ele>1005.0</ele><time>2026-04-04T13:28:22.955Z</time></trkpt><trkpt lat="44.6831008" lon="9.7498434"><ele>1005.0</ele><time>2026-04-04T13:28:23.979Z</time></trkpt><trkpt lat="44.6831952" lon="9.7500068"><ele>1005.0</ele><time>2026-04-04T13:28:24.941Z</time></trkpt><trkpt lat="44.683287" lon="9.7501555"><ele>1005.0</ele><time>2026-04-04T13:28:25.898Z</time></trkpt><trkpt lat="44.6833968" lon="9.750288"><ele>1005.0</ele><time>2026-04-04T13:28:26.958Z</time></trkpt><trkpt lat="44.6835016" lon="9.7503852"><ele>1007.0</ele><time>2026-04-04T13:28:27.929Z</time></trkpt><trkpt lat="44.6835967" lon="9.7504519"><ele>1009.0</ele><time>2026-04-04T13:28:28.944Z</time></trkpt><trkpt lat="44.6836959" lon="9.7505248"><ele>1011.0</ele><time>2026-04-04T13:28:29.934Z</time></trkpt><trkpt lat="44.6837791" lon="9.750599"><ele>1013.0</ele><time>2026-04-04T13:28:30.948Z</time></trkpt><trkpt lat="44.6838429" lon="9.7506812"><ele>1015.0</ele><time>2026-04-04T13:28:31.954Z</time></trkpt><trkpt lat="44.6838743" lon="9.7507843"><ele>1007.75</ele><time>2026-04-04T13:28:32.947Z</time></trkpt><trkpt lat="44.6838575" lon="9.7509255"><ele>1000.5</ele><time>2026-04-04T13:28:33.933Z</time></trkpt><trkpt lat="44.6838045" lon="9.7511107"><ele>993.25</ele><time>2026-04-04T13:28:34.932Z</time></trkpt><trkpt lat="44.6837579" lon="9.7513029"><ele>986.0</ele><time>2026-04-04T13:28:35.949Z</time></trkpt><trkpt lat="44.6837173" lon="9.7514844"><ele>986.0</ele><time>2026-04-04T13:28:36.962Z</time></trkpt><trkpt lat="44.6837189" lon="9.7516222"><ele>985.9999999999999</ele><time>2026-04-04T13:28:37.889Z</time></trkpt><trkpt lat="44.683749" lon="9.7517395"><ele>985.9999999999999</ele><time>2026-04-04T13:28:38.918Z</time></trkpt><trkpt lat="44.6838227" lon="9.7518409"><ele>986.0</ele><time>2026-04-04T13:28:39.879Z</time></trkpt><trkpt lat="44.6839056" lon="9.751892"><ele>986.0</ele><time>2026-04-04T13:28:40.936Z</time></trkpt><trkpt lat="44.684011" lon="9.7519197"><ele>986.75</ele><time>2026-04-04T13:28:41.94Z</time></trkpt><trkpt lat="44.6841433" lon="9.751959"><ele>987.5</ele><time>2026-04-04T13:28:42.928Z</time></trkpt><trkpt lat="44.6842864" lon="9.7519832"><ele>988.25</ele><time>2026-04-04T13:28:43.941Z</time></trkpt><trkpt lat="44.6844245" lon="9.7520269"><ele>989.0</ele><time>2026-04-04T13:28:44.944Z</time></trkpt><trkpt lat="44.6845398" lon="9.7520768"><ele>989.0</ele><time>2026-04-04T13:28:45.936Z</time></trkpt><trkpt lat="44.6846535" lon="9.7521239"><ele>989.0</ele><time>2026-04-04T13:28:46.937Z</time></trkpt><trkpt lat="44.6847721" lon="9.7522215"><ele>989.0</ele><time>2026-04-04T13:28:47.957Z</time></trkpt><trkpt lat="44.6849019" lon="9.7523516"><ele>989.0</ele><time>2026-04-04T13:28:48.945Z</time></trkpt><trkpt lat="44.6850532" lon="9.7524936"><ele>989.0</ele><time>2026-04-04T13:28:49.943Z</time></trkpt><trkpt lat="44.6852088" lon="9.75261"><ele>989.0</ele><time>2026-04-04T13:28:50.924Z</time></trkpt><trkpt lat="44.6853545" lon="9.7527182"><ele>989.0</ele><time>2026-04-04T13:28:51.896Z</time></trkpt><trkpt lat="44.6854943" lon="9.7528131"><ele>986.25</ele><time>2026-04-04T13:28:52.926Z</time></trkpt><trkpt lat="44.6856091" lon="9.7528968"><ele>983.5</ele><time>2026-04-04T13:28:53.951Z</time></trkpt><trkpt lat="44.6857051" lon="9.7529741"><ele>980.75</ele><time>2026-04-04T13:28:54.932Z</time></trkpt><trkpt lat="44.685776" lon="9.7530841"><ele>978.0</ele><time>2026-04-04T13:28:55.942Z</time></trkpt><trkpt lat="44.6857917" lon="9.7532498"><ele>978.0</ele><time>2026-04-04T13:28:56.944Z</time></trkpt><trkpt lat="44.685813" lon="9.7534364"><ele>978.0</ele><time>2026-04-04T13:28:57.949Z</time></trkpt><trkpt lat="44.6858637" lon="9.7536072"><ele>978.0</ele><time>2026-04-04T13:28:58.94Z</time></trkpt><trkpt lat="44.6859637" lon="9.7537478"><ele>978.0</ele><time>2026-04-04T13:28:59.954Z</time></trkpt><trkpt lat="44.686019" lon="9.7539119"><ele>978.5</ele><time>2026-04-04T13:29:00.949Z</time></trkpt><trkpt lat="44.6860593" lon="9.7541031"><ele>979.0</ele><time>2026-04-04T13:29:01.971Z</time></trkpt><trkpt lat="44.6860865" lon="9.7542891"><ele>979.5</ele><time>2026-04-04T13:29:02.955Z</time></trkpt><trkpt lat="44.6860977" lon="9.7544901"><ele>980.0</ele><time>2026-04-04T13:29:03.922Z</time></trkpt><trkpt lat="44.6860769" lon="9.7546938"><ele>984.0</ele><time>2026-04-04T13:29:04.951Z</time></trkpt><trkpt lat="44.6860138" lon="9.7548665"><ele>988.0</ele><time>2026-04-04T13:29:05.911Z</time></trkpt><trkpt lat="44.6859673" lon="9.7549809"><ele>992.0</ele><time>2026-04-04T13:29:06.896Z</time></trkpt><trkpt lat="44.6859509" lon="9.7550877"><ele>996.0</ele><time>2026-04-04T13:29:07.881Z</time></trkpt><trkpt lat="44.6859583" lon="9.7551958"><ele>1000.0</ele><time>2026-04-04T13:29:08.876Z</time></trkpt><trkpt lat="44.6860068" lon="9.7552907"><ele>1001.2</ele><time>2026-04-04T13:29:09.88Z</time></trkpt><trkpt lat="44.6860923" lon="9.7553425"><ele>1002.4</ele><time>2026-04-04T13:29:10.876Z</time></trkpt><trkpt lat="44.6861706" lon="9.7553567"><ele>1003.5999999999999</ele><time>2026-04-04T13:29:11.885Z</time></trkpt><trkpt lat="44.6862612" lon="9.7553478"><ele>1004.8</ele><time>2026-04-04T13:29:12.877Z</time></trkpt><trkpt lat="44.6863667" lon="9.7553516"><ele>1006.0</ele><time>2026-04-04T13:29:13.893Z</time></trkpt><trkpt lat="44.6864936" lon="9.7553679"><ele>1006.0</ele><time>2026-04-04T13:29:14.932Z</time></trkpt><trkpt lat="44.6866286" lon="9.7553881"><ele>1006.0</ele><time>2026-04-04T13:29:15.916Z</time></trkpt><trkpt lat="44.6867667" lon="9.7554207"><ele>1006.0</ele><time>2026-04-04T13:29:16.959Z</time></trkpt><trkpt lat="44.6868984" lon="9.755446"><ele>1006.0</ele><time>2026-04-04T13:29:17.943Z</time></trkpt><trkpt lat="44.6870123" lon="9.7554695"><ele>1001.8</ele><time>2026-04-04T13:29:18.937Z</time></trkpt><trkpt lat="44.6871161" lon="9.7554763"><ele>997.5999999999999</ele><time>2026-04-04T13:29:19.949Z</time></trkpt><trkpt lat="44.6872199" lon="9.7554963"><ele>993.4</ele><time>2026-04-04T13:29:20.957Z</time></trkpt><trkpt lat="44.6873108" lon="9.755518"><ele>989.2</ele><time>2026-04-04T13:29:21.947Z</time></trkpt><trkpt lat="44.687407" lon="9.7555937"><ele>985.0</ele><time>2026-04-04T13:29:22.945Z</time></trkpt><trkpt lat="44.6874933" lon="9.7557287"><ele>985.0</ele><time>2026-04-04T13:29:23.958Z</time></trkpt><trkpt lat="44.6875765" lon="9.7558947"><ele>985.0</ele><time>2026-04-04T13:29:24.904Z</time></trkpt><trkpt lat="44.6876535" lon="9.7560589"><ele>985.0</ele><time>2026-04-04T13:29:25.948Z</time></trkpt><trkpt lat="44.6877346" lon="9.7562135"><ele>985.0</ele><time>2026-04-04T13:29:26.967Z</time></trkpt><trkpt lat="44.6878233" lon="9.7563599"><ele>984.5</ele><time>2026-04-04T13:29:27.949Z</time></trkpt><trkpt lat="44.6879244" lon="9.7564842"><ele>984.0</ele><time>2026-04-04T13:29:28.978Z</time></trkpt><trkpt lat="44.6880373" lon="9.7565749"><ele>983.5</ele><time>2026-04-04T13:29:29.911Z</time></trkpt><trkpt lat="44.6881649" lon="9.7566686"><ele>983.0</ele><time>2026-04-04T13:29:30.903Z</time></trkpt><trkpt lat="44.6883077" lon="9.7567433"><ele>983.0</ele><time>2026-04-04T13:29:31.959Z</time></trkpt><trkpt lat="44.6884499" lon="9.7568123"><ele>983.0</ele><time>2026-04-04T13:29:32.907Z</time></trkpt><trkpt lat="44.6885772" lon="9.7568776"><ele>983.0</ele><time>2026-04-04T13:29:33.951Z</time></trkpt><trkpt lat="44.6887223" lon="9.7569047"><ele>983.0</ele><time>2026-04-04T13:29:34.972Z</time></trkpt><trkpt lat="44.6888468" lon="9.7568866"><ele>980.75</ele><time>2026-04-04T13:29:35.96Z</time></trkpt><trkpt lat="44.6889816" lon="9.756838"><ele>978.5</ele><time>2026-04-04T13:29:36.95Z</time></trkpt><trkpt lat="44.6891098" lon="9.7567665"><ele>976.25</ele><time>2026-04-04T13:29:37.902Z</time></trkpt><trkpt lat="44.68923" lon="9.7567298"><ele>974.0</ele><time>2026-04-04T13:29:38.945Z</time></trkpt><trkpt lat="44.6893364" lon="9.7567521"><ele>974.0</ele><time>2026-04-04T13:29:39.95Z</time></trkpt><trkpt lat="44.6894645" lon="9.7568015"><ele>974.0</ele><time>2026-04-04T13:29:40.942Z</time></trkpt><trkpt lat="44.6895872" lon="9.7568813"><ele>974.0</ele><time>2026-04-04T13:29:41.943Z</time></trkpt><trkpt lat="44.6896977" lon="9.7569745"><ele>974.0</ele><time>2026-04-04T13:29:42.97Z</time></trkpt><trkpt lat="44.6897794" lon="9.7570864"><ele>974.0</ele><time>2026-04-04T13:29:43.929Z</time></trkpt><trkpt lat="44.6898165" lon="9.7572177"><ele>974.0</ele><time>2026-04-04T13:29:44.948Z</time></trkpt><trkpt lat="44.6898294" lon="9.7573845"><ele>974.0</ele><time>2026-04-04T13:29:45.943Z</time></trkpt><trkpt lat="44.6898289" lon="9.7575596"><ele>974.0</ele><time>2026-04-04T13:29:46.942Z</time></trkpt><trkpt lat="44.6898214" lon="9.7577373"><ele>977.2</ele><time>2026-04-04T13:29:47.924Z</time></trkpt><trkpt lat="44.6898314" lon="9.7579044"><ele>980.4000000000001</ele><time>2026-04-04T13:29:48.955Z</time></trkpt><trkpt lat="44.6898798" lon="9.7580285"><ele>983.6</ele><time>2026-04-04T13:29:49.919Z</time></trkpt><trkpt lat="44.6899601" lon="9.7581382"><ele>986.8</ele><time>2026-04-04T13:29:50.95Z</time></trkpt><trkpt lat="44.6900498" lon="9.7582296"><ele>990.0</ele><time>2026-04-04T13:29:51.931Z</time></trkpt><trkpt lat="44.6901805" lon="9.758323"><ele>991.0</ele><time>2026-04-04T13:29:52.955Z</time></trkpt><trkpt lat="44.6903238" lon="9.7584121"><ele>992.0</ele><time>2026-04-04T13:29:53.96Z</time></trkpt><trkpt lat="44.6904912" lon="9.7585031"><ele>993.0</ele><time>2026-04-04T13:29:54.954Z</time></trkpt><trkpt lat="44.6906568" lon="9.7585861"><ele>993.0</ele><time>2026-04-04T13:29:55.947Z</time></trkpt><trkpt lat="44.6908054" lon="9.7586692"><ele>993.0</ele><time>2026-04-04T13:29:56.944Z</time></trkpt><trkpt lat="44.6909434" lon="9.7587541"><ele>993.0</ele><time>2026-04-04T13:29:57.95Z</time></trkpt><trkpt lat="44.6910709" lon="9.7588467"><ele>989.5</ele><time>2026-04-04T13:29:58.961Z</time></trkpt><trkpt lat="44.6912035" lon="9.7589437"><ele>986.0</ele><time>2026-04-04T13:29:59.901Z</time></trkpt><trkpt lat="44.6913324" lon="9.7590148"><ele>982.5</ele><time>2026-04-04T13:30:00.956Z</time></trkpt><trkpt lat="44.6914402" lon="9.7590569"><ele>979.0</ele><time>2026-04-04T13:30:01.962Z</time></trkpt><trkpt lat="44.6915698" lon="9.7590623"><ele>979.0</ele><time>2026-04-04T13:30:02.951Z</time></trkpt><trkpt lat="44.6917217" lon="9.7590179"><ele>979.0</ele><time>2026-04-04T13:30:03.954Z</time></trkpt><trkpt lat="44.6918824" lon="9.7589673"><ele>979.0</ele><time>2026-04-04T13:30:04.936Z</time></trkpt><trkpt lat="44.6920174" lon="9.758891"><ele>977.75</ele><time>2026-04-04T13:30:05.963Z</time></trkpt><trkpt lat="44.6921371" lon="9.7588071"><ele>976.5</ele><time>2026-04-04T13:30:06.937Z</time></trkpt><trkpt lat="44.6922566" lon="9.7587215"><ele>975.25</ele><time>2026-04-04T13:30:07.94Z</time></trkpt><trkpt lat="44.6923654" lon="9.7586506"><ele>974.0</ele><time>2026-04-04T13:30:08.951Z</time></trkpt><trkpt lat="44.6924704" lon="9.7586316"><ele>974.0</ele><time>2026-04-04T13:30:09.933Z</time></trkpt><trkpt lat="44.6925747" lon="9.7586694"><ele>974.0</ele><time>2026-04-04T13:30:10.941Z</time></trkpt><trkpt lat="44.6926558" lon="9.7587678"><ele>974.0</ele><time>2026-04-04T13:30:11.914Z</time></trkpt><trkpt lat="44.6927268" lon="9.7588889"><ele>974.0</ele><time>2026-04-04T13:30:12.945Z</time></trkpt><trkpt lat="44.6927898" lon="9.759061"><ele>968.25</ele><time>2026-04-04T13:30:13.964Z</time></trkpt><trkpt lat="44.6928435" lon="9.7592531"><ele>962.5</ele><time>2026-04-04T13:30:14.916Z</time></trkpt><trkpt lat="44.6928799" lon="9.7594421"><ele>956.75</ele><time>2026-04-04T13:30:15.902Z</time></trkpt><trkpt lat="44.6929119" lon="9.7596217"><ele>951.0</ele><time>2026-04-04T13:30:16.935Z</time></trkpt><trkpt lat="44.692925" lon="9.7598187"><ele>951.0</ele><time>2026-04-04T13:30:17.943Z</time></trkpt><trkpt lat="44.6929468" lon="9.760021"><ele>951.0</ele><time>2026-04-04T13:30:18.953Z</time></trkpt><trkpt lat="44.6929894" lon="9.7602325"><ele>951.0</ele><time>2026-04-04T13:30:19.953Z</time></trkpt><trkpt lat="44.6930551" lon="9.7604366"><ele>955.3333333333333</ele><time>2026-04-04T13:30:20.934Z</time></trkpt><trkpt lat="44.6931475" lon="9.7606604"><ele>959.6666666666666</ele><time>2026-04-04T13:30:21.95Z</time></trkpt><trkpt lat="44.6932459" lon="9.7608791"><ele>964.0</ele><time>2026-04-04T13:30:22.943Z</time></trkpt><trkpt lat="44.6933466" lon="9.7610724"><ele>964.0</ele><time>2026-04-04T13:30:23.962Z</time></trkpt><trkpt lat="44.6934568" lon="9.7612263"><ele>964.0</ele><time>2026-04-04T13:30:24.916Z</time></trkpt><trkpt lat="44.6935713" lon="9.7613498"><ele>964.0</ele><time>2026-04-04T13:30:25.928Z</time></trkpt><trkpt lat="44.6936808" lon="9.7614339"><ele>964.0</ele><time>2026-04-04T13:30:26.959Z</time></trkpt><trkpt lat="44.6937647" lon="9.761464"><ele>964.0</ele><time>2026-04-04T13:30:27.947Z</time></trkpt><trkpt lat="44.6938709" lon="9.7614916"><ele>964.0</ele><time>2026-04-04T13:30:28.956Z</time></trkpt><trkpt lat="44.6939916" lon="9.7615116"><ele>964.0</ele><time>2026-04-04T13:30:29.932Z</time></trkpt><trkpt lat="44.6941287" lon="9.7615386"><ele>964.0</ele><time>2026-04-04T13:30:30.894Z</time></trkpt><trkpt lat="44.6942752" lon="9.7615898"><ele>964.0</ele><time>2026-04-04T13:30:31.911Z</time></trkpt><trkpt lat="44.6944108" lon="9.7616638"><ele>964.0</ele><time>2026-04-04T13:30:32.945Z</time></trkpt><trkpt lat="44.6945325" lon="9.7617599"><ele>964.0</ele><time>2026-04-04T13:30:33.966Z</time></trkpt><trkpt lat="44.6946545" lon="9.7618753"><ele>964.0</ele><time>2026-04-04T13:30:34.939Z</time></trkpt><trkpt lat="44.6947776" lon="9.7619972"><ele>962.75</ele><time>2026-04-04T13:30:35.951Z</time></trkpt><trkpt lat="44.6949033" lon="9.7621075"><ele>961.5</ele><time>2026-04-04T13:30:36.967Z</time></trkpt><trkpt lat="44.6950297" lon="9.7621705"><ele>960.25</ele><time>2026-04-04T13:30:37.937Z</time></trkpt><trkpt lat="44.6951925" lon="9.7621946"><ele>959.0</ele><time>2026-04-04T13:30:38.957Z</time></trkpt><trkpt lat="44.6953707" lon="9.7622139"><ele>954.6666666666667</ele><time>2026-04-04T13:30:39.948Z</time></trkpt><trkpt lat="44.6955536" lon="9.7622563"><ele>950.3333333333333</ele><time>2026-04-04T13:30:40.949Z</time></trkpt><trkpt lat="44.6957169" lon="9.7623037"><ele>946.0</ele><time>2026-04-04T13:30:41.928Z</time></trkpt><trkpt lat="44.6958619" lon="9.7623621"><ele>946.0</ele><time>2026-04-04T13:30:42.957Z</time></trkpt><trkpt lat="44.6960075" lon="9.7624444"><ele>946.0</ele><time>2026-04-04T13:30:43.95Z</time></trkpt><trkpt lat="44.6961446" lon="9.7625608"><ele>946.0</ele><time>2026-04-04T13:30:44.94Z</time></trkpt><trkpt lat="44.6962661" lon="9.7627024"><ele>943.6666666666666</ele><time>2026-04-04T13:30:45.94Z</time></trkpt><trkpt lat="44.6963673" lon="9.7628764"><ele>941.3333333333333</ele><time>2026-04-04T13:30:46.944Z</time></trkpt><trkpt lat="44.6964528" lon="9.7630852"><ele>939.0</ele><time>2026-04-04T13:30:47.946Z</time></trkpt><trkpt lat="44.6965178" lon="9.7632888"><ele>939.0</ele><time>2026-04-04T13:30:48.97Z</time></trkpt><trkpt lat="44.6965736" lon="9.7634758"><ele>939.0</ele><time>2026-04-04T13:30:49.938Z</time></trkpt><trkpt lat="44.6966493" lon="9.7636181"><ele>939.0</ele><time>2026-04-04T13:30:50.948Z</time></trkpt><trkpt lat="44.6967459" lon="9.7637011"><ele>939.0</ele><time>2026-04-04T13:30:51.95Z</time></trkpt><trkpt lat="44.6968724" lon="9.7637276"><ele>943.0</ele><time>2026-04-04T13:30:52.942Z</time></trkpt><trkpt lat="44.6970279" lon="9.7636965"><ele>947.0</ele><time>2026-04-04T13:30:53.948Z</time></trkpt><trkpt lat="44.6971916" lon="9.7636495"><ele>951.0</ele><time>2026-04-04T13:30:54.924Z</time></trkpt><trkpt lat="44.6973667" lon="9.7635659"><ele>948.6666666666667</ele><time>2026-04-04T13:30:55.938Z</time></trkpt><trkpt lat="44.6975243" lon="9.7634707"><ele>946.3333333333334</ele><time>2026-04-04T13:30:56.964Z</time></trkpt><trkpt lat="44.6976806" lon="9.7633602"><ele>944.0</ele><time>2026-04-04T13:30:57.933Z</time></trkpt><trkpt lat="44.6978235" lon="9.7632118"><ele>944.0</ele><time>2026-04-04T13:30:58.947Z</time></trkpt><trkpt lat="44.6979643" lon="9.7630065"><ele>944.0</ele><time>2026-04-04T13:30:59.948Z</time></trkpt><trkpt lat="44.6980965" lon="9.7628058"><ele>944.0</ele><time>2026-04-04T13:31:00.951Z</time></trkpt><trkpt lat="44.6982563" lon="9.7626296"><ele>943.0</ele><time>2026-04-04T13:31:01.95Z</time></trkpt><trkpt lat="44.6984159" lon="9.7624874"><ele>942.0</ele><time>2026-04-04T13:31:02.928Z</time></trkpt><trkpt lat="44.6985861" lon="9.7623375"><ele>941.0</ele><time>2026-04-04T13:31:03.941Z</time></trkpt><trkpt lat="44.698728" lon="9.762191"><ele>941.0</ele><time>2026-04-04T13:31:04.96Z</time></trkpt><trkpt lat="44.6988593" lon="9.762051"><ele>941.0</ele><time>2026-04-04T13:31:05.963Z</time></trkpt><trkpt lat="44.6989856" lon="9.7619589"><ele>941.0</ele><time>2026-04-04T13:31:06.93Z</time></trkpt><trkpt lat="44.6990984" lon="9.7619032"><ele>941.0</ele><time>2026-04-04T13:31:07.955Z</time></trkpt><trkpt lat="44.699224" lon="9.7618794"><ele>941.0</ele><time>2026-04-04T13:31:08.953Z</time></trkpt><trkpt lat="44.6993863" lon="9.761885"><ele>941.0</ele><time>2026-04-04T13:31:09.911Z</time></trkpt><trkpt lat="44.6995516" lon="9.7618988"><ele>941.0</ele><time>2026-04-04T13:31:10.941Z</time></trkpt><trkpt lat="44.6996996" lon="9.7619096"><ele>941.75</ele><time>2026-04-04T13:31:11.962Z</time></trkpt><trkpt lat="44.699849" lon="9.7618902"><ele>942.5</ele><time>2026-04-04T13:31:12.943Z</time></trkpt><trkpt lat="44.6999881" lon="9.7618002"><ele>943.25</ele><time>2026-04-04T13:31:13.956Z</time></trkpt><trkpt lat="44.7000644" lon="9.7616468"><ele>944.0</ele><time>2026-04-04T13:31:14.944Z</time></trkpt><trkpt lat="44.700118" lon="9.761432"><ele>941.25</ele><time>2026-04-04T13:31:15.963Z</time></trkpt><trkpt lat="44.7001725" lon="9.7612305"><ele>938.5</ele><time>2026-04-04T13:31:16.931Z</time></trkpt><trkpt lat="44.7002398" lon="9.7610383"><ele>935.75</ele><time>2026-04-04T13:31:17.951Z</time></trkpt><trkpt lat="44.7003164" lon="9.7608669"><ele>933.0</ele><time>2026-04-04T13:31:18.956Z</time></trkpt><trkpt lat="44.7004076" lon="9.7607052"><ele>933.0</ele><time>2026-04-04T13:31:19.939Z</time></trkpt><trkpt lat="44.7005262" lon="9.7605724"><ele>933.0</ele><time>2026-04-04T13:31:20.936Z</time></trkpt><trkpt lat="44.7006582" lon="9.7604299"><ele>933.0</ele><time>2026-04-04T13:31:21.948Z</time></trkpt><trkpt lat="44.7007726" lon="9.7602831"><ele>929.75</ele><time>2026-04-04T13:31:22.953Z</time></trkpt><trkpt lat="44.7008702" lon="9.7601174"><ele>926.5</ele><time>2026-04-04T13:31:23.946Z</time></trkpt><trkpt lat="44.7009324" lon="9.7599412"><ele>923.25</ele><time>2026-04-04T13:31:24.948Z</time></trkpt><trkpt lat="44.70098" lon="9.7597527"><ele>920.0</ele><time>2026-04-04T13:31:25.966Z</time></trkpt><trkpt lat="44.7010064" lon="9.7595654"><ele>920.0</ele><time>2026-04-04T13:31:26.926Z</time></trkpt><trkpt lat="44.7010293" lon="9.7594177"><ele>920.0</ele><time>2026-04-04T13:31:27.952Z</time></trkpt><trkpt lat="44.7010667" lon="9.7592941"><ele>920.0</ele><time>2026-04-04T13:31:28.962Z</time></trkpt><trkpt lat="44.7011213" lon="9.7591955"><ele>920.0</ele><time>2026-04-04T13:31:29.94Z</time></trkpt><trkpt lat="44.7012017" lon="9.7591035"><ele>920.0</ele><time>2026-04-04T13:31:30.962Z</time></trkpt><trkpt lat="44.7012799" lon="9.7590062"><ele>920.0</ele><time>2026-04-04T13:31:31.935Z</time></trkpt><trkpt lat="44.7013475" lon="9.758916"><ele>920.0</ele><time>2026-04-04T13:31:32.951Z</time></trkpt><trkpt lat="44.7013684" lon="9.7587871"><ele>920.0</ele><time>2026-04-04T13:31:33.921Z</time></trkpt><trkpt lat="44.7013483" lon="9.7586078"><ele>920.0</ele><time>2026-04-04T13:31:34.951Z</time></trkpt><trkpt lat="44.7013388" lon="9.758442"><ele>920.0</ele><time>2026-04-04T13:31:35.922Z</time></trkpt><trkpt lat="44.7013344" lon="9.7582734"><ele>920.0</ele><time>2026-04-04T13:31:36.958Z</time></trkpt><trkpt lat="44.7013636" lon="9.7581227"><ele>920.0</ele><time>2026-04-04T13:31:37.952Z</time></trkpt><trkpt lat="44.7014353" lon="9.7579714"><ele>920.0</ele><time>2026-04-04T13:31:38.948Z</time></trkpt><trkpt lat="44.701544" lon="9.7578319"><ele>920.0</ele><time>2026-04-04T13:31:39.944Z</time></trkpt><trkpt lat="44.7016635" lon="9.7576734"><ele>918.0</ele><time>2026-04-04T13:31:40.943Z</time></trkpt><trkpt lat="44.7017848" lon="9.7575172"><ele>916.0</ele><time>2026-04-04T13:31:41.948Z</time></trkpt><trkpt lat="44.7018779" lon="9.7573612"><ele>914.0</ele><time>2026-04-04T13:31:42.946Z</time></trkpt><trkpt lat="44.7019353" lon="9.7572001"><ele>912.0</ele><time>2026-04-04T13:31:43.915Z</time></trkpt><trkpt lat="44.7019591" lon="9.7570371"><ele>913.4000000000001</ele><time>2026-04-04T13:31:44.952Z</time></trkpt><trkpt lat="44.7019622" lon="9.7568929"><ele>914.8000000000001</ele><time>2026-04-04T13:31:45.943Z</time></trkpt><trkpt lat="44.7019778" lon="9.7567684"><ele>916.2</ele><time>2026-04-04T13:31:46.951Z</time></trkpt><trkpt lat="44.7020117" lon="9.7566506"><ele>917.6</ele><time>2026-04-04T13:31:47.963Z</time></trkpt><trkpt lat="44.7020594" lon="9.7565428"><ele>919.0</ele><time>2026-04-04T13:31:48.95Z</time></trkpt><trkpt lat="44.7021024" lon="9.7564301"><ele>919.0</ele><time>2026-04-04T13:31:49.963Z</time></trkpt><trkpt lat="44.7021875" lon="9.7563236"><ele>919.0</ele><time>2026-04-04T13:31:50.963Z</time></trkpt><trkpt lat="44.7023294" lon="9.7562257"><ele>919.0</ele><time>2026-04-04T13:31:51.962Z</time></trkpt><trkpt lat="44.7024688" lon="9.7561333"><ele>919.0</ele><time>2026-04-04T13:31:52.934Z</time></trkpt><trkpt lat="44.7026103" lon="9.7560737"><ele>920.25</ele><time>2026-04-04T13:31:53.96Z</time></trkpt><trkpt lat="44.7027512" lon="9.7560551"><ele>921.5</ele><time>2026-04-04T13:31:54.944Z</time></trkpt><trkpt lat="44.7028779" lon="9.7560477"><ele>922.75</ele><time>2026-04-04T13:31:55.942Z</time></trkpt><trkpt lat="44.70302" lon="9.7560577"><ele>924.0</ele><time>2026-04-04T13:31:56.962Z</time></trkpt><trkpt lat="44.7031747" lon="9.756087"><ele>924.0</ele><time>2026-04-04T13:31:57.956Z</time></trkpt><trkpt lat="44.7033204" lon="9.7561387"><ele>924.0</ele><time>2026-04-04T13:31:58.967Z</time></trkpt><trkpt lat="44.7034616" lon="9.7562001"><ele>924.0</ele><time>2026-04-04T13:31:59.934Z</time></trkpt><trkpt lat="44.7035871" lon="9.7562746"><ele>924.0</ele><time>2026-04-04T13:32:00.959Z</time></trkpt><trkpt lat="44.70372" lon="9.7563455"><ele>921.6666666666667</ele><time>2026-04-04T13:32:01.958Z</time></trkpt><trkpt lat="44.7038772" lon="9.756396"><ele>919.3333333333334</ele><time>2026-04-04T13:32:02.972Z</time></trkpt><trkpt lat="44.7040332" lon="9.7563722"><ele>917.0</ele><time>2026-04-04T13:32:03.923Z</time></trkpt><trkpt lat="44.7042108" lon="9.7562846"><ele>917.0</ele><time>2026-04-04T13:32:04.938Z</time></trkpt><trkpt lat="44.704388" lon="9.7561875"><ele>917.0</ele><time>2026-04-04T13:32:05.922Z</time></trkpt><trkpt lat="44.7045497" lon="9.75611"><ele>917.0</ele><time>2026-04-04T13:32:06.979Z</time></trkpt><trkpt lat="44.7047071" lon="9.7560364"><ele>913.25</ele><time>2026-04-04T13:32:07.953Z</time></trkpt><trkpt lat="44.7048608" lon="9.7559616"><ele>909.5</ele><time>2026-04-04T13:32:08.968Z</time></trkpt><trkpt lat="44.7049992" lon="9.7558975"><ele>905.75</ele><time>2026-04-04T13:32:09.949Z</time></trkpt><trkpt lat="44.7051216" lon="9.7558502"><ele>902.0</ele><time>2026-04-04T13:32:10.952Z</time></trkpt><trkpt lat="44.705241" lon="9.7558155"><ele>902.8</ele><time>2026-04-04T13:32:11.921Z</time></trkpt><trkpt lat="44.7053459" lon="9.7558028"><ele>903.6</ele><time>2026-04-04T13:32:12.954Z</time></trkpt><trkpt lat="44.7054432" lon="9.7558128"><ele>904.3999999999999</ele><time>2026-04-04T13:32:13.978Z</time></trkpt><trkpt lat="44.705514" lon="9.755877"><ele>905.1999999999999</ele><time>2026-04-04T13:32:14.96Z</time></trkpt><trkpt lat="44.7055717" lon="9.7559831"><ele>906.0</ele><time>2026-04-04T13:32:15.947Z</time></trkpt><trkpt lat="44.7056001" lon="9.7561268"><ele>906.0</ele><time>2026-04-04T13:32:16.919Z</time></trkpt><trkpt lat="44.7056004" lon="9.7562775"><ele>906.0</ele><time>2026-04-04T13:32:17.967Z</time></trkpt><trkpt lat="44.7056131" lon="9.7564445"><ele>906.0</ele><time>2026-04-04T13:32:18.943Z</time></trkpt><trkpt lat="44.7056503" lon="9.7566132"><ele>906.0</ele><time>2026-04-04T13:32:19.955Z</time></trkpt><trkpt lat="44.70571" lon="9.7567818"><ele>910.25</ele><time>2026-04-04T13:32:20.953Z</time></trkpt><trkpt lat="44.7057751" lon="9.7569706"><ele>914.5</ele><time>2026-04-04T13:32:21.953Z</time></trkpt><trkpt lat="44.705842" lon="9.7571535"><ele>918.75</ele><time>2026-04-04T13:32:22.94Z</time></trkpt><trkpt lat="44.7059327" lon="9.7573201"><ele>923.0</ele><time>2026-04-04T13:32:23.916Z</time></trkpt><trkpt lat="44.7060462" lon="9.7574804"><ele>919.3333333333334</ele><time>2026-04-04T13:32:24.938Z</time></trkpt><trkpt lat="44.7061537" lon="9.7576259"><ele>915.6666666666667</ele><time>2026-04-04T13:32:25.954Z</time></trkpt><trkpt lat="44.7062602" lon="9.757785"><ele>912.0</ele><time>2026-04-04T13:32:26.944Z</time></trkpt><trkpt lat="44.7063634" lon="9.7579529"><ele>912.0</ele><time>2026-04-04T13:32:27.946Z</time></trkpt><trkpt lat="44.7064758" lon="9.7581198"><ele>912.0</ele><time>2026-04-04T13:32:28.939Z</time></trkpt><trkpt lat="44.7065983" lon="9.7582662"><ele>912.0</ele><time>2026-04-04T13:32:29.95Z</time></trkpt><trkpt lat="44.7067084" lon="9.7583936"><ele>912.0</ele><time>2026-04-04T13:32:30.965Z</time></trkpt><trkpt lat="44.7068031" lon="9.7585343"><ele>912.0</ele><time>2026-04-04T13:32:31.965Z</time></trkpt><trkpt lat="44.7068853" lon="9.7586953"><ele>912.0</ele><time>2026-04-04T13:32:32.923Z</time></trkpt><trkpt lat="44.706948" lon="9.7589057"><ele>912.0</ele><time>2026-04-04T13:32:33.942Z</time></trkpt><trkpt lat="44.7070182" lon="9.7591331"><ele>909.3333333333333</ele><time>2026-04-04T13:32:34.955Z</time></trkpt><trkpt lat="44.707093" lon="9.7593459"><ele>906.6666666666666</ele><time>2026-04-04T13:32:35.929Z</time></trkpt><trkpt lat="44.7071625" lon="9.7595595"><ele>904.0</ele><time>2026-04-04T13:32:36.943Z</time></trkpt><trkpt lat="44.707219" lon="9.7597477"><ele>904.0</ele><time>2026-04-04T13:32:37.956Z</time></trkpt><trkpt lat="44.7072527" lon="9.759936"><ele>904.0</ele><time>2026-04-04T13:32:38.951Z</time></trkpt><trkpt lat="44.7072784" lon="9.7601311"><ele>904.0</ele><time>2026-04-04T13:32:39.965Z</time></trkpt><trkpt lat="44.7072747" lon="9.7603168"><ele>904.0</ele><time>2026-04-04T13:32:40.946Z</time></trkpt><trkpt lat="44.707282" lon="9.7604785"><ele>904.8000000000001</ele><time>2026-04-04T13:32:41.964Z</time></trkpt><trkpt lat="44.7073009" lon="9.7606232"><ele>905.6000000000001</ele><time>2026-04-04T13:32:42.957Z</time></trkpt><trkpt lat="44.7073405" lon="9.7607303"><ele>906.4</ele><time>2026-04-04T13:32:43.916Z</time></trkpt><trkpt lat="44.707414" lon="9.7608271"><ele>907.2</ele><time>2026-04-04T13:32:44.95Z</time></trkpt><trkpt lat="44.7075077" lon="9.7609282"><ele>908.0</ele><time>2026-04-04T13:32:45.937Z</time></trkpt><trkpt lat="44.7076013" lon="9.7610298"><ele>907.75</ele><time>2026-04-04T13:32:46.959Z</time></trkpt><trkpt lat="44.7076877" lon="9.7611579"><ele>907.5</ele><time>2026-04-04T13:32:47.953Z</time></trkpt><trkpt lat="44.7077382" lon="9.761325"><ele>907.25</ele><time>2026-04-04T13:32:48.951Z</time></trkpt><trkpt lat="44.7077814" lon="9.7614649"><ele>907.0</ele><time>2026-04-04T13:32:49.95Z</time></trkpt><trkpt lat="44.7078278" lon="9.761584"><ele>907.0</ele><time>2026-04-04T13:32:50.958Z</time></trkpt><trkpt lat="44.707897" lon="9.7616716"><ele>907.0</ele><time>2026-04-04T13:32:51.96Z</time></trkpt><trkpt lat="44.7080158" lon="9.7617381"><ele>907.0</ele><time>2026-04-04T13:32:52.952Z</time></trkpt><trkpt lat="44.7081453" lon="9.7617824"><ele>907.0</ele><time>2026-04-04T13:32:53.95Z</time></trkpt><trkpt lat="44.7082618" lon="9.7618334"><ele>908.0</ele><time>2026-04-04T13:32:54.929Z</time></trkpt><trkpt lat="44.7083513" lon="9.76193"><ele>909.0</ele><time>2026-04-04T13:32:55.952Z</time></trkpt><trkpt lat="44.7084145" lon="9.7620918"><ele>910.0</ele><time>2026-04-04T13:32:56.927Z</time></trkpt><trkpt lat="44.7084603" lon="9.762289"><ele>911.0</ele><time>2026-04-04T13:32:57.956Z</time></trkpt><trkpt lat="44.7084807" lon="9.7625264"><ele>912.6666666666667</ele><time>2026-04-04T13:32:58.934Z</time></trkpt><trkpt lat="44.7084976" lon="9.7627703"><ele>914.3333333333333</ele><time>2026-04-04T13:32:59.945Z</time></trkpt><trkpt lat="44.7085545" lon="9.7630264"><ele>916.0</ele><time>2026-04-04T13:33:00.949Z</time></trkpt><trkpt lat="44.7086458" lon="9.7632691"><ele>913.3333333333333</ele><time>2026-04-04T13:33:01.962Z</time></trkpt><trkpt lat="44.7087533" lon="9.7634814"><ele>910.6666666666667</ele><time>2026-04-04T13:33:02.933Z</time></trkpt><trkpt lat="44.7088633" lon="9.7636884"><ele>908.0</ele><time>2026-04-04T13:33:03.92Z</time></trkpt><trkpt lat="44.708969" lon="9.7638902"><ele>908.0</ele><time>2026-04-04T13:33:04.925Z</time></trkpt><trkpt lat="44.7090703" lon="9.7640962"><ele>908.0</ele><time>2026-04-04T13:33:05.956Z</time></trkpt><trkpt lat="44.7091494" lon="9.7642901"><ele>908.0</ele><time>2026-04-04T13:33:06.95Z</time></trkpt><trkpt lat="44.7092276" lon="9.7644593"><ele>910.8</ele><time>2026-04-04T13:33:07.945Z</time></trkpt><trkpt lat="44.7093234" lon="9.7646086"><ele>913.5999999999999</ele><time>2026-04-04T13:33:08.951Z</time></trkpt><trkpt lat="44.709407" lon="9.7647358"><ele>916.4000000000001</ele><time>2026-04-04T13:33:09.944Z</time></trkpt><trkpt lat="44.7094753" lon="9.7648161"><ele>919.2</ele><time>2026-04-04T13:33:10.939Z</time></trkpt><trkpt lat="44.7095473" lon="9.7648506"><ele>922.0</ele><time>2026-04-04T13:33:11.971Z</time></trkpt><trkpt lat="44.7096319" lon="9.7648231"><ele>922.0</ele><time>2026-04-04T13:33:12.947Z</time></trkpt><trkpt lat="44.7097159" lon="9.7647517"><ele>922.0</ele><time>2026-04-04T13:33:13.944Z</time></trkpt><trkpt lat="44.7098147" lon="9.7646182"><ele>922.0</ele><time>2026-04-04T13:33:14.95Z</time></trkpt><trkpt lat="44.7099113" lon="9.764449"><ele>922.0</ele><time>2026-04-04T13:33:15.93Z</time></trkpt><trkpt lat="44.710008" lon="9.7642681"><ele>916.5</ele><time>2026-04-04T13:33:16.958Z</time></trkpt><trkpt lat="44.7101016" lon="9.7641181"><ele>911.0</ele><time>2026-04-04T13:33:17.957Z</time></trkpt><trkpt lat="44.7101996" lon="9.7640326"><ele>905.5</ele><time>2026-04-04T13:33:18.97Z</time></trkpt><trkpt lat="44.710313" lon="9.7639615"><ele>900.0</ele><time>2026-04-04T13:33:19.955Z</time></trkpt><trkpt lat="44.7104169" lon="9.7639145"><ele>899.2</ele><time>2026-04-04T13:33:20.942Z</time></trkpt><trkpt lat="44.7104904" lon="9.7639123"><ele>898.4</ele><time>2026-04-04T13:33:21.951Z</time></trkpt><trkpt lat="44.7105806" lon="9.7639877"><ele>897.5999999999999</ele><time>2026-04-04T13:33:22.947Z</time></trkpt><trkpt lat="44.7106475" lon="9.7640707"><ele>896.8</ele><time>2026-04-04T13:33:23.942Z</time></trkpt><trkpt lat="44.7107186" lon="9.764214"><ele>896.0</ele><time>2026-04-04T13:33:24.946Z</time></trkpt><trkpt lat="44.7107716" lon="9.7644061"><ele>896.0</ele><time>2026-04-04T13:33:25.962Z</time></trkpt><trkpt lat="44.7108187" lon="9.7646532"><ele>896.0</ele><time>2026-04-04T13:33:26.937Z</time></trkpt><trkpt lat="44.7108674" lon="9.7648824"><ele>896.0</ele><time>2026-04-04T13:33:27.959Z</time></trkpt><trkpt lat="44.710925" lon="9.7651083"><ele>897.5</ele><time>2026-04-04T13:33:28.946Z</time></trkpt><trkpt lat="44.7109351" lon="9.7653117"><ele>899.0</ele><time>2026-04-04T13:33:29.962Z</time></trkpt><trkpt lat="44.7109261" lon="9.7655065"><ele>900.5</ele><time>2026-04-04T13:33:30.926Z</time></trkpt><trkpt lat="44.7109038" lon="9.7657165"><ele>902.0</ele><time>2026-04-04T13:33:31.941Z</time></trkpt><trkpt lat="44.7108917" lon="9.7659275"><ele>902.25</ele><time>2026-04-04T13:33:32.961Z</time></trkpt><trkpt lat="44.7108929" lon="9.7661212"><ele>902.5</ele><time>2026-04-04T13:33:33.955Z</time></trkpt><trkpt lat="44.7109138" lon="9.7662881"><ele>902.75</ele><time>2026-04-04T13:33:34.955Z</time></trkpt><trkpt lat="44.710944" lon="9.7664331"><ele>903.0</ele><time>2026-04-04T13:33:35.962Z</time></trkpt><trkpt lat="44.7109844" lon="9.7665724"><ele>903.0</ele><time>2026-04-04T13:33:36.943Z</time></trkpt><trkpt lat="44.7110065" lon="9.7667053"><ele>903.0</ele><time>2026-04-04T13:33:37.934Z</time></trkpt><trkpt lat="44.7110281" lon="9.7668596"><ele>903.0</ele><time>2026-04-04T13:33:38.948Z</time></trkpt><trkpt lat="44.7110403" lon="9.7670402"><ele>903.0</ele><time>2026-04-04T13:33:39.964Z</time></trkpt><trkpt lat="44.7110573" lon="9.7672464"><ele>902.5</ele><time>2026-04-04T13:33:40.954Z</time></trkpt><trkpt lat="44.7110613" lon="9.7674413"><ele>902.0</ele><time>2026-04-04T13:33:41.921Z</time></trkpt><trkpt lat="44.711052" lon="9.7676285"><ele>901.5</ele><time>2026-04-04T13:33:42.957Z</time></trkpt><trkpt lat="44.711021" lon="9.7678136"><ele>901.0</ele><time>2026-04-04T13:33:43.949Z</time></trkpt><trkpt lat="44.7109878" lon="9.7679762"><ele>900.4999999999999</ele><time>2026-04-04T13:33:44.935Z</time></trkpt><trkpt lat="44.7109613" lon="9.768111"><ele>900.0</ele><time>2026-04-04T13:33:45.921Z</time></trkpt><trkpt lat="44.710955" lon="9.7682293"><ele>899.5</ele><time>2026-04-04T13:33:46.894Z</time></trkpt><trkpt lat="44.7109977" lon="9.7683393"><ele>899.0</ele><time>2026-04-04T13:33:47.942Z</time></trkpt><trkpt lat="44.711055" lon="9.7684302"><ele>898.4999999999999</ele><time>2026-04-04T13:33:48.913Z</time></trkpt><trkpt lat="44.7111227" lon="9.7685108"><ele>898.0</ele><time>2026-04-04T13:33:49.931Z</time></trkpt><trkpt lat="44.7112365" lon="9.76856"><ele>896.0</ele><time>2026-04-04T13:33:50.936Z</time></trkpt><trkpt lat="44.7113739" lon="9.7685943"><ele>894.0</ele><time>2026-04-04T13:33:51.952Z</time></trkpt><trkpt lat="44.7115267" lon="9.7686328"><ele>892.0</ele><time>2026-04-04T13:33:52.962Z</time></trkpt><trkpt lat="44.711681" lon="9.7686913"><ele>892.0</ele><time>2026-04-04T13:33:53.954Z</time></trkpt><trkpt lat="44.7118172" lon="9.768786"><ele>892.0</ele><time>2026-04-04T13:33:54.946Z</time></trkpt><trkpt lat="44.7119546" lon="9.7689016"><ele>892.0</ele><time>2026-04-04T13:33:55.944Z</time></trkpt><trkpt lat="44.7120899" lon="9.7690068"><ele>885.75</ele><time>2026-04-04T13:33:56.948Z</time></trkpt><trkpt lat="44.7121967" lon="9.7691211"><ele>879.5</ele><time>2026-04-04T13:33:57.95Z</time></trkpt><trkpt lat="44.712286" lon="9.7692363"><ele>873.25</ele><time>2026-04-04T13:33:58.939Z</time></trkpt><trkpt lat="44.7123568" lon="9.7693736"><ele>867.0</ele><time>2026-04-04T13:33:59.959Z</time></trkpt><trkpt lat="44.7123889" lon="9.7695457"><ele>867.0</ele><time>2026-04-04T13:34:00.954Z</time></trkpt><trkpt lat="44.7123857" lon="9.7696893"><ele>867.0</ele><time>2026-04-04T13:34:01.968Z</time></trkpt><trkpt lat="44.7123385" lon="9.7698258"><ele>867.0</ele><time>2026-04-04T13:34:02.941Z</time></trkpt><trkpt lat="44.7122669" lon="9.7699502"><ele>867.0</ele><time>2026-04-04T13:34:03.956Z</time></trkpt><trkpt lat="44.7121999" lon="9.7700713"><ele>867.0</ele><time>2026-04-04T13:34:04.961Z</time></trkpt><trkpt lat="44.7121417" lon="9.7701912"><ele>866.2</ele><time>2026-04-04T13:34:05.943Z</time></trkpt><trkpt lat="44.7121012" lon="9.7703059"><ele>865.4000000000001</ele><time>2026-04-04T13:34:06.891Z</time></trkpt><trkpt lat="44.7120907" lon="9.7704437"><ele>864.5999999999999</ele><time>2026-04-04T13:34:07.896Z</time></trkpt><trkpt lat="44.712125" lon="9.7705731"><ele>863.8</ele><time>2026-04-04T13:34:08.942Z</time></trkpt><trkpt lat="44.7121669" lon="9.7707015"><ele>863.0</ele><time>2026-04-04T13:34:09.938Z</time></trkpt><trkpt lat="44.7121909" lon="9.7708561"><ele>862.5</ele><time>2026-04-04T13:34:10.931Z</time></trkpt><trkpt lat="44.7121886" lon="9.7710351"><ele>862.0</ele><time>2026-04-04T13:34:11.955Z</time></trkpt><trkpt lat="44.7121735" lon="9.7712507"><ele>861.5</ele><time>2026-04-04T13:34:12.98Z</time></trkpt><trkpt lat="44.7121658" lon="9.7714421"><ele>861.0</ele><time>2026-04-04T13:34:13.953Z</time></trkpt><trkpt lat="44.7121595" lon="9.7716017"><ele>861.0</ele><time>2026-04-04T13:34:14.944Z</time></trkpt><trkpt lat="44.7121346" lon="9.7717406"><ele>861.0</ele><time>2026-04-04T13:34:15.95Z</time></trkpt><trkpt lat="44.7120667" lon="9.7718623"><ele>861.0</ele><time>2026-04-04T13:34:16.919Z</time></trkpt><trkpt lat="44.7119542" lon="9.7719455"><ele>861.0</ele><time>2026-04-04T13:34:17.949Z</time></trkpt><trkpt lat="44.7118249" lon="9.7720271"><ele>860.6666666666667</ele><time>2026-04-04T13:34:18.956Z</time></trkpt><trkpt lat="44.711702" lon="9.7721221"><ele>860.3333333333334</ele><time>2026-04-04T13:34:19.936Z</time></trkpt><trkpt lat="44.7116096" lon="9.7722892"><ele>860.0</ele><time>2026-04-04T13:34:20.947Z</time></trkpt><trkpt lat="44.7115254" lon="9.7724854"><ele>860.0</ele><time>2026-04-04T13:34:21.95Z</time></trkpt><trkpt lat="44.711444" lon="9.7726812"><ele>860.0</ele><time>2026-04-04T13:34:22.93Z</time></trkpt><trkpt lat="44.7113787" lon="9.7728562"><ele>860.0</ele><time>2026-04-04T13:34:23.946Z</time></trkpt><trkpt lat="44.71132" lon="9.7730058"><ele>860.0</ele><time>2026-04-04T13:34:24.923Z</time></trkpt><trkpt lat="44.7112877" lon="9.7731567"><ele>858.25</ele><time>2026-04-04T13:34:25.933Z</time></trkpt><trkpt lat="44.7112897" lon="9.7733118"><ele>856.5</ele><time>2026-04-04T13:34:26.946Z</time></trkpt><trkpt lat="44.7113384" lon="9.7734952"><ele>854.75</ele><time>2026-04-04T13:34:27.924Z</time></trkpt><trkpt lat="44.7114007" lon="9.7737058"><ele>853.0</ele><time>2026-04-04T13:34:28.924Z</time></trkpt><trkpt lat="44.7114636" lon="9.7739165"><ele>852.3333333333333</ele><time>2026-04-04T13:34:29.956Z</time></trkpt><trkpt lat="44.7115407" lon="9.7741276"><ele>851.6666666666667</ele><time>2026-04-04T13:34:30.951Z</time></trkpt><trkpt lat="44.7116232" lon="9.7743452"><ele>851.0</ele><time>2026-04-04T13:34:31.905Z</time></trkpt><trkpt lat="44.7116935" lon="9.7745379"><ele>853.3333333333334</ele><time>2026-04-04T13:34:32.957Z</time></trkpt><trkpt lat="44.7117717" lon="9.7747213"><ele>855.6666666666667</ele><time>2026-04-04T13:34:33.945Z</time></trkpt><trkpt lat="44.7118586" lon="9.7749006"><ele>858.0</ele><time>2026-04-04T13:34:34.953Z</time></trkpt><trkpt lat="44.7119643" lon="9.7750994"><ele>851.0</ele><time>2026-04-04T13:34:35.924Z</time></trkpt><trkpt lat="44.7120731" lon="9.7752994"><ele>844.0</ele><time>2026-04-04T13:34:36.944Z</time></trkpt><trkpt lat="44.7121791" lon="9.7754917"><ele>837.0</ele><time>2026-04-04T13:34:37.951Z</time></trkpt><trkpt lat="44.7122748" lon="9.7756906"><ele>837.0</ele><time>2026-04-04T13:34:38.959Z</time></trkpt><trkpt lat="44.7123543" lon="9.7758722"><ele>837.0</ele><time>2026-04-04T13:34:39.949Z</time></trkpt><trkpt lat="44.7124358" lon="9.7760422"><ele>837.0</ele><time>2026-04-04T13:34:40.911Z</time></trkpt><trkpt lat="44.712542" lon="9.7761999"><ele>837.75</ele><time>2026-04-04T13:34:41.952Z</time></trkpt><trkpt lat="44.7126526" lon="9.7763348"><ele>838.5</ele><time>2026-04-04T13:34:42.944Z</time></trkpt><trkpt lat="44.7127574" lon="9.7764587"><ele>839.25</ele><time>2026-04-04T13:34:43.946Z</time></trkpt><trkpt lat="44.7128268" lon="9.7765876"><ele>840.0</ele><time>2026-04-04T13:34:44.945Z</time></trkpt><trkpt lat="44.7128743" lon="9.7767264"><ele>835.5</ele><time>2026-04-04T13:34:45.952Z</time></trkpt><trkpt lat="44.712902" lon="9.7768654"><ele>831.0</ele><time>2026-04-04T13:34:46.945Z</time></trkpt><trkpt lat="44.7129018" lon="9.7770165"><ele>826.5</ele><time>2026-04-04T13:34:47.953Z</time></trkpt><trkpt lat="44.7128405" lon="9.7771744"><ele>822.0</ele><time>2026-04-04T13:34:48.961Z</time></trkpt><trkpt lat="44.7127456" lon="9.7773566"><ele>825.25</ele><time>2026-04-04T13:34:49.954Z</time></trkpt><trkpt lat="44.7126702" lon="9.7775445"><ele>828.5</ele><time>2026-04-04T13:34:50.934Z</time></trkpt><trkpt lat="44.7126231" lon="9.7777339"><ele>831.75</ele><time>2026-04-04T13:34:51.936Z</time></trkpt><trkpt lat="44.7125821" lon="9.7779173"><ele>835.0</ele><time>2026-04-04T13:34:52.949Z</time></trkpt><trkpt lat="44.7125841" lon="9.7780889"><ele>835.0</ele><time>2026-04-04T13:34:53.961Z</time></trkpt><trkpt lat="44.7126549" lon="9.7782544"><ele>835.0</ele><time>2026-04-04T13:34:54.969Z</time></trkpt><trkpt lat="44.7127658" lon="9.7784378"><ele>835.0</ele><time>2026-04-04T13:34:55.949Z</time></trkpt><trkpt lat="44.71287" lon="9.7786198"><ele>830.5</ele><time>2026-04-04T13:34:56.938Z</time></trkpt><trkpt lat="44.7129569" lon="9.7787873"><ele>826.0</ele><time>2026-04-04T13:34:57.945Z</time></trkpt><trkpt lat="44.7130055" lon="9.7789381"><ele>821.5</ele><time>2026-04-04T13:34:58.95Z</time></trkpt><trkpt lat="44.713033" lon="9.7790839"><ele>817.0</ele><time>2026-04-04T13:34:59.97Z</time></trkpt><trkpt lat="44.7130414" lon="9.7792392"><ele>816.5</ele><time>2026-04-04T13:35:00.941Z</time></trkpt><trkpt lat="44.7130437" lon="9.779409"><ele>816.0</ele><time>2026-04-04T13:35:01.983Z</time></trkpt><trkpt lat="44.7130175" lon="9.779559"><ele>815.5</ele><time>2026-04-04T13:35:02.971Z</time></trkpt><trkpt lat="44.71301" lon="9.7797072"><ele>815.0</ele><time>2026-04-04T13:35:03.971Z</time></trkpt><trkpt lat="44.7130528" lon="9.7798717"><ele>815.0</ele><time>2026-04-04T13:35:04.981Z</time></trkpt><trkpt lat="44.713135" lon="9.7800383"><ele>815.0</ele><time>2026-04-04T13:35:05.978Z</time></trkpt><trkpt lat="44.7132161" lon="9.7801936"><ele>815.0</ele><time>2026-04-04T13:35:06.962Z</time></trkpt><trkpt lat="44.7132883" lon="9.7803604"><ele>815.0</ele><time>2026-04-04T13:35:07.968Z</time></trkpt><trkpt lat="44.7133215" lon="9.7805236"><ele>814.6</ele><time>2026-04-04T13:35:08.937Z</time></trkpt><trkpt lat="44.7133375" lon="9.7806683"><ele>814.2</ele><time>2026-04-04T13:35:09.977Z</time></trkpt><trkpt lat="44.7133546" lon="9.7807804"><ele>813.8</ele><time>2026-04-04T13:35:10.973Z</time></trkpt><trkpt lat="44.7134292" lon="9.7809006"><ele>813.4</ele><time>2026-04-04T13:35:11.963Z</time></trkpt><trkpt lat="44.7135372" lon="9.7809994"><ele>813.0</ele><time>2026-04-04T13:35:12.958Z</time></trkpt><trkpt lat="44.7136712" lon="9.7810717"><ele>813.0</ele><time>2026-04-04T13:35:13.96Z</time></trkpt><trkpt lat="44.7137923" lon="9.7811478"><ele>813.0</ele><time>2026-04-04T13:35:14.973Z</time></trkpt><trkpt lat="44.7138826" lon="9.7812496"><ele>813.0</ele><time>2026-04-04T13:35:15.966Z</time></trkpt><trkpt lat="44.7139505" lon="9.7813805"><ele>813.0</ele><time>2026-04-04T13:35:16.904Z</time></trkpt><trkpt lat="44.7139834" lon="9.7815579"><ele>813.0</ele><time>2026-04-04T13:35:17.962Z</time></trkpt><trkpt lat="44.7139909" lon="9.7817552"><ele>813.0</ele><time>2026-04-04T13:35:18.895Z</time></trkpt><trkpt lat="44.7140133" lon="9.7819221"><ele>813.0</ele><time>2026-04-04T13:35:19.943Z</time></trkpt><trkpt lat="44.7140575" lon="9.7820414"><ele>813.0</ele><time>2026-04-04T13:35:20.96Z</time></trkpt><trkpt lat="44.7141197" lon="9.7821321"><ele>813.0</ele><time>2026-04-04T13:35:21.964Z</time></trkpt><trkpt lat="44.7142056" lon="9.7822176"><ele>811.5</ele><time>2026-04-04T13:35:22.957Z</time></trkpt><trkpt lat="44.7143103" lon="9.7823138"><ele>810.0</ele><time>2026-04-04T13:35:23.966Z</time></trkpt><trkpt lat="44.714401" lon="9.782459"><ele>808.5</ele><time>2026-04-04T13:35:24.975Z</time></trkpt><trkpt lat="44.7144788" lon="9.7826532"><ele>807.0</ele><time>2026-04-04T13:35:25.961Z</time></trkpt><trkpt lat="44.7145499" lon="9.7828865"><ele>810.0</ele><time>2026-04-04T13:35:26.955Z</time></trkpt><trkpt lat="44.7146001" lon="9.7831269"><ele>813.0</ele><time>2026-04-04T13:35:27.959Z</time></trkpt><trkpt lat="44.7146345" lon="9.7833814"><ele>816.0</ele><time>2026-04-04T13:35:28.944Z</time></trkpt><trkpt lat="44.7146592" lon="9.7836375"><ele>816.0</ele><time>2026-04-04T13:35:29.96Z</time></trkpt><trkpt lat="44.714678" lon="9.783871"><ele>816.0</ele><time>2026-04-04T13:35:30.926Z</time></trkpt><trkpt lat="44.7146752" lon="9.7840929"><ele>816.0</ele><time>2026-04-04T13:35:31.93Z</time></trkpt><trkpt lat="44.714682" lon="9.7842915"><ele>814.6666666666667</ele><time>2026-04-04T13:35:32.94Z</time></trkpt><trkpt lat="44.71471" lon="9.7844865"><ele>813.3333333333334</ele><time>2026-04-04T13:35:33.962Z</time></trkpt><trkpt lat="44.7147851" lon="9.7846911"><ele>812.0</ele><time>2026-04-04T13:35:34.954Z</time></trkpt><trkpt lat="44.7148686" lon="9.7849077"><ele>812.0</ele><time>2026-04-04T13:35:35.955Z</time></trkpt><trkpt lat="44.714943" lon="9.7851181"><ele>812.0</ele><time>2026-04-04T13:35:36.967Z</time></trkpt><trkpt lat="44.7149752" lon="9.7853096"><ele>812.0</ele><time>2026-04-04T13:35:37.896Z</time></trkpt><trkpt lat="44.7149508" lon="9.7855052"><ele>812.0</ele><time>2026-04-04T13:35:38.951Z</time></trkpt><trkpt lat="44.7149145" lon="9.7857011"><ele>813.75</ele><time>2026-04-04T13:35:39.953Z</time></trkpt><trkpt lat="44.71483" lon="9.7858775"><ele>815.5</ele><time>2026-04-04T13:35:40.955Z</time></trkpt><trkpt lat="44.7147111" lon="9.786006"><ele>817.25</ele><time>2026-04-04T13:35:41.957Z</time></trkpt><trkpt lat="44.7146105" lon="9.7860818"><ele>819.0</ele><time>2026-04-04T13:35:42.928Z</time></trkpt><trkpt lat="44.714523" lon="9.7861655"><ele>823.0</ele><time>2026-04-04T13:35:43.943Z</time></trkpt><trkpt lat="44.7144687" lon="9.7862643"><ele>827.0</ele><time>2026-04-04T13:35:44.959Z</time></trkpt><trkpt lat="44.7144786" lon="9.7864643"><ele>831.0</ele><time>2026-04-04T13:35:45.949Z</time></trkpt><trkpt lat="44.7145038" lon="9.7866775"><ele>835.0</ele><time>2026-04-04T13:35:46.9Z</time></trkpt><trkpt lat="44.7145381" lon="9.7869205"><ele>836.3333333333333</ele><time>2026-04-04T13:35:47.908Z</time></trkpt><trkpt lat="44.7145747" lon="9.787166"><ele>837.6666666666667</ele><time>2026-04-04T13:35:48.936Z</time></trkpt><trkpt lat="44.7146057" lon="9.7874079"><ele>839.0</ele><time>2026-04-04T13:35:49.925Z</time></trkpt><trkpt lat="44.7146243" lon="9.7876174"><ele>836.75</ele><time>2026-04-04T13:35:50.951Z</time></trkpt><trkpt lat="44.7146112" lon="9.7878235"><ele>834.5</ele><time>2026-04-04T13:35:51.952Z</time></trkpt><trkpt lat="44.7145661" lon="9.7879956"><ele>832.25</ele><time>2026-04-04T13:35:52.932Z</time></trkpt><trkpt lat="44.7145105" lon="9.7881198"><ele>830.0</ele><time>2026-04-04T13:35:53.957Z</time></trkpt><trkpt lat="44.7144721" lon="9.7882219"><ele>830.0000000000001</ele><time>2026-04-04T13:35:54.951Z</time></trkpt><trkpt lat="44.7144867" lon="9.7883191"><ele>830.0</ele><time>2026-04-04T13:35:55.971Z</time></trkpt><trkpt lat="44.7145305" lon="9.7884113"><ele>830.0</ele><time>2026-04-04T13:35:56.94Z</time></trkpt><trkpt lat="44.7145935" lon="9.7884924"><ele>830.0</ele><time>2026-04-04T13:35:57.923Z</time></trkpt><trkpt lat="44.7146666" lon="9.7885623"><ele>830.0000000000001</ele><time>2026-04-04T13:35:58.921Z</time></trkpt><trkpt lat="44.7147738" lon="9.7886338"><ele>830.0</ele><time>2026-04-04T13:35:59.961Z</time></trkpt><trkpt lat="44.7149048" lon="9.7887346"><ele>827.25</ele><time>2026-04-04T13:36:00.94Z</time></trkpt><trkpt lat="44.7150017" lon="9.7888533"><ele>824.5</ele><time>2026-04-04T13:36:01.974Z</time></trkpt><trkpt lat="44.7150716" lon="9.7890138"><ele>821.75</ele><time>2026-04-04T13:36:02.922Z</time></trkpt><trkpt lat="44.7150952" lon="9.7892178"><ele>819.0</ele><time>2026-04-04T13:36:03.936Z</time></trkpt><trkpt lat="44.7150878" lon="9.7894262"><ele>818.3333333333333</ele><time>2026-04-04T13:36:04.948Z</time></trkpt><trkpt lat="44.7150476" lon="9.7896599"><ele>817.6666666666666</ele><time>2026-04-04T13:36:05.951Z</time></trkpt><trkpt lat="44.7149866" lon="9.7898871"><ele>817.0</ele><time>2026-04-04T13:36:06.94Z</time></trkpt><trkpt lat="44.7149171" lon="9.7901233"><ele>817.75</ele><time>2026-04-04T13:36:07.922Z</time></trkpt><trkpt lat="44.7148506" lon="9.7903477"><ele>818.5</ele><time>2026-04-04T13:36:08.932Z</time></trkpt><trkpt lat="44.7148062" lon="9.7905331"><ele>819.25</ele><time>2026-04-04T13:36:09.938Z</time></trkpt><trkpt lat="44.7147803" lon="9.7906977"><ele>820.0</ele><time>2026-04-04T13:36:10.947Z</time></trkpt><trkpt lat="44.7147702" lon="9.7908598"><ele>816.5</ele><time>2026-04-04T13:36:11.95Z</time></trkpt><trkpt lat="44.714779" lon="9.7910194"><ele>813.0</ele><time>2026-04-04T13:36:12.909Z</time></trkpt><trkpt lat="44.7148169" lon="9.7911748"><ele>809.5</ele><time>2026-04-04T13:36:13.955Z</time></trkpt><trkpt lat="44.7149028" lon="9.7913359"><ele>806.0</ele><time>2026-04-04T13:36:14.955Z</time></trkpt><trkpt lat="44.715014" lon="9.7914853"><ele>806.0</ele><time>2026-04-04T13:36:15.964Z</time></trkpt><trkpt lat="44.7151644" lon="9.7916018"><ele>806.0</ele><time>2026-04-04T13:36:16.972Z</time></trkpt><trkpt lat="44.7153165" lon="9.791698"><ele>806.0</ele><time>2026-04-04T13:36:17.971Z</time></trkpt><trkpt lat="44.7154555" lon="9.7917834"><ele>809.3333333333334</ele><time>2026-04-04T13:36:18.982Z</time></trkpt><trkpt lat="44.7156014" lon="9.791856"><ele>812.6666666666667</ele><time>2026-04-04T13:36:19.949Z</time></trkpt><trkpt lat="44.7157498" lon="9.791886"><ele>816.0</ele><time>2026-04-04T13:36:20.963Z</time></trkpt><trkpt lat="44.7159012" lon="9.7919173"><ele>816.0</ele><time>2026-04-04T13:36:21.955Z</time></trkpt><trkpt lat="44.7160401" lon="9.791919"><ele>816.0</ele><time>2026-04-04T13:36:22.94Z</time></trkpt><trkpt lat="44.7161731" lon="9.7918981"><ele>816.0</ele><time>2026-04-04T13:36:23.953Z</time></trkpt><trkpt lat="44.7163068" lon="9.7918648"><ele>816.0</ele><time>2026-04-04T13:36:24.948Z</time></trkpt><trkpt lat="44.7164262" lon="9.7918262"><ele>820.0</ele><time>2026-04-04T13:36:25.951Z</time></trkpt><trkpt lat="44.7165402" lon="9.7917843"><ele>824.0</ele><time>2026-04-04T13:36:26.936Z</time></trkpt><trkpt lat="44.7166443" lon="9.7917204"><ele>828.0</ele><time>2026-04-04T13:36:27.936Z</time></trkpt><trkpt lat="44.7167355" lon="9.7916422"><ele>832.0</ele><time>2026-04-04T13:36:28.933Z</time></trkpt><trkpt lat="44.7168242" lon="9.7915286"><ele>831.9999999999999</ele><time>2026-04-04T13:36:29.944Z</time></trkpt><trkpt lat="44.7168897" lon="9.7914327"><ele>832.0</ele><time>2026-04-04T13:36:30.943Z</time></trkpt><trkpt lat="44.7169565" lon="9.7913682"><ele>832.0</ele><time>2026-04-04T13:36:31.946Z</time></trkpt><trkpt lat="44.7170228" lon="9.7913829"><ele>832.0</ele><time>2026-04-04T13:36:32.9Z</time></trkpt><trkpt lat="44.7170901" lon="9.7914283"><ele>831.9999999999999</ele><time>2026-04-04T13:36:33.893Z</time></trkpt><trkpt lat="44.7171634" lon="9.7914717"><ele>832.0</ele><time>2026-04-04T13:36:34.886Z</time></trkpt><trkpt lat="44.7172355" lon="9.7914979"><ele>832.9999999999999</ele><time>2026-04-04T13:36:35.887Z</time></trkpt><trkpt lat="44.7173108" lon="9.7915428"><ele>834.0</ele><time>2026-04-04T13:36:36.887Z</time></trkpt><trkpt lat="44.7173903" lon="9.791585"><ele>835.0</ele><time>2026-04-04T13:36:37.911Z</time></trkpt><trkpt lat="44.7174797" lon="9.7916394"><ele>836.0</ele><time>2026-04-04T13:36:38.898Z</time></trkpt><trkpt lat="44.7175627" lon="9.7916862"><ele>836.9999999999999</ele><time>2026-04-04T13:36:39.89Z</time></trkpt><trkpt lat="44.7176447" lon="9.7917376"><ele>838.0</ele><time>2026-04-04T13:36:40.898Z</time></trkpt><trkpt lat="44.7177146" lon="9.7917959"><ele>839.1666666666666</ele><time>2026-04-04T13:36:41.899Z</time></trkpt><trkpt lat="44.7177765" lon="9.7918516"><ele>840.3333333333333</ele><time>2026-04-04T13:36:42.897Z</time></trkpt><trkpt lat="44.71786" lon="9.7919349"><ele>841.5</ele><time>2026-04-04T13:36:43.894Z</time></trkpt><trkpt lat="44.7179298" lon="9.7920161"><ele>842.6666666666667</ele><time>2026-04-04T13:36:44.893Z</time></trkpt><trkpt lat="44.7179778" lon="9.7921074"><ele>843.8333333333334</ele><time>2026-04-04T13:36:45.895Z</time></trkpt><trkpt lat="44.7180051" lon="9.7921912"><ele>845.0</ele><time>2026-04-04T13:36:46.896Z</time></trkpt><trkpt lat="44.718046" lon="9.7922692"><ele>845.0</ele><time>2026-04-04T13:36:47.905Z</time></trkpt><trkpt lat="44.7180933" lon="9.7923455"><ele>845.0</ele><time>2026-04-04T13:36:48.897Z</time></trkpt><trkpt lat="44.7181559" lon="9.7924238"><ele>845.0</ele><time>2026-04-04T13:36:49.902Z</time></trkpt><trkpt lat="44.7182254" lon="9.7924935"><ele>845.0</ele><time>2026-04-04T13:36:50.904Z</time></trkpt><trkpt lat="44.7183125" lon="9.7925636"><ele>845.0</ele><time>2026-04-04T13:36:51.892Z</time></trkpt><trkpt lat="44.7184049" lon="9.7926491"><ele>843.75</ele><time>2026-04-04T13:36:52.891Z</time></trkpt><trkpt lat="44.7185043" lon="9.7927507"><ele>842.5</ele><time>2026-04-04T13:36:53.895Z</time></trkpt><trkpt lat="44.7186023" lon="9.792868"><ele>841.25</ele><time>2026-04-04T13:36:54.897Z</time></trkpt><trkpt lat="44.7187024" lon="9.7929858"><ele>840.0</ele><time>2026-04-04T13:36:55.91Z</time></trkpt><trkpt lat="44.7187939" lon="9.7931079"><ele>842.0</ele><time>2026-04-04T13:36:56.895Z</time></trkpt><trkpt lat="44.7188758" lon="9.7932451"><ele>844.0</ele><time>2026-04-04T13:36:57.905Z</time></trkpt><trkpt lat="44.7189556" lon="9.7933981"><ele>846.0</ele><time>2026-04-04T13:36:58.898Z</time></trkpt><trkpt lat="44.719009" lon="9.7935701"><ele>848.0</ele><time>2026-04-04T13:36:59.903Z</time></trkpt><trkpt lat="44.7190459" lon="9.7937478"><ele>848.0</ele><time>2026-04-04T13:37:00.897Z</time></trkpt><trkpt lat="44.7190777" lon="9.7939167"><ele>848.0</ele><time>2026-04-04T13:37:01.91Z</time></trkpt><trkpt lat="44.7191006" lon="9.7940715"><ele>848.0</ele><time>2026-04-04T13:37:02.902Z</time></trkpt><trkpt lat="44.7191237" lon="9.7942311"><ele>848.0</ele><time>2026-04-04T13:37:03.909Z</time></trkpt><trkpt lat="44.7191535" lon="9.7943883"><ele>846.25</ele><time>2026-04-04T13:37:04.891Z</time></trkpt><trkpt lat="44.719211" lon="9.7945541"><ele>844.5</ele><time>2026-04-04T13:37:05.885Z</time></trkpt><trkpt lat="44.7192999" lon="9.7947296"><ele>842.75</ele><time>2026-04-04T13:37:06.912Z</time></trkpt><trkpt lat="44.7193836" lon="9.7948983"><ele>841.0</ele><time>2026-04-04T13:37:07.906Z</time></trkpt><trkpt lat="44.719463" lon="9.7950827"><ele>844.0</ele><time>2026-04-04T13:37:08.919Z</time></trkpt><trkpt lat="44.7195445" lon="9.7952429"><ele>847.0</ele><time>2026-04-04T13:37:09.909Z</time></trkpt><trkpt lat="44.7196192" lon="9.7953765"><ele>850.0</ele><time>2026-04-04T13:37:10.903Z</time></trkpt><trkpt lat="44.7196695" lon="9.7955178"><ele>853.0</ele><time>2026-04-04T13:37:11.901Z</time></trkpt><trkpt lat="44.7197017" lon="9.7956513"><ele>853.0</ele><time>2026-04-04T13:37:12.909Z</time></trkpt><trkpt lat="44.7197244" lon="9.7957832"><ele>853.0</ele><time>2026-04-04T13:37:13.908Z</time></trkpt><trkpt lat="44.719747" lon="9.7958975"><ele>853.0</ele><time>2026-04-04T13:37:14.914Z</time></trkpt><trkpt lat="44.7198409" lon="9.7960152"><ele>853.0</ele><time>2026-04-04T13:37:16.889Z</time></trkpt><trkpt lat="44.719921" lon="9.7960087"><ele>853.0</ele><time>2026-04-04T13:37:17.883Z</time></trkpt><trkpt lat="44.7200229" lon="9.7959863"><ele>853.0</ele><time>2026-04-04T13:37:18.907Z</time></trkpt><trkpt lat="44.720131" lon="9.7959745"><ele>853.0</ele><time>2026-04-04T13:37:19.882Z</time></trkpt><trkpt lat="44.7202557" lon="9.7959695"><ele>853.0</ele><time>2026-04-04T13:37:20.898Z</time></trkpt><trkpt lat="44.7203881" lon="9.7959558"><ele>853.0</ele><time>2026-04-04T13:37:21.947Z</time></trkpt><trkpt lat="44.7205171" lon="9.7959562"><ele>850.5</ele><time>2026-04-04T13:37:22.896Z</time></trkpt><trkpt lat="44.7206374" lon="9.7959839"><ele>848.0</ele><time>2026-04-04T13:37:23.881Z</time></trkpt><trkpt lat="44.7207532" lon="9.7960235"><ele>845.5</ele><time>2026-04-04T13:37:24.887Z</time></trkpt><trkpt lat="44.7208783" lon="9.7960848"><ele>843.0</ele><time>2026-04-04T13:37:25.884Z</time></trkpt><trkpt lat="44.7210007" lon="9.7962041"><ele>843.8</ele><time>2026-04-04T13:37:26.903Z</time></trkpt><trkpt lat="44.7211119" lon="9.7963163"><ele>844.5999999999999</ele><time>2026-04-04T13:37:27.896Z</time></trkpt><trkpt lat="44.7211993" lon="9.7963978"><ele>845.4000000000001</ele><time>2026-04-04T13:37:28.931Z</time></trkpt><trkpt lat="44.7212724" lon="9.7964103"><ele>846.2</ele><time>2026-04-04T13:37:29.91Z</time></trkpt><trkpt lat="44.7213642" lon="9.7963932"><ele>847.0</ele><time>2026-04-04T13:37:30.894Z</time></trkpt><trkpt lat="44.7214383" lon="9.7963206"><ele>847.0</ele><time>2026-04-04T13:37:31.899Z</time></trkpt><trkpt lat="44.7214852" lon="9.7962283"><ele>847.0</ele><time>2026-04-04T13:37:32.906Z</time></trkpt><trkpt lat="44.721478" lon="9.7961033"><ele>847.0</ele><time>2026-04-04T13:37:33.954Z</time></trkpt><trkpt lat="44.7214011" lon="9.7959201"><ele>847.0</ele><time>2026-04-04T13:37:34.899Z</time></trkpt><trkpt lat="44.7213363" lon="9.7957527"><ele>848.5</ele><time>2026-04-04T13:37:35.975Z</time></trkpt><trkpt lat="44.7212888" lon="9.7955978"><ele>850.0</ele><time>2026-04-04T13:37:36.9Z</time></trkpt><trkpt lat="44.7212757" lon="9.7954212"><ele>851.5</ele><time>2026-04-04T13:37:37.956Z</time></trkpt><trkpt lat="44.7213443" lon="9.7952437"><ele>853.0</ele><time>2026-04-04T13:37:38.916Z</time></trkpt><trkpt lat="44.7214589" lon="9.795049"><ele>857.0</ele><time>2026-04-04T13:37:39.913Z</time></trkpt><trkpt lat="44.7216053" lon="9.7948639"><ele>861.0</ele><time>2026-04-04T13:37:40.949Z</time></trkpt><trkpt lat="44.7217534" lon="9.7946914"><ele>865.0</ele><time>2026-04-04T13:37:41.934Z</time></trkpt><trkpt lat="44.721891" lon="9.7945408"><ele>864.0</ele><time>2026-04-04T13:37:42.941Z</time></trkpt><trkpt lat="44.7220312" lon="9.7944331"><ele>863.0</ele><time>2026-04-04T13:37:43.894Z</time></trkpt><trkpt lat="44.7221787" lon="9.7943934"><ele>862.0</ele><time>2026-04-04T13:37:44.936Z</time></trkpt><trkpt lat="44.7223201" lon="9.7944568"><ele>862.0</ele><time>2026-04-04T13:37:45.959Z</time></trkpt><trkpt lat="44.7224675" lon="9.7945212"><ele>862.0</ele><time>2026-04-04T13:37:46.942Z</time></trkpt><trkpt lat="44.7225937" lon="9.7945645"><ele>862.0</ele><time>2026-04-04T13:37:47.953Z</time></trkpt><trkpt lat="44.7227182" lon="9.794556"><ele>862.0</ele><time>2026-04-04T13:37:48.889Z</time></trkpt><trkpt lat="44.7228631" lon="9.7945011"><ele>863.5</ele><time>2026-04-04T13:37:49.961Z</time></trkpt><trkpt lat="44.7230065" lon="9.7944805"><ele>865.0</ele><time>2026-04-04T13:37:50.957Z</time></trkpt><trkpt lat="44.7231367" lon="9.7944978"><ele>866.5</ele><time>2026-04-04T13:37:51.946Z</time></trkpt><trkpt lat="44.7232531" lon="9.794593"><ele>868.0</ele><time>2026-04-04T13:37:52.939Z</time></trkpt><trkpt lat="44.7233995" lon="9.7947429"><ele>868.0</ele><time>2026-04-04T13:37:53.947Z</time></trkpt><trkpt lat="44.7235609" lon="9.794915"><ele>868.0</ele><time>2026-04-04T13:37:54.939Z</time></trkpt><trkpt lat="44.7237177" lon="9.7951078"><ele>868.0</ele><time>2026-04-04T13:37:55.953Z</time></trkpt><trkpt lat="44.7238632" lon="9.7953074"><ele>871.3333333333333</ele><time>2026-04-04T13:37:56.945Z</time></trkpt><trkpt lat="44.7239897" lon="9.7955209"><ele>874.6666666666667</ele><time>2026-04-04T13:37:57.917Z</time></trkpt><trkpt lat="44.7240986" lon="9.7957618"><ele>878.0</ele><time>2026-04-04T13:37:58.948Z</time></trkpt><trkpt lat="44.724205" lon="9.7959935"><ele>883.0</ele><time>2026-04-04T13:37:59.937Z</time></trkpt><trkpt lat="44.7243134" lon="9.7961968"><ele>888.0</ele><time>2026-04-04T13:38:00.959Z</time></trkpt><trkpt lat="44.7244452" lon="9.7963604"><ele>893.0</ele><time>2026-04-04T13:38:01.936Z</time></trkpt><trkpt lat="44.7245824" lon="9.796547"><ele>893.0</ele><time>2026-04-04T13:38:02.934Z</time></trkpt><trkpt lat="44.724712" lon="9.7967616"><ele>893.0</ele><time>2026-04-04T13:38:03.943Z</time></trkpt><trkpt lat="44.7248183" lon="9.7970176"><ele>893.0</ele><time>2026-04-04T13:38:04.916Z</time></trkpt><trkpt lat="44.7249141" lon="9.7972801"><ele>890.0</ele><time>2026-04-04T13:38:05.947Z</time></trkpt><trkpt lat="44.7250105" lon="9.7975308"><ele>887.0</ele><time>2026-04-04T13:38:06.968Z</time></trkpt><trkpt lat="44.7251189" lon="9.7977454"><ele>884.0</ele><time>2026-04-04T13:38:07.936Z</time></trkpt><trkpt lat="44.725241" lon="9.7979351"><ele>884.0</ele><time>2026-04-04T13:38:08.982Z</time></trkpt><trkpt lat="44.7253622" lon="9.7981074"><ele>884.0</ele><time>2026-04-04T13:38:09.901Z</time></trkpt><trkpt lat="44.7254897" lon="9.798275"><ele>884.0</ele><time>2026-04-04T13:38:10.928Z</time></trkpt><trkpt lat="44.7256198" lon="9.7984208"><ele>876.6666666666667</ele><time>2026-04-04T13:38:11.941Z</time></trkpt><trkpt lat="44.7257468" lon="9.7985313"><ele>869.3333333333333</ele><time>2026-04-04T13:38:12.973Z</time></trkpt><trkpt lat="44.7258782" lon="9.7986373"><ele>862.0</ele><time>2026-04-04T13:38:13.949Z</time></trkpt><trkpt lat="44.7260284" lon="9.7987211"><ele>867.0</ele><time>2026-04-04T13:38:14.966Z</time></trkpt><trkpt lat="44.7261734" lon="9.7987875"><ele>872.0</ele><time>2026-04-04T13:38:15.955Z</time></trkpt><trkpt lat="44.7263061" lon="9.7988631"><ele>877.0</ele><time>2026-04-04T13:38:16.927Z</time></trkpt><trkpt lat="44.7264291" lon="9.7989328"><ele>882.0</ele><time>2026-04-04T13:38:17.95Z</time></trkpt><trkpt lat="44.7265305" lon="9.799046"><ele>882.0</ele><time>2026-04-04T13:38:18.897Z</time></trkpt><trkpt lat="44.7265939" lon="9.7992092"><ele>882.0</ele><time>2026-04-04T13:38:19.908Z</time></trkpt><trkpt lat="44.7266103" lon="9.7994505"><ele>882.0</ele><time>2026-04-04T13:38:20.938Z</time></trkpt><trkpt lat="44.726585" lon="9.7997576"><ele>879.6666666666667</ele><time>2026-04-04T13:38:21.921Z</time></trkpt><trkpt lat="44.7265718" lon="9.8000332"><ele>877.3333333333334</ele><time>2026-04-04T13:38:22.938Z</time></trkpt><trkpt lat="44.7265737" lon="9.8002553"><ele>875.0</ele><time>2026-04-04T13:38:23.942Z</time></trkpt><trkpt lat="44.726601" lon="9.800467"><ele>873.5</ele><time>2026-04-04T13:38:24.915Z</time></trkpt><trkpt lat="44.7266532" lon="9.8006344"><ele>872.0</ele><time>2026-04-04T13:38:25.92Z</time></trkpt><trkpt lat="44.7267353" lon="9.8007759"><ele>870.5</ele><time>2026-04-04T13:38:26.933Z</time></trkpt><trkpt lat="44.726823" lon="9.800888"><ele>869.0</ele><time>2026-04-04T13:38:27.947Z</time></trkpt><trkpt lat="44.7269471" lon="9.8009585"><ele>869.0</ele><time>2026-04-04T13:38:28.963Z</time></trkpt><trkpt lat="44.7270924" lon="9.8009775"><ele>869.0</ele><time>2026-04-04T13:38:29.945Z</time></trkpt><trkpt lat="44.727282" lon="9.8009527"><ele>869.0</ele><time>2026-04-04T13:38:30.911Z</time></trkpt><trkpt lat="44.7274652" lon="9.8009032"><ele>869.0</ele><time>2026-04-04T13:38:31.956Z</time></trkpt><trkpt lat="44.727643" lon="9.8007908"><ele>869.0</ele><time>2026-04-04T13:38:32.884Z</time></trkpt><trkpt lat="44.7278326" lon="9.8006647"><ele>869.0</ele><time>2026-04-04T13:38:33.885Z</time></trkpt><trkpt lat="44.7279957" lon="9.8005498"><ele>867.0</ele><time>2026-04-04T13:38:34.88Z</time></trkpt><trkpt lat="44.7281351" lon="9.8003943"><ele>865.0</ele><time>2026-04-04T13:38:35.908Z</time></trkpt><trkpt lat="44.7282852" lon="9.8002"><ele>863.0</ele><time>2026-04-04T13:38:36.95Z</time></trkpt><trkpt lat="44.728435" lon="9.7999866"><ele>862.25</ele><time>2026-04-04T13:38:37.95Z</time></trkpt><trkpt lat="44.7285597" lon="9.7998081"><ele>861.5</ele><time>2026-04-04T13:38:38.94Z</time></trkpt><trkpt lat="44.7286509" lon="9.7996953"><ele>860.75</ele><time>2026-04-04T13:38:39.949Z</time></trkpt><trkpt lat="44.7287517" lon="9.799607"><ele>860.0</ele><time>2026-04-04T13:38:40.946Z</time></trkpt><trkpt lat="44.7288491" lon="9.7995487"><ele>860.0</ele><time>2026-04-04T13:38:41.894Z</time></trkpt><trkpt lat="44.7289619" lon="9.7995335"><ele>860.0</ele><time>2026-04-04T13:38:42.936Z</time></trkpt><trkpt lat="44.7290582" lon="9.7996544"><ele>860.0</ele><time>2026-04-04T13:38:43.948Z</time></trkpt><trkpt lat="44.7291443" lon="9.7998365"><ele>860.0</ele><time>2026-04-04T13:38:44.944Z</time></trkpt><trkpt lat="44.7292377" lon="9.7999292"><ele>860.0</ele><time>2026-04-04T13:38:45.947Z</time></trkpt><trkpt lat="44.7293528" lon="9.7999618"><ele>860.0</ele><time>2026-04-04T13:38:46.94Z</time></trkpt><trkpt lat="44.7294945" lon="9.7999422"><ele>860.0</ele><time>2026-04-04T13:38:47.965Z</time></trkpt><trkpt lat="44.7296463" lon="9.7998796"><ele>860.0</ele><time>2026-04-04T13:38:48.948Z</time></trkpt><trkpt lat="44.7297981" lon="9.7998442"><ele>861.0</ele><time>2026-04-04T13:38:49.97Z</time></trkpt><trkpt lat="44.7299476" lon="9.7998509"><ele>862.0</ele><time>2026-04-04T13:38:50.937Z</time></trkpt><trkpt lat="44.7300912" lon="9.799905"><ele>863.0</ele><time>2026-04-04T13:38:51.914Z</time></trkpt><trkpt lat="44.7301806" lon="9.8000518"><ele>864.0</ele><time>2026-04-04T13:38:52.925Z</time></trkpt><trkpt lat="44.7302194" lon="9.8002887"><ele>863.6666666666667</ele><time>2026-04-04T13:38:53.938Z</time></trkpt><trkpt lat="44.7302372" lon="9.8005545"><ele>863.3333333333334</ele><time>2026-04-04T13:38:54.967Z</time></trkpt><trkpt lat="44.7302224" lon="9.8008187"><ele>863.0</ele><time>2026-04-04T13:38:55.952Z</time></trkpt><trkpt lat="44.7302231" lon="9.8010431"><ele>858.75</ele><time>2026-04-04T13:38:56.919Z</time></trkpt><trkpt lat="44.7302531" lon="9.8012165"><ele>854.5</ele><time>2026-04-04T13:38:57.938Z</time></trkpt><trkpt lat="44.7303395" lon="9.8013358"><ele>850.25</ele><time>2026-04-04T13:38:58.958Z</time></trkpt><trkpt lat="44.7304497" lon="9.8014409"><ele>846.0</ele><time>2026-04-04T13:38:59.913Z</time></trkpt><trkpt lat="44.7305892" lon="9.8015044"><ele>846.0</ele><time>2026-04-04T13:39:00.943Z</time></trkpt><trkpt lat="44.7307577" lon="9.8015483"><ele>846.0</ele><time>2026-04-04T13:39:01.964Z</time></trkpt><trkpt lat="44.73093" lon="9.8016278"><ele>846.0</ele><time>2026-04-04T13:39:02.946Z</time></trkpt><trkpt lat="44.7310855" lon="9.8017198"><ele>845.75</ele><time>2026-04-04T13:39:03.952Z</time></trkpt><trkpt lat="44.7312135" lon="9.8017719"><ele>845.5</ele><time>2026-04-04T13:39:04.945Z</time></trkpt><trkpt lat="44.7313324" lon="9.8017575"><ele>845.25</ele><time>2026-04-04T13:39:05.953Z</time></trkpt><trkpt lat="44.731453" lon="9.8017058"><ele>845.0</ele><time>2026-04-04T13:39:06.914Z</time></trkpt><trkpt lat="44.7315879" lon="9.8016309"><ele>845.0</ele><time>2026-04-04T13:39:07.878Z</time></trkpt><trkpt lat="44.7317234" lon="9.8015415"><ele>845.0</ele><time>2026-04-04T13:39:08.883Z</time></trkpt><trkpt lat="44.7318528" lon="9.8014916"><ele>845.0</ele><time>2026-04-04T13:39:09.881Z</time></trkpt><trkpt lat="44.7319805" lon="9.80152"><ele>845.0</ele><time>2026-04-04T13:39:10.909Z</time></trkpt><trkpt lat="44.7321188" lon="9.801575"><ele>843.25</ele><time>2026-04-04T13:39:11.944Z</time></trkpt><trkpt lat="44.7322702" lon="9.8016123"><ele>841.5</ele><time>2026-04-04T13:39:12.94Z</time></trkpt><trkpt lat="44.7324084" lon="9.8016588"><ele>839.75</ele><time>2026-04-04T13:39:13.945Z</time></trkpt><trkpt lat="44.7325336" lon="9.8016903"><ele>838.0</ele><time>2026-04-04T13:39:14.943Z</time></trkpt><trkpt lat="44.7326286" lon="9.8017214"><ele>838.0</ele><time>2026-04-04T13:39:15.919Z</time></trkpt><trkpt lat="44.7327109" lon="9.8017905"><ele>838.0</ele><time>2026-04-04T13:39:17.912Z</time></trkpt><trkpt lat="44.7328029" lon="9.8018564"><ele>838.0</ele><time>2026-04-04T13:39:19.927Z</time></trkpt><trkpt lat="44.7328685" lon="9.8019235"><ele>838.0</ele><time>2026-04-04T13:39:20.953Z</time></trkpt><trkpt lat="44.7329251" lon="9.8020142"><ele>838.0</ele><time>2026-04-04T13:39:21.917Z</time></trkpt><trkpt lat="44.7329845" lon="9.8021118"><ele>836.4</ele><time>2026-04-04T13:39:22.965Z</time></trkpt><trkpt lat="44.7330253" lon="9.8022018"><ele>834.8</ele><time>2026-04-04T13:39:23.954Z</time></trkpt><trkpt lat="44.7330885" lon="9.8023398"><ele>833.2</ele><time>2026-04-04T13:39:25.957Z</time></trkpt><trkpt lat="44.7331725" lon="9.802485"><ele>831.6</ele><time>2026-04-04T13:39:27.944Z</time></trkpt><trkpt lat="44.7332325" lon="9.8025544"><ele>830.0</ele><time>2026-04-04T13:39:28.939Z</time></trkpt><trkpt lat="44.733307" lon="9.8026176"><ele>829.6</ele><time>2026-04-04T13:39:29.921Z</time></trkpt><trkpt lat="44.7333821" lon="9.8026868"><ele>829.2</ele><time>2026-04-04T13:39:30.888Z</time></trkpt><trkpt lat="44.7334579" lon="9.8027627"><ele>828.8</ele><time>2026-04-04T13:39:31.937Z</time></trkpt><trkpt lat="44.7335406" lon="9.8028456"><ele>828.4</ele><time>2026-04-04T13:39:32.896Z</time></trkpt><trkpt lat="44.7336172" lon="9.8029356"><ele>828.0</ele><time>2026-04-04T13:39:33.938Z</time></trkpt><trkpt lat="44.7336942" lon="9.803028"><ele>828.0</ele><time>2026-04-04T13:39:34.917Z</time></trkpt><trkpt lat="44.733764" lon="9.8031358"><ele>828.0</ele><time>2026-04-04T13:39:35.921Z</time></trkpt><trkpt lat="44.733839" lon="9.8032351"><ele>828.0</ele><time>2026-04-04T13:39:36.953Z</time></trkpt><trkpt lat="44.7339204" lon="9.8033137"><ele>828.0</ele><time>2026-04-04T13:39:37.941Z</time></trkpt><trkpt lat="44.7340134" lon="9.8033746"><ele>828.0</ele><time>2026-04-04T13:39:38.951Z</time></trkpt><trkpt lat="44.7341084" lon="9.8034201"><ele>828.0</ele><time>2026-04-04T13:39:39.936Z</time></trkpt><trkpt lat="44.7342187" lon="9.8034397"><ele>828.0</ele><time>2026-04-04T13:39:40.95Z</time></trkpt><trkpt lat="44.7343322" lon="9.8034371"><ele>828.0</ele><time>2026-04-04T13:39:41.967Z</time></trkpt><trkpt lat="44.7344593" lon="9.8033914"><ele>828.0</ele><time>2026-04-04T13:39:42.958Z</time></trkpt><trkpt lat="44.7345863" lon="9.8033274"><ele>827.0</ele><time>2026-04-04T13:39:43.93Z</time></trkpt><trkpt lat="44.7347126" lon="9.8032422"><ele>826.0</ele><time>2026-04-04T13:39:44.944Z</time></trkpt><trkpt lat="44.7348286" lon="9.8031471"><ele>825.0</ele><time>2026-04-04T13:39:45.939Z</time></trkpt><trkpt lat="44.734944" lon="9.8030699"><ele>824.0</ele><time>2026-04-04T13:39:46.932Z</time></trkpt><trkpt lat="44.7350498" lon="9.8030304"><ele>824.0</ele><time>2026-04-04T13:39:47.925Z</time></trkpt><trkpt lat="44.7351547" lon="9.8030384"><ele>824.0</ele><time>2026-04-04T13:39:48.947Z</time></trkpt><trkpt lat="44.7352566" lon="9.8030766"><ele>824.0</ele><time>2026-04-04T13:39:49.943Z</time></trkpt><trkpt lat="44.735372" lon="9.8031378"><ele>824.0</ele><time>2026-04-04T13:39:50.934Z</time></trkpt><trkpt lat="44.7354814" lon="9.8032145"><ele>823.0</ele><time>2026-04-04T13:39:51.939Z</time></trkpt><trkpt lat="44.7355981" lon="9.8033063"><ele>822.0</ele><time>2026-04-04T13:39:52.93Z</time></trkpt><trkpt lat="44.7357214" lon="9.8034169"><ele>821.0</ele><time>2026-04-04T13:39:53.94Z</time></trkpt><trkpt lat="44.7358566" lon="9.8034879"><ele>820.0</ele><time>2026-04-04T13:39:54.934Z</time></trkpt><trkpt lat="44.7360216" lon="9.8034987"><ele>820.3333333333333</ele><time>2026-04-04T13:39:55.929Z</time></trkpt><trkpt lat="44.7361968" lon="9.8034835"><ele>820.6666666666667</ele><time>2026-04-04T13:39:56.927Z</time></trkpt><trkpt lat="44.7363693" lon="9.8034829"><ele>821.0</ele><time>2026-04-04T13:39:57.925Z</time></trkpt><trkpt lat="44.7365336" lon="9.803534"><ele>821.0</ele><time>2026-04-04T13:39:58.952Z</time></trkpt><trkpt lat="44.736665" lon="9.8036273"><ele>821.0</ele><time>2026-04-04T13:39:59.946Z</time></trkpt><trkpt lat="44.7367969" lon="9.8037602"><ele>821.0</ele><time>2026-04-04T13:40:00.939Z</time></trkpt><trkpt lat="44.7369243" lon="9.8039365"><ele>817.6666666666667</ele><time>2026-04-04T13:40:01.945Z</time></trkpt><trkpt lat="44.7370583" lon="9.8041372"><ele>814.3333333333333</ele><time>2026-04-04T13:40:02.957Z</time></trkpt><trkpt lat="44.7371808" lon="9.8043297"><ele>811.0</ele><time>2026-04-04T13:40:03.945Z</time></trkpt><trkpt lat="44.7373145" lon="9.8044949"><ele>811.0</ele><time>2026-04-04T13:40:04.928Z</time></trkpt><trkpt lat="44.7374368" lon="9.8046497"><ele>811.0</ele><time>2026-04-04T13:40:05.917Z</time></trkpt><trkpt lat="44.7375559" lon="9.8048097"><ele>811.0</ele><time>2026-04-04T13:40:06.91Z</time></trkpt><trkpt lat="44.7376607" lon="9.8049876"><ele>806.6666666666666</ele><time>2026-04-04T13:40:07.941Z</time></trkpt><trkpt lat="44.7377557" lon="9.805169"><ele>802.3333333333333</ele><time>2026-04-04T13:40:08.941Z</time></trkpt><trkpt lat="44.7378569" lon="9.805326"><ele>798.0</ele><time>2026-04-04T13:40:09.941Z</time></trkpt><trkpt lat="44.7379745" lon="9.8054582"><ele>798.0</ele><time>2026-04-04T13:40:10.914Z</time></trkpt><trkpt lat="44.7381124" lon="9.8055817"><ele>798.0</ele><time>2026-04-04T13:40:11.939Z</time></trkpt><trkpt lat="44.738249" lon="9.8057216"><ele>798.0</ele><time>2026-04-04T13:40:12.929Z</time></trkpt><trkpt lat="44.7383791" lon="9.8058817"><ele>795.6666666666667</ele><time>2026-04-04T13:40:13.931Z</time></trkpt><trkpt lat="44.7385057" lon="9.8060178"><ele>793.3333333333334</ele><time>2026-04-04T13:40:14.932Z</time></trkpt><trkpt lat="44.7386541" lon="9.8061265"><ele>791.0</ele><time>2026-04-04T13:40:15.941Z</time></trkpt><trkpt lat="44.7388159" lon="9.8062308"><ele>791.0</ele><time>2026-04-04T13:40:16.908Z</time></trkpt><trkpt lat="44.738981" lon="9.806357"><ele>791.0</ele><time>2026-04-04T13:40:17.941Z</time></trkpt><trkpt lat="44.7391449" lon="9.8064985"><ele>791.0</ele><time>2026-04-04T13:40:18.956Z</time></trkpt><trkpt lat="44.7393156" lon="9.806625"><ele>789.6666666666667</ele><time>2026-04-04T13:40:19.94Z</time></trkpt><trkpt lat="44.7394995" lon="9.8067406"><ele>788.3333333333333</ele><time>2026-04-04T13:40:20.935Z</time></trkpt><trkpt lat="44.7396682" lon="9.8068565"><ele>787.0</ele><time>2026-04-04T13:40:21.951Z</time></trkpt><trkpt lat="44.7398397" lon="9.8069788"><ele>787.0</ele><time>2026-04-04T13:40:22.919Z</time></trkpt><trkpt lat="44.7400066" lon="9.8070977"><ele>787.0</ele><time>2026-04-04T13:40:23.947Z</time></trkpt><trkpt lat="44.7401603" lon="9.8072192"><ele>787.0</ele><time>2026-04-04T13:40:24.9Z</time></trkpt><trkpt lat="44.7402904" lon="9.8073097"><ele>783.2</ele><time>2026-04-04T13:40:25.932Z</time></trkpt><trkpt lat="44.7404114" lon="9.8073904"><ele>779.4000000000001</ele><time>2026-04-04T13:40:26.937Z</time></trkpt><trkpt lat="44.7404981" lon="9.8074518"><ele>775.5999999999999</ele><time>2026-04-04T13:40:27.954Z</time></trkpt><trkpt lat="44.7405772" lon="9.8075118"><ele>771.8</ele><time>2026-04-04T13:40:28.931Z</time></trkpt><trkpt lat="44.7406186" lon="9.807602"><ele>768.0</ele><time>2026-04-04T13:40:29.937Z</time></trkpt><trkpt lat="44.7406306" lon="9.8077341"><ele>765.25</ele><time>2026-04-04T13:40:30.934Z</time></trkpt><trkpt lat="44.7406148" lon="9.8078902"><ele>762.5</ele><time>2026-04-04T13:40:31.953Z</time></trkpt><trkpt lat="44.74058" lon="9.8080699"><ele>759.75</ele><time>2026-04-04T13:40:32.9Z</time></trkpt><trkpt lat="44.7405342" lon="9.8082601"><ele>757.0</ele><time>2026-04-04T13:40:33.932Z</time></trkpt><trkpt lat="44.7405126" lon="9.8084442"><ele>753.5</ele><time>2026-04-04T13:40:34.947Z</time></trkpt><trkpt lat="44.7405312" lon="9.8086349"><ele>750.0</ele><time>2026-04-04T13:40:35.941Z</time></trkpt><trkpt lat="44.7405732" lon="9.8088282"><ele>746.5</ele><time>2026-04-04T13:40:36.936Z</time></trkpt><trkpt lat="44.7406011" lon="9.8090094"><ele>743.0</ele><time>2026-04-04T13:40:37.943Z</time></trkpt><trkpt lat="44.7405958" lon="9.8091801"><ele>740.6666666666666</ele><time>2026-04-04T13:40:38.943Z</time></trkpt><trkpt lat="44.7405463" lon="9.8093704"><ele>738.3333333333334</ele><time>2026-04-04T13:40:39.947Z</time></trkpt><trkpt lat="44.7404655" lon="9.8095566"><ele>736.0</ele><time>2026-04-04T13:40:40.932Z</time></trkpt><trkpt lat="44.7403766" lon="9.8097409"><ele>736.0</ele><time>2026-04-04T13:40:41.944Z</time></trkpt><trkpt lat="44.7403082" lon="9.8099282"><ele>736.0</ele><time>2026-04-04T13:40:42.907Z</time></trkpt><trkpt lat="44.7402632" lon="9.8101451"><ele>736.0</ele><time>2026-04-04T13:40:43.951Z</time></trkpt><trkpt lat="44.7402609" lon="9.8103529"><ele>734.25</ele><time>2026-04-04T13:40:44.946Z</time></trkpt><trkpt lat="44.7402826" lon="9.8105707"><ele>732.5</ele><time>2026-04-04T13:40:45.937Z</time></trkpt><trkpt lat="44.7402962" lon="9.8107673"><ele>730.75</ele><time>2026-04-04T13:40:46.918Z</time></trkpt><trkpt lat="44.7402623" lon="9.8109571"><ele>729.0</ele><time>2026-04-04T13:40:47.934Z</time></trkpt><trkpt lat="44.7402069" lon="9.8111478"><ele>735.75</ele><time>2026-04-04T13:40:48.919Z</time></trkpt><trkpt lat="44.7401385" lon="9.811328"><ele>742.5</ele><time>2026-04-04T13:40:49.946Z</time></trkpt><trkpt lat="44.7400468" lon="9.8114749"><ele>749.25</ele><time>2026-04-04T13:40:50.927Z</time></trkpt><trkpt lat="44.739942" lon="9.8116031"><ele>756.0</ele><time>2026-04-04T13:40:51.881Z</time></trkpt><trkpt lat="44.739836" lon="9.8117305"><ele>753.0</ele><time>2026-04-04T13:40:52.886Z</time></trkpt><trkpt lat="44.7397493" lon="9.811875"><ele>750.0</ele><time>2026-04-04T13:40:53.899Z</time></trkpt><trkpt lat="44.739691" lon="9.8120329"><ele>747.0</ele><time>2026-04-04T13:40:54.89Z</time></trkpt><trkpt lat="44.7396443" lon="9.8121805"><ele>744.0</ele><time>2026-04-04T13:40:55.876Z</time></trkpt><trkpt lat="44.739594" lon="9.8123164"><ele>744.0</ele><time>2026-04-04T13:40:56.876Z</time></trkpt><trkpt lat="44.7395407" lon="9.812455"><ele>744.0</ele><time>2026-04-04T13:40:57.876Z</time></trkpt><trkpt lat="44.7394689" lon="9.812585"><ele>744.0</ele><time>2026-04-04T13:40:58.892Z</time></trkpt><trkpt lat="44.739395" lon="9.8126975"><ele>744.0</ele><time>2026-04-04T13:40:59.912Z</time></trkpt><trkpt lat="44.7393429" lon="9.8128004"><ele>744.0</ele><time>2026-04-04T13:41:00.881Z</time></trkpt><trkpt lat="44.7393088" lon="9.8128872"><ele>746.4000000000001</ele><time>2026-04-04T13:41:01.9Z</time></trkpt><trkpt lat="44.7392571" lon="9.8130193"><ele>748.8</ele><time>2026-04-04T13:41:03.943Z</time></trkpt><trkpt lat="44.7392241" lon="9.8131198"><ele>751.2</ele><time>2026-04-04T13:41:04.886Z</time></trkpt><trkpt lat="44.7391939" lon="9.813237"><ele>753.5999999999999</ele><time>2026-04-04T13:41:05.881Z</time></trkpt><trkpt lat="44.7391556" lon="9.8133798"><ele>756.0</ele><time>2026-04-04T13:41:06.907Z</time></trkpt><trkpt lat="44.7391356" lon="9.8135402"><ele>756.0</ele><time>2026-04-04T13:41:07.951Z</time></trkpt><trkpt lat="44.7391321" lon="9.8136995"><ele>756.0</ele><time>2026-04-04T13:41:08.95Z</time></trkpt><trkpt lat="44.7391397" lon="9.8138647"><ele>756.0</ele><time>2026-04-04T13:41:09.935Z</time></trkpt><trkpt lat="44.7391847" lon="9.8139998"><ele>756.0</ele><time>2026-04-04T13:41:10.923Z</time></trkpt><trkpt lat="44.7392751" lon="9.8141273"><ele>756.6666666666666</ele><time>2026-04-04T13:41:11.911Z</time></trkpt><trkpt lat="44.739413" lon="9.8142359"><ele>757.3333333333333</ele><time>2026-04-04T13:41:12.932Z</time></trkpt><trkpt lat="44.7395629" lon="9.8143305"><ele>758.0</ele><time>2026-04-04T13:41:13.936Z</time></trkpt><trkpt lat="44.7397313" lon="9.8144446"><ele>758.0</ele><time>2026-04-04T13:41:14.932Z</time></trkpt><trkpt lat="44.7398876" lon="9.8145525"><ele>758.0</ele><time>2026-04-04T13:41:15.945Z</time></trkpt><trkpt lat="44.7400298" lon="9.81464"><ele>758.0</ele><time>2026-04-04T13:41:16.948Z</time></trkpt><trkpt lat="44.7401773" lon="9.814681"><ele>756.5</ele><time>2026-04-04T13:41:17.963Z</time></trkpt><trkpt lat="44.7403136" lon="9.8146833"><ele>755.0</ele><time>2026-04-04T13:41:18.948Z</time></trkpt><trkpt lat="44.7404576" lon="9.8146392"><ele>753.5</ele><time>2026-04-04T13:41:19.947Z</time></trkpt><trkpt lat="44.7406037" lon="9.8145674"><ele>752.0</ele><time>2026-04-04T13:41:20.938Z</time></trkpt><trkpt lat="44.7407379" lon="9.8145408"><ele>752.0</ele><time>2026-04-04T13:41:21.927Z</time></trkpt><trkpt lat="44.7408848" lon="9.8145612"><ele>752.0</ele><time>2026-04-04T13:41:22.942Z</time></trkpt><trkpt lat="44.7410387" lon="9.8146133"><ele>752.0</ele><time>2026-04-04T13:41:23.916Z</time></trkpt><trkpt lat="44.7412092" lon="9.814656"><ele>750.3333333333333</ele><time>2026-04-04T13:41:24.941Z</time></trkpt><trkpt lat="44.7413647" lon="9.8146784"><ele>748.6666666666666</ele><time>2026-04-04T13:41:25.949Z</time></trkpt><trkpt lat="44.7415167" lon="9.8147259"><ele>747.0</ele><time>2026-04-04T13:41:26.933Z</time></trkpt><trkpt lat="44.741662" lon="9.8147924"><ele>747.0</ele><time>2026-04-04T13:41:27.956Z</time></trkpt><trkpt lat="44.7417972" lon="9.8148235"><ele>747.0</ele><time>2026-04-04T13:41:28.933Z</time></trkpt><trkpt lat="44.7419242" lon="9.814848"><ele>747.0</ele><time>2026-04-04T13:41:29.949Z</time></trkpt><trkpt lat="44.7420591" lon="9.8148541"><ele>747.0</ele><time>2026-04-04T13:41:30.945Z</time></trkpt><trkpt lat="44.7421788" lon="9.8148803"><ele>746.5</ele><time>2026-04-04T13:41:31.907Z</time></trkpt><trkpt lat="44.7422917" lon="9.8148917"><ele>746.0</ele><time>2026-04-04T13:41:32.916Z</time></trkpt><trkpt lat="44.7424001" lon="9.814881"><ele>745.5</ele><time>2026-04-04T13:41:33.95Z</time></trkpt><trkpt lat="44.7425238" lon="9.8148515"><ele>745.0</ele><time>2026-04-04T13:41:34.941Z</time></trkpt><trkpt lat="44.7426477" lon="9.8148036"><ele>745.75</ele><time>2026-04-04T13:41:35.944Z</time></trkpt><trkpt lat="44.7427708" lon="9.8147846"><ele>746.5</ele><time>2026-04-04T13:41:36.943Z</time></trkpt><trkpt lat="44.7428881" lon="9.8148097"><ele>747.25</ele><time>2026-04-04T13:41:37.909Z</time></trkpt><trkpt lat="44.743026" lon="9.814811"><ele>748.0</ele><time>2026-04-04T13:41:38.963Z</time></trkpt><trkpt lat="44.7431511" lon="9.8147749"><ele>748.0</ele><time>2026-04-04T13:41:39.966Z</time></trkpt><trkpt lat="44.7432709" lon="9.8147104"><ele>748.0</ele><time>2026-04-04T13:41:40.948Z</time></trkpt><trkpt lat="44.7433931" lon="9.8146222"><ele>748.0</ele><time>2026-04-04T13:41:41.946Z</time></trkpt><trkpt lat="44.7435162" lon="9.8145217"><ele>748.0</ele><time>2026-04-04T13:41:42.924Z</time></trkpt><trkpt lat="44.7436485" lon="9.8144252"><ele>749.0</ele><time>2026-04-04T13:41:43.919Z</time></trkpt><trkpt lat="44.7437824" lon="9.8143423"><ele>750.0</ele><time>2026-04-04T13:41:44.951Z</time></trkpt><trkpt lat="44.7439211" lon="9.8142806"><ele>751.0</ele><time>2026-04-04T13:41:45.97Z</time></trkpt><trkpt lat="44.7440546" lon="9.8142517"><ele>752.0</ele><time>2026-04-04T13:41:46.956Z</time></trkpt><trkpt lat="44.7441803" lon="9.8142389"><ele>750.8</ele><time>2026-04-04T13:41:47.929Z</time></trkpt><trkpt lat="44.7442905" lon="9.814247"><ele>749.6</ele><time>2026-04-04T13:41:48.957Z</time></trkpt><trkpt lat="44.7443709" lon="9.8143076"><ele>748.4</ele><time>2026-04-04T13:41:49.953Z</time></trkpt><trkpt lat="44.7444294" lon="9.8144331"><ele>747.1999999999999</ele><time>2026-04-04T13:41:50.944Z</time></trkpt><trkpt lat="44.7444781" lon="9.8145873"><ele>746.0</ele><time>2026-04-04T13:41:51.904Z</time></trkpt><trkpt lat="44.7445159" lon="9.8147614"><ele>746.0</ele><time>2026-04-04T13:41:52.943Z</time></trkpt><trkpt lat="44.7445877" lon="9.8148715"><ele>746.0</ele><time>2026-04-04T13:41:53.954Z</time></trkpt><trkpt lat="44.7446994" lon="9.8149593"><ele>746.0</ele><time>2026-04-04T13:41:54.944Z</time></trkpt><trkpt lat="44.7448308" lon="9.8149976"><ele>746.0</ele><time>2026-04-04T13:41:55.942Z</time></trkpt><trkpt lat="44.7449874" lon="9.8150098"><ele>746.0</ele><time>2026-04-04T13:41:56.935Z</time></trkpt><trkpt lat="44.7451521" lon="9.8150169"><ele>746.0</ele><time>2026-04-04T13:41:57.965Z</time></trkpt><trkpt lat="44.7453173" lon="9.8150192"><ele>746.0</ele><time>2026-04-04T13:41:58.919Z</time></trkpt><trkpt lat="44.7454688" lon="9.8150123"><ele>747.5</ele><time>2026-04-04T13:41:59.969Z</time></trkpt><trkpt lat="44.7455969" lon="9.8149599"><ele>749.0</ele><time>2026-04-04T13:42:00.944Z</time></trkpt><trkpt lat="44.7457181" lon="9.8148524"><ele>750.5</ele><time>2026-04-04T13:42:01.949Z</time></trkpt><trkpt lat="44.7458504" lon="9.8147225"><ele>752.0</ele><time>2026-04-04T13:42:02.952Z</time></trkpt><trkpt lat="44.745997" lon="9.8146028"><ele>753.0</ele><time>2026-04-04T13:42:03.928Z</time></trkpt><trkpt lat="44.7461508" lon="9.814508"><ele>754.0</ele><time>2026-04-04T13:42:04.943Z</time></trkpt><trkpt lat="44.7463273" lon="9.8144464"><ele>755.0</ele><time>2026-04-04T13:42:05.957Z</time></trkpt><trkpt lat="44.7465162" lon="9.8143967"><ele>755.0</ele><time>2026-04-04T13:42:06.938Z</time></trkpt><trkpt lat="44.7466947" lon="9.8143471"><ele>755.0</ele><time>2026-04-04T13:42:07.957Z</time></trkpt><trkpt lat="44.7468524" lon="9.8143089"><ele>755.0</ele><time>2026-04-04T13:42:08.908Z</time></trkpt><trkpt lat="44.747011" lon="9.8142836"><ele>753.25</ele><time>2026-04-04T13:42:09.949Z</time></trkpt><trkpt lat="44.7471435" lon="9.8142824"><ele>751.5</ele><time>2026-04-04T13:42:10.951Z</time></trkpt><trkpt lat="44.7472534" lon="9.8143357"><ele>749.75</ele><time>2026-04-04T13:42:11.927Z</time></trkpt><trkpt lat="44.7473748" lon="9.8144324"><ele>748.0</ele><time>2026-04-04T13:42:12.965Z</time></trkpt><trkpt lat="44.7474968" lon="9.8145718"><ele>748.0</ele><time>2026-04-04T13:42:13.914Z</time></trkpt><trkpt lat="44.7476419" lon="9.8147121"><ele>748.0</ele><time>2026-04-04T13:42:14.956Z</time></trkpt><trkpt lat="44.7477941" lon="9.814821"><ele>748.0</ele><time>2026-04-04T13:42:15.954Z</time></trkpt><trkpt lat="44.7479469" lon="9.8148765"><ele>747.75</ele><time>2026-04-04T13:42:16.925Z</time></trkpt><trkpt lat="44.7480915" lon="9.814904"><ele>747.5</ele><time>2026-04-04T13:42:17.951Z</time></trkpt><trkpt lat="44.7482089" lon="9.8148971"><ele>747.25</ele><time>2026-04-04T13:42:18.961Z</time></trkpt><trkpt lat="44.7483042" lon="9.8148531"><ele>747.0</ele><time>2026-04-04T13:42:19.95Z</time></trkpt><trkpt lat="44.7483872" lon="9.8147597"><ele>747.0</ele><time>2026-04-04T13:42:20.948Z</time></trkpt><trkpt lat="44.7484776" lon="9.8146339"><ele>747.0</ele><time>2026-04-04T13:42:21.942Z</time></trkpt><trkpt lat="44.7485748" lon="9.8144832"><ele>747.0</ele><time>2026-04-04T13:42:22.922Z</time></trkpt><trkpt lat="44.7486774" lon="9.8143215"><ele>747.0</ele><time>2026-04-04T13:42:23.947Z</time></trkpt><trkpt lat="44.748794" lon="9.814147"><ele>748.6666666666666</ele><time>2026-04-04T13:42:24.927Z</time></trkpt><trkpt lat="44.7489251" lon="9.8139735"><ele>750.3333333333333</ele><time>2026-04-04T13:42:25.937Z</time></trkpt><trkpt lat="44.749065" lon="9.8137926"><ele>752.0</ele><time>2026-04-04T13:42:26.961Z</time></trkpt><trkpt lat="44.7491945" lon="9.8136197"><ele>750.0</ele><time>2026-04-04T13:42:27.949Z</time></trkpt><trkpt lat="44.7493033" lon="9.8134641"><ele>748.0</ele><time>2026-04-04T13:42:28.951Z</time></trkpt><trkpt lat="44.7493993" lon="9.8133317"><ele>746.0</ele><time>2026-04-04T13:42:29.956Z</time></trkpt><trkpt lat="44.7494995" lon="9.8132142"><ele>744.0</ele><time>2026-04-04T13:42:30.969Z</time></trkpt><trkpt lat="44.7495936" lon="9.813145"><ele>744.0</ele><time>2026-04-04T13:42:31.956Z</time></trkpt><trkpt lat="44.749697" lon="9.8131422"><ele>744.0</ele><time>2026-04-04T13:42:32.965Z</time></trkpt><trkpt lat="44.7498066" lon="9.8131997"><ele>744.0</ele><time>2026-04-04T13:42:33.947Z</time></trkpt><trkpt lat="44.7499052" lon="9.8132946"><ele>744.0</ele><time>2026-04-04T13:42:34.925Z</time></trkpt><trkpt lat="44.7499975" lon="9.8134099"><ele>744.0</ele><time>2026-04-04T13:42:35.944Z</time></trkpt><trkpt lat="44.7501084" lon="9.813472"><ele>744.0</ele><time>2026-04-04T13:42:36.949Z</time></trkpt><trkpt lat="44.7502479" lon="9.8134885"><ele>744.0</ele><time>2026-04-04T13:42:37.95Z</time></trkpt><trkpt lat="44.7503909" lon="9.8134321"><ele>744.0</ele><time>2026-04-04T13:42:38.929Z</time></trkpt><trkpt lat="44.7505321" lon="9.813329"><ele>744.0</ele><time>2026-04-04T13:42:39.941Z</time></trkpt><trkpt lat="44.7506651" lon="9.8132428"><ele>744.0</ele><time>2026-04-04T13:42:40.969Z</time></trkpt><trkpt lat="44.7507799" lon="9.8131468"><ele>744.0</ele><time>2026-04-04T13:42:41.922Z</time></trkpt><trkpt lat="44.7508698" lon="9.8130509"><ele>744.0</ele><time>2026-04-04T13:42:42.959Z</time></trkpt><trkpt lat="44.7509484" lon="9.8129843"><ele>742.2</ele><time>2026-04-04T13:42:43.936Z</time></trkpt><trkpt lat="44.7510803" lon="9.8129701"><ele>740.4000000000001</ele><time>2026-04-04T13:42:45.955Z</time></trkpt><trkpt lat="44.7511532" lon="9.813039"><ele>738.6</ele><time>2026-04-04T13:42:46.949Z</time></trkpt><trkpt lat="44.7511876" lon="9.813153"><ele>736.8</ele><time>2026-04-04T13:42:47.957Z</time></trkpt><trkpt lat="44.7511732" lon="9.8132811"><ele>735.0</ele><time>2026-04-04T13:42:48.955Z</time></trkpt><trkpt lat="44.7511107" lon="9.8134006"><ele>738.0</ele><time>2026-04-04T13:42:49.958Z</time></trkpt><trkpt lat="44.7510097" lon="9.8134923"><ele>741.0</ele><time>2026-04-04T13:42:50.939Z</time></trkpt><trkpt lat="44.7509408" lon="9.8135689"><ele>744.0</ele><time>2026-04-04T13:42:51.945Z</time></trkpt><trkpt lat="44.7508907" lon="9.813642"><ele>747.0</ele><time>2026-04-04T13:42:52.966Z</time></trkpt><trkpt lat="44.7508745" lon="9.8137281"><ele>750.0</ele><time>2026-04-04T13:42:53.954Z</time></trkpt><trkpt lat="44.7508867" lon="9.8138163"><ele>753.0</ele><time>2026-04-04T13:42:54.947Z</time></trkpt><trkpt lat="44.7509479" lon="9.8138787"><ele>750.25</ele><time>2026-04-04T13:42:55.935Z</time></trkpt><trkpt lat="44.751048" lon="9.8138909"><ele>747.5</ele><time>2026-04-04T13:42:56.913Z</time></trkpt><trkpt lat="44.7512043" lon="9.8138733"><ele>744.75</ele><time>2026-04-04T13:42:57.93Z</time></trkpt><trkpt lat="44.7513602" lon="9.8138225"><ele>742.0</ele><time>2026-04-04T13:42:58.93Z</time></trkpt><trkpt lat="44.751558" lon="9.8137356"><ele>742.0</ele><time>2026-04-04T13:42:59.942Z</time></trkpt><trkpt lat="44.7517342" lon="9.8136637"><ele>742.0</ele><time>2026-04-04T13:43:00.947Z</time></trkpt><trkpt lat="44.7519244" lon="9.8136319"><ele>742.0</ele><time>2026-04-04T13:43:01.912Z</time></trkpt><trkpt lat="44.7521323" lon="9.8136463"><ele>738.0</ele><time>2026-04-04T13:43:02.953Z</time></trkpt><trkpt lat="44.7523493" lon="9.8136766"><ele>734.0</ele><time>2026-04-04T13:43:03.94Z</time></trkpt><trkpt lat="44.7525508" lon="9.8137304"><ele>730.0</ele><time>2026-04-04T13:43:04.922Z</time></trkpt><trkpt lat="44.7527608" lon="9.813809"><ele>726.6666666666667</ele><time>2026-04-04T13:43:05.938Z</time></trkpt><trkpt lat="44.7529596" lon="9.8139117"><ele>723.3333333333334</ele><time>2026-04-04T13:43:06.917Z</time></trkpt><trkpt lat="44.7531459" lon="9.8140229"><ele>720.0</ele><time>2026-04-04T13:43:07.933Z</time></trkpt><trkpt lat="44.7533082" lon="9.8141377"><ele>720.0</ele><time>2026-04-04T13:43:08.942Z</time></trkpt><trkpt lat="44.7534599" lon="9.8142364"><ele>720.0</ele><time>2026-04-04T13:43:09.918Z</time></trkpt><trkpt lat="44.7535913" lon="9.8143272"><ele>720.0</ele><time>2026-04-04T13:43:10.935Z</time></trkpt><trkpt lat="44.7537017" lon="9.8143459"><ele>720.0</ele><time>2026-04-04T13:43:11.926Z</time></trkpt><trkpt lat="44.7538404" lon="9.8143005"><ele>716.6666666666666</ele><time>2026-04-04T13:43:12.922Z</time></trkpt><trkpt lat="44.7539921" lon="9.8142361"><ele>713.3333333333333</ele><time>2026-04-04T13:43:13.931Z</time></trkpt><trkpt lat="44.7541463" lon="9.8142019"><ele>710.0</ele><time>2026-04-04T13:43:14.943Z</time></trkpt><trkpt lat="44.7543079" lon="9.8142304"><ele>707.5</ele><time>2026-04-04T13:43:15.94Z</time></trkpt><trkpt lat="44.7544489" lon="9.8142775"><ele>705.0</ele><time>2026-04-04T13:43:16.917Z</time></trkpt><trkpt lat="44.7545717" lon="9.8142914"><ele>702.5</ele><time>2026-04-04T13:43:17.934Z</time></trkpt><trkpt lat="44.7546864" lon="9.8142398"><ele>700.0</ele><time>2026-04-04T13:43:18.925Z</time></trkpt><trkpt lat="44.7548029" lon="9.8141651"><ele>700.0</ele><time>2026-04-04T13:43:19.935Z</time></trkpt><trkpt lat="44.7548767" lon="9.8140167"><ele>700.0</ele><time>2026-04-04T13:43:20.943Z</time></trkpt><trkpt lat="44.7549639" lon="9.8138717"><ele>700.0</ele><time>2026-04-04T13:43:21.951Z</time></trkpt><trkpt lat="44.7550507" lon="9.8137558"><ele>700.0</ele><time>2026-04-04T13:43:22.957Z</time></trkpt><trkpt lat="44.7551343" lon="9.8136755"><ele>698.25</ele><time>2026-04-04T13:43:23.937Z</time></trkpt><trkpt lat="44.7552325" lon="9.8136298"><ele>696.5</ele><time>2026-04-04T13:43:24.938Z</time></trkpt><trkpt lat="44.7553525" lon="9.8136633"><ele>694.75</ele><time>2026-04-04T13:43:25.92Z</time></trkpt><trkpt lat="44.7554771" lon="9.8137689"><ele>693.0</ele><time>2026-04-04T13:43:26.923Z</time></trkpt><trkpt lat="44.7556165" lon="9.8138822"><ele>693.0</ele><time>2026-04-04T13:43:27.938Z</time></trkpt><trkpt lat="44.7557624" lon="9.8139545"><ele>693.0</ele><time>2026-04-04T13:43:28.936Z</time></trkpt><trkpt lat="44.7559262" lon="9.8139947"><ele>693.0</ele><time>2026-04-04T13:43:29.935Z</time></trkpt><trkpt lat="44.7561016" lon="9.8139964"><ele>688.5</ele><time>2026-04-04T13:43:30.945Z</time></trkpt><trkpt lat="44.756262" lon="9.813988"><ele>684.0</ele><time>2026-04-04T13:43:31.918Z</time></trkpt><trkpt lat="44.7563906" lon="9.813951"><ele>679.5</ele><time>2026-04-04T13:43:32.93Z</time></trkpt><trkpt lat="44.7564799" lon="9.8138874"><ele>675.0</ele><time>2026-04-04T13:43:33.95Z</time></trkpt><trkpt lat="44.7565392" lon="9.8137789"><ele>675.0</ele><time>2026-04-04T13:43:34.929Z</time></trkpt><trkpt lat="44.7565937" lon="9.8136343"><ele>675.0</ele><time>2026-04-04T13:43:35.956Z</time></trkpt><trkpt lat="44.756628" lon="9.813457"><ele>675.0</ele><time>2026-04-04T13:43:36.909Z</time></trkpt><trkpt lat="44.7566239" lon="9.8132799"><ele>675.0</ele><time>2026-04-04T13:43:37.952Z</time></trkpt><trkpt lat="44.7565878" lon="9.8131173"><ele>677.25</ele><time>2026-04-04T13:43:38.954Z</time></trkpt><trkpt lat="44.7565244" lon="9.8129825"><ele>679.5</ele><time>2026-04-04T13:43:39.941Z</time></trkpt><trkpt lat="44.7564257" lon="9.8128861"><ele>681.75</ele><time>2026-04-04T13:43:40.929Z</time></trkpt><trkpt lat="44.7563032" lon="9.8128117"><ele>684.0</ele><time>2026-04-04T13:43:41.928Z</time></trkpt><trkpt lat="44.7561849" lon="9.8127394"><ele>682.4000000000001</ele><time>2026-04-04T13:43:42.934Z</time></trkpt><trkpt lat="44.7561073" lon="9.8126541"><ele>680.8</ele><time>2026-04-04T13:43:43.944Z</time></trkpt><trkpt lat="44.7560852" lon="9.8125464"><ele>679.2</ele><time>2026-04-04T13:43:44.952Z</time></trkpt><trkpt lat="44.7560946" lon="9.8124272"><ele>677.5999999999999</ele><time>2026-04-04T13:43:45.953Z</time></trkpt><trkpt lat="44.7561711" lon="9.8123647"><ele>676.0</ele><time>2026-04-04T13:43:46.954Z</time></trkpt><trkpt lat="44.756282" lon="9.8123993"><ele>676.0</ele><time>2026-04-04T13:43:47.956Z</time></trkpt><trkpt lat="44.7563747" lon="9.8124601"><ele>676.0</ele><time>2026-04-04T13:43:48.936Z</time></trkpt><trkpt lat="44.7564829" lon="9.8125124"><ele>676.0</ele><time>2026-04-04T13:43:49.936Z</time></trkpt><trkpt lat="44.7565992" lon="9.8125384"><ele>676.0</ele><time>2026-04-04T13:43:50.948Z</time></trkpt><trkpt lat="44.7567274" lon="9.81256"><ele>676.0</ele><time>2026-04-04T13:43:51.951Z</time></trkpt><trkpt lat="44.7568497" lon="9.8125751"><ele>676.0</ele><time>2026-04-04T13:43:52.938Z</time></trkpt><trkpt lat="44.7569702" lon="9.812593"><ele>676.0</ele><time>2026-04-04T13:43:53.964Z</time></trkpt><trkpt lat="44.7570824" lon="9.8126387"><ele>676.0</ele><time>2026-04-04T13:43:54.948Z</time></trkpt><trkpt lat="44.7571831" lon="9.8127116"><ele>678.3333333333334</ele><time>2026-04-04T13:43:55.937Z</time></trkpt><trkpt lat="44.7572746" lon="9.8128356"><ele>680.6666666666666</ele><time>2026-04-04T13:43:56.927Z</time></trkpt><trkpt lat="44.7573598" lon="9.8130137"><ele>683.0</ele><time>2026-04-04T13:43:57.927Z</time></trkpt><trkpt lat="44.7574308" lon="9.8132323"><ele>683.0</ele><time>2026-04-04T13:43:58.93Z</time></trkpt><trkpt lat="44.757508" lon="9.8134629"><ele>683.0</ele><time>2026-04-04T13:43:59.939Z</time></trkpt><trkpt lat="44.7575817" lon="9.8136751"><ele>683.0</ele><time>2026-04-04T13:44:00.928Z</time></trkpt><trkpt lat="44.7576638" lon="9.8138652"><ele>679.6666666666666</ele><time>2026-04-04T13:44:01.959Z</time></trkpt><trkpt lat="44.7577519" lon="9.8140461"><ele>676.3333333333334</ele><time>2026-04-04T13:44:02.954Z</time></trkpt><trkpt lat="44.7578557" lon="9.8142048"><ele>673.0</ele><time>2026-04-04T13:44:03.943Z</time></trkpt><trkpt lat="44.7579898" lon="9.8143633"><ele>673.0</ele><time>2026-04-04T13:44:04.909Z</time></trkpt><trkpt lat="44.7581442" lon="9.814515"><ele>673.0</ele><time>2026-04-04T13:44:05.894Z</time></trkpt><trkpt lat="44.7583149" lon="9.8146567"><ele>673.0</ele><time>2026-04-04T13:44:06.897Z</time></trkpt><trkpt lat="44.758493" lon="9.814797"><ele>672.0</ele><time>2026-04-04T13:44:07.891Z</time></trkpt><trkpt lat="44.7586694" lon="9.8149303"><ele>671.0</ele><time>2026-04-04T13:44:08.886Z</time></trkpt><trkpt lat="44.7588306" lon="9.8150762"><ele>670.0</ele><time>2026-04-04T13:44:09.888Z</time></trkpt><trkpt lat="44.7589801" lon="9.8152362"><ele>670.0</ele><time>2026-04-04T13:44:10.937Z</time></trkpt><trkpt lat="44.7591338" lon="9.8153991"><ele>670.0</ele><time>2026-04-04T13:44:11.948Z</time></trkpt><trkpt lat="44.7592704" lon="9.8155378"><ele>670.0</ele><time>2026-04-04T13:44:12.933Z</time></trkpt><trkpt lat="44.7593795" lon="9.8156606"><ele>675.75</ele><time>2026-04-04T13:44:13.924Z</time></trkpt><trkpt lat="44.7594746" lon="9.8157541"><ele>681.5</ele><time>2026-04-04T13:44:14.922Z</time></trkpt><trkpt lat="44.7595804" lon="9.8158101"><ele>687.25</ele><time>2026-04-04T13:44:15.918Z</time></trkpt><trkpt lat="44.7597037" lon="9.815827"><ele>693.0</ele><time>2026-04-04T13:44:16.925Z</time></trkpt><trkpt lat="44.7598372" lon="9.8158759"><ele>693.0</ele><time>2026-04-04T13:44:17.942Z</time></trkpt><trkpt lat="44.7599496" lon="9.8159664"><ele>693.0</ele><time>2026-04-04T13:44:18.945Z</time></trkpt><trkpt lat="44.7600464" lon="9.8160997"><ele>693.0</ele><time>2026-04-04T13:44:19.938Z</time></trkpt><trkpt lat="44.7601325" lon="9.8162199"><ele>693.0</ele><time>2026-04-04T13:44:20.929Z</time></trkpt><trkpt lat="44.7602328" lon="9.8162869"><ele>689.25</ele><time>2026-04-04T13:44:21.915Z</time></trkpt><trkpt lat="44.7603452" lon="9.8163144"><ele>685.5</ele><time>2026-04-04T13:44:22.898Z</time></trkpt><trkpt lat="44.7604597" lon="9.8163287"><ele>681.75</ele><time>2026-04-04T13:44:23.931Z</time></trkpt><trkpt lat="44.7605932" lon="9.8163714"><ele>678.0</ele><time>2026-04-04T13:44:24.932Z</time></trkpt><trkpt lat="44.7607277" lon="9.8164726"><ele>678.0</ele><time>2026-04-04T13:44:25.927Z</time></trkpt><trkpt lat="44.7608616" lon="9.8166002"><ele>678.0</ele><time>2026-04-04T13:44:26.916Z</time></trkpt><trkpt lat="44.760993" lon="9.8167298"><ele>678.0</ele><time>2026-04-04T13:44:27.933Z</time></trkpt><trkpt lat="44.7611335" lon="9.8168229"><ele>672.0</ele><time>2026-04-04T13:44:28.955Z</time></trkpt><trkpt lat="44.7612912" lon="9.8168832"><ele>666.0</ele><time>2026-04-04T13:44:29.93Z</time></trkpt><trkpt lat="44.7614465" lon="9.8169355"><ele>660.0</ele><time>2026-04-04T13:44:30.926Z</time></trkpt><trkpt lat="44.7615831" lon="9.8169455"><ele>660.0</ele><time>2026-04-04T13:44:31.941Z</time></trkpt><trkpt lat="44.761703" lon="9.8168967"><ele>660.0</ele><time>2026-04-04T13:44:32.943Z</time></trkpt><trkpt lat="44.7618335" lon="9.816795"><ele>660.0</ele><time>2026-04-04T13:44:33.899Z</time></trkpt><trkpt lat="44.7619876" lon="9.8166552"><ele>659.3333333333334</ele><time>2026-04-04T13:44:34.928Z</time></trkpt><trkpt lat="44.7621233" lon="9.816511"><ele>658.6666666666667</ele><time>2026-04-04T13:44:35.949Z</time></trkpt><trkpt lat="44.7622422" lon="9.8163509"><ele>658.0</ele><time>2026-04-04T13:44:36.895Z</time></trkpt><trkpt lat="44.7623355" lon="9.8161828"><ele>658.0</ele><time>2026-04-04T13:44:37.924Z</time></trkpt><trkpt lat="44.7624153" lon="9.8159935"><ele>658.0</ele><time>2026-04-04T13:44:38.925Z</time></trkpt><trkpt lat="44.7624817" lon="9.8158023"><ele>658.0</ele><time>2026-04-04T13:44:39.938Z</time></trkpt><trkpt lat="44.762542" lon="9.8156279"><ele>658.0</ele><time>2026-04-04T13:44:40.888Z</time></trkpt><trkpt lat="44.7625962" lon="9.8154674"><ele>664.0</ele><time>2026-04-04T13:44:41.911Z</time></trkpt><trkpt lat="44.7626522" lon="9.8153334"><ele>670.0</ele><time>2026-04-04T13:44:42.936Z</time></trkpt><trkpt lat="44.7627286" lon="9.8152742"><ele>676.0</ele><time>2026-04-04T13:44:43.945Z</time></trkpt><trkpt lat="44.7628541" lon="9.815306"><ele>682.0</ele><time>2026-04-04T13:44:44.927Z</time></trkpt><trkpt lat="44.7630031" lon="9.8154063"><ele>684.3333333333334</ele><time>2026-04-04T13:44:45.923Z</time></trkpt><trkpt lat="44.7631577" lon="9.815557"><ele>686.6666666666666</ele><time>2026-04-04T13:44:46.906Z</time></trkpt><trkpt lat="44.7633249" lon="9.8157865"><ele>689.0</ele><time>2026-04-04T13:44:47.932Z</time></trkpt><trkpt lat="44.7634769" lon="9.8160239"><ele>688.6666666666666</ele><time>2026-04-04T13:44:48.941Z</time></trkpt><trkpt lat="44.7636182" lon="9.8162358"><ele>688.3333333333334</ele><time>2026-04-04T13:44:49.931Z</time></trkpt><trkpt lat="44.76372" lon="9.8164321"><ele>688.0</ele><time>2026-04-04T13:44:50.925Z</time></trkpt><trkpt lat="44.7638273" lon="9.8166013"><ele>688.0</ele><time>2026-04-04T13:44:51.941Z</time></trkpt><trkpt lat="44.7639391" lon="9.8167573"><ele>688.0</ele><time>2026-04-04T13:44:52.941Z</time></trkpt><trkpt lat="44.7640788" lon="9.8168541"><ele>688.0</ele><time>2026-04-04T13:44:53.936Z</time></trkpt><trkpt lat="44.7642498" lon="9.816938"><ele>689.3333333333334</ele><time>2026-04-04T13:44:54.928Z</time></trkpt><trkpt lat="44.7644" lon="9.8170055"><ele>690.6666666666666</ele><time>2026-04-04T13:44:55.94Z</time></trkpt><trkpt lat="44.7645484" lon="9.8170774"><ele>692.0</ele><time>2026-04-04T13:44:56.934Z</time></trkpt><trkpt lat="44.7646791" lon="9.8172"><ele>692.0</ele><time>2026-04-04T13:44:57.89Z</time></trkpt><trkpt lat="44.7647958" lon="9.8173991"><ele>692.0</ele><time>2026-04-04T13:44:58.877Z</time></trkpt><trkpt lat="44.7648933" lon="9.8176524"><ele>692.0</ele><time>2026-04-04T13:44:59.935Z</time></trkpt><trkpt lat="44.7650009" lon="9.8178837"><ele>685.6666666666666</ele><time>2026-04-04T13:45:00.883Z</time></trkpt><trkpt lat="44.765099" lon="9.8181098"><ele>679.3333333333334</ele><time>2026-04-04T13:45:01.876Z</time></trkpt><trkpt lat="44.7651894" lon="9.8183065"><ele>673.0</ele><time>2026-04-04T13:45:02.893Z</time></trkpt><trkpt lat="44.7652843" lon="9.8184869"><ele>673.0</ele><time>2026-04-04T13:45:03.883Z</time></trkpt><trkpt lat="44.7653772" lon="9.8186371"><ele>673.0</ele><time>2026-04-04T13:45:04.925Z</time></trkpt><trkpt lat="44.7654574" lon="9.8187782"><ele>673.0</ele><time>2026-04-04T13:45:05.946Z</time></trkpt><trkpt lat="44.7655316" lon="9.8189004"><ele>673.0</ele><time>2026-04-04T13:45:06.931Z</time></trkpt><trkpt lat="44.7656013" lon="9.8190123"><ele>673.0</ele><time>2026-04-04T13:45:07.919Z</time></trkpt><trkpt lat="44.7656702" lon="9.8191136"><ele>673.0</ele><time>2026-04-04T13:45:08.941Z</time></trkpt><trkpt lat="44.765724" lon="9.8191958"><ele>673.0</ele><time>2026-04-04T13:45:09.944Z</time></trkpt><trkpt lat="44.7657854" lon="9.8193041"><ele>673.0</ele><time>2026-04-04T13:45:11.955Z</time></trkpt><trkpt lat="44.7658211" lon="9.8194015"><ele>645.0</ele><time>2026-04-04T13:45:13.942Z</time></trkpt></trkseg><trkseg><trkpt lat="44.7761942" lon="9.825481"><ele>587.0</ele><time>2026-04-04T14:17:03.875Z</time></trkpt><trkpt lat="44.7763013" lon="9.8256016"><ele>587.0</ele><time>2026-04-04T14:17:04.879Z</time></trkpt><trkpt lat="44.7763803" lon="9.8257967"><ele>587.0</ele><time>2026-04-04T14:17:05.879Z</time></trkpt><trkpt lat="44.7764347" lon="9.8260157"><ele>585.6666666666666</ele><time>2026-04-04T14:17:06.875Z</time></trkpt><trkpt lat="44.7764984" lon="9.8262509"><ele>584.3333333333334</ele><time>2026-04-04T14:17:07.877Z</time></trkpt><trkpt lat="44.7765542" lon="9.8264891"><ele>583.0</ele><time>2026-04-04T14:17:08.887Z</time></trkpt><trkpt lat="44.776604" lon="9.8267237"><ele>578.6666666666667</ele><time>2026-04-04T14:17:09.889Z</time></trkpt><trkpt lat="44.7766551" lon="9.8269512"><ele>574.3333333333334</ele><time>2026-04-04T14:17:10.872Z</time></trkpt><trkpt lat="44.7767068" lon="9.8271873"><ele>570.0</ele><time>2026-04-04T14:17:11.888Z</time></trkpt><trkpt lat="44.776746" lon="9.827389"><ele>570.0</ele><time>2026-04-04T14:17:12.884Z</time></trkpt><trkpt lat="44.7767947" lon="9.8275661"><ele>570.0</ele><time>2026-04-04T14:17:13.897Z</time></trkpt><trkpt lat="44.7768475" lon="9.8277147"><ele>570.0</ele><time>2026-04-04T14:17:14.897Z</time></trkpt><trkpt lat="44.776926" lon="9.8278582"><ele>570.0</ele><time>2026-04-04T14:17:15.886Z</time></trkpt><trkpt lat="44.7770244" lon="9.8279935"><ele>573.5</ele><time>2026-04-04T14:17:16.902Z</time></trkpt><trkpt lat="44.7771214" lon="9.8281254"><ele>577.0</ele><time>2026-04-04T14:17:17.891Z</time></trkpt><trkpt lat="44.7772386" lon="9.8281993"><ele>580.5</ele><time>2026-04-04T14:17:18.892Z</time></trkpt><trkpt lat="44.7773634" lon="9.8282346"><ele>584.0</ele><time>2026-04-04T14:17:19.876Z</time></trkpt><trkpt lat="44.7774858" lon="9.8282162"><ele>584.0</ele><time>2026-04-04T14:17:20.885Z</time></trkpt><trkpt lat="44.7776297" lon="9.828143"><ele>584.0</ele><time>2026-04-04T14:17:21.891Z</time></trkpt><trkpt lat="44.7777615" lon="9.8281032"><ele>584.0</ele><time>2026-04-04T14:17:22.883Z</time></trkpt><trkpt lat="44.777891" lon="9.8280975"><ele>584.0</ele><time>2026-04-04T14:17:23.901Z</time></trkpt><trkpt lat="44.77802" lon="9.8281441"><ele>583.5</ele><time>2026-04-04T14:17:24.875Z</time></trkpt><trkpt lat="44.7781421" lon="9.8282077"><ele>583.0</ele><time>2026-04-04T14:17:25.865Z</time></trkpt><trkpt lat="44.77828" lon="9.8282255"><ele>582.5</ele><time>2026-04-04T14:17:26.886Z</time></trkpt><trkpt lat="44.7784347" lon="9.8281963"><ele>582.0</ele><time>2026-04-04T14:17:27.869Z</time></trkpt><trkpt lat="44.7785811" lon="9.8281625"><ele>582.0</ele><time>2026-04-04T14:17:28.901Z</time></trkpt><trkpt lat="44.7786911" lon="9.8280931"><ele>582.0</ele><time>2026-04-04T14:17:29.869Z</time></trkpt><trkpt lat="44.7787683" lon="9.8279577"><ele>582.0</ele><time>2026-04-04T14:17:30.882Z</time></trkpt><trkpt lat="44.7788166" lon="9.8277749"><ele>582.0</ele><time>2026-04-04T14:17:31.887Z</time></trkpt><trkpt lat="44.778823" lon="9.8275536"><ele>580.75</ele><time>2026-04-04T14:17:32.887Z</time></trkpt><trkpt lat="44.7788251" lon="9.8273224"><ele>579.5</ele><time>2026-04-04T14:17:33.893Z</time></trkpt><trkpt lat="44.7788433" lon="9.8271234"><ele>578.25</ele><time>2026-04-04T14:17:34.884Z</time></trkpt><trkpt lat="44.7788822" lon="9.8269659"><ele>577.0</ele><time>2026-04-04T14:17:35.881Z</time></trkpt><trkpt lat="44.7789461" lon="9.8268114"><ele>574.6666666666667</ele><time>2026-04-04T14:17:36.884Z</time></trkpt><trkpt lat="44.7790392" lon="9.8266668"><ele>572.3333333333334</ele><time>2026-04-04T14:17:37.888Z</time></trkpt><trkpt lat="44.7791614" lon="9.8265303"><ele>570.0</ele><time>2026-04-04T14:17:38.892Z</time></trkpt><trkpt lat="44.7793193" lon="9.8263792"><ele>568.0</ele><time>2026-04-04T14:17:39.888Z</time></trkpt><trkpt lat="44.7794842" lon="9.8262367"><ele>566.0</ele><time>2026-04-04T14:17:40.894Z</time></trkpt><trkpt lat="44.7796334" lon="9.8260975"><ele>564.0</ele><time>2026-04-04T14:17:41.878Z</time></trkpt><trkpt lat="44.7797562" lon="9.8259891"><ele>562.8</ele><time>2026-04-04T14:17:42.893Z</time></trkpt><trkpt lat="44.7798586" lon="9.8259185"><ele>561.5999999999999</ele><time>2026-04-04T14:17:43.876Z</time></trkpt><trkpt lat="44.7799378" lon="9.8258843"><ele>560.4</ele><time>2026-04-04T14:17:44.882Z</time></trkpt><trkpt lat="44.7800387" lon="9.8258902"><ele>559.1999999999999</ele><time>2026-04-04T14:17:45.882Z</time></trkpt><trkpt lat="44.7801338" lon="9.8259194"><ele>558.0</ele><time>2026-04-04T14:17:46.886Z</time></trkpt><trkpt lat="44.780216" lon="9.8260546"><ele>559.1999999999999</ele><time>2026-04-04T14:17:47.884Z</time></trkpt><trkpt lat="44.7802428" lon="9.8261795"><ele>560.4</ele><time>2026-04-04T14:17:48.896Z</time></trkpt><trkpt lat="44.7802335" lon="9.8263104"><ele>561.5999999999999</ele><time>2026-04-04T14:17:49.896Z</time></trkpt><trkpt lat="44.7801848" lon="9.8264622"><ele>562.8</ele><time>2026-04-04T14:17:50.88Z</time></trkpt><trkpt lat="44.7801406" lon="9.8266456"><ele>564.0</ele><time>2026-04-04T14:17:51.883Z</time></trkpt><trkpt lat="44.7801137" lon="9.8268218"><ele>564.0</ele><time>2026-04-04T14:17:52.887Z</time></trkpt><trkpt lat="44.7800935" lon="9.8269863"><ele>564.0</ele><time>2026-04-04T14:17:53.894Z</time></trkpt><trkpt lat="44.7800817" lon="9.8271434"><ele>564.0</ele><time>2026-04-04T14:17:54.889Z</time></trkpt><trkpt lat="44.7801006" lon="9.8272876"><ele>564.0</ele><time>2026-04-04T14:17:55.895Z</time></trkpt><trkpt lat="44.7801637" lon="9.8274361"><ele>562.75</ele><time>2026-04-04T14:17:56.885Z</time></trkpt><trkpt lat="44.7802481" lon="9.8275733"><ele>561.5</ele><time>2026-04-04T14:17:57.868Z</time></trkpt><trkpt lat="44.7803288" lon="9.8277011"><ele>560.25</ele><time>2026-04-04T14:17:58.887Z</time></trkpt><trkpt lat="44.7804077" lon="9.8278245"><ele>559.0</ele><time>2026-04-04T14:17:59.891Z</time></trkpt><trkpt lat="44.7804999" lon="9.8279266"><ele>559.0</ele><time>2026-04-04T14:18:00.894Z</time></trkpt><trkpt lat="44.7805978" lon="9.8280154"><ele>559.0</ele><time>2026-04-04T14:18:01.893Z</time></trkpt><trkpt lat="44.7807025" lon="9.8280705"><ele>559.0</ele><time>2026-04-04T14:18:02.89Z</time></trkpt><trkpt lat="44.7808048" lon="9.8280694"><ele>559.0</ele><time>2026-04-04T14:18:03.88Z</time></trkpt><trkpt lat="44.7809056" lon="9.8280302"><ele>559.0</ele><time>2026-04-04T14:18:04.883Z</time></trkpt><trkpt lat="44.781009" lon="9.8279437"><ele>560.75</ele><time>2026-04-04T14:18:05.883Z</time></trkpt><trkpt lat="44.7811307" lon="9.8278498"><ele>562.5</ele><time>2026-04-04T14:18:06.912Z</time></trkpt><trkpt lat="44.7812524" lon="9.8277459"><ele>564.25</ele><time>2026-04-04T14:18:07.888Z</time></trkpt><trkpt lat="44.7813751" lon="9.8276312"><ele>566.0</ele><time>2026-04-04T14:18:08.898Z</time></trkpt><trkpt lat="44.7815013" lon="9.8275206"><ele>562.0</ele><time>2026-04-04T14:18:09.951Z</time></trkpt><trkpt lat="44.7816221" lon="9.8274301"><ele>558.0</ele><time>2026-04-04T14:18:10.896Z</time></trkpt><trkpt lat="44.7817462" lon="9.8273717"><ele>554.0</ele><time>2026-04-04T14:18:11.931Z</time></trkpt><trkpt lat="44.781872" lon="9.8273534"><ele>550.0</ele><time>2026-04-04T14:18:12.922Z</time></trkpt><trkpt lat="44.7819963" lon="9.8273446"><ele>549.75</ele><time>2026-04-04T14:18:13.935Z</time></trkpt><trkpt lat="44.7821066" lon="9.8273229"><ele>549.5</ele><time>2026-04-04T14:18:14.927Z</time></trkpt><trkpt lat="44.7821933" lon="9.8272479"><ele>549.25</ele><time>2026-04-04T14:18:15.939Z</time></trkpt><trkpt lat="44.7822557" lon="9.8271102"><ele>549.0</ele><time>2026-04-04T14:18:16.92Z</time></trkpt><trkpt lat="44.782314" lon="9.8269544"><ele>549.0</ele><time>2026-04-04T14:18:17.899Z</time></trkpt><trkpt lat="44.7823565" lon="9.8268157"><ele>549.0</ele><time>2026-04-04T14:18:18.882Z</time></trkpt><trkpt lat="44.7824041" lon="9.8266876"><ele>549.0</ele><time>2026-04-04T14:18:19.888Z</time></trkpt><trkpt lat="44.7824439" lon="9.8265912"><ele>549.0</ele><time>2026-04-04T14:18:20.901Z</time></trkpt><trkpt lat="44.7824941" lon="9.8265271"><ele>549.0</ele><time>2026-04-04T14:18:21.886Z</time></trkpt><trkpt lat="44.7825665" lon="9.8265133"><ele>549.0</ele><time>2026-04-04T14:18:22.912Z</time></trkpt><trkpt lat="44.7826404" lon="9.8265957"><ele>541.5</ele><time>2026-04-04T14:18:23.915Z</time></trkpt><trkpt lat="44.7827106" lon="9.8267196"><ele>534.0</ele><time>2026-04-04T14:18:24.889Z</time></trkpt><trkpt lat="44.7827643" lon="9.8268755"><ele>526.5</ele><time>2026-04-04T14:18:25.945Z</time></trkpt><trkpt lat="44.7828169" lon="9.827045"><ele>519.0</ele><time>2026-04-04T14:18:26.934Z</time></trkpt><trkpt lat="44.7828681" lon="9.827236"><ele>519.0</ele><time>2026-04-04T14:18:27.918Z</time></trkpt><trkpt lat="44.7829144" lon="9.8274444"><ele>519.0</ele><time>2026-04-04T14:18:28.895Z</time></trkpt><trkpt lat="44.7829551" lon="9.8276578"><ele>519.0</ele><time>2026-04-04T14:18:29.92Z</time></trkpt><trkpt lat="44.782989" lon="9.8278753"><ele>519.6666666666666</ele><time>2026-04-04T14:18:30.904Z</time></trkpt><trkpt lat="44.7830032" lon="9.8280934"><ele>520.3333333333333</ele><time>2026-04-04T14:18:31.915Z</time></trkpt><trkpt lat="44.7830066" lon="9.8283208"><ele>521.0</ele><time>2026-04-04T14:18:32.933Z</time></trkpt><trkpt lat="44.7830091" lon="9.8285403"><ele>521.0</ele><time>2026-04-04T14:18:33.887Z</time></trkpt><trkpt lat="44.7830275" lon="9.8287541"><ele>521.0</ele><time>2026-04-04T14:18:34.935Z</time></trkpt><trkpt lat="44.783055" lon="9.8289565"><ele>521.0</ele><time>2026-04-04T14:18:35.922Z</time></trkpt><trkpt lat="44.7830855" lon="9.8291476"><ele>521.0</ele><time>2026-04-04T14:18:36.929Z</time></trkpt><trkpt lat="44.7831156" lon="9.8293338"><ele>519.5</ele><time>2026-04-04T14:18:37.886Z</time></trkpt><trkpt lat="44.7831452" lon="9.8295162"><ele>518.0</ele><time>2026-04-04T14:18:38.895Z</time></trkpt><trkpt lat="44.783139" lon="9.8296868"><ele>516.5</ele><time>2026-04-04T14:18:39.922Z</time></trkpt><trkpt lat="44.7831053" lon="9.8298681"><ele>515.0</ele><time>2026-04-04T14:18:40.896Z</time></trkpt><trkpt lat="44.7830585" lon="9.8300447"><ele>513.5</ele><time>2026-04-04T14:18:41.929Z</time></trkpt><trkpt lat="44.7830028" lon="9.8302245"><ele>512.0</ele><time>2026-04-04T14:18:42.93Z</time></trkpt><trkpt lat="44.7829516" lon="9.8303869"><ele>510.5</ele><time>2026-04-04T14:18:43.892Z</time></trkpt><trkpt lat="44.7828997" lon="9.8305282"><ele>509.0</ele><time>2026-04-04T14:18:44.91Z</time></trkpt><trkpt lat="44.7828541" lon="9.8306549"><ele>508.99999999999994</ele><time>2026-04-04T14:18:45.923Z</time></trkpt><trkpt lat="44.7828192" lon="9.8307639"><ele>509.0</ele><time>2026-04-04T14:18:46.921Z</time></trkpt><trkpt lat="44.7828046" lon="9.8308544"><ele>509.0</ele><time>2026-04-04T14:18:47.881Z</time></trkpt><trkpt lat="44.7828808" lon="9.8309648"><ele>509.0</ele><time>2026-04-04T14:18:49.918Z</time></trkpt><trkpt lat="44.7829436" lon="9.8309167"><ele>508.99999999999994</ele><time>2026-04-04T14:18:50.916Z</time></trkpt><trkpt lat="44.7829951" lon="9.8308188"><ele>509.0</ele><time>2026-04-04T14:18:51.906Z</time></trkpt><trkpt lat="44.783042" lon="9.830679"><ele>509.0</ele><time>2026-04-04T14:18:52.921Z</time></trkpt><trkpt lat="44.7830673" lon="9.830478"><ele>509.0</ele><time>2026-04-04T14:18:53.908Z</time></trkpt><trkpt lat="44.7831181" lon="9.8303089"><ele>509.0</ele><time>2026-04-04T14:18:54.883Z</time></trkpt><trkpt lat="44.7831822" lon="9.8301635"><ele>509.0</ele><time>2026-04-04T14:18:55.887Z</time></trkpt><trkpt lat="44.7832745" lon="9.8300482"><ele>510.5</ele><time>2026-04-04T14:18:56.913Z</time></trkpt><trkpt lat="44.7834939" lon="9.8299248"><ele>512.0</ele><time>2026-04-04T14:18:58.885Z</time></trkpt><trkpt lat="44.7835846" lon="9.8298586"><ele>513.5</ele><time>2026-04-04T14:18:59.917Z</time></trkpt><trkpt lat="44.7836549" lon="9.829744"><ele>515.0</ele><time>2026-04-04T14:19:00.915Z</time></trkpt><trkpt lat="44.7836952" lon="9.8295872"><ele>509.0</ele><time>2026-04-04T14:19:01.915Z</time></trkpt><trkpt lat="44.7837275" lon="9.8293987"><ele>503.0</ele><time>2026-04-04T14:19:02.916Z</time></trkpt><trkpt lat="44.7837695" lon="9.829187"><ele>497.0</ele><time>2026-04-04T14:19:03.927Z</time></trkpt><trkpt lat="44.783817" lon="9.8289962"><ele>491.0</ele><time>2026-04-04T14:19:04.872Z</time></trkpt><trkpt lat="44.7838599" lon="9.8288098"><ele>491.0</ele><time>2026-04-04T14:19:05.917Z</time></trkpt><trkpt lat="44.7839026" lon="9.8286312"><ele>491.0</ele><time>2026-04-04T14:19:06.905Z</time></trkpt><trkpt lat="44.7839446" lon="9.8284528"><ele>491.0</ele><time>2026-04-04T14:19:07.963Z</time></trkpt><trkpt lat="44.7839846" lon="9.8282719"><ele>491.0</ele><time>2026-04-04T14:19:08.879Z</time></trkpt><trkpt lat="44.7840209" lon="9.8281026"><ele>491.66666666666663</ele><time>2026-04-04T14:19:09.912Z</time></trkpt><trkpt lat="44.784053" lon="9.8279551"><ele>492.3333333333333</ele><time>2026-04-04T14:19:10.927Z</time></trkpt><trkpt lat="44.784078" lon="9.8278261"><ele>493.0</ele><time>2026-04-04T14:19:11.903Z</time></trkpt><trkpt lat="44.7841153" lon="9.8277275"><ele>493.66666666666663</ele><time>2026-04-04T14:19:12.937Z</time></trkpt><trkpt lat="44.7841732" lon="9.8276635"><ele>494.3333333333333</ele><time>2026-04-04T14:19:13.912Z</time></trkpt><trkpt lat="44.7842538" lon="9.827664"><ele>495.0</ele><time>2026-04-04T14:19:14.889Z</time></trkpt><trkpt lat="44.7843244" lon="9.8277076"><ele>495.0</ele><time>2026-04-04T14:19:15.909Z</time></trkpt><trkpt lat="44.7843677" lon="9.8278128"><ele>495.0</ele><time>2026-04-04T14:19:16.897Z</time></trkpt><trkpt lat="44.7843538" lon="9.8279676"><ele>495.0</ele><time>2026-04-04T14:19:17.893Z</time></trkpt><trkpt lat="44.7843319" lon="9.8281486"><ele>495.0</ele><time>2026-04-04T14:19:18.907Z</time></trkpt><trkpt lat="44.7842964" lon="9.8283158"><ele>495.0</ele><time>2026-04-04T14:19:19.906Z</time></trkpt><trkpt lat="44.7842766" lon="9.8284659"><ele>495.0</ele><time>2026-04-04T14:19:20.89Z</time></trkpt><trkpt lat="44.7842952" lon="9.8285693"><ele>495.0</ele><time>2026-04-04T14:19:21.92Z</time></trkpt><trkpt lat="44.7844155" lon="9.8286294"><ele>495.0</ele><time>2026-04-04T14:19:23.906Z</time></trkpt><trkpt lat="44.7844963" lon="9.8285768"><ele>495.0</ele><time>2026-04-04T14:19:24.905Z</time></trkpt><trkpt lat="44.7845717" lon="9.8284451"><ele>491.0</ele><time>2026-04-04T14:19:25.871Z</time></trkpt><trkpt lat="44.7846642" lon="9.8282747"><ele>487.0</ele><time>2026-04-04T14:19:26.908Z</time></trkpt><trkpt lat="44.7847451" lon="9.8281227"><ele>483.0</ele><time>2026-04-04T14:19:27.915Z</time></trkpt><trkpt lat="44.7848246" lon="9.828021"><ele>479.0</ele><time>2026-04-04T14:19:28.888Z</time></trkpt><trkpt lat="44.7848938" lon="9.8279939"><ele>479.0</ele><time>2026-04-04T14:19:29.934Z</time></trkpt><trkpt lat="44.7849723" lon="9.8280079"><ele>479.0</ele><time>2026-04-04T14:19:30.937Z</time></trkpt><trkpt lat="44.7850394" lon="9.8281008"><ele>479.0</ele><time>2026-04-04T14:19:31.872Z</time></trkpt><trkpt lat="44.7850764" lon="9.8282508"><ele>479.0</ele><time>2026-04-04T14:19:32.922Z</time></trkpt><trkpt lat="44.7851131" lon="9.8283897"><ele>479.0</ele><time>2026-04-04T14:19:33.936Z</time></trkpt><trkpt lat="44.7851532" lon="9.8284786"><ele>476.0</ele><time>2026-04-04T14:19:34.924Z</time></trkpt><trkpt lat="44.7852235" lon="9.8285085"><ele>473.0</ele><time>2026-04-04T14:19:35.908Z</time></trkpt><trkpt lat="44.7852906" lon="9.8284513"><ele>470.0</ele><time>2026-04-04T14:19:36.92Z</time></trkpt><trkpt lat="44.7853327" lon="9.8283322"><ele>467.0</ele><time>2026-04-04T14:19:37.921Z</time></trkpt><trkpt lat="44.7852978" lon="9.8281848"><ele>464.0</ele><time>2026-04-04T14:19:38.895Z</time></trkpt><trkpt lat="44.7852491" lon="9.8279915"><ele>464.0</ele><time>2026-04-04T14:19:39.869Z</time></trkpt><trkpt lat="44.7852222" lon="9.8277834"><ele>464.0</ele><time>2026-04-04T14:19:40.878Z</time></trkpt><trkpt lat="44.785222" lon="9.8275695"><ele>464.0</ele><time>2026-04-04T14:19:41.904Z</time></trkpt><trkpt lat="44.7852401" lon="9.8273515"><ele>462.75</ele><time>2026-04-04T14:19:42.89Z</time></trkpt><trkpt lat="44.7852638" lon="9.8271387"><ele>461.5</ele><time>2026-04-04T14:19:43.879Z</time></trkpt><trkpt lat="44.7852868" lon="9.8269602"><ele>460.25</ele><time>2026-04-04T14:19:44.891Z</time></trkpt><trkpt lat="44.7853232" lon="9.826791"><ele>459.0</ele><time>2026-04-04T14:19:45.901Z</time></trkpt><trkpt lat="44.7853933" lon="9.8266627"><ele>458.5</ele><time>2026-04-04T14:19:46.906Z</time></trkpt><trkpt lat="44.7854905" lon="9.8265518"><ele>458.0</ele><time>2026-04-04T14:19:47.888Z</time></trkpt><trkpt lat="44.7856157" lon="9.8264587"><ele>457.5</ele><time>2026-04-04T14:19:48.908Z</time></trkpt><trkpt lat="44.7857547" lon="9.826361"><ele>457.0</ele><time>2026-04-04T14:19:49.902Z</time></trkpt><trkpt lat="44.7859027" lon="9.8262429"><ele>453.6666666666667</ele><time>2026-04-04T14:19:50.915Z</time></trkpt><trkpt lat="44.7860453" lon="9.8261433"><ele>450.33333333333337</ele><time>2026-04-04T14:19:51.928Z</time></trkpt><trkpt lat="44.786193" lon="9.8260684"><ele>447.0</ele><time>2026-04-04T14:19:52.936Z</time></trkpt><trkpt lat="44.7863597" lon="9.8260213"><ele>447.0</ele><time>2026-04-04T14:19:53.909Z</time></trkpt><trkpt lat="44.7865275" lon="9.8259922"><ele>447.0</ele><time>2026-04-04T14:19:54.928Z</time></trkpt><trkpt lat="44.7867039" lon="9.8259674"><ele>447.0</ele><time>2026-04-04T14:19:55.909Z</time></trkpt><trkpt lat="44.7868785" lon="9.8259325"><ele>449.66666666666663</ele><time>2026-04-04T14:19:56.898Z</time></trkpt><trkpt lat="44.7870561" lon="9.8258953"><ele>452.3333333333333</ele><time>2026-04-04T14:19:57.908Z</time></trkpt><trkpt lat="44.7872224" lon="9.8258931"><ele>455.0</ele><time>2026-04-04T14:19:58.914Z</time></trkpt><trkpt lat="44.787397" lon="9.8259167"><ele>455.0</ele><time>2026-04-04T14:19:59.907Z</time></trkpt><trkpt lat="44.7875683" lon="9.8259452"><ele>455.0</ele><time>2026-04-04T14:20:00.91Z</time></trkpt><trkpt lat="44.787732" lon="9.8259825"><ele>455.0</ele><time>2026-04-04T14:20:01.893Z</time></trkpt><trkpt lat="44.7878923" lon="9.825996"><ele>454.3333333333333</ele><time>2026-04-04T14:20:02.914Z</time></trkpt><trkpt lat="44.7880552" lon="9.8259698"><ele>453.66666666666663</ele><time>2026-04-04T14:20:03.914Z</time></trkpt><trkpt lat="44.788231" lon="9.8259212"><ele>453.0</ele><time>2026-04-04T14:20:04.93Z</time></trkpt><trkpt lat="44.7884162" lon="9.8258837"><ele>452.0</ele><time>2026-04-04T14:20:05.883Z</time></trkpt><trkpt lat="44.7885993" lon="9.8258465"><ele>451.0</ele><time>2026-04-04T14:20:06.898Z</time></trkpt><trkpt lat="44.7887858" lon="9.8258297"><ele>450.0</ele><time>2026-04-04T14:20:07.926Z</time></trkpt><trkpt lat="44.7889692" lon="9.825824"><ele>450.0</ele><time>2026-04-04T14:20:08.912Z</time></trkpt><trkpt lat="44.7891668" lon="9.8258211"><ele>450.0</ele><time>2026-04-04T14:20:09.914Z</time></trkpt><trkpt lat="44.7893647" lon="9.8258195"><ele>450.0</ele><time>2026-04-04T14:20:10.92Z</time></trkpt><trkpt lat="44.7895526" lon="9.8258247"><ele>448.66666666666663</ele><time>2026-04-04T14:20:11.93Z</time></trkpt><trkpt lat="44.7897192" lon="9.8258364"><ele>447.3333333333333</ele><time>2026-04-04T14:20:12.916Z</time></trkpt><trkpt lat="44.7898702" lon="9.8258628"><ele>446.0</ele><time>2026-04-04T14:20:13.96Z</time></trkpt><trkpt lat="44.7900116" lon="9.8259201"><ele>446.0</ele><time>2026-04-04T14:20:14.934Z</time></trkpt><trkpt lat="44.7901612" lon="9.8260076"><ele>446.0</ele><time>2026-04-04T14:20:15.919Z</time></trkpt><trkpt lat="44.7903198" lon="9.8261146"><ele>446.0</ele><time>2026-04-04T14:20:16.93Z</time></trkpt><trkpt lat="44.7904798" lon="9.8262359"><ele>446.0</ele><time>2026-04-04T14:20:17.923Z</time></trkpt><trkpt lat="44.7906403" lon="9.826359"><ele>446.0</ele><time>2026-04-04T14:20:18.927Z</time></trkpt><trkpt lat="44.7907955" lon="9.826483"><ele>446.0</ele><time>2026-04-04T14:20:19.912Z</time></trkpt><trkpt lat="44.7909516" lon="9.826604"><ele>445.3333333333333</ele><time>2026-04-04T14:20:20.916Z</time></trkpt><trkpt lat="44.7911006" lon="9.8267199"><ele>444.66666666666663</ele><time>2026-04-04T14:20:21.929Z</time></trkpt><trkpt lat="44.7912387" lon="9.8268312"><ele>444.0</ele><time>2026-04-04T14:20:22.883Z</time></trkpt><trkpt lat="44.7913664" lon="9.8269354"><ele>441.5</ele><time>2026-04-04T14:20:23.886Z</time></trkpt><trkpt lat="44.7914724" lon="9.8270024"><ele>439.0</ele><time>2026-04-04T14:20:24.882Z</time></trkpt><trkpt lat="44.7915751" lon="9.8270193"><ele>436.5</ele><time>2026-04-04T14:20:25.885Z</time></trkpt><trkpt lat="44.7916939" lon="9.8269527"><ele>434.0</ele><time>2026-04-04T14:20:26.938Z</time></trkpt><trkpt lat="44.7918137" lon="9.8268128"><ele>437.0</ele><time>2026-04-04T14:20:27.938Z</time></trkpt><trkpt lat="44.7919507" lon="9.8266393"><ele>440.0</ele><time>2026-04-04T14:20:28.905Z</time></trkpt><trkpt lat="44.7921023" lon="9.8265135"><ele>443.0</ele><time>2026-04-04T14:20:29.958Z</time></trkpt><trkpt lat="44.7922779" lon="9.8264498"><ele>443.0</ele><time>2026-04-04T14:20:30.935Z</time></trkpt><trkpt lat="44.7924758" lon="9.8264601"><ele>443.0</ele><time>2026-04-04T14:20:31.934Z</time></trkpt><trkpt lat="44.7926868" lon="9.8264867"><ele>443.0</ele><time>2026-04-04T14:20:32.928Z</time></trkpt><trkpt lat="44.7928856" lon="9.8265043"><ele>443.0</ele><time>2026-04-04T14:20:33.939Z</time></trkpt><trkpt lat="44.7930694" lon="9.8265049"><ele>443.0</ele><time>2026-04-04T14:20:34.954Z</time></trkpt><trkpt lat="44.7932385" lon="9.8265061"><ele>443.0</ele><time>2026-04-04T14:20:35.892Z</time></trkpt><trkpt lat="44.7934022" lon="9.8265226"><ele>446.3333333333333</ele><time>2026-04-04T14:20:36.913Z</time></trkpt><trkpt lat="44.7935523" lon="9.8265653"><ele>449.66666666666663</ele><time>2026-04-04T14:20:37.931Z</time></trkpt><trkpt lat="44.7936885" lon="9.8266413"><ele>453.0</ele><time>2026-04-04T14:20:38.865Z</time></trkpt><trkpt lat="44.7938277" lon="9.8267512"><ele>451.33333333333337</ele><time>2026-04-04T14:20:39.946Z</time></trkpt><trkpt lat="44.7939585" lon="9.8268721"><ele>449.6666666666667</ele><time>2026-04-04T14:20:40.937Z</time></trkpt><trkpt lat="44.7940869" lon="9.8270257"><ele>448.0</ele><time>2026-04-04T14:20:41.936Z</time></trkpt><trkpt lat="44.7942071" lon="9.8271977"><ele>448.0</ele><time>2026-04-04T14:20:42.912Z</time></trkpt><trkpt lat="44.7943226" lon="9.8273839"><ele>448.0</ele><time>2026-04-04T14:20:43.93Z</time></trkpt><trkpt lat="44.7944352" lon="9.8275583"><ele>448.0</ele><time>2026-04-04T14:20:44.923Z</time></trkpt><trkpt lat="44.7945546" lon="9.827686"><ele>450.33333333333337</ele><time>2026-04-04T14:20:45.925Z</time></trkpt><trkpt lat="44.7946914" lon="9.827792"><ele>452.66666666666663</ele><time>2026-04-04T14:20:46.924Z</time></trkpt><trkpt lat="44.7948376" lon="9.8278888"><ele>455.0</ele><time>2026-04-04T14:20:47.952Z</time></trkpt><trkpt lat="44.794962" lon="9.8280005"><ele>455.0</ele><time>2026-04-04T14:20:48.933Z</time></trkpt><trkpt lat="44.79506" lon="9.8281519"><ele>455.0</ele><time>2026-04-04T14:20:49.924Z</time></trkpt><trkpt lat="44.7951389" lon="9.8283349"><ele>455.0</ele><time>2026-04-04T14:20:50.895Z</time></trkpt><trkpt lat="44.7952105" lon="9.8285413"><ele>453.5</ele><time>2026-04-04T14:20:51.922Z</time></trkpt><trkpt lat="44.795259" lon="9.8287338"><ele>452.0</ele><time>2026-04-04T14:20:52.948Z</time></trkpt><trkpt lat="44.7952995" lon="9.8288854"><ele>450.5</ele><time>2026-04-04T14:20:53.933Z</time></trkpt><trkpt lat="44.7953611" lon="9.8289897"><ele>449.0</ele><time>2026-04-04T14:20:54.879Z</time></trkpt><trkpt lat="44.7954458" lon="9.8290513"><ele>449.0</ele><time>2026-04-04T14:20:55.894Z</time></trkpt><trkpt lat="44.7955616" lon="9.8290498"><ele>449.0</ele><time>2026-04-04T14:20:56.866Z</time></trkpt><trkpt lat="44.7957049" lon="9.8289976"><ele>449.0</ele><time>2026-04-04T14:20:57.864Z</time></trkpt><trkpt lat="44.7958505" lon="9.8289189"><ele>449.0</ele><time>2026-04-04T14:20:58.877Z</time></trkpt><trkpt lat="44.796005" lon="9.8288382"><ele>448.4</ele><time>2026-04-04T14:20:59.918Z</time></trkpt><trkpt lat="44.7961431" lon="9.8287802"><ele>447.79999999999995</ele><time>2026-04-04T14:21:00.899Z</time></trkpt><trkpt lat="44.7962518" lon="9.8287387"><ele>447.20000000000005</ele><time>2026-04-04T14:21:01.936Z</time></trkpt><trkpt lat="44.796341" lon="9.8287028"><ele>446.6</ele><time>2026-04-04T14:21:02.872Z</time></trkpt><trkpt lat="44.7964352" lon="9.828662"><ele>446.0</ele><time>2026-04-04T14:21:03.939Z</time></trkpt><trkpt lat="44.79654" lon="9.8286273"><ele>446.0</ele><time>2026-04-04T14:21:04.931Z</time></trkpt><trkpt lat="44.7966678" lon="9.8286167"><ele>446.0</ele><time>2026-04-04T14:21:05.95Z</time></trkpt><trkpt lat="44.7968043" lon="9.8286683"><ele>446.0</ele><time>2026-04-04T14:21:06.896Z</time></trkpt><trkpt lat="44.7969502" lon="9.828746"><ele>446.0</ele><time>2026-04-04T14:21:07.934Z</time></trkpt><trkpt lat="44.7970894" lon="9.8288262"><ele>445.0</ele><time>2026-04-04T14:21:08.934Z</time></trkpt><trkpt lat="44.7972218" lon="9.8288961"><ele>444.0</ele><time>2026-04-04T14:21:09.922Z</time></trkpt><trkpt lat="44.7973489" lon="9.8289617"><ele>443.0</ele><time>2026-04-04T14:21:10.937Z</time></trkpt><trkpt lat="44.7974725" lon="9.8290239"><ele>442.0</ele><time>2026-04-04T14:21:11.948Z</time></trkpt><trkpt lat="44.7975991" lon="9.8290916"><ele>441.5</ele><time>2026-04-04T14:21:12.935Z</time></trkpt><trkpt lat="44.7977348" lon="9.8291669"><ele>441.0</ele><time>2026-04-04T14:21:13.938Z</time></trkpt><trkpt lat="44.7978721" lon="9.8292451"><ele>440.5</ele><time>2026-04-04T14:21:14.933Z</time></trkpt><trkpt lat="44.7980098" lon="9.8293099"><ele>440.0</ele><time>2026-04-04T14:21:15.945Z</time></trkpt><trkpt lat="44.7981426" lon="9.8293696"><ele>439.25</ele><time>2026-04-04T14:21:16.936Z</time></trkpt><trkpt lat="44.7982678" lon="9.8294293"><ele>438.5</ele><time>2026-04-04T14:21:17.939Z</time></trkpt><trkpt lat="44.7983878" lon="9.82949"><ele>437.75</ele><time>2026-04-04T14:21:18.915Z</time></trkpt><trkpt lat="44.798498" lon="9.8295436"><ele>437.0</ele><time>2026-04-04T14:21:19.951Z</time></trkpt><trkpt lat="44.798593" lon="9.8295877"><ele>437.0</ele><time>2026-04-04T14:21:20.943Z</time></trkpt><trkpt lat="44.7986828" lon="9.8296299"><ele>437.00000000000006</ele><time>2026-04-04T14:21:21.935Z</time></trkpt><trkpt lat="44.7987756" lon="9.8296725"><ele>437.00000000000006</ele><time>2026-04-04T14:21:22.933Z</time></trkpt><trkpt lat="44.7988832" lon="9.8297285"><ele>437.0</ele><time>2026-04-04T14:21:23.951Z</time></trkpt><trkpt lat="44.7989949" lon="9.8297796"><ele>437.0</ele><time>2026-04-04T14:21:24.949Z</time></trkpt><trkpt lat="44.7991043" lon="9.8298306"><ele>436.99999999999994</ele><time>2026-04-04T14:21:25.875Z</time></trkpt><trkpt lat="44.79921" lon="9.8298829"><ele>437.0</ele><time>2026-04-04T14:21:26.929Z</time></trkpt><trkpt lat="44.7992988" lon="9.8299261"><ele>437.0</ele><time>2026-04-04T14:21:27.874Z</time></trkpt><trkpt lat="44.799378" lon="9.8299693"><ele>437.0</ele><time>2026-04-04T14:21:28.922Z</time></trkpt><trkpt lat="44.7994444" lon="9.8300151"><ele>436.99999999999994</ele><time>2026-04-04T14:21:29.935Z</time></trkpt><trkpt lat="44.799495" lon="9.8300743"><ele>437.0</ele><time>2026-04-04T14:21:30.927Z</time></trkpt><trkpt lat="44.7995471" lon="9.8302033"><ele>434.40000000000003</ele><time>2026-04-04T14:21:32.911Z</time></trkpt><trkpt lat="44.7995193" lon="9.8303185"><ele>431.80000000000007</ele><time>2026-04-04T14:21:33.929Z</time></trkpt><trkpt lat="44.7994829" lon="9.8304601"><ele>429.2</ele><time>2026-04-04T14:21:34.929Z</time></trkpt><trkpt lat="44.7994496" lon="9.8306115"><ele>426.6</ele><time>2026-04-04T14:21:35.931Z</time></trkpt><trkpt lat="44.7994219" lon="9.830765"><ele>424.0</ele><time>2026-04-04T14:21:36.929Z</time></trkpt><trkpt lat="44.7994033" lon="9.830901"><ele>423.0</ele><time>2026-04-04T14:21:37.927Z</time></trkpt><trkpt lat="44.7993865" lon="9.8310261"><ele>422.0</ele><time>2026-04-04T14:21:38.939Z</time></trkpt><trkpt lat="44.7993808" lon="9.8311446"><ele>421.0</ele><time>2026-04-04T14:21:39.941Z</time></trkpt><trkpt lat="44.7993934" lon="9.8312406"><ele>420.0</ele><time>2026-04-04T14:21:40.952Z</time></trkpt><trkpt lat="44.7995104" lon="9.8313122"><ele>419.0</ele><time>2026-04-04T14:21:42.894Z</time></trkpt><trkpt lat="44.7995911" lon="9.8312657"><ele>419.0</ele><time>2026-04-04T14:21:43.929Z</time></trkpt><trkpt lat="44.7996718" lon="9.8311776"><ele>419.0</ele><time>2026-04-04T14:21:44.942Z</time></trkpt><trkpt lat="44.7997497" lon="9.8310535"><ele>419.0</ele><time>2026-04-04T14:21:45.95Z</time></trkpt><trkpt lat="44.799839" lon="9.8309221"><ele>419.0</ele><time>2026-04-04T14:21:46.946Z</time></trkpt><trkpt lat="44.7999292" lon="9.8307911"><ele>419.25</ele><time>2026-04-04T14:21:47.914Z</time></trkpt><trkpt lat="44.8000235" lon="9.8306733"><ele>419.5</ele><time>2026-04-04T14:21:48.928Z</time></trkpt><trkpt lat="44.8001062" lon="9.8305719"><ele>419.75</ele><time>2026-04-04T14:21:49.93Z</time></trkpt><trkpt lat="44.8002012" lon="9.8304932"><ele>420.0</ele><time>2026-04-04T14:21:50.938Z</time></trkpt><trkpt lat="44.8003105" lon="9.8304746"><ele>420.0</ele><time>2026-04-04T14:21:51.933Z</time></trkpt><trkpt lat="44.8004287" lon="9.8305011"><ele>420.0</ele><time>2026-04-04T14:21:52.916Z</time></trkpt><trkpt lat="44.800547" lon="9.8305558"><ele>420.0</ele><time>2026-04-04T14:21:53.923Z</time></trkpt><trkpt lat="44.800641" lon="9.830649"><ele>420.0</ele><time>2026-04-04T14:21:54.92Z</time></trkpt><trkpt lat="44.8006846" lon="9.8307889"><ele>420.0</ele><time>2026-04-04T14:21:55.963Z</time></trkpt><trkpt lat="44.8006875" lon="9.8309379"><ele>420.0</ele><time>2026-04-04T14:21:56.91Z</time></trkpt><trkpt lat="44.8006633" lon="9.8311216"><ele>420.0</ele><time>2026-04-04T14:21:57.93Z</time></trkpt><trkpt lat="44.8006084" lon="9.8312847"><ele>420.0</ele><time>2026-04-04T14:21:58.885Z</time></trkpt><trkpt lat="44.8005209" lon="9.8314611"><ele>417.0</ele><time>2026-04-04T14:21:59.915Z</time></trkpt><trkpt lat="44.8004404" lon="9.8316415"><ele>414.0</ele><time>2026-04-04T14:22:00.91Z</time></trkpt><trkpt lat="44.8003682" lon="9.8318065"><ele>411.0</ele><time>2026-04-04T14:22:01.931Z</time></trkpt><trkpt lat="44.8003203" lon="9.831953"><ele>408.0</ele><time>2026-04-04T14:22:02.935Z</time></trkpt><trkpt lat="44.8003" lon="9.8320974"><ele>408.0</ele><time>2026-04-04T14:22:03.942Z</time></trkpt><trkpt lat="44.8003451" lon="9.8322342"><ele>408.0</ele><time>2026-04-04T14:22:04.937Z</time></trkpt><trkpt lat="44.8004546" lon="9.8323574"><ele>408.0</ele><time>2026-04-04T14:22:05.932Z</time></trkpt><trkpt lat="44.8005936" lon="9.8324738"><ele>408.0</ele><time>2026-04-04T14:22:06.931Z</time></trkpt><trkpt lat="44.8007429" lon="9.8325931"><ele>408.0</ele><time>2026-04-04T14:22:07.93Z</time></trkpt><trkpt lat="44.8008878" lon="9.8327199"><ele>408.0</ele><time>2026-04-04T14:22:08.932Z</time></trkpt><trkpt lat="44.8010233" lon="9.8328426"><ele>408.0</ele><time>2026-04-04T14:22:09.941Z</time></trkpt><trkpt lat="44.8011606" lon="9.8329592"><ele>408.0</ele><time>2026-04-04T14:22:10.933Z</time></trkpt><trkpt lat="44.801292" lon="9.8330751"><ele>408.0</ele><time>2026-04-04T14:22:11.933Z</time></trkpt><trkpt lat="44.8014192" lon="9.8331883"><ele>408.0</ele><time>2026-04-04T14:22:12.908Z</time></trkpt><trkpt lat="44.8015444" lon="9.8333197"><ele>407.33333333333337</ele><time>2026-04-04T14:22:13.944Z</time></trkpt><trkpt lat="44.8016605" lon="9.833474"><ele>406.6666666666667</ele><time>2026-04-04T14:22:14.963Z</time></trkpt><trkpt lat="44.8017635" lon="9.8336336"><ele>406.0</ele><time>2026-04-04T14:22:15.921Z</time></trkpt><trkpt lat="44.8018623" lon="9.8337952"><ele>406.0</ele><time>2026-04-04T14:22:16.932Z</time></trkpt><trkpt lat="44.8019435" lon="9.8339419"><ele>406.0</ele><time>2026-04-04T14:22:17.902Z</time></trkpt><trkpt lat="44.8020331" lon="9.83409"><ele>406.0</ele><time>2026-04-04T14:22:18.924Z</time></trkpt><trkpt lat="44.8021272" lon="9.8342519"><ele>406.0</ele><time>2026-04-04T14:22:19.943Z</time></trkpt><trkpt lat="44.8022287" lon="9.8344102"><ele>402.5</ele><time>2026-04-04T14:22:20.905Z</time></trkpt><trkpt lat="44.8023325" lon="9.8345751"><ele>399.0</ele><time>2026-04-04T14:22:21.921Z</time></trkpt><trkpt lat="44.8024211" lon="9.8347432"><ele>395.5</ele><time>2026-04-04T14:22:22.936Z</time></trkpt><trkpt lat="44.8025036" lon="9.834902"><ele>392.0</ele><time>2026-04-04T14:22:23.931Z</time></trkpt><trkpt lat="44.8025921" lon="9.8350439"><ele>392.0</ele><time>2026-04-04T14:22:24.936Z</time></trkpt><trkpt lat="44.8026929" lon="9.8351669"><ele>392.0</ele><time>2026-04-04T14:22:25.915Z</time></trkpt><trkpt lat="44.802824" lon="9.8352764"><ele>392.0</ele><time>2026-04-04T14:22:26.929Z</time></trkpt><trkpt lat="44.8029663" lon="9.8353645"><ele>392.0</ele><time>2026-04-04T14:22:27.926Z</time></trkpt><trkpt lat="44.8031095" lon="9.8354483"><ele>392.0</ele><time>2026-04-04T14:22:28.912Z</time></trkpt><trkpt lat="44.8032474" lon="9.8355419"><ele>392.0</ele><time>2026-04-04T14:22:29.936Z</time></trkpt><trkpt lat="44.8033796" lon="9.8356282"><ele>392.0</ele><time>2026-04-04T14:22:30.951Z</time></trkpt><trkpt lat="44.8035098" lon="9.835693"><ele>392.0</ele><time>2026-04-04T14:22:31.942Z</time></trkpt><trkpt lat="44.8036334" lon="9.8357472"><ele>388.5</ele><time>2026-04-04T14:22:32.931Z</time></trkpt><trkpt lat="44.8037491" lon="9.8358148"><ele>385.0</ele><time>2026-04-04T14:22:33.935Z</time></trkpt><trkpt lat="44.8038551" lon="9.835907"><ele>381.5</ele><time>2026-04-04T14:22:34.932Z</time></trkpt><trkpt lat="44.803946" lon="9.8360547"><ele>378.0</ele><time>2026-04-04T14:22:35.927Z</time></trkpt><trkpt lat="44.8040162" lon="9.8362349"><ele>378.0</ele><time>2026-04-04T14:22:36.908Z</time></trkpt><trkpt lat="44.8040701" lon="9.8364226"><ele>378.0</ele><time>2026-04-04T14:22:37.91Z</time></trkpt><trkpt lat="44.8041083" lon="9.8365981"><ele>378.0</ele><time>2026-04-04T14:22:38.892Z</time></trkpt><trkpt lat="44.8041171" lon="9.8367818"><ele>378.0</ele><time>2026-04-04T14:22:39.939Z</time></trkpt><trkpt lat="44.8041114" lon="9.836934"><ele>378.4</ele><time>2026-04-04T14:22:40.916Z</time></trkpt><trkpt lat="44.8041206" lon="9.8370767"><ele>378.79999999999995</ele><time>2026-04-04T14:22:41.918Z</time></trkpt><trkpt lat="44.8041691" lon="9.8372047"><ele>379.2</ele><time>2026-04-04T14:22:42.916Z</time></trkpt><trkpt lat="44.8042665" lon="9.837288"><ele>379.6</ele><time>2026-04-04T14:22:43.888Z</time></trkpt><trkpt lat="44.8043782" lon="9.8373285"><ele>380.0</ele><time>2026-04-04T14:22:44.927Z</time></trkpt><trkpt lat="44.8044898" lon="9.8373364"><ele>378.2</ele><time>2026-04-04T14:22:45.915Z</time></trkpt><trkpt lat="44.8045881" lon="9.8373502"><ele>376.4</ele><time>2026-04-04T14:22:46.932Z</time></trkpt><trkpt lat="44.8046789" lon="9.8373818"><ele>374.6</ele><time>2026-04-04T14:22:47.925Z</time></trkpt><trkpt lat="44.8047638" lon="9.8374223"><ele>372.8</ele><time>2026-04-04T14:22:48.93Z</time></trkpt><trkpt lat="44.804841" lon="9.8374913"><ele>371.0</ele><time>2026-04-04T14:22:49.942Z</time></trkpt><trkpt lat="44.8049146" lon="9.8376032"><ele>373.0</ele><time>2026-04-04T14:22:50.925Z</time></trkpt><trkpt lat="44.8049988" lon="9.8377131"><ele>375.0</ele><time>2026-04-04T14:22:51.928Z</time></trkpt><trkpt lat="44.8051028" lon="9.8377885"><ele>377.0</ele><time>2026-04-04T14:22:52.942Z</time></trkpt><trkpt lat="44.8052227" lon="9.8378409"><ele>379.0</ele><time>2026-04-04T14:22:53.944Z</time></trkpt><trkpt lat="44.8053592" lon="9.8378633"><ele>379.0</ele><time>2026-04-04T14:22:54.942Z</time></trkpt><trkpt lat="44.8055005" lon="9.8378489"><ele>379.0</ele><time>2026-04-04T14:22:55.902Z</time></trkpt><trkpt lat="44.8056415" lon="9.8378179"><ele>379.0</ele><time>2026-04-04T14:22:56.941Z</time></trkpt><trkpt lat="44.8057698" lon="9.8378161"><ele>379.0</ele><time>2026-04-04T14:22:57.964Z</time></trkpt><trkpt lat="44.8058951" lon="9.8378447"><ele>378.0</ele><time>2026-04-04T14:22:58.894Z</time></trkpt><trkpt lat="44.8060138" lon="9.8378916"><ele>377.0</ele><time>2026-04-04T14:22:59.938Z</time></trkpt><trkpt lat="44.8061254" lon="9.8379354"><ele>376.0</ele><time>2026-04-04T14:23:00.903Z</time></trkpt><trkpt lat="44.8062389" lon="9.8379577"><ele>375.0</ele><time>2026-04-04T14:23:01.933Z</time></trkpt><trkpt lat="44.8063412" lon="9.837941"><ele>375.0</ele><time>2026-04-04T14:23:02.947Z</time></trkpt><trkpt lat="44.8064479" lon="9.8378804"><ele>375.0</ele><time>2026-04-04T14:23:03.913Z</time></trkpt><trkpt lat="44.8065528" lon="9.8377814"><ele>375.0</ele><time>2026-04-04T14:23:04.872Z</time></trkpt><trkpt lat="44.8066532" lon="9.8376552"><ele>375.0</ele><time>2026-04-04T14:23:05.932Z</time></trkpt><trkpt lat="44.8067201" lon="9.8375035"><ele>374.5</ele><time>2026-04-04T14:23:06.929Z</time></trkpt><trkpt lat="44.8067617" lon="9.8373325"><ele>374.0</ele><time>2026-04-04T14:23:07.933Z</time></trkpt><trkpt lat="44.8067728" lon="9.8371353"><ele>373.5</ele><time>2026-04-04T14:23:08.945Z</time></trkpt><trkpt lat="44.8067602" lon="9.8369232"><ele>373.0</ele><time>2026-04-04T14:23:09.908Z</time></trkpt><trkpt lat="44.8067419" lon="9.8367151"><ele>371.75</ele><time>2026-04-04T14:23:10.924Z</time></trkpt><trkpt lat="44.8067283" lon="9.8365237"><ele>370.5</ele><time>2026-04-04T14:23:11.934Z</time></trkpt><trkpt lat="44.80671" lon="9.8363469"><ele>369.25</ele><time>2026-04-04T14:23:12.934Z</time></trkpt><trkpt lat="44.806674" lon="9.8361751"><ele>368.0</ele><time>2026-04-04T14:23:13.896Z</time></trkpt><trkpt lat="44.8066399" lon="9.8360161"><ele>367.0</ele><time>2026-04-04T14:23:14.918Z</time></trkpt><trkpt lat="44.8065992" lon="9.8358533"><ele>366.0</ele><time>2026-04-04T14:23:15.914Z</time></trkpt><trkpt lat="44.8065598" lon="9.83572"><ele>365.0</ele><time>2026-04-04T14:23:16.912Z</time></trkpt><trkpt lat="44.806543" lon="9.8355875"><ele>364.0</ele><time>2026-04-04T14:23:17.924Z</time></trkpt><trkpt lat="44.8065551" lon="9.8354548"><ele>363.0</ele><time>2026-04-04T14:23:18.884Z</time></trkpt><trkpt lat="44.8066027" lon="9.8353279"><ele>363.0</ele><time>2026-04-04T14:23:19.899Z</time></trkpt><trkpt lat="44.8066822" lon="9.8352103"><ele>363.0</ele><time>2026-04-04T14:23:20.895Z</time></trkpt><trkpt lat="44.806778" lon="9.8351206"><ele>363.0</ele><time>2026-04-04T14:23:21.891Z</time></trkpt><trkpt lat="44.8068913" lon="9.8350383"><ele>363.0</ele><time>2026-04-04T14:23:22.925Z</time></trkpt><trkpt lat="44.8070187" lon="9.8350002"><ele>361.25</ele><time>2026-04-04T14:23:23.949Z</time></trkpt><trkpt lat="44.8071409" lon="9.8349753"><ele>359.5</ele><time>2026-04-04T14:23:24.89Z</time></trkpt><trkpt lat="44.8072501" lon="9.8349279"><ele>357.75</ele><time>2026-04-04T14:23:25.935Z</time></trkpt><trkpt lat="44.8073526" lon="9.8348555"><ele>356.0</ele><time>2026-04-04T14:23:26.935Z</time></trkpt><trkpt lat="44.8074515" lon="9.8347603"><ele>356.0</ele><time>2026-04-04T14:23:27.927Z</time></trkpt><trkpt lat="44.8075365" lon="9.8346593"><ele>356.0</ele><time>2026-04-04T14:23:28.943Z</time></trkpt><trkpt lat="44.8076104" lon="9.8345627"><ele>356.0</ele><time>2026-04-04T14:23:29.893Z</time></trkpt><trkpt lat="44.8076726" lon="9.8344711"><ele>356.0</ele><time>2026-04-04T14:23:30.933Z</time></trkpt><trkpt lat="44.8077348" lon="9.8344079"><ele>356.0</ele><time>2026-04-04T14:23:31.946Z</time></trkpt><trkpt lat="44.8078004" lon="9.8343842"><ele>356.0</ele><time>2026-04-04T14:23:32.945Z</time></trkpt><trkpt lat="44.8078706" lon="9.8344285"><ele>353.0</ele><time>2026-04-04T14:23:33.947Z</time></trkpt><trkpt lat="44.807931" lon="9.834529"><ele>350.0</ele><time>2026-04-04T14:23:34.962Z</time></trkpt><trkpt lat="44.8079706" lon="9.8346683"><ele>347.0</ele><time>2026-04-04T14:23:35.946Z</time></trkpt><trkpt lat="44.8080049" lon="9.8348781"><ele>344.0</ele><time>2026-04-04T14:23:36.937Z</time></trkpt><trkpt lat="44.8080395" lon="9.8351129"><ele>344.0</ele><time>2026-04-04T14:23:37.899Z</time></trkpt><trkpt lat="44.8080809" lon="9.8353625"><ele>344.0</ele><time>2026-04-04T14:23:38.937Z</time></trkpt><trkpt lat="44.8081278" lon="9.8356384"><ele>344.0</ele><time>2026-04-04T14:23:39.927Z</time></trkpt><trkpt lat="44.8081545" lon="9.8359368"><ele>344.6666666666667</ele><time>2026-04-04T14:23:40.925Z</time></trkpt><trkpt lat="44.8081836" lon="9.8362179"><ele>345.3333333333333</ele><time>2026-04-04T14:23:41.938Z</time></trkpt><trkpt lat="44.8082121" lon="9.8364319"><ele>346.0</ele><time>2026-04-04T14:23:42.919Z</time></trkpt><trkpt lat="44.8082332" lon="9.8366005"><ele>346.0</ele><time>2026-04-04T14:23:43.865Z</time></trkpt><trkpt lat="44.8082794" lon="9.8367208"><ele>346.0</ele><time>2026-04-04T14:23:44.918Z</time></trkpt><trkpt lat="44.808358" lon="9.8367994"><ele>346.0</ele><time>2026-04-04T14:23:45.932Z</time></trkpt><trkpt lat="44.8084482" lon="9.8368549"><ele>346.0</ele><time>2026-04-04T14:23:46.943Z</time></trkpt><trkpt lat="44.8085619" lon="9.8368633"><ele>346.0</ele><time>2026-04-04T14:23:47.917Z</time></trkpt><trkpt lat="44.8086722" lon="9.8368747"><ele>344.20000000000005</ele><time>2026-04-04T14:23:48.917Z</time></trkpt><trkpt lat="44.8087698" lon="9.8369243"><ele>342.40000000000003</ele><time>2026-04-04T14:23:49.919Z</time></trkpt><trkpt lat="44.8088361" lon="9.8370279"><ele>340.6</ele><time>2026-04-04T14:23:50.903Z</time></trkpt><trkpt lat="44.8088988" lon="9.8371236"><ele>338.8</ele><time>2026-04-04T14:23:51.957Z</time></trkpt><trkpt lat="44.8089674" lon="9.8371679"><ele>337.0</ele><time>2026-04-04T14:23:52.926Z</time></trkpt><trkpt lat="44.8090543" lon="9.8371524"><ele>337.0</ele><time>2026-04-04T14:23:53.931Z</time></trkpt><trkpt lat="44.8090957" lon="9.8370463"><ele>337.0</ele><time>2026-04-04T14:23:54.932Z</time></trkpt><trkpt lat="44.8090887" lon="9.8369308"><ele>337.0</ele><time>2026-04-04T14:23:55.909Z</time></trkpt><trkpt lat="44.8090183" lon="9.8367974"><ele>337.0</ele><time>2026-04-04T14:23:56.928Z</time></trkpt><trkpt lat="44.8088862" lon="9.8366675"><ele>337.0</ele><time>2026-04-04T14:23:57.93Z</time></trkpt><trkpt lat="44.8087582" lon="9.8365543"><ele>335.5</ele><time>2026-04-04T14:23:58.921Z</time></trkpt><trkpt lat="44.8086466" lon="9.8364193"><ele>334.0</ele><time>2026-04-04T14:23:59.943Z</time></trkpt><trkpt lat="44.8085959" lon="9.8362713"><ele>332.5</ele><time>2026-04-04T14:24:00.921Z</time></trkpt><trkpt lat="44.8086316" lon="9.8360676"><ele>331.0</ele><time>2026-04-04T14:24:01.919Z</time></trkpt><trkpt lat="44.8086887" lon="9.8358532"><ele>329.3333333333333</ele><time>2026-04-04T14:24:02.947Z</time></trkpt><trkpt lat="44.8087858" lon="9.8356232"><ele>327.6666666666667</ele><time>2026-04-04T14:24:03.933Z</time></trkpt><trkpt lat="44.8088985" lon="9.8353928"><ele>326.0</ele><time>2026-04-04T14:24:04.932Z</time></trkpt><trkpt lat="44.8090061" lon="9.8351599"><ele>326.33333333333337</ele><time>2026-04-04T14:24:05.939Z</time></trkpt><trkpt lat="44.8090984" lon="9.8349435"><ele>326.6666666666667</ele><time>2026-04-04T14:24:06.909Z</time></trkpt><trkpt lat="44.8091896" lon="9.8347342"><ele>327.0</ele><time>2026-04-04T14:24:07.952Z</time></trkpt><trkpt lat="44.8092871" lon="9.8345526"><ele>325.75</ele><time>2026-04-04T14:24:08.887Z</time></trkpt><trkpt lat="44.8093733" lon="9.8343746"><ele>324.5</ele><time>2026-04-04T14:24:09.935Z</time></trkpt><trkpt lat="44.809427" lon="9.834202"><ele>323.25</ele><time>2026-04-04T14:24:10.95Z</time></trkpt><trkpt lat="44.8094453" lon="9.8340297"><ele>322.0</ele><time>2026-04-04T14:24:11.934Z</time></trkpt><trkpt lat="44.809449" lon="9.8338855"><ele>320.66666666666663</ele><time>2026-04-04T14:24:12.944Z</time></trkpt><trkpt lat="44.8094705" lon="9.8337596"><ele>319.3333333333333</ele><time>2026-04-04T14:24:13.939Z</time></trkpt><trkpt lat="44.8095149" lon="9.8336798"><ele>318.0</ele><time>2026-04-04T14:24:14.944Z</time></trkpt><trkpt lat="44.8095977" lon="9.8336711"><ele>316.6666666666667</ele><time>2026-04-04T14:24:15.948Z</time></trkpt><trkpt lat="44.8096872" lon="9.8337408"><ele>315.33333333333337</ele><time>2026-04-04T14:24:16.922Z</time></trkpt><trkpt lat="44.8097277" lon="9.8338628"><ele>314.0</ele><time>2026-04-04T14:24:17.921Z</time></trkpt><trkpt lat="44.8097265" lon="9.8340427"><ele>314.0</ele><time>2026-04-04T14:24:18.888Z</time></trkpt><trkpt lat="44.8097024" lon="9.834222"><ele>314.0</ele><time>2026-04-04T14:24:19.943Z</time></trkpt><trkpt lat="44.8096868" lon="9.8343984"><ele>314.0</ele><time>2026-04-04T14:24:20.939Z</time></trkpt><trkpt lat="44.8097168" lon="9.8345251"><ele>314.0</ele><time>2026-04-04T14:24:21.939Z</time></trkpt><trkpt lat="44.8097819" lon="9.8346042"><ele>314.0</ele><time>2026-04-04T14:24:22.929Z</time></trkpt><trkpt lat="44.8098743" lon="9.8345996"><ele>314.0</ele><time>2026-04-04T14:24:23.952Z</time></trkpt><trkpt lat="44.8099623" lon="9.8345431"><ele>314.0</ele><time>2026-04-04T14:24:24.944Z</time></trkpt><trkpt lat="44.8100381" lon="9.8343815"><ele>314.0</ele><time>2026-04-04T14:24:25.948Z</time></trkpt><trkpt lat="44.8100758" lon="9.8341686"><ele>314.0</ele><time>2026-04-04T14:24:26.946Z</time></trkpt><trkpt lat="44.8100975" lon="9.8339096"><ele>315.0</ele><time>2026-04-04T14:24:27.954Z</time></trkpt><trkpt lat="44.8101603" lon="9.8336769"><ele>316.0</ele><time>2026-04-04T14:24:28.938Z</time></trkpt><trkpt lat="44.8102277" lon="9.8334455"><ele>317.0</ele><time>2026-04-04T14:24:29.93Z</time></trkpt><trkpt lat="44.8102511" lon="9.8332096"><ele>314.4</ele><time>2026-04-04T14:24:30.932Z</time></trkpt><trkpt lat="44.8102352" lon="9.8330078"><ele>311.79999999999995</ele><time>2026-04-04T14:24:31.916Z</time></trkpt><trkpt lat="44.810209" lon="9.8328452"><ele>309.2</ele><time>2026-04-04T14:24:32.924Z</time></trkpt><trkpt lat="44.8101893" lon="9.8327374"><ele>306.59999999999997</ele><time>2026-04-04T14:24:33.939Z</time></trkpt><trkpt lat="44.8102187" lon="9.8326576"><ele>304.0</ele><time>2026-04-04T14:24:34.957Z</time></trkpt><trkpt lat="44.810295" lon="9.8326179"><ele>304.0</ele><time>2026-04-04T14:24:35.938Z</time></trkpt><trkpt lat="44.8103858" lon="9.8326454"><ele>304.0</ele><time>2026-04-04T14:24:36.93Z</time></trkpt><trkpt lat="44.8104464" lon="9.8327648"><ele>304.0</ele><time>2026-04-04T14:24:37.951Z</time></trkpt><trkpt lat="44.8104752" lon="9.8329161"><ele>304.0</ele><time>2026-04-04T14:24:38.929Z</time></trkpt><trkpt lat="44.810457" lon="9.8330513"><ele>304.0</ele><time>2026-04-04T14:24:39.952Z</time></trkpt><trkpt lat="44.810482" lon="9.8331606"><ele>304.0</ele><time>2026-04-04T14:24:40.925Z</time></trkpt><trkpt lat="44.8105693" lon="9.8332134"><ele>304.0</ele><time>2026-04-04T14:24:41.921Z</time></trkpt><trkpt lat="44.8106469" lon="9.8331786"><ele>304.0</ele><time>2026-04-04T14:24:42.959Z</time></trkpt><trkpt lat="44.8107053" lon="9.8330954"><ele>304.0</ele><time>2026-04-04T14:24:43.885Z</time></trkpt><trkpt lat="44.8107804" lon="9.8329663"><ele>304.0</ele><time>2026-04-04T14:24:44.947Z</time></trkpt><trkpt lat="44.8108872" lon="9.83289"><ele>302.0</ele><time>2026-04-04T14:24:45.927Z</time></trkpt><trkpt lat="44.8110434" lon="9.8328741"><ele>300.0</ele><time>2026-04-04T14:24:46.93Z</time></trkpt><trkpt lat="44.8112192" lon="9.8329093"><ele>298.0</ele><time>2026-04-04T14:24:47.922Z</time></trkpt><trkpt lat="44.8113933" lon="9.832988"><ele>298.0</ele><time>2026-04-04T14:24:48.899Z</time></trkpt><trkpt lat="44.8115679" lon="9.833092"><ele>298.0</ele><time>2026-04-04T14:24:49.941Z</time></trkpt><trkpt lat="44.8117301" lon="9.8331958"><ele>298.0</ele><time>2026-04-04T14:24:50.937Z</time></trkpt><trkpt lat="44.8119101" lon="9.833271"><ele>294.3333333333333</ele><time>2026-04-04T14:24:51.892Z</time></trkpt><trkpt lat="44.8120882" lon="9.8332901"><ele>290.6666666666667</ele><time>2026-04-04T14:24:52.916Z</time></trkpt><trkpt lat="44.8122736" lon="9.8332745"><ele>287.0</ele><time>2026-04-04T14:24:53.929Z</time></trkpt><trkpt lat="44.8124491" lon="9.8332395"><ele>287.0</ele><time>2026-04-04T14:24:54.896Z</time></trkpt><trkpt lat="44.8126313" lon="9.8332452"><ele>287.0</ele><time>2026-04-04T14:24:55.926Z</time></trkpt><trkpt lat="44.812784" lon="9.833294"><ele>287.0</ele><time>2026-04-04T14:24:56.925Z</time></trkpt><trkpt lat="44.8129414" lon="9.8333828"><ele>285.25</ele><time>2026-04-04T14:24:57.931Z</time></trkpt><trkpt lat="44.8130911" lon="9.8334867"><ele>283.5</ele><time>2026-04-04T14:24:58.901Z</time></trkpt><trkpt lat="44.813223" lon="9.833557"><ele>281.75</ele><time>2026-04-04T14:24:59.918Z</time></trkpt><trkpt lat="44.8133362" lon="9.8335787"><ele>280.0</ele><time>2026-04-04T14:25:00.946Z</time></trkpt><trkpt lat="44.8134269" lon="9.833568"><ele>280.0</ele><time>2026-04-04T14:25:01.926Z</time></trkpt><trkpt lat="44.8134785" lon="9.8335045"><ele>280.0</ele><time>2026-04-04T14:25:02.939Z</time></trkpt><trkpt lat="44.8135102" lon="9.8334054"><ele>280.0</ele><time>2026-04-04T14:25:03.951Z</time></trkpt><trkpt lat="44.8135" lon="9.8332723"><ele>280.0</ele><time>2026-04-04T14:25:04.942Z</time></trkpt><trkpt lat="44.8134216" lon="9.8331787"><ele>280.0</ele><time>2026-04-04T14:25:05.951Z</time></trkpt><trkpt lat="44.8133017" lon="9.8331225"><ele>279.0</ele><time>2026-04-04T14:25:06.929Z</time></trkpt><trkpt lat="44.8131545" lon="9.8331036"><ele>278.0</ele><time>2026-04-04T14:25:07.951Z</time></trkpt><trkpt lat="44.8130056" lon="9.8330636"><ele>277.0</ele><time>2026-04-04T14:25:08.942Z</time></trkpt><trkpt lat="44.8128838" lon="9.832956"><ele>276.0</ele><time>2026-04-04T14:25:09.934Z</time></trkpt><trkpt lat="44.812768" lon="9.8327939"><ele>275.0</ele><time>2026-04-04T14:25:10.904Z</time></trkpt><trkpt lat="44.8126954" lon="9.8326236"><ele>274.0</ele><time>2026-04-04T14:25:11.949Z</time></trkpt><trkpt lat="44.8126417" lon="9.8324539"><ele>273.0</ele><time>2026-04-04T14:25:12.939Z</time></trkpt><trkpt lat="44.8126336" lon="9.83231"><ele>272.0</ele><time>2026-04-04T14:25:13.941Z</time></trkpt><trkpt lat="44.8126591" lon="9.8322046"><ele>270.6</ele><time>2026-04-04T14:25:14.936Z</time></trkpt><trkpt lat="44.8127114" lon="9.8321349"><ele>269.2</ele><time>2026-04-04T14:25:15.885Z</time></trkpt><trkpt lat="44.8128015" lon="9.8321261"><ele>267.8</ele><time>2026-04-04T14:25:16.927Z</time></trkpt><trkpt lat="44.812895" lon="9.8321648"><ele>266.4</ele><time>2026-04-04T14:25:17.931Z</time></trkpt><trkpt lat="44.8129767" lon="9.8322826"><ele>265.0</ele><time>2026-04-04T14:25:18.941Z</time></trkpt><trkpt lat="44.8130805" lon="9.8324418"><ele>265.0</ele><time>2026-04-04T14:25:19.92Z</time></trkpt><trkpt lat="44.8132251" lon="9.8325403"><ele>265.0</ele><time>2026-04-04T14:25:20.949Z</time></trkpt><trkpt lat="44.8133949" lon="9.8326141"><ele>265.0</ele><time>2026-04-04T14:25:21.893Z</time></trkpt><trkpt lat="44.8135795" lon="9.8326703"><ele>264.3333333333333</ele><time>2026-04-04T14:25:22.884Z</time></trkpt><trkpt lat="44.8137528" lon="9.832713"><ele>263.6666666666667</ele><time>2026-04-04T14:25:23.922Z</time></trkpt><trkpt lat="44.8139144" lon="9.8327434"><ele>263.0</ele><time>2026-04-04T14:25:24.939Z</time></trkpt><trkpt lat="44.8140688" lon="9.8327681"><ele>263.0</ele><time>2026-04-04T14:25:25.946Z</time></trkpt><trkpt lat="44.8142289" lon="9.8327925"><ele>263.0</ele><time>2026-04-04T14:25:26.937Z</time></trkpt><trkpt lat="44.8143794" lon="9.8328151"><ele>263.0</ele><time>2026-04-04T14:25:27.943Z</time></trkpt><trkpt lat="44.8145254" lon="9.8328221"><ele>259.75</ele><time>2026-04-04T14:25:28.939Z</time></trkpt><trkpt lat="44.8146638" lon="9.8328198"><ele>256.5</ele><time>2026-04-04T14:25:29.938Z</time></trkpt><trkpt lat="44.8147916" lon="9.8328047"><ele>253.25</ele><time>2026-04-04T14:25:30.932Z</time></trkpt><trkpt lat="44.8148943" lon="9.8328154"><ele>250.0</ele><time>2026-04-04T14:25:31.949Z</time></trkpt><trkpt lat="44.8149851" lon="9.8328763"><ele>249.99999999999997</ele><time>2026-04-04T14:25:32.93Z</time></trkpt><trkpt lat="44.8150588" lon="9.8329803"><ele>250.0</ele><time>2026-04-04T14:25:33.949Z</time></trkpt><trkpt lat="44.8151057" lon="9.8330992"><ele>250.0</ele><time>2026-04-04T14:25:34.932Z</time></trkpt><trkpt lat="44.8151645" lon="9.8331839"><ele>250.0</ele><time>2026-04-04T14:25:35.919Z</time></trkpt><trkpt lat="44.8152331" lon="9.8332312"><ele>249.99999999999997</ele><time>2026-04-04T14:25:36.932Z</time></trkpt><trkpt lat="44.8152997" lon="9.833196"><ele>250.0</ele><time>2026-04-04T14:25:37.927Z</time></trkpt><trkpt lat="44.8153582" lon="9.8331314"><ele>244.75</ele><time>2026-04-04T14:25:38.929Z</time></trkpt><trkpt lat="44.8153577" lon="9.8329982"><ele>239.5</ele><time>2026-04-04T14:25:39.932Z</time></trkpt><trkpt lat="44.8153288" lon="9.8328306"><ele>234.25</ele><time>2026-04-04T14:25:40.93Z</time></trkpt><trkpt lat="44.815256" lon="9.8326599"><ele>229.0</ele><time>2026-04-04T14:25:41.929Z</time></trkpt><trkpt lat="44.815178" lon="9.8325105"><ele>232.25</ele><time>2026-04-04T14:25:42.907Z</time></trkpt><trkpt lat="44.8150834" lon="9.8323612"><ele>235.5</ele><time>2026-04-04T14:25:43.897Z</time></trkpt><trkpt lat="44.8149917" lon="9.8322195"><ele>238.75</ele><time>2026-04-04T14:25:44.939Z</time></trkpt><trkpt lat="44.8149163" lon="9.8320452"><ele>242.0</ele><time>2026-04-04T14:25:45.93Z</time></trkpt><trkpt lat="44.8148607" lon="9.8318591"><ele>240.0</ele><time>2026-04-04T14:25:46.918Z</time></trkpt><trkpt lat="44.8148266" lon="9.8316941"><ele>238.0</ele><time>2026-04-04T14:25:47.956Z</time></trkpt><trkpt lat="44.8147978" lon="9.831529"><ele>236.0</ele><time>2026-04-04T14:25:48.939Z</time></trkpt><trkpt lat="44.814788" lon="9.8313621"><ele>234.0</ele><time>2026-04-04T14:25:49.934Z</time></trkpt><trkpt lat="44.8147699" lon="9.8311993"><ele>234.0</ele><time>2026-04-04T14:25:50.922Z</time></trkpt><trkpt lat="44.8147253" lon="9.8310388"><ele>234.0</ele><time>2026-04-04T14:25:51.948Z</time></trkpt><trkpt lat="44.814654" lon="9.8308927"><ele>234.0</ele><time>2026-04-04T14:25:52.933Z</time></trkpt><trkpt lat="44.8145704" lon="9.8307802"><ele>234.0</ele><time>2026-04-04T14:25:53.946Z</time></trkpt><trkpt lat="44.8145002" lon="9.8307038"><ele>233.0</ele><time>2026-04-04T14:25:54.926Z</time></trkpt><trkpt lat="44.8144412" lon="9.8306111"><ele>232.0</ele><time>2026-04-04T14:25:55.936Z</time></trkpt><trkpt lat="44.8143996" lon="9.830522"><ele>231.0</ele><time>2026-04-04T14:25:56.952Z</time></trkpt><trkpt lat="44.8144138" lon="9.8304275"><ele>230.0</ele><time>2026-04-04T14:25:57.935Z</time></trkpt><trkpt lat="44.8144943" lon="9.830369"><ele>229.0</ele><time>2026-04-04T14:25:58.939Z</time></trkpt><trkpt lat="44.8145969" lon="9.8303517"><ele>228.0</ele><time>2026-04-04T14:25:59.906Z</time></trkpt><trkpt lat="44.8147225" lon="9.830419"><ele>228.0</ele><time>2026-04-04T14:26:00.939Z</time></trkpt><trkpt lat="44.814846" lon="9.8305069"><ele>228.0</ele><time>2026-04-04T14:26:01.895Z</time></trkpt><trkpt lat="44.8149794" lon="9.8305809"><ele>228.0</ele><time>2026-04-04T14:26:02.906Z</time></trkpt><trkpt lat="44.8151178" lon="9.8306534"><ele>228.0</ele><time>2026-04-04T14:26:03.89Z</time></trkpt><trkpt lat="44.8152637" lon="9.8307512"><ele>226.33333333333331</ele><time>2026-04-04T14:26:04.886Z</time></trkpt><trkpt lat="44.8154069" lon="9.8308765"><ele>224.66666666666666</ele><time>2026-04-04T14:26:05.928Z</time></trkpt><trkpt lat="44.8155397" lon="9.8309968"><ele>223.0</ele><time>2026-04-04T14:26:06.902Z</time></trkpt><trkpt lat="44.8156514" lon="9.8311183"><ele>223.0</ele><time>2026-04-04T14:26:07.875Z</time></trkpt><trkpt lat="44.8157457" lon="9.8312341"><ele>223.0</ele><time>2026-04-04T14:26:08.912Z</time></trkpt><trkpt lat="44.8158131" lon="9.8313766"><ele>223.0</ele><time>2026-04-04T14:26:09.947Z</time></trkpt><trkpt lat="44.8158431" lon="9.8315237"><ele>223.0</ele><time>2026-04-04T14:26:10.883Z</time></trkpt><trkpt lat="44.8158404" lon="9.8317015"><ele>223.5</ele><time>2026-04-04T14:26:11.902Z</time></trkpt><trkpt lat="44.8158412" lon="9.8318627"><ele>224.0</ele><time>2026-04-04T14:26:12.923Z</time></trkpt><trkpt lat="44.8158766" lon="9.8320328"><ele>224.5</ele><time>2026-04-04T14:26:13.936Z</time></trkpt><trkpt lat="44.8159693" lon="9.8321826"><ele>225.0</ele><time>2026-04-04T14:26:14.946Z</time></trkpt><trkpt lat="44.8160857" lon="9.8323356"><ele>222.5</ele><time>2026-04-04T14:26:15.937Z</time></trkpt><trkpt lat="44.8161866" lon="9.8324955"><ele>220.0</ele><time>2026-04-04T14:26:16.951Z</time></trkpt><trkpt lat="44.8162718" lon="9.8326547"><ele>217.5</ele><time>2026-04-04T14:26:17.94Z</time></trkpt><trkpt lat="44.816315" lon="9.8328197"><ele>215.0</ele><time>2026-04-04T14:26:18.922Z</time></trkpt><trkpt lat="44.8163534" lon="9.8329828"><ele>215.0</ele><time>2026-04-04T14:26:19.925Z</time></trkpt><trkpt lat="44.8163623" lon="9.8331578"><ele>215.0</ele><time>2026-04-04T14:26:20.93Z</time></trkpt><trkpt lat="44.8163344" lon="9.8333394"><ele>215.0</ele><time>2026-04-04T14:26:21.921Z</time></trkpt><trkpt lat="44.8163081" lon="9.833516"><ele>215.0</ele><time>2026-04-04T14:26:22.921Z</time></trkpt><trkpt lat="44.8162839" lon="9.8336708"><ele>215.6</ele><time>2026-04-04T14:26:23.949Z</time></trkpt><trkpt lat="44.8162717" lon="9.8338047"><ele>216.2</ele><time>2026-04-04T14:26:24.923Z</time></trkpt><trkpt lat="44.8163006" lon="9.8339238"><ele>216.8</ele><time>2026-04-04T14:26:25.935Z</time></trkpt><trkpt lat="44.8163733" lon="9.8339805"><ele>217.4</ele><time>2026-04-04T14:26:26.95Z</time></trkpt><trkpt lat="44.8164599" lon="9.8339998"><ele>218.0</ele><time>2026-04-04T14:26:27.93Z</time></trkpt><trkpt lat="44.8165488" lon="9.833943"><ele>218.0</ele><time>2026-04-04T14:26:28.927Z</time></trkpt><trkpt lat="44.8166408" lon="9.8338367"><ele>218.0</ele><time>2026-04-04T14:26:29.952Z</time></trkpt><trkpt lat="44.8167344" lon="9.8337134"><ele>218.0</ele><time>2026-04-04T14:26:30.932Z</time></trkpt><trkpt lat="44.8168315" lon="9.8336134"><ele>218.0</ele><time>2026-04-04T14:26:31.935Z</time></trkpt><trkpt lat="44.8169454" lon="9.8335787"><ele>218.0</ele><time>2026-04-04T14:26:32.936Z</time></trkpt><trkpt lat="44.817058" lon="9.8336053"><ele>218.0</ele><time>2026-04-04T14:26:33.944Z</time></trkpt><trkpt lat="44.8171746" lon="9.8336848"><ele>218.0</ele><time>2026-04-04T14:26:34.939Z</time></trkpt><trkpt lat="44.8173143" lon="9.8338051"><ele>218.0</ele><time>2026-04-04T14:26:35.94Z</time></trkpt><trkpt lat="44.8174602" lon="9.8339217"><ele>218.0</ele><time>2026-04-04T14:26:36.938Z</time></trkpt><trkpt lat="44.8176032" lon="9.8340268"><ele>218.0</ele><time>2026-04-04T14:26:37.937Z</time></trkpt><trkpt lat="44.8177431" lon="9.8341335"><ele>218.0</ele><time>2026-04-04T14:26:38.934Z</time></trkpt><trkpt lat="44.8178727" lon="9.8342292"><ele>217.25</ele><time>2026-04-04T14:26:39.933Z</time></trkpt><trkpt lat="44.8180002" lon="9.8342586"><ele>216.5</ele><time>2026-04-04T14:26:40.92Z</time></trkpt><trkpt lat="44.8181388" lon="9.8342295"><ele>215.75</ele><time>2026-04-04T14:26:41.916Z</time></trkpt><trkpt lat="44.818285" lon="9.8341492"><ele>215.0</ele><time>2026-04-04T14:26:42.916Z</time></trkpt><trkpt lat="44.8184091" lon="9.8340428"><ele>214.0</ele><time>2026-04-04T14:26:43.928Z</time></trkpt><trkpt lat="44.8185273" lon="9.8339138"><ele>213.0</ele><time>2026-04-04T14:26:44.929Z</time></trkpt><trkpt lat="44.8186283" lon="9.833781"><ele>212.0</ele><time>2026-04-04T14:26:45.944Z</time></trkpt><trkpt lat="44.8187147" lon="9.8336511"><ele>211.0</ele><time>2026-04-04T14:26:46.931Z</time></trkpt><trkpt lat="44.818783" lon="9.833531"><ele>210.5</ele><time>2026-04-04T14:26:47.937Z</time></trkpt><trkpt lat="44.8188561" lon="9.8334097"><ele>210.0</ele><time>2026-04-04T14:26:48.93Z</time></trkpt><trkpt lat="44.818943" lon="9.8332818"><ele>209.5</ele><time>2026-04-04T14:26:49.939Z</time></trkpt><trkpt lat="44.8190308" lon="9.8331455"><ele>209.0</ele><time>2026-04-04T14:26:50.894Z</time></trkpt><trkpt lat="44.8191194" lon="9.8330124"><ele>209.0</ele><time>2026-04-04T14:26:51.935Z</time></trkpt><trkpt lat="44.8192113" lon="9.8328824"><ele>209.0</ele><time>2026-04-04T14:26:52.931Z</time></trkpt><trkpt lat="44.8193007" lon="9.8327462"><ele>209.0</ele><time>2026-04-04T14:26:53.951Z</time></trkpt><trkpt lat="44.8193818" lon="9.8326026"><ele>209.0</ele><time>2026-04-04T14:26:54.939Z</time></trkpt><trkpt lat="44.8194748" lon="9.8324559"><ele>208.33333333333334</ele><time>2026-04-04T14:26:55.927Z</time></trkpt><trkpt lat="44.8195798" lon="9.8322997"><ele>207.66666666666669</ele><time>2026-04-04T14:26:56.921Z</time></trkpt><trkpt lat="44.8196927" lon="9.8321379"><ele>207.0</ele><time>2026-04-04T14:26:57.933Z</time></trkpt><trkpt lat="44.8198258" lon="9.8319453"><ele>207.0</ele><time>2026-04-04T14:26:58.972Z</time></trkpt><trkpt lat="44.8199675" lon="9.8317417"><ele>207.0</ele><time>2026-04-04T14:26:59.926Z</time></trkpt><trkpt lat="44.8201051" lon="9.8315356"><ele>207.0</ele><time>2026-04-04T14:27:00.891Z</time></trkpt><trkpt lat="44.8203657" lon="9.8311608"><ele>206.75</ele><time>2026-04-04T14:27:02.93Z</time></trkpt><trkpt lat="44.8204775" lon="9.8309948"><ele>206.5</ele><time>2026-04-04T14:27:03.904Z</time></trkpt><trkpt lat="44.820583" lon="9.8308403"><ele>206.25</ele><time>2026-04-04T14:27:04.907Z</time></trkpt><trkpt lat="44.8206693" lon="9.8307127"><ele>206.0</ele><time>2026-04-04T14:27:05.945Z</time></trkpt><trkpt lat="44.8207298" lon="9.8306274"><ele>207.60000000000002</ele><time>2026-04-04T14:27:06.943Z</time></trkpt><trkpt lat="44.8208102" lon="9.8305551"><ele>209.2</ele><time>2026-04-04T14:27:08.934Z</time></trkpt><trkpt lat="44.8208729" lon="9.830496"><ele>210.79999999999998</ele><time>2026-04-04T14:27:10.946Z</time></trkpt><trkpt lat="44.8207623" lon="9.8305246"><ele>212.39999999999998</ele><time>2026-04-04T14:27:23.918Z</time></trkpt><trkpt lat="44.8207042" lon="9.8306133"><ele>214.0</ele><time>2026-04-04T14:27:24.9Z</time></trkpt><trkpt lat="44.8206122" lon="9.8307347"><ele>214.0</ele><time>2026-04-04T14:27:25.933Z</time></trkpt><trkpt lat="44.8205153" lon="9.8308557"><ele>214.0</ele><time>2026-04-04T14:27:26.939Z</time></trkpt><trkpt lat="44.8204216" lon="9.8309901"><ele>214.0</ele><time>2026-04-04T14:27:27.904Z</time></trkpt><trkpt lat="44.8203348" lon="9.8311336"><ele>214.0</ele><time>2026-04-04T14:27:28.935Z</time></trkpt><trkpt lat="44.8202569" lon="9.8312657"><ele>212.25</ele><time>2026-04-04T14:27:29.917Z</time></trkpt><trkpt lat="44.8201718" lon="9.8313962"><ele>210.5</ele><time>2026-04-04T14:27:30.931Z</time></trkpt><trkpt lat="44.8200853" lon="9.8315365"><ele>208.75</ele><time>2026-04-04T14:27:31.914Z</time></trkpt><trkpt lat="44.8199939" lon="9.8316723"><ele>207.0</ele><time>2026-04-04T14:27:32.913Z</time></trkpt><trkpt lat="44.8199032" lon="9.8318084"><ele>207.0</ele><time>2026-04-04T14:27:33.93Z</time></trkpt><trkpt lat="44.8198128" lon="9.8319511"><ele>207.0</ele><time>2026-04-04T14:27:34.913Z</time></trkpt><trkpt lat="44.8197137" lon="9.8320966"><ele>207.0</ele><time>2026-04-04T14:27:35.925Z</time></trkpt><trkpt lat="44.8196175" lon="9.8322466"><ele>207.0</ele><time>2026-04-04T14:27:36.933Z</time></trkpt><trkpt lat="44.8195266" lon="9.8323889"><ele>207.0</ele><time>2026-04-04T14:27:37.952Z</time></trkpt><trkpt lat="44.8194315" lon="9.8325279"><ele>207.0</ele><time>2026-04-04T14:27:38.913Z</time></trkpt><trkpt lat="44.8193448" lon="9.8326641"><ele>207.0</ele><time>2026-04-04T14:27:39.932Z</time></trkpt><trkpt lat="44.8192565" lon="9.8327961"><ele>207.0</ele><time>2026-04-04T14:27:40.911Z</time></trkpt><trkpt lat="44.8191736" lon="9.8329334"><ele>207.39999999999998</ele><time>2026-04-04T14:27:41.938Z</time></trkpt><trkpt lat="44.819089" lon="9.833055"><ele>207.79999999999998</ele><time>2026-04-04T14:27:42.946Z</time></trkpt><trkpt lat="44.8190211" lon="9.833168"><ele>208.2</ele><time>2026-04-04T14:27:43.932Z</time></trkpt><trkpt lat="44.8189532" lon="9.833272"><ele>208.6</ele><time>2026-04-04T14:27:44.938Z</time></trkpt><trkpt lat="44.8188923" lon="9.8333604"><ele>209.0</ele><time>2026-04-04T14:27:45.925Z</time></trkpt><trkpt lat="44.8188268" lon="9.8334284"><ele>209.00000000000003</ele><time>2026-04-04T14:27:46.946Z</time></trkpt><trkpt lat="44.8187538" lon="9.8334644"><ele>209.0</ele><time>2026-04-04T14:27:47.932Z</time></trkpt><trkpt lat="44.8186694" lon="9.8334533"><ele>209.0</ele><time>2026-04-04T14:27:48.941Z</time></trkpt><trkpt lat="44.8185855" lon="9.8333998"><ele>209.0</ele><time>2026-04-04T14:27:49.936Z</time></trkpt><trkpt lat="44.8185205" lon="9.8333284"><ele>209.00000000000003</ele><time>2026-04-04T14:27:50.944Z</time></trkpt><trkpt lat="44.8184588" lon="9.833246"><ele>209.0</ele><time>2026-04-04T14:27:51.942Z</time></trkpt><trkpt lat="44.8184234" lon="9.8331588"><ele>209.00000000000003</ele><time>2026-04-04T14:27:52.912Z</time></trkpt><trkpt lat="44.8184113" lon="9.8330708"><ele>209.0</ele><time>2026-04-04T14:27:53.956Z</time></trkpt><trkpt lat="44.8184365" lon="9.8329691"><ele>209.0</ele><time>2026-04-04T14:27:54.918Z</time></trkpt><trkpt lat="44.8184945" lon="9.8328779"><ele>209.0</ele><time>2026-04-04T14:27:55.963Z</time></trkpt><trkpt lat="44.8185645" lon="9.8327773"><ele>209.00000000000003</ele><time>2026-04-04T14:27:56.959Z</time></trkpt><trkpt lat="44.8186429" lon="9.832684"><ele>209.0</ele><time>2026-04-04T14:27:57.956Z</time></trkpt><trkpt lat="44.8187428" lon="9.8326154"><ele>209.5</ele><time>2026-04-04T14:27:58.943Z</time></trkpt><trkpt lat="44.8188742" lon="9.8326003"><ele>210.0</ele><time>2026-04-04T14:27:59.941Z</time></trkpt><trkpt lat="44.8190128" lon="9.8325895"><ele>210.5</ele><time>2026-04-04T14:28:00.934Z</time></trkpt><trkpt lat="44.8191574" lon="9.8325809"><ele>211.0</ele><time>2026-04-04T14:28:01.909Z</time></trkpt><trkpt lat="44.8192936" lon="9.8325714"><ele>210.25</ele><time>2026-04-04T14:28:02.917Z</time></trkpt><trkpt lat="44.8194414" lon="9.8325633"><ele>209.5</ele><time>2026-04-04T14:28:03.901Z</time></trkpt><trkpt lat="44.8195883" lon="9.8325774"><ele>208.75</ele><time>2026-04-04T14:28:04.937Z</time></trkpt><trkpt lat="44.8197352" lon="9.8326267"><ele>208.0</ele><time>2026-04-04T14:28:05.949Z</time></trkpt><trkpt lat="44.8198722" lon="9.8327006"><ele>208.0</ele><time>2026-04-04T14:28:06.924Z</time></trkpt><trkpt lat="44.8200141" lon="9.8328171"><ele>208.0</ele><time>2026-04-04T14:28:07.93Z</time></trkpt><trkpt lat="44.8201539" lon="9.832967"><ele>208.0</ele><time>2026-04-04T14:28:08.918Z</time></trkpt><trkpt lat="44.8202882" lon="9.833146"><ele>207.33333333333331</ele><time>2026-04-04T14:28:09.954Z</time></trkpt><trkpt lat="44.8204296" lon="9.8333268"><ele>206.66666666666669</ele><time>2026-04-04T14:28:10.944Z</time></trkpt><trkpt lat="44.8205739" lon="9.8335124"><ele>206.0</ele><time>2026-04-04T14:28:11.921Z</time></trkpt><trkpt lat="44.8207201" lon="9.8337029"><ele>206.0</ele><time>2026-04-04T14:28:12.962Z</time></trkpt><trkpt lat="44.8208675" lon="9.8338951"><ele>206.0</ele><time>2026-04-04T14:28:13.95Z</time></trkpt><trkpt lat="44.8210162" lon="9.834089"><ele>206.0</ele><time>2026-04-04T14:28:14.923Z</time></trkpt><trkpt lat="44.8211668" lon="9.8342894"><ele>205.66666666666669</ele><time>2026-04-04T14:28:15.944Z</time></trkpt><trkpt lat="44.8213164" lon="9.8344917"><ele>205.33333333333331</ele><time>2026-04-04T14:28:16.926Z</time></trkpt><trkpt lat="44.8214716" lon="9.8346939"><ele>205.0</ele><time>2026-04-04T14:28:17.948Z</time></trkpt><trkpt lat="44.8216263" lon="9.8349048"><ele>205.0</ele><time>2026-04-04T14:28:18.947Z</time></trkpt><trkpt lat="44.82178" lon="9.8351181"><ele>205.0</ele><time>2026-04-04T14:28:19.912Z</time></trkpt><trkpt lat="44.8219339" lon="9.8353258"><ele>205.0</ele><time>2026-04-04T14:28:20.917Z</time></trkpt><trkpt lat="44.8220886" lon="9.8355383"><ele>203.66666666666666</ele><time>2026-04-04T14:28:21.934Z</time></trkpt><trkpt lat="44.8222451" lon="9.8357428"><ele>202.33333333333331</ele><time>2026-04-04T14:28:22.93Z</time></trkpt><trkpt lat="44.8224038" lon="9.8359519"><ele>201.0</ele><time>2026-04-04T14:28:23.943Z</time></trkpt><trkpt lat="44.822561" lon="9.8361564"><ele>201.0</ele><time>2026-04-04T14:28:24.936Z</time></trkpt><trkpt lat="44.8227201" lon="9.8363616"><ele>201.0</ele><time>2026-04-04T14:28:25.94Z</time></trkpt><trkpt lat="44.8228783" lon="9.8365686"><ele>201.0</ele><time>2026-04-04T14:28:26.949Z</time></trkpt><trkpt lat="44.8230319" lon="9.8367756"><ele>201.0</ele><time>2026-04-04T14:28:27.934Z</time></trkpt><trkpt lat="44.8231874" lon="9.8369761"><ele>201.0</ele><time>2026-04-04T14:28:28.886Z</time></trkpt><trkpt lat="44.8233364" lon="9.8371829"><ele>201.0</ele><time>2026-04-04T14:28:29.943Z</time></trkpt><trkpt lat="44.8234881" lon="9.8373908"><ele>201.0</ele><time>2026-04-04T14:28:30.93Z</time></trkpt><trkpt lat="44.8236421" lon="9.8375983"><ele>201.0</ele><time>2026-04-04T14:28:31.954Z</time></trkpt><trkpt lat="44.8237907" lon="9.8378071"><ele>201.0</ele><time>2026-04-04T14:28:32.948Z</time></trkpt><trkpt lat="44.8239383" lon="9.8380234"><ele>201.66666666666669</ele><time>2026-04-04T14:28:33.947Z</time></trkpt><trkpt lat="44.8240874" lon="9.8382406"><ele>202.33333333333334</ele><time>2026-04-04T14:28:34.925Z</time></trkpt><trkpt lat="44.8242382" lon="9.8384512"><ele>203.0</ele><time>2026-04-04T14:28:35.948Z</time></trkpt><trkpt lat="44.8243902" lon="9.8386676"><ele>204.0</ele><time>2026-04-04T14:28:36.939Z</time></trkpt><trkpt lat="44.8245477" lon="9.8388932"><ele>205.0</ele><time>2026-04-04T14:28:37.955Z</time></trkpt><trkpt lat="44.8247103" lon="9.8391218"><ele>203.0</ele><time>2026-04-04T14:28:38.923Z</time></trkpt><trkpt lat="44.8248794" lon="9.8393625"><ele>201.0</ele><time>2026-04-04T14:28:39.939Z</time></trkpt><trkpt lat="44.8250565" lon="9.8395966"><ele>200.5</ele><time>2026-04-04T14:28:40.921Z</time></trkpt><trkpt lat="44.825235" lon="9.8398346"><ele>200.0</ele><time>2026-04-04T14:28:41.905Z</time></trkpt><trkpt lat="44.8254177" lon="9.8400692"><ele>200.0</ele><time>2026-04-04T14:28:42.916Z</time></trkpt><trkpt lat="44.8256066" lon="9.8402853"><ele>200.0</ele><time>2026-04-04T14:28:43.937Z</time></trkpt><trkpt lat="44.8258023" lon="9.8404935"><ele>199.0</ele><time>2026-04-04T14:28:44.952Z</time></trkpt><trkpt lat="44.825994" lon="9.8406945"><ele>198.0</ele><time>2026-04-04T14:28:45.921Z</time></trkpt><trkpt lat="44.8261836" lon="9.8408884"><ele>198.0</ele><time>2026-04-04T14:28:46.936Z</time></trkpt><trkpt lat="44.8263691" lon="9.8410831"><ele>198.0</ele><time>2026-04-04T14:28:47.956Z</time></trkpt><trkpt lat="44.8265515" lon="9.8412674"><ele>198.0</ele><time>2026-04-04T14:28:48.884Z</time></trkpt><trkpt lat="44.8267279" lon="9.8414451"><ele>198.0</ele><time>2026-04-04T14:28:49.925Z</time></trkpt><trkpt lat="44.8269124" lon="9.8416014"><ele>198.0</ele><time>2026-04-04T14:28:50.931Z</time></trkpt><trkpt lat="44.8271079" lon="9.8417359"><ele>198.0</ele><time>2026-04-04T14:28:51.946Z</time></trkpt><trkpt lat="44.8273126" lon="9.8418541"><ele>198.0</ele><time>2026-04-04T14:28:52.904Z</time></trkpt><trkpt lat="44.8275234" lon="9.8419214"><ele>198.0</ele><time>2026-04-04T14:28:53.946Z</time></trkpt><trkpt lat="44.8277357" lon="9.8419669"><ele>198.0</ele><time>2026-04-04T14:28:54.935Z</time></trkpt><trkpt lat="44.8279489" lon="9.8419574"><ele>198.0</ele><time>2026-04-04T14:28:55.92Z</time></trkpt><trkpt lat="44.8281421" lon="9.841927"><ele>198.0</ele><time>2026-04-04T14:28:56.931Z</time></trkpt><trkpt lat="44.8283413" lon="9.841866"><ele>195.66666666666666</ele><time>2026-04-04T14:28:57.922Z</time></trkpt><trkpt lat="44.8285444" lon="9.8417749"><ele>193.33333333333331</ele><time>2026-04-04T14:28:58.896Z</time></trkpt><trkpt lat="44.8287556" lon="9.8416629"><ele>191.0</ele><time>2026-04-04T14:28:59.926Z</time></trkpt><trkpt lat="44.8289659" lon="9.8415513"><ele>191.0</ele><time>2026-04-04T14:29:00.906Z</time></trkpt><trkpt lat="44.8291799" lon="9.8414259"><ele>191.0</ele><time>2026-04-04T14:29:01.919Z</time></trkpt><trkpt lat="44.8293963" lon="9.8413012"><ele>192.0</ele><time>2026-04-04T14:29:02.945Z</time></trkpt><trkpt lat="44.8296113" lon="9.8411833"><ele>193.0</ele><time>2026-04-04T14:29:03.947Z</time></trkpt><trkpt lat="44.8298173" lon="9.84106"><ele>193.0</ele><time>2026-04-04T14:29:04.919Z</time></trkpt><trkpt lat="44.830018" lon="9.8409373"><ele>193.0</ele><time>2026-04-04T14:29:05.944Z</time></trkpt><trkpt lat="44.8302143" lon="9.8408256"><ele>193.0</ele><time>2026-04-04T14:29:06.932Z</time></trkpt><trkpt lat="44.8304007" lon="9.8407171"><ele>193.0</ele><time>2026-04-04T14:29:07.941Z</time></trkpt><trkpt lat="44.8305792" lon="9.8406127"><ele>193.0</ele><time>2026-04-04T14:29:08.945Z</time></trkpt><trkpt lat="44.8307537" lon="9.840507"><ele>193.0</ele><time>2026-04-04T14:29:09.935Z</time></trkpt><trkpt lat="44.8309114" lon="9.8403873"><ele>193.0</ele><time>2026-04-04T14:29:10.942Z</time></trkpt><trkpt lat="44.8310652" lon="9.8402418"><ele>193.0</ele><time>2026-04-04T14:29:11.886Z</time></trkpt><trkpt lat="44.8311952" lon="9.8400826"><ele>193.0</ele><time>2026-04-04T14:29:12.946Z</time></trkpt><trkpt lat="44.8313017" lon="9.8399139"><ele>192.66666666666666</ele><time>2026-04-04T14:29:13.96Z</time></trkpt><trkpt lat="44.8314056" lon="9.8397362"><ele>192.33333333333331</ele><time>2026-04-04T14:29:14.959Z</time></trkpt><trkpt lat="44.8314992" lon="9.8395586"><ele>192.0</ele><time>2026-04-04T14:29:15.931Z</time></trkpt><trkpt lat="44.8315798" lon="9.8394071"><ele>192.2</ele><time>2026-04-04T14:29:16.932Z</time></trkpt><trkpt lat="44.8316583" lon="9.8392788"><ele>192.39999999999998</ele><time>2026-04-04T14:29:17.932Z</time></trkpt><trkpt lat="44.8317343" lon="9.8391828"><ele>192.60000000000002</ele><time>2026-04-04T14:29:18.937Z</time></trkpt><trkpt lat="44.8318055" lon="9.8390877"><ele>192.8</ele><time>2026-04-04T14:29:19.935Z</time></trkpt><trkpt lat="44.8318887" lon="9.83903"><ele>193.0</ele><time>2026-04-04T14:29:20.933Z</time></trkpt><trkpt lat="44.8319731" lon="9.8390338"><ele>193.5</ele><time>2026-04-04T14:29:21.916Z</time></trkpt><trkpt lat="44.8320616" lon="9.8390793"><ele>194.0</ele><time>2026-04-04T14:29:22.94Z</time></trkpt><trkpt lat="44.832151" lon="9.8391452"><ele>194.5</ele><time>2026-04-04T14:29:23.943Z</time></trkpt><trkpt lat="44.8322463" lon="9.8392292"><ele>195.0</ele><time>2026-04-04T14:29:24.929Z</time></trkpt><trkpt lat="44.8323741" lon="9.8393236"><ele>194.66666666666669</ele><time>2026-04-04T14:29:25.931Z</time></trkpt><trkpt lat="44.832521" lon="9.8394224"><ele>194.33333333333334</ele><time>2026-04-04T14:29:26.946Z</time></trkpt><trkpt lat="44.8326913" lon="9.8395423"><ele>194.0</ele><time>2026-04-04T14:29:27.935Z</time></trkpt><trkpt lat="44.8328555" lon="9.8396679"><ele>194.0</ele><time>2026-04-04T14:29:28.95Z</time></trkpt><trkpt lat="44.8330163" lon="9.8398018"><ele>194.0</ele><time>2026-04-04T14:29:29.947Z</time></trkpt><trkpt lat="44.8331696" lon="9.839951"><ele>194.0</ele><time>2026-04-04T14:29:30.935Z</time></trkpt><trkpt lat="44.8333116" lon="9.8401143"><ele>193.33333333333334</ele><time>2026-04-04T14:29:31.932Z</time></trkpt><trkpt lat="44.8334417" lon="9.8403056"><ele>192.66666666666669</ele><time>2026-04-04T14:29:32.956Z</time></trkpt><trkpt lat="44.8335736" lon="9.8404954"><ele>192.0</ele><time>2026-04-04T14:29:33.919Z</time></trkpt><trkpt lat="44.8337047" lon="9.8406795"><ele>191.33333333333334</ele><time>2026-04-04T14:29:34.932Z</time></trkpt><trkpt lat="44.8338353" lon="9.8408569"><ele>190.66666666666669</ele><time>2026-04-04T14:29:35.889Z</time></trkpt><trkpt lat="44.833967" lon="9.8410438"><ele>190.0</ele><time>2026-04-04T14:29:36.926Z</time></trkpt><trkpt lat="44.8340984" lon="9.8412287"><ele>190.0</ele><time>2026-04-04T14:29:37.931Z</time></trkpt><trkpt lat="44.8342308" lon="9.8414157"><ele>190.0</ele><time>2026-04-04T14:29:38.938Z</time></trkpt><trkpt lat="44.8343667" lon="9.8416046"><ele>190.0</ele><time>2026-04-04T14:29:39.943Z</time></trkpt><trkpt lat="44.8345" lon="9.8417993"><ele>191.0</ele><time>2026-04-04T14:29:40.917Z</time></trkpt><trkpt lat="44.8346352" lon="9.8419885"><ele>192.0</ele><time>2026-04-04T14:29:41.931Z</time></trkpt><trkpt lat="44.8347707" lon="9.8421802"><ele>193.0</ele><time>2026-04-04T14:29:42.877Z</time></trkpt><trkpt lat="44.8349099" lon="9.8423766"><ele>193.0</ele><time>2026-04-04T14:29:43.916Z</time></trkpt><trkpt lat="44.8350577" lon="9.8425822"><ele>193.0</ele><time>2026-04-04T14:29:44.891Z</time></trkpt><trkpt lat="44.835217" lon="9.8428024"><ele>193.0</ele><time>2026-04-04T14:29:45.935Z</time></trkpt><trkpt lat="44.8353925" lon="9.8430354"><ele>193.0</ele><time>2026-04-04T14:29:46.943Z</time></trkpt><trkpt lat="44.8355717" lon="9.8432945"><ele>193.0</ele><time>2026-04-04T14:29:47.882Z</time></trkpt><trkpt lat="44.8357489" lon="9.8435667"><ele>191.5</ele><time>2026-04-04T14:29:48.925Z</time></trkpt><trkpt lat="44.8359339" lon="9.8438284"><ele>190.0</ele><time>2026-04-04T14:29:49.919Z</time></trkpt><trkpt lat="44.8361232" lon="9.8440854"><ele>188.5</ele><time>2026-04-04T14:29:50.921Z</time></trkpt><trkpt lat="44.8363068" lon="9.8443478"><ele>187.0</ele><time>2026-04-04T14:29:51.939Z</time></trkpt><trkpt lat="44.8364877" lon="9.8446055"><ele>187.0</ele><time>2026-04-04T14:29:52.925Z</time></trkpt><trkpt lat="44.8366679" lon="9.8448619"><ele>187.0</ele><time>2026-04-04T14:29:53.932Z</time></trkpt><trkpt lat="44.8368501" lon="9.8451084"><ele>189.5</ele><time>2026-04-04T14:29:54.922Z</time></trkpt><trkpt lat="44.8370299" lon="9.845353"><ele>192.0</ele><time>2026-04-04T14:29:55.95Z</time></trkpt><trkpt lat="44.8372047" lon="9.845601"><ele>192.0</ele><time>2026-04-04T14:29:56.93Z</time></trkpt><trkpt lat="44.837373" lon="9.845846"><ele>192.0</ele><time>2026-04-04T14:29:57.932Z</time></trkpt><trkpt lat="44.8375455" lon="9.8460941"><ele>192.0</ele><time>2026-04-04T14:29:58.928Z</time></trkpt><trkpt lat="44.837711" lon="9.8463441"><ele>192.0</ele><time>2026-04-04T14:29:59.935Z</time></trkpt><trkpt lat="44.8378736" lon="9.8466056"><ele>190.5</ele><time>2026-04-04T14:30:00.935Z</time></trkpt><trkpt lat="44.8380331" lon="9.8468708"><ele>189.0</ele><time>2026-04-04T14:30:01.909Z</time></trkpt><trkpt lat="44.8381929" lon="9.8471355"><ele>189.0</ele><time>2026-04-04T14:30:02.942Z</time></trkpt><trkpt lat="44.8383542" lon="9.8474043"><ele>189.0</ele><time>2026-04-04T14:30:03.932Z</time></trkpt><trkpt lat="44.8385117" lon="9.8476788"><ele>191.5</ele><time>2026-04-04T14:30:04.922Z</time></trkpt><trkpt lat="44.8386663" lon="9.8479548"><ele>194.0</ele><time>2026-04-04T14:30:05.93Z</time></trkpt><trkpt lat="44.8388158" lon="9.8482399"><ele>189.0</ele><time>2026-04-04T14:30:06.924Z</time></trkpt><trkpt lat="44.8389621" lon="9.8485256"><ele>184.0</ele><time>2026-04-04T14:30:07.95Z</time></trkpt><trkpt lat="44.8391035" lon="9.8488024"><ele>184.0</ele><time>2026-04-04T14:30:08.934Z</time></trkpt><trkpt lat="44.8392377" lon="9.8490806"><ele>184.0</ele><time>2026-04-04T14:30:09.937Z</time></trkpt><trkpt lat="44.8393748" lon="9.8493643"><ele>188.0</ele><time>2026-04-04T14:30:10.92Z</time></trkpt><trkpt lat="44.8395095" lon="9.8496576"><ele>192.0</ele><time>2026-04-04T14:30:11.941Z</time></trkpt><trkpt lat="44.8396436" lon="9.8499527"><ele>189.5</ele><time>2026-04-04T14:30:12.878Z</time></trkpt><trkpt lat="44.839773" lon="9.8502482"><ele>187.0</ele><time>2026-04-04T14:30:13.919Z</time></trkpt><trkpt lat="44.8399024" lon="9.8505471"><ele>187.0</ele><time>2026-04-04T14:30:14.922Z</time></trkpt><trkpt lat="44.8400289" lon="9.8508449"><ele>187.0</ele><time>2026-04-04T14:30:15.923Z</time></trkpt><trkpt lat="44.8401504" lon="9.8511476"><ele>192.5</ele><time>2026-04-04T14:30:16.921Z</time></trkpt><trkpt lat="44.8402701" lon="9.8514505"><ele>198.0</ele><time>2026-04-04T14:30:17.926Z</time></trkpt><trkpt lat="44.8403789" lon="9.8517603"><ele>192.0</ele><time>2026-04-04T14:30:18.922Z</time></trkpt><trkpt lat="44.840486" lon="9.8520669"><ele>186.0</ele><time>2026-04-04T14:30:19.92Z</time></trkpt><trkpt lat="44.8406038" lon="9.8523648"><ele>182.0</ele><time>2026-04-04T14:30:20.922Z</time></trkpt><trkpt lat="44.8407433" lon="9.8526452"><ele>178.0</ele><time>2026-04-04T14:30:21.942Z</time></trkpt><trkpt lat="44.8408953" lon="9.8529057"><ele>178.0</ele><time>2026-04-04T14:30:22.904Z</time></trkpt><trkpt lat="44.8410695" lon="9.8531429"><ele>178.0</ele><time>2026-04-04T14:30:23.926Z</time></trkpt><trkpt lat="44.8412512" lon="9.8533827"><ele>176.5</ele><time>2026-04-04T14:30:24.928Z</time></trkpt><trkpt lat="44.8414341" lon="9.8536167"><ele>175.0</ele><time>2026-04-04T14:30:25.895Z</time></trkpt><trkpt lat="44.8416152" lon="9.8538509"><ele>175.0</ele><time>2026-04-04T14:30:26.922Z</time></trkpt><trkpt lat="44.8417964" lon="9.8540861"><ele>175.0</ele><time>2026-04-04T14:30:27.934Z</time></trkpt><trkpt lat="44.8419742" lon="9.8543155"><ele>175.0</ele><time>2026-04-04T14:30:28.907Z</time></trkpt><trkpt lat="44.8421574" lon="9.8545457"><ele>175.0</ele><time>2026-04-04T14:30:29.953Z</time></trkpt><trkpt lat="44.8423332" lon="9.8547765"><ele>175.0</ele><time>2026-04-04T14:30:30.913Z</time></trkpt><trkpt lat="44.8425115" lon="9.8550115"><ele>175.0</ele><time>2026-04-04T14:30:31.943Z</time></trkpt><trkpt lat="44.8426834" lon="9.8552419"><ele>176.0</ele><time>2026-04-04T14:30:32.891Z</time></trkpt><trkpt lat="44.8428562" lon="9.8554651"><ele>177.0</ele><time>2026-04-04T14:30:33.903Z</time></trkpt><trkpt lat="44.8430284" lon="9.8556898"><ele>177.0</ele><time>2026-04-04T14:30:34.916Z</time></trkpt><trkpt lat="44.8431972" lon="9.8559102"><ele>177.0</ele><time>2026-04-04T14:30:35.945Z</time></trkpt><trkpt lat="44.843363" lon="9.8561322"><ele>179.33333333333334</ele><time>2026-04-04T14:30:36.918Z</time></trkpt><trkpt lat="44.8435279" lon="9.8563476"><ele>181.66666666666669</ele><time>2026-04-04T14:30:37.876Z</time></trkpt><trkpt lat="44.8436938" lon="9.8565577"><ele>184.0</ele><time>2026-04-04T14:30:38.882Z</time></trkpt><trkpt lat="44.8438599" lon="9.8567697"><ele>186.66666666666669</ele><time>2026-04-04T14:30:39.924Z</time></trkpt><trkpt lat="44.8440204" lon="9.856982"><ele>189.33333333333334</ele><time>2026-04-04T14:30:40.914Z</time></trkpt><trkpt lat="44.8441772" lon="9.857189"><ele>192.0</ele><time>2026-04-04T14:30:41.905Z</time></trkpt><trkpt lat="44.8443311" lon="9.8573868"><ele>192.0</ele><time>2026-04-04T14:30:42.892Z</time></trkpt><trkpt lat="44.8444731" lon="9.8575838"><ele>192.0</ele><time>2026-04-04T14:30:43.912Z</time></trkpt><trkpt lat="44.8446131" lon="9.8577821"><ele>192.0</ele><time>2026-04-04T14:30:44.909Z</time></trkpt><trkpt lat="44.8447508" lon="9.8579719"><ele>188.33333333333334</ele><time>2026-04-04T14:30:45.917Z</time></trkpt><trkpt lat="44.8448873" lon="9.8581551"><ele>184.66666666666669</ele><time>2026-04-04T14:30:46.909Z</time></trkpt><trkpt lat="44.8450228" lon="9.8583291"><ele>181.0</ele><time>2026-04-04T14:30:47.922Z</time></trkpt><trkpt lat="44.8451544" lon="9.858513"><ele>181.0</ele><time>2026-04-04T14:30:48.92Z</time></trkpt><trkpt lat="44.8452893" lon="9.8586898"><ele>181.0</ele><time>2026-04-04T14:30:49.932Z</time></trkpt><trkpt lat="44.8454199" lon="9.8588678"><ele>181.0</ele><time>2026-04-04T14:30:50.953Z</time></trkpt><trkpt lat="44.8455568" lon="9.8590482"><ele>181.0</ele><time>2026-04-04T14:30:51.899Z</time></trkpt><trkpt lat="44.8456867" lon="9.8592474"><ele>181.0</ele><time>2026-04-04T14:30:52.867Z</time></trkpt><trkpt lat="44.8458123" lon="9.8594376"><ele>181.0</ele><time>2026-04-04T14:30:53.865Z</time></trkpt><trkpt lat="44.8459417" lon="9.8596317"><ele>182.66666666666669</ele><time>2026-04-04T14:30:54.923Z</time></trkpt><trkpt lat="44.8460645" lon="9.859837"><ele>184.33333333333334</ele><time>2026-04-04T14:30:55.894Z</time></trkpt><trkpt lat="44.8461883" lon="9.8600349"><ele>186.0</ele><time>2026-04-04T14:30:56.912Z</time></trkpt><trkpt lat="44.8463095" lon="9.8602289"><ele>181.66666666666666</ele><time>2026-04-04T14:30:57.908Z</time></trkpt><trkpt lat="44.8464298" lon="9.8604129"><ele>177.33333333333331</ele><time>2026-04-04T14:30:58.926Z</time></trkpt><trkpt lat="44.8465546" lon="9.8606001"><ele>173.0</ele><time>2026-04-04T14:30:59.931Z</time></trkpt><trkpt lat="44.8466776" lon="9.8607983"><ele>175.66666666666666</ele><time>2026-04-04T14:31:00.914Z</time></trkpt><trkpt lat="44.8467967" lon="9.8609863"><ele>178.33333333333334</ele><time>2026-04-04T14:31:01.913Z</time></trkpt><trkpt lat="44.8469123" lon="9.8611695"><ele>181.0</ele><time>2026-04-04T14:31:02.905Z</time></trkpt><trkpt lat="44.8470265" lon="9.8613603"><ele>181.0</ele><time>2026-04-04T14:31:03.928Z</time></trkpt><trkpt lat="44.8471435" lon="9.8615548"><ele>181.0</ele><time>2026-04-04T14:31:04.924Z</time></trkpt><trkpt lat="44.8472528" lon="9.8617623"><ele>181.0</ele><time>2026-04-04T14:31:05.91Z</time></trkpt><trkpt lat="44.8473572" lon="9.8619792"><ele>182.66666666666669</ele><time>2026-04-04T14:31:06.926Z</time></trkpt><trkpt lat="44.8474637" lon="9.8622127"><ele>184.33333333333334</ele><time>2026-04-04T14:31:07.918Z</time></trkpt><trkpt lat="44.8475721" lon="9.8624572"><ele>186.0</ele><time>2026-04-04T14:31:08.915Z</time></trkpt><trkpt lat="44.847687" lon="9.8627194"><ele>186.0</ele><time>2026-04-04T14:31:09.923Z</time></trkpt><trkpt lat="44.8478127" lon="9.8630042"><ele>186.0</ele><time>2026-04-04T14:31:10.917Z</time></trkpt><trkpt lat="44.8479353" lon="9.8632946"><ele>180.5</ele><time>2026-04-04T14:31:11.896Z</time></trkpt><trkpt lat="44.8480592" lon="9.8635848"><ele>175.0</ele><time>2026-04-04T14:31:12.894Z</time></trkpt><trkpt lat="44.8481753" lon="9.8638775"><ele>175.0</ele><time>2026-04-04T14:31:13.909Z</time></trkpt><trkpt lat="44.8482961" lon="9.8641625"><ele>175.0</ele><time>2026-04-04T14:31:14.924Z</time></trkpt><trkpt lat="44.8484071" lon="9.8644339"><ele>177.33333333333334</ele><time>2026-04-04T14:31:15.917Z</time></trkpt><trkpt lat="44.8485204" lon="9.8646982"><ele>179.66666666666666</ele><time>2026-04-04T14:31:16.901Z</time></trkpt><trkpt lat="44.8486253" lon="9.8649649"><ele>182.0</ele><time>2026-04-04T14:31:17.891Z</time></trkpt><trkpt lat="44.8487313" lon="9.865221"><ele>182.0</ele><time>2026-04-04T14:31:18.929Z</time></trkpt><trkpt lat="44.8488374" lon="9.8654777"><ele>182.0</ele><time>2026-04-04T14:31:19.935Z</time></trkpt><trkpt lat="44.8489396" lon="9.8657397"><ele>182.0</ele><time>2026-04-04T14:31:20.912Z</time></trkpt><trkpt lat="44.8490385" lon="9.8660053"><ele>185.66666666666666</ele><time>2026-04-04T14:31:21.907Z</time></trkpt><trkpt lat="44.8491335" lon="9.8662762"><ele>189.33333333333331</ele><time>2026-04-04T14:31:22.93Z</time></trkpt><trkpt lat="44.8492234" lon="9.8665513"><ele>193.0</ele><time>2026-04-04T14:31:23.899Z</time></trkpt><trkpt lat="44.8493139" lon="9.8668139"><ele>193.0</ele><time>2026-04-04T14:31:24.89Z</time></trkpt><trkpt lat="44.8494137" lon="9.867076"><ele>193.0</ele><time>2026-04-04T14:31:25.913Z</time></trkpt><trkpt lat="44.8495211" lon="9.8673346"><ele>193.0</ele><time>2026-04-04T14:31:26.864Z</time></trkpt><trkpt lat="44.8496482" lon="9.8675785"><ele>187.0</ele><time>2026-04-04T14:31:27.866Z</time></trkpt><trkpt lat="44.8497851" lon="9.8678184"><ele>181.0</ele><time>2026-04-04T14:31:28.868Z</time></trkpt><trkpt lat="44.8499224" lon="9.8680495"><ele>175.0</ele><time>2026-04-04T14:31:29.895Z</time></trkpt><trkpt lat="44.8500503" lon="9.86828"><ele>175.66666666666669</ele><time>2026-04-04T14:31:30.88Z</time></trkpt><trkpt lat="44.8501747" lon="9.8685059"><ele>176.33333333333334</ele><time>2026-04-04T14:31:31.929Z</time></trkpt><trkpt lat="44.8503018" lon="9.8687238"><ele>177.0</ele><time>2026-04-04T14:31:32.911Z</time></trkpt><trkpt lat="44.8504241" lon="9.8689436"><ele>177.0</ele><time>2026-04-04T14:31:33.903Z</time></trkpt><trkpt lat="44.8505441" lon="9.8691605"><ele>177.0</ele><time>2026-04-04T14:31:34.917Z</time></trkpt><trkpt lat="44.850662" lon="9.8693713"><ele>177.0</ele><time>2026-04-04T14:31:35.911Z</time></trkpt><trkpt lat="44.8507697" lon="9.8695689"><ele>173.66666666666666</ele><time>2026-04-04T14:31:36.931Z</time></trkpt><trkpt lat="44.8508797" lon="9.869761"><ele>170.33333333333331</ele><time>2026-04-04T14:31:37.927Z</time></trkpt><trkpt lat="44.8509862" lon="9.8699359"><ele>167.0</ele><time>2026-04-04T14:31:38.924Z</time></trkpt><trkpt lat="44.8510952" lon="9.8701097"><ele>165.75</ele><time>2026-04-04T14:31:39.93Z</time></trkpt><trkpt lat="44.8512072" lon="9.8702658"><ele>164.5</ele><time>2026-04-04T14:31:40.91Z</time></trkpt><trkpt lat="44.8513254" lon="9.8703812"><ele>163.25</ele><time>2026-04-04T14:31:41.908Z</time></trkpt><trkpt lat="44.851443" lon="9.8704935"><ele>162.0</ele><time>2026-04-04T14:31:42.915Z</time></trkpt><trkpt lat="44.8515528" lon="9.870592"><ele>162.0</ele><time>2026-04-04T14:31:43.921Z</time></trkpt><trkpt lat="44.8516494" lon="9.8706933"><ele>162.0</ele><time>2026-04-04T14:31:44.923Z</time></trkpt><trkpt lat="44.8517432" lon="9.8707783"><ele>162.0</ele><time>2026-04-04T14:31:45.924Z</time></trkpt><trkpt lat="44.8518259" lon="9.870858"><ele>162.0</ele><time>2026-04-04T14:31:46.9Z</time></trkpt><trkpt lat="44.8518966" lon="9.8709224"><ele>162.0</ele><time>2026-04-04T14:31:47.914Z</time></trkpt><trkpt lat="44.8519646" lon="9.8709849"><ele>161.6</ele><time>2026-04-04T14:31:48.912Z</time></trkpt><trkpt lat="44.852039" lon="9.8710461"><ele>161.2</ele><time>2026-04-04T14:31:49.91Z</time></trkpt><trkpt lat="44.852125" lon="9.871122"><ele>160.8</ele><time>2026-04-04T14:31:50.917Z</time></trkpt><trkpt lat="44.8522179" lon="9.8712088"><ele>160.4</ele><time>2026-04-04T14:31:51.897Z</time></trkpt><trkpt lat="44.8523161" lon="9.8713031"><ele>160.0</ele><time>2026-04-04T14:31:52.902Z</time></trkpt><trkpt lat="44.8524177" lon="9.8714076"><ele>160.0</ele><time>2026-04-04T14:31:53.898Z</time></trkpt><trkpt lat="44.8525179" lon="9.8715069"><ele>160.0</ele><time>2026-04-04T14:31:54.957Z</time></trkpt><trkpt lat="44.8526145" lon="9.8716084"><ele>160.0</ele><time>2026-04-04T14:31:55.931Z</time></trkpt><trkpt lat="44.8527083" lon="9.8717056"><ele>160.0</ele><time>2026-04-04T14:31:56.909Z</time></trkpt><trkpt lat="44.8527974" lon="9.8718057"><ele>159.4</ele><time>2026-04-04T14:31:57.935Z</time></trkpt><trkpt lat="44.8528711" lon="9.8718932"><ele>158.8</ele><time>2026-04-04T14:31:58.935Z</time></trkpt><trkpt lat="44.8529374" lon="9.8719746"><ele>158.2</ele><time>2026-04-04T14:31:59.958Z</time></trkpt><trkpt lat="44.8530071" lon="9.8720438"><ele>157.6</ele><time>2026-04-04T14:32:00.888Z</time></trkpt><trkpt lat="44.8530891" lon="9.8721087"><ele>157.0</ele><time>2026-04-04T14:32:01.947Z</time></trkpt><trkpt lat="44.8531856" lon="9.872184"><ele>157.0</ele><time>2026-04-04T14:32:02.924Z</time></trkpt><trkpt lat="44.8532873" lon="9.8722707"><ele>157.0</ele><time>2026-04-04T14:32:03.929Z</time></trkpt><trkpt lat="44.8534094" lon="9.8723561"><ele>157.0</ele><time>2026-04-04T14:32:04.929Z</time></trkpt><trkpt lat="44.8535376" lon="9.8724443"><ele>157.0</ele><time>2026-04-04T14:32:05.938Z</time></trkpt><trkpt lat="44.8536647" lon="9.8725209"><ele>156.75</ele><time>2026-04-04T14:32:06.94Z</time></trkpt><trkpt lat="44.8537972" lon="9.8725899"><ele>156.5</ele><time>2026-04-04T14:32:07.927Z</time></trkpt><trkpt lat="44.8539313" lon="9.872648"><ele>156.25</ele><time>2026-04-04T14:32:08.921Z</time></trkpt><trkpt lat="44.8540736" lon="9.8726867"><ele>156.0</ele><time>2026-04-04T14:32:09.93Z</time></trkpt><trkpt lat="44.854221" lon="9.8727217"><ele>155.33333333333334</ele><time>2026-04-04T14:32:10.93Z</time></trkpt><trkpt lat="44.8543682" lon="9.8727505"><ele>154.66666666666669</ele><time>2026-04-04T14:32:11.922Z</time></trkpt><trkpt lat="44.8545192" lon="9.8727854"><ele>154.0</ele><time>2026-04-04T14:32:12.896Z</time></trkpt><trkpt lat="44.8546654" lon="9.8728191"><ele>154.0</ele><time>2026-04-04T14:32:13.884Z</time></trkpt><trkpt lat="44.8548167" lon="9.8728515"><ele>154.0</ele><time>2026-04-04T14:32:14.875Z</time></trkpt><trkpt lat="44.8549731" lon="9.8728749"><ele>154.0</ele><time>2026-04-04T14:32:15.882Z</time></trkpt><trkpt lat="44.8551313" lon="9.8729128"><ele>154.25</ele><time>2026-04-04T14:32:16.897Z</time></trkpt><trkpt lat="44.8552767" lon="9.8729384"><ele>154.5</ele><time>2026-04-04T14:32:17.892Z</time></trkpt><trkpt lat="44.8554059" lon="9.8729722"><ele>154.75</ele><time>2026-04-04T14:32:18.895Z</time></trkpt><trkpt lat="44.8555231" lon="9.8730157"><ele>155.0</ele><time>2026-04-04T14:32:19.881Z</time></trkpt><trkpt lat="44.8557141" lon="9.8730308"><ele>155.0</ele><time>2026-04-04T14:32:21.882Z</time></trkpt><trkpt lat="44.8558012" lon="9.8730479"><ele>155.0</ele><time>2026-04-04T14:32:22.88Z</time></trkpt><trkpt lat="44.8558974" lon="9.873073"><ele>155.0</ele><time>2026-04-04T14:32:23.88Z</time></trkpt><trkpt lat="44.8559872" lon="9.8730842"><ele>155.0</ele><time>2026-04-04T14:32:24.872Z</time></trkpt><trkpt lat="44.85607" lon="9.8730856"><ele>155.0</ele><time>2026-04-04T14:32:25.876Z</time></trkpt><trkpt lat="44.8561602" lon="9.8730854"><ele>155.0</ele><time>2026-04-04T14:32:26.872Z</time></trkpt><trkpt lat="44.8562596" lon="9.8731077"><ele>154.6</ele><time>2026-04-04T14:32:27.881Z</time></trkpt><trkpt lat="44.8563595" lon="9.8731176"><ele>154.2</ele><time>2026-04-04T14:32:28.879Z</time></trkpt><trkpt lat="44.8564489" lon="9.8731258"><ele>153.8</ele><time>2026-04-04T14:32:29.87Z</time></trkpt><trkpt lat="44.856533" lon="9.8731486"><ele>153.4</ele><time>2026-04-04T14:32:30.881Z</time></trkpt><trkpt lat="44.8566201" lon="9.873177"><ele>153.0</ele><time>2026-04-04T14:32:31.877Z</time></trkpt><trkpt lat="44.8567134" lon="9.8731856"><ele>153.16666666666666</ele><time>2026-04-04T14:32:32.903Z</time></trkpt><trkpt lat="44.8567938" lon="9.8732072"><ele>153.33333333333334</ele><time>2026-04-04T14:32:33.89Z</time></trkpt><trkpt lat="44.8568769" lon="9.8732276"><ele>153.5</ele><time>2026-04-04T14:32:34.882Z</time></trkpt><trkpt lat="44.8569574" lon="9.8732352"><ele>153.66666666666669</ele><time>2026-04-04T14:32:35.887Z</time></trkpt><trkpt lat="44.857034" lon="9.8732388"><ele>153.83333333333334</ele><time>2026-04-04T14:32:36.894Z</time></trkpt><trkpt lat="44.857108" lon="9.8732392"><ele>154.0</ele><time>2026-04-04T14:32:37.891Z</time></trkpt><trkpt lat="44.8571774" lon="9.8732631"><ele>154.0</ele><time>2026-04-04T14:32:38.891Z</time></trkpt><trkpt lat="44.8572457" lon="9.8732887"><ele>154.0</ele><time>2026-04-04T14:32:39.879Z</time></trkpt><trkpt lat="44.8573296" lon="9.8733125"><ele>154.0</ele><time>2026-04-04T14:32:40.893Z</time></trkpt><trkpt lat="44.8574274" lon="9.873326"><ele>154.0</ele><time>2026-04-04T14:32:41.899Z</time></trkpt><trkpt lat="44.8575307" lon="9.8733468"><ele>154.0</ele><time>2026-04-04T14:32:42.884Z</time></trkpt><trkpt lat="44.8576366" lon="9.8733875"><ele>154.0</ele><time>2026-04-04T14:32:43.892Z</time></trkpt><trkpt lat="44.8577432" lon="9.8734272"><ele>154.0</ele><time>2026-04-04T14:32:44.888Z</time></trkpt><trkpt lat="44.8578722" lon="9.8734647"><ele>154.0</ele><time>2026-04-04T14:32:45.871Z</time></trkpt><trkpt lat="44.8580021" lon="9.8735002"><ele>154.0</ele><time>2026-04-04T14:32:46.888Z</time></trkpt><trkpt lat="44.8581332" lon="9.8735369"><ele>153.5</ele><time>2026-04-04T14:32:47.88Z</time></trkpt><trkpt lat="44.8582665" lon="9.8735674"><ele>153.0</ele><time>2026-04-04T14:32:48.899Z</time></trkpt><trkpt lat="44.8583892" lon="9.8736"><ele>152.5</ele><time>2026-04-04T14:32:49.89Z</time></trkpt><trkpt lat="44.8585112" lon="9.8736307"><ele>152.0</ele><time>2026-04-04T14:32:50.888Z</time></trkpt><trkpt lat="44.8586298" lon="9.8736643"><ele>152.0</ele><time>2026-04-04T14:32:51.894Z</time></trkpt><trkpt lat="44.8587504" lon="9.8736885"><ele>152.0</ele><time>2026-04-04T14:32:52.893Z</time></trkpt><trkpt lat="44.8588775" lon="9.8737175"><ele>152.0</ele><time>2026-04-04T14:32:53.895Z</time></trkpt><trkpt lat="44.8590156" lon="9.8737444"><ele>152.0</ele><time>2026-04-04T14:32:54.886Z</time></trkpt><trkpt lat="44.8591638" lon="9.8737707"><ele>153.0</ele><time>2026-04-04T14:32:55.886Z</time></trkpt><trkpt lat="44.8593143" lon="9.8737988"><ele>154.0</ele><time>2026-04-04T14:32:56.901Z</time></trkpt><trkpt lat="44.8594688" lon="9.8738288"><ele>155.0</ele><time>2026-04-04T14:32:57.884Z</time></trkpt><trkpt lat="44.8596301" lon="9.8738636"><ele>155.0</ele><time>2026-04-04T14:32:58.894Z</time></trkpt><trkpt lat="44.8598051" lon="9.8739041"><ele>155.0</ele><time>2026-04-04T14:32:59.885Z</time></trkpt><trkpt lat="44.8599838" lon="9.8739501"><ele>155.0</ele><time>2026-04-04T14:33:00.884Z</time></trkpt><trkpt lat="44.8601681" lon="9.8739882"><ele>156.0</ele><time>2026-04-04T14:33:01.895Z</time></trkpt><trkpt lat="44.8603584" lon="9.8740286"><ele>157.0</ele><time>2026-04-04T14:33:02.884Z</time></trkpt><trkpt lat="44.8605501" lon="9.8740703"><ele>158.0</ele><time>2026-04-04T14:33:03.892Z</time></trkpt><trkpt lat="44.8607416" lon="9.8741144"><ele>158.0</ele><time>2026-04-04T14:33:04.891Z</time></trkpt><trkpt lat="44.8609367" lon="9.8741561"><ele>158.0</ele><time>2026-04-04T14:33:05.887Z</time></trkpt><trkpt lat="44.8611326" lon="9.8742004"><ele>158.0</ele><time>2026-04-04T14:33:06.889Z</time></trkpt><trkpt lat="44.8613342" lon="9.8742391"><ele>156.66666666666666</ele><time>2026-04-04T14:33:07.885Z</time></trkpt><trkpt lat="44.8615356" lon="9.8742857"><ele>155.33333333333334</ele><time>2026-04-04T14:33:08.876Z</time></trkpt><trkpt lat="44.8617361" lon="9.8743362"><ele>154.0</ele><time>2026-04-04T14:33:09.894Z</time></trkpt><trkpt lat="44.8619374" lon="9.87439"><ele>154.0</ele><time>2026-04-04T14:33:10.883Z</time></trkpt><trkpt lat="44.862137" lon="9.8744336"><ele>154.0</ele><time>2026-04-04T14:33:11.885Z</time></trkpt><trkpt lat="44.8623377" lon="9.8744765"><ele>154.0</ele><time>2026-04-04T14:33:12.888Z</time></trkpt><trkpt lat="44.8625398" lon="9.8745306"><ele>154.33333333333334</ele><time>2026-04-04T14:33:13.896Z</time></trkpt><trkpt lat="44.8627409" lon="9.8745762"><ele>154.66666666666666</ele><time>2026-04-04T14:33:14.889Z</time></trkpt><trkpt lat="44.8629434" lon="9.8746262"><ele>155.0</ele><time>2026-04-04T14:33:15.88Z</time></trkpt><trkpt lat="44.863148" lon="9.8746642"><ele>155.0</ele><time>2026-04-04T14:33:16.88Z</time></trkpt><trkpt lat="44.8633516" lon="9.8747088"><ele>155.0</ele><time>2026-04-04T14:33:17.886Z</time></trkpt><trkpt lat="44.863553" lon="9.8747536"><ele>155.0</ele><time>2026-04-04T14:33:18.884Z</time></trkpt><trkpt lat="44.8637554" lon="9.8748016"><ele>154.66666666666666</ele><time>2026-04-04T14:33:19.887Z</time></trkpt><trkpt lat="44.8639574" lon="9.87485"><ele>154.33333333333334</ele><time>2026-04-04T14:33:20.876Z</time></trkpt><trkpt lat="44.8641649" lon="9.8749044"><ele>154.0</ele><time>2026-04-04T14:33:21.9Z</time></trkpt><trkpt lat="44.8643725" lon="9.8749509"><ele>153.33333333333334</ele><time>2026-04-04T14:33:22.881Z</time></trkpt><trkpt lat="44.8645787" lon="9.8749947"><ele>152.66666666666666</ele><time>2026-04-04T14:33:23.883Z</time></trkpt><trkpt lat="44.8647805" lon="9.8750397"><ele>152.0</ele><time>2026-04-04T14:33:24.89Z</time></trkpt><trkpt lat="44.8649685" lon="9.8750755"><ele>151.66666666666666</ele><time>2026-04-04T14:33:25.875Z</time></trkpt><trkpt lat="44.8651466" lon="9.8751189"><ele>151.33333333333334</ele><time>2026-04-04T14:33:26.895Z</time></trkpt><trkpt lat="44.8653133" lon="9.8751672"><ele>151.0</ele><time>2026-04-04T14:33:27.891Z</time></trkpt><trkpt lat="44.8654632" lon="9.8752048"><ele>151.0</ele><time>2026-04-04T14:33:28.884Z</time></trkpt><trkpt lat="44.8656062" lon="9.8752392"><ele>151.0</ele><time>2026-04-04T14:33:29.886Z</time></trkpt><trkpt lat="44.8657408" lon="9.8752659"><ele>151.0</ele><time>2026-04-04T14:33:30.886Z</time></trkpt><trkpt lat="44.8658681" lon="9.8752956"><ele>151.0</ele><time>2026-04-04T14:33:31.903Z</time></trkpt><trkpt lat="44.865997" lon="9.875325"><ele>150.5</ele><time>2026-04-04T14:33:32.881Z</time></trkpt><trkpt lat="44.8661267" lon="9.8753567"><ele>150.0</ele><time>2026-04-04T14:33:33.878Z</time></trkpt><trkpt lat="44.8662563" lon="9.8753888"><ele>149.5</ele><time>2026-04-04T14:33:34.875Z</time></trkpt><trkpt lat="44.8663798" lon="9.8754183"><ele>149.0</ele><time>2026-04-04T14:33:35.885Z</time></trkpt><trkpt lat="44.8664906" lon="9.8754467"><ele>149.0</ele><time>2026-04-04T14:33:36.885Z</time></trkpt><trkpt lat="44.8665867" lon="9.8754706"><ele>149.0</ele><time>2026-04-04T14:33:37.894Z</time></trkpt><trkpt lat="44.8666776" lon="9.8754815"><ele>149.0</ele><time>2026-04-04T14:33:38.893Z</time></trkpt><trkpt lat="44.8667687" lon="9.8754846"><ele>149.0</ele><time>2026-04-04T14:33:39.883Z</time></trkpt><trkpt lat="44.8668653" lon="9.8754946"><ele>149.0</ele><time>2026-04-04T14:33:40.884Z</time></trkpt><trkpt lat="44.8669651" lon="9.875512"><ele>148.8</ele><time>2026-04-04T14:33:41.881Z</time></trkpt><trkpt lat="44.8670806" lon="9.8755425"><ele>148.60000000000002</ele><time>2026-04-04T14:33:42.895Z</time></trkpt><trkpt lat="44.8671945" lon="9.875579"><ele>148.4</ele><time>2026-04-04T14:33:43.889Z</time></trkpt><trkpt lat="44.8672945" lon="9.875613"><ele>148.20000000000002</ele><time>2026-04-04T14:33:44.888Z</time></trkpt><trkpt lat="44.8673964" lon="9.8756427"><ele>148.0</ele><time>2026-04-04T14:33:45.873Z</time></trkpt><trkpt lat="44.8675055" lon="9.8756733"><ele>147.75</ele><time>2026-04-04T14:33:46.876Z</time></trkpt><trkpt lat="44.8676226" lon="9.8757157"><ele>147.5</ele><time>2026-04-04T14:33:47.892Z</time></trkpt><trkpt lat="44.867739" lon="9.8757569"><ele>147.25</ele><time>2026-04-04T14:33:48.891Z</time></trkpt><trkpt lat="44.8678615" lon="9.8758008"><ele>147.0</ele><time>2026-04-04T14:33:49.888Z</time></trkpt><trkpt lat="44.868" lon="9.8758485"><ele>147.0</ele><time>2026-04-04T14:33:50.882Z</time></trkpt><trkpt lat="44.8681435" lon="9.8758915"><ele>147.0</ele><time>2026-04-04T14:33:51.877Z</time></trkpt><trkpt lat="44.868282" lon="9.8759353"><ele>147.0</ele><time>2026-04-04T14:33:52.884Z</time></trkpt><trkpt lat="44.8684158" lon="9.875979"><ele>147.0</ele><time>2026-04-04T14:33:53.894Z</time></trkpt><trkpt lat="44.8685493" lon="9.876015"><ele>146.25</ele><time>2026-04-04T14:33:54.894Z</time></trkpt><trkpt lat="44.8686781" lon="9.8760646"><ele>145.5</ele><time>2026-04-04T14:33:55.872Z</time></trkpt><trkpt lat="44.8688055" lon="9.8761195"><ele>144.75</ele><time>2026-04-04T14:33:56.884Z</time></trkpt><trkpt lat="44.8689401" lon="9.8761858"><ele>144.0</ele><time>2026-04-04T14:33:57.885Z</time></trkpt><trkpt lat="44.8690773" lon="9.8762632"><ele>144.0</ele><time>2026-04-04T14:33:58.894Z</time></trkpt><trkpt lat="44.8692071" lon="9.8763409"><ele>144.0</ele><time>2026-04-04T14:33:59.878Z</time></trkpt><trkpt lat="44.8693346" lon="9.876423"><ele>144.0</ele><time>2026-04-04T14:34:00.892Z</time></trkpt><trkpt lat="44.8694612" lon="9.8764944"><ele>144.0</ele><time>2026-04-04T14:34:01.886Z</time></trkpt><trkpt lat="44.8695814" lon="9.8765774"><ele>143.75</ele><time>2026-04-04T14:34:02.888Z</time></trkpt><trkpt lat="44.8696987" lon="9.8766635"><ele>143.5</ele><time>2026-04-04T14:34:03.919Z</time></trkpt><trkpt lat="44.8698131" lon="9.8767451"><ele>143.25</ele><time>2026-04-04T14:34:04.877Z</time></trkpt><trkpt lat="44.8699409" lon="9.8768331"><ele>143.0</ele><time>2026-04-04T14:34:05.882Z</time></trkpt><trkpt lat="44.8700726" lon="9.876922"><ele>143.0</ele><time>2026-04-04T14:34:06.902Z</time></trkpt><trkpt lat="44.8702077" lon="9.8770046"><ele>143.0</ele><time>2026-04-04T14:34:07.889Z</time></trkpt><trkpt lat="44.8703649" lon="9.8770809"><ele>143.0</ele><time>2026-04-04T14:34:08.907Z</time></trkpt><trkpt lat="44.8705418" lon="9.8771459"><ele>143.0</ele><time>2026-04-04T14:34:09.895Z</time></trkpt><trkpt lat="44.8707427" lon="9.8771906"><ele>143.0</ele><time>2026-04-04T14:34:10.898Z</time></trkpt><trkpt lat="44.870957" lon="9.8772432"><ele>143.0</ele><time>2026-04-04T14:34:11.898Z</time></trkpt><trkpt lat="44.8711768" lon="9.8773174"><ele>142.33333333333331</ele><time>2026-04-04T14:34:12.891Z</time></trkpt><trkpt lat="44.8713767" lon="9.8773913"><ele>141.66666666666666</ele><time>2026-04-04T14:34:13.9Z</time></trkpt><trkpt lat="44.871561" lon="9.8774501"><ele>141.0</ele><time>2026-04-04T14:34:14.882Z</time></trkpt><trkpt lat="44.8717398" lon="9.8774888"><ele>141.0</ele><time>2026-04-04T14:34:15.91Z</time></trkpt><trkpt lat="44.8719156" lon="9.8774897"><ele>141.0</ele><time>2026-04-04T14:34:16.891Z</time></trkpt><trkpt lat="44.8720972" lon="9.8774304"><ele>141.0</ele><time>2026-04-04T14:34:17.876Z</time></trkpt><trkpt lat="44.8722856" lon="9.8773031"><ele>141.0</ele><time>2026-04-04T14:34:18.886Z</time></trkpt><trkpt lat="44.8724712" lon="9.8771335"><ele>141.0</ele><time>2026-04-04T14:34:19.878Z</time></trkpt><trkpt lat="44.8726525" lon="9.8769661"><ele>141.0</ele><time>2026-04-04T14:34:20.901Z</time></trkpt><trkpt lat="44.8728366" lon="9.8767949"><ele>141.0</ele><time>2026-04-04T14:34:21.893Z</time></trkpt><trkpt lat="44.8730229" lon="9.8766278"><ele>141.0</ele><time>2026-04-04T14:34:22.888Z</time></trkpt><trkpt lat="44.8732088" lon="9.8764509"><ele>141.0</ele><time>2026-04-04T14:34:23.902Z</time></trkpt><trkpt lat="44.873408" lon="9.876268"><ele>140.5</ele><time>2026-04-04T14:34:24.891Z</time></trkpt><trkpt lat="44.8736053" lon="9.876091"><ele>140.0</ele><time>2026-04-04T14:34:25.905Z</time></trkpt><trkpt lat="44.8737979" lon="9.8759084"><ele>142.5</ele><time>2026-04-04T14:34:26.888Z</time></trkpt><trkpt lat="44.8739939" lon="9.8757372"><ele>145.0</ele><time>2026-04-04T14:34:27.902Z</time></trkpt><trkpt lat="44.8741865" lon="9.8755603"><ele>145.33333333333334</ele><time>2026-04-04T14:34:28.887Z</time></trkpt><trkpt lat="44.8743716" lon="9.8753858"><ele>145.66666666666666</ele><time>2026-04-04T14:34:29.895Z</time></trkpt><trkpt lat="44.8745493" lon="9.8752163"><ele>146.0</ele><time>2026-04-04T14:34:30.884Z</time></trkpt><trkpt lat="44.8747207" lon="9.8750622"><ele>147.33333333333331</ele><time>2026-04-04T14:34:31.896Z</time></trkpt><trkpt lat="44.8748941" lon="9.8749218"><ele>148.66666666666666</ele><time>2026-04-04T14:34:32.889Z</time></trkpt><trkpt lat="44.8750794" lon="9.8747929"><ele>150.0</ele><time>2026-04-04T14:34:33.886Z</time></trkpt><trkpt lat="44.8752758" lon="9.8746693"><ele>150.5</ele><time>2026-04-04T14:34:34.876Z</time></trkpt><trkpt lat="44.8754898" lon="9.8745642"><ele>151.0</ele><time>2026-04-04T14:34:35.89Z</time></trkpt><trkpt lat="44.8757154" lon="9.8744553"><ele>150.5</ele><time>2026-04-04T14:34:36.892Z</time></trkpt><trkpt lat="44.8759501" lon="9.8743424"><ele>150.0</ele><time>2026-04-04T14:34:37.895Z</time></trkpt><trkpt lat="44.8761809" lon="9.8742271"><ele>150.0</ele><time>2026-04-04T14:34:38.878Z</time></trkpt><trkpt lat="44.8764077" lon="9.8741057"><ele>150.0</ele><time>2026-04-04T14:34:39.884Z</time></trkpt><trkpt lat="44.8766231" lon="9.8739963"><ele>148.66666666666666</ele><time>2026-04-04T14:34:40.895Z</time></trkpt><trkpt lat="44.8768215" lon="9.8738922"><ele>147.33333333333331</ele><time>2026-04-04T14:34:41.888Z</time></trkpt><trkpt lat="44.8770027" lon="9.8737872"><ele>146.0</ele><time>2026-04-04T14:34:42.898Z</time></trkpt><trkpt lat="44.8771674" lon="9.8736786"><ele>146.0</ele><time>2026-04-04T14:34:43.873Z</time></trkpt><trkpt lat="44.8773091" lon="9.8735589"><ele>146.0</ele><time>2026-04-04T14:34:44.88Z</time></trkpt><trkpt lat="44.8774176" lon="9.8734297"><ele>146.0</ele><time>2026-04-04T14:34:45.876Z</time></trkpt><trkpt lat="44.8775209" lon="9.87331"><ele>146.0</ele><time>2026-04-04T14:34:46.882Z</time></trkpt><trkpt lat="44.8776233" lon="9.8731803"><ele>147.0</ele><time>2026-04-04T14:34:47.881Z</time></trkpt><trkpt lat="44.8777222" lon="9.8730834"><ele>148.0</ele><time>2026-04-04T14:34:48.893Z</time></trkpt><trkpt lat="44.8778101" lon="9.8729756"><ele>149.0</ele><time>2026-04-04T14:34:49.891Z</time></trkpt><trkpt lat="44.8778947" lon="9.8728788"><ele>150.0</ele><time>2026-04-04T14:34:50.881Z</time></trkpt><trkpt lat="44.8779834" lon="9.8727797"><ele>150.0</ele><time>2026-04-04T14:34:51.887Z</time></trkpt><trkpt lat="44.878073" lon="9.8726784"><ele>150.0</ele><time>2026-04-04T14:34:52.886Z</time></trkpt><trkpt lat="44.8781686" lon="9.8725766"><ele>150.0</ele><time>2026-04-04T14:34:53.885Z</time></trkpt><trkpt lat="44.8782674" lon="9.8724669"><ele>150.0</ele><time>2026-04-04T14:34:54.888Z</time></trkpt><trkpt lat="44.8783666" lon="9.8723588"><ele>150.25</ele><time>2026-04-04T14:34:55.874Z</time></trkpt><trkpt lat="44.878461" lon="9.8722504"><ele>150.5</ele><time>2026-04-04T14:34:56.885Z</time></trkpt><trkpt lat="44.8785529" lon="9.872135"><ele>150.75</ele><time>2026-04-04T14:34:57.886Z</time></trkpt><trkpt lat="44.8786353" lon="9.8720032"><ele>151.0</ele><time>2026-04-04T14:34:58.887Z</time></trkpt><trkpt lat="44.8786987" lon="9.8718454"><ele>152.25</ele><time>2026-04-04T14:34:59.89Z</time></trkpt><trkpt lat="44.8787372" lon="9.8716582"><ele>153.5</ele><time>2026-04-04T14:35:00.886Z</time></trkpt><trkpt lat="44.8787681" lon="9.8714538"><ele>154.75</ele><time>2026-04-04T14:35:01.889Z</time></trkpt><trkpt lat="44.8787984" lon="9.8712298"><ele>156.0</ele><time>2026-04-04T14:35:02.883Z</time></trkpt><trkpt lat="44.878835" lon="9.8709907"><ele>156.66666666666666</ele><time>2026-04-04T14:35:03.881Z</time></trkpt><trkpt lat="44.8788753" lon="9.870735"><ele>157.33333333333331</ele><time>2026-04-04T14:35:04.884Z</time></trkpt><trkpt lat="44.8789144" lon="9.8704752"><ele>158.0</ele><time>2026-04-04T14:35:05.886Z</time></trkpt><trkpt lat="44.8789605" lon="9.8702137"><ele>157.66666666666666</ele><time>2026-04-04T14:35:06.885Z</time></trkpt><trkpt lat="44.8790047" lon="9.8699463"><ele>157.33333333333334</ele><time>2026-04-04T14:35:07.875Z</time></trkpt><trkpt lat="44.8790479" lon="9.869687"><ele>157.0</ele><time>2026-04-04T14:35:08.891Z</time></trkpt><trkpt lat="44.8791033" lon="9.8694473"><ele>157.33333333333334</ele><time>2026-04-04T14:35:09.896Z</time></trkpt><trkpt lat="44.8791874" lon="9.8692243"><ele>157.66666666666666</ele><time>2026-04-04T14:35:10.893Z</time></trkpt><trkpt lat="44.8793262" lon="9.8690331"><ele>158.0</ele><time>2026-04-04T14:35:11.899Z</time></trkpt><trkpt lat="44.8794862" lon="9.8688577"><ele>157.33333333333331</ele><time>2026-04-04T14:35:12.88Z</time></trkpt><trkpt lat="44.8796461" lon="9.8686711"><ele>156.66666666666666</ele><time>2026-04-04T14:35:13.874Z</time></trkpt><trkpt lat="44.8798152" lon="9.868482"><ele>156.0</ele><time>2026-04-04T14:35:14.885Z</time></trkpt><trkpt lat="44.8799763" lon="9.8682842"><ele>155.33333333333334</ele><time>2026-04-04T14:35:15.887Z</time></trkpt><trkpt lat="44.8801348" lon="9.8681024"><ele>154.66666666666669</ele><time>2026-04-04T14:35:16.882Z</time></trkpt><trkpt lat="44.8802915" lon="9.8679312"><ele>154.0</ele><time>2026-04-04T14:35:17.883Z</time></trkpt><trkpt lat="44.8804595" lon="9.8678047"><ele>154.0</ele><time>2026-04-04T14:35:18.879Z</time></trkpt><trkpt lat="44.8806592" lon="9.8677268"><ele>154.0</ele><time>2026-04-04T14:35:19.884Z</time></trkpt><trkpt lat="44.8808791" lon="9.8676973"><ele>154.0</ele><time>2026-04-04T14:35:20.878Z</time></trkpt><trkpt lat="44.8811109" lon="9.8676782"><ele>152.5</ele><time>2026-04-04T14:35:21.887Z</time></trkpt><trkpt lat="44.8813558" lon="9.8676379"><ele>151.0</ele><time>2026-04-04T14:35:22.891Z</time></trkpt><trkpt lat="44.8815868" lon="9.8675943"><ele>150.0</ele><time>2026-04-04T14:35:23.887Z</time></trkpt><trkpt lat="44.8818279" lon="9.8675533"><ele>149.0</ele><time>2026-04-04T14:35:24.886Z</time></trkpt><trkpt lat="44.8820718" lon="9.8675182"><ele>149.0</ele><time>2026-04-04T14:35:25.875Z</time></trkpt><trkpt lat="44.8823041" lon="9.8674695"><ele>149.0</ele><time>2026-04-04T14:35:26.881Z</time></trkpt><trkpt lat="44.8825104" lon="9.8674295"><ele>149.0</ele><time>2026-04-04T14:35:27.875Z</time></trkpt><trkpt lat="44.8826984" lon="9.8673917"><ele>148.33333333333331</ele><time>2026-04-04T14:35:28.889Z</time></trkpt><trkpt lat="44.8828598" lon="9.8673603"><ele>147.66666666666666</ele><time>2026-04-04T14:35:29.877Z</time></trkpt><trkpt lat="44.8830139" lon="9.8672985"><ele>147.0</ele><time>2026-04-04T14:35:30.894Z</time></trkpt><trkpt lat="44.8831445" lon="9.8671679"><ele>147.0</ele><time>2026-04-04T14:35:31.886Z</time></trkpt><trkpt lat="44.8832558" lon="9.8669769"><ele>147.0</ele><time>2026-04-04T14:35:32.9Z</time></trkpt><trkpt lat="44.8833352" lon="9.8667488"><ele>147.0</ele><time>2026-04-04T14:35:33.888Z</time></trkpt><trkpt lat="44.8833711" lon="9.866493"><ele>148.0</ele><time>2026-04-04T14:35:34.886Z</time></trkpt><trkpt lat="44.8833647" lon="9.8661952"><ele>149.0</ele><time>2026-04-04T14:35:35.886Z</time></trkpt><trkpt lat="44.8833434" lon="9.8658428"><ele>149.0</ele><time>2026-04-04T14:35:36.876Z</time></trkpt><trkpt lat="44.8833165" lon="9.8654653"><ele>149.0</ele><time>2026-04-04T14:35:37.905Z</time></trkpt><trkpt lat="44.8833009" lon="9.8650936"><ele>148.0</ele><time>2026-04-04T14:35:38.882Z</time></trkpt><trkpt lat="44.8832746" lon="9.8647337"><ele>147.0</ele><time>2026-04-04T14:35:39.907Z</time></trkpt><trkpt lat="44.8832641" lon="9.8643811"><ele>146.5</ele><time>2026-04-04T14:35:40.888Z</time></trkpt><trkpt lat="44.8832438" lon="9.8640394"><ele>146.0</ele><time>2026-04-04T14:35:41.884Z</time></trkpt><trkpt lat="44.883229" lon="9.8637205"><ele>144.66666666666666</ele><time>2026-04-04T14:35:42.885Z</time></trkpt><trkpt lat="44.8832263" lon="9.8634091"><ele>143.33333333333334</ele><time>2026-04-04T14:35:43.872Z</time></trkpt><trkpt lat="44.8832287" lon="9.8631166"><ele>142.0</ele><time>2026-04-04T14:35:44.902Z</time></trkpt><trkpt lat="44.883236" lon="9.862832"><ele>140.66666666666669</ele><time>2026-04-04T14:35:45.901Z</time></trkpt><trkpt lat="44.8832556" lon="9.8625538"><ele>139.33333333333334</ele><time>2026-04-04T14:35:46.891Z</time></trkpt><trkpt lat="44.8832819" lon="9.8622966"><ele>138.0</ele><time>2026-04-04T14:35:47.877Z</time></trkpt><trkpt lat="44.8833014" lon="9.8620765"><ele>138.0</ele><time>2026-04-04T14:35:48.883Z</time></trkpt><trkpt lat="44.8833379" lon="9.8618901"><ele>138.0</ele><time>2026-04-04T14:35:49.882Z</time></trkpt><trkpt lat="44.8834044" lon="9.8617397"><ele>138.0</ele><time>2026-04-04T14:35:50.887Z</time></trkpt><trkpt lat="44.8835374" lon="9.8616198"><ele>138.0</ele><time>2026-04-04T14:35:51.876Z</time></trkpt><trkpt lat="44.8837057" lon="9.8615557"><ele>139.0</ele><time>2026-04-04T14:35:52.884Z</time></trkpt><trkpt lat="44.8839051" lon="9.8615252"><ele>140.0</ele><time>2026-04-04T14:35:53.881Z</time></trkpt><trkpt lat="44.8841107" lon="9.8615206"><ele>141.0</ele><time>2026-04-04T14:35:54.889Z</time></trkpt><trkpt lat="44.8843147" lon="9.8615071"><ele>138.33333333333334</ele><time>2026-04-04T14:35:55.876Z</time></trkpt><trkpt lat="44.8845028" lon="9.8614764"><ele>135.66666666666669</ele><time>2026-04-04T14:35:56.89Z</time></trkpt><trkpt lat="44.8846789" lon="9.8614157"><ele>133.0</ele><time>2026-04-04T14:35:57.878Z</time></trkpt><trkpt lat="44.8848552" lon="9.8613341"><ele>133.0</ele><time>2026-04-04T14:35:58.888Z</time></trkpt><trkpt lat="44.8850098" lon="9.8612141"><ele>133.0</ele><time>2026-04-04T14:35:59.879Z</time></trkpt><trkpt lat="44.8851436" lon="9.8610581"><ele>133.0</ele><time>2026-04-04T14:36:00.897Z</time></trkpt><trkpt lat="44.8852501" lon="9.8609036"><ele>132.75</ele><time>2026-04-04T14:36:01.898Z</time></trkpt><trkpt lat="44.8853305" lon="9.8607377"><ele>132.5</ele><time>2026-04-04T14:36:02.876Z</time></trkpt><trkpt lat="44.8853881" lon="9.8605535"><ele>132.25</ele><time>2026-04-04T14:36:03.888Z</time></trkpt><trkpt lat="44.8854087" lon="9.8603475"><ele>132.0</ele><time>2026-04-04T14:36:04.876Z</time></trkpt><trkpt lat="44.8853665" lon="9.8601042"><ele>132.66666666666666</ele><time>2026-04-04T14:36:05.897Z</time></trkpt><trkpt lat="44.8852747" lon="9.8598495"><ele>133.33333333333331</ele><time>2026-04-04T14:36:06.882Z</time></trkpt><trkpt lat="44.8851829" lon="9.8595824"><ele>134.0</ele><time>2026-04-04T14:36:07.889Z</time></trkpt><trkpt lat="44.8850806" lon="9.8592948"><ele>134.33333333333331</ele><time>2026-04-04T14:36:08.87Z</time></trkpt><trkpt lat="44.8849848" lon="9.8590187"><ele>134.66666666666666</ele><time>2026-04-04T14:36:09.888Z</time></trkpt><trkpt lat="44.8849177" lon="9.8587303"><ele>135.0</ele><time>2026-04-04T14:36:10.889Z</time></trkpt><trkpt lat="44.8849092" lon="9.8584089"><ele>132.0</ele><time>2026-04-04T14:36:11.888Z</time></trkpt><trkpt lat="44.8849284" lon="9.8580489"><ele>129.0</ele><time>2026-04-04T14:36:12.871Z</time></trkpt><trkpt lat="44.8849399" lon="9.8576738"><ele>128.5</ele><time>2026-04-04T14:36:13.872Z</time></trkpt><trkpt lat="44.8849469" lon="9.8572801"><ele>128.0</ele><time>2026-04-04T14:36:14.887Z</time></trkpt><trkpt lat="44.8849622" lon="9.856927"><ele>130.0</ele><time>2026-04-04T14:36:15.886Z</time></trkpt><trkpt lat="44.8849798" lon="9.856628"><ele>132.0</ele><time>2026-04-04T14:36:16.872Z</time></trkpt><trkpt lat="44.8849779" lon="9.8563879"><ele>134.0</ele><time>2026-04-04T14:36:17.882Z</time></trkpt><trkpt lat="44.8849572" lon="9.8561541"><ele>135.0</ele><time>2026-04-04T14:36:18.889Z</time></trkpt><trkpt lat="44.8848729" lon="9.855932"><ele>136.0</ele><time>2026-04-04T14:36:19.881Z</time></trkpt><trkpt lat="44.8847368" lon="9.855711"><ele>137.0</ele><time>2026-04-04T14:36:20.877Z</time></trkpt><trkpt lat="44.8845824" lon="9.855463"><ele>137.0</ele><time>2026-04-04T14:36:21.886Z</time></trkpt><trkpt lat="44.8844245" lon="9.8552144"><ele>137.0</ele><time>2026-04-04T14:36:22.888Z</time></trkpt><trkpt lat="44.8842547" lon="9.8549426"><ele>135.5</ele><time>2026-04-04T14:36:23.873Z</time></trkpt><trkpt lat="44.8840835" lon="9.8546741"><ele>134.0</ele><time>2026-04-04T14:36:24.891Z</time></trkpt><trkpt lat="44.8839496" lon="9.8544586"><ele>132.33333333333331</ele><time>2026-04-04T14:36:25.886Z</time></trkpt><trkpt lat="44.8838388" lon="9.854283"><ele>130.66666666666666</ele><time>2026-04-04T14:36:26.886Z</time></trkpt><trkpt lat="44.8837287" lon="9.8540975"><ele>129.0</ele><time>2026-04-04T14:36:27.894Z</time></trkpt><trkpt lat="44.8836512" lon="9.8538652"><ele>129.0</ele><time>2026-04-04T14:36:28.884Z</time></trkpt><trkpt lat="44.8836526" lon="9.8535738"><ele>129.0</ele><time>2026-04-04T14:36:29.892Z</time></trkpt><trkpt lat="44.883716" lon="9.8532519"><ele>129.0</ele><time>2026-04-04T14:36:30.884Z</time></trkpt><trkpt lat="44.8837728" lon="9.8529028"><ele>130.0</ele><time>2026-04-04T14:36:31.884Z</time></trkpt><trkpt lat="44.8838202" lon="9.8525456"><ele>131.0</ele><time>2026-04-04T14:36:32.886Z</time></trkpt><trkpt lat="44.8838471" lon="9.8522232"><ele>131.0</ele><time>2026-04-04T14:36:33.879Z</time></trkpt><trkpt lat="44.8838572" lon="9.8519291"><ele>131.0</ele><time>2026-04-04T14:36:34.897Z</time></trkpt><trkpt lat="44.8838587" lon="9.8516299"><ele>131.0</ele><time>2026-04-04T14:36:35.885Z</time></trkpt><trkpt lat="44.8838507" lon="9.8513201"><ele>131.0</ele><time>2026-04-04T14:36:36.881Z</time></trkpt><trkpt lat="44.8838387" lon="9.8510267"><ele>131.0</ele><time>2026-04-04T14:36:37.889Z</time></trkpt><trkpt lat="44.8838223" lon="9.8507429"><ele>131.0</ele><time>2026-04-04T14:36:38.895Z</time></trkpt><trkpt lat="44.883805" lon="9.8504741"><ele>131.0</ele><time>2026-04-04T14:36:39.899Z</time></trkpt><trkpt lat="44.8837865" lon="9.8501871"><ele>131.0</ele><time>2026-04-04T14:36:40.889Z</time></trkpt><trkpt lat="44.8837776" lon="9.8498885"><ele>131.0</ele><time>2026-04-04T14:36:41.884Z</time></trkpt><trkpt lat="44.8837634" lon="9.8495771"><ele>130.0</ele><time>2026-04-04T14:36:42.897Z</time></trkpt><trkpt lat="44.8837535" lon="9.8492414"><ele>129.0</ele><time>2026-04-04T14:36:43.877Z</time></trkpt><trkpt lat="44.8837378" lon="9.8489061"><ele>129.0</ele><time>2026-04-04T14:36:44.9Z</time></trkpt><trkpt lat="44.8837346" lon="9.8485621"><ele>129.0</ele><time>2026-04-04T14:36:45.891Z</time></trkpt><trkpt lat="44.8837472" lon="9.8482099"><ele>128.0</ele><time>2026-04-04T14:36:46.877Z</time></trkpt><trkpt lat="44.8837698" lon="9.8478601"><ele>127.0</ele><time>2026-04-04T14:36:47.895Z</time></trkpt><trkpt lat="44.8837898" lon="9.8475172"><ele>126.0</ele><time>2026-04-04T14:36:48.911Z</time></trkpt><trkpt lat="44.8838109" lon="9.8471681"><ele>125.0</ele><time>2026-04-04T14:36:49.879Z</time></trkpt><trkpt lat="44.8838302" lon="9.8468165"><ele>124.5</ele><time>2026-04-04T14:36:50.903Z</time></trkpt><trkpt lat="44.8838499" lon="9.8464636"><ele>124.0</ele><time>2026-04-04T14:36:51.89Z</time></trkpt><trkpt lat="44.8838702" lon="9.8461108"><ele>123.5</ele><time>2026-04-04T14:36:52.887Z</time></trkpt><trkpt lat="44.8838892" lon="9.845757"><ele>123.0</ele><time>2026-04-04T14:36:53.897Z</time></trkpt><trkpt lat="44.8839076" lon="9.8454042"><ele>121.5</ele><time>2026-04-04T14:36:54.896Z</time></trkpt><trkpt lat="44.8839238" lon="9.8450513"><ele>120.0</ele><time>2026-04-04T14:36:55.888Z</time></trkpt><trkpt lat="44.8839411" lon="9.8447054"><ele>120.0</ele><time>2026-04-04T14:36:56.875Z</time></trkpt><trkpt lat="44.8839551" lon="9.8443724"><ele>120.0</ele><time>2026-04-04T14:36:57.875Z</time></trkpt><trkpt lat="44.8839697" lon="9.8440567"><ele>119.66666666666666</ele><time>2026-04-04T14:36:58.875Z</time></trkpt><trkpt lat="44.8839842" lon="9.8437532"><ele>119.33333333333333</ele><time>2026-04-04T14:36:59.882Z</time></trkpt><trkpt lat="44.8839981" lon="9.8434695"><ele>119.0</ele><time>2026-04-04T14:37:00.882Z</time></trkpt><trkpt lat="44.8840203" lon="9.8432116"><ele>119.0</ele><time>2026-04-04T14:37:01.909Z</time></trkpt><trkpt lat="44.8840626" lon="9.8429676"><ele>119.0</ele><time>2026-04-04T14:37:02.871Z</time></trkpt><trkpt lat="44.8841247" lon="9.842737"><ele>119.0</ele><time>2026-04-04T14:37:03.888Z</time></trkpt><trkpt lat="44.8842216" lon="9.8425065"><ele>119.66666666666666</ele><time>2026-04-04T14:37:04.889Z</time></trkpt><trkpt lat="44.8843417" lon="9.8422902"><ele>120.33333333333334</ele><time>2026-04-04T14:37:05.912Z</time></trkpt><trkpt lat="44.8845014" lon="9.8420978"><ele>121.0</ele><time>2026-04-04T14:37:06.885Z</time></trkpt><trkpt lat="44.8846885" lon="9.8419371"><ele>121.0</ele><time>2026-04-04T14:37:07.879Z</time></trkpt><trkpt lat="44.8848829" lon="9.8418169"><ele>121.0</ele><time>2026-04-04T14:37:08.876Z</time></trkpt><trkpt lat="44.8850948" lon="9.8417278"><ele>121.0</ele><time>2026-04-04T14:37:09.887Z</time></trkpt><trkpt lat="44.8853111" lon="9.8416558"><ele>120.0</ele><time>2026-04-04T14:37:10.878Z</time></trkpt><trkpt lat="44.8855266" lon="9.8415943"><ele>119.0</ele><time>2026-04-04T14:37:11.897Z</time></trkpt><trkpt lat="44.8857375" lon="9.8415245"><ele>118.0</ele><time>2026-04-04T14:37:12.887Z</time></trkpt><trkpt lat="44.885958" lon="9.841451"><ele>117.5</ele><time>2026-04-04T14:37:13.897Z</time></trkpt><trkpt lat="44.886181" lon="9.8413835"><ele>117.0</ele><time>2026-04-04T14:37:14.884Z</time></trkpt><trkpt lat="44.8864002" lon="9.8413093"><ele>117.0</ele><time>2026-04-04T14:37:15.895Z</time></trkpt><trkpt lat="44.8866198" lon="9.8412372"><ele>117.0</ele><time>2026-04-04T14:37:16.882Z</time></trkpt><trkpt lat="44.8868399" lon="9.8411653"><ele>117.0</ele><time>2026-04-04T14:37:17.905Z</time></trkpt><trkpt lat="44.8870628" lon="9.8410926"><ele>117.0</ele><time>2026-04-04T14:37:18.896Z</time></trkpt><trkpt lat="44.8872938" lon="9.841028"><ele>117.0</ele><time>2026-04-04T14:37:19.882Z</time></trkpt><trkpt lat="44.8875153" lon="9.840961"><ele>117.0</ele><time>2026-04-04T14:37:20.9Z</time></trkpt><trkpt lat="44.8877356" lon="9.8408898"><ele>115.5</ele><time>2026-04-04T14:37:21.879Z</time></trkpt><trkpt lat="44.8879571" lon="9.8408121"><ele>114.0</ele><time>2026-04-04T14:37:22.882Z</time></trkpt><trkpt lat="44.8881776" lon="9.8407255"><ele>114.0</ele><time>2026-04-04T14:37:23.882Z</time></trkpt><trkpt lat="44.8883966" lon="9.8406222"><ele>114.0</ele><time>2026-04-04T14:37:24.883Z</time></trkpt><trkpt lat="44.8886095" lon="9.8404907"><ele>114.5</ele><time>2026-04-04T14:37:25.885Z</time></trkpt><trkpt lat="44.8888179" lon="9.8403245"><ele>115.0</ele><time>2026-04-04T14:37:26.885Z</time></trkpt><trkpt lat="44.8890145" lon="9.8401405"><ele>115.0</ele><time>2026-04-04T14:37:27.886Z</time></trkpt><trkpt lat="44.8891956" lon="9.8399299"><ele>115.0</ele><time>2026-04-04T14:37:28.879Z</time></trkpt><trkpt lat="44.8893622" lon="9.839685"><ele>115.0</ele><time>2026-04-04T14:37:29.876Z</time></trkpt><trkpt lat="44.8895267" lon="9.8394361"><ele>115.0</ele><time>2026-04-04T14:37:30.886Z</time></trkpt><trkpt lat="44.8896752" lon="9.8391524"><ele>114.0</ele><time>2026-04-04T14:37:31.897Z</time></trkpt><trkpt lat="44.8898162" lon="9.8388506"><ele>113.0</ele><time>2026-04-04T14:37:32.882Z</time></trkpt><trkpt lat="44.889957" lon="9.8385256"><ele>112.5</ele><time>2026-04-04T14:37:33.888Z</time></trkpt><trkpt lat="44.8900897" lon="9.8382103"><ele>112.0</ele><time>2026-04-04T14:37:34.889Z</time></trkpt><trkpt lat="44.8902261" lon="9.8379218"><ele>112.0</ele><time>2026-04-04T14:37:35.892Z</time></trkpt><trkpt lat="44.8903871" lon="9.8376493"><ele>112.0</ele><time>2026-04-04T14:37:36.877Z</time></trkpt><trkpt lat="44.8905813" lon="9.8373946"><ele>111.0</ele><time>2026-04-04T14:37:37.889Z</time></trkpt><trkpt lat="44.8908111" lon="9.8371496"><ele>110.0</ele><time>2026-04-04T14:37:38.896Z</time></trkpt><trkpt lat="44.891052" lon="9.8369083"><ele>110.5</ele><time>2026-04-04T14:37:39.877Z</time></trkpt><trkpt lat="44.8912984" lon="9.8366611"><ele>111.0</ele><time>2026-04-04T14:37:40.891Z</time></trkpt><trkpt lat="44.8915384" lon="9.8364129"><ele>110.5</ele><time>2026-04-04T14:37:41.889Z</time></trkpt><trkpt lat="44.8917702" lon="9.8361683"><ele>110.0</ele><time>2026-04-04T14:37:42.882Z</time></trkpt><trkpt lat="44.8919995" lon="9.8359346"><ele>110.0</ele><time>2026-04-04T14:37:43.909Z</time></trkpt><trkpt lat="44.8922409" lon="9.8357126"><ele>110.0</ele><time>2026-04-04T14:37:44.881Z</time></trkpt><trkpt lat="44.892474" lon="9.8354801"><ele>108.5</ele><time>2026-04-04T14:37:45.941Z</time></trkpt><trkpt lat="44.8926866" lon="9.8352122"><ele>107.0</ele><time>2026-04-04T14:37:46.893Z</time></trkpt><trkpt lat="44.8928831" lon="9.8349027"><ele>106.5</ele><time>2026-04-04T14:37:47.889Z</time></trkpt><trkpt lat="44.8930787" lon="9.8345679"><ele>106.0</ele><time>2026-04-04T14:37:48.881Z</time></trkpt><trkpt lat="44.8932684" lon="9.8342203"><ele>106.5</ele><time>2026-04-04T14:37:49.892Z</time></trkpt><trkpt lat="44.8934606" lon="9.8338782"><ele>107.0</ele><time>2026-04-04T14:37:50.871Z</time></trkpt><trkpt lat="44.8936511" lon="9.8335348"><ele>107.5</ele><time>2026-04-04T14:37:51.887Z</time></trkpt><trkpt lat="44.8938419" lon="9.8331941"><ele>108.0</ele><time>2026-04-04T14:37:52.892Z</time></trkpt><trkpt lat="44.8940304" lon="9.8328596"><ele>108.5</ele><time>2026-04-04T14:37:53.879Z</time></trkpt><trkpt lat="44.8942159" lon="9.8325357"><ele>109.0</ele><time>2026-04-04T14:37:54.899Z</time></trkpt><trkpt lat="44.8943972" lon="9.8322328"><ele>109.0</ele><time>2026-04-04T14:37:55.869Z</time></trkpt><trkpt lat="44.8945493" lon="9.8319669"><ele>109.0</ele><time>2026-04-04T14:37:56.885Z</time></trkpt><trkpt lat="44.8946728" lon="9.8317677"><ele>109.0</ele><time>2026-04-04T14:37:57.883Z</time></trkpt><trkpt lat="44.8947695" lon="9.8315881"><ele>109.0</ele><time>2026-04-04T14:37:58.885Z</time></trkpt><trkpt lat="44.89486" lon="9.8314206"><ele>109.0</ele><time>2026-04-04T14:37:59.883Z</time></trkpt><trkpt lat="44.8949629" lon="9.8312359"><ele>109.0</ele><time>2026-04-04T14:38:00.884Z</time></trkpt><trkpt lat="44.8950722" lon="9.8310429"><ele>109.33333333333334</ele><time>2026-04-04T14:38:01.882Z</time></trkpt><trkpt lat="44.8951828" lon="9.8308471"><ele>109.66666666666666</ele><time>2026-04-04T14:38:02.884Z</time></trkpt><trkpt lat="44.8952916" lon="9.8306562"><ele>110.0</ele><time>2026-04-04T14:38:03.889Z</time></trkpt><trkpt lat="44.8954002" lon="9.8304558"><ele>110.0</ele><time>2026-04-04T14:38:04.889Z</time></trkpt><trkpt lat="44.8955125" lon="9.8302519"><ele>110.0</ele><time>2026-04-04T14:38:05.888Z</time></trkpt><trkpt lat="44.8956314" lon="9.8300525"><ele>110.0</ele><time>2026-04-04T14:38:06.876Z</time></trkpt><trkpt lat="44.8957427" lon="9.8298438"><ele>110.0</ele><time>2026-04-04T14:38:07.895Z</time></trkpt><trkpt lat="44.8958469" lon="9.8296236"><ele>110.0</ele><time>2026-04-04T14:38:08.887Z</time></trkpt><trkpt lat="44.8959422" lon="9.8293884"><ele>110.0</ele><time>2026-04-04T14:38:09.913Z</time></trkpt><trkpt lat="44.89603" lon="9.8291429"><ele>110.33333333333333</ele><time>2026-04-04T14:38:10.882Z</time></trkpt><trkpt lat="44.8961201" lon="9.8288857"><ele>110.66666666666666</ele><time>2026-04-04T14:38:11.891Z</time></trkpt><trkpt lat="44.8962099" lon="9.8286263"><ele>111.0</ele><time>2026-04-04T14:38:12.877Z</time></trkpt><trkpt lat="44.8962938" lon="9.8283563"><ele>111.33333333333334</ele><time>2026-04-04T14:38:13.887Z</time></trkpt><trkpt lat="44.8963647" lon="9.8281012"><ele>111.66666666666667</ele><time>2026-04-04T14:38:14.893Z</time></trkpt><trkpt lat="44.8964222" lon="9.8278611"><ele>112.0</ele><time>2026-04-04T14:38:15.891Z</time></trkpt><trkpt lat="44.896471" lon="9.8276351"><ele>112.66666666666667</ele><time>2026-04-04T14:38:16.887Z</time></trkpt><trkpt lat="44.8965107" lon="9.8274213"><ele>113.33333333333334</ele><time>2026-04-04T14:38:17.889Z</time></trkpt><trkpt lat="44.8965496" lon="9.8271951"><ele>114.0</ele><time>2026-04-04T14:38:18.885Z</time></trkpt><trkpt lat="44.8965969" lon="9.8269476"><ele>113.66666666666666</ele><time>2026-04-04T14:38:19.883Z</time></trkpt><trkpt lat="44.8966561" lon="9.8266886"><ele>113.33333333333333</ele><time>2026-04-04T14:38:20.895Z</time></trkpt><trkpt lat="44.8967242" lon="9.8264125"><ele>113.0</ele><time>2026-04-04T14:38:21.892Z</time></trkpt><trkpt lat="44.8967997" lon="9.8261352"><ele>113.66666666666666</ele><time>2026-04-04T14:38:22.876Z</time></trkpt><trkpt lat="44.896885" lon="9.82585"><ele>114.33333333333334</ele><time>2026-04-04T14:38:23.891Z</time></trkpt><trkpt lat="44.896967" lon="9.8255598"><ele>115.0</ele><time>2026-04-04T14:38:24.875Z</time></trkpt><trkpt lat="44.8970553" lon="9.8252788"><ele>115.33333333333334</ele><time>2026-04-04T14:38:25.881Z</time></trkpt><trkpt lat="44.8971369" lon="9.8250123"><ele>115.66666666666666</ele><time>2026-04-04T14:38:26.886Z</time></trkpt><trkpt lat="44.8972193" lon="9.8247689"><ele>116.0</ele><time>2026-04-04T14:38:27.88Z</time></trkpt><trkpt lat="44.8972893" lon="9.8245328"><ele>116.0</ele><time>2026-04-04T14:38:28.885Z</time></trkpt><trkpt lat="44.8973518" lon="9.8243274"><ele>116.0</ele><time>2026-04-04T14:38:29.877Z</time></trkpt><trkpt lat="44.8974094" lon="9.824155"><ele>116.0</ele><time>2026-04-04T14:38:30.892Z</time></trkpt><trkpt lat="44.8974801" lon="9.8240099"><ele>116.0</ele><time>2026-04-04T14:38:31.875Z</time></trkpt><trkpt lat="44.8975728" lon="9.8238914"><ele>116.25</ele><time>2026-04-04T14:38:32.878Z</time></trkpt><trkpt lat="44.8976871" lon="9.8238157"><ele>116.5</ele><time>2026-04-04T14:38:33.885Z</time></trkpt><trkpt lat="44.8978175" lon="9.8237774"><ele>116.75</ele><time>2026-04-04T14:38:34.878Z</time></trkpt><trkpt lat="44.897966" lon="9.8238084"><ele>117.0</ele><time>2026-04-04T14:38:35.889Z</time></trkpt><trkpt lat="44.8981406" lon="9.8238968"><ele>117.0</ele><time>2026-04-04T14:38:36.877Z</time></trkpt><trkpt lat="44.8983344" lon="9.8240215"><ele>117.0</ele><time>2026-04-04T14:38:37.878Z</time></trkpt><trkpt lat="44.8985333" lon="9.8241363"><ele>117.0</ele><time>2026-04-04T14:38:38.889Z</time></trkpt><trkpt lat="44.8987376" lon="9.8242451"><ele>115.5</ele><time>2026-04-04T14:38:39.882Z</time></trkpt><trkpt lat="44.8989448" lon="9.8243839"><ele>114.0</ele><time>2026-04-04T14:38:40.885Z</time></trkpt><trkpt lat="44.8991643" lon="9.8245202"><ele>113.33333333333334</ele><time>2026-04-04T14:38:41.881Z</time></trkpt><trkpt lat="44.8993628" lon="9.8246495"><ele>112.66666666666667</ele><time>2026-04-04T14:38:42.898Z</time></trkpt><trkpt lat="44.8995569" lon="9.8247638"><ele>112.0</ele><time>2026-04-04T14:38:43.872Z</time></trkpt><trkpt lat="44.8997494" lon="9.8248837"><ele>112.0</ele><time>2026-04-04T14:38:44.889Z</time></trkpt><trkpt lat="44.8999442" lon="9.8250053"><ele>112.0</ele><time>2026-04-04T14:38:45.892Z</time></trkpt><trkpt lat="44.9001477" lon="9.8251335"><ele>112.0</ele><time>2026-04-04T14:38:46.88Z</time></trkpt><trkpt lat="44.9003527" lon="9.8252687"><ele>111.5</ele><time>2026-04-04T14:38:47.882Z</time></trkpt><trkpt lat="44.9005615" lon="9.8254033"><ele>111.0</ele><time>2026-04-04T14:38:48.872Z</time></trkpt><trkpt lat="44.9007801" lon="9.8255386"><ele>110.5</ele><time>2026-04-04T14:38:49.889Z</time></trkpt><trkpt lat="44.9009924" lon="9.8256801"><ele>110.0</ele><time>2026-04-04T14:38:50.876Z</time></trkpt><trkpt lat="44.901204" lon="9.8258156"><ele>110.0</ele><time>2026-04-04T14:38:51.887Z</time></trkpt><trkpt lat="44.9014152" lon="9.8259447"><ele>110.0</ele><time>2026-04-04T14:38:52.873Z</time></trkpt><trkpt lat="44.9016321" lon="9.8260768"><ele>109.0</ele><time>2026-04-04T14:38:53.889Z</time></trkpt><trkpt lat="44.9018449" lon="9.8262179"><ele>108.0</ele><time>2026-04-04T14:38:54.88Z</time></trkpt><trkpt lat="44.902055" lon="9.82635"><ele>108.0</ele><time>2026-04-04T14:38:55.892Z</time></trkpt><trkpt lat="44.9022672" lon="9.8264897"><ele>108.0</ele><time>2026-04-04T14:38:56.888Z</time></trkpt><trkpt lat="44.9024724" lon="9.8266238"><ele>108.33333333333334</ele><time>2026-04-04T14:38:57.893Z</time></trkpt><trkpt lat="44.9026662" lon="9.8267435"><ele>108.66666666666667</ele><time>2026-04-04T14:38:58.885Z</time></trkpt><trkpt lat="44.9028392" lon="9.8268574"><ele>109.0</ele><time>2026-04-04T14:38:59.879Z</time></trkpt><trkpt lat="44.9029961" lon="9.826958"><ele>108.5</ele><time>2026-04-04T14:39:00.882Z</time></trkpt><trkpt lat="44.9031377" lon="9.8270532"><ele>108.0</ele><time>2026-04-04T14:39:01.881Z</time></trkpt><trkpt lat="44.9032662" lon="9.8271263"><ele>107.5</ele><time>2026-04-04T14:39:02.896Z</time></trkpt><trkpt lat="44.9033856" lon="9.8271739"><ele>107.0</ele><time>2026-04-04T14:39:03.898Z</time></trkpt><trkpt lat="44.9034973" lon="9.8271793"><ele>106.75</ele><time>2026-04-04T14:39:04.879Z</time></trkpt><trkpt lat="44.9036053" lon="9.8271292"><ele>106.5</ele><time>2026-04-04T14:39:05.897Z</time></trkpt><trkpt lat="44.9037117" lon="9.8270266"><ele>106.25</ele><time>2026-04-04T14:39:06.888Z</time></trkpt><trkpt lat="44.9038044" lon="9.8268947"><ele>106.0</ele><time>2026-04-04T14:39:07.878Z</time></trkpt><trkpt lat="44.9038764" lon="9.8267321"><ele>106.5</ele><time>2026-04-04T14:39:08.88Z</time></trkpt><trkpt lat="44.9039392" lon="9.8265724"><ele>107.0</ele><time>2026-04-04T14:39:09.874Z</time></trkpt><trkpt lat="44.9040026" lon="9.8263994"><ele>107.5</ele><time>2026-04-04T14:39:10.901Z</time></trkpt><trkpt lat="44.904071" lon="9.8262237"><ele>108.0</ele><time>2026-04-04T14:39:11.891Z</time></trkpt><trkpt lat="44.9041454" lon="9.8260333"><ele>108.33333333333334</ele><time>2026-04-04T14:39:12.884Z</time></trkpt><trkpt lat="44.9042236" lon="9.8258477"><ele>108.66666666666667</ele><time>2026-04-04T14:39:13.885Z</time></trkpt><trkpt lat="44.9043029" lon="9.8256561"><ele>109.0</ele><time>2026-04-04T14:39:14.874Z</time></trkpt><trkpt lat="44.904378" lon="9.8254605"><ele>109.33333333333334</ele><time>2026-04-04T14:39:15.895Z</time></trkpt><trkpt lat="44.9044499" lon="9.8252709"><ele>109.66666666666666</ele><time>2026-04-04T14:39:16.872Z</time></trkpt><trkpt lat="44.9045252" lon="9.8250804"><ele>110.0</ele><time>2026-04-04T14:39:17.892Z</time></trkpt><trkpt lat="44.9046069" lon="9.8248899"><ele>110.0</ele><time>2026-04-04T14:39:18.888Z</time></trkpt><trkpt lat="44.9046869" lon="9.8247091"><ele>110.0</ele><time>2026-04-04T14:39:19.893Z</time></trkpt><trkpt lat="44.9047519" lon="9.8245542"><ele>110.0</ele><time>2026-04-04T14:39:20.881Z</time></trkpt><trkpt lat="44.9048119" lon="9.8244169"><ele>110.0</ele><time>2026-04-04T14:39:21.884Z</time></trkpt><trkpt lat="44.904856" lon="9.8243019"><ele>110.0</ele><time>2026-04-04T14:39:22.893Z</time></trkpt><trkpt lat="44.9048973" lon="9.8241982"><ele>110.0</ele><time>2026-04-04T14:39:23.884Z</time></trkpt><trkpt lat="44.9049491" lon="9.8240996"><ele>110.0</ele><time>2026-04-04T14:39:24.887Z</time></trkpt><trkpt lat="44.905013" lon="9.8239733"><ele>110.0</ele><time>2026-04-04T14:39:25.885Z</time></trkpt><trkpt lat="44.9050865" lon="9.8238324"><ele>110.0</ele><time>2026-04-04T14:39:26.875Z</time></trkpt><trkpt lat="44.9051779" lon="9.8236912"><ele>109.33333333333333</ele><time>2026-04-04T14:39:27.887Z</time></trkpt><trkpt lat="44.9052702" lon="9.8235371"><ele>108.66666666666666</ele><time>2026-04-04T14:39:28.87Z</time></trkpt><trkpt lat="44.9053676" lon="9.8233663"><ele>108.0</ele><time>2026-04-04T14:39:29.896Z</time></trkpt><trkpt lat="44.9054715" lon="9.8231919"><ele>108.0</ele><time>2026-04-04T14:39:30.884Z</time></trkpt><trkpt lat="44.9055828" lon="9.8230106"><ele>108.0</ele><time>2026-04-04T14:39:31.88Z</time></trkpt><trkpt lat="44.9057046" lon="9.8228236"><ele>108.0</ele><time>2026-04-04T14:39:32.877Z</time></trkpt><trkpt lat="44.9058247" lon="9.8226264"><ele>107.66666666666666</ele><time>2026-04-04T14:39:33.879Z</time></trkpt><trkpt lat="44.9059467" lon="9.822422"><ele>107.33333333333333</ele><time>2026-04-04T14:39:34.875Z</time></trkpt><trkpt lat="44.9060796" lon="9.8222094"><ele>107.0</ele><time>2026-04-04T14:39:35.886Z</time></trkpt><trkpt lat="44.9062166" lon="9.8219806"><ele>107.33333333333333</ele><time>2026-04-04T14:39:36.88Z</time></trkpt><trkpt lat="44.9063516" lon="9.8217541"><ele>107.66666666666666</ele><time>2026-04-04T14:39:37.882Z</time></trkpt><trkpt lat="44.9064826" lon="9.8215336"><ele>108.0</ele><time>2026-04-04T14:39:38.881Z</time></trkpt><trkpt lat="44.9066241" lon="9.8213142"><ele>108.33333333333334</ele><time>2026-04-04T14:39:39.888Z</time></trkpt><trkpt lat="44.9067572" lon="9.8210924"><ele>108.66666666666667</ele><time>2026-04-04T14:39:40.887Z</time></trkpt><trkpt lat="44.9068956" lon="9.8208761"><ele>109.0</ele><time>2026-04-04T14:39:41.883Z</time></trkpt><trkpt lat="44.9070231" lon="9.8206499"><ele>109.33333333333334</ele><time>2026-04-04T14:39:42.913Z</time></trkpt><trkpt lat="44.9071369" lon="9.8204127"><ele>109.66666666666666</ele><time>2026-04-04T14:39:43.885Z</time></trkpt><trkpt lat="44.907233" lon="9.8201624"><ele>110.0</ele><time>2026-04-04T14:39:44.882Z</time></trkpt><trkpt lat="44.9073209" lon="9.8199035"><ele>111.0</ele><time>2026-04-04T14:39:45.884Z</time></trkpt><trkpt lat="44.9073867" lon="9.819639"><ele>112.0</ele><time>2026-04-04T14:39:46.88Z</time></trkpt><trkpt lat="44.9074462" lon="9.8193717"><ele>113.0</ele><time>2026-04-04T14:39:47.883Z</time></trkpt><trkpt lat="44.9075113" lon="9.8191141"><ele>113.0</ele><time>2026-04-04T14:39:48.886Z</time></trkpt><trkpt lat="44.9075746" lon="9.8188594"><ele>113.0</ele><time>2026-04-04T14:39:49.889Z</time></trkpt><trkpt lat="44.9076363" lon="9.818615"><ele>113.0</ele><time>2026-04-04T14:39:50.888Z</time></trkpt><trkpt lat="44.9076971" lon="9.818366"><ele>112.66666666666666</ele><time>2026-04-04T14:39:51.878Z</time></trkpt><trkpt lat="44.907765" lon="9.8181175"><ele>112.33333333333334</ele><time>2026-04-04T14:39:52.891Z</time></trkpt><trkpt lat="44.9078421" lon="9.8178761"><ele>112.0</ele><time>2026-04-04T14:39:53.873Z</time></trkpt><trkpt lat="44.9079185" lon="9.8176279"><ele>112.0</ele><time>2026-04-04T14:39:54.89Z</time></trkpt><trkpt lat="44.9079892" lon="9.8173779"><ele>112.0</ele><time>2026-04-04T14:39:55.878Z</time></trkpt><trkpt lat="44.908052" lon="9.8171203"><ele>112.0</ele><time>2026-04-04T14:39:56.896Z</time></trkpt><trkpt lat="44.9080982" lon="9.816849"><ele>112.33333333333334</ele><time>2026-04-04T14:39:57.868Z</time></trkpt><trkpt lat="44.908136" lon="9.816587"><ele>112.66666666666666</ele><time>2026-04-04T14:39:58.876Z</time></trkpt><trkpt lat="44.908159" lon="9.8163286"><ele>113.0</ele><time>2026-04-04T14:39:59.902Z</time></trkpt><trkpt lat="44.9081767" lon="9.816074"><ele>114.0</ele><time>2026-04-04T14:40:00.879Z</time></trkpt><trkpt lat="44.9082037" lon="9.8158331"><ele>115.0</ele><time>2026-04-04T14:40:01.876Z</time></trkpt><trkpt lat="44.9082371" lon="9.8156113"><ele>116.0</ele><time>2026-04-04T14:40:02.885Z</time></trkpt><trkpt lat="44.9082819" lon="9.8153913"><ele>116.0</ele><time>2026-04-04T14:40:03.875Z</time></trkpt><trkpt lat="44.9083387" lon="9.8151752"><ele>116.0</ele><time>2026-04-04T14:40:04.884Z</time></trkpt><trkpt lat="44.9083995" lon="9.8149568"><ele>116.0</ele><time>2026-04-04T14:40:05.877Z</time></trkpt><trkpt lat="44.9084613" lon="9.8147416"><ele>115.0</ele><time>2026-04-04T14:40:06.882Z</time></trkpt><trkpt lat="44.9085262" lon="9.8145159"><ele>114.0</ele><time>2026-04-04T14:40:07.891Z</time></trkpt><trkpt lat="44.9085855" lon="9.8142967"><ele>113.0</ele><time>2026-04-04T14:40:08.887Z</time></trkpt><trkpt lat="44.9086402" lon="9.8140842"><ele>113.0</ele><time>2026-04-04T14:40:09.883Z</time></trkpt><trkpt lat="44.9086927" lon="9.8138885"><ele>113.0</ele><time>2026-04-04T14:40:10.88Z</time></trkpt><trkpt lat="44.9087389" lon="9.8137024"><ele>113.0</ele><time>2026-04-04T14:40:11.885Z</time></trkpt><trkpt lat="44.9087853" lon="9.8135236"><ele>113.0</ele><time>2026-04-04T14:40:12.89Z</time></trkpt><trkpt lat="44.9088275" lon="9.8133486"><ele>113.0</ele><time>2026-04-04T14:40:13.886Z</time></trkpt><trkpt lat="44.9088659" lon="9.8131967"><ele>113.0</ele><time>2026-04-04T14:40:14.878Z</time></trkpt><trkpt lat="44.9089054" lon="9.8130423"><ele>113.0</ele><time>2026-04-04T14:40:15.872Z</time></trkpt><trkpt lat="44.9089465" lon="9.8128896"><ele>113.0</ele><time>2026-04-04T14:40:16.889Z</time></trkpt><trkpt lat="44.9089875" lon="9.8127339"><ele>113.25</ele><time>2026-04-04T14:40:17.887Z</time></trkpt><trkpt lat="44.9090304" lon="9.8125711"><ele>113.5</ele><time>2026-04-04T14:40:18.885Z</time></trkpt><trkpt lat="44.9090672" lon="9.8124125"><ele>113.75</ele><time>2026-04-04T14:40:19.887Z</time></trkpt><trkpt lat="44.9091025" lon="9.8122544"><ele>114.0</ele><time>2026-04-04T14:40:20.875Z</time></trkpt><trkpt lat="44.9091423" lon="9.812095"><ele>114.0</ele><time>2026-04-04T14:40:21.893Z</time></trkpt><trkpt lat="44.9091923" lon="9.8119375"><ele>114.0</ele><time>2026-04-04T14:40:22.893Z</time></trkpt><trkpt lat="44.9092497" lon="9.8117906"><ele>114.0</ele><time>2026-04-04T14:40:23.887Z</time></trkpt><trkpt lat="44.9093295" lon="9.811662"><ele>114.0</ele><time>2026-04-04T14:40:24.888Z</time></trkpt><trkpt lat="44.9094233" lon="9.8115217"><ele>113.66666666666666</ele><time>2026-04-04T14:40:25.894Z</time></trkpt><trkpt lat="44.9095365" lon="9.8113697"><ele>113.33333333333333</ele><time>2026-04-04T14:40:26.895Z</time></trkpt><trkpt lat="44.9096733" lon="9.8112301"><ele>113.0</ele><time>2026-04-04T14:40:27.888Z</time></trkpt><trkpt lat="44.909815" lon="9.811087"><ele>113.0</ele><time>2026-04-04T14:40:28.899Z</time></trkpt><trkpt lat="44.9099608" lon="9.810963"><ele>113.0</ele><time>2026-04-04T14:40:29.89Z</time></trkpt><trkpt lat="44.9100908" lon="9.8108497"><ele>113.0</ele><time>2026-04-04T14:40:30.876Z</time></trkpt><trkpt lat="44.9102133" lon="9.8107311"><ele>112.5</ele><time>2026-04-04T14:40:31.883Z</time></trkpt><trkpt lat="44.9103257" lon="9.8106028"><ele>112.0</ele><time>2026-04-04T14:40:32.877Z</time></trkpt><trkpt lat="44.9104224" lon="9.8104593"><ele>111.5</ele><time>2026-04-04T14:40:33.903Z</time></trkpt><trkpt lat="44.9105041" lon="9.8103169"><ele>111.0</ele><time>2026-04-04T14:40:34.882Z</time></trkpt><trkpt lat="44.9105759" lon="9.8101573"><ele>111.0</ele><time>2026-04-04T14:40:35.879Z</time></trkpt><trkpt lat="44.9106298" lon="9.8099903"><ele>111.0</ele><time>2026-04-04T14:40:36.881Z</time></trkpt><trkpt lat="44.910678" lon="9.8098247"><ele>111.0</ele><time>2026-04-04T14:40:37.882Z</time></trkpt><trkpt lat="44.910718" lon="9.8096563"><ele>111.0</ele><time>2026-04-04T14:40:38.88Z</time></trkpt><trkpt lat="44.910745" lon="9.8094667"><ele>111.33333333333334</ele><time>2026-04-04T14:40:39.882Z</time></trkpt><trkpt lat="44.9107679" lon="9.8092603"><ele>111.66666666666667</ele><time>2026-04-04T14:40:40.883Z</time></trkpt><trkpt lat="44.9107936" lon="9.809036"><ele>112.0</ele><time>2026-04-04T14:40:41.885Z</time></trkpt><trkpt lat="44.910819" lon="9.8088045"><ele>112.0</ele><time>2026-04-04T14:40:42.897Z</time></trkpt><trkpt lat="44.9108443" lon="9.8085646"><ele>112.0</ele><time>2026-04-04T14:40:43.894Z</time></trkpt><trkpt lat="44.9108663" lon="9.8083008"><ele>112.0</ele><time>2026-04-04T14:40:44.906Z</time></trkpt><trkpt lat="44.9108944" lon="9.8080245"><ele>111.66666666666667</ele><time>2026-04-04T14:40:45.876Z</time></trkpt><trkpt lat="44.9109334" lon="9.8077494"><ele>111.33333333333334</ele><time>2026-04-04T14:40:46.879Z</time></trkpt><trkpt lat="44.9109791" lon="9.8074621"><ele>111.0</ele><time>2026-04-04T14:40:47.885Z</time></trkpt><trkpt lat="44.911028" lon="9.8071675"><ele>111.0</ele><time>2026-04-04T14:40:48.89Z</time></trkpt><trkpt lat="44.9110722" lon="9.8068659"><ele>111.0</ele><time>2026-04-04T14:40:49.878Z</time></trkpt><trkpt lat="44.9111066" lon="9.8065584"><ele>111.0</ele><time>2026-04-04T14:40:50.88Z</time></trkpt><trkpt lat="44.9111346" lon="9.8062562"><ele>110.33333333333334</ele><time>2026-04-04T14:40:51.877Z</time></trkpt><trkpt lat="44.911164" lon="9.8059528"><ele>109.66666666666667</ele><time>2026-04-04T14:40:52.889Z</time></trkpt><trkpt lat="44.9111994" lon="9.8056553"><ele>109.0</ele><time>2026-04-04T14:40:53.878Z</time></trkpt><trkpt lat="44.9112383" lon="9.8053686"><ele>109.66666666666667</ele><time>2026-04-04T14:40:54.879Z</time></trkpt><trkpt lat="44.9112776" lon="9.8050808"><ele>110.33333333333334</ele><time>2026-04-04T14:40:55.887Z</time></trkpt><trkpt lat="44.9113271" lon="9.8047897"><ele>111.0</ele><time>2026-04-04T14:40:56.882Z</time></trkpt><trkpt lat="44.9113824" lon="9.8045022"><ele>111.33333333333334</ele><time>2026-04-04T14:40:57.875Z</time></trkpt><trkpt lat="44.9114503" lon="9.804223"><ele>111.66666666666667</ele><time>2026-04-04T14:40:58.893Z</time></trkpt><trkpt lat="44.9115203" lon="9.8039545"><ele>112.0</ele><time>2026-04-04T14:40:59.88Z</time></trkpt><trkpt lat="44.9115996" lon="9.8036882"><ele>112.0</ele><time>2026-04-04T14:41:00.876Z</time></trkpt><trkpt lat="44.9116853" lon="9.8034233"><ele>112.0</ele><time>2026-04-04T14:41:01.873Z</time></trkpt><trkpt lat="44.9117679" lon="9.8031588"><ele>112.0</ele><time>2026-04-04T14:41:02.888Z</time></trkpt><trkpt lat="44.9118579" lon="9.8028922"><ele>112.33333333333334</ele><time>2026-04-04T14:41:03.88Z</time></trkpt><trkpt lat="44.9119422" lon="9.8026257"><ele>112.66666666666666</ele><time>2026-04-04T14:41:04.902Z</time></trkpt><trkpt lat="44.9120287" lon="9.8023558"><ele>113.0</ele><time>2026-04-04T14:41:05.888Z</time></trkpt><trkpt lat="44.9121121" lon="9.8020871"><ele>112.33333333333333</ele><time>2026-04-04T14:41:06.886Z</time></trkpt><trkpt lat="44.9121913" lon="9.8018142"><ele>111.66666666666666</ele><time>2026-04-04T14:41:07.881Z</time></trkpt><trkpt lat="44.912262" lon="9.801525"><ele>111.0</ele><time>2026-04-04T14:41:08.887Z</time></trkpt><trkpt lat="44.9123211" lon="9.8012184"><ele>111.5</ele><time>2026-04-04T14:41:09.889Z</time></trkpt><trkpt lat="44.9123748" lon="9.8008723"><ele>112.0</ele><time>2026-04-04T14:41:10.885Z</time></trkpt><trkpt lat="44.9124087" lon="9.800494"><ele>112.0</ele><time>2026-04-04T14:41:11.883Z</time></trkpt><trkpt lat="44.9124496" lon="9.8001116"><ele>112.0</ele><time>2026-04-04T14:41:12.871Z</time></trkpt><trkpt lat="44.9124986" lon="9.7997494"><ele>112.0</ele><time>2026-04-04T14:41:13.884Z</time></trkpt><trkpt lat="44.9125421" lon="9.7994084"><ele>112.0</ele><time>2026-04-04T14:41:14.878Z</time></trkpt><trkpt lat="44.9125741" lon="9.7990962"><ele>111.0</ele><time>2026-04-04T14:41:15.881Z</time></trkpt><trkpt lat="44.9126017" lon="9.7987991"><ele>110.0</ele><time>2026-04-04T14:41:16.883Z</time></trkpt><trkpt lat="44.9126354" lon="9.7985099"><ele>109.0</ele><time>2026-04-04T14:41:17.874Z</time></trkpt><trkpt lat="44.9126678" lon="9.7982299"><ele>109.0</ele><time>2026-04-04T14:41:18.878Z</time></trkpt><trkpt lat="44.9126972" lon="9.7979641"><ele>109.0</ele><time>2026-04-04T14:41:19.883Z</time></trkpt><trkpt lat="44.912725" lon="9.7976992"><ele>109.0</ele><time>2026-04-04T14:41:20.884Z</time></trkpt><trkpt lat="44.9127489" lon="9.7974473"><ele>109.0</ele><time>2026-04-04T14:41:21.874Z</time></trkpt><trkpt lat="44.9127755" lon="9.7972074"><ele>109.0</ele><time>2026-04-04T14:41:22.88Z</time></trkpt><trkpt lat="44.9128016" lon="9.7969824"><ele>109.0</ele><time>2026-04-04T14:41:23.883Z</time></trkpt><trkpt lat="44.9128178" lon="9.7967893"><ele>109.25</ele><time>2026-04-04T14:41:24.87Z</time></trkpt><trkpt lat="44.9128373" lon="9.7966079"><ele>109.5</ele><time>2026-04-04T14:41:25.886Z</time></trkpt><trkpt lat="44.912854" lon="9.7964487"><ele>109.75</ele><time>2026-04-04T14:41:26.884Z</time></trkpt><trkpt lat="44.9128606" lon="9.7963006"><ele>110.0</ele><time>2026-04-04T14:41:27.885Z</time></trkpt><trkpt lat="44.9128707" lon="9.796155"><ele>110.0</ele><time>2026-04-04T14:41:28.89Z</time></trkpt><trkpt lat="44.9128789" lon="9.7960081"><ele>110.0</ele><time>2026-04-04T14:41:29.878Z</time></trkpt><trkpt lat="44.9128957" lon="9.7958633"><ele>110.0</ele><time>2026-04-04T14:41:30.893Z</time></trkpt><trkpt lat="44.912926" lon="9.7956909"><ele>110.0</ele><time>2026-04-04T14:41:31.881Z</time></trkpt><trkpt lat="44.9129528" lon="9.7955226"><ele>110.5</ele><time>2026-04-04T14:41:32.882Z</time></trkpt><trkpt lat="44.9129777" lon="9.7953339"><ele>111.0</ele><time>2026-04-04T14:41:33.877Z</time></trkpt><trkpt lat="44.9129985" lon="9.7951376"><ele>111.5</ele><time>2026-04-04T14:41:34.897Z</time></trkpt><trkpt lat="44.9130122" lon="9.7949397"><ele>112.0</ele><time>2026-04-04T14:41:35.875Z</time></trkpt><trkpt lat="44.9130342" lon="9.7947522"><ele>112.25</ele><time>2026-04-04T14:41:36.886Z</time></trkpt><trkpt lat="44.9130549" lon="9.7945567"><ele>112.5</ele><time>2026-04-04T14:41:37.879Z</time></trkpt><trkpt lat="44.9130742" lon="9.7943592"><ele>112.75</ele><time>2026-04-04T14:41:38.894Z</time></trkpt><trkpt lat="44.9130917" lon="9.7941657"><ele>113.0</ele><time>2026-04-04T14:41:39.891Z</time></trkpt><trkpt lat="44.9131103" lon="9.7939876"><ele>113.25</ele><time>2026-04-04T14:41:40.899Z</time></trkpt><trkpt lat="44.9131284" lon="9.7938216"><ele>113.5</ele><time>2026-04-04T14:41:41.887Z</time></trkpt><trkpt lat="44.9131484" lon="9.7936544"><ele>113.75</ele><time>2026-04-04T14:41:42.895Z</time></trkpt><trkpt lat="44.913163" lon="9.7934928"><ele>114.0</ele><time>2026-04-04T14:41:43.9Z</time></trkpt><trkpt lat="44.9131761" lon="9.7933225"><ele>114.25</ele><time>2026-04-04T14:41:44.888Z</time></trkpt><trkpt lat="44.9131919" lon="9.7931485"><ele>114.5</ele><time>2026-04-04T14:41:45.892Z</time></trkpt><trkpt lat="44.9132118" lon="9.7929786"><ele>114.75</ele><time>2026-04-04T14:41:46.893Z</time></trkpt><trkpt lat="44.9132283" lon="9.7928329"><ele>115.0</ele><time>2026-04-04T14:41:47.881Z</time></trkpt><trkpt lat="44.9132418" lon="9.7926869"><ele>114.83333333333334</ele><time>2026-04-04T14:41:48.886Z</time></trkpt><trkpt lat="44.9132548" lon="9.7925675"><ele>114.66666666666667</ele><time>2026-04-04T14:41:49.885Z</time></trkpt><trkpt lat="44.9132696" lon="9.7924501"><ele>114.5</ele><time>2026-04-04T14:41:50.882Z</time></trkpt><trkpt lat="44.913286" lon="9.7923235"><ele>114.33333333333334</ele><time>2026-04-04T14:41:51.89Z</time></trkpt><trkpt lat="44.9132971" lon="9.7922131"><ele>114.16666666666667</ele><time>2026-04-04T14:41:52.883Z</time></trkpt><trkpt lat="44.9133028" lon="9.7921096"><ele>114.0</ele><time>2026-04-04T14:41:53.887Z</time></trkpt><trkpt lat="44.9133175" lon="9.7919544"><ele>114.0</ele><time>2026-04-04T14:41:55.899Z</time></trkpt><trkpt lat="44.9133214" lon="9.7918639"><ele>114.0</ele><time>2026-04-04T14:42:17.879Z</time></trkpt><trkpt lat="44.9133392" lon="9.7917371"><ele>114.0</ele><time>2026-04-04T14:42:20.886Z</time></trkpt><trkpt lat="44.9133531" lon="9.7916032"><ele>114.0</ele><time>2026-04-04T14:42:22.881Z</time></trkpt><trkpt lat="44.9133753" lon="9.7914675"><ele>114.0</ele><time>2026-04-04T14:42:24.886Z</time></trkpt><trkpt lat="44.913397" lon="9.7912932"><ele>114.0</ele><time>2026-04-04T14:42:26.881Z</time></trkpt><trkpt lat="44.9134122" lon="9.7911857"><ele>114.0</ele><time>2026-04-04T14:42:27.884Z</time></trkpt><trkpt lat="44.9134284" lon="9.7910711"><ele>114.0</ele><time>2026-04-04T14:42:28.899Z</time></trkpt><trkpt lat="44.9134482" lon="9.7909521"><ele>114.0</ele><time>2026-04-04T14:42:29.89Z</time></trkpt><trkpt lat="44.9134629" lon="9.7908188"><ele>114.0</ele><time>2026-04-04T14:42:30.914Z</time></trkpt><trkpt lat="44.9134812" lon="9.790684"><ele>114.0</ele><time>2026-04-04T14:42:31.881Z</time></trkpt><trkpt lat="44.9135001" lon="9.7905444"><ele>114.0</ele><time>2026-04-04T14:42:32.883Z</time></trkpt><trkpt lat="44.9135117" lon="9.7904044"><ele>114.0</ele><time>2026-04-04T14:42:33.891Z</time></trkpt><trkpt lat="44.9135218" lon="9.7902621"><ele>114.0</ele><time>2026-04-04T14:42:34.882Z</time></trkpt><trkpt lat="44.9135314" lon="9.7901137"><ele>114.0</ele><time>2026-04-04T14:42:35.873Z</time></trkpt><trkpt lat="44.9135466" lon="9.7899675"><ele>114.0</ele><time>2026-04-04T14:42:36.876Z</time></trkpt><trkpt lat="44.9135597" lon="9.7898167"><ele>113.80000000000001</ele><time>2026-04-04T14:42:37.888Z</time></trkpt><trkpt lat="44.9135778" lon="9.789658"><ele>113.60000000000001</ele><time>2026-04-04T14:42:38.889Z</time></trkpt><trkpt lat="44.9135939" lon="9.7895123"><ele>113.4</ele><time>2026-04-04T14:42:39.891Z</time></trkpt><trkpt lat="44.9136081" lon="9.7893686"><ele>113.2</ele><time>2026-04-04T14:42:40.893Z</time></trkpt><trkpt lat="44.9136201" lon="9.7892302"><ele>113.0</ele><time>2026-04-04T14:42:41.884Z</time></trkpt><trkpt lat="44.9136326" lon="9.7890957"><ele>113.80000000000001</ele><time>2026-04-04T14:42:42.876Z</time></trkpt><trkpt lat="44.9136454" lon="9.7889578"><ele>114.60000000000001</ele><time>2026-04-04T14:42:43.894Z</time></trkpt><trkpt lat="44.9136563" lon="9.7888215"><ele>115.39999999999999</ele><time>2026-04-04T14:42:44.882Z</time></trkpt><trkpt lat="44.9136613" lon="9.7886831"><ele>116.19999999999999</ele><time>2026-04-04T14:42:45.883Z</time></trkpt><trkpt lat="44.9136754" lon="9.7885455"><ele>117.0</ele><time>2026-04-04T14:42:46.902Z</time></trkpt><trkpt lat="44.9136911" lon="9.7883921"><ele>117.0</ele><time>2026-04-04T14:42:47.872Z</time></trkpt><trkpt lat="44.9137059" lon="9.7882369"><ele>116.99999999999999</ele><time>2026-04-04T14:42:48.877Z</time></trkpt><trkpt lat="44.9137242" lon="9.7880823"><ele>116.99999999999999</ele><time>2026-04-04T14:42:49.875Z</time></trkpt><trkpt lat="44.9137375" lon="9.7879322"><ele>117.0</ele><time>2026-04-04T14:42:50.874Z</time></trkpt><trkpt lat="44.9137475" lon="9.7877778"><ele>117.0</ele><time>2026-04-04T14:42:51.875Z</time></trkpt><trkpt lat="44.9137635" lon="9.7876291"><ele>117.0</ele><time>2026-04-04T14:42:52.89Z</time></trkpt><trkpt lat="44.91378" lon="9.7874766"><ele>116.99999999999999</ele><time>2026-04-04T14:42:53.885Z</time></trkpt><trkpt lat="44.9137933" lon="9.7873211"><ele>116.99999999999999</ele><time>2026-04-04T14:42:54.89Z</time></trkpt><trkpt lat="44.9138077" lon="9.7871714"><ele>117.0</ele><time>2026-04-04T14:42:55.874Z</time></trkpt><trkpt lat="44.9138162" lon="9.7870246"><ele>117.0</ele><time>2026-04-04T14:42:56.873Z</time></trkpt><trkpt lat="44.9138301" lon="9.7868966"><ele>116.66666666666667</ele><time>2026-04-04T14:42:57.884Z</time></trkpt><trkpt lat="44.9138429" lon="9.7867788"><ele>116.33333333333334</ele><time>2026-04-04T14:42:58.873Z</time></trkpt><trkpt lat="44.913855" lon="9.7866728"><ele>116.0</ele><time>2026-04-04T14:42:59.898Z</time></trkpt><trkpt lat="44.9138663" lon="9.7865768"><ele>115.66666666666667</ele><time>2026-04-04T14:43:00.884Z</time></trkpt><trkpt lat="44.9138907" lon="9.7864294"><ele>115.33333333333334</ele><time>2026-04-04T14:43:02.892Z</time></trkpt><trkpt lat="44.9139073" lon="9.7863314"><ele>115.0</ele><time>2026-04-04T14:43:04.878Z</time></trkpt><trkpt lat="44.9139349" lon="9.7861746"><ele>115.0</ele><time>2026-04-04T14:43:16.887Z</time></trkpt><trkpt lat="44.9139831" lon="9.7860145"><ele>115.0</ele><time>2026-04-04T14:43:18.922Z</time></trkpt><trkpt lat="44.9140175" lon="9.7859353"><ele>115.0</ele><time>2026-04-04T14:43:19.905Z</time></trkpt><trkpt lat="44.9140513" lon="9.7858601"><ele>115.0</ele><time>2026-04-04T14:43:20.907Z</time></trkpt><trkpt lat="44.9141439" lon="9.7857221"><ele>115.0</ele><time>2026-04-04T14:43:22.899Z</time></trkpt><trkpt lat="44.9142159" lon="9.7856605"><ele>115.0</ele><time>2026-04-04T14:43:23.903Z</time></trkpt><trkpt lat="44.9143003" lon="9.7856018"><ele>115.0</ele><time>2026-04-04T14:43:24.886Z</time></trkpt><trkpt lat="44.9143909" lon="9.7855304"><ele>115.0</ele><time>2026-04-04T14:43:25.908Z</time></trkpt><trkpt lat="44.9144864" lon="9.7854554"><ele>115.0</ele><time>2026-04-04T14:43:26.897Z</time></trkpt><trkpt lat="44.9145928" lon="9.7853861"><ele>115.0</ele><time>2026-04-04T14:43:27.903Z</time></trkpt><trkpt lat="44.9147011" lon="9.7853154"><ele>115.0</ele><time>2026-04-04T14:43:28.891Z</time></trkpt><trkpt lat="44.9148123" lon="9.7852453"><ele>115.0</ele><time>2026-04-04T14:43:29.897Z</time></trkpt><trkpt lat="44.9149274" lon="9.7851861"><ele>115.0</ele><time>2026-04-04T14:43:30.9Z</time></trkpt><trkpt lat="44.9150409" lon="9.7851269"><ele>115.0</ele><time>2026-04-04T14:43:31.886Z</time></trkpt><trkpt lat="44.9151492" lon="9.7850569"><ele>114.6</ele><time>2026-04-04T14:43:32.902Z</time></trkpt><trkpt lat="44.9152507" lon="9.784993"><ele>114.2</ele><time>2026-04-04T14:43:33.902Z</time></trkpt><trkpt lat="44.9153482" lon="9.7849323"><ele>113.80000000000001</ele><time>2026-04-04T14:43:34.898Z</time></trkpt><trkpt lat="44.9154468" lon="9.7848594"><ele>113.4</ele><time>2026-04-04T14:43:35.894Z</time></trkpt><trkpt lat="44.9155384" lon="9.7847748"><ele>113.0</ele><time>2026-04-04T14:43:36.883Z</time></trkpt><trkpt lat="44.9156315" lon="9.7846914"><ele>113.0</ele><time>2026-04-04T14:43:37.893Z</time></trkpt><trkpt lat="44.9157022" lon="9.7846234"><ele>113.0</ele><time>2026-04-04T14:43:38.898Z</time></trkpt><trkpt lat="44.9157777" lon="9.7846034"><ele>113.0</ele><time>2026-04-04T14:43:40.898Z</time></trkpt><trkpt lat="44.9157711" lon="9.7847394"><ele>113.0</ele><time>2026-04-04T14:43:43.899Z</time></trkpt><trkpt lat="44.9157135" lon="9.7848213"><ele>113.0</ele><time>2026-04-04T14:43:45.901Z</time></trkpt></trkseg></trk></gpx>